<?xml version="1.0" encoding="UTF-8" standalone="no" ?>
<gpx xmlns="http://www.topografix.com/GPX/1/1" xmlns:xsi="http://www.w3.org/2001/XMLSchema-instance" xsi:schemaLocation="http://www.topografix.com/GPX/1/1 http://www.topografix.com/GPX/1/1/gpx.xsd" version="1.1" creator="VisuGPX - https://www.visugpx.com">
  <metadata>
    <name>boucle Forbach Sarrebruck et retour par Gersweiler</name>
    <desc><![CDATA[randonnée transfrontalière passant par des monument commémoratifs de la guerre de 1870]]></desc>
  </metadata>
  <trk>
    <name><![CDATA[2014-04-13-01]]></name>
    <trkseg>
      <trkpt lat="49.18243" lon="6.90399">
        <ele>250.9</ele>
        <time>2014-04-13T06:32:20Z</time>
      </trkpt>
      <trkpt lat="49.18244" lon="6.90399">
        <ele>251.1</ele>
        <time>2014-04-13T06:32:21Z</time>
      </trkpt>
      <trkpt lat="49.18244" lon="6.90401">
        <ele>250.8</ele>
        <time>2014-04-13T06:32:26Z</time>
      </trkpt>
      <trkpt lat="49.18241" lon="6.90405">
        <ele>250.7</ele>
        <time>2014-04-13T06:32:31Z</time>
      </trkpt>
      <trkpt lat="49.18236" lon="6.90405">
        <ele>251.3</ele>
        <time>2014-04-13T06:32:36Z</time>
      </trkpt>
      <trkpt lat="49.18231" lon="6.90408">
        <ele>251.5</ele>
        <time>2014-04-13T06:32:41Z</time>
      </trkpt>
      <trkpt lat="49.18227" lon="6.90409">
        <ele>250.9</ele>
        <time>2014-04-13T06:32:46Z</time>
      </trkpt>
      <trkpt lat="49.18224" lon="6.9041">
        <ele>251.3</ele>
        <time>2014-04-13T06:32:51Z</time>
      </trkpt>
      <trkpt lat="49.18222" lon="6.90411">
        <ele>251.5</ele>
        <time>2014-04-13T06:32:56Z</time>
      </trkpt>
      <trkpt lat="49.1822" lon="6.90411">
        <ele>252.2</ele>
        <time>2014-04-13T06:33:01Z</time>
      </trkpt>
      <trkpt lat="49.18218" lon="6.90411">
        <ele>252.4</ele>
        <time>2014-04-13T06:33:06Z</time>
      </trkpt>
      <trkpt lat="49.18216" lon="6.90412">
        <ele>252.3</ele>
        <time>2014-04-13T06:33:11Z</time>
      </trkpt>
      <trkpt lat="49.18215" lon="6.90412">
        <ele>251</ele>
        <time>2014-04-13T06:33:16Z</time>
      </trkpt>
      <trkpt lat="49.18214" lon="6.90413">
        <ele>251.4</ele>
        <time>2014-04-13T06:33:21Z</time>
      </trkpt>
      <trkpt lat="49.18213" lon="6.90412">
        <ele>252.3</ele>
        <time>2014-04-13T06:33:26Z</time>
      </trkpt>
      <trkpt lat="49.18212" lon="6.90411">
        <ele>251.8</ele>
        <time>2014-04-13T06:33:31Z</time>
      </trkpt>
      <trkpt lat="49.18211" lon="6.90412">
        <ele>251.4</ele>
        <time>2014-04-13T06:33:36Z</time>
      </trkpt>
      <trkpt lat="49.1821" lon="6.90413">
        <ele>252.4</ele>
        <time>2014-04-13T06:33:41Z</time>
      </trkpt>
      <trkpt lat="49.18209" lon="6.90414">
        <ele>251.4</ele>
        <time>2014-04-13T06:33:46Z</time>
      </trkpt>
      <trkpt lat="49.18208" lon="6.90415">
        <ele>251.6</ele>
        <time>2014-04-13T06:33:51Z</time>
      </trkpt>
      <trkpt lat="49.18208" lon="6.90415">
        <ele>252.1</ele>
        <time>2014-04-13T06:33:56Z</time>
      </trkpt>
      <trkpt lat="49.18208" lon="6.90415">
        <ele>252.7</ele>
        <time>2014-04-13T06:34:01Z</time>
      </trkpt>
      <trkpt lat="49.18209" lon="6.90414">
        <ele>252.1</ele>
        <time>2014-04-13T06:34:06Z</time>
      </trkpt>
      <trkpt lat="49.1821" lon="6.90415">
        <ele>251.7</ele>
        <time>2014-04-13T06:34:11Z</time>
      </trkpt>
      <trkpt lat="49.1821" lon="6.90415">
        <ele>251.5</ele>
        <time>2014-04-13T06:34:16Z</time>
      </trkpt>
      <trkpt lat="49.1821" lon="6.90415">
        <ele>251.7</ele>
        <time>2014-04-13T06:34:21Z</time>
      </trkpt>
      <trkpt lat="49.1821" lon="6.90415">
        <ele>251.6</ele>
        <time>2014-04-13T06:34:26Z</time>
      </trkpt>
      <trkpt lat="49.1821" lon="6.90414">
        <ele>251.9</ele>
        <time>2014-04-13T06:34:31Z</time>
      </trkpt>
      <trkpt lat="49.18211" lon="6.90413">
        <ele>251.9</ele>
        <time>2014-04-13T06:34:36Z</time>
      </trkpt>
      <trkpt lat="49.18211" lon="6.90412">
        <ele>252.2</ele>
        <time>2014-04-13T06:34:41Z</time>
      </trkpt>
      <trkpt lat="49.18211" lon="6.90412">
        <ele>251.8</ele>
        <time>2014-04-13T06:34:46Z</time>
      </trkpt>
      <trkpt lat="49.18211" lon="6.90412">
        <ele>251.9</ele>
        <time>2014-04-13T06:34:51Z</time>
      </trkpt>
      <trkpt lat="49.18212" lon="6.90413">
        <ele>252.4</ele>
        <time>2014-04-13T06:34:56Z</time>
      </trkpt>
      <trkpt lat="49.18212" lon="6.90415">
        <ele>252.1</ele>
        <time>2014-04-13T06:35:01Z</time>
      </trkpt>
      <trkpt lat="49.18211" lon="6.90419">
        <ele>252.4</ele>
        <time>2014-04-13T06:35:06Z</time>
      </trkpt>
      <trkpt lat="49.18209" lon="6.90423">
        <ele>252.6</ele>
        <time>2014-04-13T06:35:11Z</time>
      </trkpt>
      <trkpt lat="49.18206" lon="6.90428">
        <ele>252.9</ele>
        <time>2014-04-13T06:35:16Z</time>
      </trkpt>
      <trkpt lat="49.18202" lon="6.90433">
        <ele>252.7</ele>
        <time>2014-04-13T06:35:21Z</time>
      </trkpt>
      <trkpt lat="49.182" lon="6.90436">
        <ele>252.9</ele>
        <time>2014-04-13T06:35:26Z</time>
      </trkpt>
      <trkpt lat="49.18197" lon="6.90438">
        <ele>253.1</ele>
        <time>2014-04-13T06:35:31Z</time>
      </trkpt>
      <trkpt lat="49.18196" lon="6.9044">
        <ele>254.2</ele>
        <time>2014-04-13T06:35:36Z</time>
      </trkpt>
      <trkpt lat="49.18195" lon="6.90449">
        <ele>256.6</ele>
        <time>2014-04-13T06:35:46Z</time>
      </trkpt>
      <trkpt lat="49.18196" lon="6.90455">
        <ele>258.2</ele>
        <time>2014-04-13T06:35:51Z</time>
      </trkpt>
      <trkpt lat="49.18197" lon="6.90461">
        <ele>259.2</ele>
        <time>2014-04-13T06:35:56Z</time>
      </trkpt>
      <trkpt lat="49.18198" lon="6.90468">
        <ele>260.4</ele>
        <time>2014-04-13T06:36:01Z</time>
      </trkpt>
      <trkpt lat="49.182" lon="6.90474">
        <ele>261.5</ele>
        <time>2014-04-13T06:36:06Z</time>
      </trkpt>
      <trkpt lat="49.182" lon="6.9048">
        <ele>262.1</ele>
        <time>2014-04-13T06:36:11Z</time>
      </trkpt>
      <trkpt lat="49.182" lon="6.90485">
        <ele>263.3</ele>
        <time>2014-04-13T06:36:16Z</time>
      </trkpt>
      <trkpt lat="49.182" lon="6.90491">
        <ele>264.2</ele>
        <time>2014-04-13T06:36:21Z</time>
      </trkpt>
      <trkpt lat="49.18201" lon="6.90497">
        <ele>265.5</ele>
        <time>2014-04-13T06:36:26Z</time>
      </trkpt>
      <trkpt lat="49.18201" lon="6.90505">
        <ele>265.8</ele>
        <time>2014-04-13T06:36:31Z</time>
      </trkpt>
      <trkpt lat="49.18202" lon="6.90512">
        <ele>266.1</ele>
        <time>2014-04-13T06:36:36Z</time>
      </trkpt>
      <trkpt lat="49.18204" lon="6.90519">
        <ele>267.5</ele>
        <time>2014-04-13T06:36:41Z</time>
      </trkpt>
      <trkpt lat="49.18206" lon="6.90535">
        <ele>269.8</ele>
        <time>2014-04-13T06:36:51Z</time>
      </trkpt>
      <trkpt lat="49.18206" lon="6.90543">
        <ele>270.5</ele>
        <time>2014-04-13T06:36:56Z</time>
      </trkpt>
      <trkpt lat="49.18207" lon="6.90551">
        <ele>271.1</ele>
        <time>2014-04-13T06:37:01Z</time>
      </trkpt>
      <trkpt lat="49.18208" lon="6.9056">
        <ele>271.8</ele>
        <time>2014-04-13T06:37:06Z</time>
      </trkpt>
      <trkpt lat="49.18207" lon="6.90568">
        <ele>271.9</ele>
        <time>2014-04-13T06:37:11Z</time>
      </trkpt>
      <trkpt lat="49.18206" lon="6.90575">
        <ele>271.7</ele>
        <time>2014-04-13T06:37:16Z</time>
      </trkpt>
      <trkpt lat="49.18206" lon="6.90583">
        <ele>273</ele>
        <time>2014-04-13T06:37:21Z</time>
      </trkpt>
      <trkpt lat="49.18205" lon="6.90592">
        <ele>273.1</ele>
        <time>2014-04-13T06:37:26Z</time>
      </trkpt>
      <trkpt lat="49.18205" lon="6.906">
        <ele>274</ele>
        <time>2014-04-13T06:37:31Z</time>
      </trkpt>
      <trkpt lat="49.18204" lon="6.90611">
        <ele>274.1</ele>
        <time>2014-04-13T06:37:36Z</time>
      </trkpt>
      <trkpt lat="49.18203" lon="6.90619">
        <ele>275</ele>
        <time>2014-04-13T06:37:41Z</time>
      </trkpt>
      <trkpt lat="49.18201" lon="6.90628">
        <ele>275.9</ele>
        <time>2014-04-13T06:37:46Z</time>
      </trkpt>
      <trkpt lat="49.18194" lon="6.90642">
        <ele>277.2</ele>
        <time>2014-04-13T06:37:56Z</time>
      </trkpt>
      <trkpt lat="49.1819" lon="6.90649">
        <ele>278.3</ele>
        <time>2014-04-13T06:38:01Z</time>
      </trkpt>
      <trkpt lat="49.18186" lon="6.90657">
        <ele>279.9</ele>
        <time>2014-04-13T06:38:06Z</time>
      </trkpt>
      <trkpt lat="49.18183" lon="6.90663">
        <ele>280.6</ele>
        <time>2014-04-13T06:38:11Z</time>
      </trkpt>
      <trkpt lat="49.18178" lon="6.90667">
        <ele>281.6</ele>
        <time>2014-04-13T06:38:16Z</time>
      </trkpt>
      <trkpt lat="49.18173" lon="6.9067">
        <ele>282.2</ele>
        <time>2014-04-13T06:38:21Z</time>
      </trkpt>
      <trkpt lat="49.18169" lon="6.90671">
        <ele>283.1</ele>
        <time>2014-04-13T06:38:26Z</time>
      </trkpt>
      <trkpt lat="49.18167" lon="6.90673">
        <ele>283.7</ele>
        <time>2014-04-13T06:38:31Z</time>
      </trkpt>
      <trkpt lat="49.18166" lon="6.90673">
        <ele>283.8</ele>
        <time>2014-04-13T06:38:36Z</time>
      </trkpt>
      <trkpt lat="49.18165" lon="6.90673">
        <ele>284.7</ele>
        <time>2014-04-13T06:38:41Z</time>
      </trkpt>
      <trkpt lat="49.18164" lon="6.90674">
        <ele>283.8</ele>
        <time>2014-04-13T06:38:46Z</time>
      </trkpt>
      <trkpt lat="49.18164" lon="6.90675">
        <ele>283.5</ele>
        <time>2014-04-13T06:38:51Z</time>
      </trkpt>
      <trkpt lat="49.18162" lon="6.90677">
        <ele>283.8</ele>
        <time>2014-04-13T06:39:01Z</time>
      </trkpt>
      <trkpt lat="49.1816" lon="6.90677">
        <ele>283.5</ele>
        <time>2014-04-13T06:39:06Z</time>
      </trkpt>
      <trkpt lat="49.18156" lon="6.90676">
        <ele>283</ele>
        <time>2014-04-13T06:39:11Z</time>
      </trkpt>
      <trkpt lat="49.18151" lon="6.90677">
        <ele>283.4</ele>
        <time>2014-04-13T06:39:16Z</time>
      </trkpt>
      <trkpt lat="49.18146" lon="6.90679">
        <ele>282.3</ele>
        <time>2014-04-13T06:39:21Z</time>
      </trkpt>
      <trkpt lat="49.18142" lon="6.90681">
        <ele>281.4</ele>
        <time>2014-04-13T06:39:26Z</time>
      </trkpt>
      <trkpt lat="49.18138" lon="6.90683">
        <ele>280.5</ele>
        <time>2014-04-13T06:39:31Z</time>
      </trkpt>
      <trkpt lat="49.18132" lon="6.90683">
        <ele>279.2</ele>
        <time>2014-04-13T06:39:36Z</time>
      </trkpt>
      <trkpt lat="49.18126" lon="6.90683">
        <ele>278.3</ele>
        <time>2014-04-13T06:39:41Z</time>
      </trkpt>
      <trkpt lat="49.18121" lon="6.90684">
        <ele>277.6</ele>
        <time>2014-04-13T06:39:46Z</time>
      </trkpt>
      <trkpt lat="49.18117" lon="6.90686">
        <ele>276.7</ele>
        <time>2014-04-13T06:39:51Z</time>
      </trkpt>
      <trkpt lat="49.18111" lon="6.90686">
        <ele>275.3</ele>
        <time>2014-04-13T06:39:56Z</time>
      </trkpt>
      <trkpt lat="49.18097" lon="6.90688">
        <ele>272.8</ele>
        <time>2014-04-13T06:40:06Z</time>
      </trkpt>
      <trkpt lat="49.18092" lon="6.90689">
        <ele>271.8</ele>
        <time>2014-04-13T06:40:11Z</time>
      </trkpt>
      <trkpt lat="49.18091" lon="6.90689">
        <ele>271.7</ele>
        <time>2014-04-13T06:40:16Z</time>
      </trkpt>
      <trkpt lat="49.18089" lon="6.90688">
        <ele>271.5</ele>
        <time>2014-04-13T06:40:21Z</time>
      </trkpt>
      <trkpt lat="49.18087" lon="6.90688">
        <ele>271</ele>
        <time>2014-04-13T06:40:26Z</time>
      </trkpt>
      <trkpt lat="49.18086" lon="6.90688">
        <ele>271.2</ele>
        <time>2014-04-13T06:40:31Z</time>
      </trkpt>
      <trkpt lat="49.18086" lon="6.90688">
        <ele>271.5</ele>
        <time>2014-04-13T06:40:36Z</time>
      </trkpt>
      <trkpt lat="49.18085" lon="6.90688">
        <ele>271</ele>
        <time>2014-04-13T06:40:41Z</time>
      </trkpt>
      <trkpt lat="49.18085" lon="6.90688">
        <ele>270.7</ele>
        <time>2014-04-13T06:40:46Z</time>
      </trkpt>
      <trkpt lat="49.18085" lon="6.90688">
        <ele>270.8</ele>
        <time>2014-04-13T06:40:51Z</time>
      </trkpt>
      <trkpt lat="49.18085" lon="6.90687">
        <ele>270.8</ele>
        <time>2014-04-13T06:40:56Z</time>
      </trkpt>
      <trkpt lat="49.18084" lon="6.90687">
        <ele>271.2</ele>
        <time>2014-04-13T06:41:01Z</time>
      </trkpt>
      <trkpt lat="49.18079" lon="6.90699">
        <ele>271.3</ele>
        <time>2014-04-13T06:41:11Z</time>
      </trkpt>
      <trkpt lat="49.18077" lon="6.90708">
        <ele>270.8</ele>
        <time>2014-04-13T06:41:16Z</time>
      </trkpt>
      <trkpt lat="49.18073" lon="6.90716">
        <ele>270.4</ele>
        <time>2014-04-13T06:41:21Z</time>
      </trkpt>
      <trkpt lat="49.18069" lon="6.90723">
        <ele>270</ele>
        <time>2014-04-13T06:41:26Z</time>
      </trkpt>
      <trkpt lat="49.18065" lon="6.9073">
        <ele>269.3</ele>
        <time>2014-04-13T06:41:31Z</time>
      </trkpt>
      <trkpt lat="49.1806" lon="6.90737">
        <ele>268.6</ele>
        <time>2014-04-13T06:41:36Z</time>
      </trkpt>
      <trkpt lat="49.18056" lon="6.90744">
        <ele>268.1</ele>
        <time>2014-04-13T06:41:41Z</time>
      </trkpt>
      <trkpt lat="49.18053" lon="6.90751">
        <ele>267.9</ele>
        <time>2014-04-13T06:41:46Z</time>
      </trkpt>
      <trkpt lat="49.1805" lon="6.9076">
        <ele>267</ele>
        <time>2014-04-13T06:41:51Z</time>
      </trkpt>
      <trkpt lat="49.18049" lon="6.90769">
        <ele>266.2</ele>
        <time>2014-04-13T06:41:56Z</time>
      </trkpt>
      <trkpt lat="49.18047" lon="6.90778">
        <ele>266.1</ele>
        <time>2014-04-13T06:42:01Z</time>
      </trkpt>
      <trkpt lat="49.18048" lon="6.9079">
        <ele>265.1</ele>
        <time>2014-04-13T06:42:06Z</time>
      </trkpt>
      <trkpt lat="49.18053" lon="6.90811">
        <ele>264.1</ele>
        <time>2014-04-13T06:42:16Z</time>
      </trkpt>
      <trkpt lat="49.18056" lon="6.90821">
        <ele>262.8</ele>
        <time>2014-04-13T06:42:21Z</time>
      </trkpt>
      <trkpt lat="49.1806" lon="6.90831">
        <ele>262.3</ele>
        <time>2014-04-13T06:42:26Z</time>
      </trkpt>
      <trkpt lat="49.18064" lon="6.9084">
        <ele>261.9</ele>
        <time>2014-04-13T06:42:31Z</time>
      </trkpt>
      <trkpt lat="49.18068" lon="6.90849">
        <ele>260.8</ele>
        <time>2014-04-13T06:42:36Z</time>
      </trkpt>
      <trkpt lat="49.18072" lon="6.90858">
        <ele>260.3</ele>
        <time>2014-04-13T06:42:41Z</time>
      </trkpt>
      <trkpt lat="49.18078" lon="6.90865">
        <ele>259.1</ele>
        <time>2014-04-13T06:42:46Z</time>
      </trkpt>
      <trkpt lat="49.18083" lon="6.90872">
        <ele>258.7</ele>
        <time>2014-04-13T06:42:51Z</time>
      </trkpt>
      <trkpt lat="49.18089" lon="6.90879">
        <ele>258.4</ele>
        <time>2014-04-13T06:42:56Z</time>
      </trkpt>
      <trkpt lat="49.18094" lon="6.90886">
        <ele>258.1</ele>
        <time>2014-04-13T06:43:01Z</time>
      </trkpt>
      <trkpt lat="49.181" lon="6.90892">
        <ele>257.4</ele>
        <time>2014-04-13T06:43:06Z</time>
      </trkpt>
      <trkpt lat="49.18106" lon="6.909">
        <ele>257.7</ele>
        <time>2014-04-13T06:43:11Z</time>
      </trkpt>
      <trkpt lat="49.18115" lon="6.90916">
        <ele>257.6</ele>
        <time>2014-04-13T06:43:21Z</time>
      </trkpt>
      <trkpt lat="49.18118" lon="6.90927">
        <ele>257.6</ele>
        <time>2014-04-13T06:43:26Z</time>
      </trkpt>
      <trkpt lat="49.18119" lon="6.90937">
        <ele>257.7</ele>
        <time>2014-04-13T06:43:31Z</time>
      </trkpt>
      <trkpt lat="49.18122" lon="6.90948">
        <ele>257.7</ele>
        <time>2014-04-13T06:43:36Z</time>
      </trkpt>
      <trkpt lat="49.18124" lon="6.90959">
        <ele>257.7</ele>
        <time>2014-04-13T06:43:41Z</time>
      </trkpt>
      <trkpt lat="49.18127" lon="6.9097">
        <ele>258.3</ele>
        <time>2014-04-13T06:43:46Z</time>
      </trkpt>
      <trkpt lat="49.18128" lon="6.90981">
        <ele>257.4</ele>
        <time>2014-04-13T06:43:51Z</time>
      </trkpt>
      <trkpt lat="49.18126" lon="6.90991">
        <ele>257.1</ele>
        <time>2014-04-13T06:43:56Z</time>
      </trkpt>
      <trkpt lat="49.18124" lon="6.91001">
        <ele>257</ele>
        <time>2014-04-13T06:44:01Z</time>
      </trkpt>
      <trkpt lat="49.18123" lon="6.91012">
        <ele>257.3</ele>
        <time>2014-04-13T06:44:06Z</time>
      </trkpt>
      <trkpt lat="49.18123" lon="6.91022">
        <ele>257.3</ele>
        <time>2014-04-13T06:44:11Z</time>
      </trkpt>
      <trkpt lat="49.18121" lon="6.91033">
        <ele>257.4</ele>
        <time>2014-04-13T06:44:16Z</time>
      </trkpt>
      <trkpt lat="49.18118" lon="6.91055">
        <ele>258.1</ele>
        <time>2014-04-13T06:44:26Z</time>
      </trkpt>
      <trkpt lat="49.18117" lon="6.91067">
        <ele>257.8</ele>
        <time>2014-04-13T06:44:31Z</time>
      </trkpt>
      <trkpt lat="49.18115" lon="6.91078">
        <ele>257.6</ele>
        <time>2014-04-13T06:44:36Z</time>
      </trkpt>
      <trkpt lat="49.18114" lon="6.91088">
        <ele>257.5</ele>
        <time>2014-04-13T06:44:41Z</time>
      </trkpt>
      <trkpt lat="49.18113" lon="6.91098">
        <ele>256.8</ele>
        <time>2014-04-13T06:44:46Z</time>
      </trkpt>
      <trkpt lat="49.18113" lon="6.91109">
        <ele>256.3</ele>
        <time>2014-04-13T06:44:51Z</time>
      </trkpt>
      <trkpt lat="49.18113" lon="6.9112">
        <ele>256.6</ele>
        <time>2014-04-13T06:44:56Z</time>
      </trkpt>
      <trkpt lat="49.18114" lon="6.9113">
        <ele>255.7</ele>
        <time>2014-04-13T06:45:01Z</time>
      </trkpt>
      <trkpt lat="49.18113" lon="6.9114">
        <ele>255.3</ele>
        <time>2014-04-13T06:45:06Z</time>
      </trkpt>
      <trkpt lat="49.18113" lon="6.91152">
        <ele>255.8</ele>
        <time>2014-04-13T06:45:11Z</time>
      </trkpt>
      <trkpt lat="49.18115" lon="6.91164">
        <ele>255</ele>
        <time>2014-04-13T06:45:16Z</time>
      </trkpt>
      <trkpt lat="49.18116" lon="6.91174">
        <ele>255.1</ele>
        <time>2014-04-13T06:45:21Z</time>
      </trkpt>
      <trkpt lat="49.1812" lon="6.91197">
        <ele>254.7</ele>
        <time>2014-04-13T06:45:31Z</time>
      </trkpt>
      <trkpt lat="49.18122" lon="6.91208">
        <ele>254.7</ele>
        <time>2014-04-13T06:45:36Z</time>
      </trkpt>
      <trkpt lat="49.18124" lon="6.91218">
        <ele>254.4</ele>
        <time>2014-04-13T06:45:41Z</time>
      </trkpt>
      <trkpt lat="49.18125" lon="6.91228">
        <ele>254.6</ele>
        <time>2014-04-13T06:45:46Z</time>
      </trkpt>
      <trkpt lat="49.18126" lon="6.91237">
        <ele>254.9</ele>
        <time>2014-04-13T06:45:51Z</time>
      </trkpt>
      <trkpt lat="49.18128" lon="6.91247">
        <ele>255.3</ele>
        <time>2014-04-13T06:45:56Z</time>
      </trkpt>
      <trkpt lat="49.18129" lon="6.91258">
        <ele>255.4</ele>
        <time>2014-04-13T06:46:01Z</time>
      </trkpt>
      <trkpt lat="49.18127" lon="6.91267">
        <ele>255.1</ele>
        <time>2014-04-13T06:46:06Z</time>
      </trkpt>
      <trkpt lat="49.18127" lon="6.91276">
        <ele>256.5</ele>
        <time>2014-04-13T06:46:11Z</time>
      </trkpt>
      <trkpt lat="49.18128" lon="6.91287">
        <ele>256.3</ele>
        <time>2014-04-13T06:46:16Z</time>
      </trkpt>
      <trkpt lat="49.18129" lon="6.91298">
        <ele>257</ele>
        <time>2014-04-13T06:46:21Z</time>
      </trkpt>
      <trkpt lat="49.18129" lon="6.9131">
        <ele>258</ele>
        <time>2014-04-13T06:46:26Z</time>
      </trkpt>
      <trkpt lat="49.1813" lon="6.91334">
        <ele>259.6</ele>
        <time>2014-04-13T06:46:36Z</time>
      </trkpt>
      <trkpt lat="49.18129" lon="6.91345">
        <ele>260.3</ele>
        <time>2014-04-13T06:46:41Z</time>
      </trkpt>
      <trkpt lat="49.18129" lon="6.91355">
        <ele>260.2</ele>
        <time>2014-04-13T06:46:46Z</time>
      </trkpt>
      <trkpt lat="49.18129" lon="6.91365">
        <ele>260.3</ele>
        <time>2014-04-13T06:46:51Z</time>
      </trkpt>
      <trkpt lat="49.18129" lon="6.91376">
        <ele>260.8</ele>
        <time>2014-04-13T06:46:56Z</time>
      </trkpt>
      <trkpt lat="49.18128" lon="6.91388">
        <ele>260.7</ele>
        <time>2014-04-13T06:47:01Z</time>
      </trkpt>
      <trkpt lat="49.18127" lon="6.91399">
        <ele>260.6</ele>
        <time>2014-04-13T06:47:06Z</time>
      </trkpt>
      <trkpt lat="49.18128" lon="6.9141">
        <ele>261.1</ele>
        <time>2014-04-13T06:47:11Z</time>
      </trkpt>
      <trkpt lat="49.18129" lon="6.91422">
        <ele>260.9</ele>
        <time>2014-04-13T06:47:16Z</time>
      </trkpt>
      <trkpt lat="49.18129" lon="6.91434">
        <ele>260.7</ele>
        <time>2014-04-13T06:47:21Z</time>
      </trkpt>
      <trkpt lat="49.1813" lon="6.91444">
        <ele>259.9</ele>
        <time>2014-04-13T06:47:26Z</time>
      </trkpt>
      <trkpt lat="49.1813" lon="6.91457">
        <ele>259.8</ele>
        <time>2014-04-13T06:47:31Z</time>
      </trkpt>
      <trkpt lat="49.18129" lon="6.9148">
        <ele>258.9</ele>
        <time>2014-04-13T06:47:41Z</time>
      </trkpt>
      <trkpt lat="49.18129" lon="6.91491">
        <ele>258.6</ele>
        <time>2014-04-13T06:47:46Z</time>
      </trkpt>
      <trkpt lat="49.1813" lon="6.91503">
        <ele>258.4</ele>
        <time>2014-04-13T06:47:51Z</time>
      </trkpt>
      <trkpt lat="49.18131" lon="6.91512">
        <ele>258.7</ele>
        <time>2014-04-13T06:47:56Z</time>
      </trkpt>
      <trkpt lat="49.18132" lon="6.91521">
        <ele>258.1</ele>
        <time>2014-04-13T06:48:01Z</time>
      </trkpt>
      <trkpt lat="49.18132" lon="6.91531">
        <ele>258.5</ele>
        <time>2014-04-13T06:48:06Z</time>
      </trkpt>
      <trkpt lat="49.18132" lon="6.91541">
        <ele>258.4</ele>
        <time>2014-04-13T06:48:11Z</time>
      </trkpt>
      <trkpt lat="49.18134" lon="6.9155">
        <ele>258</ele>
        <time>2014-04-13T06:48:16Z</time>
      </trkpt>
      <trkpt lat="49.18138" lon="6.91559">
        <ele>258.2</ele>
        <time>2014-04-13T06:48:21Z</time>
      </trkpt>
      <trkpt lat="49.18143" lon="6.91567">
        <ele>258.1</ele>
        <time>2014-04-13T06:48:26Z</time>
      </trkpt>
      <trkpt lat="49.18149" lon="6.91572">
        <ele>258.8</ele>
        <time>2014-04-13T06:48:31Z</time>
      </trkpt>
      <trkpt lat="49.18156" lon="6.91574">
        <ele>258.1</ele>
        <time>2014-04-13T06:48:36Z</time>
      </trkpt>
      <trkpt lat="49.18169" lon="6.9158">
        <ele>259.3</ele>
        <time>2014-04-13T06:48:46Z</time>
      </trkpt>
      <trkpt lat="49.18175" lon="6.91582">
        <ele>259.9</ele>
        <time>2014-04-13T06:48:51Z</time>
      </trkpt>
      <trkpt lat="49.18182" lon="6.91583">
        <ele>260.3</ele>
        <time>2014-04-13T06:48:56Z</time>
      </trkpt>
      <trkpt lat="49.18189" lon="6.91584">
        <ele>260.6</ele>
        <time>2014-04-13T06:49:01Z</time>
      </trkpt>
      <trkpt lat="49.18196" lon="6.91584">
        <ele>260.9</ele>
        <time>2014-04-13T06:49:06Z</time>
      </trkpt>
      <trkpt lat="49.18203" lon="6.91584">
        <ele>260.9</ele>
        <time>2014-04-13T06:49:11Z</time>
      </trkpt>
      <trkpt lat="49.1821" lon="6.91584">
        <ele>261.2</ele>
        <time>2014-04-13T06:49:16Z</time>
      </trkpt>
      <trkpt lat="49.18216" lon="6.91585">
        <ele>261.5</ele>
        <time>2014-04-13T06:49:21Z</time>
      </trkpt>
      <trkpt lat="49.18223" lon="6.91586">
        <ele>261.6</ele>
        <time>2014-04-13T06:49:26Z</time>
      </trkpt>
      <trkpt lat="49.1823" lon="6.91586">
        <ele>260.9</ele>
        <time>2014-04-13T06:49:31Z</time>
      </trkpt>
      <trkpt lat="49.18237" lon="6.91587">
        <ele>260.4</ele>
        <time>2014-04-13T06:49:36Z</time>
      </trkpt>
      <trkpt lat="49.18244" lon="6.91586">
        <ele>260</ele>
        <time>2014-04-13T06:49:41Z</time>
      </trkpt>
      <trkpt lat="49.18257" lon="6.91584">
        <ele>259.4</ele>
        <time>2014-04-13T06:49:51Z</time>
      </trkpt>
      <trkpt lat="49.18263" lon="6.91585">
        <ele>259.3</ele>
        <time>2014-04-13T06:49:56Z</time>
      </trkpt>
      <trkpt lat="49.18267" lon="6.9159">
        <ele>258.6</ele>
        <time>2014-04-13T06:50:01Z</time>
      </trkpt>
      <trkpt lat="49.1827" lon="6.91596">
        <ele>257.2</ele>
        <time>2014-04-13T06:50:06Z</time>
      </trkpt>
      <trkpt lat="49.18271" lon="6.91603">
        <ele>257.1</ele>
        <time>2014-04-13T06:50:11Z</time>
      </trkpt>
      <trkpt lat="49.18272" lon="6.91613">
        <ele>257.2</ele>
        <time>2014-04-13T06:50:16Z</time>
      </trkpt>
      <trkpt lat="49.18273" lon="6.91621">
        <ele>256.4</ele>
        <time>2014-04-13T06:50:21Z</time>
      </trkpt>
      <trkpt lat="49.18278" lon="6.91626">
        <ele>256.8</ele>
        <time>2014-04-13T06:50:26Z</time>
      </trkpt>
      <trkpt lat="49.18284" lon="6.91625">
        <ele>256.7</ele>
        <time>2014-04-13T06:50:31Z</time>
      </trkpt>
      <trkpt lat="49.18291" lon="6.91625">
        <ele>256.8</ele>
        <time>2014-04-13T06:50:36Z</time>
      </trkpt>
      <trkpt lat="49.18294" lon="6.91631">
        <ele>256.3</ele>
        <time>2014-04-13T06:50:41Z</time>
      </trkpt>
      <trkpt lat="49.18296" lon="6.9164">
        <ele>256.6</ele>
        <time>2014-04-13T06:50:46Z</time>
      </trkpt>
      <trkpt lat="49.18296" lon="6.91657">
        <ele>256.7</ele>
        <time>2014-04-13T06:50:56Z</time>
      </trkpt>
      <trkpt lat="49.18296" lon="6.91666">
        <ele>257.6</ele>
        <time>2014-04-13T06:51:01Z</time>
      </trkpt>
      <trkpt lat="49.18296" lon="6.91674">
        <ele>257.8</ele>
        <time>2014-04-13T06:51:06Z</time>
      </trkpt>
      <trkpt lat="49.18296" lon="6.91684">
        <ele>257.7</ele>
        <time>2014-04-13T06:51:11Z</time>
      </trkpt>
      <trkpt lat="49.18296" lon="6.91696">
        <ele>257.8</ele>
        <time>2014-04-13T06:51:16Z</time>
      </trkpt>
      <trkpt lat="49.18296" lon="6.91707">
        <ele>258.7</ele>
        <time>2014-04-13T06:51:21Z</time>
      </trkpt>
      <trkpt lat="49.18296" lon="6.91719">
        <ele>259.4</ele>
        <time>2014-04-13T06:51:26Z</time>
      </trkpt>
      <trkpt lat="49.18295" lon="6.9173">
        <ele>259.2</ele>
        <time>2014-04-13T06:51:31Z</time>
      </trkpt>
      <trkpt lat="49.18295" lon="6.91741">
        <ele>259.5</ele>
        <time>2014-04-13T06:51:36Z</time>
      </trkpt>
      <trkpt lat="49.18294" lon="6.9175">
        <ele>260</ele>
        <time>2014-04-13T06:51:41Z</time>
      </trkpt>
      <trkpt lat="49.18293" lon="6.91759">
        <ele>260.6</ele>
        <time>2014-04-13T06:51:46Z</time>
      </trkpt>
      <trkpt lat="49.18292" lon="6.91769">
        <ele>260.9</ele>
        <time>2014-04-13T06:51:51Z</time>
      </trkpt>
      <trkpt lat="49.18291" lon="6.91789">
        <ele>261.9</ele>
        <time>2014-04-13T06:52:01Z</time>
      </trkpt>
      <trkpt lat="49.18291" lon="6.91799">
        <ele>261.6</ele>
        <time>2014-04-13T06:52:06Z</time>
      </trkpt>
      <trkpt lat="49.18291" lon="6.91809">
        <ele>262.1</ele>
        <time>2014-04-13T06:52:11Z</time>
      </trkpt>
      <trkpt lat="49.1829" lon="6.91819">
        <ele>262.4</ele>
        <time>2014-04-13T06:52:16Z</time>
      </trkpt>
      <trkpt lat="49.18289" lon="6.91829">
        <ele>263.2</ele>
        <time>2014-04-13T06:52:21Z</time>
      </trkpt>
      <trkpt lat="49.18288" lon="6.91838">
        <ele>264.4</ele>
        <time>2014-04-13T06:52:26Z</time>
      </trkpt>
      <trkpt lat="49.18287" lon="6.91847">
        <ele>265</ele>
        <time>2014-04-13T06:52:31Z</time>
      </trkpt>
      <trkpt lat="49.18289" lon="6.91856">
        <ele>264.5</ele>
        <time>2014-04-13T06:52:36Z</time>
      </trkpt>
      <trkpt lat="49.1829" lon="6.91865">
        <ele>265.4</ele>
        <time>2014-04-13T06:52:41Z</time>
      </trkpt>
      <trkpt lat="49.1829" lon="6.91874">
        <ele>266.3</ele>
        <time>2014-04-13T06:52:46Z</time>
      </trkpt>
      <trkpt lat="49.18288" lon="6.91883">
        <ele>267.3</ele>
        <time>2014-04-13T06:52:51Z</time>
      </trkpt>
      <trkpt lat="49.18288" lon="6.9189">
        <ele>268</ele>
        <time>2014-04-13T06:52:56Z</time>
      </trkpt>
      <trkpt lat="49.18296" lon="6.91896">
        <ele>269.8</ele>
        <time>2014-04-13T06:53:06Z</time>
      </trkpt>
      <trkpt lat="49.18302" lon="6.91897">
        <ele>270.1</ele>
        <time>2014-04-13T06:53:11Z</time>
      </trkpt>
      <trkpt lat="49.18307" lon="6.91897">
        <ele>270.5</ele>
        <time>2014-04-13T06:53:16Z</time>
      </trkpt>
      <trkpt lat="49.18312" lon="6.91898">
        <ele>271.5</ele>
        <time>2014-04-13T06:53:21Z</time>
      </trkpt>
      <trkpt lat="49.18318" lon="6.91899">
        <ele>272.3</ele>
        <time>2014-04-13T06:53:26Z</time>
      </trkpt>
      <trkpt lat="49.18323" lon="6.919">
        <ele>272.5</ele>
        <time>2014-04-13T06:53:31Z</time>
      </trkpt>
      <trkpt lat="49.1833" lon="6.91902">
        <ele>273.2</ele>
        <time>2014-04-13T06:53:36Z</time>
      </trkpt>
      <trkpt lat="49.18337" lon="6.91905">
        <ele>274</ele>
        <time>2014-04-13T06:53:41Z</time>
      </trkpt>
      <trkpt lat="49.18344" lon="6.91906">
        <ele>274.9</ele>
        <time>2014-04-13T06:53:46Z</time>
      </trkpt>
      <trkpt lat="49.18349" lon="6.91905">
        <ele>276.2</ele>
        <time>2014-04-13T06:53:51Z</time>
      </trkpt>
      <trkpt lat="49.18353" lon="6.91906">
        <ele>277</ele>
        <time>2014-04-13T06:53:56Z</time>
      </trkpt>
      <trkpt lat="49.18358" lon="6.91908">
        <ele>277.7</ele>
        <time>2014-04-13T06:54:01Z</time>
      </trkpt>
      <trkpt lat="49.18368" lon="6.91916">
        <ele>279.6</ele>
        <time>2014-04-13T06:54:11Z</time>
      </trkpt>
      <trkpt lat="49.18373" lon="6.91923">
        <ele>281</ele>
        <time>2014-04-13T06:54:16Z</time>
      </trkpt>
      <trkpt lat="49.18378" lon="6.91928">
        <ele>281</ele>
        <time>2014-04-13T06:54:21Z</time>
      </trkpt>
      <trkpt lat="49.18382" lon="6.91934">
        <ele>282.9</ele>
        <time>2014-04-13T06:54:26Z</time>
      </trkpt>
      <trkpt lat="49.18388" lon="6.91939">
        <ele>284.1</ele>
        <time>2014-04-13T06:54:31Z</time>
      </trkpt>
      <trkpt lat="49.18392" lon="6.91944">
        <ele>285.2</ele>
        <time>2014-04-13T06:54:36Z</time>
      </trkpt>
      <trkpt lat="49.18397" lon="6.91949">
        <ele>286.5</ele>
        <time>2014-04-13T06:54:41Z</time>
      </trkpt>
      <trkpt lat="49.18401" lon="6.91953">
        <ele>286.6</ele>
        <time>2014-04-13T06:54:46Z</time>
      </trkpt>
      <trkpt lat="49.18403" lon="6.91953">
        <ele>286.1</ele>
        <time>2014-04-13T06:54:51Z</time>
      </trkpt>
      <trkpt lat="49.18404" lon="6.91953">
        <ele>286.5</ele>
        <time>2014-04-13T06:54:56Z</time>
      </trkpt>
      <trkpt lat="49.18404" lon="6.91953">
        <ele>286.8</ele>
        <time>2014-04-13T06:55:01Z</time>
      </trkpt>
      <trkpt lat="49.18405" lon="6.91953">
        <ele>287</ele>
        <time>2014-04-13T06:55:06Z</time>
      </trkpt>
      <trkpt lat="49.18408" lon="6.91954">
        <ele>286.6</ele>
        <time>2014-04-13T06:55:16Z</time>
      </trkpt>
      <trkpt lat="49.18409" lon="6.91954">
        <ele>286.3</ele>
        <time>2014-04-13T06:55:21Z</time>
      </trkpt>
      <trkpt lat="49.1841" lon="6.91955">
        <ele>286.8</ele>
        <time>2014-04-13T06:55:26Z</time>
      </trkpt>
      <trkpt lat="49.18411" lon="6.91955">
        <ele>286.9</ele>
        <time>2014-04-13T06:55:31Z</time>
      </trkpt>
      <trkpt lat="49.18412" lon="6.91955">
        <ele>287.6</ele>
        <time>2014-04-13T06:55:36Z</time>
      </trkpt>
      <trkpt lat="49.18412" lon="6.91954">
        <ele>287.4</ele>
        <time>2014-04-13T06:55:41Z</time>
      </trkpt>
      <trkpt lat="49.18412" lon="6.91954">
        <ele>286.6</ele>
        <time>2014-04-13T06:55:46Z</time>
      </trkpt>
      <trkpt lat="49.18412" lon="6.91954">
        <ele>286.3</ele>
        <time>2014-04-13T06:55:51Z</time>
      </trkpt>
      <trkpt lat="49.18411" lon="6.91955">
        <ele>286.8</ele>
        <time>2014-04-13T06:55:56Z</time>
      </trkpt>
      <trkpt lat="49.18411" lon="6.91954">
        <ele>287</ele>
        <time>2014-04-13T06:56:01Z</time>
      </trkpt>
      <trkpt lat="49.18411" lon="6.91954">
        <ele>286.7</ele>
        <time>2014-04-13T06:56:06Z</time>
      </trkpt>
      <trkpt lat="49.18412" lon="6.91955">
        <ele>286.6</ele>
        <time>2014-04-13T06:56:11Z</time>
      </trkpt>
      <trkpt lat="49.18411" lon="6.91955">
        <ele>286.9</ele>
        <time>2014-04-13T06:56:21Z</time>
      </trkpt>
      <trkpt lat="49.1841" lon="6.91956">
        <ele>286.9</ele>
        <time>2014-04-13T06:56:26Z</time>
      </trkpt>
      <trkpt lat="49.18409" lon="6.91957">
        <ele>287.2</ele>
        <time>2014-04-13T06:56:31Z</time>
      </trkpt>
      <trkpt lat="49.1841" lon="6.91958">
        <ele>286.7</ele>
        <time>2014-04-13T06:56:36Z</time>
      </trkpt>
      <trkpt lat="49.18411" lon="6.91961">
        <ele>286.4</ele>
        <time>2014-04-13T06:56:41Z</time>
      </trkpt>
      <trkpt lat="49.18413" lon="6.91965">
        <ele>287.3</ele>
        <time>2014-04-13T06:56:46Z</time>
      </trkpt>
      <trkpt lat="49.18417" lon="6.91969">
        <ele>288.3</ele>
        <time>2014-04-13T06:56:51Z</time>
      </trkpt>
      <trkpt lat="49.18419" lon="6.91972">
        <ele>288.6</ele>
        <time>2014-04-13T06:56:56Z</time>
      </trkpt>
      <trkpt lat="49.18422" lon="6.91975">
        <ele>288.9</ele>
        <time>2014-04-13T06:57:01Z</time>
      </trkpt>
      <trkpt lat="49.18425" lon="6.9198">
        <ele>290.3</ele>
        <time>2014-04-13T06:57:06Z</time>
      </trkpt>
      <trkpt lat="49.18428" lon="6.91985">
        <ele>291.4</ele>
        <time>2014-04-13T06:57:11Z</time>
      </trkpt>
      <trkpt lat="49.18432" lon="6.91989">
        <ele>292.2</ele>
        <time>2014-04-13T06:57:16Z</time>
      </trkpt>
      <trkpt lat="49.1844" lon="6.91999">
        <ele>293.9</ele>
        <time>2014-04-13T06:57:26Z</time>
      </trkpt>
      <trkpt lat="49.18445" lon="6.92004">
        <ele>295.1</ele>
        <time>2014-04-13T06:57:31Z</time>
      </trkpt>
      <trkpt lat="49.18449" lon="6.9201">
        <ele>295.9</ele>
        <time>2014-04-13T06:57:36Z</time>
      </trkpt>
      <trkpt lat="49.18455" lon="6.92014">
        <ele>296</ele>
        <time>2014-04-13T06:57:41Z</time>
      </trkpt>
      <trkpt lat="49.18459" lon="6.92017">
        <ele>296.3</ele>
        <time>2014-04-13T06:57:46Z</time>
      </trkpt>
      <trkpt lat="49.18461" lon="6.92018">
        <ele>296.5</ele>
        <time>2014-04-13T06:57:51Z</time>
      </trkpt>
      <trkpt lat="49.18465" lon="6.9202">
        <ele>297</ele>
        <time>2014-04-13T06:57:56Z</time>
      </trkpt>
      <trkpt lat="49.18469" lon="6.9202">
        <ele>297.3</ele>
        <time>2014-04-13T06:58:01Z</time>
      </trkpt>
      <trkpt lat="49.18471" lon="6.92024">
        <ele>297.3</ele>
        <time>2014-04-13T06:58:06Z</time>
      </trkpt>
      <trkpt lat="49.18475" lon="6.92023">
        <ele>297.2</ele>
        <time>2014-04-13T06:58:11Z</time>
      </trkpt>
      <trkpt lat="49.18477" lon="6.9202">
        <ele>297.8</ele>
        <time>2014-04-13T06:58:16Z</time>
      </trkpt>
      <trkpt lat="49.18481" lon="6.92019">
        <ele>297.8</ele>
        <time>2014-04-13T06:58:21Z</time>
      </trkpt>
      <trkpt lat="49.18489" lon="6.92021">
        <ele>297.7</ele>
        <time>2014-04-13T06:58:31Z</time>
      </trkpt>
      <trkpt lat="49.18492" lon="6.92022">
        <ele>298.2</ele>
        <time>2014-04-13T06:58:36Z</time>
      </trkpt>
      <trkpt lat="49.18492" lon="6.92021">
        <ele>297.5</ele>
        <time>2014-04-13T06:58:41Z</time>
      </trkpt>
      <trkpt lat="49.18493" lon="6.9202">
        <ele>297.9</ele>
        <time>2014-04-13T06:58:46Z</time>
      </trkpt>
      <trkpt lat="49.18495" lon="6.92019">
        <ele>297.9</ele>
        <time>2014-04-13T06:58:51Z</time>
      </trkpt>
      <trkpt lat="49.18497" lon="6.92018">
        <ele>298.3</ele>
        <time>2014-04-13T06:58:56Z</time>
      </trkpt>
      <trkpt lat="49.18499" lon="6.9202">
        <ele>298.1</ele>
        <time>2014-04-13T06:59:01Z</time>
      </trkpt>
      <trkpt lat="49.18499" lon="6.9202">
        <ele>297.9</ele>
        <time>2014-04-13T06:59:06Z</time>
      </trkpt>
      <trkpt lat="49.18501" lon="6.92021">
        <ele>298.3</ele>
        <time>2014-04-13T06:59:11Z</time>
      </trkpt>
      <trkpt lat="49.18501" lon="6.92022">
        <ele>297.8</ele>
        <time>2014-04-13T06:59:16Z</time>
      </trkpt>
      <trkpt lat="49.18499" lon="6.92022">
        <ele>298</ele>
        <time>2014-04-13T06:59:21Z</time>
      </trkpt>
      <trkpt lat="49.185" lon="6.92023">
        <ele>297.8</ele>
        <time>2014-04-13T06:59:26Z</time>
      </trkpt>
      <trkpt lat="49.18497" lon="6.92025">
        <ele>297.9</ele>
        <time>2014-04-13T06:59:36Z</time>
      </trkpt>
      <trkpt lat="49.18492" lon="6.92027">
        <ele>297.7</ele>
        <time>2014-04-13T06:59:41Z</time>
      </trkpt>
      <trkpt lat="49.18487" lon="6.92029">
        <ele>297.7</ele>
        <time>2014-04-13T06:59:46Z</time>
      </trkpt>
      <trkpt lat="49.18484" lon="6.92029">
        <ele>297.4</ele>
        <time>2014-04-13T06:59:51Z</time>
      </trkpt>
      <trkpt lat="49.18482" lon="6.92027">
        <ele>297.6</ele>
        <time>2014-04-13T06:59:56Z</time>
      </trkpt>
      <trkpt lat="49.18482" lon="6.92025">
        <ele>297.7</ele>
        <time>2014-04-13T07:00:01Z</time>
      </trkpt>
      <trkpt lat="49.18481" lon="6.92023">
        <ele>297.2</ele>
        <time>2014-04-13T07:00:06Z</time>
      </trkpt>
      <trkpt lat="49.18479" lon="6.92022">
        <ele>297.5</ele>
        <time>2014-04-13T07:00:11Z</time>
      </trkpt>
      <trkpt lat="49.18476" lon="6.92022">
        <ele>297.2</ele>
        <time>2014-04-13T07:00:16Z</time>
      </trkpt>
      <trkpt lat="49.18473" lon="6.92022">
        <ele>297.3</ele>
        <time>2014-04-13T07:00:21Z</time>
      </trkpt>
      <trkpt lat="49.18471" lon="6.92023">
        <ele>297</ele>
        <time>2014-04-13T07:00:26Z</time>
      </trkpt>
      <trkpt lat="49.18469" lon="6.92022">
        <ele>296.9</ele>
        <time>2014-04-13T07:00:31Z</time>
      </trkpt>
      <trkpt lat="49.18466" lon="6.92025">
        <ele>297.3</ele>
        <time>2014-04-13T07:00:41Z</time>
      </trkpt>
      <trkpt lat="49.18467" lon="6.92028">
        <ele>297.3</ele>
        <time>2014-04-13T07:00:46Z</time>
      </trkpt>
      <trkpt lat="49.18469" lon="6.9203">
        <ele>298.3</ele>
        <time>2014-04-13T07:00:51Z</time>
      </trkpt>
      <trkpt lat="49.18472" lon="6.92034">
        <ele>299.3</ele>
        <time>2014-04-13T07:00:56Z</time>
      </trkpt>
      <trkpt lat="49.18474" lon="6.92037">
        <ele>300.3</ele>
        <time>2014-04-13T07:01:01Z</time>
      </trkpt>
      <trkpt lat="49.18477" lon="6.92041">
        <ele>300.9</ele>
        <time>2014-04-13T07:01:06Z</time>
      </trkpt>
      <trkpt lat="49.18481" lon="6.92044">
        <ele>302.3</ele>
        <time>2014-04-13T07:01:11Z</time>
      </trkpt>
      <trkpt lat="49.18483" lon="6.92049">
        <ele>303.5</ele>
        <time>2014-04-13T07:01:16Z</time>
      </trkpt>
      <trkpt lat="49.18484" lon="6.92054">
        <ele>303.9</ele>
        <time>2014-04-13T07:01:21Z</time>
      </trkpt>
      <trkpt lat="49.18487" lon="6.92059">
        <ele>306.1</ele>
        <time>2014-04-13T07:01:26Z</time>
      </trkpt>
      <trkpt lat="49.18489" lon="6.92064">
        <ele>307.1</ele>
        <time>2014-04-13T07:01:31Z</time>
      </trkpt>
      <trkpt lat="49.18493" lon="6.92071">
        <ele>307.8</ele>
        <time>2014-04-13T07:01:36Z</time>
      </trkpt>
      <trkpt lat="49.18499" lon="6.92084">
        <ele>310.7</ele>
        <time>2014-04-13T07:01:46Z</time>
      </trkpt>
      <trkpt lat="49.18501" lon="6.92089">
        <ele>311.7</ele>
        <time>2014-04-13T07:01:51Z</time>
      </trkpt>
      <trkpt lat="49.18503" lon="6.92094">
        <ele>312.4</ele>
        <time>2014-04-13T07:01:56Z</time>
      </trkpt>
      <trkpt lat="49.18505" lon="6.92098">
        <ele>313.8</ele>
        <time>2014-04-13T07:02:01Z</time>
      </trkpt>
      <trkpt lat="49.18507" lon="6.92102">
        <ele>314.2</ele>
        <time>2014-04-13T07:02:06Z</time>
      </trkpt>
      <trkpt lat="49.18509" lon="6.92106">
        <ele>315</ele>
        <time>2014-04-13T07:02:11Z</time>
      </trkpt>
      <trkpt lat="49.18512" lon="6.9211">
        <ele>315.4</ele>
        <time>2014-04-13T07:02:16Z</time>
      </trkpt>
      <trkpt lat="49.18515" lon="6.92114">
        <ele>315.7</ele>
        <time>2014-04-13T07:02:21Z</time>
      </trkpt>
      <trkpt lat="49.18518" lon="6.92118">
        <ele>316.8</ele>
        <time>2014-04-13T07:02:26Z</time>
      </trkpt>
      <trkpt lat="49.18521" lon="6.92123">
        <ele>317.3</ele>
        <time>2014-04-13T07:02:31Z</time>
      </trkpt>
      <trkpt lat="49.1852" lon="6.92128">
        <ele>318.6</ele>
        <time>2014-04-13T07:02:36Z</time>
      </trkpt>
      <trkpt lat="49.1852" lon="6.92129">
        <ele>319.7</ele>
        <time>2014-04-13T07:02:41Z</time>
      </trkpt>
      <trkpt lat="49.18516" lon="6.92133">
        <ele>322.5</ele>
        <time>2014-04-13T07:02:51Z</time>
      </trkpt>
      <trkpt lat="49.18516" lon="6.92138">
        <ele>322.6</ele>
        <time>2014-04-13T07:02:56Z</time>
      </trkpt>
      <trkpt lat="49.18518" lon="6.92141">
        <ele>323.9</ele>
        <time>2014-04-13T07:03:01Z</time>
      </trkpt>
      <trkpt lat="49.18519" lon="6.92145">
        <ele>324.6</ele>
        <time>2014-04-13T07:03:06Z</time>
      </trkpt>
      <trkpt lat="49.18521" lon="6.92149">
        <ele>325.5</ele>
        <time>2014-04-13T07:03:11Z</time>
      </trkpt>
      <trkpt lat="49.18523" lon="6.92155">
        <ele>327.1</ele>
        <time>2014-04-13T07:03:16Z</time>
      </trkpt>
      <trkpt lat="49.18525" lon="6.92158">
        <ele>327.7</ele>
        <time>2014-04-13T07:03:21Z</time>
      </trkpt>
      <trkpt lat="49.18526" lon="6.92161">
        <ele>328.4</ele>
        <time>2014-04-13T07:03:26Z</time>
      </trkpt>
      <trkpt lat="49.18526" lon="6.92164">
        <ele>328.8</ele>
        <time>2014-04-13T07:03:31Z</time>
      </trkpt>
      <trkpt lat="49.18527" lon="6.92169">
        <ele>328.3</ele>
        <time>2014-04-13T07:03:36Z</time>
      </trkpt>
      <trkpt lat="49.18528" lon="6.92174">
        <ele>329.4</ele>
        <time>2014-04-13T07:03:41Z</time>
      </trkpt>
      <trkpt lat="49.1853" lon="6.9218">
        <ele>330.4</ele>
        <time>2014-04-13T07:03:46Z</time>
      </trkpt>
      <trkpt lat="49.1853" lon="6.92193">
        <ele>332.3</ele>
        <time>2014-04-13T07:03:56Z</time>
      </trkpt>
      <trkpt lat="49.18531" lon="6.922">
        <ele>332.8</ele>
        <time>2014-04-13T07:04:01Z</time>
      </trkpt>
      <trkpt lat="49.18533" lon="6.92208">
        <ele>334.2</ele>
        <time>2014-04-13T07:04:06Z</time>
      </trkpt>
      <trkpt lat="49.18533" lon="6.92212">
        <ele>335.6</ele>
        <time>2014-04-13T07:04:11Z</time>
      </trkpt>
      <trkpt lat="49.18531" lon="6.92211">
        <ele>336.6</ele>
        <time>2014-04-13T07:04:16Z</time>
      </trkpt>
      <trkpt lat="49.18529" lon="6.9221">
        <ele>337.7</ele>
        <time>2014-04-13T07:04:21Z</time>
      </trkpt>
      <trkpt lat="49.18526" lon="6.92207">
        <ele>338.3</ele>
        <time>2014-04-13T07:04:26Z</time>
      </trkpt>
      <trkpt lat="49.18522" lon="6.92209">
        <ele>339.9</ele>
        <time>2014-04-13T07:04:31Z</time>
      </trkpt>
      <trkpt lat="49.18522" lon="6.92213">
        <ele>341</ele>
        <time>2014-04-13T07:04:36Z</time>
      </trkpt>
      <trkpt lat="49.18522" lon="6.92218">
        <ele>342.2</ele>
        <time>2014-04-13T07:04:41Z</time>
      </trkpt>
      <trkpt lat="49.18522" lon="6.92225">
        <ele>342.6</ele>
        <time>2014-04-13T07:04:46Z</time>
      </trkpt>
      <trkpt lat="49.18522" lon="6.9223">
        <ele>343.7</ele>
        <time>2014-04-13T07:04:51Z</time>
      </trkpt>
      <trkpt lat="49.18525" lon="6.92237">
        <ele>344.1</ele>
        <time>2014-04-13T07:05:01Z</time>
      </trkpt>
      <trkpt lat="49.18527" lon="6.92242">
        <ele>344.1</ele>
        <time>2014-04-13T07:05:06Z</time>
      </trkpt>
      <trkpt lat="49.18529" lon="6.92247">
        <ele>344.8</ele>
        <time>2014-04-13T07:05:11Z</time>
      </trkpt>
      <trkpt lat="49.18532" lon="6.92251">
        <ele>345.2</ele>
        <time>2014-04-13T07:05:16Z</time>
      </trkpt>
      <trkpt lat="49.18533" lon="6.92257">
        <ele>344.9</ele>
        <time>2014-04-13T07:05:21Z</time>
      </trkpt>
      <trkpt lat="49.18534" lon="6.92264">
        <ele>345.4</ele>
        <time>2014-04-13T07:05:26Z</time>
      </trkpt>
      <trkpt lat="49.18536" lon="6.92272">
        <ele>345.8</ele>
        <time>2014-04-13T07:05:31Z</time>
      </trkpt>
      <trkpt lat="49.18537" lon="6.92279">
        <ele>346.3</ele>
        <time>2014-04-13T07:05:36Z</time>
      </trkpt>
      <trkpt lat="49.18539" lon="6.92287">
        <ele>346.8</ele>
        <time>2014-04-13T07:05:41Z</time>
      </trkpt>
      <trkpt lat="49.18541" lon="6.92295">
        <ele>347.1</ele>
        <time>2014-04-13T07:05:46Z</time>
      </trkpt>
      <trkpt lat="49.18544" lon="6.92302">
        <ele>347.3</ele>
        <time>2014-04-13T07:05:51Z</time>
      </trkpt>
      <trkpt lat="49.18548" lon="6.9231">
        <ele>348</ele>
        <time>2014-04-13T07:05:56Z</time>
      </trkpt>
      <trkpt lat="49.18556" lon="6.92322">
        <ele>349.7</ele>
        <time>2014-04-13T07:06:06Z</time>
      </trkpt>
      <trkpt lat="49.18561" lon="6.9233">
        <ele>350.3</ele>
        <time>2014-04-13T07:06:11Z</time>
      </trkpt>
      <trkpt lat="49.18566" lon="6.92338">
        <ele>351.8</ele>
        <time>2014-04-13T07:06:16Z</time>
      </trkpt>
      <trkpt lat="49.18572" lon="6.92346">
        <ele>352.9</ele>
        <time>2014-04-13T07:06:21Z</time>
      </trkpt>
      <trkpt lat="49.18577" lon="6.92352">
        <ele>353.5</ele>
        <time>2014-04-13T07:06:26Z</time>
      </trkpt>
      <trkpt lat="49.18583" lon="6.92358">
        <ele>354.9</ele>
        <time>2014-04-13T07:06:31Z</time>
      </trkpt>
      <trkpt lat="49.18588" lon="6.92365">
        <ele>355.4</ele>
        <time>2014-04-13T07:06:36Z</time>
      </trkpt>
      <trkpt lat="49.18593" lon="6.92371">
        <ele>355.9</ele>
        <time>2014-04-13T07:06:41Z</time>
      </trkpt>
      <trkpt lat="49.18599" lon="6.92378">
        <ele>356.4</ele>
        <time>2014-04-13T07:06:46Z</time>
      </trkpt>
      <trkpt lat="49.18603" lon="6.92383">
        <ele>356.6</ele>
        <time>2014-04-13T07:06:51Z</time>
      </trkpt>
      <trkpt lat="49.18607" lon="6.92387">
        <ele>357.1</ele>
        <time>2014-04-13T07:06:56Z</time>
      </trkpt>
      <trkpt lat="49.1861" lon="6.92388">
        <ele>357</ele>
        <time>2014-04-13T07:07:01Z</time>
      </trkpt>
      <trkpt lat="49.18615" lon="6.9239">
        <ele>357.3</ele>
        <time>2014-04-13T07:07:11Z</time>
      </trkpt>
      <trkpt lat="49.18618" lon="6.92392">
        <ele>357.1</ele>
        <time>2014-04-13T07:07:16Z</time>
      </trkpt>
      <trkpt lat="49.18623" lon="6.924">
        <ele>356.8</ele>
        <time>2014-04-13T07:07:21Z</time>
      </trkpt>
      <trkpt lat="49.18627" lon="6.92405">
        <ele>357.1</ele>
        <time>2014-04-13T07:07:26Z</time>
      </trkpt>
      <trkpt lat="49.18631" lon="6.92411">
        <ele>357.5</ele>
        <time>2014-04-13T07:07:31Z</time>
      </trkpt>
      <trkpt lat="49.18635" lon="6.92418">
        <ele>357.9</ele>
        <time>2014-04-13T07:07:36Z</time>
      </trkpt>
      <trkpt lat="49.18637" lon="6.92425">
        <ele>359.7</ele>
        <time>2014-04-13T07:07:41Z</time>
      </trkpt>
      <trkpt lat="49.1864" lon="6.92432">
        <ele>360.1</ele>
        <time>2014-04-13T07:07:46Z</time>
      </trkpt>
      <trkpt lat="49.18642" lon="6.92439">
        <ele>360.4</ele>
        <time>2014-04-13T07:07:51Z</time>
      </trkpt>
      <trkpt lat="49.18646" lon="6.92447">
        <ele>360.3</ele>
        <time>2014-04-13T07:07:56Z</time>
      </trkpt>
      <trkpt lat="49.18649" lon="6.92453">
        <ele>360.5</ele>
        <time>2014-04-13T07:08:01Z</time>
      </trkpt>
      <trkpt lat="49.18655" lon="6.92459">
        <ele>360.5</ele>
        <time>2014-04-13T07:08:06Z</time>
      </trkpt>
      <trkpt lat="49.18665" lon="6.92472">
        <ele>359.9</ele>
        <time>2014-04-13T07:08:16Z</time>
      </trkpt>
      <trkpt lat="49.18668" lon="6.92478">
        <ele>359</ele>
        <time>2014-04-13T07:08:21Z</time>
      </trkpt>
      <trkpt lat="49.18671" lon="6.92485">
        <ele>358.3</ele>
        <time>2014-04-13T07:08:26Z</time>
      </trkpt>
      <trkpt lat="49.18674" lon="6.92493">
        <ele>358.1</ele>
        <time>2014-04-13T07:08:31Z</time>
      </trkpt>
      <trkpt lat="49.18677" lon="6.92501">
        <ele>358.5</ele>
        <time>2014-04-13T07:08:36Z</time>
      </trkpt>
      <trkpt lat="49.18681" lon="6.9251">
        <ele>357.8</ele>
        <time>2014-04-13T07:08:41Z</time>
      </trkpt>
      <trkpt lat="49.18685" lon="6.92518">
        <ele>357.6</ele>
        <time>2014-04-13T07:08:46Z</time>
      </trkpt>
      <trkpt lat="49.18688" lon="6.92525">
        <ele>357.5</ele>
        <time>2014-04-13T07:08:51Z</time>
      </trkpt>
      <trkpt lat="49.18691" lon="6.92533">
        <ele>356.6</ele>
        <time>2014-04-13T07:08:56Z</time>
      </trkpt>
      <trkpt lat="49.18695" lon="6.92541">
        <ele>356.9</ele>
        <time>2014-04-13T07:09:01Z</time>
      </trkpt>
      <trkpt lat="49.18699" lon="6.92549">
        <ele>356.8</ele>
        <time>2014-04-13T07:09:06Z</time>
      </trkpt>
      <trkpt lat="49.18704" lon="6.92557">
        <ele>356.6</ele>
        <time>2014-04-13T07:09:11Z</time>
      </trkpt>
      <trkpt lat="49.18714" lon="6.92572">
        <ele>355.8</ele>
        <time>2014-04-13T07:09:21Z</time>
      </trkpt>
      <trkpt lat="49.18718" lon="6.92579">
        <ele>355.2</ele>
        <time>2014-04-13T07:09:26Z</time>
      </trkpt>
      <trkpt lat="49.18723" lon="6.92586">
        <ele>354.2</ele>
        <time>2014-04-13T07:09:31Z</time>
      </trkpt>
      <trkpt lat="49.18729" lon="6.92591">
        <ele>353.6</ele>
        <time>2014-04-13T07:09:36Z</time>
      </trkpt>
      <trkpt lat="49.18736" lon="6.92594">
        <ele>352.9</ele>
        <time>2014-04-13T07:09:41Z</time>
      </trkpt>
      <trkpt lat="49.18742" lon="6.92596">
        <ele>352.2</ele>
        <time>2014-04-13T07:09:46Z</time>
      </trkpt>
      <trkpt lat="49.18749" lon="6.92599">
        <ele>351.4</ele>
        <time>2014-04-13T07:09:51Z</time>
      </trkpt>
      <trkpt lat="49.18755" lon="6.92605">
        <ele>351.3</ele>
        <time>2014-04-13T07:09:56Z</time>
      </trkpt>
      <trkpt lat="49.18761" lon="6.92611">
        <ele>351.6</ele>
        <time>2014-04-13T07:10:01Z</time>
      </trkpt>
      <trkpt lat="49.18767" lon="6.92616">
        <ele>352.1</ele>
        <time>2014-04-13T07:10:06Z</time>
      </trkpt>
      <trkpt lat="49.18772" lon="6.9262">
        <ele>351.7</ele>
        <time>2014-04-13T07:10:11Z</time>
      </trkpt>
      <trkpt lat="49.18776" lon="6.92627">
        <ele>351.8</ele>
        <time>2014-04-13T07:10:16Z</time>
      </trkpt>
      <trkpt lat="49.1878" lon="6.92643">
        <ele>350.9</ele>
        <time>2014-04-13T07:10:26Z</time>
      </trkpt>
      <trkpt lat="49.18781" lon="6.92652">
        <ele>352</ele>
        <time>2014-04-13T07:10:31Z</time>
      </trkpt>
      <trkpt lat="49.18783" lon="6.92661">
        <ele>352.6</ele>
        <time>2014-04-13T07:10:36Z</time>
      </trkpt>
      <trkpt lat="49.18786" lon="6.92669">
        <ele>352.5</ele>
        <time>2014-04-13T07:10:41Z</time>
      </trkpt>
      <trkpt lat="49.18789" lon="6.92677">
        <ele>351.7</ele>
        <time>2014-04-13T07:10:46Z</time>
      </trkpt>
      <trkpt lat="49.18791" lon="6.92684">
        <ele>352.1</ele>
        <time>2014-04-13T07:10:51Z</time>
      </trkpt>
      <trkpt lat="49.18793" lon="6.92688">
        <ele>352.4</ele>
        <time>2014-04-13T07:10:56Z</time>
      </trkpt>
      <trkpt lat="49.18794" lon="6.92694">
        <ele>352.4</ele>
        <time>2014-04-13T07:11:01Z</time>
      </trkpt>
      <trkpt lat="49.18794" lon="6.92702">
        <ele>352.7</ele>
        <time>2014-04-13T07:11:06Z</time>
      </trkpt>
      <trkpt lat="49.18796" lon="6.9271">
        <ele>353.6</ele>
        <time>2014-04-13T07:11:11Z</time>
      </trkpt>
      <trkpt lat="49.18799" lon="6.92717">
        <ele>354.1</ele>
        <time>2014-04-13T07:11:16Z</time>
      </trkpt>
      <trkpt lat="49.18803" lon="6.92725">
        <ele>355.1</ele>
        <time>2014-04-13T07:11:21Z</time>
      </trkpt>
      <trkpt lat="49.18807" lon="6.92741">
        <ele>355.1</ele>
        <time>2014-04-13T07:11:31Z</time>
      </trkpt>
      <trkpt lat="49.18811" lon="6.92749">
        <ele>355.9</ele>
        <time>2014-04-13T07:11:36Z</time>
      </trkpt>
      <trkpt lat="49.18815" lon="6.92756">
        <ele>356.8</ele>
        <time>2014-04-13T07:11:41Z</time>
      </trkpt>
      <trkpt lat="49.18821" lon="6.92764">
        <ele>357</ele>
        <time>2014-04-13T07:11:46Z</time>
      </trkpt>
      <trkpt lat="49.18824" lon="6.92771">
        <ele>357.3</ele>
        <time>2014-04-13T07:11:51Z</time>
      </trkpt>
      <trkpt lat="49.18829" lon="6.92778">
        <ele>357.1</ele>
        <time>2014-04-13T07:11:56Z</time>
      </trkpt>
      <trkpt lat="49.18833" lon="6.92785">
        <ele>356.8</ele>
        <time>2014-04-13T07:12:01Z</time>
      </trkpt>
      <trkpt lat="49.18837" lon="6.92794">
        <ele>357.6</ele>
        <time>2014-04-13T07:12:06Z</time>
      </trkpt>
      <trkpt lat="49.1884" lon="6.92803">
        <ele>357.4</ele>
        <time>2014-04-13T07:12:11Z</time>
      </trkpt>
      <trkpt lat="49.18843" lon="6.92813">
        <ele>357.9</ele>
        <time>2014-04-13T07:12:16Z</time>
      </trkpt>
      <trkpt lat="49.18848" lon="6.92822">
        <ele>358.6</ele>
        <time>2014-04-13T07:12:21Z</time>
      </trkpt>
      <trkpt lat="49.18852" lon="6.9283">
        <ele>359.6</ele>
        <time>2014-04-13T07:12:26Z</time>
      </trkpt>
      <trkpt lat="49.18856" lon="6.92848">
        <ele>360.9</ele>
        <time>2014-04-13T07:12:36Z</time>
      </trkpt>
      <trkpt lat="49.18859" lon="6.92857">
        <ele>361.5</ele>
        <time>2014-04-13T07:12:41Z</time>
      </trkpt>
      <trkpt lat="49.18859" lon="6.92865">
        <ele>362.5</ele>
        <time>2014-04-13T07:12:46Z</time>
      </trkpt>
      <trkpt lat="49.18858" lon="6.92874">
        <ele>362.8</ele>
        <time>2014-04-13T07:12:51Z</time>
      </trkpt>
      <trkpt lat="49.18859" lon="6.92884">
        <ele>363.4</ele>
        <time>2014-04-13T07:12:56Z</time>
      </trkpt>
      <trkpt lat="49.18857" lon="6.92893">
        <ele>364</ele>
        <time>2014-04-13T07:13:01Z</time>
      </trkpt>
      <trkpt lat="49.18854" lon="6.92902">
        <ele>363.8</ele>
        <time>2014-04-13T07:13:06Z</time>
      </trkpt>
      <trkpt lat="49.18852" lon="6.92911">
        <ele>364.9</ele>
        <time>2014-04-13T07:13:11Z</time>
      </trkpt>
      <trkpt lat="49.18851" lon="6.9292">
        <ele>365.5</ele>
        <time>2014-04-13T07:13:16Z</time>
      </trkpt>
      <trkpt lat="49.18851" lon="6.9293">
        <ele>366.6</ele>
        <time>2014-04-13T07:13:21Z</time>
      </trkpt>
      <trkpt lat="49.18851" lon="6.92939">
        <ele>367.1</ele>
        <time>2014-04-13T07:13:26Z</time>
      </trkpt>
      <trkpt lat="49.18851" lon="6.92949">
        <ele>367.7</ele>
        <time>2014-04-13T07:13:31Z</time>
      </trkpt>
      <trkpt lat="49.18851" lon="6.92966">
        <ele>370.5</ele>
        <time>2014-04-13T07:13:41Z</time>
      </trkpt>
      <trkpt lat="49.1885" lon="6.92974">
        <ele>370.7</ele>
        <time>2014-04-13T07:13:46Z</time>
      </trkpt>
      <trkpt lat="49.18849" lon="6.92981">
        <ele>372.3</ele>
        <time>2014-04-13T07:13:51Z</time>
      </trkpt>
      <trkpt lat="49.18847" lon="6.92986">
        <ele>373.2</ele>
        <time>2014-04-13T07:13:56Z</time>
      </trkpt>
      <trkpt lat="49.18844" lon="6.9299">
        <ele>373.8</ele>
        <time>2014-04-13T07:14:01Z</time>
      </trkpt>
      <trkpt lat="49.1884" lon="6.92996">
        <ele>374.6</ele>
        <time>2014-04-13T07:14:06Z</time>
      </trkpt>
      <trkpt lat="49.18838" lon="6.93004">
        <ele>375.4</ele>
        <time>2014-04-13T07:14:11Z</time>
      </trkpt>
      <trkpt lat="49.18837" lon="6.93012">
        <ele>375.4</ele>
        <time>2014-04-13T07:14:16Z</time>
      </trkpt>
      <trkpt lat="49.18836" lon="6.9302">
        <ele>375.6</ele>
        <time>2014-04-13T07:14:21Z</time>
      </trkpt>
      <trkpt lat="49.18836" lon="6.9303">
        <ele>375</ele>
        <time>2014-04-13T07:14:26Z</time>
      </trkpt>
      <trkpt lat="49.18834" lon="6.93038">
        <ele>375.5</ele>
        <time>2014-04-13T07:14:31Z</time>
      </trkpt>
      <trkpt lat="49.18833" lon="6.93047">
        <ele>375.2</ele>
        <time>2014-04-13T07:14:36Z</time>
      </trkpt>
      <trkpt lat="49.18832" lon="6.93067">
        <ele>374.9</ele>
        <time>2014-04-13T07:14:46Z</time>
      </trkpt>
      <trkpt lat="49.18832" lon="6.93076">
        <ele>374.8</ele>
        <time>2014-04-13T07:14:51Z</time>
      </trkpt>
      <trkpt lat="49.18832" lon="6.93087">
        <ele>374.8</ele>
        <time>2014-04-13T07:14:56Z</time>
      </trkpt>
      <trkpt lat="49.18832" lon="6.93096">
        <ele>374.9</ele>
        <time>2014-04-13T07:15:01Z</time>
      </trkpt>
      <trkpt lat="49.18831" lon="6.93105">
        <ele>374.2</ele>
        <time>2014-04-13T07:15:06Z</time>
      </trkpt>
      <trkpt lat="49.18832" lon="6.93116">
        <ele>374.8</ele>
        <time>2014-04-13T07:15:11Z</time>
      </trkpt>
      <trkpt lat="49.18833" lon="6.93127">
        <ele>374.6</ele>
        <time>2014-04-13T07:15:16Z</time>
      </trkpt>
      <trkpt lat="49.18833" lon="6.93136">
        <ele>375.2</ele>
        <time>2014-04-13T07:15:21Z</time>
      </trkpt>
      <trkpt lat="49.18835" lon="6.93148">
        <ele>375.3</ele>
        <time>2014-04-13T07:15:26Z</time>
      </trkpt>
      <trkpt lat="49.18835" lon="6.93159">
        <ele>374.7</ele>
        <time>2014-04-13T07:15:31Z</time>
      </trkpt>
      <trkpt lat="49.18837" lon="6.9317">
        <ele>374.2</ele>
        <time>2014-04-13T07:15:36Z</time>
      </trkpt>
      <trkpt lat="49.18839" lon="6.9318">
        <ele>373.9</ele>
        <time>2014-04-13T07:15:41Z</time>
      </trkpt>
      <trkpt lat="49.1884" lon="6.932">
        <ele>373.6</ele>
        <time>2014-04-13T07:15:51Z</time>
      </trkpt>
      <trkpt lat="49.18841" lon="6.9321">
        <ele>373.9</ele>
        <time>2014-04-13T07:15:56Z</time>
      </trkpt>
      <trkpt lat="49.18844" lon="6.9322">
        <ele>373.7</ele>
        <time>2014-04-13T07:16:01Z</time>
      </trkpt>
      <trkpt lat="49.18847" lon="6.93232">
        <ele>373.9</ele>
        <time>2014-04-13T07:16:06Z</time>
      </trkpt>
      <trkpt lat="49.18849" lon="6.93243">
        <ele>373.4</ele>
        <time>2014-04-13T07:16:11Z</time>
      </trkpt>
      <trkpt lat="49.1885" lon="6.93254">
        <ele>372.9</ele>
        <time>2014-04-13T07:16:16Z</time>
      </trkpt>
      <trkpt lat="49.18853" lon="6.93266">
        <ele>373</ele>
        <time>2014-04-13T07:16:21Z</time>
      </trkpt>
      <trkpt lat="49.18856" lon="6.93276">
        <ele>373.2</ele>
        <time>2014-04-13T07:16:26Z</time>
      </trkpt>
      <trkpt lat="49.1886" lon="6.93287">
        <ele>373</ele>
        <time>2014-04-13T07:16:31Z</time>
      </trkpt>
      <trkpt lat="49.18863" lon="6.93297">
        <ele>372.9</ele>
        <time>2014-04-13T07:16:36Z</time>
      </trkpt>
      <trkpt lat="49.18865" lon="6.93307">
        <ele>373.6</ele>
        <time>2014-04-13T07:16:41Z</time>
      </trkpt>
      <trkpt lat="49.18869" lon="6.93318">
        <ele>373.3</ele>
        <time>2014-04-13T07:16:46Z</time>
      </trkpt>
      <trkpt lat="49.18874" lon="6.93338">
        <ele>372.5</ele>
        <time>2014-04-13T07:16:56Z</time>
      </trkpt>
      <trkpt lat="49.18877" lon="6.93348">
        <ele>372.7</ele>
        <time>2014-04-13T07:17:01Z</time>
      </trkpt>
      <trkpt lat="49.18879" lon="6.93358">
        <ele>372.7</ele>
        <time>2014-04-13T07:17:06Z</time>
      </trkpt>
      <trkpt lat="49.18881" lon="6.93369">
        <ele>372.7</ele>
        <time>2014-04-13T07:17:11Z</time>
      </trkpt>
      <trkpt lat="49.18881" lon="6.93379">
        <ele>372</ele>
        <time>2014-04-13T07:17:16Z</time>
      </trkpt>
      <trkpt lat="49.18884" lon="6.93389">
        <ele>371.9</ele>
        <time>2014-04-13T07:17:21Z</time>
      </trkpt>
      <trkpt lat="49.18888" lon="6.934">
        <ele>371.6</ele>
        <time>2014-04-13T07:17:26Z</time>
      </trkpt>
      <trkpt lat="49.18891" lon="6.93411">
        <ele>371.7</ele>
        <time>2014-04-13T07:17:31Z</time>
      </trkpt>
      <trkpt lat="49.18893" lon="6.93423">
        <ele>371.5</ele>
        <time>2014-04-13T07:17:36Z</time>
      </trkpt>
      <trkpt lat="49.18893" lon="6.93433">
        <ele>371.1</ele>
        <time>2014-04-13T07:17:41Z</time>
      </trkpt>
      <trkpt lat="49.18893" lon="6.93442">
        <ele>371</ele>
        <time>2014-04-13T07:17:46Z</time>
      </trkpt>
      <trkpt lat="49.18898" lon="6.93452">
        <ele>370.5</ele>
        <time>2014-04-13T07:17:51Z</time>
      </trkpt>
      <trkpt lat="49.18903" lon="6.93472">
        <ele>370.6</ele>
        <time>2014-04-13T07:18:01Z</time>
      </trkpt>
      <trkpt lat="49.18905" lon="6.93482">
        <ele>369.7</ele>
        <time>2014-04-13T07:18:06Z</time>
      </trkpt>
      <trkpt lat="49.18908" lon="6.93492">
        <ele>370.2</ele>
        <time>2014-04-13T07:18:11Z</time>
      </trkpt>
      <trkpt lat="49.18912" lon="6.93502">
        <ele>370</ele>
        <time>2014-04-13T07:18:16Z</time>
      </trkpt>
      <trkpt lat="49.18916" lon="6.93511">
        <ele>370.1</ele>
        <time>2014-04-13T07:18:21Z</time>
      </trkpt>
      <trkpt lat="49.18921" lon="6.9352">
        <ele>368.9</ele>
        <time>2014-04-13T07:18:26Z</time>
      </trkpt>
      <trkpt lat="49.18924" lon="6.93529">
        <ele>369</ele>
        <time>2014-04-13T07:18:31Z</time>
      </trkpt>
      <trkpt lat="49.18928" lon="6.93538">
        <ele>368.9</ele>
        <time>2014-04-13T07:18:36Z</time>
      </trkpt>
      <trkpt lat="49.18932" lon="6.93548">
        <ele>368.5</ele>
        <time>2014-04-13T07:18:41Z</time>
      </trkpt>
      <trkpt lat="49.18937" lon="6.93558">
        <ele>367.7</ele>
        <time>2014-04-13T07:18:46Z</time>
      </trkpt>
      <trkpt lat="49.18944" lon="6.93567">
        <ele>368.2</ele>
        <time>2014-04-13T07:18:51Z</time>
      </trkpt>
      <trkpt lat="49.18949" lon="6.93576">
        <ele>368.1</ele>
        <time>2014-04-13T07:18:56Z</time>
      </trkpt>
      <trkpt lat="49.18959" lon="6.93591">
        <ele>367.5</ele>
        <time>2014-04-13T07:19:06Z</time>
      </trkpt>
      <trkpt lat="49.18962" lon="6.93599">
        <ele>367.4</ele>
        <time>2014-04-13T07:19:11Z</time>
      </trkpt>
      <trkpt lat="49.18966" lon="6.93607">
        <ele>367.1</ele>
        <time>2014-04-13T07:19:16Z</time>
      </trkpt>
      <trkpt lat="49.18971" lon="6.93616">
        <ele>367.6</ele>
        <time>2014-04-13T07:19:21Z</time>
      </trkpt>
      <trkpt lat="49.18976" lon="6.93625">
        <ele>367.1</ele>
        <time>2014-04-13T07:19:26Z</time>
      </trkpt>
      <trkpt lat="49.18982" lon="6.93634">
        <ele>367.7</ele>
        <time>2014-04-13T07:19:31Z</time>
      </trkpt>
      <trkpt lat="49.18986" lon="6.93643">
        <ele>368.2</ele>
        <time>2014-04-13T07:19:36Z</time>
      </trkpt>
      <trkpt lat="49.1899" lon="6.93651">
        <ele>367.7</ele>
        <time>2014-04-13T07:19:41Z</time>
      </trkpt>
      <trkpt lat="49.18995" lon="6.9366">
        <ele>368.4</ele>
        <time>2014-04-13T07:19:46Z</time>
      </trkpt>
      <trkpt lat="49.19001" lon="6.9367">
        <ele>368</ele>
        <time>2014-04-13T07:19:51Z</time>
      </trkpt>
      <trkpt lat="49.19007" lon="6.93679">
        <ele>367.8</ele>
        <time>2014-04-13T07:19:56Z</time>
      </trkpt>
      <trkpt lat="49.19012" lon="6.93687">
        <ele>368.2</ele>
        <time>2014-04-13T07:20:01Z</time>
      </trkpt>
      <trkpt lat="49.19023" lon="6.93706">
        <ele>368.6</ele>
        <time>2014-04-13T07:20:11Z</time>
      </trkpt>
      <trkpt lat="49.19026" lon="6.93715">
        <ele>368.6</ele>
        <time>2014-04-13T07:20:16Z</time>
      </trkpt>
      <trkpt lat="49.19029" lon="6.93726">
        <ele>368.5</ele>
        <time>2014-04-13T07:20:21Z</time>
      </trkpt>
      <trkpt lat="49.19032" lon="6.93737">
        <ele>368.8</ele>
        <time>2014-04-13T07:20:26Z</time>
      </trkpt>
      <trkpt lat="49.19034" lon="6.93743">
        <ele>368.8</ele>
        <time>2014-04-13T07:20:31Z</time>
      </trkpt>
      <trkpt lat="49.19037" lon="6.93752">
        <ele>368.2</ele>
        <time>2014-04-13T07:20:36Z</time>
      </trkpt>
      <trkpt lat="49.19042" lon="6.93758">
        <ele>368.2</ele>
        <time>2014-04-13T07:20:41Z</time>
      </trkpt>
      <trkpt lat="49.19047" lon="6.93765">
        <ele>368.1</ele>
        <time>2014-04-13T07:20:46Z</time>
      </trkpt>
      <trkpt lat="49.19051" lon="6.93773">
        <ele>368.3</ele>
        <time>2014-04-13T07:20:51Z</time>
      </trkpt>
      <trkpt lat="49.19055" lon="6.93781">
        <ele>368.8</ele>
        <time>2014-04-13T07:20:56Z</time>
      </trkpt>
      <trkpt lat="49.19057" lon="6.93789">
        <ele>368.7</ele>
        <time>2014-04-13T07:21:01Z</time>
      </trkpt>
      <trkpt lat="49.19059" lon="6.93798">
        <ele>367.9</ele>
        <time>2014-04-13T07:21:06Z</time>
      </trkpt>
      <trkpt lat="49.19061" lon="6.93816">
        <ele>367.9</ele>
        <time>2014-04-13T07:21:16Z</time>
      </trkpt>
      <trkpt lat="49.1906" lon="6.93824">
        <ele>368.2</ele>
        <time>2014-04-13T07:21:21Z</time>
      </trkpt>
      <trkpt lat="49.19059" lon="6.93833">
        <ele>367.6</ele>
        <time>2014-04-13T07:21:26Z</time>
      </trkpt>
      <trkpt lat="49.19059" lon="6.93841">
        <ele>367.5</ele>
        <time>2014-04-13T07:21:31Z</time>
      </trkpt>
      <trkpt lat="49.19058" lon="6.9385">
        <ele>367.4</ele>
        <time>2014-04-13T07:21:36Z</time>
      </trkpt>
      <trkpt lat="49.19055" lon="6.93859">
        <ele>366.7</ele>
        <time>2014-04-13T07:21:41Z</time>
      </trkpt>
      <trkpt lat="49.19052" lon="6.93867">
        <ele>366.6</ele>
        <time>2014-04-13T07:21:46Z</time>
      </trkpt>
      <trkpt lat="49.19049" lon="6.93878">
        <ele>365.5</ele>
        <time>2014-04-13T07:21:51Z</time>
      </trkpt>
      <trkpt lat="49.19047" lon="6.93889">
        <ele>365.2</ele>
        <time>2014-04-13T07:21:56Z</time>
      </trkpt>
      <trkpt lat="49.19045" lon="6.93899">
        <ele>364.8</ele>
        <time>2014-04-13T07:22:01Z</time>
      </trkpt>
      <trkpt lat="49.19042" lon="6.9391">
        <ele>365</ele>
        <time>2014-04-13T07:22:06Z</time>
      </trkpt>
      <trkpt lat="49.1904" lon="6.9392">
        <ele>365.2</ele>
        <time>2014-04-13T07:22:11Z</time>
      </trkpt>
      <trkpt lat="49.19034" lon="6.9394">
        <ele>363.1</ele>
        <time>2014-04-13T07:22:21Z</time>
      </trkpt>
      <trkpt lat="49.19033" lon="6.93952">
        <ele>362.8</ele>
        <time>2014-04-13T07:22:26Z</time>
      </trkpt>
      <trkpt lat="49.19031" lon="6.93962">
        <ele>362.7</ele>
        <time>2014-04-13T07:22:31Z</time>
      </trkpt>
      <trkpt lat="49.19032" lon="6.93972">
        <ele>362.3</ele>
        <time>2014-04-13T07:22:36Z</time>
      </trkpt>
      <trkpt lat="49.19033" lon="6.93982">
        <ele>361.8</ele>
        <time>2014-04-13T07:22:41Z</time>
      </trkpt>
      <trkpt lat="49.19035" lon="6.93992">
        <ele>361.2</ele>
        <time>2014-04-13T07:22:46Z</time>
      </trkpt>
      <trkpt lat="49.19036" lon="6.94">
        <ele>360.8</ele>
        <time>2014-04-13T07:22:51Z</time>
      </trkpt>
      <trkpt lat="49.19037" lon="6.94009">
        <ele>360</ele>
        <time>2014-04-13T07:22:56Z</time>
      </trkpt>
      <trkpt lat="49.19038" lon="6.94019">
        <ele>359.7</ele>
        <time>2014-04-13T07:23:01Z</time>
      </trkpt>
      <trkpt lat="49.1904" lon="6.9403">
        <ele>358.8</ele>
        <time>2014-04-13T07:23:06Z</time>
      </trkpt>
      <trkpt lat="49.19041" lon="6.94039">
        <ele>358.6</ele>
        <time>2014-04-13T07:23:11Z</time>
      </trkpt>
      <trkpt lat="49.19043" lon="6.94049">
        <ele>357.9</ele>
        <time>2014-04-13T07:23:16Z</time>
      </trkpt>
      <trkpt lat="49.19049" lon="6.94067">
        <ele>357</ele>
        <time>2014-04-13T07:23:26Z</time>
      </trkpt>
      <trkpt lat="49.19053" lon="6.94075">
        <ele>356.1</ele>
        <time>2014-04-13T07:23:31Z</time>
      </trkpt>
      <trkpt lat="49.19057" lon="6.94084">
        <ele>355.1</ele>
        <time>2014-04-13T07:23:36Z</time>
      </trkpt>
      <trkpt lat="49.19061" lon="6.94092">
        <ele>354.7</ele>
        <time>2014-04-13T07:23:41Z</time>
      </trkpt>
      <trkpt lat="49.19067" lon="6.94097">
        <ele>353.8</ele>
        <time>2014-04-13T07:23:46Z</time>
      </trkpt>
      <trkpt lat="49.19074" lon="6.94102">
        <ele>353.2</ele>
        <time>2014-04-13T07:23:51Z</time>
      </trkpt>
      <trkpt lat="49.19081" lon="6.94104">
        <ele>353</ele>
        <time>2014-04-13T07:23:56Z</time>
      </trkpt>
      <trkpt lat="49.19088" lon="6.94105">
        <ele>352.6</ele>
        <time>2014-04-13T07:24:01Z</time>
      </trkpt>
      <trkpt lat="49.19097" lon="6.94104">
        <ele>351.8</ele>
        <time>2014-04-13T07:24:06Z</time>
      </trkpt>
      <trkpt lat="49.19105" lon="6.94103">
        <ele>351.6</ele>
        <time>2014-04-13T07:24:11Z</time>
      </trkpt>
      <trkpt lat="49.19113" lon="6.94102">
        <ele>350.7</ele>
        <time>2014-04-13T07:24:16Z</time>
      </trkpt>
      <trkpt lat="49.19123" lon="6.94101">
        <ele>350.8</ele>
        <time>2014-04-13T07:24:21Z</time>
      </trkpt>
      <trkpt lat="49.19139" lon="6.94097">
        <ele>349.1</ele>
        <time>2014-04-13T07:24:31Z</time>
      </trkpt>
      <trkpt lat="49.19146" lon="6.94096">
        <ele>348.6</ele>
        <time>2014-04-13T07:24:36Z</time>
      </trkpt>
      <trkpt lat="49.19154" lon="6.94094">
        <ele>347.8</ele>
        <time>2014-04-13T07:24:41Z</time>
      </trkpt>
      <trkpt lat="49.1916" lon="6.94093">
        <ele>346.3</ele>
        <time>2014-04-13T07:24:46Z</time>
      </trkpt>
      <trkpt lat="49.19167" lon="6.94094">
        <ele>345.1</ele>
        <time>2014-04-13T07:24:51Z</time>
      </trkpt>
      <trkpt lat="49.19176" lon="6.94092">
        <ele>345</ele>
        <time>2014-04-13T07:24:56Z</time>
      </trkpt>
      <trkpt lat="49.19183" lon="6.94091">
        <ele>344.5</ele>
        <time>2014-04-13T07:25:01Z</time>
      </trkpt>
      <trkpt lat="49.1919" lon="6.94092">
        <ele>344</ele>
        <time>2014-04-13T07:25:06Z</time>
      </trkpt>
      <trkpt lat="49.19197" lon="6.94092">
        <ele>343</ele>
        <time>2014-04-13T07:25:11Z</time>
      </trkpt>
      <trkpt lat="49.19204" lon="6.94093">
        <ele>341.1</ele>
        <time>2014-04-13T07:25:16Z</time>
      </trkpt>
      <trkpt lat="49.1921" lon="6.94096">
        <ele>340.4</ele>
        <time>2014-04-13T07:25:21Z</time>
      </trkpt>
      <trkpt lat="49.19217" lon="6.94098">
        <ele>339</ele>
        <time>2014-04-13T07:25:26Z</time>
      </trkpt>
      <trkpt lat="49.19231" lon="6.94104">
        <ele>337.7</ele>
        <time>2014-04-13T07:25:36Z</time>
      </trkpt>
      <trkpt lat="49.19237" lon="6.94109">
        <ele>336.2</ele>
        <time>2014-04-13T07:25:41Z</time>
      </trkpt>
      <trkpt lat="49.19243" lon="6.94115">
        <ele>335.3</ele>
        <time>2014-04-13T07:25:46Z</time>
      </trkpt>
      <trkpt lat="49.1925" lon="6.9412">
        <ele>334.3</ele>
        <time>2014-04-13T07:25:51Z</time>
      </trkpt>
      <trkpt lat="49.19254" lon="6.94126">
        <ele>333.2</ele>
        <time>2014-04-13T07:25:56Z</time>
      </trkpt>
      <trkpt lat="49.1926" lon="6.94131">
        <ele>331.7</ele>
        <time>2014-04-13T07:26:01Z</time>
      </trkpt>
      <trkpt lat="49.19265" lon="6.94137">
        <ele>330.7</ele>
        <time>2014-04-13T07:26:06Z</time>
      </trkpt>
      <trkpt lat="49.19271" lon="6.9414">
        <ele>329.5</ele>
        <time>2014-04-13T07:26:11Z</time>
      </trkpt>
      <trkpt lat="49.19278" lon="6.94145">
        <ele>328.9</ele>
        <time>2014-04-13T07:26:16Z</time>
      </trkpt>
      <trkpt lat="49.19284" lon="6.94148">
        <ele>327.6</ele>
        <time>2014-04-13T07:26:21Z</time>
      </trkpt>
      <trkpt lat="49.19291" lon="6.94153">
        <ele>326.8</ele>
        <time>2014-04-13T07:26:26Z</time>
      </trkpt>
      <trkpt lat="49.19297" lon="6.9416">
        <ele>326.5</ele>
        <time>2014-04-13T07:26:31Z</time>
      </trkpt>
      <trkpt lat="49.19302" lon="6.94175">
        <ele>326.5</ele>
        <time>2014-04-13T07:26:41Z</time>
      </trkpt>
      <trkpt lat="49.19304" lon="6.9418">
        <ele>325.4</ele>
        <time>2014-04-13T07:26:46Z</time>
      </trkpt>
      <trkpt lat="49.19304" lon="6.94181">
        <ele>324.8</ele>
        <time>2014-04-13T07:26:51Z</time>
      </trkpt>
      <trkpt lat="49.19304" lon="6.94183">
        <ele>325.5</ele>
        <time>2014-04-13T07:26:56Z</time>
      </trkpt>
      <trkpt lat="49.19304" lon="6.94184">
        <ele>324.9</ele>
        <time>2014-04-13T07:27:01Z</time>
      </trkpt>
      <trkpt lat="49.19305" lon="6.94186">
        <ele>324.8</ele>
        <time>2014-04-13T07:27:06Z</time>
      </trkpt>
      <trkpt lat="49.19304" lon="6.94186">
        <ele>325.4</ele>
        <time>2014-04-13T07:27:11Z</time>
      </trkpt>
      <trkpt lat="49.19304" lon="6.94187">
        <ele>324.9</ele>
        <time>2014-04-13T07:27:16Z</time>
      </trkpt>
      <trkpt lat="49.19303" lon="6.94187">
        <ele>325</ele>
        <time>2014-04-13T07:27:21Z</time>
      </trkpt>
      <trkpt lat="49.19304" lon="6.94188">
        <ele>325.2</ele>
        <time>2014-04-13T07:27:26Z</time>
      </trkpt>
      <trkpt lat="49.19305" lon="6.94189">
        <ele>325.9</ele>
        <time>2014-04-13T07:27:31Z</time>
      </trkpt>
      <trkpt lat="49.19306" lon="6.94189">
        <ele>325.4</ele>
        <time>2014-04-13T07:27:36Z</time>
      </trkpt>
      <trkpt lat="49.19305" lon="6.94189">
        <ele>324.6</ele>
        <time>2014-04-13T07:27:46Z</time>
      </trkpt>
      <trkpt lat="49.19304" lon="6.94191">
        <ele>325.2</ele>
        <time>2014-04-13T07:27:51Z</time>
      </trkpt>
      <trkpt lat="49.19304" lon="6.94191">
        <ele>324.8</ele>
        <time>2014-04-13T07:27:56Z</time>
      </trkpt>
      <trkpt lat="49.19302" lon="6.94193">
        <ele>324.6</ele>
        <time>2014-04-13T07:28:01Z</time>
      </trkpt>
      <trkpt lat="49.193" lon="6.94192">
        <ele>325.2</ele>
        <time>2014-04-13T07:28:06Z</time>
      </trkpt>
      <trkpt lat="49.19299" lon="6.94192">
        <ele>325.1</ele>
        <time>2014-04-13T07:28:11Z</time>
      </trkpt>
      <trkpt lat="49.19298" lon="6.9419">
        <ele>325</ele>
        <time>2014-04-13T07:28:16Z</time>
      </trkpt>
      <trkpt lat="49.19298" lon="6.9419">
        <ele>325.2</ele>
        <time>2014-04-13T07:28:21Z</time>
      </trkpt>
      <trkpt lat="49.19299" lon="6.9419">
        <ele>325.4</ele>
        <time>2014-04-13T07:28:26Z</time>
      </trkpt>
      <trkpt lat="49.19299" lon="6.9419">
        <ele>325.1</ele>
        <time>2014-04-13T07:28:31Z</time>
      </trkpt>
      <trkpt lat="49.19299" lon="6.94191">
        <ele>325</ele>
        <time>2014-04-13T07:28:36Z</time>
      </trkpt>
      <trkpt lat="49.19298" lon="6.94191">
        <ele>325.4</ele>
        <time>2014-04-13T07:28:41Z</time>
      </trkpt>
      <trkpt lat="49.19299" lon="6.94191">
        <ele>325.3</ele>
        <time>2014-04-13T07:28:51Z</time>
      </trkpt>
      <trkpt lat="49.19301" lon="6.94191">
        <ele>325.8</ele>
        <time>2014-04-13T07:28:56Z</time>
      </trkpt>
      <trkpt lat="49.19302" lon="6.94192">
        <ele>325.6</ele>
        <time>2014-04-13T07:29:01Z</time>
      </trkpt>
      <trkpt lat="49.19302" lon="6.94193">
        <ele>325.4</ele>
        <time>2014-04-13T07:29:06Z</time>
      </trkpt>
      <trkpt lat="49.19302" lon="6.94193">
        <ele>325.1</ele>
        <time>2014-04-13T07:29:11Z</time>
      </trkpt>
      <trkpt lat="49.19302" lon="6.94193">
        <ele>325.1</ele>
        <time>2014-04-13T07:29:16Z</time>
      </trkpt>
      <trkpt lat="49.19302" lon="6.94194">
        <ele>324.8</ele>
        <time>2014-04-13T07:29:21Z</time>
      </trkpt>
      <trkpt lat="49.19302" lon="6.94194">
        <ele>325.6</ele>
        <time>2014-04-13T07:29:26Z</time>
      </trkpt>
      <trkpt lat="49.19304" lon="6.94194">
        <ele>325.3</ele>
        <time>2014-04-13T07:29:31Z</time>
      </trkpt>
      <trkpt lat="49.19305" lon="6.94194">
        <ele>325.3</ele>
        <time>2014-04-13T07:29:36Z</time>
      </trkpt>
      <trkpt lat="49.19306" lon="6.94195">
        <ele>325.8</ele>
        <time>2014-04-13T07:29:41Z</time>
      </trkpt>
      <trkpt lat="49.19307" lon="6.94194">
        <ele>325.5</ele>
        <time>2014-04-13T07:29:46Z</time>
      </trkpt>
      <trkpt lat="49.19305" lon="6.94195">
        <ele>325.3</ele>
        <time>2014-04-13T07:29:56Z</time>
      </trkpt>
      <trkpt lat="49.19305" lon="6.94195">
        <ele>324.9</ele>
        <time>2014-04-13T07:30:01Z</time>
      </trkpt>
      <trkpt lat="49.19306" lon="6.94195">
        <ele>325.2</ele>
        <time>2014-04-13T07:30:06Z</time>
      </trkpt>
      <trkpt lat="49.19306" lon="6.94196">
        <ele>325.4</ele>
        <time>2014-04-13T07:30:11Z</time>
      </trkpt>
      <trkpt lat="49.19307" lon="6.94196">
        <ele>326</ele>
        <time>2014-04-13T07:30:16Z</time>
      </trkpt>
      <trkpt lat="49.19309" lon="6.94196">
        <ele>325.7</ele>
        <time>2014-04-13T07:30:21Z</time>
      </trkpt>
      <trkpt lat="49.1931" lon="6.94196">
        <ele>324.9</ele>
        <time>2014-04-13T07:30:26Z</time>
      </trkpt>
      <trkpt lat="49.19312" lon="6.94196">
        <ele>325.3</ele>
        <time>2014-04-13T07:30:31Z</time>
      </trkpt>
      <trkpt lat="49.19313" lon="6.94196">
        <ele>325.4</ele>
        <time>2014-04-13T07:30:36Z</time>
      </trkpt>
      <trkpt lat="49.19312" lon="6.94196">
        <ele>325.2</ele>
        <time>2014-04-13T07:30:41Z</time>
      </trkpt>
      <trkpt lat="49.19311" lon="6.94197">
        <ele>325.4</ele>
        <time>2014-04-13T07:30:46Z</time>
      </trkpt>
      <trkpt lat="49.1931" lon="6.94199">
        <ele>324.9</ele>
        <time>2014-04-13T07:30:51Z</time>
      </trkpt>
      <trkpt lat="49.19311" lon="6.942">
        <ele>325.4</ele>
        <time>2014-04-13T07:31:01Z</time>
      </trkpt>
      <trkpt lat="49.19311" lon="6.94201">
        <ele>325.2</ele>
        <time>2014-04-13T07:31:06Z</time>
      </trkpt>
      <trkpt lat="49.1931" lon="6.94204">
        <ele>325</ele>
        <time>2014-04-13T07:31:11Z</time>
      </trkpt>
      <trkpt lat="49.19306" lon="6.94207">
        <ele>325</ele>
        <time>2014-04-13T07:31:16Z</time>
      </trkpt>
      <trkpt lat="49.19303" lon="6.9421">
        <ele>324.2</ele>
        <time>2014-04-13T07:31:21Z</time>
      </trkpt>
      <trkpt lat="49.19301" lon="6.94214">
        <ele>323.5</ele>
        <time>2014-04-13T07:31:26Z</time>
      </trkpt>
      <trkpt lat="49.19297" lon="6.94219">
        <ele>322.8</ele>
        <time>2014-04-13T07:31:31Z</time>
      </trkpt>
      <trkpt lat="49.19292" lon="6.94222">
        <ele>322.2</ele>
        <time>2014-04-13T07:31:36Z</time>
      </trkpt>
      <trkpt lat="49.19286" lon="6.94227">
        <ele>322.2</ele>
        <time>2014-04-13T07:31:41Z</time>
      </trkpt>
      <trkpt lat="49.1928" lon="6.9423">
        <ele>321.6</ele>
        <time>2014-04-13T07:31:46Z</time>
      </trkpt>
      <trkpt lat="49.19274" lon="6.94234">
        <ele>321.8</ele>
        <time>2014-04-13T07:31:51Z</time>
      </trkpt>
      <trkpt lat="49.19266" lon="6.94236">
        <ele>321.7</ele>
        <time>2014-04-13T07:31:56Z</time>
      </trkpt>
      <trkpt lat="49.19254" lon="6.94242">
        <ele>321.7</ele>
        <time>2014-04-13T07:32:06Z</time>
      </trkpt>
      <trkpt lat="49.19249" lon="6.94247">
        <ele>321.4</ele>
        <time>2014-04-13T07:32:11Z</time>
      </trkpt>
      <trkpt lat="49.19243" lon="6.94253">
        <ele>321.8</ele>
        <time>2014-04-13T07:32:16Z</time>
      </trkpt>
      <trkpt lat="49.19237" lon="6.94258">
        <ele>322.5</ele>
        <time>2014-04-13T07:32:21Z</time>
      </trkpt>
      <trkpt lat="49.19231" lon="6.94265">
        <ele>322</ele>
        <time>2014-04-13T07:32:26Z</time>
      </trkpt>
      <trkpt lat="49.19225" lon="6.9427">
        <ele>321.2</ele>
        <time>2014-04-13T07:32:31Z</time>
      </trkpt>
      <trkpt lat="49.1922" lon="6.94275">
        <ele>321.1</ele>
        <time>2014-04-13T07:32:36Z</time>
      </trkpt>
      <trkpt lat="49.19215" lon="6.94281">
        <ele>322.3</ele>
        <time>2014-04-13T07:32:41Z</time>
      </trkpt>
      <trkpt lat="49.1921" lon="6.94288">
        <ele>321.8</ele>
        <time>2014-04-13T07:32:46Z</time>
      </trkpt>
      <trkpt lat="49.19207" lon="6.94296">
        <ele>321.5</ele>
        <time>2014-04-13T07:32:51Z</time>
      </trkpt>
      <trkpt lat="49.19204" lon="6.94305">
        <ele>321.5</ele>
        <time>2014-04-13T07:32:56Z</time>
      </trkpt>
      <trkpt lat="49.19201" lon="6.94312">
        <ele>322</ele>
        <time>2014-04-13T07:33:01Z</time>
      </trkpt>
      <trkpt lat="49.19195" lon="6.94328">
        <ele>322.1</ele>
        <time>2014-04-13T07:33:11Z</time>
      </trkpt>
      <trkpt lat="49.19192" lon="6.94335">
        <ele>320.8</ele>
        <time>2014-04-13T07:33:16Z</time>
      </trkpt>
      <trkpt lat="49.1919" lon="6.94343">
        <ele>320.2</ele>
        <time>2014-04-13T07:33:21Z</time>
      </trkpt>
      <trkpt lat="49.19186" lon="6.94349">
        <ele>319.2</ele>
        <time>2014-04-13T07:33:26Z</time>
      </trkpt>
      <trkpt lat="49.19182" lon="6.94356">
        <ele>318.8</ele>
        <time>2014-04-13T07:33:31Z</time>
      </trkpt>
      <trkpt lat="49.19178" lon="6.94365">
        <ele>319.5</ele>
        <time>2014-04-13T07:33:36Z</time>
      </trkpt>
      <trkpt lat="49.19173" lon="6.94374">
        <ele>319.2</ele>
        <time>2014-04-13T07:33:41Z</time>
      </trkpt>
      <trkpt lat="49.19166" lon="6.94382">
        <ele>319.1</ele>
        <time>2014-04-13T07:33:46Z</time>
      </trkpt>
      <trkpt lat="49.1916" lon="6.94389">
        <ele>317.9</ele>
        <time>2014-04-13T07:33:51Z</time>
      </trkpt>
      <trkpt lat="49.19155" lon="6.94396">
        <ele>317.8</ele>
        <time>2014-04-13T07:33:56Z</time>
      </trkpt>
      <trkpt lat="49.19152" lon="6.94406">
        <ele>317.5</ele>
        <time>2014-04-13T07:34:01Z</time>
      </trkpt>
      <trkpt lat="49.19148" lon="6.94418">
        <ele>317.4</ele>
        <time>2014-04-13T07:34:06Z</time>
      </trkpt>
      <trkpt lat="49.1915" lon="6.94439">
        <ele>316.3</ele>
        <time>2014-04-13T07:34:16Z</time>
      </trkpt>
      <trkpt lat="49.19149" lon="6.94453">
        <ele>315.5</ele>
        <time>2014-04-13T07:34:21Z</time>
      </trkpt>
      <trkpt lat="49.19147" lon="6.94464">
        <ele>315.8</ele>
        <time>2014-04-13T07:34:26Z</time>
      </trkpt>
      <trkpt lat="49.19143" lon="6.94473">
        <ele>315.3</ele>
        <time>2014-04-13T07:34:31Z</time>
      </trkpt>
      <trkpt lat="49.19138" lon="6.94481">
        <ele>315.3</ele>
        <time>2014-04-13T07:34:36Z</time>
      </trkpt>
      <trkpt lat="49.19134" lon="6.94489">
        <ele>315.6</ele>
        <time>2014-04-13T07:34:41Z</time>
      </trkpt>
      <trkpt lat="49.19131" lon="6.94498">
        <ele>314.7</ele>
        <time>2014-04-13T07:34:46Z</time>
      </trkpt>
      <trkpt lat="49.1913" lon="6.94508">
        <ele>313.9</ele>
        <time>2014-04-13T07:34:51Z</time>
      </trkpt>
      <trkpt lat="49.19127" lon="6.94516">
        <ele>312.9</ele>
        <time>2014-04-13T07:34:56Z</time>
      </trkpt>
      <trkpt lat="49.19126" lon="6.94524">
        <ele>312.4</ele>
        <time>2014-04-13T07:35:01Z</time>
      </trkpt>
      <trkpt lat="49.19126" lon="6.94532">
        <ele>312.4</ele>
        <time>2014-04-13T07:35:06Z</time>
      </trkpt>
      <trkpt lat="49.19126" lon="6.9454">
        <ele>312.6</ele>
        <time>2014-04-13T07:35:11Z</time>
      </trkpt>
      <trkpt lat="49.19129" lon="6.94553">
        <ele>310.5</ele>
        <time>2014-04-13T07:35:21Z</time>
      </trkpt>
      <trkpt lat="49.19132" lon="6.94557">
        <ele>310.7</ele>
        <time>2014-04-13T07:35:26Z</time>
      </trkpt>
      <trkpt lat="49.19136" lon="6.94561">
        <ele>310.8</ele>
        <time>2014-04-13T07:35:31Z</time>
      </trkpt>
      <trkpt lat="49.19141" lon="6.94566">
        <ele>309.9</ele>
        <time>2014-04-13T07:35:36Z</time>
      </trkpt>
      <trkpt lat="49.19146" lon="6.94571">
        <ele>309.6</ele>
        <time>2014-04-13T07:35:41Z</time>
      </trkpt>
      <trkpt lat="49.1915" lon="6.94575">
        <ele>308.5</ele>
        <time>2014-04-13T07:35:46Z</time>
      </trkpt>
      <trkpt lat="49.19155" lon="6.9458">
        <ele>307.8</ele>
        <time>2014-04-13T07:35:51Z</time>
      </trkpt>
      <trkpt lat="49.19161" lon="6.94584">
        <ele>308.2</ele>
        <time>2014-04-13T07:35:56Z</time>
      </trkpt>
      <trkpt lat="49.19169" lon="6.94589">
        <ele>308.1</ele>
        <time>2014-04-13T07:36:01Z</time>
      </trkpt>
      <trkpt lat="49.19176" lon="6.94591">
        <ele>307.3</ele>
        <time>2014-04-13T07:36:06Z</time>
      </trkpt>
      <trkpt lat="49.19181" lon="6.9459">
        <ele>306.7</ele>
        <time>2014-04-13T07:36:11Z</time>
      </trkpt>
      <trkpt lat="49.19189" lon="6.9459">
        <ele>306.1</ele>
        <time>2014-04-13T07:36:16Z</time>
      </trkpt>
      <trkpt lat="49.19204" lon="6.9459">
        <ele>305</ele>
        <time>2014-04-13T07:36:26Z</time>
      </trkpt>
      <trkpt lat="49.19211" lon="6.94588">
        <ele>304.3</ele>
        <time>2014-04-13T07:36:31Z</time>
      </trkpt>
      <trkpt lat="49.19217" lon="6.94588">
        <ele>303.6</ele>
        <time>2014-04-13T07:36:36Z</time>
      </trkpt>
      <trkpt lat="49.19226" lon="6.94588">
        <ele>301.9</ele>
        <time>2014-04-13T07:36:41Z</time>
      </trkpt>
      <trkpt lat="49.19233" lon="6.94588">
        <ele>301</ele>
        <time>2014-04-13T07:36:46Z</time>
      </trkpt>
      <trkpt lat="49.1924" lon="6.94591">
        <ele>300.3</ele>
        <time>2014-04-13T07:36:51Z</time>
      </trkpt>
      <trkpt lat="49.19248" lon="6.94595">
        <ele>300.6</ele>
        <time>2014-04-13T07:36:56Z</time>
      </trkpt>
      <trkpt lat="49.19255" lon="6.94599">
        <ele>300.2</ele>
        <time>2014-04-13T07:37:01Z</time>
      </trkpt>
      <trkpt lat="49.1926" lon="6.94603">
        <ele>301.1</ele>
        <time>2014-04-13T07:37:06Z</time>
      </trkpt>
      <trkpt lat="49.19266" lon="6.94608">
        <ele>300.8</ele>
        <time>2014-04-13T07:37:11Z</time>
      </trkpt>
      <trkpt lat="49.19273" lon="6.94613">
        <ele>300</ele>
        <time>2014-04-13T07:37:16Z</time>
      </trkpt>
      <trkpt lat="49.19279" lon="6.9462">
        <ele>299.5</ele>
        <time>2014-04-13T07:37:21Z</time>
      </trkpt>
      <trkpt lat="49.19288" lon="6.94632">
        <ele>298.3</ele>
        <time>2014-04-13T07:37:31Z</time>
      </trkpt>
      <trkpt lat="49.19294" lon="6.94638">
        <ele>297.8</ele>
        <time>2014-04-13T07:37:36Z</time>
      </trkpt>
      <trkpt lat="49.19301" lon="6.94643">
        <ele>296.9</ele>
        <time>2014-04-13T07:37:41Z</time>
      </trkpt>
      <trkpt lat="49.19307" lon="6.94649">
        <ele>297.4</ele>
        <time>2014-04-13T07:37:46Z</time>
      </trkpt>
      <trkpt lat="49.19315" lon="6.94656">
        <ele>296.1</ele>
        <time>2014-04-13T07:37:51Z</time>
      </trkpt>
      <trkpt lat="49.19322" lon="6.94664">
        <ele>296.4</ele>
        <time>2014-04-13T07:37:56Z</time>
      </trkpt>
      <trkpt lat="49.19329" lon="6.94671">
        <ele>296.9</ele>
        <time>2014-04-13T07:38:01Z</time>
      </trkpt>
      <trkpt lat="49.19336" lon="6.94679">
        <ele>297.1</ele>
        <time>2014-04-13T07:38:06Z</time>
      </trkpt>
      <trkpt lat="49.1934" lon="6.94685">
        <ele>297.5</ele>
        <time>2014-04-13T07:38:11Z</time>
      </trkpt>
      <trkpt lat="49.19346" lon="6.9469">
        <ele>297.2</ele>
        <time>2014-04-13T07:38:16Z</time>
      </trkpt>
      <trkpt lat="49.19352" lon="6.94696">
        <ele>296.7</ele>
        <time>2014-04-13T07:38:21Z</time>
      </trkpt>
      <trkpt lat="49.19359" lon="6.94703">
        <ele>297.1</ele>
        <time>2014-04-13T07:38:26Z</time>
      </trkpt>
      <trkpt lat="49.19372" lon="6.94717">
        <ele>296</ele>
        <time>2014-04-13T07:38:36Z</time>
      </trkpt>
      <trkpt lat="49.19379" lon="6.94723">
        <ele>296.2</ele>
        <time>2014-04-13T07:38:41Z</time>
      </trkpt>
      <trkpt lat="49.19384" lon="6.94729">
        <ele>297</ele>
        <time>2014-04-13T07:38:46Z</time>
      </trkpt>
      <trkpt lat="49.1939" lon="6.94736">
        <ele>296.9</ele>
        <time>2014-04-13T07:38:51Z</time>
      </trkpt>
      <trkpt lat="49.19396" lon="6.94744">
        <ele>296.8</ele>
        <time>2014-04-13T07:38:56Z</time>
      </trkpt>
      <trkpt lat="49.19401" lon="6.94751">
        <ele>297.3</ele>
        <time>2014-04-13T07:39:01Z</time>
      </trkpt>
      <trkpt lat="49.19406" lon="6.9476">
        <ele>298</ele>
        <time>2014-04-13T07:39:06Z</time>
      </trkpt>
      <trkpt lat="49.19411" lon="6.94768">
        <ele>298.7</ele>
        <time>2014-04-13T07:39:11Z</time>
      </trkpt>
      <trkpt lat="49.19415" lon="6.94775">
        <ele>298.3</ele>
        <time>2014-04-13T07:39:16Z</time>
      </trkpt>
      <trkpt lat="49.1942" lon="6.94781">
        <ele>297.8</ele>
        <time>2014-04-13T07:39:21Z</time>
      </trkpt>
      <trkpt lat="49.19426" lon="6.94784">
        <ele>298.5</ele>
        <time>2014-04-13T07:39:26Z</time>
      </trkpt>
      <trkpt lat="49.19432" lon="6.94787">
        <ele>298.5</ele>
        <time>2014-04-13T07:39:31Z</time>
      </trkpt>
      <trkpt lat="49.19443" lon="6.94794">
        <ele>299.1</ele>
        <time>2014-04-13T07:39:41Z</time>
      </trkpt>
      <trkpt lat="49.19448" lon="6.94799">
        <ele>299.8</ele>
        <time>2014-04-13T07:39:46Z</time>
      </trkpt>
      <trkpt lat="49.19453" lon="6.94805">
        <ele>300.1</ele>
        <time>2014-04-13T07:39:51Z</time>
      </trkpt>
      <trkpt lat="49.19458" lon="6.9481">
        <ele>301.4</ele>
        <time>2014-04-13T07:39:56Z</time>
      </trkpt>
      <trkpt lat="49.19465" lon="6.94818">
        <ele>300.9</ele>
        <time>2014-04-13T07:40:01Z</time>
      </trkpt>
      <trkpt lat="49.1947" lon="6.94827">
        <ele>301.7</ele>
        <time>2014-04-13T07:40:06Z</time>
      </trkpt>
      <trkpt lat="49.19475" lon="6.94834">
        <ele>302.2</ele>
        <time>2014-04-13T07:40:11Z</time>
      </trkpt>
      <trkpt lat="49.1948" lon="6.94841">
        <ele>303.4</ele>
        <time>2014-04-13T07:40:16Z</time>
      </trkpt>
      <trkpt lat="49.19485" lon="6.94848">
        <ele>303.8</ele>
        <time>2014-04-13T07:40:21Z</time>
      </trkpt>
      <trkpt lat="49.19491" lon="6.94855">
        <ele>304.2</ele>
        <time>2014-04-13T07:40:26Z</time>
      </trkpt>
      <trkpt lat="49.19496" lon="6.94861">
        <ele>304.2</ele>
        <time>2014-04-13T07:40:31Z</time>
      </trkpt>
      <trkpt lat="49.19503" lon="6.94867">
        <ele>304</ele>
        <time>2014-04-13T07:40:36Z</time>
      </trkpt>
      <trkpt lat="49.19514" lon="6.94879">
        <ele>305.2</ele>
        <time>2014-04-13T07:40:46Z</time>
      </trkpt>
      <trkpt lat="49.1952" lon="6.94885">
        <ele>305.9</ele>
        <time>2014-04-13T07:40:51Z</time>
      </trkpt>
      <trkpt lat="49.19525" lon="6.94892">
        <ele>305.7</ele>
        <time>2014-04-13T07:40:56Z</time>
      </trkpt>
      <trkpt lat="49.1953" lon="6.94897">
        <ele>306.5</ele>
        <time>2014-04-13T07:41:01Z</time>
      </trkpt>
      <trkpt lat="49.19535" lon="6.94903">
        <ele>306.5</ele>
        <time>2014-04-13T07:41:06Z</time>
      </trkpt>
      <trkpt lat="49.19541" lon="6.94909">
        <ele>306.9</ele>
        <time>2014-04-13T07:41:11Z</time>
      </trkpt>
      <trkpt lat="49.19545" lon="6.94916">
        <ele>307.4</ele>
        <time>2014-04-13T07:41:16Z</time>
      </trkpt>
      <trkpt lat="49.19551" lon="6.94922">
        <ele>308</ele>
        <time>2014-04-13T07:41:21Z</time>
      </trkpt>
      <trkpt lat="49.19555" lon="6.94929">
        <ele>308.8</ele>
        <time>2014-04-13T07:41:26Z</time>
      </trkpt>
      <trkpt lat="49.19559" lon="6.94935">
        <ele>309.3</ele>
        <time>2014-04-13T07:41:31Z</time>
      </trkpt>
      <trkpt lat="49.19563" lon="6.94941">
        <ele>309.1</ele>
        <time>2014-04-13T07:41:36Z</time>
      </trkpt>
      <trkpt lat="49.19569" lon="6.94949">
        <ele>308.9</ele>
        <time>2014-04-13T07:41:41Z</time>
      </trkpt>
      <trkpt lat="49.19579" lon="6.94965">
        <ele>309.8</ele>
        <time>2014-04-13T07:41:51Z</time>
      </trkpt>
      <trkpt lat="49.19583" lon="6.94973">
        <ele>310.1</ele>
        <time>2014-04-13T07:41:56Z</time>
      </trkpt>
      <trkpt lat="49.19586" lon="6.94982">
        <ele>310.8</ele>
        <time>2014-04-13T07:42:01Z</time>
      </trkpt>
      <trkpt lat="49.1959" lon="6.94992">
        <ele>311.4</ele>
        <time>2014-04-13T07:42:06Z</time>
      </trkpt>
      <trkpt lat="49.19593" lon="6.95">
        <ele>311.7</ele>
        <time>2014-04-13T07:42:11Z</time>
      </trkpt>
      <trkpt lat="49.19595" lon="6.95009">
        <ele>312.8</ele>
        <time>2014-04-13T07:42:16Z</time>
      </trkpt>
      <trkpt lat="49.19599" lon="6.95017">
        <ele>313.2</ele>
        <time>2014-04-13T07:42:21Z</time>
      </trkpt>
      <trkpt lat="49.19603" lon="6.95025">
        <ele>313.2</ele>
        <time>2014-04-13T07:42:26Z</time>
      </trkpt>
      <trkpt lat="49.19607" lon="6.95033">
        <ele>314</ele>
        <time>2014-04-13T07:42:31Z</time>
      </trkpt>
      <trkpt lat="49.1961" lon="6.95041">
        <ele>314.6</ele>
        <time>2014-04-13T07:42:36Z</time>
      </trkpt>
      <trkpt lat="49.19614" lon="6.95049">
        <ele>314.2</ele>
        <time>2014-04-13T07:42:41Z</time>
      </trkpt>
      <trkpt lat="49.19619" lon="6.95057">
        <ele>314.5</ele>
        <time>2014-04-13T07:42:46Z</time>
      </trkpt>
      <trkpt lat="49.19627" lon="6.95072">
        <ele>315.9</ele>
        <time>2014-04-13T07:42:56Z</time>
      </trkpt>
      <trkpt lat="49.1963" lon="6.9508">
        <ele>316</ele>
        <time>2014-04-13T07:43:01Z</time>
      </trkpt>
      <trkpt lat="49.19634" lon="6.95086">
        <ele>316.4</ele>
        <time>2014-04-13T07:43:06Z</time>
      </trkpt>
      <trkpt lat="49.19636" lon="6.95089">
        <ele>316.5</ele>
        <time>2014-04-13T07:43:11Z</time>
      </trkpt>
      <trkpt lat="49.19638" lon="6.95092">
        <ele>317</ele>
        <time>2014-04-13T07:43:16Z</time>
      </trkpt>
      <trkpt lat="49.1964" lon="6.95095">
        <ele>316.2</ele>
        <time>2014-04-13T07:43:21Z</time>
      </trkpt>
      <trkpt lat="49.19641" lon="6.95097">
        <ele>315.9</ele>
        <time>2014-04-13T07:43:26Z</time>
      </trkpt>
      <trkpt lat="49.19643" lon="6.95098">
        <ele>316.1</ele>
        <time>2014-04-13T07:43:31Z</time>
      </trkpt>
      <trkpt lat="49.19645" lon="6.95099">
        <ele>315.6</ele>
        <time>2014-04-13T07:43:36Z</time>
      </trkpt>
      <trkpt lat="49.19648" lon="6.95099">
        <ele>315.6</ele>
        <time>2014-04-13T07:43:41Z</time>
      </trkpt>
      <trkpt lat="49.19651" lon="6.95101">
        <ele>315.4</ele>
        <time>2014-04-13T07:43:46Z</time>
      </trkpt>
      <trkpt lat="49.19653" lon="6.95101">
        <ele>315.4</ele>
        <time>2014-04-13T07:43:51Z</time>
      </trkpt>
      <trkpt lat="49.19661" lon="6.95101">
        <ele>314.5</ele>
        <time>2014-04-13T07:44:01Z</time>
      </trkpt>
      <trkpt lat="49.19664" lon="6.95101">
        <ele>314.2</ele>
        <time>2014-04-13T07:44:06Z</time>
      </trkpt>
      <trkpt lat="49.19669" lon="6.95102">
        <ele>314.3</ele>
        <time>2014-04-13T07:44:11Z</time>
      </trkpt>
      <trkpt lat="49.19674" lon="6.95104">
        <ele>313.5</ele>
        <time>2014-04-13T07:44:16Z</time>
      </trkpt>
      <trkpt lat="49.19679" lon="6.95108">
        <ele>313.1</ele>
        <time>2014-04-13T07:44:21Z</time>
      </trkpt>
      <trkpt lat="49.19684" lon="6.95112">
        <ele>313.3</ele>
        <time>2014-04-13T07:44:26Z</time>
      </trkpt>
      <trkpt lat="49.19689" lon="6.95118">
        <ele>313.4</ele>
        <time>2014-04-13T07:44:31Z</time>
      </trkpt>
      <trkpt lat="49.19694" lon="6.95125">
        <ele>313.8</ele>
        <time>2014-04-13T07:44:36Z</time>
      </trkpt>
      <trkpt lat="49.19698" lon="6.95132">
        <ele>313.7</ele>
        <time>2014-04-13T07:44:41Z</time>
      </trkpt>
      <trkpt lat="49.19703" lon="6.95141">
        <ele>314.2</ele>
        <time>2014-04-13T07:44:46Z</time>
      </trkpt>
      <trkpt lat="49.19706" lon="6.95149">
        <ele>315</ele>
        <time>2014-04-13T07:44:51Z</time>
      </trkpt>
      <trkpt lat="49.19709" lon="6.95158">
        <ele>314.9</ele>
        <time>2014-04-13T07:44:56Z</time>
      </trkpt>
      <trkpt lat="49.19715" lon="6.95175">
        <ele>315.8</ele>
        <time>2014-04-13T07:45:06Z</time>
      </trkpt>
      <trkpt lat="49.19718" lon="6.95182">
        <ele>316.3</ele>
        <time>2014-04-13T07:45:11Z</time>
      </trkpt>
      <trkpt lat="49.19723" lon="6.95189">
        <ele>315.7</ele>
        <time>2014-04-13T07:45:16Z</time>
      </trkpt>
      <trkpt lat="49.19727" lon="6.95196">
        <ele>316.1</ele>
        <time>2014-04-13T07:45:21Z</time>
      </trkpt>
      <trkpt lat="49.19731" lon="6.95203">
        <ele>316.2</ele>
        <time>2014-04-13T07:45:26Z</time>
      </trkpt>
      <trkpt lat="49.19735" lon="6.95211">
        <ele>315.7</ele>
        <time>2014-04-13T07:45:31Z</time>
      </trkpt>
      <trkpt lat="49.19739" lon="6.9522">
        <ele>316.2</ele>
        <time>2014-04-13T07:45:36Z</time>
      </trkpt>
      <trkpt lat="49.19743" lon="6.9523">
        <ele>315.3</ele>
        <time>2014-04-13T07:45:41Z</time>
      </trkpt>
      <trkpt lat="49.19747" lon="6.9524">
        <ele>316.3</ele>
        <time>2014-04-13T07:45:46Z</time>
      </trkpt>
      <trkpt lat="49.1975" lon="6.95249">
        <ele>317.5</ele>
        <time>2014-04-13T07:45:51Z</time>
      </trkpt>
      <trkpt lat="49.19753" lon="6.95257">
        <ele>317.3</ele>
        <time>2014-04-13T07:45:56Z</time>
      </trkpt>
      <trkpt lat="49.19755" lon="6.95266">
        <ele>316.8</ele>
        <time>2014-04-13T07:46:01Z</time>
      </trkpt>
      <trkpt lat="49.19759" lon="6.95285">
        <ele>317.5</ele>
        <time>2014-04-13T07:46:11Z</time>
      </trkpt>
      <trkpt lat="49.19761" lon="6.95294">
        <ele>316.7</ele>
        <time>2014-04-13T07:46:16Z</time>
      </trkpt>
      <trkpt lat="49.19763" lon="6.95304">
        <ele>316.7</ele>
        <time>2014-04-13T07:46:21Z</time>
      </trkpt>
      <trkpt lat="49.19764" lon="6.95314">
        <ele>317.4</ele>
        <time>2014-04-13T07:46:26Z</time>
      </trkpt>
      <trkpt lat="49.19765" lon="6.95327">
        <ele>316.7</ele>
        <time>2014-04-13T07:46:31Z</time>
      </trkpt>
      <trkpt lat="49.19766" lon="6.95339">
        <ele>317</ele>
        <time>2014-04-13T07:46:36Z</time>
      </trkpt>
      <trkpt lat="49.19766" lon="6.95352">
        <ele>317</ele>
        <time>2014-04-13T07:46:41Z</time>
      </trkpt>
      <trkpt lat="49.19768" lon="6.95363">
        <ele>316.9</ele>
        <time>2014-04-13T07:46:46Z</time>
      </trkpt>
      <trkpt lat="49.19769" lon="6.95372">
        <ele>317.1</ele>
        <time>2014-04-13T07:46:51Z</time>
      </trkpt>
      <trkpt lat="49.1977" lon="6.95383">
        <ele>316.4</ele>
        <time>2014-04-13T07:46:56Z</time>
      </trkpt>
      <trkpt lat="49.19771" lon="6.95393">
        <ele>315.7</ele>
        <time>2014-04-13T07:47:01Z</time>
      </trkpt>
      <trkpt lat="49.19774" lon="6.95401">
        <ele>315.2</ele>
        <time>2014-04-13T07:47:06Z</time>
      </trkpt>
      <trkpt lat="49.19781" lon="6.95416">
        <ele>312.9</ele>
        <time>2014-04-13T07:47:16Z</time>
      </trkpt>
      <trkpt lat="49.19785" lon="6.95424">
        <ele>311.8</ele>
        <time>2014-04-13T07:47:21Z</time>
      </trkpt>
      <trkpt lat="49.19788" lon="6.95431">
        <ele>311.1</ele>
        <time>2014-04-13T07:47:26Z</time>
      </trkpt>
      <trkpt lat="49.19793" lon="6.95438">
        <ele>310.4</ele>
        <time>2014-04-13T07:47:31Z</time>
      </trkpt>
      <trkpt lat="49.19798" lon="6.95446">
        <ele>308.7</ele>
        <time>2014-04-13T07:47:36Z</time>
      </trkpt>
      <trkpt lat="49.19802" lon="6.95455">
        <ele>307.8</ele>
        <time>2014-04-13T07:47:41Z</time>
      </trkpt>
      <trkpt lat="49.19806" lon="6.95466">
        <ele>307.4</ele>
        <time>2014-04-13T07:47:46Z</time>
      </trkpt>
      <trkpt lat="49.19807" lon="6.95476">
        <ele>306.2</ele>
        <time>2014-04-13T07:47:51Z</time>
      </trkpt>
      <trkpt lat="49.19805" lon="6.95485">
        <ele>304.6</ele>
        <time>2014-04-13T07:47:56Z</time>
      </trkpt>
      <trkpt lat="49.19803" lon="6.95491">
        <ele>304.2</ele>
        <time>2014-04-13T07:48:01Z</time>
      </trkpt>
      <trkpt lat="49.19801" lon="6.95498">
        <ele>302.9</ele>
        <time>2014-04-13T07:48:06Z</time>
      </trkpt>
      <trkpt lat="49.19799" lon="6.95504">
        <ele>302.2</ele>
        <time>2014-04-13T07:48:11Z</time>
      </trkpt>
      <trkpt lat="49.1979" lon="6.95519">
        <ele>302</ele>
        <time>2014-04-13T07:48:21Z</time>
      </trkpt>
      <trkpt lat="49.19786" lon="6.95525">
        <ele>301.3</ele>
        <time>2014-04-13T07:48:26Z</time>
      </trkpt>
      <trkpt lat="49.19781" lon="6.95531">
        <ele>300</ele>
        <time>2014-04-13T07:48:31Z</time>
      </trkpt>
      <trkpt lat="49.19776" lon="6.95537">
        <ele>299.7</ele>
        <time>2014-04-13T07:48:36Z</time>
      </trkpt>
      <trkpt lat="49.19771" lon="6.95543">
        <ele>299.8</ele>
        <time>2014-04-13T07:48:41Z</time>
      </trkpt>
      <trkpt lat="49.19765" lon="6.9555">
        <ele>299.4</ele>
        <time>2014-04-13T07:48:46Z</time>
      </trkpt>
      <trkpt lat="49.1976" lon="6.95557">
        <ele>298</ele>
        <time>2014-04-13T07:48:51Z</time>
      </trkpt>
      <trkpt lat="49.19756" lon="6.95564">
        <ele>297.8</ele>
        <time>2014-04-13T07:48:56Z</time>
      </trkpt>
      <trkpt lat="49.19752" lon="6.95572">
        <ele>297.5</ele>
        <time>2014-04-13T07:49:01Z</time>
      </trkpt>
      <trkpt lat="49.19747" lon="6.95584">
        <ele>296.6</ele>
        <time>2014-04-13T07:49:06Z</time>
      </trkpt>
      <trkpt lat="49.19743" lon="6.95593">
        <ele>296.2</ele>
        <time>2014-04-13T07:49:11Z</time>
      </trkpt>
      <trkpt lat="49.19738" lon="6.95603">
        <ele>295.4</ele>
        <time>2014-04-13T07:49:16Z</time>
      </trkpt>
      <trkpt lat="49.19733" lon="6.95624">
        <ele>295.6</ele>
        <time>2014-04-13T07:49:26Z</time>
      </trkpt>
      <trkpt lat="49.19732" lon="6.95635">
        <ele>295</ele>
        <time>2014-04-13T07:49:31Z</time>
      </trkpt>
      <trkpt lat="49.1973" lon="6.95647">
        <ele>294.7</ele>
        <time>2014-04-13T07:49:36Z</time>
      </trkpt>
      <trkpt lat="49.19729" lon="6.95658">
        <ele>295.4</ele>
        <time>2014-04-13T07:49:41Z</time>
      </trkpt>
      <trkpt lat="49.19729" lon="6.95669">
        <ele>295.2</ele>
        <time>2014-04-13T07:49:46Z</time>
      </trkpt>
      <trkpt lat="49.19728" lon="6.95681">
        <ele>295.1</ele>
        <time>2014-04-13T07:49:51Z</time>
      </trkpt>
      <trkpt lat="49.19728" lon="6.95692">
        <ele>295.5</ele>
        <time>2014-04-13T07:49:56Z</time>
      </trkpt>
      <trkpt lat="49.19729" lon="6.95704">
        <ele>295.9</ele>
        <time>2014-04-13T07:50:01Z</time>
      </trkpt>
      <trkpt lat="49.19729" lon="6.95716">
        <ele>296.2</ele>
        <time>2014-04-13T07:50:06Z</time>
      </trkpt>
      <trkpt lat="49.19729" lon="6.95729">
        <ele>295.8</ele>
        <time>2014-04-13T07:50:11Z</time>
      </trkpt>
      <trkpt lat="49.1973" lon="6.95742">
        <ele>296.1</ele>
        <time>2014-04-13T07:50:16Z</time>
      </trkpt>
      <trkpt lat="49.19732" lon="6.95754">
        <ele>296.4</ele>
        <time>2014-04-13T07:50:21Z</time>
      </trkpt>
      <trkpt lat="49.19736" lon="6.95781">
        <ele>297</ele>
        <time>2014-04-13T07:50:31Z</time>
      </trkpt>
      <trkpt lat="49.19738" lon="6.95793">
        <ele>296.5</ele>
        <time>2014-04-13T07:50:36Z</time>
      </trkpt>
      <trkpt lat="49.19739" lon="6.95806">
        <ele>296.8</ele>
        <time>2014-04-13T07:50:41Z</time>
      </trkpt>
      <trkpt lat="49.19741" lon="6.95817">
        <ele>296.7</ele>
        <time>2014-04-13T07:50:46Z</time>
      </trkpt>
      <trkpt lat="49.19743" lon="6.95828">
        <ele>296</ele>
        <time>2014-04-13T07:50:51Z</time>
      </trkpt>
      <trkpt lat="49.19744" lon="6.9584">
        <ele>296.7</ele>
        <time>2014-04-13T07:50:56Z</time>
      </trkpt>
      <trkpt lat="49.19746" lon="6.95851">
        <ele>296.7</ele>
        <time>2014-04-13T07:51:01Z</time>
      </trkpt>
      <trkpt lat="49.19749" lon="6.9586">
        <ele>296.7</ele>
        <time>2014-04-13T07:51:06Z</time>
      </trkpt>
      <trkpt lat="49.19753" lon="6.9587">
        <ele>296.9</ele>
        <time>2014-04-13T07:51:11Z</time>
      </trkpt>
      <trkpt lat="49.19756" lon="6.95878">
        <ele>296.8</ele>
        <time>2014-04-13T07:51:16Z</time>
      </trkpt>
      <trkpt lat="49.19759" lon="6.95887">
        <ele>297.4</ele>
        <time>2014-04-13T07:51:21Z</time>
      </trkpt>
      <trkpt lat="49.19762" lon="6.95896">
        <ele>297.6</ele>
        <time>2014-04-13T07:51:26Z</time>
      </trkpt>
      <trkpt lat="49.19768" lon="6.95915">
        <ele>297.7</ele>
        <time>2014-04-13T07:51:36Z</time>
      </trkpt>
      <trkpt lat="49.19771" lon="6.95925">
        <ele>297.9</ele>
        <time>2014-04-13T07:51:41Z</time>
      </trkpt>
      <trkpt lat="49.19774" lon="6.95936">
        <ele>297.8</ele>
        <time>2014-04-13T07:51:46Z</time>
      </trkpt>
      <trkpt lat="49.19777" lon="6.95946">
        <ele>298</ele>
        <time>2014-04-13T07:51:51Z</time>
      </trkpt>
      <trkpt lat="49.1978" lon="6.95955">
        <ele>298.3</ele>
        <time>2014-04-13T07:51:56Z</time>
      </trkpt>
      <trkpt lat="49.19783" lon="6.95966">
        <ele>298.9</ele>
        <time>2014-04-13T07:52:01Z</time>
      </trkpt>
      <trkpt lat="49.19786" lon="6.95977">
        <ele>299.4</ele>
        <time>2014-04-13T07:52:06Z</time>
      </trkpt>
      <trkpt lat="49.19789" lon="6.95988">
        <ele>299.5</ele>
        <time>2014-04-13T07:52:11Z</time>
      </trkpt>
      <trkpt lat="49.19792" lon="6.95999">
        <ele>299.1</ele>
        <time>2014-04-13T07:52:16Z</time>
      </trkpt>
      <trkpt lat="49.19796" lon="6.96009">
        <ele>299.6</ele>
        <time>2014-04-13T07:52:21Z</time>
      </trkpt>
      <trkpt lat="49.19799" lon="6.9602">
        <ele>300.1</ele>
        <time>2014-04-13T07:52:26Z</time>
      </trkpt>
      <trkpt lat="49.19803" lon="6.96029">
        <ele>300.3</ele>
        <time>2014-04-13T07:52:31Z</time>
      </trkpt>
      <trkpt lat="49.19813" lon="6.96049">
        <ele>300</ele>
        <time>2014-04-13T07:52:41Z</time>
      </trkpt>
      <trkpt lat="49.19818" lon="6.96059">
        <ele>300.3</ele>
        <time>2014-04-13T07:52:46Z</time>
      </trkpt>
      <trkpt lat="49.19822" lon="6.96069">
        <ele>301.1</ele>
        <time>2014-04-13T07:52:51Z</time>
      </trkpt>
      <trkpt lat="49.19826" lon="6.96079">
        <ele>301.2</ele>
        <time>2014-04-13T07:52:56Z</time>
      </trkpt>
      <trkpt lat="49.19833" lon="6.96087">
        <ele>301.4</ele>
        <time>2014-04-13T07:53:01Z</time>
      </trkpt>
      <trkpt lat="49.19838" lon="6.96095">
        <ele>301.9</ele>
        <time>2014-04-13T07:53:06Z</time>
      </trkpt>
      <trkpt lat="49.19844" lon="6.96104">
        <ele>302</ele>
        <time>2014-04-13T07:53:11Z</time>
      </trkpt>
      <trkpt lat="49.19849" lon="6.96111">
        <ele>302.7</ele>
        <time>2014-04-13T07:53:16Z</time>
      </trkpt>
      <trkpt lat="49.19853" lon="6.96119">
        <ele>303.5</ele>
        <time>2014-04-13T07:53:21Z</time>
      </trkpt>
      <trkpt lat="49.19857" lon="6.96127">
        <ele>303.7</ele>
        <time>2014-04-13T07:53:26Z</time>
      </trkpt>
      <trkpt lat="49.19861" lon="6.96135">
        <ele>304.2</ele>
        <time>2014-04-13T07:53:31Z</time>
      </trkpt>
      <trkpt lat="49.19866" lon="6.96142">
        <ele>305.1</ele>
        <time>2014-04-13T07:53:36Z</time>
      </trkpt>
      <trkpt lat="49.19874" lon="6.96158">
        <ele>305.8</ele>
        <time>2014-04-13T07:53:46Z</time>
      </trkpt>
      <trkpt lat="49.19879" lon="6.96166">
        <ele>305.9</ele>
        <time>2014-04-13T07:53:51Z</time>
      </trkpt>
      <trkpt lat="49.19884" lon="6.96174">
        <ele>306.7</ele>
        <time>2014-04-13T07:53:56Z</time>
      </trkpt>
      <trkpt lat="49.19887" lon="6.96183">
        <ele>307.1</ele>
        <time>2014-04-13T07:54:01Z</time>
      </trkpt>
      <trkpt lat="49.19891" lon="6.9619">
        <ele>306.6</ele>
        <time>2014-04-13T07:54:06Z</time>
      </trkpt>
      <trkpt lat="49.19897" lon="6.96197">
        <ele>306.6</ele>
        <time>2014-04-13T07:54:11Z</time>
      </trkpt>
      <trkpt lat="49.19902" lon="6.96205">
        <ele>306.5</ele>
        <time>2014-04-13T07:54:16Z</time>
      </trkpt>
      <trkpt lat="49.19906" lon="6.96213">
        <ele>307</ele>
        <time>2014-04-13T07:54:21Z</time>
      </trkpt>
      <trkpt lat="49.19912" lon="6.96219">
        <ele>306.9</ele>
        <time>2014-04-13T07:54:26Z</time>
      </trkpt>
      <trkpt lat="49.19918" lon="6.96226">
        <ele>306.6</ele>
        <time>2014-04-13T07:54:31Z</time>
      </trkpt>
      <trkpt lat="49.19923" lon="6.96234">
        <ele>306.4</ele>
        <time>2014-04-13T07:54:36Z</time>
      </trkpt>
      <trkpt lat="49.19928" lon="6.96242">
        <ele>306.9</ele>
        <time>2014-04-13T07:54:41Z</time>
      </trkpt>
      <trkpt lat="49.19938" lon="6.96259">
        <ele>306.4</ele>
        <time>2014-04-13T07:54:51Z</time>
      </trkpt>
      <trkpt lat="49.19944" lon="6.96267">
        <ele>306.8</ele>
        <time>2014-04-13T07:54:56Z</time>
      </trkpt>
      <trkpt lat="49.19948" lon="6.96277">
        <ele>307.1</ele>
        <time>2014-04-13T07:55:01Z</time>
      </trkpt>
      <trkpt lat="49.19953" lon="6.96286">
        <ele>306.7</ele>
        <time>2014-04-13T07:55:06Z</time>
      </trkpt>
      <trkpt lat="49.19957" lon="6.96296">
        <ele>307.2</ele>
        <time>2014-04-13T07:55:11Z</time>
      </trkpt>
      <trkpt lat="49.19961" lon="6.96306">
        <ele>307</ele>
        <time>2014-04-13T07:55:16Z</time>
      </trkpt>
      <trkpt lat="49.19964" lon="6.96317">
        <ele>307.4</ele>
        <time>2014-04-13T07:55:21Z</time>
      </trkpt>
      <trkpt lat="49.19967" lon="6.96328">
        <ele>307.7</ele>
        <time>2014-04-13T07:55:26Z</time>
      </trkpt>
      <trkpt lat="49.1997" lon="6.96339">
        <ele>308.1</ele>
        <time>2014-04-13T07:55:31Z</time>
      </trkpt>
      <trkpt lat="49.19974" lon="6.96348">
        <ele>308.2</ele>
        <time>2014-04-13T07:55:36Z</time>
      </trkpt>
      <trkpt lat="49.19977" lon="6.96357">
        <ele>308.9</ele>
        <time>2014-04-13T07:55:41Z</time>
      </trkpt>
      <trkpt lat="49.1998" lon="6.96366">
        <ele>307.9</ele>
        <time>2014-04-13T07:55:46Z</time>
      </trkpt>
      <trkpt lat="49.19988" lon="6.96385">
        <ele>307.7</ele>
        <time>2014-04-13T07:55:56Z</time>
      </trkpt>
      <trkpt lat="49.19991" lon="6.96395">
        <ele>307.2</ele>
        <time>2014-04-13T07:56:01Z</time>
      </trkpt>
      <trkpt lat="49.19995" lon="6.96406">
        <ele>307.5</ele>
        <time>2014-04-13T07:56:06Z</time>
      </trkpt>
      <trkpt lat="49.19997" lon="6.96416">
        <ele>307.4</ele>
        <time>2014-04-13T07:56:11Z</time>
      </trkpt>
      <trkpt lat="49.20002" lon="6.96425">
        <ele>306.4</ele>
        <time>2014-04-13T07:56:16Z</time>
      </trkpt>
      <trkpt lat="49.20005" lon="6.96434">
        <ele>306.3</ele>
        <time>2014-04-13T07:56:21Z</time>
      </trkpt>
      <trkpt lat="49.20009" lon="6.96444">
        <ele>306.3</ele>
        <time>2014-04-13T07:56:26Z</time>
      </trkpt>
      <trkpt lat="49.20014" lon="6.96455">
        <ele>306.3</ele>
        <time>2014-04-13T07:56:31Z</time>
      </trkpt>
      <trkpt lat="49.20019" lon="6.96465">
        <ele>306.1</ele>
        <time>2014-04-13T07:56:36Z</time>
      </trkpt>
      <trkpt lat="49.20024" lon="6.96476">
        <ele>306.3</ele>
        <time>2014-04-13T07:56:41Z</time>
      </trkpt>
      <trkpt lat="49.2003" lon="6.96486">
        <ele>306.3</ele>
        <time>2014-04-13T07:56:46Z</time>
      </trkpt>
      <trkpt lat="49.20035" lon="6.96495">
        <ele>305.8</ele>
        <time>2014-04-13T07:56:51Z</time>
      </trkpt>
      <trkpt lat="49.20044" lon="6.96514">
        <ele>305.9</ele>
        <time>2014-04-13T07:57:01Z</time>
      </trkpt>
      <trkpt lat="49.20048" lon="6.96523">
        <ele>305.4</ele>
        <time>2014-04-13T07:57:06Z</time>
      </trkpt>
      <trkpt lat="49.20052" lon="6.96531">
        <ele>306.2</ele>
        <time>2014-04-13T07:57:11Z</time>
      </trkpt>
      <trkpt lat="49.20057" lon="6.96539">
        <ele>306.1</ele>
        <time>2014-04-13T07:57:16Z</time>
      </trkpt>
      <trkpt lat="49.20061" lon="6.96548">
        <ele>305.4</ele>
        <time>2014-04-13T07:57:21Z</time>
      </trkpt>
      <trkpt lat="49.20066" lon="6.96558">
        <ele>305.8</ele>
        <time>2014-04-13T07:57:26Z</time>
      </trkpt>
      <trkpt lat="49.20071" lon="6.96566">
        <ele>305.7</ele>
        <time>2014-04-13T07:57:31Z</time>
      </trkpt>
      <trkpt lat="49.20075" lon="6.96573">
        <ele>305.5</ele>
        <time>2014-04-13T07:57:36Z</time>
      </trkpt>
      <trkpt lat="49.20081" lon="6.96582">
        <ele>306.2</ele>
        <time>2014-04-13T07:57:41Z</time>
      </trkpt>
      <trkpt lat="49.20086" lon="6.96592">
        <ele>304.5</ele>
        <time>2014-04-13T07:57:46Z</time>
      </trkpt>
      <trkpt lat="49.2009" lon="6.96601">
        <ele>304.8</ele>
        <time>2014-04-13T07:57:51Z</time>
      </trkpt>
      <trkpt lat="49.20093" lon="6.96609">
        <ele>304.9</ele>
        <time>2014-04-13T07:57:56Z</time>
      </trkpt>
      <trkpt lat="49.201" lon="6.96624">
        <ele>304.8</ele>
        <time>2014-04-13T07:58:06Z</time>
      </trkpt>
      <trkpt lat="49.20104" lon="6.96632">
        <ele>304.9</ele>
        <time>2014-04-13T07:58:11Z</time>
      </trkpt>
      <trkpt lat="49.20108" lon="6.96641">
        <ele>304.9</ele>
        <time>2014-04-13T07:58:16Z</time>
      </trkpt>
      <trkpt lat="49.20114" lon="6.9665">
        <ele>305.2</ele>
        <time>2014-04-13T07:58:21Z</time>
      </trkpt>
      <trkpt lat="49.20121" lon="6.96659">
        <ele>305</ele>
        <time>2014-04-13T07:58:26Z</time>
      </trkpt>
      <trkpt lat="49.20128" lon="6.96668">
        <ele>305.1</ele>
        <time>2014-04-13T07:58:31Z</time>
      </trkpt>
      <trkpt lat="49.20135" lon="6.96676">
        <ele>305.3</ele>
        <time>2014-04-13T07:58:36Z</time>
      </trkpt>
      <trkpt lat="49.20142" lon="6.96684">
        <ele>305.3</ele>
        <time>2014-04-13T07:58:41Z</time>
      </trkpt>
      <trkpt lat="49.20149" lon="6.96693">
        <ele>305.2</ele>
        <time>2014-04-13T07:58:46Z</time>
      </trkpt>
      <trkpt lat="49.20155" lon="6.96701">
        <ele>304.8</ele>
        <time>2014-04-13T07:58:51Z</time>
      </trkpt>
      <trkpt lat="49.20162" lon="6.96708">
        <ele>305.1</ele>
        <time>2014-04-13T07:58:56Z</time>
      </trkpt>
      <trkpt lat="49.20167" lon="6.96716">
        <ele>305.4</ele>
        <time>2014-04-13T07:59:01Z</time>
      </trkpt>
      <trkpt lat="49.2018" lon="6.96731">
        <ele>305.5</ele>
        <time>2014-04-13T07:59:11Z</time>
      </trkpt>
      <trkpt lat="49.20186" lon="6.96738">
        <ele>305.6</ele>
        <time>2014-04-13T07:59:16Z</time>
      </trkpt>
      <trkpt lat="49.20191" lon="6.96745">
        <ele>306.2</ele>
        <time>2014-04-13T07:59:21Z</time>
      </trkpt>
      <trkpt lat="49.20196" lon="6.96752">
        <ele>306.1</ele>
        <time>2014-04-13T07:59:26Z</time>
      </trkpt>
      <trkpt lat="49.20201" lon="6.96759">
        <ele>306.5</ele>
        <time>2014-04-13T07:59:31Z</time>
      </trkpt>
      <trkpt lat="49.20204" lon="6.96764">
        <ele>306.9</ele>
        <time>2014-04-13T07:59:36Z</time>
      </trkpt>
      <trkpt lat="49.20207" lon="6.96773">
        <ele>306.9</ele>
        <time>2014-04-13T07:59:41Z</time>
      </trkpt>
      <trkpt lat="49.20209" lon="6.9678">
        <ele>307.7</ele>
        <time>2014-04-13T07:59:46Z</time>
      </trkpt>
      <trkpt lat="49.20212" lon="6.96782">
        <ele>308.4</ele>
        <time>2014-04-13T07:59:51Z</time>
      </trkpt>
      <trkpt lat="49.20217" lon="6.96786">
        <ele>307.9</ele>
        <time>2014-04-13T07:59:56Z</time>
      </trkpt>
      <trkpt lat="49.20222" lon="6.96789">
        <ele>308.1</ele>
        <time>2014-04-13T08:00:01Z</time>
      </trkpt>
      <trkpt lat="49.20227" lon="6.96793">
        <ele>308.2</ele>
        <time>2014-04-13T08:00:06Z</time>
      </trkpt>
      <trkpt lat="49.20237" lon="6.96799">
        <ele>307.2</ele>
        <time>2014-04-13T08:00:16Z</time>
      </trkpt>
      <trkpt lat="49.20242" lon="6.96802">
        <ele>307.3</ele>
        <time>2014-04-13T08:00:21Z</time>
      </trkpt>
      <trkpt lat="49.20248" lon="6.96805">
        <ele>307.9</ele>
        <time>2014-04-13T08:00:26Z</time>
      </trkpt>
      <trkpt lat="49.2025" lon="6.96813">
        <ele>307.9</ele>
        <time>2014-04-13T08:00:31Z</time>
      </trkpt>
      <trkpt lat="49.20251" lon="6.96822">
        <ele>308.7</ele>
        <time>2014-04-13T08:00:36Z</time>
      </trkpt>
      <trkpt lat="49.20251" lon="6.96831">
        <ele>309.4</ele>
        <time>2014-04-13T08:00:41Z</time>
      </trkpt>
      <trkpt lat="49.2025" lon="6.9684">
        <ele>310.4</ele>
        <time>2014-04-13T08:00:46Z</time>
      </trkpt>
      <trkpt lat="49.20248" lon="6.96848">
        <ele>310.5</ele>
        <time>2014-04-13T08:00:51Z</time>
      </trkpt>
      <trkpt lat="49.20247" lon="6.96857">
        <ele>310.7</ele>
        <time>2014-04-13T08:00:56Z</time>
      </trkpt>
      <trkpt lat="49.20246" lon="6.96865">
        <ele>311.2</ele>
        <time>2014-04-13T08:01:01Z</time>
      </trkpt>
      <trkpt lat="49.20244" lon="6.96873">
        <ele>312.6</ele>
        <time>2014-04-13T08:01:06Z</time>
      </trkpt>
      <trkpt lat="49.20244" lon="6.9688">
        <ele>313.2</ele>
        <time>2014-04-13T08:01:11Z</time>
      </trkpt>
      <trkpt lat="49.20244" lon="6.96891">
        <ele>314.4</ele>
        <time>2014-04-13T08:01:21Z</time>
      </trkpt>
      <trkpt lat="49.20247" lon="6.96894">
        <ele>314.5</ele>
        <time>2014-04-13T08:01:26Z</time>
      </trkpt>
      <trkpt lat="49.20248" lon="6.96896">
        <ele>314.6</ele>
        <time>2014-04-13T08:01:31Z</time>
      </trkpt>
      <trkpt lat="49.20248" lon="6.96899">
        <ele>314.7</ele>
        <time>2014-04-13T08:01:36Z</time>
      </trkpt>
      <trkpt lat="49.20248" lon="6.969">
        <ele>314.4</ele>
        <time>2014-04-13T08:01:41Z</time>
      </trkpt>
      <trkpt lat="49.20247" lon="6.96901">
        <ele>313.6</ele>
        <time>2014-04-13T08:01:46Z</time>
      </trkpt>
      <trkpt lat="49.20246" lon="6.96901">
        <ele>314.1</ele>
        <time>2014-04-13T08:01:51Z</time>
      </trkpt>
      <trkpt lat="49.20244" lon="6.96901">
        <ele>314.6</ele>
        <time>2014-04-13T08:01:56Z</time>
      </trkpt>
      <trkpt lat="49.20242" lon="6.96899">
        <ele>314.7</ele>
        <time>2014-04-13T08:02:01Z</time>
      </trkpt>
      <trkpt lat="49.2024" lon="6.96898">
        <ele>314.6</ele>
        <time>2014-04-13T08:02:06Z</time>
      </trkpt>
      <trkpt lat="49.2024" lon="6.96898">
        <ele>315.4</ele>
        <time>2014-04-13T08:02:11Z</time>
      </trkpt>
      <trkpt lat="49.2024" lon="6.96897">
        <ele>315.4</ele>
        <time>2014-04-13T08:02:16Z</time>
      </trkpt>
      <trkpt lat="49.20242" lon="6.96896">
        <ele>315.7</ele>
        <time>2014-04-13T08:02:26Z</time>
      </trkpt>
      <trkpt lat="49.20243" lon="6.96896">
        <ele>315</ele>
        <time>2014-04-13T08:02:31Z</time>
      </trkpt>
      <trkpt lat="49.20244" lon="6.96896">
        <ele>314.4</ele>
        <time>2014-04-13T08:02:36Z</time>
      </trkpt>
      <trkpt lat="49.20244" lon="6.96896">
        <ele>315</ele>
        <time>2014-04-13T08:02:41Z</time>
      </trkpt>
      <trkpt lat="49.20245" lon="6.96896">
        <ele>314.5</ele>
        <time>2014-04-13T08:02:46Z</time>
      </trkpt>
      <trkpt lat="49.20246" lon="6.96896">
        <ele>314.8</ele>
        <time>2014-04-13T08:02:51Z</time>
      </trkpt>
      <trkpt lat="49.20246" lon="6.96897">
        <ele>314.8</ele>
        <time>2014-04-13T08:02:56Z</time>
      </trkpt>
      <trkpt lat="49.20246" lon="6.96896">
        <ele>314</ele>
        <time>2014-04-13T08:03:01Z</time>
      </trkpt>
      <trkpt lat="49.20245" lon="6.96896">
        <ele>314.6</ele>
        <time>2014-04-13T08:03:06Z</time>
      </trkpt>
      <trkpt lat="49.20246" lon="6.96897">
        <ele>314.7</ele>
        <time>2014-04-13T08:03:11Z</time>
      </trkpt>
      <trkpt lat="49.20246" lon="6.96898">
        <ele>314.8</ele>
        <time>2014-04-13T08:03:16Z</time>
      </trkpt>
      <trkpt lat="49.20245" lon="6.96898">
        <ele>314.7</ele>
        <time>2014-04-13T08:03:21Z</time>
      </trkpt>
      <trkpt lat="49.20245" lon="6.96899">
        <ele>314.7</ele>
        <time>2014-04-13T08:03:31Z</time>
      </trkpt>
      <trkpt lat="49.20245" lon="6.96898">
        <ele>314.6</ele>
        <time>2014-04-13T08:03:36Z</time>
      </trkpt>
      <trkpt lat="49.20245" lon="6.96899">
        <ele>314</ele>
        <time>2014-04-13T08:03:41Z</time>
      </trkpt>
      <trkpt lat="49.20244" lon="6.969">
        <ele>314.9</ele>
        <time>2014-04-13T08:03:46Z</time>
      </trkpt>
      <trkpt lat="49.20244" lon="6.96901">
        <ele>314.6</ele>
        <time>2014-04-13T08:03:51Z</time>
      </trkpt>
      <trkpt lat="49.20244" lon="6.96901">
        <ele>314.4</ele>
        <time>2014-04-13T08:03:56Z</time>
      </trkpt>
      <trkpt lat="49.20243" lon="6.96902">
        <ele>314.4</ele>
        <time>2014-04-13T08:04:01Z</time>
      </trkpt>
      <trkpt lat="49.20243" lon="6.96902">
        <ele>314.7</ele>
        <time>2014-04-13T08:04:06Z</time>
      </trkpt>
      <trkpt lat="49.20242" lon="6.96903">
        <ele>314.5</ele>
        <time>2014-04-13T08:04:11Z</time>
      </trkpt>
      <trkpt lat="49.20241" lon="6.96903">
        <ele>314.5</ele>
        <time>2014-04-13T08:04:16Z</time>
      </trkpt>
      <trkpt lat="49.20241" lon="6.96903">
        <ele>314.8</ele>
        <time>2014-04-13T08:04:21Z</time>
      </trkpt>
      <trkpt lat="49.20242" lon="6.96904">
        <ele>315</ele>
        <time>2014-04-13T08:04:26Z</time>
      </trkpt>
      <trkpt lat="49.20243" lon="6.96904">
        <ele>314.5</ele>
        <time>2014-04-13T08:04:36Z</time>
      </trkpt>
      <trkpt lat="49.20243" lon="6.96905">
        <ele>314.9</ele>
        <time>2014-04-13T08:04:41Z</time>
      </trkpt>
      <trkpt lat="49.20242" lon="6.96904">
        <ele>314.9</ele>
        <time>2014-04-13T08:04:46Z</time>
      </trkpt>
      <trkpt lat="49.20241" lon="6.96904">
        <ele>314.7</ele>
        <time>2014-04-13T08:04:51Z</time>
      </trkpt>
      <trkpt lat="49.20241" lon="6.96904">
        <ele>314.2</ele>
        <time>2014-04-13T08:04:56Z</time>
      </trkpt>
      <trkpt lat="49.20241" lon="6.96904">
        <ele>314</ele>
        <time>2014-04-13T08:05:01Z</time>
      </trkpt>
      <trkpt lat="49.20241" lon="6.96905">
        <ele>314.7</ele>
        <time>2014-04-13T08:05:06Z</time>
      </trkpt>
      <trkpt lat="49.20242" lon="6.96905">
        <ele>314.1</ele>
        <time>2014-04-13T08:05:11Z</time>
      </trkpt>
      <trkpt lat="49.20241" lon="6.96904">
        <ele>314.4</ele>
        <time>2014-04-13T08:05:16Z</time>
      </trkpt>
      <trkpt lat="49.20241" lon="6.96903">
        <ele>314.6</ele>
        <time>2014-04-13T08:05:21Z</time>
      </trkpt>
      <trkpt lat="49.20239" lon="6.96905">
        <ele>314.3</ele>
        <time>2014-04-13T08:05:26Z</time>
      </trkpt>
      <trkpt lat="49.2024" lon="6.96911">
        <ele>314.8</ele>
        <time>2014-04-13T08:05:31Z</time>
      </trkpt>
      <trkpt lat="49.2024" lon="6.96925">
        <ele>316.3</ele>
        <time>2014-04-13T08:05:41Z</time>
      </trkpt>
      <trkpt lat="49.2024" lon="6.96929">
        <ele>315.2</ele>
        <time>2014-04-13T08:05:46Z</time>
      </trkpt>
      <trkpt lat="49.2024" lon="6.9693">
        <ele>316.1</ele>
        <time>2014-04-13T08:05:51Z</time>
      </trkpt>
      <trkpt lat="49.2024" lon="6.96929">
        <ele>315.3</ele>
        <time>2014-04-13T08:05:56Z</time>
      </trkpt>
      <trkpt lat="49.20241" lon="6.9693">
        <ele>315.4</ele>
        <time>2014-04-13T08:06:01Z</time>
      </trkpt>
      <trkpt lat="49.20241" lon="6.9693">
        <ele>315.3</ele>
        <time>2014-04-13T08:06:06Z</time>
      </trkpt>
      <trkpt lat="49.20242" lon="6.96932">
        <ele>316.3</ele>
        <time>2014-04-13T08:06:11Z</time>
      </trkpt>
      <trkpt lat="49.20245" lon="6.96934">
        <ele>316.1</ele>
        <time>2014-04-13T08:06:16Z</time>
      </trkpt>
      <trkpt lat="49.20247" lon="6.96935">
        <ele>316.1</ele>
        <time>2014-04-13T08:06:21Z</time>
      </trkpt>
      <trkpt lat="49.20251" lon="6.96937">
        <ele>315.4</ele>
        <time>2014-04-13T08:06:26Z</time>
      </trkpt>
      <trkpt lat="49.20255" lon="6.9694">
        <ele>315.7</ele>
        <time>2014-04-13T08:06:31Z</time>
      </trkpt>
      <trkpt lat="49.20259" lon="6.96943">
        <ele>316.5</ele>
        <time>2014-04-13T08:06:36Z</time>
      </trkpt>
      <trkpt lat="49.2027" lon="6.96949">
        <ele>316.5</ele>
        <time>2014-04-13T08:06:46Z</time>
      </trkpt>
      <trkpt lat="49.20276" lon="6.96953">
        <ele>316.1</ele>
        <time>2014-04-13T08:06:51Z</time>
      </trkpt>
      <trkpt lat="49.20281" lon="6.96956">
        <ele>316.3</ele>
        <time>2014-04-13T08:06:56Z</time>
      </trkpt>
      <trkpt lat="49.20287" lon="6.9696">
        <ele>316.4</ele>
        <time>2014-04-13T08:07:01Z</time>
      </trkpt>
      <trkpt lat="49.20293" lon="6.96964">
        <ele>316.1</ele>
        <time>2014-04-13T08:07:06Z</time>
      </trkpt>
      <trkpt lat="49.203" lon="6.96968">
        <ele>316.8</ele>
        <time>2014-04-13T08:07:11Z</time>
      </trkpt>
      <trkpt lat="49.20306" lon="6.96971">
        <ele>317.2</ele>
        <time>2014-04-13T08:07:16Z</time>
      </trkpt>
      <trkpt lat="49.20311" lon="6.96974">
        <ele>317.7</ele>
        <time>2014-04-13T08:07:21Z</time>
      </trkpt>
      <trkpt lat="49.20317" lon="6.96977">
        <ele>317.3</ele>
        <time>2014-04-13T08:07:26Z</time>
      </trkpt>
      <trkpt lat="49.20324" lon="6.9698">
        <ele>317.4</ele>
        <time>2014-04-13T08:07:31Z</time>
      </trkpt>
      <trkpt lat="49.2033" lon="6.96984">
        <ele>317.1</ele>
        <time>2014-04-13T08:07:36Z</time>
      </trkpt>
      <trkpt lat="49.20336" lon="6.96988">
        <ele>316.9</ele>
        <time>2014-04-13T08:07:41Z</time>
      </trkpt>
      <trkpt lat="49.2035" lon="6.96995">
        <ele>316.5</ele>
        <time>2014-04-13T08:07:51Z</time>
      </trkpt>
      <trkpt lat="49.20358" lon="6.96998">
        <ele>316.3</ele>
        <time>2014-04-13T08:07:56Z</time>
      </trkpt>
      <trkpt lat="49.20366" lon="6.97001">
        <ele>317</ele>
        <time>2014-04-13T08:08:01Z</time>
      </trkpt>
      <trkpt lat="49.20373" lon="6.97002">
        <ele>316.7</ele>
        <time>2014-04-13T08:08:06Z</time>
      </trkpt>
      <trkpt lat="49.2038" lon="6.97004">
        <ele>316.5</ele>
        <time>2014-04-13T08:08:11Z</time>
      </trkpt>
      <trkpt lat="49.20387" lon="6.97005">
        <ele>315.8</ele>
        <time>2014-04-13T08:08:16Z</time>
      </trkpt>
      <trkpt lat="49.20394" lon="6.97004">
        <ele>315.2</ele>
        <time>2014-04-13T08:08:21Z</time>
      </trkpt>
      <trkpt lat="49.20401" lon="6.97005">
        <ele>314.1</ele>
        <time>2014-04-13T08:08:26Z</time>
      </trkpt>
      <trkpt lat="49.20408" lon="6.97006">
        <ele>313.4</ele>
        <time>2014-04-13T08:08:31Z</time>
      </trkpt>
      <trkpt lat="49.20416" lon="6.97006">
        <ele>312.8</ele>
        <time>2014-04-13T08:08:36Z</time>
      </trkpt>
      <trkpt lat="49.20422" lon="6.97006">
        <ele>312</ele>
        <time>2014-04-13T08:08:41Z</time>
      </trkpt>
      <trkpt lat="49.20429" lon="6.97007">
        <ele>310.9</ele>
        <time>2014-04-13T08:08:46Z</time>
      </trkpt>
      <trkpt lat="49.2044" lon="6.9701">
        <ele>309.6</ele>
        <time>2014-04-13T08:08:56Z</time>
      </trkpt>
      <trkpt lat="49.20446" lon="6.97012">
        <ele>309.7</ele>
        <time>2014-04-13T08:09:01Z</time>
      </trkpt>
      <trkpt lat="49.20452" lon="6.97013">
        <ele>309.2</ele>
        <time>2014-04-13T08:09:06Z</time>
      </trkpt>
      <trkpt lat="49.20458" lon="6.97011">
        <ele>308.4</ele>
        <time>2014-04-13T08:09:11Z</time>
      </trkpt>
      <trkpt lat="49.20464" lon="6.97008">
        <ele>308.3</ele>
        <time>2014-04-13T08:09:16Z</time>
      </trkpt>
      <trkpt lat="49.2047" lon="6.97006">
        <ele>308.4</ele>
        <time>2014-04-13T08:09:21Z</time>
      </trkpt>
      <trkpt lat="49.20475" lon="6.97001">
        <ele>308</ele>
        <time>2014-04-13T08:09:26Z</time>
      </trkpt>
      <trkpt lat="49.2048" lon="6.96997">
        <ele>307.8</ele>
        <time>2014-04-13T08:09:31Z</time>
      </trkpt>
      <trkpt lat="49.20485" lon="6.96993">
        <ele>306.9</ele>
        <time>2014-04-13T08:09:36Z</time>
      </trkpt>
      <trkpt lat="49.20488" lon="6.9699">
        <ele>306.5</ele>
        <time>2014-04-13T08:09:41Z</time>
      </trkpt>
      <trkpt lat="49.2049" lon="6.96987">
        <ele>306.3</ele>
        <time>2014-04-13T08:09:46Z</time>
      </trkpt>
      <trkpt lat="49.20493" lon="6.96984">
        <ele>306</ele>
        <time>2014-04-13T08:09:51Z</time>
      </trkpt>
      <trkpt lat="49.20498" lon="6.96975">
        <ele>305</ele>
        <time>2014-04-13T08:10:01Z</time>
      </trkpt>
      <trkpt lat="49.20501" lon="6.96972">
        <ele>304.5</ele>
        <time>2014-04-13T08:10:06Z</time>
      </trkpt>
      <trkpt lat="49.20503" lon="6.96971">
        <ele>303.2</ele>
        <time>2014-04-13T08:10:11Z</time>
      </trkpt>
      <trkpt lat="49.20505" lon="6.96972">
        <ele>302.9</ele>
        <time>2014-04-13T08:10:16Z</time>
      </trkpt>
      <trkpt lat="49.20506" lon="6.96972">
        <ele>303.4</ele>
        <time>2014-04-13T08:10:21Z</time>
      </trkpt>
      <trkpt lat="49.20507" lon="6.96972">
        <ele>303.7</ele>
        <time>2014-04-13T08:10:26Z</time>
      </trkpt>
      <trkpt lat="49.20509" lon="6.96972">
        <ele>302.9</ele>
        <time>2014-04-13T08:10:31Z</time>
      </trkpt>
      <trkpt lat="49.2051" lon="6.96973">
        <ele>303.5</ele>
        <time>2014-04-13T08:10:36Z</time>
      </trkpt>
      <trkpt lat="49.2051" lon="6.96973">
        <ele>303.6</ele>
        <time>2014-04-13T08:10:41Z</time>
      </trkpt>
      <trkpt lat="49.2051" lon="6.96972">
        <ele>303.7</ele>
        <time>2014-04-13T08:10:46Z</time>
      </trkpt>
      <trkpt lat="49.2051" lon="6.96971">
        <ele>303.5</ele>
        <time>2014-04-13T08:10:51Z</time>
      </trkpt>
      <trkpt lat="49.20511" lon="6.96971">
        <ele>304.1</ele>
        <time>2014-04-13T08:10:56Z</time>
      </trkpt>
      <trkpt lat="49.20511" lon="6.96969">
        <ele>303.5</ele>
        <time>2014-04-13T08:11:06Z</time>
      </trkpt>
      <trkpt lat="49.20511" lon="6.96968">
        <ele>303.4</ele>
        <time>2014-04-13T08:11:11Z</time>
      </trkpt>
      <trkpt lat="49.20511" lon="6.96969">
        <ele>302.8</ele>
        <time>2014-04-13T08:11:16Z</time>
      </trkpt>
      <trkpt lat="49.2051" lon="6.9697">
        <ele>302.9</ele>
        <time>2014-04-13T08:11:21Z</time>
      </trkpt>
      <trkpt lat="49.20509" lon="6.96971">
        <ele>303.7</ele>
        <time>2014-04-13T08:11:26Z</time>
      </trkpt>
      <trkpt lat="49.20509" lon="6.9697">
        <ele>303.4</ele>
        <time>2014-04-13T08:11:31Z</time>
      </trkpt>
      <trkpt lat="49.20508" lon="6.9697">
        <ele>302.9</ele>
        <time>2014-04-13T08:11:36Z</time>
      </trkpt>
      <trkpt lat="49.20508" lon="6.96969">
        <ele>303</ele>
        <time>2014-04-13T08:11:41Z</time>
      </trkpt>
      <trkpt lat="49.20507" lon="6.96968">
        <ele>302.5</ele>
        <time>2014-04-13T08:11:46Z</time>
      </trkpt>
      <trkpt lat="49.20507" lon="6.96967">
        <ele>302.7</ele>
        <time>2014-04-13T08:11:51Z</time>
      </trkpt>
      <trkpt lat="49.20507" lon="6.96967">
        <ele>303.1</ele>
        <time>2014-04-13T08:11:56Z</time>
      </trkpt>
      <trkpt lat="49.20506" lon="6.96966">
        <ele>303.3</ele>
        <time>2014-04-13T08:12:01Z</time>
      </trkpt>
      <trkpt lat="49.20506" lon="6.96964">
        <ele>302.6</ele>
        <time>2014-04-13T08:12:11Z</time>
      </trkpt>
      <trkpt lat="49.20506" lon="6.96964">
        <ele>302.7</ele>
        <time>2014-04-13T08:12:16Z</time>
      </trkpt>
      <trkpt lat="49.20507" lon="6.96964">
        <ele>303.5</ele>
        <time>2014-04-13T08:12:21Z</time>
      </trkpt>
      <trkpt lat="49.20507" lon="6.96964">
        <ele>303.4</ele>
        <time>2014-04-13T08:12:26Z</time>
      </trkpt>
      <trkpt lat="49.20507" lon="6.96963">
        <ele>302.8</ele>
        <time>2014-04-13T08:12:31Z</time>
      </trkpt>
      <trkpt lat="49.2051" lon="6.96966">
        <ele>302.6</ele>
        <time>2014-04-13T08:12:36Z</time>
      </trkpt>
      <trkpt lat="49.20513" lon="6.96971">
        <ele>302.5</ele>
        <time>2014-04-13T08:12:41Z</time>
      </trkpt>
      <trkpt lat="49.20516" lon="6.96975">
        <ele>301</ele>
        <time>2014-04-13T08:12:46Z</time>
      </trkpt>
      <trkpt lat="49.20521" lon="6.9698">
        <ele>301.3</ele>
        <time>2014-04-13T08:12:51Z</time>
      </trkpt>
      <trkpt lat="49.20524" lon="6.96984">
        <ele>300.5</ele>
        <time>2014-04-13T08:12:56Z</time>
      </trkpt>
      <trkpt lat="49.20528" lon="6.96989">
        <ele>300.2</ele>
        <time>2014-04-13T08:13:01Z</time>
      </trkpt>
      <trkpt lat="49.20535" lon="6.96992">
        <ele>298.6</ele>
        <time>2014-04-13T08:13:06Z</time>
      </trkpt>
      <trkpt lat="49.20547" lon="6.96995">
        <ele>298.1</ele>
        <time>2014-04-13T08:13:16Z</time>
      </trkpt>
      <trkpt lat="49.20553" lon="6.96996">
        <ele>297</ele>
        <time>2014-04-13T08:13:21Z</time>
      </trkpt>
      <trkpt lat="49.20559" lon="6.96998">
        <ele>297.1</ele>
        <time>2014-04-13T08:13:26Z</time>
      </trkpt>
      <trkpt lat="49.20565" lon="6.97">
        <ele>295.9</ele>
        <time>2014-04-13T08:13:31Z</time>
      </trkpt>
      <trkpt lat="49.20569" lon="6.97004">
        <ele>295.8</ele>
        <time>2014-04-13T08:13:36Z</time>
      </trkpt>
      <trkpt lat="49.20574" lon="6.97008">
        <ele>294.6</ele>
        <time>2014-04-13T08:13:41Z</time>
      </trkpt>
      <trkpt lat="49.20581" lon="6.97012">
        <ele>293.8</ele>
        <time>2014-04-13T08:13:46Z</time>
      </trkpt>
      <trkpt lat="49.20586" lon="6.97017">
        <ele>293</ele>
        <time>2014-04-13T08:13:51Z</time>
      </trkpt>
      <trkpt lat="49.20592" lon="6.97022">
        <ele>292.4</ele>
        <time>2014-04-13T08:13:56Z</time>
      </trkpt>
      <trkpt lat="49.20598" lon="6.97027">
        <ele>291.2</ele>
        <time>2014-04-13T08:14:01Z</time>
      </trkpt>
      <trkpt lat="49.20604" lon="6.97034">
        <ele>290.5</ele>
        <time>2014-04-13T08:14:06Z</time>
      </trkpt>
      <trkpt lat="49.20612" lon="6.9704">
        <ele>289.6</ele>
        <time>2014-04-13T08:14:11Z</time>
      </trkpt>
      <trkpt lat="49.20622" lon="6.9705">
        <ele>288.5</ele>
        <time>2014-04-13T08:14:21Z</time>
      </trkpt>
      <trkpt lat="49.20627" lon="6.97057">
        <ele>287.6</ele>
        <time>2014-04-13T08:14:26Z</time>
      </trkpt>
      <trkpt lat="49.20632" lon="6.97064">
        <ele>286.4</ele>
        <time>2014-04-13T08:14:31Z</time>
      </trkpt>
      <trkpt lat="49.20638" lon="6.97071">
        <ele>285.3</ele>
        <time>2014-04-13T08:14:36Z</time>
      </trkpt>
      <trkpt lat="49.20645" lon="6.97078">
        <ele>284.2</ele>
        <time>2014-04-13T08:14:41Z</time>
      </trkpt>
      <trkpt lat="49.20652" lon="6.97085">
        <ele>282.2</ele>
        <time>2014-04-13T08:14:46Z</time>
      </trkpt>
      <trkpt lat="49.20659" lon="6.9709">
        <ele>282.4</ele>
        <time>2014-04-13T08:14:51Z</time>
      </trkpt>
      <trkpt lat="49.20666" lon="6.97096">
        <ele>281.7</ele>
        <time>2014-04-13T08:14:56Z</time>
      </trkpt>
      <trkpt lat="49.20671" lon="6.97104">
        <ele>281.5</ele>
        <time>2014-04-13T08:15:01Z</time>
      </trkpt>
      <trkpt lat="49.20677" lon="6.97112">
        <ele>281.4</ele>
        <time>2014-04-13T08:15:06Z</time>
      </trkpt>
      <trkpt lat="49.20683" lon="6.9712">
        <ele>281.8</ele>
        <time>2014-04-13T08:15:11Z</time>
      </trkpt>
      <trkpt lat="49.20688" lon="6.97128">
        <ele>280.9</ele>
        <time>2014-04-13T08:15:16Z</time>
      </trkpt>
      <trkpt lat="49.20698" lon="6.97145">
        <ele>281.4</ele>
        <time>2014-04-13T08:15:26Z</time>
      </trkpt>
      <trkpt lat="49.20704" lon="6.97152">
        <ele>280.8</ele>
        <time>2014-04-13T08:15:31Z</time>
      </trkpt>
      <trkpt lat="49.20708" lon="6.9716">
        <ele>280.3</ele>
        <time>2014-04-13T08:15:36Z</time>
      </trkpt>
      <trkpt lat="49.20714" lon="6.97168">
        <ele>280.8</ele>
        <time>2014-04-13T08:15:41Z</time>
      </trkpt>
      <trkpt lat="49.20719" lon="6.97176">
        <ele>280.4</ele>
        <time>2014-04-13T08:15:46Z</time>
      </trkpt>
      <trkpt lat="49.20724" lon="6.97184">
        <ele>280.6</ele>
        <time>2014-04-13T08:15:51Z</time>
      </trkpt>
      <trkpt lat="49.2073" lon="6.97191">
        <ele>280.1</ele>
        <time>2014-04-13T08:15:56Z</time>
      </trkpt>
      <trkpt lat="49.20736" lon="6.97199">
        <ele>279.3</ele>
        <time>2014-04-13T08:16:01Z</time>
      </trkpt>
      <trkpt lat="49.20741" lon="6.97207">
        <ele>278.7</ele>
        <time>2014-04-13T08:16:06Z</time>
      </trkpt>
      <trkpt lat="49.20745" lon="6.97214">
        <ele>278.2</ele>
        <time>2014-04-13T08:16:11Z</time>
      </trkpt>
      <trkpt lat="49.2075" lon="6.97222">
        <ele>278</ele>
        <time>2014-04-13T08:16:16Z</time>
      </trkpt>
      <trkpt lat="49.20754" lon="6.97229">
        <ele>277.4</ele>
        <time>2014-04-13T08:16:21Z</time>
      </trkpt>
      <trkpt lat="49.20763" lon="6.97243">
        <ele>275.9</ele>
        <time>2014-04-13T08:16:31Z</time>
      </trkpt>
      <trkpt lat="49.20766" lon="6.9725">
        <ele>275.5</ele>
        <time>2014-04-13T08:16:36Z</time>
      </trkpt>
      <trkpt lat="49.20769" lon="6.97257">
        <ele>273.7</ele>
        <time>2014-04-13T08:16:41Z</time>
      </trkpt>
      <trkpt lat="49.20773" lon="6.97263">
        <ele>272.8</ele>
        <time>2014-04-13T08:16:46Z</time>
      </trkpt>
      <trkpt lat="49.20777" lon="6.9727">
        <ele>271.3</ele>
        <time>2014-04-13T08:16:51Z</time>
      </trkpt>
      <trkpt lat="49.2078" lon="6.97276">
        <ele>270.5</ele>
        <time>2014-04-13T08:16:56Z</time>
      </trkpt>
      <trkpt lat="49.20784" lon="6.9728">
        <ele>270.5</ele>
        <time>2014-04-13T08:17:01Z</time>
      </trkpt>
      <trkpt lat="49.20786" lon="6.97282">
        <ele>270.7</ele>
        <time>2014-04-13T08:17:06Z</time>
      </trkpt>
      <trkpt lat="49.20787" lon="6.97285">
        <ele>270</ele>
        <time>2014-04-13T08:17:11Z</time>
      </trkpt>
      <trkpt lat="49.20786" lon="6.97287">
        <ele>269.2</ele>
        <time>2014-04-13T08:17:16Z</time>
      </trkpt>
      <trkpt lat="49.20782" lon="6.97291">
        <ele>269.2</ele>
        <time>2014-04-13T08:17:21Z</time>
      </trkpt>
      <trkpt lat="49.20783" lon="6.97292">
        <ele>270</ele>
        <time>2014-04-13T08:17:26Z</time>
      </trkpt>
      <trkpt lat="49.2079" lon="6.9729">
        <ele>269.1</ele>
        <time>2014-04-13T08:17:36Z</time>
      </trkpt>
      <trkpt lat="49.20794" lon="6.97286">
        <ele>269.2</ele>
        <time>2014-04-13T08:17:41Z</time>
      </trkpt>
      <trkpt lat="49.20797" lon="6.9728">
        <ele>270.4</ele>
        <time>2014-04-13T08:17:46Z</time>
      </trkpt>
      <trkpt lat="49.20801" lon="6.97273">
        <ele>271.2</ele>
        <time>2014-04-13T08:17:51Z</time>
      </trkpt>
      <trkpt lat="49.20805" lon="6.97265">
        <ele>271.6</ele>
        <time>2014-04-13T08:17:56Z</time>
      </trkpt>
      <trkpt lat="49.20808" lon="6.97257">
        <ele>271.2</ele>
        <time>2014-04-13T08:18:01Z</time>
      </trkpt>
      <trkpt lat="49.20812" lon="6.97251">
        <ele>271.3</ele>
        <time>2014-04-13T08:18:06Z</time>
      </trkpt>
      <trkpt lat="49.20816" lon="6.97245">
        <ele>271.3</ele>
        <time>2014-04-13T08:18:11Z</time>
      </trkpt>
      <trkpt lat="49.20818" lon="6.97243">
        <ele>271</ele>
        <time>2014-04-13T08:18:16Z</time>
      </trkpt>
      <trkpt lat="49.2082" lon="6.97242">
        <ele>271.5</ele>
        <time>2014-04-13T08:18:21Z</time>
      </trkpt>
      <trkpt lat="49.20822" lon="6.97243">
        <ele>270.8</ele>
        <time>2014-04-13T08:18:26Z</time>
      </trkpt>
      <trkpt lat="49.20825" lon="6.97244">
        <ele>269.4</ele>
        <time>2014-04-13T08:18:31Z</time>
      </trkpt>
      <trkpt lat="49.2083" lon="6.97242">
        <ele>267</ele>
        <time>2014-04-13T08:18:41Z</time>
      </trkpt>
      <trkpt lat="49.20833" lon="6.97241">
        <ele>266.8</ele>
        <time>2014-04-13T08:18:46Z</time>
      </trkpt>
      <trkpt lat="49.20835" lon="6.9724">
        <ele>265.4</ele>
        <time>2014-04-13T08:18:51Z</time>
      </trkpt>
      <trkpt lat="49.20837" lon="6.9724">
        <ele>262.9</ele>
        <time>2014-04-13T08:18:56Z</time>
      </trkpt>
      <trkpt lat="49.20841" lon="6.97242">
        <ele>261.4</ele>
        <time>2014-04-13T08:19:01Z</time>
      </trkpt>
      <trkpt lat="49.20844" lon="6.97244">
        <ele>259.2</ele>
        <time>2014-04-13T08:19:06Z</time>
      </trkpt>
      <trkpt lat="49.20847" lon="6.97246">
        <ele>257.2</ele>
        <time>2014-04-13T08:19:11Z</time>
      </trkpt>
      <trkpt lat="49.20851" lon="6.97246">
        <ele>256.2</ele>
        <time>2014-04-13T08:19:16Z</time>
      </trkpt>
      <trkpt lat="49.20856" lon="6.97247">
        <ele>254.7</ele>
        <time>2014-04-13T08:19:21Z</time>
      </trkpt>
      <trkpt lat="49.2086" lon="6.97248">
        <ele>253.1</ele>
        <time>2014-04-13T08:19:26Z</time>
      </trkpt>
      <trkpt lat="49.20863" lon="6.97248">
        <ele>252</ele>
        <time>2014-04-13T08:19:31Z</time>
      </trkpt>
      <trkpt lat="49.20868" lon="6.97251">
        <ele>249.9</ele>
        <time>2014-04-13T08:19:36Z</time>
      </trkpt>
      <trkpt lat="49.20874" lon="6.97256">
        <ele>247.1</ele>
        <time>2014-04-13T08:19:46Z</time>
      </trkpt>
      <trkpt lat="49.20877" lon="6.97258">
        <ele>244.8</ele>
        <time>2014-04-13T08:19:51Z</time>
      </trkpt>
      <trkpt lat="49.2088" lon="6.97259">
        <ele>243.2</ele>
        <time>2014-04-13T08:19:56Z</time>
      </trkpt>
      <trkpt lat="49.20884" lon="6.97261">
        <ele>241.6</ele>
        <time>2014-04-13T08:20:01Z</time>
      </trkpt>
      <trkpt lat="49.20889" lon="6.97262">
        <ele>240.1</ele>
        <time>2014-04-13T08:20:06Z</time>
      </trkpt>
      <trkpt lat="49.20893" lon="6.97266">
        <ele>238.5</ele>
        <time>2014-04-13T08:20:11Z</time>
      </trkpt>
      <trkpt lat="49.20896" lon="6.97271">
        <ele>237.3</ele>
        <time>2014-04-13T08:20:16Z</time>
      </trkpt>
      <trkpt lat="49.20898" lon="6.97274">
        <ele>236.4</ele>
        <time>2014-04-13T08:20:21Z</time>
      </trkpt>
      <trkpt lat="49.20901" lon="6.97275">
        <ele>236</ele>
        <time>2014-04-13T08:20:26Z</time>
      </trkpt>
      <trkpt lat="49.20903" lon="6.97277">
        <ele>236.8</ele>
        <time>2014-04-13T08:20:31Z</time>
      </trkpt>
      <trkpt lat="49.20905" lon="6.97278">
        <ele>236.3</ele>
        <time>2014-04-13T08:20:36Z</time>
      </trkpt>
      <trkpt lat="49.20905" lon="6.9728">
        <ele>236.2</ele>
        <time>2014-04-13T08:20:41Z</time>
      </trkpt>
      <trkpt lat="49.20907" lon="6.97284">
        <ele>236.9</ele>
        <time>2014-04-13T08:20:51Z</time>
      </trkpt>
      <trkpt lat="49.20908" lon="6.97285">
        <ele>237.1</ele>
        <time>2014-04-13T08:20:56Z</time>
      </trkpt>
      <trkpt lat="49.20908" lon="6.97286">
        <ele>236.4</ele>
        <time>2014-04-13T08:21:01Z</time>
      </trkpt>
      <trkpt lat="49.20908" lon="6.97289">
        <ele>236.8</ele>
        <time>2014-04-13T08:21:06Z</time>
      </trkpt>
      <trkpt lat="49.20907" lon="6.9729">
        <ele>237.4</ele>
        <time>2014-04-13T08:21:11Z</time>
      </trkpt>
      <trkpt lat="49.20907" lon="6.97291">
        <ele>237.1</ele>
        <time>2014-04-13T08:21:16Z</time>
      </trkpt>
      <trkpt lat="49.20906" lon="6.97297">
        <ele>237</ele>
        <time>2014-04-13T08:21:21Z</time>
      </trkpt>
      <trkpt lat="49.20903" lon="6.97302">
        <ele>236.6</ele>
        <time>2014-04-13T08:21:26Z</time>
      </trkpt>
      <trkpt lat="49.209" lon="6.97308">
        <ele>236.2</ele>
        <time>2014-04-13T08:21:31Z</time>
      </trkpt>
      <trkpt lat="49.20897" lon="6.97315">
        <ele>235.8</ele>
        <time>2014-04-13T08:21:36Z</time>
      </trkpt>
      <trkpt lat="49.20894" lon="6.97326">
        <ele>235</ele>
        <time>2014-04-13T08:21:41Z</time>
      </trkpt>
      <trkpt lat="49.20889" lon="6.97338">
        <ele>234.2</ele>
        <time>2014-04-13T08:21:46Z</time>
      </trkpt>
      <trkpt lat="49.2088" lon="6.97359">
        <ele>232.5</ele>
        <time>2014-04-13T08:21:56Z</time>
      </trkpt>
      <trkpt lat="49.20876" lon="6.9737">
        <ele>231.3</ele>
        <time>2014-04-13T08:22:01Z</time>
      </trkpt>
      <trkpt lat="49.20871" lon="6.97379">
        <ele>231.1</ele>
        <time>2014-04-13T08:22:06Z</time>
      </trkpt>
      <trkpt lat="49.20868" lon="6.97387">
        <ele>230.1</ele>
        <time>2014-04-13T08:22:11Z</time>
      </trkpt>
      <trkpt lat="49.20867" lon="6.97393">
        <ele>229.7</ele>
        <time>2014-04-13T08:22:16Z</time>
      </trkpt>
      <trkpt lat="49.20868" lon="6.97401">
        <ele>228.9</ele>
        <time>2014-04-13T08:22:21Z</time>
      </trkpt>
      <trkpt lat="49.20872" lon="6.97406">
        <ele>228.1</ele>
        <time>2014-04-13T08:22:26Z</time>
      </trkpt>
      <trkpt lat="49.20876" lon="6.97411">
        <ele>227.6</ele>
        <time>2014-04-13T08:22:31Z</time>
      </trkpt>
      <trkpt lat="49.2088" lon="6.97417">
        <ele>226.3</ele>
        <time>2014-04-13T08:22:36Z</time>
      </trkpt>
      <trkpt lat="49.20885" lon="6.97421">
        <ele>225.5</ele>
        <time>2014-04-13T08:22:41Z</time>
      </trkpt>
      <trkpt lat="49.2089" lon="6.97427">
        <ele>226.1</ele>
        <time>2014-04-13T08:22:46Z</time>
      </trkpt>
      <trkpt lat="49.20896" lon="6.97431">
        <ele>224.5</ele>
        <time>2014-04-13T08:22:51Z</time>
      </trkpt>
      <trkpt lat="49.20908" lon="6.97441">
        <ele>223.7</ele>
        <time>2014-04-13T08:23:01Z</time>
      </trkpt>
      <trkpt lat="49.20914" lon="6.97446">
        <ele>223.6</ele>
        <time>2014-04-13T08:23:06Z</time>
      </trkpt>
      <trkpt lat="49.2092" lon="6.9745">
        <ele>222.5</ele>
        <time>2014-04-13T08:23:11Z</time>
      </trkpt>
      <trkpt lat="49.20926" lon="6.97453">
        <ele>222.1</ele>
        <time>2014-04-13T08:23:16Z</time>
      </trkpt>
      <trkpt lat="49.20932" lon="6.97456">
        <ele>221.8</ele>
        <time>2014-04-13T08:23:21Z</time>
      </trkpt>
      <trkpt lat="49.20937" lon="6.97461">
        <ele>221.7</ele>
        <time>2014-04-13T08:23:26Z</time>
      </trkpt>
      <trkpt lat="49.20943" lon="6.97465">
        <ele>221.8</ele>
        <time>2014-04-13T08:23:31Z</time>
      </trkpt>
      <trkpt lat="49.20949" lon="6.97469">
        <ele>221.4</ele>
        <time>2014-04-13T08:23:36Z</time>
      </trkpt>
      <trkpt lat="49.20954" lon="6.97475">
        <ele>220.9</ele>
        <time>2014-04-13T08:23:41Z</time>
      </trkpt>
      <trkpt lat="49.20958" lon="6.97482">
        <ele>219.8</ele>
        <time>2014-04-13T08:23:46Z</time>
      </trkpt>
      <trkpt lat="49.20961" lon="6.97491">
        <ele>220.6</ele>
        <time>2014-04-13T08:23:51Z</time>
      </trkpt>
      <trkpt lat="49.20962" lon="6.97499">
        <ele>220.4</ele>
        <time>2014-04-13T08:23:56Z</time>
      </trkpt>
      <trkpt lat="49.20963" lon="6.97514">
        <ele>220.5</ele>
        <time>2014-04-13T08:24:06Z</time>
      </trkpt>
      <trkpt lat="49.20963" lon="6.97521">
        <ele>219.5</ele>
        <time>2014-04-13T08:24:11Z</time>
      </trkpt>
      <trkpt lat="49.20962" lon="6.97528">
        <ele>219.5</ele>
        <time>2014-04-13T08:24:16Z</time>
      </trkpt>
      <trkpt lat="49.2096" lon="6.97536">
        <ele>219.3</ele>
        <time>2014-04-13T08:24:21Z</time>
      </trkpt>
      <trkpt lat="49.20958" lon="6.97542">
        <ele>219.4</ele>
        <time>2014-04-13T08:24:26Z</time>
      </trkpt>
      <trkpt lat="49.20955" lon="6.97551">
        <ele>219.3</ele>
        <time>2014-04-13T08:24:31Z</time>
      </trkpt>
      <trkpt lat="49.20953" lon="6.9756">
        <ele>218.7</ele>
        <time>2014-04-13T08:24:36Z</time>
      </trkpt>
      <trkpt lat="49.2095" lon="6.97569">
        <ele>218.5</ele>
        <time>2014-04-13T08:24:41Z</time>
      </trkpt>
      <trkpt lat="49.20947" lon="6.97576">
        <ele>218.1</ele>
        <time>2014-04-13T08:24:46Z</time>
      </trkpt>
      <trkpt lat="49.20943" lon="6.97584">
        <ele>217.7</ele>
        <time>2014-04-13T08:24:51Z</time>
      </trkpt>
      <trkpt lat="49.2094" lon="6.97594">
        <ele>217.8</ele>
        <time>2014-04-13T08:24:56Z</time>
      </trkpt>
      <trkpt lat="49.20936" lon="6.97604">
        <ele>218.2</ele>
        <time>2014-04-13T08:25:01Z</time>
      </trkpt>
      <trkpt lat="49.20928" lon="6.9762">
        <ele>217.3</ele>
        <time>2014-04-13T08:25:11Z</time>
      </trkpt>
      <trkpt lat="49.20925" lon="6.9763">
        <ele>216.3</ele>
        <time>2014-04-13T08:25:16Z</time>
      </trkpt>
      <trkpt lat="49.2092" lon="6.9764">
        <ele>216.2</ele>
        <time>2014-04-13T08:25:21Z</time>
      </trkpt>
      <trkpt lat="49.20916" lon="6.9765">
        <ele>216.1</ele>
        <time>2014-04-13T08:25:26Z</time>
      </trkpt>
      <trkpt lat="49.20913" lon="6.97659">
        <ele>215.9</ele>
        <time>2014-04-13T08:25:31Z</time>
      </trkpt>
      <trkpt lat="49.20912" lon="6.97663">
        <ele>215.3</ele>
        <time>2014-04-13T08:25:36Z</time>
      </trkpt>
      <trkpt lat="49.2091" lon="6.97668">
        <ele>215</ele>
        <time>2014-04-13T08:25:41Z</time>
      </trkpt>
      <trkpt lat="49.20906" lon="6.97675">
        <ele>215.6</ele>
        <time>2014-04-13T08:25:46Z</time>
      </trkpt>
      <trkpt lat="49.20902" lon="6.97683">
        <ele>215</ele>
        <time>2014-04-13T08:25:51Z</time>
      </trkpt>
      <trkpt lat="49.20899" lon="6.97691">
        <ele>214.3</ele>
        <time>2014-04-13T08:25:56Z</time>
      </trkpt>
      <trkpt lat="49.20894" lon="6.97699">
        <ele>214.1</ele>
        <time>2014-04-13T08:26:01Z</time>
      </trkpt>
      <trkpt lat="49.2089" lon="6.97708">
        <ele>214</ele>
        <time>2014-04-13T08:26:06Z</time>
      </trkpt>
      <trkpt lat="49.20882" lon="6.97724">
        <ele>212.9</ele>
        <time>2014-04-13T08:26:16Z</time>
      </trkpt>
      <trkpt lat="49.20878" lon="6.97731">
        <ele>212.1</ele>
        <time>2014-04-13T08:26:21Z</time>
      </trkpt>
      <trkpt lat="49.20874" lon="6.97739">
        <ele>212.5</ele>
        <time>2014-04-13T08:26:26Z</time>
      </trkpt>
      <trkpt lat="49.20869" lon="6.97747">
        <ele>211.8</ele>
        <time>2014-04-13T08:26:31Z</time>
      </trkpt>
      <trkpt lat="49.20865" lon="6.97757">
        <ele>211.4</ele>
        <time>2014-04-13T08:26:36Z</time>
      </trkpt>
      <trkpt lat="49.20863" lon="6.97769">
        <ele>211.3</ele>
        <time>2014-04-13T08:26:41Z</time>
      </trkpt>
      <trkpt lat="49.20862" lon="6.97781">
        <ele>211</ele>
        <time>2014-04-13T08:26:46Z</time>
      </trkpt>
      <trkpt lat="49.20861" lon="6.97794">
        <ele>209.9</ele>
        <time>2014-04-13T08:26:51Z</time>
      </trkpt>
      <trkpt lat="49.2086" lon="6.97807">
        <ele>209.8</ele>
        <time>2014-04-13T08:26:56Z</time>
      </trkpt>
      <trkpt lat="49.20859" lon="6.9782">
        <ele>209.4</ele>
        <time>2014-04-13T08:27:01Z</time>
      </trkpt>
      <trkpt lat="49.2086" lon="6.97832">
        <ele>209.9</ele>
        <time>2014-04-13T08:27:06Z</time>
      </trkpt>
      <trkpt lat="49.20861" lon="6.97842">
        <ele>209.5</ele>
        <time>2014-04-13T08:27:11Z</time>
      </trkpt>
      <trkpt lat="49.20864" lon="6.97864">
        <ele>208.4</ele>
        <time>2014-04-13T08:27:21Z</time>
      </trkpt>
      <trkpt lat="49.20867" lon="6.97875">
        <ele>208.6</ele>
        <time>2014-04-13T08:27:26Z</time>
      </trkpt>
      <trkpt lat="49.20869" lon="6.97887">
        <ele>208</ele>
        <time>2014-04-13T08:27:31Z</time>
      </trkpt>
      <trkpt lat="49.20872" lon="6.97898">
        <ele>208</ele>
        <time>2014-04-13T08:27:36Z</time>
      </trkpt>
      <trkpt lat="49.20873" lon="6.9791">
        <ele>207.2</ele>
        <time>2014-04-13T08:27:41Z</time>
      </trkpt>
      <trkpt lat="49.20874" lon="6.97921">
        <ele>207.9</ele>
        <time>2014-04-13T08:27:46Z</time>
      </trkpt>
      <trkpt lat="49.20875" lon="6.97933">
        <ele>207.4</ele>
        <time>2014-04-13T08:27:51Z</time>
      </trkpt>
      <trkpt lat="49.20876" lon="6.97942">
        <ele>207</ele>
        <time>2014-04-13T08:27:56Z</time>
      </trkpt>
      <trkpt lat="49.20878" lon="6.97954">
        <ele>206.6</ele>
        <time>2014-04-13T08:28:01Z</time>
      </trkpt>
      <trkpt lat="49.20878" lon="6.97965">
        <ele>205.8</ele>
        <time>2014-04-13T08:28:06Z</time>
      </trkpt>
      <trkpt lat="49.20879" lon="6.97975">
        <ele>206.6</ele>
        <time>2014-04-13T08:28:11Z</time>
      </trkpt>
      <trkpt lat="49.20881" lon="6.97985">
        <ele>207</ele>
        <time>2014-04-13T08:28:16Z</time>
      </trkpt>
      <trkpt lat="49.20882" lon="6.98006">
        <ele>206.4</ele>
        <time>2014-04-13T08:28:26Z</time>
      </trkpt>
      <trkpt lat="49.20883" lon="6.98017">
        <ele>205.6</ele>
        <time>2014-04-13T08:28:31Z</time>
      </trkpt>
      <trkpt lat="49.20885" lon="6.98027">
        <ele>205.5</ele>
        <time>2014-04-13T08:28:36Z</time>
      </trkpt>
      <trkpt lat="49.20887" lon="6.98035">
        <ele>205.8</ele>
        <time>2014-04-13T08:28:41Z</time>
      </trkpt>
      <trkpt lat="49.2089" lon="6.98038">
        <ele>205.5</ele>
        <time>2014-04-13T08:28:46Z</time>
      </trkpt>
      <trkpt lat="49.20893" lon="6.98043">
        <ele>205.1</ele>
        <time>2014-04-13T08:28:51Z</time>
      </trkpt>
      <trkpt lat="49.20895" lon="6.98047">
        <ele>205.8</ele>
        <time>2014-04-13T08:28:56Z</time>
      </trkpt>
      <trkpt lat="49.20897" lon="6.98051">
        <ele>205</ele>
        <time>2014-04-13T08:29:01Z</time>
      </trkpt>
      <trkpt lat="49.209" lon="6.98059">
        <ele>204.8</ele>
        <time>2014-04-13T08:29:06Z</time>
      </trkpt>
      <trkpt lat="49.20902" lon="6.98066">
        <ele>205.3</ele>
        <time>2014-04-13T08:29:11Z</time>
      </trkpt>
      <trkpt lat="49.20903" lon="6.98076">
        <ele>205.4</ele>
        <time>2014-04-13T08:29:16Z</time>
      </trkpt>
      <trkpt lat="49.20905" lon="6.98084">
        <ele>205.4</ele>
        <time>2014-04-13T08:29:21Z</time>
      </trkpt>
      <trkpt lat="49.20912" lon="6.98102">
        <ele>204.3</ele>
        <time>2014-04-13T08:29:31Z</time>
      </trkpt>
      <trkpt lat="49.20915" lon="6.9811">
        <ele>204</ele>
        <time>2014-04-13T08:29:36Z</time>
      </trkpt>
      <trkpt lat="49.20918" lon="6.98118">
        <ele>204.6</ele>
        <time>2014-04-13T08:29:41Z</time>
      </trkpt>
      <trkpt lat="49.20922" lon="6.98124">
        <ele>204.5</ele>
        <time>2014-04-13T08:29:46Z</time>
      </trkpt>
      <trkpt lat="49.20925" lon="6.98131">
        <ele>204.7</ele>
        <time>2014-04-13T08:29:51Z</time>
      </trkpt>
      <trkpt lat="49.20927" lon="6.9814">
        <ele>203.7</ele>
        <time>2014-04-13T08:29:56Z</time>
      </trkpt>
      <trkpt lat="49.20929" lon="6.98145">
        <ele>203.6</ele>
        <time>2014-04-13T08:30:01Z</time>
      </trkpt>
      <trkpt lat="49.20931" lon="6.98155">
        <ele>204.1</ele>
        <time>2014-04-13T08:30:06Z</time>
      </trkpt>
      <trkpt lat="49.20933" lon="6.98164">
        <ele>203.8</ele>
        <time>2014-04-13T08:30:11Z</time>
      </trkpt>
      <trkpt lat="49.20935" lon="6.98172">
        <ele>203.5</ele>
        <time>2014-04-13T08:30:16Z</time>
      </trkpt>
      <trkpt lat="49.20938" lon="6.98181">
        <ele>202.9</ele>
        <time>2014-04-13T08:30:21Z</time>
      </trkpt>
      <trkpt lat="49.20939" lon="6.98191">
        <ele>202.6</ele>
        <time>2014-04-13T08:30:26Z</time>
      </trkpt>
      <trkpt lat="49.20947" lon="6.9821">
        <ele>202.1</ele>
        <time>2014-04-13T08:30:36Z</time>
      </trkpt>
      <trkpt lat="49.2095" lon="6.9822">
        <ele>202.2</ele>
        <time>2014-04-13T08:30:41Z</time>
      </trkpt>
      <trkpt lat="49.20953" lon="6.9823">
        <ele>202.6</ele>
        <time>2014-04-13T08:30:46Z</time>
      </trkpt>
      <trkpt lat="49.20955" lon="6.9824">
        <ele>202.4</ele>
        <time>2014-04-13T08:30:51Z</time>
      </trkpt>
      <trkpt lat="49.20957" lon="6.98251">
        <ele>202.3</ele>
        <time>2014-04-13T08:30:56Z</time>
      </trkpt>
      <trkpt lat="49.20959" lon="6.98263">
        <ele>201.5</ele>
        <time>2014-04-13T08:31:01Z</time>
      </trkpt>
      <trkpt lat="49.2096" lon="6.98274">
        <ele>201.7</ele>
        <time>2014-04-13T08:31:06Z</time>
      </trkpt>
      <trkpt lat="49.20961" lon="6.98284">
        <ele>201.4</ele>
        <time>2014-04-13T08:31:11Z</time>
      </trkpt>
      <trkpt lat="49.20962" lon="6.98287">
        <ele>201.3</ele>
        <time>2014-04-13T08:31:16Z</time>
      </trkpt>
      <trkpt lat="49.20963" lon="6.98291">
        <ele>201.6</ele>
        <time>2014-04-13T08:31:21Z</time>
      </trkpt>
      <trkpt lat="49.20963" lon="6.98295">
        <ele>201.3</ele>
        <time>2014-04-13T08:31:26Z</time>
      </trkpt>
      <trkpt lat="49.20964" lon="6.98305">
        <ele>202.3</ele>
        <time>2014-04-13T08:31:31Z</time>
      </trkpt>
      <trkpt lat="49.20965" lon="6.98325">
        <ele>201.3</ele>
        <time>2014-04-13T08:31:41Z</time>
      </trkpt>
      <trkpt lat="49.20966" lon="6.98335">
        <ele>200.9</ele>
        <time>2014-04-13T08:31:46Z</time>
      </trkpt>
      <trkpt lat="49.20969" lon="6.98345">
        <ele>200.5</ele>
        <time>2014-04-13T08:31:51Z</time>
      </trkpt>
      <trkpt lat="49.20972" lon="6.98356">
        <ele>200.7</ele>
        <time>2014-04-13T08:31:56Z</time>
      </trkpt>
      <trkpt lat="49.20974" lon="6.98366">
        <ele>200.6</ele>
        <time>2014-04-13T08:32:01Z</time>
      </trkpt>
      <trkpt lat="49.20977" lon="6.98376">
        <ele>200.3</ele>
        <time>2014-04-13T08:32:06Z</time>
      </trkpt>
      <trkpt lat="49.20978" lon="6.98388">
        <ele>200.6</ele>
        <time>2014-04-13T08:32:11Z</time>
      </trkpt>
      <trkpt lat="49.20979" lon="6.98397">
        <ele>199.8</ele>
        <time>2014-04-13T08:32:16Z</time>
      </trkpt>
      <trkpt lat="49.20979" lon="6.98405">
        <ele>200.8</ele>
        <time>2014-04-13T08:32:21Z</time>
      </trkpt>
      <trkpt lat="49.20978" lon="6.98415">
        <ele>200.4</ele>
        <time>2014-04-13T08:32:26Z</time>
      </trkpt>
      <trkpt lat="49.20976" lon="6.98425">
        <ele>200.7</ele>
        <time>2014-04-13T08:32:31Z</time>
      </trkpt>
      <trkpt lat="49.20974" lon="6.98435">
        <ele>201.1</ele>
        <time>2014-04-13T08:32:36Z</time>
      </trkpt>
      <trkpt lat="49.20969" lon="6.98455">
        <ele>201.4</ele>
        <time>2014-04-13T08:32:46Z</time>
      </trkpt>
      <trkpt lat="49.20967" lon="6.98466">
        <ele>201</ele>
        <time>2014-04-13T08:32:51Z</time>
      </trkpt>
      <trkpt lat="49.20964" lon="6.98477">
        <ele>201</ele>
        <time>2014-04-13T08:32:56Z</time>
      </trkpt>
      <trkpt lat="49.20961" lon="6.98487">
        <ele>200.8</ele>
        <time>2014-04-13T08:33:01Z</time>
      </trkpt>
      <trkpt lat="49.20958" lon="6.98497">
        <ele>201.6</ele>
        <time>2014-04-13T08:33:06Z</time>
      </trkpt>
      <trkpt lat="49.20954" lon="6.98508">
        <ele>202.2</ele>
        <time>2014-04-13T08:33:11Z</time>
      </trkpt>
      <trkpt lat="49.2095" lon="6.98518">
        <ele>202</ele>
        <time>2014-04-13T08:33:16Z</time>
      </trkpt>
      <trkpt lat="49.20945" lon="6.98528">
        <ele>203.3</ele>
        <time>2014-04-13T08:33:21Z</time>
      </trkpt>
      <trkpt lat="49.2094" lon="6.98536">
        <ele>202.9</ele>
        <time>2014-04-13T08:33:26Z</time>
      </trkpt>
      <trkpt lat="49.20936" lon="6.98544">
        <ele>203.4</ele>
        <time>2014-04-13T08:33:31Z</time>
      </trkpt>
      <trkpt lat="49.20933" lon="6.98553">
        <ele>204.3</ele>
        <time>2014-04-13T08:33:36Z</time>
      </trkpt>
      <trkpt lat="49.2093" lon="6.98563">
        <ele>205.1</ele>
        <time>2014-04-13T08:33:41Z</time>
      </trkpt>
      <trkpt lat="49.20934" lon="6.98579">
        <ele>206.7</ele>
        <time>2014-04-13T08:33:51Z</time>
      </trkpt>
      <trkpt lat="49.20939" lon="6.98584">
        <ele>206.9</ele>
        <time>2014-04-13T08:33:56Z</time>
      </trkpt>
      <trkpt lat="49.20944" lon="6.98588">
        <ele>206.7</ele>
        <time>2014-04-13T08:34:01Z</time>
      </trkpt>
      <trkpt lat="49.20949" lon="6.98593">
        <ele>206.9</ele>
        <time>2014-04-13T08:34:06Z</time>
      </trkpt>
      <trkpt lat="49.20955" lon="6.98597">
        <ele>206.6</ele>
        <time>2014-04-13T08:34:11Z</time>
      </trkpt>
      <trkpt lat="49.20961" lon="6.986">
        <ele>206.3</ele>
        <time>2014-04-13T08:34:16Z</time>
      </trkpt>
      <trkpt lat="49.20967" lon="6.98604">
        <ele>207</ele>
        <time>2014-04-13T08:34:21Z</time>
      </trkpt>
      <trkpt lat="49.20973" lon="6.98608">
        <ele>206.9</ele>
        <time>2014-04-13T08:34:26Z</time>
      </trkpt>
      <trkpt lat="49.20979" lon="6.9861">
        <ele>206.5</ele>
        <time>2014-04-13T08:34:31Z</time>
      </trkpt>
      <trkpt lat="49.20986" lon="6.98611">
        <ele>206.6</ele>
        <time>2014-04-13T08:34:36Z</time>
      </trkpt>
      <trkpt lat="49.20992" lon="6.9861">
        <ele>206.6</ele>
        <time>2014-04-13T08:34:41Z</time>
      </trkpt>
      <trkpt lat="49.20998" lon="6.98608">
        <ele>205.2</ele>
        <time>2014-04-13T08:34:46Z</time>
      </trkpt>
      <trkpt lat="49.2101" lon="6.98602">
        <ele>204.2</ele>
        <time>2014-04-13T08:34:56Z</time>
      </trkpt>
      <trkpt lat="49.21016" lon="6.98599">
        <ele>202.7</ele>
        <time>2014-04-13T08:35:01Z</time>
      </trkpt>
      <trkpt lat="49.21021" lon="6.98597">
        <ele>202.4</ele>
        <time>2014-04-13T08:35:06Z</time>
      </trkpt>
      <trkpt lat="49.21028" lon="6.98593">
        <ele>201.2</ele>
        <time>2014-04-13T08:35:11Z</time>
      </trkpt>
      <trkpt lat="49.21034" lon="6.98589">
        <ele>201.4</ele>
        <time>2014-04-13T08:35:16Z</time>
      </trkpt>
      <trkpt lat="49.21039" lon="6.98583">
        <ele>200.5</ele>
        <time>2014-04-13T08:35:21Z</time>
      </trkpt>
      <trkpt lat="49.21041" lon="6.98574">
        <ele>200</ele>
        <time>2014-04-13T08:35:26Z</time>
      </trkpt>
      <trkpt lat="49.21039" lon="6.98564">
        <ele>199.8</ele>
        <time>2014-04-13T08:35:31Z</time>
      </trkpt>
      <trkpt lat="49.21037" lon="6.98556">
        <ele>199.6</ele>
        <time>2014-04-13T08:35:36Z</time>
      </trkpt>
      <trkpt lat="49.21035" lon="6.98547">
        <ele>199.1</ele>
        <time>2014-04-13T08:35:41Z</time>
      </trkpt>
      <trkpt lat="49.21032" lon="6.98537">
        <ele>199.8</ele>
        <time>2014-04-13T08:35:46Z</time>
      </trkpt>
      <trkpt lat="49.21029" lon="6.98527">
        <ele>199.8</ele>
        <time>2014-04-13T08:35:51Z</time>
      </trkpt>
      <trkpt lat="49.21023" lon="6.98509">
        <ele>200.2</ele>
        <time>2014-04-13T08:36:01Z</time>
      </trkpt>
      <trkpt lat="49.2102" lon="6.98501">
        <ele>200.1</ele>
        <time>2014-04-13T08:36:06Z</time>
      </trkpt>
      <trkpt lat="49.21016" lon="6.98492">
        <ele>200.4</ele>
        <time>2014-04-13T08:36:11Z</time>
      </trkpt>
      <trkpt lat="49.21013" lon="6.98483">
        <ele>199.7</ele>
        <time>2014-04-13T08:36:16Z</time>
      </trkpt>
      <trkpt lat="49.21012" lon="6.98475">
        <ele>199.2</ele>
        <time>2014-04-13T08:36:21Z</time>
      </trkpt>
      <trkpt lat="49.21014" lon="6.98468">
        <ele>200</ele>
        <time>2014-04-13T08:36:26Z</time>
      </trkpt>
      <trkpt lat="49.21017" lon="6.98461">
        <ele>200.6</ele>
        <time>2014-04-13T08:36:31Z</time>
      </trkpt>
      <trkpt lat="49.21021" lon="6.98452">
        <ele>200.1</ele>
        <time>2014-04-13T08:36:36Z</time>
      </trkpt>
      <trkpt lat="49.21024" lon="6.98444">
        <ele>200.4</ele>
        <time>2014-04-13T08:36:41Z</time>
      </trkpt>
      <trkpt lat="49.21026" lon="6.98435">
        <ele>200.1</ele>
        <time>2014-04-13T08:36:46Z</time>
      </trkpt>
      <trkpt lat="49.2103" lon="6.98427">
        <ele>199.8</ele>
        <time>2014-04-13T08:36:51Z</time>
      </trkpt>
      <trkpt lat="49.21033" lon="6.98421">
        <ele>200.3</ele>
        <time>2014-04-13T08:36:56Z</time>
      </trkpt>
      <trkpt lat="49.2104" lon="6.98411">
        <ele>200.6</ele>
        <time>2014-04-13T08:37:06Z</time>
      </trkpt>
      <trkpt lat="49.21044" lon="6.98406">
        <ele>200</ele>
        <time>2014-04-13T08:37:11Z</time>
      </trkpt>
      <trkpt lat="49.2105" lon="6.984">
        <ele>200.3</ele>
        <time>2014-04-13T08:37:16Z</time>
      </trkpt>
      <trkpt lat="49.21058" lon="6.98394">
        <ele>200.7</ele>
        <time>2014-04-13T08:37:21Z</time>
      </trkpt>
      <trkpt lat="49.21066" lon="6.98389">
        <ele>200.7</ele>
        <time>2014-04-13T08:37:26Z</time>
      </trkpt>
      <trkpt lat="49.21073" lon="6.98384">
        <ele>201.1</ele>
        <time>2014-04-13T08:37:31Z</time>
      </trkpt>
      <trkpt lat="49.2108" lon="6.98379">
        <ele>201.4</ele>
        <time>2014-04-13T08:37:36Z</time>
      </trkpt>
      <trkpt lat="49.21087" lon="6.98375">
        <ele>202.2</ele>
        <time>2014-04-13T08:37:41Z</time>
      </trkpt>
      <trkpt lat="49.21093" lon="6.98371">
        <ele>202.2</ele>
        <time>2014-04-13T08:37:46Z</time>
      </trkpt>
      <trkpt lat="49.21098" lon="6.98367">
        <ele>202.1</ele>
        <time>2014-04-13T08:37:51Z</time>
      </trkpt>
      <trkpt lat="49.21103" lon="6.98364">
        <ele>201.9</ele>
        <time>2014-04-13T08:37:56Z</time>
      </trkpt>
      <trkpt lat="49.21107" lon="6.9836">
        <ele>202.7</ele>
        <time>2014-04-13T08:38:01Z</time>
      </trkpt>
      <trkpt lat="49.21114" lon="6.98356">
        <ele>201.6</ele>
        <time>2014-04-13T08:38:11Z</time>
      </trkpt>
      <trkpt lat="49.21117" lon="6.98357">
        <ele>201.6</ele>
        <time>2014-04-13T08:38:16Z</time>
      </trkpt>
      <trkpt lat="49.21121" lon="6.98364">
        <ele>201.6</ele>
        <time>2014-04-13T08:38:21Z</time>
      </trkpt>
      <trkpt lat="49.21125" lon="6.9837">
        <ele>201.6</ele>
        <time>2014-04-13T08:38:26Z</time>
      </trkpt>
      <trkpt lat="49.2113" lon="6.98375">
        <ele>201.7</ele>
        <time>2014-04-13T08:38:31Z</time>
      </trkpt>
      <trkpt lat="49.21135" lon="6.98377">
        <ele>201.6</ele>
        <time>2014-04-13T08:38:36Z</time>
      </trkpt>
      <trkpt lat="49.21141" lon="6.98379">
        <ele>202.3</ele>
        <time>2014-04-13T08:38:41Z</time>
      </trkpt>
      <trkpt lat="49.21146" lon="6.98382">
        <ele>202.4</ele>
        <time>2014-04-13T08:38:46Z</time>
      </trkpt>
      <trkpt lat="49.21151" lon="6.98384">
        <ele>201.9</ele>
        <time>2014-04-13T08:38:51Z</time>
      </trkpt>
      <trkpt lat="49.21157" lon="6.98384">
        <ele>201.8</ele>
        <time>2014-04-13T08:38:56Z</time>
      </trkpt>
      <trkpt lat="49.21163" lon="6.98385">
        <ele>201.4</ele>
        <time>2014-04-13T08:39:01Z</time>
      </trkpt>
      <trkpt lat="49.2117" lon="6.98386">
        <ele>201.5</ele>
        <time>2014-04-13T08:39:06Z</time>
      </trkpt>
      <trkpt lat="49.21182" lon="6.98387">
        <ele>201.3</ele>
        <time>2014-04-13T08:39:16Z</time>
      </trkpt>
      <trkpt lat="49.21189" lon="6.98387">
        <ele>201.2</ele>
        <time>2014-04-13T08:39:21Z</time>
      </trkpt>
      <trkpt lat="49.21196" lon="6.98389">
        <ele>201.8</ele>
        <time>2014-04-13T08:39:26Z</time>
      </trkpt>
      <trkpt lat="49.21203" lon="6.9839">
        <ele>201.7</ele>
        <time>2014-04-13T08:39:31Z</time>
      </trkpt>
      <trkpt lat="49.2121" lon="6.98391">
        <ele>201.5</ele>
        <time>2014-04-13T08:39:36Z</time>
      </trkpt>
      <trkpt lat="49.21215" lon="6.98392">
        <ele>201.1</ele>
        <time>2014-04-13T08:39:41Z</time>
      </trkpt>
      <trkpt lat="49.2122" lon="6.98394">
        <ele>201.1</ele>
        <time>2014-04-13T08:39:46Z</time>
      </trkpt>
      <trkpt lat="49.21226" lon="6.98394">
        <ele>200.6</ele>
        <time>2014-04-13T08:39:51Z</time>
      </trkpt>
      <trkpt lat="49.21231" lon="6.98396">
        <ele>200.8</ele>
        <time>2014-04-13T08:39:56Z</time>
      </trkpt>
      <trkpt lat="49.21237" lon="6.98399">
        <ele>200.2</ele>
        <time>2014-04-13T08:40:01Z</time>
      </trkpt>
      <trkpt lat="49.21243" lon="6.984">
        <ele>199.7</ele>
        <time>2014-04-13T08:40:06Z</time>
      </trkpt>
      <trkpt lat="49.21258" lon="6.98402">
        <ele>200.1</ele>
        <time>2014-04-13T08:40:16Z</time>
      </trkpt>
      <trkpt lat="49.21266" lon="6.98403">
        <ele>200.5</ele>
        <time>2014-04-13T08:40:21Z</time>
      </trkpt>
      <trkpt lat="49.21273" lon="6.98403">
        <ele>201.2</ele>
        <time>2014-04-13T08:40:26Z</time>
      </trkpt>
      <trkpt lat="49.21281" lon="6.98402">
        <ele>201.9</ele>
        <time>2014-04-13T08:40:31Z</time>
      </trkpt>
      <trkpt lat="49.2129" lon="6.98401">
        <ele>202.3</ele>
        <time>2014-04-13T08:40:36Z</time>
      </trkpt>
      <trkpt lat="49.21298" lon="6.98398">
        <ele>203.1</ele>
        <time>2014-04-13T08:40:41Z</time>
      </trkpt>
      <trkpt lat="49.21304" lon="6.98394">
        <ele>203.4</ele>
        <time>2014-04-13T08:40:46Z</time>
      </trkpt>
      <trkpt lat="49.21311" lon="6.9839">
        <ele>204.2</ele>
        <time>2014-04-13T08:40:51Z</time>
      </trkpt>
      <trkpt lat="49.21316" lon="6.98389">
        <ele>204.6</ele>
        <time>2014-04-13T08:40:56Z</time>
      </trkpt>
      <trkpt lat="49.21323" lon="6.98387">
        <ele>205.8</ele>
        <time>2014-04-13T08:41:01Z</time>
      </trkpt>
      <trkpt lat="49.2133" lon="6.98384">
        <ele>205.5</ele>
        <time>2014-04-13T08:41:06Z</time>
      </trkpt>
      <trkpt lat="49.21338" lon="6.9838">
        <ele>205.6</ele>
        <time>2014-04-13T08:41:11Z</time>
      </trkpt>
      <trkpt lat="49.21351" lon="6.98375">
        <ele>206.3</ele>
        <time>2014-04-13T08:41:21Z</time>
      </trkpt>
      <trkpt lat="49.21358" lon="6.98372">
        <ele>206.6</ele>
        <time>2014-04-13T08:41:26Z</time>
      </trkpt>
      <trkpt lat="49.21364" lon="6.98369">
        <ele>206.5</ele>
        <time>2014-04-13T08:41:31Z</time>
      </trkpt>
      <trkpt lat="49.21371" lon="6.98367">
        <ele>206.2</ele>
        <time>2014-04-13T08:41:36Z</time>
      </trkpt>
      <trkpt lat="49.21378" lon="6.98364">
        <ele>206.8</ele>
        <time>2014-04-13T08:41:41Z</time>
      </trkpt>
      <trkpt lat="49.21386" lon="6.98362">
        <ele>207.7</ele>
        <time>2014-04-13T08:41:46Z</time>
      </trkpt>
      <trkpt lat="49.21393" lon="6.9836">
        <ele>207.5</ele>
        <time>2014-04-13T08:41:51Z</time>
      </trkpt>
      <trkpt lat="49.21401" lon="6.98358">
        <ele>207.3</ele>
        <time>2014-04-13T08:41:56Z</time>
      </trkpt>
      <trkpt lat="49.21409" lon="6.98357">
        <ele>207</ele>
        <time>2014-04-13T08:42:01Z</time>
      </trkpt>
      <trkpt lat="49.21416" lon="6.98356">
        <ele>206.9</ele>
        <time>2014-04-13T08:42:06Z</time>
      </trkpt>
      <trkpt lat="49.21423" lon="6.98356">
        <ele>207.6</ele>
        <time>2014-04-13T08:42:11Z</time>
      </trkpt>
      <trkpt lat="49.21429" lon="6.98356">
        <ele>207.4</ele>
        <time>2014-04-13T08:42:16Z</time>
      </trkpt>
      <trkpt lat="49.21442" lon="6.9835">
        <ele>207.9</ele>
        <time>2014-04-13T08:42:26Z</time>
      </trkpt>
      <trkpt lat="49.21447" lon="6.98349">
        <ele>207.8</ele>
        <time>2014-04-13T08:42:31Z</time>
      </trkpt>
      <trkpt lat="49.21453" lon="6.98347">
        <ele>207.9</ele>
        <time>2014-04-13T08:42:36Z</time>
      </trkpt>
      <trkpt lat="49.21459" lon="6.98347">
        <ele>207.7</ele>
        <time>2014-04-13T08:42:41Z</time>
      </trkpt>
      <trkpt lat="49.21464" lon="6.98345">
        <ele>207.9</ele>
        <time>2014-04-13T08:42:46Z</time>
      </trkpt>
      <trkpt lat="49.2147" lon="6.98344">
        <ele>208.2</ele>
        <time>2014-04-13T08:42:51Z</time>
      </trkpt>
      <trkpt lat="49.21476" lon="6.98342">
        <ele>208</ele>
        <time>2014-04-13T08:42:56Z</time>
      </trkpt>
      <trkpt lat="49.21482" lon="6.9834">
        <ele>207.3</ele>
        <time>2014-04-13T08:43:01Z</time>
      </trkpt>
      <trkpt lat="49.21486" lon="6.98339">
        <ele>207</ele>
        <time>2014-04-13T08:43:06Z</time>
      </trkpt>
      <trkpt lat="49.21492" lon="6.98336">
        <ele>206.8</ele>
        <time>2014-04-13T08:43:11Z</time>
      </trkpt>
      <trkpt lat="49.21497" lon="6.98334">
        <ele>207</ele>
        <time>2014-04-13T08:43:16Z</time>
      </trkpt>
      <trkpt lat="49.21502" lon="6.98332">
        <ele>206.9</ele>
        <time>2014-04-13T08:43:21Z</time>
      </trkpt>
      <trkpt lat="49.21513" lon="6.98329">
        <ele>208.1</ele>
        <time>2014-04-13T08:43:31Z</time>
      </trkpt>
      <trkpt lat="49.21517" lon="6.98328">
        <ele>208.5</ele>
        <time>2014-04-13T08:43:36Z</time>
      </trkpt>
      <trkpt lat="49.21523" lon="6.98326">
        <ele>208.5</ele>
        <time>2014-04-13T08:43:41Z</time>
      </trkpt>
      <trkpt lat="49.21528" lon="6.98325">
        <ele>209.2</ele>
        <time>2014-04-13T08:43:46Z</time>
      </trkpt>
      <trkpt lat="49.21532" lon="6.98325">
        <ele>209.8</ele>
        <time>2014-04-13T08:43:51Z</time>
      </trkpt>
      <trkpt lat="49.21538" lon="6.98324">
        <ele>209.9</ele>
        <time>2014-04-13T08:43:56Z</time>
      </trkpt>
      <trkpt lat="49.21545" lon="6.98323">
        <ele>209</ele>
        <time>2014-04-13T08:44:01Z</time>
      </trkpt>
      <trkpt lat="49.21552" lon="6.98322">
        <ele>209.4</ele>
        <time>2014-04-13T08:44:06Z</time>
      </trkpt>
      <trkpt lat="49.21559" lon="6.98321">
        <ele>209.7</ele>
        <time>2014-04-13T08:44:11Z</time>
      </trkpt>
      <trkpt lat="49.21565" lon="6.98321">
        <ele>209.4</ele>
        <time>2014-04-13T08:44:16Z</time>
      </trkpt>
      <trkpt lat="49.21573" lon="6.9832">
        <ele>209</ele>
        <time>2014-04-13T08:44:21Z</time>
      </trkpt>
      <trkpt lat="49.2158" lon="6.98319">
        <ele>208.8</ele>
        <time>2014-04-13T08:44:26Z</time>
      </trkpt>
      <trkpt lat="49.21594" lon="6.9832">
        <ele>207.8</ele>
        <time>2014-04-13T08:44:36Z</time>
      </trkpt>
      <trkpt lat="49.21601" lon="6.98321">
        <ele>207.6</ele>
        <time>2014-04-13T08:44:41Z</time>
      </trkpt>
      <trkpt lat="49.21609" lon="6.98322">
        <ele>206.7</ele>
        <time>2014-04-13T08:44:46Z</time>
      </trkpt>
      <trkpt lat="49.21618" lon="6.98325">
        <ele>205.5</ele>
        <time>2014-04-13T08:44:51Z</time>
      </trkpt>
      <trkpt lat="49.21626" lon="6.98325">
        <ele>204.2</ele>
        <time>2014-04-13T08:44:56Z</time>
      </trkpt>
      <trkpt lat="49.21633" lon="6.98323">
        <ele>203.3</ele>
        <time>2014-04-13T08:45:01Z</time>
      </trkpt>
      <trkpt lat="49.21639" lon="6.98324">
        <ele>202.6</ele>
        <time>2014-04-13T08:45:06Z</time>
      </trkpt>
      <trkpt lat="49.21644" lon="6.98326">
        <ele>203</ele>
        <time>2014-04-13T08:45:11Z</time>
      </trkpt>
      <trkpt lat="49.21651" lon="6.98327">
        <ele>203.4</ele>
        <time>2014-04-13T08:45:16Z</time>
      </trkpt>
      <trkpt lat="49.2166" lon="6.98329">
        <ele>203.8</ele>
        <time>2014-04-13T08:45:21Z</time>
      </trkpt>
      <trkpt lat="49.21668" lon="6.98328">
        <ele>203.4</ele>
        <time>2014-04-13T08:45:26Z</time>
      </trkpt>
      <trkpt lat="49.21673" lon="6.98326">
        <ele>203.3</ele>
        <time>2014-04-13T08:45:31Z</time>
      </trkpt>
      <trkpt lat="49.2168" lon="6.98325">
        <ele>204.1</ele>
        <time>2014-04-13T08:45:41Z</time>
      </trkpt>
      <trkpt lat="49.21682" lon="6.98325">
        <ele>204</ele>
        <time>2014-04-13T08:45:46Z</time>
      </trkpt>
      <trkpt lat="49.21683" lon="6.98325">
        <ele>203.9</ele>
        <time>2014-04-13T08:45:51Z</time>
      </trkpt>
      <trkpt lat="49.21684" lon="6.98326">
        <ele>204.3</ele>
        <time>2014-04-13T08:45:56Z</time>
      </trkpt>
      <trkpt lat="49.21685" lon="6.98326">
        <ele>204.2</ele>
        <time>2014-04-13T08:46:01Z</time>
      </trkpt>
      <trkpt lat="49.21685" lon="6.98325">
        <ele>204</ele>
        <time>2014-04-13T08:46:06Z</time>
      </trkpt>
      <trkpt lat="49.21686" lon="6.98325">
        <ele>204.7</ele>
        <time>2014-04-13T08:46:11Z</time>
      </trkpt>
      <trkpt lat="49.21687" lon="6.98323">
        <ele>203.8</ele>
        <time>2014-04-13T08:46:16Z</time>
      </trkpt>
      <trkpt lat="49.21689" lon="6.98322">
        <ele>204.3</ele>
        <time>2014-04-13T08:46:21Z</time>
      </trkpt>
      <trkpt lat="49.21689" lon="6.98323">
        <ele>204.3</ele>
        <time>2014-04-13T08:46:26Z</time>
      </trkpt>
      <trkpt lat="49.2169" lon="6.98323">
        <ele>203.7</ele>
        <time>2014-04-13T08:46:31Z</time>
      </trkpt>
      <trkpt lat="49.2169" lon="6.98324">
        <ele>204.5</ele>
        <time>2014-04-13T08:46:36Z</time>
      </trkpt>
      <trkpt lat="49.2169" lon="6.98326">
        <ele>204.4</ele>
        <time>2014-04-13T08:46:46Z</time>
      </trkpt>
      <trkpt lat="49.2169" lon="6.98327">
        <ele>205</ele>
        <time>2014-04-13T08:46:51Z</time>
      </trkpt>
      <trkpt lat="49.21689" lon="6.98328">
        <ele>204</ele>
        <time>2014-04-13T08:46:56Z</time>
      </trkpt>
      <trkpt lat="49.21689" lon="6.98328">
        <ele>204.3</ele>
        <time>2014-04-13T08:47:01Z</time>
      </trkpt>
      <trkpt lat="49.21689" lon="6.98329">
        <ele>204.1</ele>
        <time>2014-04-13T08:47:06Z</time>
      </trkpt>
      <trkpt lat="49.21689" lon="6.98329">
        <ele>203.4</ele>
        <time>2014-04-13T08:47:11Z</time>
      </trkpt>
      <trkpt lat="49.21689" lon="6.98329">
        <ele>204.4</ele>
        <time>2014-04-13T08:47:16Z</time>
      </trkpt>
      <trkpt lat="49.21689" lon="6.98329">
        <ele>204.1</ele>
        <time>2014-04-13T08:47:21Z</time>
      </trkpt>
      <trkpt lat="49.21689" lon="6.98328">
        <ele>205.3</ele>
        <time>2014-04-13T08:47:26Z</time>
      </trkpt>
      <trkpt lat="49.21689" lon="6.98328">
        <ele>204.5</ele>
        <time>2014-04-13T08:47:31Z</time>
      </trkpt>
      <trkpt lat="49.21689" lon="6.98328">
        <ele>204.1</ele>
        <time>2014-04-13T08:47:36Z</time>
      </trkpt>
      <trkpt lat="49.2169" lon="6.98327">
        <ele>205</ele>
        <time>2014-04-13T08:47:41Z</time>
      </trkpt>
      <trkpt lat="49.2169" lon="6.98328">
        <ele>204.5</ele>
        <time>2014-04-13T08:47:51Z</time>
      </trkpt>
      <trkpt lat="49.21691" lon="6.98328">
        <ele>204.9</ele>
        <time>2014-04-13T08:47:56Z</time>
      </trkpt>
      <trkpt lat="49.21691" lon="6.98329">
        <ele>204.7</ele>
        <time>2014-04-13T08:48:01Z</time>
      </trkpt>
      <trkpt lat="49.21691" lon="6.9833">
        <ele>204.4</ele>
        <time>2014-04-13T08:48:06Z</time>
      </trkpt>
      <trkpt lat="49.21691" lon="6.98331">
        <ele>204.1</ele>
        <time>2014-04-13T08:48:11Z</time>
      </trkpt>
      <trkpt lat="49.21691" lon="6.98331">
        <ele>203.8</ele>
        <time>2014-04-13T08:48:16Z</time>
      </trkpt>
      <trkpt lat="49.21692" lon="6.98331">
        <ele>204.2</ele>
        <time>2014-04-13T08:48:21Z</time>
      </trkpt>
      <trkpt lat="49.21692" lon="6.9833">
        <ele>204.6</ele>
        <time>2014-04-13T08:48:26Z</time>
      </trkpt>
      <trkpt lat="49.21692" lon="6.9833">
        <ele>204.6</ele>
        <time>2014-04-13T08:48:31Z</time>
      </trkpt>
      <trkpt lat="49.21693" lon="6.9833">
        <ele>205.2</ele>
        <time>2014-04-13T08:48:36Z</time>
      </trkpt>
      <trkpt lat="49.21694" lon="6.98329">
        <ele>205.7</ele>
        <time>2014-04-13T08:48:41Z</time>
      </trkpt>
      <trkpt lat="49.21694" lon="6.9833">
        <ele>205.3</ele>
        <time>2014-04-13T08:48:46Z</time>
      </trkpt>
      <trkpt lat="49.21693" lon="6.98332">
        <ele>204.6</ele>
        <time>2014-04-13T08:48:56Z</time>
      </trkpt>
      <trkpt lat="49.21693" lon="6.98331">
        <ele>203.9</ele>
        <time>2014-04-13T08:49:01Z</time>
      </trkpt>
      <trkpt lat="49.21693" lon="6.9833">
        <ele>204.6</ele>
        <time>2014-04-13T08:49:06Z</time>
      </trkpt>
      <trkpt lat="49.21693" lon="6.9833">
        <ele>204.6</ele>
        <time>2014-04-13T08:49:11Z</time>
      </trkpt>
      <trkpt lat="49.21693" lon="6.98329">
        <ele>204.8</ele>
        <time>2014-04-13T08:49:16Z</time>
      </trkpt>
      <trkpt lat="49.21693" lon="6.98329">
        <ele>204.7</ele>
        <time>2014-04-13T08:49:21Z</time>
      </trkpt>
      <trkpt lat="49.21693" lon="6.98329">
        <ele>205</ele>
        <time>2014-04-13T08:49:26Z</time>
      </trkpt>
      <trkpt lat="49.21692" lon="6.98329">
        <ele>204.4</ele>
        <time>2014-04-13T08:49:31Z</time>
      </trkpt>
      <trkpt lat="49.21692" lon="6.98329">
        <ele>204.9</ele>
        <time>2014-04-13T08:49:36Z</time>
      </trkpt>
      <trkpt lat="49.21692" lon="6.98329">
        <ele>205.1</ele>
        <time>2014-04-13T08:49:41Z</time>
      </trkpt>
      <trkpt lat="49.21691" lon="6.9833">
        <ele>204.4</ele>
        <time>2014-04-13T08:49:46Z</time>
      </trkpt>
      <trkpt lat="49.21692" lon="6.98331">
        <ele>204.8</ele>
        <time>2014-04-13T08:49:51Z</time>
      </trkpt>
      <trkpt lat="49.21692" lon="6.98335">
        <ele>204.6</ele>
        <time>2014-04-13T08:50:01Z</time>
      </trkpt>
      <trkpt lat="49.21693" lon="6.98333">
        <ele>204.3</ele>
        <time>2014-04-13T08:50:06Z</time>
      </trkpt>
      <trkpt lat="49.21692" lon="6.98333">
        <ele>204</ele>
        <time>2014-04-13T08:50:11Z</time>
      </trkpt>
      <trkpt lat="49.21691" lon="6.98333">
        <ele>204.5</ele>
        <time>2014-04-13T08:50:16Z</time>
      </trkpt>
      <trkpt lat="49.2169" lon="6.98333">
        <ele>205</ele>
        <time>2014-04-13T08:50:21Z</time>
      </trkpt>
      <trkpt lat="49.21689" lon="6.98332">
        <ele>204.4</ele>
        <time>2014-04-13T08:50:26Z</time>
      </trkpt>
      <trkpt lat="49.21689" lon="6.9833">
        <ele>204.1</ele>
        <time>2014-04-13T08:50:31Z</time>
      </trkpt>
      <trkpt lat="49.2169" lon="6.98326">
        <ele>205.2</ele>
        <time>2014-04-13T08:50:36Z</time>
      </trkpt>
      <trkpt lat="49.21692" lon="6.9832">
        <ele>205.2</ele>
        <time>2014-04-13T08:50:41Z</time>
      </trkpt>
      <trkpt lat="49.21693" lon="6.98314">
        <ele>204.6</ele>
        <time>2014-04-13T08:50:46Z</time>
      </trkpt>
      <trkpt lat="49.21696" lon="6.98307">
        <ele>206.1</ele>
        <time>2014-04-13T08:50:51Z</time>
      </trkpt>
      <trkpt lat="49.21699" lon="6.98301">
        <ele>206.7</ele>
        <time>2014-04-13T08:50:56Z</time>
      </trkpt>
      <trkpt lat="49.21708" lon="6.98293">
        <ele>208.1</ele>
        <time>2014-04-13T08:51:06Z</time>
      </trkpt>
      <trkpt lat="49.21714" lon="6.98289">
        <ele>208</ele>
        <time>2014-04-13T08:51:11Z</time>
      </trkpt>
      <trkpt lat="49.21719" lon="6.98284">
        <ele>210</ele>
        <time>2014-04-13T08:51:16Z</time>
      </trkpt>
      <trkpt lat="49.21724" lon="6.98277">
        <ele>210.1</ele>
        <time>2014-04-13T08:51:21Z</time>
      </trkpt>
      <trkpt lat="49.21727" lon="6.98269">
        <ele>210.6</ele>
        <time>2014-04-13T08:51:26Z</time>
      </trkpt>
      <trkpt lat="49.21731" lon="6.98261">
        <ele>211.6</ele>
        <time>2014-04-13T08:51:31Z</time>
      </trkpt>
      <trkpt lat="49.21732" lon="6.98251">
        <ele>212</ele>
        <time>2014-04-13T08:51:36Z</time>
      </trkpt>
      <trkpt lat="49.21733" lon="6.98242">
        <ele>212.4</ele>
        <time>2014-04-13T08:51:41Z</time>
      </trkpt>
      <trkpt lat="49.21734" lon="6.98231">
        <ele>212</ele>
        <time>2014-04-13T08:51:46Z</time>
      </trkpt>
      <trkpt lat="49.21735" lon="6.98221">
        <ele>212.2</ele>
        <time>2014-04-13T08:51:51Z</time>
      </trkpt>
      <trkpt lat="49.21736" lon="6.98209">
        <ele>212.4</ele>
        <time>2014-04-13T08:51:56Z</time>
      </trkpt>
      <trkpt lat="49.21737" lon="6.98197">
        <ele>211.6</ele>
        <time>2014-04-13T08:52:01Z</time>
      </trkpt>
      <trkpt lat="49.21738" lon="6.98174">
        <ele>212.3</ele>
        <time>2014-04-13T08:52:11Z</time>
      </trkpt>
      <trkpt lat="49.21739" lon="6.98162">
        <ele>212.7</ele>
        <time>2014-04-13T08:52:16Z</time>
      </trkpt>
      <trkpt lat="49.2174" lon="6.98153">
        <ele>211.8</ele>
        <time>2014-04-13T08:52:21Z</time>
      </trkpt>
      <trkpt lat="49.21741" lon="6.98144">
        <ele>212</ele>
        <time>2014-04-13T08:52:26Z</time>
      </trkpt>
      <trkpt lat="49.21742" lon="6.98135">
        <ele>213</ele>
        <time>2014-04-13T08:52:31Z</time>
      </trkpt>
      <trkpt lat="49.21742" lon="6.98123">
        <ele>212</ele>
        <time>2014-04-13T08:52:36Z</time>
      </trkpt>
      <trkpt lat="49.21743" lon="6.98112">
        <ele>212.6</ele>
        <time>2014-04-13T08:52:41Z</time>
      </trkpt>
      <trkpt lat="49.21744" lon="6.98099">
        <ele>212.6</ele>
        <time>2014-04-13T08:52:46Z</time>
      </trkpt>
      <trkpt lat="49.21744" lon="6.98086">
        <ele>212.7</ele>
        <time>2014-04-13T08:52:51Z</time>
      </trkpt>
      <trkpt lat="49.21745" lon="6.98074">
        <ele>213.2</ele>
        <time>2014-04-13T08:52:56Z</time>
      </trkpt>
      <trkpt lat="49.21745" lon="6.98062">
        <ele>213.3</ele>
        <time>2014-04-13T08:53:01Z</time>
      </trkpt>
      <trkpt lat="49.21746" lon="6.9805">
        <ele>214</ele>
        <time>2014-04-13T08:53:06Z</time>
      </trkpt>
      <trkpt lat="49.2175" lon="6.9803">
        <ele>214.2</ele>
        <time>2014-04-13T08:53:16Z</time>
      </trkpt>
      <trkpt lat="49.21753" lon="6.98024">
        <ele>213.7</ele>
        <time>2014-04-13T08:53:21Z</time>
      </trkpt>
      <trkpt lat="49.21756" lon="6.98019">
        <ele>214.7</ele>
        <time>2014-04-13T08:53:26Z</time>
      </trkpt>
      <trkpt lat="49.21758" lon="6.9801">
        <ele>215.4</ele>
        <time>2014-04-13T08:53:31Z</time>
      </trkpt>
      <trkpt lat="49.21759" lon="6.98001">
        <ele>215.1</ele>
        <time>2014-04-13T08:53:36Z</time>
      </trkpt>
      <trkpt lat="49.21761" lon="6.97994">
        <ele>216</ele>
        <time>2014-04-13T08:53:41Z</time>
      </trkpt>
      <trkpt lat="49.21762" lon="6.97987">
        <ele>217</ele>
        <time>2014-04-13T08:53:46Z</time>
      </trkpt>
      <trkpt lat="49.21763" lon="6.97979">
        <ele>217.3</ele>
        <time>2014-04-13T08:53:51Z</time>
      </trkpt>
      <trkpt lat="49.21767" lon="6.97971">
        <ele>217.5</ele>
        <time>2014-04-13T08:53:56Z</time>
      </trkpt>
      <trkpt lat="49.21767" lon="6.97963">
        <ele>217.8</ele>
        <time>2014-04-13T08:54:01Z</time>
      </trkpt>
      <trkpt lat="49.21767" lon="6.97954">
        <ele>218.9</ele>
        <time>2014-04-13T08:54:06Z</time>
      </trkpt>
      <trkpt lat="49.21768" lon="6.97947">
        <ele>218.2</ele>
        <time>2014-04-13T08:54:11Z</time>
      </trkpt>
      <trkpt lat="49.21772" lon="6.97932">
        <ele>219.4</ele>
        <time>2014-04-13T08:54:21Z</time>
      </trkpt>
      <trkpt lat="49.21774" lon="6.97925">
        <ele>219.1</ele>
        <time>2014-04-13T08:54:26Z</time>
      </trkpt>
      <trkpt lat="49.21776" lon="6.97916">
        <ele>219.3</ele>
        <time>2014-04-13T08:54:31Z</time>
      </trkpt>
      <trkpt lat="49.21778" lon="6.97907">
        <ele>219.6</ele>
        <time>2014-04-13T08:54:36Z</time>
      </trkpt>
      <trkpt lat="49.2178" lon="6.97898">
        <ele>219.3</ele>
        <time>2014-04-13T08:54:41Z</time>
      </trkpt>
      <trkpt lat="49.21782" lon="6.97889">
        <ele>219.5</ele>
        <time>2014-04-13T08:54:46Z</time>
      </trkpt>
      <trkpt lat="49.21784" lon="6.97879">
        <ele>219.9</ele>
        <time>2014-04-13T08:54:51Z</time>
      </trkpt>
      <trkpt lat="49.21786" lon="6.97869">
        <ele>220.8</ele>
        <time>2014-04-13T08:54:56Z</time>
      </trkpt>
      <trkpt lat="49.21789" lon="6.97858">
        <ele>221</ele>
        <time>2014-04-13T08:55:01Z</time>
      </trkpt>
      <trkpt lat="49.21791" lon="6.97847">
        <ele>220.6</ele>
        <time>2014-04-13T08:55:06Z</time>
      </trkpt>
      <trkpt lat="49.21793" lon="6.97833">
        <ele>220.2</ele>
        <time>2014-04-13T08:55:11Z</time>
      </trkpt>
      <trkpt lat="49.21795" lon="6.97821">
        <ele>220.3</ele>
        <time>2014-04-13T08:55:16Z</time>
      </trkpt>
      <trkpt lat="49.21799" lon="6.97802">
        <ele>219.9</ele>
        <time>2014-04-13T08:55:26Z</time>
      </trkpt>
      <trkpt lat="49.218" lon="6.9779">
        <ele>219.4</ele>
        <time>2014-04-13T08:55:31Z</time>
      </trkpt>
      <trkpt lat="49.21802" lon="6.97779">
        <ele>219.7</ele>
        <time>2014-04-13T08:55:36Z</time>
      </trkpt>
      <trkpt lat="49.21802" lon="6.97769">
        <ele>219.8</ele>
        <time>2014-04-13T08:55:41Z</time>
      </trkpt>
      <trkpt lat="49.21802" lon="6.97764">
        <ele>218.9</ele>
        <time>2014-04-13T08:55:46Z</time>
      </trkpt>
      <trkpt lat="49.21802" lon="6.9776">
        <ele>219.6</ele>
        <time>2014-04-13T08:55:51Z</time>
      </trkpt>
      <trkpt lat="49.21803" lon="6.97754">
        <ele>219.8</ele>
        <time>2014-04-13T08:55:56Z</time>
      </trkpt>
      <trkpt lat="49.21806" lon="6.9775">
        <ele>218.8</ele>
        <time>2014-04-13T08:56:01Z</time>
      </trkpt>
      <trkpt lat="49.21811" lon="6.9775">
        <ele>217.9</ele>
        <time>2014-04-13T08:56:06Z</time>
      </trkpt>
      <trkpt lat="49.21816" lon="6.97752">
        <ele>216.8</ele>
        <time>2014-04-13T08:56:11Z</time>
      </trkpt>
      <trkpt lat="49.21823" lon="6.97753">
        <ele>216.3</ele>
        <time>2014-04-13T08:56:16Z</time>
      </trkpt>
      <trkpt lat="49.21829" lon="6.97754">
        <ele>215.1</ele>
        <time>2014-04-13T08:56:21Z</time>
      </trkpt>
      <trkpt lat="49.21842" lon="6.97758">
        <ele>216.3</ele>
        <time>2014-04-13T08:56:31Z</time>
      </trkpt>
      <trkpt lat="49.21849" lon="6.97761">
        <ele>215.2</ele>
        <time>2014-04-13T08:56:36Z</time>
      </trkpt>
      <trkpt lat="49.21856" lon="6.97763">
        <ele>214.5</ele>
        <time>2014-04-13T08:56:41Z</time>
      </trkpt>
      <trkpt lat="49.21862" lon="6.97765">
        <ele>214.4</ele>
        <time>2014-04-13T08:56:46Z</time>
      </trkpt>
      <trkpt lat="49.21868" lon="6.97768">
        <ele>213.9</ele>
        <time>2014-04-13T08:56:51Z</time>
      </trkpt>
      <trkpt lat="49.21873" lon="6.97773">
        <ele>214.4</ele>
        <time>2014-04-13T08:56:56Z</time>
      </trkpt>
      <trkpt lat="49.2188" lon="6.97777">
        <ele>214</ele>
        <time>2014-04-13T08:57:01Z</time>
      </trkpt>
      <trkpt lat="49.21887" lon="6.97781">
        <ele>215</ele>
        <time>2014-04-13T08:57:06Z</time>
      </trkpt>
      <trkpt lat="49.21894" lon="6.97784">
        <ele>215.4</ele>
        <time>2014-04-13T08:57:11Z</time>
      </trkpt>
      <trkpt lat="49.21901" lon="6.97788">
        <ele>214.8</ele>
        <time>2014-04-13T08:57:16Z</time>
      </trkpt>
      <trkpt lat="49.21902" lon="6.97788">
        <ele>214.3</ele>
        <time>2014-04-13T08:57:21Z</time>
      </trkpt>
      <trkpt lat="49.21903" lon="6.97788">
        <ele>213.8</ele>
        <time>2014-04-13T08:57:26Z</time>
      </trkpt>
      <trkpt lat="49.21906" lon="6.9779">
        <ele>213.4</ele>
        <time>2014-04-13T08:57:36Z</time>
      </trkpt>
      <trkpt lat="49.21912" lon="6.97794">
        <ele>214.6</ele>
        <time>2014-04-13T08:57:41Z</time>
      </trkpt>
      <trkpt lat="49.21918" lon="6.97798">
        <ele>214.8</ele>
        <time>2014-04-13T08:57:46Z</time>
      </trkpt>
      <trkpt lat="49.21924" lon="6.97802">
        <ele>214.7</ele>
        <time>2014-04-13T08:57:51Z</time>
      </trkpt>
      <trkpt lat="49.21928" lon="6.97805">
        <ele>214.4</ele>
        <time>2014-04-13T08:57:56Z</time>
      </trkpt>
      <trkpt lat="49.21933" lon="6.97808">
        <ele>213.8</ele>
        <time>2014-04-13T08:58:01Z</time>
      </trkpt>
      <trkpt lat="49.21938" lon="6.97808">
        <ele>215.2</ele>
        <time>2014-04-13T08:58:06Z</time>
      </trkpt>
      <trkpt lat="49.21941" lon="6.97808">
        <ele>215.1</ele>
        <time>2014-04-13T08:58:11Z</time>
      </trkpt>
      <trkpt lat="49.21944" lon="6.97814">
        <ele>214.5</ele>
        <time>2014-04-13T08:58:16Z</time>
      </trkpt>
      <trkpt lat="49.21948" lon="6.97816">
        <ele>214.2</ele>
        <time>2014-04-13T08:58:21Z</time>
      </trkpt>
      <trkpt lat="49.21953" lon="6.97819">
        <ele>213.9</ele>
        <time>2014-04-13T08:58:26Z</time>
      </trkpt>
      <trkpt lat="49.21957" lon="6.97821">
        <ele>215</ele>
        <time>2014-04-13T08:58:31Z</time>
      </trkpt>
      <trkpt lat="49.21959" lon="6.97824">
        <ele>214.9</ele>
        <time>2014-04-13T08:58:41Z</time>
      </trkpt>
      <trkpt lat="49.21958" lon="6.97823">
        <ele>214.3</ele>
        <time>2014-04-13T08:58:46Z</time>
      </trkpt>
      <trkpt lat="49.21956" lon="6.9782">
        <ele>214.4</ele>
        <time>2014-04-13T08:58:51Z</time>
      </trkpt>
      <trkpt lat="49.21955" lon="6.97814">
        <ele>213.6</ele>
        <time>2014-04-13T08:58:56Z</time>
      </trkpt>
      <trkpt lat="49.21953" lon="6.97807">
        <ele>213.9</ele>
        <time>2014-04-13T08:59:01Z</time>
      </trkpt>
      <trkpt lat="49.21952" lon="6.97799">
        <ele>213.8</ele>
        <time>2014-04-13T08:59:06Z</time>
      </trkpt>
      <trkpt lat="49.21949" lon="6.97793">
        <ele>213.3</ele>
        <time>2014-04-13T08:59:11Z</time>
      </trkpt>
      <trkpt lat="49.21947" lon="6.97784">
        <ele>212.5</ele>
        <time>2014-04-13T08:59:16Z</time>
      </trkpt>
      <trkpt lat="49.21945" lon="6.97774">
        <ele>212.5</ele>
        <time>2014-04-13T08:59:21Z</time>
      </trkpt>
      <trkpt lat="49.21943" lon="6.97764">
        <ele>212.1</ele>
        <time>2014-04-13T08:59:26Z</time>
      </trkpt>
      <trkpt lat="49.21942" lon="6.97755">
        <ele>211.9</ele>
        <time>2014-04-13T08:59:31Z</time>
      </trkpt>
      <trkpt lat="49.21943" lon="6.97745">
        <ele>211.4</ele>
        <time>2014-04-13T08:59:36Z</time>
      </trkpt>
      <trkpt lat="49.21946" lon="6.97725">
        <ele>209.3</ele>
        <time>2014-04-13T08:59:46Z</time>
      </trkpt>
      <trkpt lat="49.21946" lon="6.97716">
        <ele>209.5</ele>
        <time>2014-04-13T08:59:51Z</time>
      </trkpt>
      <trkpt lat="49.21948" lon="6.97706">
        <ele>209.2</ele>
        <time>2014-04-13T08:59:56Z</time>
      </trkpt>
      <trkpt lat="49.2195" lon="6.97694">
        <ele>208.1</ele>
        <time>2014-04-13T09:00:01Z</time>
      </trkpt>
      <trkpt lat="49.21951" lon="6.97684">
        <ele>208.1</ele>
        <time>2014-04-13T09:00:06Z</time>
      </trkpt>
      <trkpt lat="49.21953" lon="6.97673">
        <ele>207.5</ele>
        <time>2014-04-13T09:00:11Z</time>
      </trkpt>
      <trkpt lat="49.21955" lon="6.97664">
        <ele>207.1</ele>
        <time>2014-04-13T09:00:16Z</time>
      </trkpt>
      <trkpt lat="49.21958" lon="6.97656">
        <ele>207</ele>
        <time>2014-04-13T09:00:21Z</time>
      </trkpt>
      <trkpt lat="49.21959" lon="6.97648">
        <ele>207.5</ele>
        <time>2014-04-13T09:00:26Z</time>
      </trkpt>
      <trkpt lat="49.21961" lon="6.97638">
        <ele>207.8</ele>
        <time>2014-04-13T09:00:31Z</time>
      </trkpt>
      <trkpt lat="49.21963" lon="6.97629">
        <ele>207.2</ele>
        <time>2014-04-13T09:00:36Z</time>
      </trkpt>
      <trkpt lat="49.21965" lon="6.97621">
        <ele>207</ele>
        <time>2014-04-13T09:00:41Z</time>
      </trkpt>
      <trkpt lat="49.2197" lon="6.97605">
        <ele>206.8</ele>
        <time>2014-04-13T09:00:51Z</time>
      </trkpt>
      <trkpt lat="49.21971" lon="6.97596">
        <ele>206.6</ele>
        <time>2014-04-13T09:00:56Z</time>
      </trkpt>
      <trkpt lat="49.21973" lon="6.97587">
        <ele>206.8</ele>
        <time>2014-04-13T09:01:01Z</time>
      </trkpt>
      <trkpt lat="49.21975" lon="6.97579">
        <ele>206.1</ele>
        <time>2014-04-13T09:01:06Z</time>
      </trkpt>
      <trkpt lat="49.21979" lon="6.97569">
        <ele>205.7</ele>
        <time>2014-04-13T09:01:11Z</time>
      </trkpt>
      <trkpt lat="49.2198" lon="6.97561">
        <ele>205.1</ele>
        <time>2014-04-13T09:01:16Z</time>
      </trkpt>
      <trkpt lat="49.21983" lon="6.97552">
        <ele>205.4</ele>
        <time>2014-04-13T09:01:21Z</time>
      </trkpt>
      <trkpt lat="49.21986" lon="6.97543">
        <ele>204.7</ele>
        <time>2014-04-13T09:01:26Z</time>
      </trkpt>
      <trkpt lat="49.21989" lon="6.97532">
        <ele>204.8</ele>
        <time>2014-04-13T09:01:31Z</time>
      </trkpt>
      <trkpt lat="49.21993" lon="6.97522">
        <ele>204.8</ele>
        <time>2014-04-13T09:01:36Z</time>
      </trkpt>
      <trkpt lat="49.21996" lon="6.97508">
        <ele>203.8</ele>
        <time>2014-04-13T09:01:41Z</time>
      </trkpt>
      <trkpt lat="49.21999" lon="6.97497">
        <ele>202.9</ele>
        <time>2014-04-13T09:01:46Z</time>
      </trkpt>
      <trkpt lat="49.22006" lon="6.97476">
        <ele>203.9</ele>
        <time>2014-04-13T09:01:56Z</time>
      </trkpt>
      <trkpt lat="49.2201" lon="6.97464">
        <ele>203.8</ele>
        <time>2014-04-13T09:02:01Z</time>
      </trkpt>
      <trkpt lat="49.22014" lon="6.97453">
        <ele>202.7</ele>
        <time>2014-04-13T09:02:06Z</time>
      </trkpt>
      <trkpt lat="49.22017" lon="6.97443">
        <ele>203.8</ele>
        <time>2014-04-13T09:02:11Z</time>
      </trkpt>
      <trkpt lat="49.22019" lon="6.97432">
        <ele>203.6</ele>
        <time>2014-04-13T09:02:16Z</time>
      </trkpt>
      <trkpt lat="49.22022" lon="6.97423">
        <ele>203</ele>
        <time>2014-04-13T09:02:21Z</time>
      </trkpt>
      <trkpt lat="49.22025" lon="6.97413">
        <ele>202.4</ele>
        <time>2014-04-13T09:02:26Z</time>
      </trkpt>
      <trkpt lat="49.22028" lon="6.97402">
        <ele>201.9</ele>
        <time>2014-04-13T09:02:31Z</time>
      </trkpt>
      <trkpt lat="49.22032" lon="6.97391">
        <ele>202.1</ele>
        <time>2014-04-13T09:02:36Z</time>
      </trkpt>
      <trkpt lat="49.22035" lon="6.9738">
        <ele>201.6</ele>
        <time>2014-04-13T09:02:41Z</time>
      </trkpt>
      <trkpt lat="49.22038" lon="6.97367">
        <ele>202.1</ele>
        <time>2014-04-13T09:02:46Z</time>
      </trkpt>
      <trkpt lat="49.22041" lon="6.97355">
        <ele>201.6</ele>
        <time>2014-04-13T09:02:51Z</time>
      </trkpt>
      <trkpt lat="49.22046" lon="6.97333">
        <ele>201.2</ele>
        <time>2014-04-13T09:03:01Z</time>
      </trkpt>
      <trkpt lat="49.22049" lon="6.97321">
        <ele>201.5</ele>
        <time>2014-04-13T09:03:06Z</time>
      </trkpt>
      <trkpt lat="49.22053" lon="6.97311">
        <ele>200.1</ele>
        <time>2014-04-13T09:03:11Z</time>
      </trkpt>
      <trkpt lat="49.22055" lon="6.97298">
        <ele>200.5</ele>
        <time>2014-04-13T09:03:16Z</time>
      </trkpt>
      <trkpt lat="49.22058" lon="6.97286">
        <ele>199.7</ele>
        <time>2014-04-13T09:03:21Z</time>
      </trkpt>
      <trkpt lat="49.22061" lon="6.97275">
        <ele>199.7</ele>
        <time>2014-04-13T09:03:26Z</time>
      </trkpt>
      <trkpt lat="49.22064" lon="6.97263">
        <ele>200.2</ele>
        <time>2014-04-13T09:03:31Z</time>
      </trkpt>
      <trkpt lat="49.22067" lon="6.97254">
        <ele>200.7</ele>
        <time>2014-04-13T09:03:36Z</time>
      </trkpt>
      <trkpt lat="49.2207" lon="6.97244">
        <ele>199.7</ele>
        <time>2014-04-13T09:03:41Z</time>
      </trkpt>
      <trkpt lat="49.22072" lon="6.97235">
        <ele>200.8</ele>
        <time>2014-04-13T09:03:46Z</time>
      </trkpt>
      <trkpt lat="49.22074" lon="6.97226">
        <ele>200.7</ele>
        <time>2014-04-13T09:03:51Z</time>
      </trkpt>
      <trkpt lat="49.22076" lon="6.97216">
        <ele>201.6</ele>
        <time>2014-04-13T09:03:56Z</time>
      </trkpt>
      <trkpt lat="49.22079" lon="6.97194">
        <ele>202.9</ele>
        <time>2014-04-13T09:04:06Z</time>
      </trkpt>
      <trkpt lat="49.22082" lon="6.97184">
        <ele>203.2</ele>
        <time>2014-04-13T09:04:11Z</time>
      </trkpt>
      <trkpt lat="49.22085" lon="6.97176">
        <ele>202.5</ele>
        <time>2014-04-13T09:04:16Z</time>
      </trkpt>
      <trkpt lat="49.22088" lon="6.97172">
        <ele>203.4</ele>
        <time>2014-04-13T09:04:21Z</time>
      </trkpt>
      <trkpt lat="49.22091" lon="6.9717">
        <ele>203.8</ele>
        <time>2014-04-13T09:04:26Z</time>
      </trkpt>
      <trkpt lat="49.22096" lon="6.97163">
        <ele>204.7</ele>
        <time>2014-04-13T09:04:31Z</time>
      </trkpt>
      <trkpt lat="49.22101" lon="6.97158">
        <ele>204.1</ele>
        <time>2014-04-13T09:04:36Z</time>
      </trkpt>
      <trkpt lat="49.22103" lon="6.97158">
        <ele>204</ele>
        <time>2014-04-13T09:04:41Z</time>
      </trkpt>
      <trkpt lat="49.22105" lon="6.97157">
        <ele>204.4</ele>
        <time>2014-04-13T09:04:46Z</time>
      </trkpt>
      <trkpt lat="49.22106" lon="6.97156">
        <ele>204.3</ele>
        <time>2014-04-13T09:04:51Z</time>
      </trkpt>
      <trkpt lat="49.22108" lon="6.97156">
        <ele>203.5</ele>
        <time>2014-04-13T09:04:56Z</time>
      </trkpt>
      <trkpt lat="49.2211" lon="6.97156">
        <ele>203.4</ele>
        <time>2014-04-13T09:05:01Z</time>
      </trkpt>
      <trkpt lat="49.22118" lon="6.97158">
        <ele>204</ele>
        <time>2014-04-13T09:05:11Z</time>
      </trkpt>
      <trkpt lat="49.22121" lon="6.97159">
        <ele>204.2</ele>
        <time>2014-04-13T09:05:16Z</time>
      </trkpt>
      <trkpt lat="49.22125" lon="6.97159">
        <ele>203.3</ele>
        <time>2014-04-13T09:05:21Z</time>
      </trkpt>
      <trkpt lat="49.22127" lon="6.97162">
        <ele>203</ele>
        <time>2014-04-13T09:05:26Z</time>
      </trkpt>
      <trkpt lat="49.2213" lon="6.97162">
        <ele>203.7</ele>
        <time>2014-04-13T09:05:31Z</time>
      </trkpt>
      <trkpt lat="49.22131" lon="6.97161">
        <ele>203.4</ele>
        <time>2014-04-13T09:05:36Z</time>
      </trkpt>
      <trkpt lat="49.22132" lon="6.97161">
        <ele>203.2</ele>
        <time>2014-04-13T09:05:41Z</time>
      </trkpt>
      <trkpt lat="49.22133" lon="6.97163">
        <ele>203.4</ele>
        <time>2014-04-13T09:05:46Z</time>
      </trkpt>
      <trkpt lat="49.22137" lon="6.97164">
        <ele>203.1</ele>
        <time>2014-04-13T09:05:51Z</time>
      </trkpt>
      <trkpt lat="49.22141" lon="6.97164">
        <ele>201.8</ele>
        <time>2014-04-13T09:05:56Z</time>
      </trkpt>
      <trkpt lat="49.22145" lon="6.97162">
        <ele>202.1</ele>
        <time>2014-04-13T09:06:01Z</time>
      </trkpt>
      <trkpt lat="49.22148" lon="6.97157">
        <ele>201.7</ele>
        <time>2014-04-13T09:06:06Z</time>
      </trkpt>
      <trkpt lat="49.2215" lon="6.97154">
        <ele>200.9</ele>
        <time>2014-04-13T09:06:16Z</time>
      </trkpt>
      <trkpt lat="49.22151" lon="6.97151">
        <ele>201.5</ele>
        <time>2014-04-13T09:06:21Z</time>
      </trkpt>
      <trkpt lat="49.22152" lon="6.97147">
        <ele>201.2</ele>
        <time>2014-04-13T09:06:26Z</time>
      </trkpt>
      <trkpt lat="49.22155" lon="6.97142">
        <ele>201.1</ele>
        <time>2014-04-13T09:06:31Z</time>
      </trkpt>
      <trkpt lat="49.22158" lon="6.97136">
        <ele>200</ele>
        <time>2014-04-13T09:06:36Z</time>
      </trkpt>
      <trkpt lat="49.22161" lon="6.9713">
        <ele>199.4</ele>
        <time>2014-04-13T09:06:41Z</time>
      </trkpt>
      <trkpt lat="49.22164" lon="6.97124">
        <ele>198.9</ele>
        <time>2014-04-13T09:06:46Z</time>
      </trkpt>
      <trkpt lat="49.22167" lon="6.97118">
        <ele>198.9</ele>
        <time>2014-04-13T09:06:51Z</time>
      </trkpt>
      <trkpt lat="49.22171" lon="6.97112">
        <ele>199</ele>
        <time>2014-04-13T09:06:56Z</time>
      </trkpt>
      <trkpt lat="49.22173" lon="6.97109">
        <ele>198.8</ele>
        <time>2014-04-13T09:07:01Z</time>
      </trkpt>
      <trkpt lat="49.22176" lon="6.97104">
        <ele>198.3</ele>
        <time>2014-04-13T09:07:06Z</time>
      </trkpt>
      <trkpt lat="49.22179" lon="6.971">
        <ele>198.7</ele>
        <time>2014-04-13T09:07:11Z</time>
      </trkpt>
      <trkpt lat="49.22182" lon="6.97097">
        <ele>199.5</ele>
        <time>2014-04-13T09:07:21Z</time>
      </trkpt>
      <trkpt lat="49.22185" lon="6.971">
        <ele>199.4</ele>
        <time>2014-04-13T09:07:26Z</time>
      </trkpt>
      <trkpt lat="49.22189" lon="6.97102">
        <ele>198.5</ele>
        <time>2014-04-13T09:07:31Z</time>
      </trkpt>
      <trkpt lat="49.22194" lon="6.97103">
        <ele>198.9</ele>
        <time>2014-04-13T09:07:36Z</time>
      </trkpt>
      <trkpt lat="49.22198" lon="6.97106">
        <ele>198.8</ele>
        <time>2014-04-13T09:07:41Z</time>
      </trkpt>
      <trkpt lat="49.22203" lon="6.97104">
        <ele>198.8</ele>
        <time>2014-04-13T09:07:46Z</time>
      </trkpt>
      <trkpt lat="49.22207" lon="6.97106">
        <ele>199.1</ele>
        <time>2014-04-13T09:07:51Z</time>
      </trkpt>
      <trkpt lat="49.22211" lon="6.97111">
        <ele>198.3</ele>
        <time>2014-04-13T09:07:56Z</time>
      </trkpt>
      <trkpt lat="49.22215" lon="6.97116">
        <ele>199.1</ele>
        <time>2014-04-13T09:08:01Z</time>
      </trkpt>
      <trkpt lat="49.22219" lon="6.97116">
        <ele>199.6</ele>
        <time>2014-04-13T09:08:06Z</time>
      </trkpt>
      <trkpt lat="49.22223" lon="6.97115">
        <ele>199.5</ele>
        <time>2014-04-13T09:08:11Z</time>
      </trkpt>
      <trkpt lat="49.22226" lon="6.97113">
        <ele>199.5</ele>
        <time>2014-04-13T09:08:16Z</time>
      </trkpt>
      <trkpt lat="49.2223" lon="6.97108">
        <ele>199.2</ele>
        <time>2014-04-13T09:08:26Z</time>
      </trkpt>
      <trkpt lat="49.22232" lon="6.97105">
        <ele>199.1</ele>
        <time>2014-04-13T09:08:31Z</time>
      </trkpt>
      <trkpt lat="49.22233" lon="6.97102">
        <ele>199.3</ele>
        <time>2014-04-13T09:08:36Z</time>
      </trkpt>
      <trkpt lat="49.22234" lon="6.97099">
        <ele>199.3</ele>
        <time>2014-04-13T09:08:41Z</time>
      </trkpt>
      <trkpt lat="49.22235" lon="6.97095">
        <ele>199</ele>
        <time>2014-04-13T09:08:46Z</time>
      </trkpt>
      <trkpt lat="49.22236" lon="6.97093">
        <ele>199.6</ele>
        <time>2014-04-13T09:08:51Z</time>
      </trkpt>
      <trkpt lat="49.22236" lon="6.97091">
        <ele>199</ele>
        <time>2014-04-13T09:08:56Z</time>
      </trkpt>
      <trkpt lat="49.22237" lon="6.97088">
        <ele>198.8</ele>
        <time>2014-04-13T09:09:01Z</time>
      </trkpt>
      <trkpt lat="49.22239" lon="6.97086">
        <ele>198.8</ele>
        <time>2014-04-13T09:09:06Z</time>
      </trkpt>
      <trkpt lat="49.2224" lon="6.97082">
        <ele>198.4</ele>
        <time>2014-04-13T09:09:11Z</time>
      </trkpt>
      <trkpt lat="49.22241" lon="6.97081">
        <ele>198.5</ele>
        <time>2014-04-13T09:09:16Z</time>
      </trkpt>
      <trkpt lat="49.22243" lon="6.9708">
        <ele>198.5</ele>
        <time>2014-04-13T09:09:21Z</time>
      </trkpt>
      <trkpt lat="49.22245" lon="6.97077">
        <ele>197.7</ele>
        <time>2014-04-13T09:09:31Z</time>
      </trkpt>
      <trkpt lat="49.22245" lon="6.97077">
        <ele>197.7</ele>
        <time>2014-04-13T09:09:36Z</time>
      </trkpt>
      <trkpt lat="49.22245" lon="6.97077">
        <ele>197</ele>
        <time>2014-04-13T09:09:41Z</time>
      </trkpt>
      <trkpt lat="49.22245" lon="6.97077">
        <ele>197.8</ele>
        <time>2014-04-13T09:09:46Z</time>
      </trkpt>
      <trkpt lat="49.22247" lon="6.97076">
        <ele>198</ele>
        <time>2014-04-13T09:09:51Z</time>
      </trkpt>
      <trkpt lat="49.22247" lon="6.97076">
        <ele>198.3</ele>
        <time>2014-04-13T09:09:56Z</time>
      </trkpt>
      <trkpt lat="49.22247" lon="6.97075">
        <ele>198.3</ele>
        <time>2014-04-13T09:10:01Z</time>
      </trkpt>
      <trkpt lat="49.22246" lon="6.97073">
        <ele>198.2</ele>
        <time>2014-04-13T09:10:06Z</time>
      </trkpt>
      <trkpt lat="49.22248" lon="6.97071">
        <ele>198.5</ele>
        <time>2014-04-13T09:10:11Z</time>
      </trkpt>
      <trkpt lat="49.2225" lon="6.97067">
        <ele>198.2</ele>
        <time>2014-04-13T09:10:16Z</time>
      </trkpt>
      <trkpt lat="49.22253" lon="6.97063">
        <ele>197.8</ele>
        <time>2014-04-13T09:10:21Z</time>
      </trkpt>
      <trkpt lat="49.22255" lon="6.9706">
        <ele>195.5</ele>
        <time>2014-04-13T09:10:26Z</time>
      </trkpt>
      <trkpt lat="49.22263" lon="6.97049">
        <ele>196.2</ele>
        <time>2014-04-13T09:10:36Z</time>
      </trkpt>
      <trkpt lat="49.22265" lon="6.97045">
        <ele>196.5</ele>
        <time>2014-04-13T09:10:41Z</time>
      </trkpt>
      <trkpt lat="49.22267" lon="6.9704">
        <ele>195.6</ele>
        <time>2014-04-13T09:10:46Z</time>
      </trkpt>
      <trkpt lat="49.22269" lon="6.97036">
        <ele>195.3</ele>
        <time>2014-04-13T09:10:51Z</time>
      </trkpt>
      <trkpt lat="49.22269" lon="6.97034">
        <ele>195.3</ele>
        <time>2014-04-13T09:10:56Z</time>
      </trkpt>
      <trkpt lat="49.22269" lon="6.97033">
        <ele>195</ele>
        <time>2014-04-13T09:11:01Z</time>
      </trkpt>
      <trkpt lat="49.22268" lon="6.97032">
        <ele>195.7</ele>
        <time>2014-04-13T09:11:06Z</time>
      </trkpt>
      <trkpt lat="49.22269" lon="6.9703">
        <ele>196.1</ele>
        <time>2014-04-13T09:11:11Z</time>
      </trkpt>
      <trkpt lat="49.22269" lon="6.97029">
        <ele>195.6</ele>
        <time>2014-04-13T09:11:16Z</time>
      </trkpt>
      <trkpt lat="49.22269" lon="6.97027">
        <ele>195.1</ele>
        <time>2014-04-13T09:11:21Z</time>
      </trkpt>
      <trkpt lat="49.22269" lon="6.97026">
        <ele>196.5</ele>
        <time>2014-04-13T09:11:26Z</time>
      </trkpt>
      <trkpt lat="49.22269" lon="6.97025">
        <ele>195.6</ele>
        <time>2014-04-13T09:11:31Z</time>
      </trkpt>
      <trkpt lat="49.22269" lon="6.97023">
        <ele>196.2</ele>
        <time>2014-04-13T09:11:41Z</time>
      </trkpt>
      <trkpt lat="49.22269" lon="6.97022">
        <ele>195.2</ele>
        <time>2014-04-13T09:11:46Z</time>
      </trkpt>
      <trkpt lat="49.22269" lon="6.97021">
        <ele>196</ele>
        <time>2014-04-13T09:11:51Z</time>
      </trkpt>
      <trkpt lat="49.22269" lon="6.97021">
        <ele>195.9</ele>
        <time>2014-04-13T09:11:56Z</time>
      </trkpt>
      <trkpt lat="49.22269" lon="6.97022">
        <ele>195.9</ele>
        <time>2014-04-13T09:12:01Z</time>
      </trkpt>
      <trkpt lat="49.2227" lon="6.97022">
        <ele>195.2</ele>
        <time>2014-04-13T09:12:06Z</time>
      </trkpt>
      <trkpt lat="49.22271" lon="6.97022">
        <ele>196.3</ele>
        <time>2014-04-13T09:12:11Z</time>
      </trkpt>
      <trkpt lat="49.22272" lon="6.97023">
        <ele>195.5</ele>
        <time>2014-04-13T09:12:16Z</time>
      </trkpt>
      <trkpt lat="49.22273" lon="6.9702">
        <ele>195.9</ele>
        <time>2014-04-13T09:12:21Z</time>
      </trkpt>
      <trkpt lat="49.22276" lon="6.97017">
        <ele>195.1</ele>
        <time>2014-04-13T09:12:26Z</time>
      </trkpt>
      <trkpt lat="49.22279" lon="6.97013">
        <ele>195</ele>
        <time>2014-04-13T09:12:31Z</time>
      </trkpt>
      <trkpt lat="49.22282" lon="6.97007">
        <ele>194.8</ele>
        <time>2014-04-13T09:12:36Z</time>
      </trkpt>
      <trkpt lat="49.22289" lon="6.96997">
        <ele>194.8</ele>
        <time>2014-04-13T09:12:46Z</time>
      </trkpt>
      <trkpt lat="49.22293" lon="6.96991">
        <ele>194.7</ele>
        <time>2014-04-13T09:12:51Z</time>
      </trkpt>
      <trkpt lat="49.22296" lon="6.96984">
        <ele>193.4</ele>
        <time>2014-04-13T09:12:56Z</time>
      </trkpt>
      <trkpt lat="49.22299" lon="6.96976">
        <ele>193.9</ele>
        <time>2014-04-13T09:13:01Z</time>
      </trkpt>
      <trkpt lat="49.22302" lon="6.96969">
        <ele>192.9</ele>
        <time>2014-04-13T09:13:06Z</time>
      </trkpt>
      <trkpt lat="49.22306" lon="6.96963">
        <ele>193.2</ele>
        <time>2014-04-13T09:13:11Z</time>
      </trkpt>
      <trkpt lat="49.2231" lon="6.96958">
        <ele>194.1</ele>
        <time>2014-04-13T09:13:16Z</time>
      </trkpt>
      <trkpt lat="49.22314" lon="6.96954">
        <ele>194.1</ele>
        <time>2014-04-13T09:13:21Z</time>
      </trkpt>
      <trkpt lat="49.22316" lon="6.9695">
        <ele>193.9</ele>
        <time>2014-04-13T09:13:26Z</time>
      </trkpt>
      <trkpt lat="49.22317" lon="6.96949">
        <ele>192.9</ele>
        <time>2014-04-13T09:13:31Z</time>
      </trkpt>
      <trkpt lat="49.22317" lon="6.96947">
        <ele>193.4</ele>
        <time>2014-04-13T09:13:36Z</time>
      </trkpt>
      <trkpt lat="49.22317" lon="6.96945">
        <ele>193.7</ele>
        <time>2014-04-13T09:13:41Z</time>
      </trkpt>
      <trkpt lat="49.22318" lon="6.96941">
        <ele>193.3</ele>
        <time>2014-04-13T09:13:51Z</time>
      </trkpt>
      <trkpt lat="49.22318" lon="6.96937">
        <ele>192.6</ele>
        <time>2014-04-13T09:13:56Z</time>
      </trkpt>
      <trkpt lat="49.22319" lon="6.96935">
        <ele>192.2</ele>
        <time>2014-04-13T09:14:01Z</time>
      </trkpt>
      <trkpt lat="49.2232" lon="6.96931">
        <ele>192.8</ele>
        <time>2014-04-13T09:14:06Z</time>
      </trkpt>
      <trkpt lat="49.22321" lon="6.96928">
        <ele>193.1</ele>
        <time>2014-04-13T09:14:11Z</time>
      </trkpt>
      <trkpt lat="49.22322" lon="6.96924">
        <ele>192.9</ele>
        <time>2014-04-13T09:14:16Z</time>
      </trkpt>
      <trkpt lat="49.22325" lon="6.96923">
        <ele>194</ele>
        <time>2014-04-13T09:14:21Z</time>
      </trkpt>
      <trkpt lat="49.22329" lon="6.96922">
        <ele>193.4</ele>
        <time>2014-04-13T09:14:26Z</time>
      </trkpt>
      <trkpt lat="49.22332" lon="6.96923">
        <ele>193.1</ele>
        <time>2014-04-13T09:14:31Z</time>
      </trkpt>
      <trkpt lat="49.22335" lon="6.96922">
        <ele>193.1</ele>
        <time>2014-04-13T09:14:36Z</time>
      </trkpt>
      <trkpt lat="49.2234" lon="6.96921">
        <ele>192.7</ele>
        <time>2014-04-13T09:14:41Z</time>
      </trkpt>
      <trkpt lat="49.22346" lon="6.9692">
        <ele>192.6</ele>
        <time>2014-04-13T09:14:46Z</time>
      </trkpt>
      <trkpt lat="49.22356" lon="6.96912">
        <ele>193.6</ele>
        <time>2014-04-13T09:14:56Z</time>
      </trkpt>
      <trkpt lat="49.22362" lon="6.96908">
        <ele>193.4</ele>
        <time>2014-04-13T09:15:01Z</time>
      </trkpt>
      <trkpt lat="49.22367" lon="6.96903">
        <ele>192.7</ele>
        <time>2014-04-13T09:15:06Z</time>
      </trkpt>
      <trkpt lat="49.22372" lon="6.969">
        <ele>192.4</ele>
        <time>2014-04-13T09:15:11Z</time>
      </trkpt>
      <trkpt lat="49.22374" lon="6.96897">
        <ele>192.1</ele>
        <time>2014-04-13T09:15:16Z</time>
      </trkpt>
      <trkpt lat="49.2238" lon="6.96892">
        <ele>192.7</ele>
        <time>2014-04-13T09:15:21Z</time>
      </trkpt>
      <trkpt lat="49.22386" lon="6.96887">
        <ele>193.2</ele>
        <time>2014-04-13T09:15:26Z</time>
      </trkpt>
      <trkpt lat="49.22392" lon="6.96883">
        <ele>192.3</ele>
        <time>2014-04-13T09:15:31Z</time>
      </trkpt>
      <trkpt lat="49.22398" lon="6.96878">
        <ele>192</ele>
        <time>2014-04-13T09:15:36Z</time>
      </trkpt>
      <trkpt lat="49.22403" lon="6.96871">
        <ele>192.3</ele>
        <time>2014-04-13T09:15:41Z</time>
      </trkpt>
      <trkpt lat="49.22408" lon="6.96864">
        <ele>191.8</ele>
        <time>2014-04-13T09:15:46Z</time>
      </trkpt>
      <trkpt lat="49.22413" lon="6.96858">
        <ele>192.6</ele>
        <time>2014-04-13T09:15:51Z</time>
      </trkpt>
      <trkpt lat="49.22424" lon="6.96848">
        <ele>192.1</ele>
        <time>2014-04-13T09:16:01Z</time>
      </trkpt>
      <trkpt lat="49.22426" lon="6.96847">
        <ele>192.1</ele>
        <time>2014-04-13T09:16:06Z</time>
      </trkpt>
      <trkpt lat="49.22428" lon="6.96847">
        <ele>191.8</ele>
        <time>2014-04-13T09:16:11Z</time>
      </trkpt>
      <trkpt lat="49.22428" lon="6.96845">
        <ele>191.3</ele>
        <time>2014-04-13T09:16:16Z</time>
      </trkpt>
      <trkpt lat="49.22429" lon="6.96843">
        <ele>192</ele>
        <time>2014-04-13T09:16:21Z</time>
      </trkpt>
      <trkpt lat="49.2243" lon="6.96842">
        <ele>192.1</ele>
        <time>2014-04-13T09:16:26Z</time>
      </trkpt>
      <trkpt lat="49.22431" lon="6.96841">
        <ele>192</ele>
        <time>2014-04-13T09:16:31Z</time>
      </trkpt>
      <trkpt lat="49.22433" lon="6.9684">
        <ele>192.9</ele>
        <time>2014-04-13T09:16:36Z</time>
      </trkpt>
      <trkpt lat="49.22436" lon="6.96838">
        <ele>192.4</ele>
        <time>2014-04-13T09:16:41Z</time>
      </trkpt>
      <trkpt lat="49.2244" lon="6.96838">
        <ele>192.1</ele>
        <time>2014-04-13T09:16:46Z</time>
      </trkpt>
      <trkpt lat="49.22443" lon="6.96838">
        <ele>192.7</ele>
        <time>2014-04-13T09:16:51Z</time>
      </trkpt>
      <trkpt lat="49.22446" lon="6.96837">
        <ele>192.2</ele>
        <time>2014-04-13T09:16:56Z</time>
      </trkpt>
      <trkpt lat="49.22451" lon="6.96835">
        <ele>192.4</ele>
        <time>2014-04-13T09:17:06Z</time>
      </trkpt>
      <trkpt lat="49.22452" lon="6.96833">
        <ele>192</ele>
        <time>2014-04-13T09:17:11Z</time>
      </trkpt>
      <trkpt lat="49.22452" lon="6.9683">
        <ele>192.5</ele>
        <time>2014-04-13T09:17:16Z</time>
      </trkpt>
      <trkpt lat="49.22452" lon="6.96823">
        <ele>192.8</ele>
        <time>2014-04-13T09:17:21Z</time>
      </trkpt>
      <trkpt lat="49.22453" lon="6.96816">
        <ele>191.4</ele>
        <time>2014-04-13T09:17:26Z</time>
      </trkpt>
      <trkpt lat="49.22453" lon="6.9681">
        <ele>191.2</ele>
        <time>2014-04-13T09:17:31Z</time>
      </trkpt>
      <trkpt lat="49.22453" lon="6.96803">
        <ele>191.7</ele>
        <time>2014-04-13T09:17:36Z</time>
      </trkpt>
      <trkpt lat="49.22453" lon="6.96795">
        <ele>191.3</ele>
        <time>2014-04-13T09:17:41Z</time>
      </trkpt>
      <trkpt lat="49.22454" lon="6.96787">
        <ele>190.4</ele>
        <time>2014-04-13T09:17:46Z</time>
      </trkpt>
      <trkpt lat="49.22455" lon="6.96778">
        <ele>190.1</ele>
        <time>2014-04-13T09:17:51Z</time>
      </trkpt>
      <trkpt lat="49.22456" lon="6.96769">
        <ele>191</ele>
        <time>2014-04-13T09:17:56Z</time>
      </trkpt>
      <trkpt lat="49.22457" lon="6.96759">
        <ele>190.9</ele>
        <time>2014-04-13T09:18:01Z</time>
      </trkpt>
      <trkpt lat="49.2246" lon="6.96741">
        <ele>190.4</ele>
        <time>2014-04-13T09:18:11Z</time>
      </trkpt>
      <trkpt lat="49.22461" lon="6.9673">
        <ele>189.8</ele>
        <time>2014-04-13T09:18:16Z</time>
      </trkpt>
      <trkpt lat="49.22463" lon="6.96717">
        <ele>188.9</ele>
        <time>2014-04-13T09:18:21Z</time>
      </trkpt>
      <trkpt lat="49.22465" lon="6.96707">
        <ele>188.7</ele>
        <time>2014-04-13T09:18:26Z</time>
      </trkpt>
      <trkpt lat="49.22467" lon="6.96697">
        <ele>189.2</ele>
        <time>2014-04-13T09:18:31Z</time>
      </trkpt>
      <trkpt lat="49.22469" lon="6.96688">
        <ele>188.9</ele>
        <time>2014-04-13T09:18:36Z</time>
      </trkpt>
      <trkpt lat="49.22471" lon="6.96679">
        <ele>188.3</ele>
        <time>2014-04-13T09:18:41Z</time>
      </trkpt>
      <trkpt lat="49.22473" lon="6.96668">
        <ele>188.1</ele>
        <time>2014-04-13T09:18:46Z</time>
      </trkpt>
      <trkpt lat="49.22476" lon="6.96658">
        <ele>188.3</ele>
        <time>2014-04-13T09:18:51Z</time>
      </trkpt>
      <trkpt lat="49.22479" lon="6.9665">
        <ele>188.6</ele>
        <time>2014-04-13T09:18:56Z</time>
      </trkpt>
      <trkpt lat="49.22481" lon="6.9664">
        <ele>188.1</ele>
        <time>2014-04-13T09:19:01Z</time>
      </trkpt>
      <trkpt lat="49.22485" lon="6.96632">
        <ele>187.7</ele>
        <time>2014-04-13T09:19:06Z</time>
      </trkpt>
      <trkpt lat="49.22491" lon="6.96615">
        <ele>187.7</ele>
        <time>2014-04-13T09:19:16Z</time>
      </trkpt>
      <trkpt lat="49.22495" lon="6.96606">
        <ele>187.5</ele>
        <time>2014-04-13T09:19:21Z</time>
      </trkpt>
      <trkpt lat="49.22498" lon="6.96597">
        <ele>187</ele>
        <time>2014-04-13T09:19:26Z</time>
      </trkpt>
      <trkpt lat="49.22501" lon="6.96587">
        <ele>186.7</ele>
        <time>2014-04-13T09:19:31Z</time>
      </trkpt>
      <trkpt lat="49.22505" lon="6.96578">
        <ele>186.3</ele>
        <time>2014-04-13T09:19:36Z</time>
      </trkpt>
      <trkpt lat="49.22509" lon="6.96568">
        <ele>186.6</ele>
        <time>2014-04-13T09:19:41Z</time>
      </trkpt>
      <trkpt lat="49.22513" lon="6.96558">
        <ele>185.6</ele>
        <time>2014-04-13T09:19:46Z</time>
      </trkpt>
      <trkpt lat="49.22516" lon="6.96549">
        <ele>186.1</ele>
        <time>2014-04-13T09:19:51Z</time>
      </trkpt>
      <trkpt lat="49.2252" lon="6.96539">
        <ele>186.5</ele>
        <time>2014-04-13T09:19:56Z</time>
      </trkpt>
      <trkpt lat="49.22523" lon="6.9653">
        <ele>186.5</ele>
        <time>2014-04-13T09:20:01Z</time>
      </trkpt>
      <trkpt lat="49.22527" lon="6.96519">
        <ele>186.4</ele>
        <time>2014-04-13T09:20:06Z</time>
      </trkpt>
      <trkpt lat="49.2253" lon="6.96509">
        <ele>185.8</ele>
        <time>2014-04-13T09:20:11Z</time>
      </trkpt>
      <trkpt lat="49.22536" lon="6.96487">
        <ele>185.7</ele>
        <time>2014-04-13T09:20:21Z</time>
      </trkpt>
      <trkpt lat="49.22536" lon="6.96477">
        <ele>184.9</ele>
        <time>2014-04-13T09:20:26Z</time>
      </trkpt>
      <trkpt lat="49.22534" lon="6.96467">
        <ele>184.4</ele>
        <time>2014-04-13T09:20:31Z</time>
      </trkpt>
      <trkpt lat="49.22532" lon="6.9646">
        <ele>183.7</ele>
        <time>2014-04-13T09:20:36Z</time>
      </trkpt>
      <trkpt lat="49.22532" lon="6.96451">
        <ele>182.9</ele>
        <time>2014-04-13T09:20:41Z</time>
      </trkpt>
      <trkpt lat="49.22531" lon="6.96441">
        <ele>182.1</ele>
        <time>2014-04-13T09:20:46Z</time>
      </trkpt>
      <trkpt lat="49.22531" lon="6.96431">
        <ele>181.5</ele>
        <time>2014-04-13T09:20:51Z</time>
      </trkpt>
      <trkpt lat="49.2253" lon="6.96416">
        <ele>180</ele>
        <time>2014-04-13T09:20:56Z</time>
      </trkpt>
      <trkpt lat="49.22531" lon="6.96401">
        <ele>179</ele>
        <time>2014-04-13T09:21:01Z</time>
      </trkpt>
      <trkpt lat="49.22533" lon="6.9639">
        <ele>178.7</ele>
        <time>2014-04-13T09:21:06Z</time>
      </trkpt>
      <trkpt lat="49.22537" lon="6.96382">
        <ele>178.8</ele>
        <time>2014-04-13T09:21:11Z</time>
      </trkpt>
      <trkpt lat="49.22541" lon="6.96377">
        <ele>178</ele>
        <time>2014-04-13T09:21:16Z</time>
      </trkpt>
      <trkpt lat="49.2255" lon="6.96374">
        <ele>177.9</ele>
        <time>2014-04-13T09:21:26Z</time>
      </trkpt>
      <trkpt lat="49.22553" lon="6.9637">
        <ele>178.3</ele>
        <time>2014-04-13T09:21:31Z</time>
      </trkpt>
      <trkpt lat="49.22558" lon="6.96365">
        <ele>178.8</ele>
        <time>2014-04-13T09:21:36Z</time>
      </trkpt>
      <trkpt lat="49.22564" lon="6.96361">
        <ele>178.7</ele>
        <time>2014-04-13T09:21:41Z</time>
      </trkpt>
      <trkpt lat="49.22568" lon="6.96359">
        <ele>178.1</ele>
        <time>2014-04-13T09:21:46Z</time>
      </trkpt>
      <trkpt lat="49.22572" lon="6.96354">
        <ele>177.8</ele>
        <time>2014-04-13T09:21:51Z</time>
      </trkpt>
      <trkpt lat="49.22574" lon="6.96348">
        <ele>178.3</ele>
        <time>2014-04-13T09:21:56Z</time>
      </trkpt>
      <trkpt lat="49.22576" lon="6.96343">
        <ele>178.9</ele>
        <time>2014-04-13T09:22:01Z</time>
      </trkpt>
      <trkpt lat="49.22577" lon="6.96341">
        <ele>178.1</ele>
        <time>2014-04-13T09:22:06Z</time>
      </trkpt>
      <trkpt lat="49.22578" lon="6.9634">
        <ele>177.1</ele>
        <time>2014-04-13T09:22:11Z</time>
      </trkpt>
      <trkpt lat="49.22579" lon="6.9634">
        <ele>176.7</ele>
        <time>2014-04-13T09:22:16Z</time>
      </trkpt>
      <trkpt lat="49.2258" lon="6.9634">
        <ele>177.4</ele>
        <time>2014-04-13T09:22:21Z</time>
      </trkpt>
      <trkpt lat="49.22582" lon="6.9634">
        <ele>177.3</ele>
        <time>2014-04-13T09:22:31Z</time>
      </trkpt>
      <trkpt lat="49.22583" lon="6.9634">
        <ele>177.5</ele>
        <time>2014-04-13T09:22:36Z</time>
      </trkpt>
      <trkpt lat="49.22583" lon="6.9634">
        <ele>177</ele>
        <time>2014-04-13T09:22:41Z</time>
      </trkpt>
      <trkpt lat="49.22584" lon="6.9634">
        <ele>177.5</ele>
        <time>2014-04-13T09:22:46Z</time>
      </trkpt>
      <trkpt lat="49.22584" lon="6.9634">
        <ele>177.7</ele>
        <time>2014-04-13T09:22:51Z</time>
      </trkpt>
      <trkpt lat="49.22584" lon="6.96341">
        <ele>177.5</ele>
        <time>2014-04-13T09:22:56Z</time>
      </trkpt>
      <trkpt lat="49.22585" lon="6.96341">
        <ele>177.3</ele>
        <time>2014-04-13T09:23:01Z</time>
      </trkpt>
      <trkpt lat="49.22585" lon="6.96342">
        <ele>177.5</ele>
        <time>2014-04-13T09:23:06Z</time>
      </trkpt>
      <trkpt lat="49.22585" lon="6.96343">
        <ele>177.4</ele>
        <time>2014-04-13T09:23:11Z</time>
      </trkpt>
      <trkpt lat="49.22586" lon="6.96344">
        <ele>177</ele>
        <time>2014-04-13T09:23:16Z</time>
      </trkpt>
      <trkpt lat="49.22586" lon="6.96344">
        <ele>177.8</ele>
        <time>2014-04-13T09:23:21Z</time>
      </trkpt>
      <trkpt lat="49.22586" lon="6.96345">
        <ele>177.5</ele>
        <time>2014-04-13T09:23:26Z</time>
      </trkpt>
      <trkpt lat="49.22585" lon="6.96346">
        <ele>177.7</ele>
        <time>2014-04-13T09:23:36Z</time>
      </trkpt>
      <trkpt lat="49.22585" lon="6.96345">
        <ele>177.4</ele>
        <time>2014-04-13T09:23:41Z</time>
      </trkpt>
      <trkpt lat="49.22584" lon="6.96344">
        <ele>176.6</ele>
        <time>2014-04-13T09:23:46Z</time>
      </trkpt>
      <trkpt lat="49.22584" lon="6.96343">
        <ele>177.2</ele>
        <time>2014-04-13T09:23:51Z</time>
      </trkpt>
      <trkpt lat="49.22584" lon="6.96341">
        <ele>177.8</ele>
        <time>2014-04-13T09:23:56Z</time>
      </trkpt>
      <trkpt lat="49.22583" lon="6.9634">
        <ele>178.3</ele>
        <time>2014-04-13T09:24:01Z</time>
      </trkpt>
      <trkpt lat="49.22583" lon="6.9634">
        <ele>177.7</ele>
        <time>2014-04-13T09:24:06Z</time>
      </trkpt>
      <trkpt lat="49.22583" lon="6.96339">
        <ele>178.1</ele>
        <time>2014-04-13T09:24:11Z</time>
      </trkpt>
      <trkpt lat="49.22583" lon="6.96338">
        <ele>177.7</ele>
        <time>2014-04-13T09:24:16Z</time>
      </trkpt>
      <trkpt lat="49.22583" lon="6.96336">
        <ele>178.1</ele>
        <time>2014-04-13T09:24:21Z</time>
      </trkpt>
      <trkpt lat="49.22583" lon="6.96333">
        <ele>177.9</ele>
        <time>2014-04-13T09:24:26Z</time>
      </trkpt>
      <trkpt lat="49.22583" lon="6.96332">
        <ele>178.4</ele>
        <time>2014-04-13T09:24:31Z</time>
      </trkpt>
      <trkpt lat="49.22583" lon="6.96333">
        <ele>178.5</ele>
        <time>2014-04-13T09:24:41Z</time>
      </trkpt>
      <trkpt lat="49.22583" lon="6.96334">
        <ele>178.1</ele>
        <time>2014-04-13T09:24:46Z</time>
      </trkpt>
      <trkpt lat="49.22583" lon="6.96334">
        <ele>178.9</ele>
        <time>2014-04-13T09:24:51Z</time>
      </trkpt>
      <trkpt lat="49.22583" lon="6.96334">
        <ele>178.9</ele>
        <time>2014-04-13T09:24:56Z</time>
      </trkpt>
      <trkpt lat="49.22583" lon="6.96335">
        <ele>178.5</ele>
        <time>2014-04-13T09:25:01Z</time>
      </trkpt>
      <trkpt lat="49.22583" lon="6.96336">
        <ele>178.6</ele>
        <time>2014-04-13T09:25:06Z</time>
      </trkpt>
      <trkpt lat="49.22583" lon="6.96338">
        <ele>178.7</ele>
        <time>2014-04-13T09:25:11Z</time>
      </trkpt>
      <trkpt lat="49.22582" lon="6.9634">
        <ele>178.6</ele>
        <time>2014-04-13T09:25:16Z</time>
      </trkpt>
      <trkpt lat="49.22581" lon="6.96339">
        <ele>178.4</ele>
        <time>2014-04-13T09:25:21Z</time>
      </trkpt>
      <trkpt lat="49.22577" lon="6.96334">
        <ele>177.9</ele>
        <time>2014-04-13T09:25:26Z</time>
      </trkpt>
      <trkpt lat="49.22574" lon="6.96328">
        <ele>177.4</ele>
        <time>2014-04-13T09:25:31Z</time>
      </trkpt>
      <trkpt lat="49.2257" lon="6.9632">
        <ele>178.5</ele>
        <time>2014-04-13T09:25:36Z</time>
      </trkpt>
      <trkpt lat="49.22563" lon="6.96303">
        <ele>178</ele>
        <time>2014-04-13T09:25:46Z</time>
      </trkpt>
      <trkpt lat="49.2256" lon="6.96295">
        <ele>178.1</ele>
        <time>2014-04-13T09:25:51Z</time>
      </trkpt>
      <trkpt lat="49.22557" lon="6.96289">
        <ele>178</ele>
        <time>2014-04-13T09:25:56Z</time>
      </trkpt>
      <trkpt lat="49.22555" lon="6.96282">
        <ele>178.3</ele>
        <time>2014-04-13T09:26:01Z</time>
      </trkpt>
      <trkpt lat="49.22552" lon="6.96277">
        <ele>177</ele>
        <time>2014-04-13T09:26:06Z</time>
      </trkpt>
      <trkpt lat="49.2255" lon="6.96271">
        <ele>176.3</ele>
        <time>2014-04-13T09:26:11Z</time>
      </trkpt>
      <trkpt lat="49.22547" lon="6.96265">
        <ele>175.4</ele>
        <time>2014-04-13T09:26:16Z</time>
      </trkpt>
      <trkpt lat="49.22545" lon="6.96258">
        <ele>176.2</ele>
        <time>2014-04-13T09:26:21Z</time>
      </trkpt>
      <trkpt lat="49.22542" lon="6.96251">
        <ele>175.8</ele>
        <time>2014-04-13T09:26:26Z</time>
      </trkpt>
      <trkpt lat="49.22539" lon="6.96244">
        <ele>175.5</ele>
        <time>2014-04-13T09:26:31Z</time>
      </trkpt>
      <trkpt lat="49.22537" lon="6.96241">
        <ele>175.5</ele>
        <time>2014-04-13T09:26:36Z</time>
      </trkpt>
      <trkpt lat="49.22536" lon="6.96236">
        <ele>176.2</ele>
        <time>2014-04-13T09:26:41Z</time>
      </trkpt>
      <trkpt lat="49.22535" lon="6.96229">
        <ele>176.2</ele>
        <time>2014-04-13T09:26:51Z</time>
      </trkpt>
      <trkpt lat="49.22534" lon="6.96226">
        <ele>176.3</ele>
        <time>2014-04-13T09:26:56Z</time>
      </trkpt>
      <trkpt lat="49.22534" lon="6.96224">
        <ele>176.2</ele>
        <time>2014-04-13T09:27:01Z</time>
      </trkpt>
      <trkpt lat="49.22534" lon="6.9622">
        <ele>176.1</ele>
        <time>2014-04-13T09:27:06Z</time>
      </trkpt>
      <trkpt lat="49.22533" lon="6.96216">
        <ele>176.1</ele>
        <time>2014-04-13T09:27:11Z</time>
      </trkpt>
      <trkpt lat="49.22532" lon="6.9621">
        <ele>175.4</ele>
        <time>2014-04-13T09:27:16Z</time>
      </trkpt>
      <trkpt lat="49.2253" lon="6.96205">
        <ele>175.7</ele>
        <time>2014-04-13T09:27:21Z</time>
      </trkpt>
      <trkpt lat="49.22528" lon="6.96201">
        <ele>176.4</ele>
        <time>2014-04-13T09:27:26Z</time>
      </trkpt>
      <trkpt lat="49.22526" lon="6.96196">
        <ele>176.4</ele>
        <time>2014-04-13T09:27:31Z</time>
      </trkpt>
      <trkpt lat="49.22523" lon="6.96191">
        <ele>176</ele>
        <time>2014-04-13T09:27:36Z</time>
      </trkpt>
      <trkpt lat="49.22521" lon="6.96187">
        <ele>175.8</ele>
        <time>2014-04-13T09:27:41Z</time>
      </trkpt>
      <trkpt lat="49.2252" lon="6.96186">
        <ele>175.6</ele>
        <time>2014-04-13T09:27:46Z</time>
      </trkpt>
      <trkpt lat="49.22519" lon="6.96184">
        <ele>176.8</ele>
        <time>2014-04-13T09:27:56Z</time>
      </trkpt>
      <trkpt lat="49.22519" lon="6.96185">
        <ele>176.3</ele>
        <time>2014-04-13T09:28:01Z</time>
      </trkpt>
      <trkpt lat="49.22519" lon="6.96185">
        <ele>175.6</ele>
        <time>2014-04-13T09:28:06Z</time>
      </trkpt>
      <trkpt lat="49.2252" lon="6.96186">
        <ele>175.9</ele>
        <time>2014-04-13T09:28:11Z</time>
      </trkpt>
      <trkpt lat="49.22522" lon="6.96187">
        <ele>176</ele>
        <time>2014-04-13T09:28:16Z</time>
      </trkpt>
      <trkpt lat="49.22525" lon="6.96189">
        <ele>176.4</ele>
        <time>2014-04-13T09:28:21Z</time>
      </trkpt>
      <trkpt lat="49.22529" lon="6.9619">
        <ele>177.2</ele>
        <time>2014-04-13T09:28:26Z</time>
      </trkpt>
      <trkpt lat="49.22535" lon="6.96191">
        <ele>177.2</ele>
        <time>2014-04-13T09:28:31Z</time>
      </trkpt>
      <trkpt lat="49.22539" lon="6.96192">
        <ele>176.7</ele>
        <time>2014-04-13T09:28:36Z</time>
      </trkpt>
      <trkpt lat="49.22542" lon="6.96191">
        <ele>177</ele>
        <time>2014-04-13T09:28:41Z</time>
      </trkpt>
      <trkpt lat="49.22545" lon="6.9619">
        <ele>176.4</ele>
        <time>2014-04-13T09:28:46Z</time>
      </trkpt>
      <trkpt lat="49.22548" lon="6.96186">
        <ele>177.2</ele>
        <time>2014-04-13T09:28:51Z</time>
      </trkpt>
      <trkpt lat="49.22556" lon="6.96176">
        <ele>176.8</ele>
        <time>2014-04-13T09:29:01Z</time>
      </trkpt>
      <trkpt lat="49.2256" lon="6.96174">
        <ele>176.8</ele>
        <time>2014-04-13T09:29:06Z</time>
      </trkpt>
      <trkpt lat="49.22563" lon="6.96173">
        <ele>176.7</ele>
        <time>2014-04-13T09:29:11Z</time>
      </trkpt>
      <trkpt lat="49.22567" lon="6.96174">
        <ele>176.9</ele>
        <time>2014-04-13T09:29:16Z</time>
      </trkpt>
      <trkpt lat="49.22571" lon="6.96177">
        <ele>176.8</ele>
        <time>2014-04-13T09:29:21Z</time>
      </trkpt>
      <trkpt lat="49.22575" lon="6.9618">
        <ele>177</ele>
        <time>2014-04-13T09:29:26Z</time>
      </trkpt>
      <trkpt lat="49.22579" lon="6.96185">
        <ele>176.8</ele>
        <time>2014-04-13T09:29:31Z</time>
      </trkpt>
      <trkpt lat="49.22584" lon="6.96187">
        <ele>177.2</ele>
        <time>2014-04-13T09:29:36Z</time>
      </trkpt>
      <trkpt lat="49.22589" lon="6.96191">
        <ele>177.3</ele>
        <time>2014-04-13T09:29:41Z</time>
      </trkpt>
      <trkpt lat="49.22594" lon="6.96194">
        <ele>177.4</ele>
        <time>2014-04-13T09:29:46Z</time>
      </trkpt>
      <trkpt lat="49.226" lon="6.96199">
        <ele>177.3</ele>
        <time>2014-04-13T09:29:51Z</time>
      </trkpt>
      <trkpt lat="49.22605" lon="6.96204">
        <ele>177.1</ele>
        <time>2014-04-13T09:29:56Z</time>
      </trkpt>
      <trkpt lat="49.22616" lon="6.96214">
        <ele>176.9</ele>
        <time>2014-04-13T09:30:06Z</time>
      </trkpt>
      <trkpt lat="49.22622" lon="6.96218">
        <ele>176.8</ele>
        <time>2014-04-13T09:30:11Z</time>
      </trkpt>
      <trkpt lat="49.22627" lon="6.96222">
        <ele>177.4</ele>
        <time>2014-04-13T09:30:16Z</time>
      </trkpt>
      <trkpt lat="49.22633" lon="6.96224">
        <ele>177.8</ele>
        <time>2014-04-13T09:30:21Z</time>
      </trkpt>
      <trkpt lat="49.22638" lon="6.96224">
        <ele>177.5</ele>
        <time>2014-04-13T09:30:26Z</time>
      </trkpt>
      <trkpt lat="49.22644" lon="6.96225">
        <ele>176.3</ele>
        <time>2014-04-13T09:30:31Z</time>
      </trkpt>
      <trkpt lat="49.22649" lon="6.96226">
        <ele>176.2</ele>
        <time>2014-04-13T09:30:36Z</time>
      </trkpt>
      <trkpt lat="49.22655" lon="6.96227">
        <ele>176.8</ele>
        <time>2014-04-13T09:30:41Z</time>
      </trkpt>
      <trkpt lat="49.22661" lon="6.96229">
        <ele>177</ele>
        <time>2014-04-13T09:30:46Z</time>
      </trkpt>
      <trkpt lat="49.22667" lon="6.9623">
        <ele>176.9</ele>
        <time>2014-04-13T09:30:51Z</time>
      </trkpt>
      <trkpt lat="49.22674" lon="6.96231">
        <ele>176.6</ele>
        <time>2014-04-13T09:30:56Z</time>
      </trkpt>
      <trkpt lat="49.22681" lon="6.96232">
        <ele>176.4</ele>
        <time>2014-04-13T09:31:01Z</time>
      </trkpt>
      <trkpt lat="49.22695" lon="6.96233">
        <ele>177.7</ele>
        <time>2014-04-13T09:31:11Z</time>
      </trkpt>
      <trkpt lat="49.22702" lon="6.96234">
        <ele>177.6</ele>
        <time>2014-04-13T09:31:16Z</time>
      </trkpt>
      <trkpt lat="49.22707" lon="6.96236">
        <ele>177.3</ele>
        <time>2014-04-13T09:31:21Z</time>
      </trkpt>
      <trkpt lat="49.22714" lon="6.96238">
        <ele>177.1</ele>
        <time>2014-04-13T09:31:26Z</time>
      </trkpt>
      <trkpt lat="49.2272" lon="6.9624">
        <ele>176.6</ele>
        <time>2014-04-13T09:31:31Z</time>
      </trkpt>
      <trkpt lat="49.22727" lon="6.96241">
        <ele>175.1</ele>
        <time>2014-04-13T09:31:36Z</time>
      </trkpt>
      <trkpt lat="49.22733" lon="6.9624">
        <ele>175.1</ele>
        <time>2014-04-13T09:31:41Z</time>
      </trkpt>
      <trkpt lat="49.2274" lon="6.96236">
        <ele>175.2</ele>
        <time>2014-04-13T09:31:46Z</time>
      </trkpt>
      <trkpt lat="49.22746" lon="6.96232">
        <ele>175.4</ele>
        <time>2014-04-13T09:31:51Z</time>
      </trkpt>
      <trkpt lat="49.22753" lon="6.96228">
        <ele>176.2</ele>
        <time>2014-04-13T09:31:56Z</time>
      </trkpt>
      <trkpt lat="49.2276" lon="6.96223">
        <ele>176.8</ele>
        <time>2014-04-13T09:32:01Z</time>
      </trkpt>
      <trkpt lat="49.22764" lon="6.96219">
        <ele>177.1</ele>
        <time>2014-04-13T09:32:06Z</time>
      </trkpt>
      <trkpt lat="49.22777" lon="6.96209">
        <ele>176.8</ele>
        <time>2014-04-13T09:32:16Z</time>
      </trkpt>
      <trkpt lat="49.22784" lon="6.96205">
        <ele>176.9</ele>
        <time>2014-04-13T09:32:21Z</time>
      </trkpt>
      <trkpt lat="49.22791" lon="6.96199">
        <ele>176.9</ele>
        <time>2014-04-13T09:32:26Z</time>
      </trkpt>
      <trkpt lat="49.22796" lon="6.96194">
        <ele>176.7</ele>
        <time>2014-04-13T09:32:31Z</time>
      </trkpt>
      <trkpt lat="49.22802" lon="6.96189">
        <ele>176.6</ele>
        <time>2014-04-13T09:32:36Z</time>
      </trkpt>
      <trkpt lat="49.22807" lon="6.96184">
        <ele>176.1</ele>
        <time>2014-04-13T09:32:41Z</time>
      </trkpt>
      <trkpt lat="49.22812" lon="6.96179">
        <ele>176.7</ele>
        <time>2014-04-13T09:32:46Z</time>
      </trkpt>
      <trkpt lat="49.22817" lon="6.96175">
        <ele>176.8</ele>
        <time>2014-04-13T09:32:51Z</time>
      </trkpt>
      <trkpt lat="49.22822" lon="6.96171">
        <ele>176.7</ele>
        <time>2014-04-13T09:32:56Z</time>
      </trkpt>
      <trkpt lat="49.22827" lon="6.96165">
        <ele>177</ele>
        <time>2014-04-13T09:33:01Z</time>
      </trkpt>
      <trkpt lat="49.22831" lon="6.96161">
        <ele>176.8</ele>
        <time>2014-04-13T09:33:06Z</time>
      </trkpt>
      <trkpt lat="49.22836" lon="6.96156">
        <ele>176</ele>
        <time>2014-04-13T09:33:11Z</time>
      </trkpt>
      <trkpt lat="49.22847" lon="6.96151">
        <ele>175.8</ele>
        <time>2014-04-13T09:33:21Z</time>
      </trkpt>
      <trkpt lat="49.22852" lon="6.96148">
        <ele>175.9</ele>
        <time>2014-04-13T09:33:26Z</time>
      </trkpt>
      <trkpt lat="49.22858" lon="6.96147">
        <ele>176.4</ele>
        <time>2014-04-13T09:33:31Z</time>
      </trkpt>
      <trkpt lat="49.22862" lon="6.96148">
        <ele>176.7</ele>
        <time>2014-04-13T09:33:36Z</time>
      </trkpt>
      <trkpt lat="49.22868" lon="6.96149">
        <ele>176.7</ele>
        <time>2014-04-13T09:33:41Z</time>
      </trkpt>
      <trkpt lat="49.22873" lon="6.9615">
        <ele>176.4</ele>
        <time>2014-04-13T09:33:46Z</time>
      </trkpt>
      <trkpt lat="49.22878" lon="6.96151">
        <ele>176.3</ele>
        <time>2014-04-13T09:33:51Z</time>
      </trkpt>
      <trkpt lat="49.22882" lon="6.96154">
        <ele>176.1</ele>
        <time>2014-04-13T09:33:56Z</time>
      </trkpt>
      <trkpt lat="49.22887" lon="6.96158">
        <ele>176.3</ele>
        <time>2014-04-13T09:34:01Z</time>
      </trkpt>
      <trkpt lat="49.22892" lon="6.96163">
        <ele>176.2</ele>
        <time>2014-04-13T09:34:06Z</time>
      </trkpt>
      <trkpt lat="49.22896" lon="6.96168">
        <ele>176.7</ele>
        <time>2014-04-13T09:34:11Z</time>
      </trkpt>
      <trkpt lat="49.22901" lon="6.96172">
        <ele>176.3</ele>
        <time>2014-04-13T09:34:16Z</time>
      </trkpt>
      <trkpt lat="49.22913" lon="6.96176">
        <ele>176</ele>
        <time>2014-04-13T09:34:26Z</time>
      </trkpt>
      <trkpt lat="49.22919" lon="6.96176">
        <ele>175.9</ele>
        <time>2014-04-13T09:34:31Z</time>
      </trkpt>
      <trkpt lat="49.22925" lon="6.96174">
        <ele>175.9</ele>
        <time>2014-04-13T09:34:36Z</time>
      </trkpt>
      <trkpt lat="49.22929" lon="6.96173">
        <ele>176.1</ele>
        <time>2014-04-13T09:34:41Z</time>
      </trkpt>
      <trkpt lat="49.22933" lon="6.96171">
        <ele>176.9</ele>
        <time>2014-04-13T09:34:46Z</time>
      </trkpt>
      <trkpt lat="49.22935" lon="6.9617">
        <ele>177.2</ele>
        <time>2014-04-13T09:34:51Z</time>
      </trkpt>
      <trkpt lat="49.22936" lon="6.96169">
        <ele>175.9</ele>
        <time>2014-04-13T09:34:56Z</time>
      </trkpt>
      <trkpt lat="49.22937" lon="6.96169">
        <ele>176.9</ele>
        <time>2014-04-13T09:35:01Z</time>
      </trkpt>
      <trkpt lat="49.22937" lon="6.96167">
        <ele>176.8</ele>
        <time>2014-04-13T09:35:06Z</time>
      </trkpt>
      <trkpt lat="49.22938" lon="6.96165">
        <ele>176.9</ele>
        <time>2014-04-13T09:35:11Z</time>
      </trkpt>
      <trkpt lat="49.22938" lon="6.96163">
        <ele>176.6</ele>
        <time>2014-04-13T09:35:16Z</time>
      </trkpt>
      <trkpt lat="49.22938" lon="6.96161">
        <ele>177</ele>
        <time>2014-04-13T09:35:21Z</time>
      </trkpt>
      <trkpt lat="49.22939" lon="6.96161">
        <ele>176.6</ele>
        <time>2014-04-13T09:35:31Z</time>
      </trkpt>
      <trkpt lat="49.22939" lon="6.96161">
        <ele>177</ele>
        <time>2014-04-13T09:35:36Z</time>
      </trkpt>
      <trkpt lat="49.22939" lon="6.96161">
        <ele>176.9</ele>
        <time>2014-04-13T09:35:41Z</time>
      </trkpt>
      <trkpt lat="49.22939" lon="6.9616">
        <ele>177</ele>
        <time>2014-04-13T09:35:46Z</time>
      </trkpt>
      <trkpt lat="49.22939" lon="6.96159">
        <ele>176.8</ele>
        <time>2014-04-13T09:35:51Z</time>
      </trkpt>
      <trkpt lat="49.2294" lon="6.96157">
        <ele>176.9</ele>
        <time>2014-04-13T09:35:56Z</time>
      </trkpt>
      <trkpt lat="49.22942" lon="6.96156">
        <ele>177</ele>
        <time>2014-04-13T09:36:01Z</time>
      </trkpt>
      <trkpt lat="49.22944" lon="6.96155">
        <ele>176.8</ele>
        <time>2014-04-13T09:36:06Z</time>
      </trkpt>
      <trkpt lat="49.22945" lon="6.96155">
        <ele>175.6</ele>
        <time>2014-04-13T09:36:11Z</time>
      </trkpt>
      <trkpt lat="49.22945" lon="6.96155">
        <ele>176</ele>
        <time>2014-04-13T09:36:16Z</time>
      </trkpt>
      <trkpt lat="49.22946" lon="6.96155">
        <ele>176.7</ele>
        <time>2014-04-13T09:36:21Z</time>
      </trkpt>
      <trkpt lat="49.22946" lon="6.96154">
        <ele>176.7</ele>
        <time>2014-04-13T09:36:26Z</time>
      </trkpt>
      <trkpt lat="49.22946" lon="6.96152">
        <ele>176.4</ele>
        <time>2014-04-13T09:36:36Z</time>
      </trkpt>
      <trkpt lat="49.22947" lon="6.9615">
        <ele>177.4</ele>
        <time>2014-04-13T09:36:41Z</time>
      </trkpt>
      <trkpt lat="49.22946" lon="6.96148">
        <ele>177</ele>
        <time>2014-04-13T09:36:46Z</time>
      </trkpt>
      <trkpt lat="49.22945" lon="6.96145">
        <ele>177.1</ele>
        <time>2014-04-13T09:36:51Z</time>
      </trkpt>
      <trkpt lat="49.22944" lon="6.96141">
        <ele>176.9</ele>
        <time>2014-04-13T09:36:56Z</time>
      </trkpt>
      <trkpt lat="49.22943" lon="6.96135">
        <ele>176.8</ele>
        <time>2014-04-13T09:37:01Z</time>
      </trkpt>
      <trkpt lat="49.22941" lon="6.96127">
        <ele>177</ele>
        <time>2014-04-13T09:37:06Z</time>
      </trkpt>
      <trkpt lat="49.22936" lon="6.96122">
        <ele>177.3</ele>
        <time>2014-04-13T09:37:11Z</time>
      </trkpt>
      <trkpt lat="49.22931" lon="6.9612">
        <ele>177.3</ele>
        <time>2014-04-13T09:37:16Z</time>
      </trkpt>
      <trkpt lat="49.22926" lon="6.96118">
        <ele>176.6</ele>
        <time>2014-04-13T09:37:21Z</time>
      </trkpt>
      <trkpt lat="49.22921" lon="6.96117">
        <ele>177.4</ele>
        <time>2014-04-13T09:37:26Z</time>
      </trkpt>
      <trkpt lat="49.22915" lon="6.96116">
        <ele>178</ele>
        <time>2014-04-13T09:37:31Z</time>
      </trkpt>
      <trkpt lat="49.22902" lon="6.96112">
        <ele>178.8</ele>
        <time>2014-04-13T09:37:41Z</time>
      </trkpt>
      <trkpt lat="49.22895" lon="6.96111">
        <ele>178.4</ele>
        <time>2014-04-13T09:37:46Z</time>
      </trkpt>
      <trkpt lat="49.22888" lon="6.9611">
        <ele>178.8</ele>
        <time>2014-04-13T09:37:51Z</time>
      </trkpt>
      <trkpt lat="49.22881" lon="6.9611">
        <ele>179.4</ele>
        <time>2014-04-13T09:37:56Z</time>
      </trkpt>
      <trkpt lat="49.22874" lon="6.9611">
        <ele>180.1</ele>
        <time>2014-04-13T09:38:01Z</time>
      </trkpt>
      <trkpt lat="49.22868" lon="6.96111">
        <ele>179.3</ele>
        <time>2014-04-13T09:38:06Z</time>
      </trkpt>
      <trkpt lat="49.22862" lon="6.96112">
        <ele>180.7</ele>
        <time>2014-04-13T09:38:11Z</time>
      </trkpt>
      <trkpt lat="49.22855" lon="6.96113">
        <ele>180.6</ele>
        <time>2014-04-13T09:38:16Z</time>
      </trkpt>
      <trkpt lat="49.22852" lon="6.96112">
        <ele>180.4</ele>
        <time>2014-04-13T09:38:21Z</time>
      </trkpt>
      <trkpt lat="49.22849" lon="6.96105">
        <ele>180.6</ele>
        <time>2014-04-13T09:38:26Z</time>
      </trkpt>
      <trkpt lat="49.22845" lon="6.96097">
        <ele>180.2</ele>
        <time>2014-04-13T09:38:31Z</time>
      </trkpt>
      <trkpt lat="49.22842" lon="6.96092">
        <ele>181.3</ele>
        <time>2014-04-13T09:38:36Z</time>
      </trkpt>
      <trkpt lat="49.22839" lon="6.96088">
        <ele>181.5</ele>
        <time>2014-04-13T09:38:46Z</time>
      </trkpt>
      <trkpt lat="49.22836" lon="6.96086">
        <ele>180.4</ele>
        <time>2014-04-13T09:38:51Z</time>
      </trkpt>
      <trkpt lat="49.22832" lon="6.96085">
        <ele>181.2</ele>
        <time>2014-04-13T09:38:56Z</time>
      </trkpt>
      <trkpt lat="49.22827" lon="6.96084">
        <ele>181.6</ele>
        <time>2014-04-13T09:39:01Z</time>
      </trkpt>
      <trkpt lat="49.22822" lon="6.96083">
        <ele>182.1</ele>
        <time>2014-04-13T09:39:06Z</time>
      </trkpt>
      <trkpt lat="49.22818" lon="6.96083">
        <ele>183.1</ele>
        <time>2014-04-13T09:39:11Z</time>
      </trkpt>
      <trkpt lat="49.22813" lon="6.96083">
        <ele>182.6</ele>
        <time>2014-04-13T09:39:16Z</time>
      </trkpt>
      <trkpt lat="49.22809" lon="6.96084">
        <ele>183.4</ele>
        <time>2014-04-13T09:39:21Z</time>
      </trkpt>
      <trkpt lat="49.22807" lon="6.96089">
        <ele>183.4</ele>
        <time>2014-04-13T09:39:26Z</time>
      </trkpt>
      <trkpt lat="49.22803" lon="6.96089">
        <ele>184.1</ele>
        <time>2014-04-13T09:39:31Z</time>
      </trkpt>
      <trkpt lat="49.22798" lon="6.9609">
        <ele>184.3</ele>
        <time>2014-04-13T09:39:36Z</time>
      </trkpt>
      <trkpt lat="49.22794" lon="6.9609">
        <ele>184.5</ele>
        <time>2014-04-13T09:39:41Z</time>
      </trkpt>
      <trkpt lat="49.22782" lon="6.96091">
        <ele>186.1</ele>
        <time>2014-04-13T09:39:51Z</time>
      </trkpt>
      <trkpt lat="49.22776" lon="6.96091">
        <ele>186.5</ele>
        <time>2014-04-13T09:39:56Z</time>
      </trkpt>
      <trkpt lat="49.2277" lon="6.96091">
        <ele>187</ele>
        <time>2014-04-13T09:40:01Z</time>
      </trkpt>
      <trkpt lat="49.22764" lon="6.96091">
        <ele>187.6</ele>
        <time>2014-04-13T09:40:06Z</time>
      </trkpt>
      <trkpt lat="49.22758" lon="6.96091">
        <ele>189.8</ele>
        <time>2014-04-13T09:40:11Z</time>
      </trkpt>
      <trkpt lat="49.22752" lon="6.96092">
        <ele>189.6</ele>
        <time>2014-04-13T09:40:16Z</time>
      </trkpt>
      <trkpt lat="49.22746" lon="6.96092">
        <ele>189.9</ele>
        <time>2014-04-13T09:40:21Z</time>
      </trkpt>
      <trkpt lat="49.2274" lon="6.96092">
        <ele>191.4</ele>
        <time>2014-04-13T09:40:26Z</time>
      </trkpt>
      <trkpt lat="49.22727" lon="6.96094">
        <ele>191.4</ele>
        <time>2014-04-13T09:40:31Z</time>
      </trkpt>
      <trkpt lat="49.2272" lon="6.96095">
        <ele>191.5</ele>
        <time>2014-04-13T09:40:36Z</time>
      </trkpt>
      <trkpt lat="49.22716" lon="6.96095">
        <ele>191.9</ele>
        <time>2014-04-13T09:40:41Z</time>
      </trkpt>
      <trkpt lat="49.22713" lon="6.96096">
        <ele>192.3</ele>
        <time>2014-04-13T09:40:46Z</time>
      </trkpt>
      <trkpt lat="49.22706" lon="6.96093">
        <ele>193.6</ele>
        <time>2014-04-13T09:40:56Z</time>
      </trkpt>
      <trkpt lat="49.22705" lon="6.96086">
        <ele>193.3</ele>
        <time>2014-04-13T09:41:01Z</time>
      </trkpt>
      <trkpt lat="49.22701" lon="6.96075">
        <ele>193.4</ele>
        <time>2014-04-13T09:41:06Z</time>
      </trkpt>
      <trkpt lat="49.22701" lon="6.96064">
        <ele>193.9</ele>
        <time>2014-04-13T09:41:11Z</time>
      </trkpt>
      <trkpt lat="49.22701" lon="6.96054">
        <ele>195</ele>
        <time>2014-04-13T09:41:16Z</time>
      </trkpt>
      <trkpt lat="49.22701" lon="6.96043">
        <ele>194.7</ele>
        <time>2014-04-13T09:41:21Z</time>
      </trkpt>
      <trkpt lat="49.22701" lon="6.96035">
        <ele>194.6</ele>
        <time>2014-04-13T09:41:26Z</time>
      </trkpt>
      <trkpt lat="49.22701" lon="6.96028">
        <ele>195.1</ele>
        <time>2014-04-13T09:41:31Z</time>
      </trkpt>
      <trkpt lat="49.22701" lon="6.96022">
        <ele>195.4</ele>
        <time>2014-04-13T09:41:36Z</time>
      </trkpt>
      <trkpt lat="49.22704" lon="6.96016">
        <ele>196.3</ele>
        <time>2014-04-13T09:41:41Z</time>
      </trkpt>
      <trkpt lat="49.22707" lon="6.96012">
        <ele>196</ele>
        <time>2014-04-13T09:41:46Z</time>
      </trkpt>
      <trkpt lat="49.2271" lon="6.96011">
        <ele>196.2</ele>
        <time>2014-04-13T09:41:51Z</time>
      </trkpt>
      <trkpt lat="49.22717" lon="6.96009">
        <ele>196.5</ele>
        <time>2014-04-13T09:42:01Z</time>
      </trkpt>
      <trkpt lat="49.22722" lon="6.96008">
        <ele>196.8</ele>
        <time>2014-04-13T09:42:06Z</time>
      </trkpt>
      <trkpt lat="49.22726" lon="6.96007">
        <ele>197</ele>
        <time>2014-04-13T09:42:11Z</time>
      </trkpt>
      <trkpt lat="49.22732" lon="6.96007">
        <ele>196.9</ele>
        <time>2014-04-13T09:42:16Z</time>
      </trkpt>
      <trkpt lat="49.22738" lon="6.96008">
        <ele>196.7</ele>
        <time>2014-04-13T09:42:21Z</time>
      </trkpt>
      <trkpt lat="49.22744" lon="6.9601">
        <ele>196.8</ele>
        <time>2014-04-13T09:42:26Z</time>
      </trkpt>
      <trkpt lat="49.2275" lon="6.96011">
        <ele>198.5</ele>
        <time>2014-04-13T09:42:31Z</time>
      </trkpt>
      <trkpt lat="49.22756" lon="6.96012">
        <ele>198.3</ele>
        <time>2014-04-13T09:42:36Z</time>
      </trkpt>
      <trkpt lat="49.22764" lon="6.96012">
        <ele>198.3</ele>
        <time>2014-04-13T09:42:41Z</time>
      </trkpt>
      <trkpt lat="49.2277" lon="6.96013">
        <ele>199.4</ele>
        <time>2014-04-13T09:42:46Z</time>
      </trkpt>
      <trkpt lat="49.22778" lon="6.96012">
        <ele>200.5</ele>
        <time>2014-04-13T09:42:51Z</time>
      </trkpt>
      <trkpt lat="49.22785" lon="6.96012">
        <ele>200.2</ele>
        <time>2014-04-13T09:42:56Z</time>
      </trkpt>
      <trkpt lat="49.22798" lon="6.96012">
        <ele>201.9</ele>
        <time>2014-04-13T09:43:06Z</time>
      </trkpt>
      <trkpt lat="49.22803" lon="6.96011">
        <ele>201.4</ele>
        <time>2014-04-13T09:43:11Z</time>
      </trkpt>
      <trkpt lat="49.22809" lon="6.96011">
        <ele>202</ele>
        <time>2014-04-13T09:43:16Z</time>
      </trkpt>
      <trkpt lat="49.22815" lon="6.9601">
        <ele>201.8</ele>
        <time>2014-04-13T09:43:21Z</time>
      </trkpt>
      <trkpt lat="49.22821" lon="6.96009">
        <ele>201.5</ele>
        <time>2014-04-13T09:43:26Z</time>
      </trkpt>
      <trkpt lat="49.22828" lon="6.96007">
        <ele>201.7</ele>
        <time>2014-04-13T09:43:31Z</time>
      </trkpt>
      <trkpt lat="49.22834" lon="6.96003">
        <ele>202.4</ele>
        <time>2014-04-13T09:43:36Z</time>
      </trkpt>
      <trkpt lat="49.22841" lon="6.95999">
        <ele>201.7</ele>
        <time>2014-04-13T09:43:41Z</time>
      </trkpt>
      <trkpt lat="49.22846" lon="6.95993">
        <ele>202</ele>
        <time>2014-04-13T09:43:46Z</time>
      </trkpt>
      <trkpt lat="49.22849" lon="6.95984">
        <ele>201.7</ele>
        <time>2014-04-13T09:43:51Z</time>
      </trkpt>
      <trkpt lat="49.2285" lon="6.95975">
        <ele>202.8</ele>
        <time>2014-04-13T09:43:56Z</time>
      </trkpt>
      <trkpt lat="49.2285" lon="6.95966">
        <ele>203.5</ele>
        <time>2014-04-13T09:44:01Z</time>
      </trkpt>
      <trkpt lat="49.22848" lon="6.95947">
        <ele>203.4</ele>
        <time>2014-04-13T09:44:11Z</time>
      </trkpt>
      <trkpt lat="49.22845" lon="6.95937">
        <ele>202.7</ele>
        <time>2014-04-13T09:44:16Z</time>
      </trkpt>
      <trkpt lat="49.22844" lon="6.95927">
        <ele>202.5</ele>
        <time>2014-04-13T09:44:21Z</time>
      </trkpt>
      <trkpt lat="49.22842" lon="6.95917">
        <ele>203.1</ele>
        <time>2014-04-13T09:44:26Z</time>
      </trkpt>
      <trkpt lat="49.22842" lon="6.95907">
        <ele>203.4</ele>
        <time>2014-04-13T09:44:31Z</time>
      </trkpt>
      <trkpt lat="49.22843" lon="6.95896">
        <ele>202.7</ele>
        <time>2014-04-13T09:44:36Z</time>
      </trkpt>
      <trkpt lat="49.22845" lon="6.95886">
        <ele>203.3</ele>
        <time>2014-04-13T09:44:41Z</time>
      </trkpt>
      <trkpt lat="49.22849" lon="6.95877">
        <ele>204.2</ele>
        <time>2014-04-13T09:44:46Z</time>
      </trkpt>
      <trkpt lat="49.22852" lon="6.9587">
        <ele>203.6</ele>
        <time>2014-04-13T09:44:51Z</time>
      </trkpt>
      <trkpt lat="49.22855" lon="6.95863">
        <ele>203.7</ele>
        <time>2014-04-13T09:44:56Z</time>
      </trkpt>
      <trkpt lat="49.22859" lon="6.95854">
        <ele>204.2</ele>
        <time>2014-04-13T09:45:01Z</time>
      </trkpt>
      <trkpt lat="49.22862" lon="6.95844">
        <ele>204.9</ele>
        <time>2014-04-13T09:45:06Z</time>
      </trkpt>
      <trkpt lat="49.22864" lon="6.95824">
        <ele>206</ele>
        <time>2014-04-13T09:45:16Z</time>
      </trkpt>
      <trkpt lat="49.22863" lon="6.95813">
        <ele>205.6</ele>
        <time>2014-04-13T09:45:21Z</time>
      </trkpt>
      <trkpt lat="49.22863" lon="6.95802">
        <ele>205.6</ele>
        <time>2014-04-13T09:45:26Z</time>
      </trkpt>
      <trkpt lat="49.22862" lon="6.95792">
        <ele>205.7</ele>
        <time>2014-04-13T09:45:31Z</time>
      </trkpt>
      <trkpt lat="49.22861" lon="6.95781">
        <ele>206</ele>
        <time>2014-04-13T09:45:36Z</time>
      </trkpt>
      <trkpt lat="49.2286" lon="6.95771">
        <ele>206.5</ele>
        <time>2014-04-13T09:45:41Z</time>
      </trkpt>
      <trkpt lat="49.22858" lon="6.95762">
        <ele>206.6</ele>
        <time>2014-04-13T09:45:46Z</time>
      </trkpt>
      <trkpt lat="49.22855" lon="6.95752">
        <ele>207.3</ele>
        <time>2014-04-13T09:45:51Z</time>
      </trkpt>
      <trkpt lat="49.22852" lon="6.95742">
        <ele>207.1</ele>
        <time>2014-04-13T09:45:56Z</time>
      </trkpt>
      <trkpt lat="49.22849" lon="6.95731">
        <ele>207.3</ele>
        <time>2014-04-13T09:46:01Z</time>
      </trkpt>
      <trkpt lat="49.22847" lon="6.95721">
        <ele>207.9</ele>
        <time>2014-04-13T09:46:06Z</time>
      </trkpt>
      <trkpt lat="49.22845" lon="6.95709">
        <ele>207.9</ele>
        <time>2014-04-13T09:46:11Z</time>
      </trkpt>
      <trkpt lat="49.22842" lon="6.95686">
        <ele>208.6</ele>
        <time>2014-04-13T09:46:21Z</time>
      </trkpt>
      <trkpt lat="49.22841" lon="6.95675">
        <ele>208.9</ele>
        <time>2014-04-13T09:46:26Z</time>
      </trkpt>
      <trkpt lat="49.22838" lon="6.95665">
        <ele>209.1</ele>
        <time>2014-04-13T09:46:31Z</time>
      </trkpt>
      <trkpt lat="49.22836" lon="6.95655">
        <ele>209.6</ele>
        <time>2014-04-13T09:46:36Z</time>
      </trkpt>
      <trkpt lat="49.22834" lon="6.95645">
        <ele>211.1</ele>
        <time>2014-04-13T09:46:41Z</time>
      </trkpt>
      <trkpt lat="49.22832" lon="6.95636">
        <ele>210.7</ele>
        <time>2014-04-13T09:46:46Z</time>
      </trkpt>
      <trkpt lat="49.2283" lon="6.95625">
        <ele>212.2</ele>
        <time>2014-04-13T09:46:51Z</time>
      </trkpt>
      <trkpt lat="49.22828" lon="6.95616">
        <ele>212.2</ele>
        <time>2014-04-13T09:46:56Z</time>
      </trkpt>
      <trkpt lat="49.22825" lon="6.95606">
        <ele>212.7</ele>
        <time>2014-04-13T09:47:01Z</time>
      </trkpt>
      <trkpt lat="49.22823" lon="6.95596">
        <ele>212.8</ele>
        <time>2014-04-13T09:47:06Z</time>
      </trkpt>
      <trkpt lat="49.22821" lon="6.95587">
        <ele>213.7</ele>
        <time>2014-04-13T09:47:11Z</time>
      </trkpt>
      <trkpt lat="49.22819" lon="6.95578">
        <ele>214</ele>
        <time>2014-04-13T09:47:16Z</time>
      </trkpt>
      <trkpt lat="49.22816" lon="6.9556">
        <ele>215.5</ele>
        <time>2014-04-13T09:47:26Z</time>
      </trkpt>
      <trkpt lat="49.22814" lon="6.95551">
        <ele>216</ele>
        <time>2014-04-13T09:47:31Z</time>
      </trkpt>
      <trkpt lat="49.22812" lon="6.95542">
        <ele>217.3</ele>
        <time>2014-04-13T09:47:36Z</time>
      </trkpt>
      <trkpt lat="49.2281" lon="6.95532">
        <ele>217</ele>
        <time>2014-04-13T09:47:41Z</time>
      </trkpt>
      <trkpt lat="49.22807" lon="6.95521">
        <ele>217.6</ele>
        <time>2014-04-13T09:47:46Z</time>
      </trkpt>
      <trkpt lat="49.22804" lon="6.95512">
        <ele>218.6</ele>
        <time>2014-04-13T09:47:51Z</time>
      </trkpt>
      <trkpt lat="49.22801" lon="6.95503">
        <ele>218.8</ele>
        <time>2014-04-13T09:47:56Z</time>
      </trkpt>
      <trkpt lat="49.22798" lon="6.95493">
        <ele>219.2</ele>
        <time>2014-04-13T09:48:01Z</time>
      </trkpt>
      <trkpt lat="49.22795" lon="6.95483">
        <ele>219.6</ele>
        <time>2014-04-13T09:48:06Z</time>
      </trkpt>
      <trkpt lat="49.22792" lon="6.95473">
        <ele>220.5</ele>
        <time>2014-04-13T09:48:11Z</time>
      </trkpt>
      <trkpt lat="49.22787" lon="6.95464">
        <ele>221.7</ele>
        <time>2014-04-13T09:48:16Z</time>
      </trkpt>
      <trkpt lat="49.22783" lon="6.95456">
        <ele>220.8</ele>
        <time>2014-04-13T09:48:21Z</time>
      </trkpt>
      <trkpt lat="49.22777" lon="6.95438">
        <ele>222.6</ele>
        <time>2014-04-13T09:48:31Z</time>
      </trkpt>
      <trkpt lat="49.22773" lon="6.9543">
        <ele>223.1</ele>
        <time>2014-04-13T09:48:36Z</time>
      </trkpt>
      <trkpt lat="49.22769" lon="6.95421">
        <ele>223.3</ele>
        <time>2014-04-13T09:48:41Z</time>
      </trkpt>
      <trkpt lat="49.22765" lon="6.95412">
        <ele>223.5</ele>
        <time>2014-04-13T09:48:46Z</time>
      </trkpt>
      <trkpt lat="49.2276" lon="6.95404">
        <ele>223.6</ele>
        <time>2014-04-13T09:48:51Z</time>
      </trkpt>
      <trkpt lat="49.22754" lon="6.95397">
        <ele>224.3</ele>
        <time>2014-04-13T09:48:56Z</time>
      </trkpt>
      <trkpt lat="49.22749" lon="6.9539">
        <ele>224.5</ele>
        <time>2014-04-13T09:49:01Z</time>
      </trkpt>
      <trkpt lat="49.22744" lon="6.95385">
        <ele>225.6</ele>
        <time>2014-04-13T09:49:06Z</time>
      </trkpt>
      <trkpt lat="49.22738" lon="6.95381">
        <ele>226</ele>
        <time>2014-04-13T09:49:11Z</time>
      </trkpt>
      <trkpt lat="49.22733" lon="6.95376">
        <ele>226.5</ele>
        <time>2014-04-13T09:49:16Z</time>
      </trkpt>
      <trkpt lat="49.22727" lon="6.95371">
        <ele>227.1</ele>
        <time>2014-04-13T09:49:21Z</time>
      </trkpt>
      <trkpt lat="49.22722" lon="6.95366">
        <ele>227.4</ele>
        <time>2014-04-13T09:49:26Z</time>
      </trkpt>
      <trkpt lat="49.22709" lon="6.95356">
        <ele>227.7</ele>
        <time>2014-04-13T09:49:36Z</time>
      </trkpt>
      <trkpt lat="49.22703" lon="6.95352">
        <ele>228.5</ele>
        <time>2014-04-13T09:49:41Z</time>
      </trkpt>
      <trkpt lat="49.22697" lon="6.95347">
        <ele>228.9</ele>
        <time>2014-04-13T09:49:46Z</time>
      </trkpt>
      <trkpt lat="49.2269" lon="6.95342">
        <ele>230</ele>
        <time>2014-04-13T09:49:51Z</time>
      </trkpt>
      <trkpt lat="49.22683" lon="6.95337">
        <ele>229.6</ele>
        <time>2014-04-13T09:49:56Z</time>
      </trkpt>
      <trkpt lat="49.22677" lon="6.95332">
        <ele>230</ele>
        <time>2014-04-13T09:50:01Z</time>
      </trkpt>
      <trkpt lat="49.2267" lon="6.95328">
        <ele>229.9</ele>
        <time>2014-04-13T09:50:06Z</time>
      </trkpt>
      <trkpt lat="49.22663" lon="6.95324">
        <ele>230.5</ele>
        <time>2014-04-13T09:50:11Z</time>
      </trkpt>
      <trkpt lat="49.22658" lon="6.95319">
        <ele>230.4</ele>
        <time>2014-04-13T09:50:16Z</time>
      </trkpt>
      <trkpt lat="49.22653" lon="6.95312">
        <ele>231</ele>
        <time>2014-04-13T09:50:21Z</time>
      </trkpt>
      <trkpt lat="49.22648" lon="6.95303">
        <ele>230.8</ele>
        <time>2014-04-13T09:50:26Z</time>
      </trkpt>
      <trkpt lat="49.22643" lon="6.95295">
        <ele>231.2</ele>
        <time>2014-04-13T09:50:31Z</time>
      </trkpt>
      <trkpt lat="49.22633" lon="6.95278">
        <ele>232.3</ele>
        <time>2014-04-13T09:50:41Z</time>
      </trkpt>
      <trkpt lat="49.22628" lon="6.95269">
        <ele>231.4</ele>
        <time>2014-04-13T09:50:46Z</time>
      </trkpt>
      <trkpt lat="49.22624" lon="6.9526">
        <ele>231.8</ele>
        <time>2014-04-13T09:50:51Z</time>
      </trkpt>
      <trkpt lat="49.2262" lon="6.95251">
        <ele>232.1</ele>
        <time>2014-04-13T09:50:56Z</time>
      </trkpt>
      <trkpt lat="49.22615" lon="6.95242">
        <ele>232.4</ele>
        <time>2014-04-13T09:51:01Z</time>
      </trkpt>
      <trkpt lat="49.22611" lon="6.95233">
        <ele>233.6</ele>
        <time>2014-04-13T09:51:06Z</time>
      </trkpt>
      <trkpt lat="49.22606" lon="6.95225">
        <ele>233.5</ele>
        <time>2014-04-13T09:51:11Z</time>
      </trkpt>
      <trkpt lat="49.22601" lon="6.95217">
        <ele>234.1</ele>
        <time>2014-04-13T09:51:16Z</time>
      </trkpt>
      <trkpt lat="49.22596" lon="6.95211">
        <ele>234.2</ele>
        <time>2014-04-13T09:51:21Z</time>
      </trkpt>
      <trkpt lat="49.22589" lon="6.95205">
        <ele>235.2</ele>
        <time>2014-04-13T09:51:26Z</time>
      </trkpt>
      <trkpt lat="49.22583" lon="6.952">
        <ele>234.9</ele>
        <time>2014-04-13T09:51:31Z</time>
      </trkpt>
      <trkpt lat="49.22578" lon="6.95195">
        <ele>236.2</ele>
        <time>2014-04-13T09:51:36Z</time>
      </trkpt>
      <trkpt lat="49.22565" lon="6.95183">
        <ele>236.8</ele>
        <time>2014-04-13T09:51:46Z</time>
      </trkpt>
      <trkpt lat="49.22559" lon="6.95177">
        <ele>237.8</ele>
        <time>2014-04-13T09:51:51Z</time>
      </trkpt>
      <trkpt lat="49.22554" lon="6.95169">
        <ele>238</ele>
        <time>2014-04-13T09:51:56Z</time>
      </trkpt>
      <trkpt lat="49.2255" lon="6.95161">
        <ele>238.5</ele>
        <time>2014-04-13T09:52:01Z</time>
      </trkpt>
      <trkpt lat="49.22547" lon="6.95152">
        <ele>239</ele>
        <time>2014-04-13T09:52:06Z</time>
      </trkpt>
      <trkpt lat="49.22544" lon="6.95144">
        <ele>239.3</ele>
        <time>2014-04-13T09:52:11Z</time>
      </trkpt>
      <trkpt lat="49.22541" lon="6.95136">
        <ele>241.1</ele>
        <time>2014-04-13T09:52:16Z</time>
      </trkpt>
      <trkpt lat="49.22537" lon="6.95128">
        <ele>241.6</ele>
        <time>2014-04-13T09:52:21Z</time>
      </trkpt>
      <trkpt lat="49.22534" lon="6.95119">
        <ele>241.9</ele>
        <time>2014-04-13T09:52:26Z</time>
      </trkpt>
      <trkpt lat="49.22531" lon="6.95109">
        <ele>242.5</ele>
        <time>2014-04-13T09:52:31Z</time>
      </trkpt>
      <trkpt lat="49.22529" lon="6.951">
        <ele>242.6</ele>
        <time>2014-04-13T09:52:36Z</time>
      </trkpt>
      <trkpt lat="49.22526" lon="6.95091">
        <ele>242.6</ele>
        <time>2014-04-13T09:52:41Z</time>
      </trkpt>
      <trkpt lat="49.22523" lon="6.95071">
        <ele>243.5</ele>
        <time>2014-04-13T09:52:51Z</time>
      </trkpt>
      <trkpt lat="49.22522" lon="6.95059">
        <ele>244.3</ele>
        <time>2014-04-13T09:52:56Z</time>
      </trkpt>
      <trkpt lat="49.2252" lon="6.95048">
        <ele>244.9</ele>
        <time>2014-04-13T09:53:01Z</time>
      </trkpt>
      <trkpt lat="49.2252" lon="6.95038">
        <ele>245.6</ele>
        <time>2014-04-13T09:53:06Z</time>
      </trkpt>
      <trkpt lat="49.22519" lon="6.95029">
        <ele>246.1</ele>
        <time>2014-04-13T09:53:11Z</time>
      </trkpt>
      <trkpt lat="49.22519" lon="6.95019">
        <ele>246.2</ele>
        <time>2014-04-13T09:53:16Z</time>
      </trkpt>
      <trkpt lat="49.22517" lon="6.95009">
        <ele>246.5</ele>
        <time>2014-04-13T09:53:21Z</time>
      </trkpt>
      <trkpt lat="49.22514" lon="6.94998">
        <ele>247.3</ele>
        <time>2014-04-13T09:53:26Z</time>
      </trkpt>
      <trkpt lat="49.22511" lon="6.94987">
        <ele>247.3</ele>
        <time>2014-04-13T09:53:31Z</time>
      </trkpt>
      <trkpt lat="49.22508" lon="6.94977">
        <ele>248.2</ele>
        <time>2014-04-13T09:53:36Z</time>
      </trkpt>
      <trkpt lat="49.22504" lon="6.94968">
        <ele>249.1</ele>
        <time>2014-04-13T09:53:41Z</time>
      </trkpt>
      <trkpt lat="49.22501" lon="6.94958">
        <ele>248.7</ele>
        <time>2014-04-13T09:53:46Z</time>
      </trkpt>
      <trkpt lat="49.22495" lon="6.94937">
        <ele>249.7</ele>
        <time>2014-04-13T09:53:56Z</time>
      </trkpt>
      <trkpt lat="49.22492" lon="6.94927">
        <ele>250.4</ele>
        <time>2014-04-13T09:54:01Z</time>
      </trkpt>
      <trkpt lat="49.22489" lon="6.94918">
        <ele>249.9</ele>
        <time>2014-04-13T09:54:06Z</time>
      </trkpt>
      <trkpt lat="49.22485" lon="6.94909">
        <ele>250.5</ele>
        <time>2014-04-13T09:54:11Z</time>
      </trkpt>
      <trkpt lat="49.22481" lon="6.949">
        <ele>250.3</ele>
        <time>2014-04-13T09:54:16Z</time>
      </trkpt>
      <trkpt lat="49.22478" lon="6.94891">
        <ele>250.8</ele>
        <time>2014-04-13T09:54:21Z</time>
      </trkpt>
      <trkpt lat="49.22474" lon="6.94882">
        <ele>250.8</ele>
        <time>2014-04-13T09:54:26Z</time>
      </trkpt>
      <trkpt lat="49.22471" lon="6.94872">
        <ele>251.1</ele>
        <time>2014-04-13T09:54:31Z</time>
      </trkpt>
      <trkpt lat="49.22468" lon="6.94862">
        <ele>251.2</ele>
        <time>2014-04-13T09:54:36Z</time>
      </trkpt>
      <trkpt lat="49.22465" lon="6.94852">
        <ele>250.9</ele>
        <time>2014-04-13T09:54:41Z</time>
      </trkpt>
      <trkpt lat="49.22462" lon="6.94842">
        <ele>252.6</ele>
        <time>2014-04-13T09:54:46Z</time>
      </trkpt>
      <trkpt lat="49.22459" lon="6.94832">
        <ele>252.6</ele>
        <time>2014-04-13T09:54:51Z</time>
      </trkpt>
      <trkpt lat="49.22452" lon="6.94813">
        <ele>254</ele>
        <time>2014-04-13T09:55:01Z</time>
      </trkpt>
      <trkpt lat="49.22449" lon="6.94803">
        <ele>252.8</ele>
        <time>2014-04-13T09:55:06Z</time>
      </trkpt>
      <trkpt lat="49.22445" lon="6.94794">
        <ele>253.2</ele>
        <time>2014-04-13T09:55:11Z</time>
      </trkpt>
      <trkpt lat="49.22442" lon="6.94784">
        <ele>254.7</ele>
        <time>2014-04-13T09:55:16Z</time>
      </trkpt>
      <trkpt lat="49.22438" lon="6.94775">
        <ele>254.5</ele>
        <time>2014-04-13T09:55:21Z</time>
      </trkpt>
      <trkpt lat="49.22434" lon="6.94766">
        <ele>255.1</ele>
        <time>2014-04-13T09:55:26Z</time>
      </trkpt>
      <trkpt lat="49.22429" lon="6.94758">
        <ele>255.1</ele>
        <time>2014-04-13T09:55:31Z</time>
      </trkpt>
      <trkpt lat="49.22425" lon="6.94751">
        <ele>254.9</ele>
        <time>2014-04-13T09:55:36Z</time>
      </trkpt>
      <trkpt lat="49.2242" lon="6.94743">
        <ele>254.8</ele>
        <time>2014-04-13T09:55:41Z</time>
      </trkpt>
      <trkpt lat="49.22416" lon="6.94735">
        <ele>255.5</ele>
        <time>2014-04-13T09:55:46Z</time>
      </trkpt>
      <trkpt lat="49.22412" lon="6.94727">
        <ele>256.9</ele>
        <time>2014-04-13T09:55:51Z</time>
      </trkpt>
      <trkpt lat="49.22408" lon="6.94718">
        <ele>256.7</ele>
        <time>2014-04-13T09:55:56Z</time>
      </trkpt>
      <trkpt lat="49.22401" lon="6.947">
        <ele>257.6</ele>
        <time>2014-04-13T09:56:06Z</time>
      </trkpt>
      <trkpt lat="49.22397" lon="6.94691">
        <ele>258.7</ele>
        <time>2014-04-13T09:56:11Z</time>
      </trkpt>
      <trkpt lat="49.22393" lon="6.94682">
        <ele>260.1</ele>
        <time>2014-04-13T09:56:16Z</time>
      </trkpt>
      <trkpt lat="49.2239" lon="6.94672">
        <ele>259.5</ele>
        <time>2014-04-13T09:56:21Z</time>
      </trkpt>
      <trkpt lat="49.22386" lon="6.94662">
        <ele>259.4</ele>
        <time>2014-04-13T09:56:26Z</time>
      </trkpt>
      <trkpt lat="49.22382" lon="6.94654">
        <ele>260</ele>
        <time>2014-04-13T09:56:31Z</time>
      </trkpt>
      <trkpt lat="49.22378" lon="6.94645">
        <ele>260.9</ele>
        <time>2014-04-13T09:56:36Z</time>
      </trkpt>
      <trkpt lat="49.22374" lon="6.94635">
        <ele>261.5</ele>
        <time>2014-04-13T09:56:41Z</time>
      </trkpt>
      <trkpt lat="49.2237" lon="6.94628">
        <ele>262</ele>
        <time>2014-04-13T09:56:46Z</time>
      </trkpt>
      <trkpt lat="49.22367" lon="6.94619">
        <ele>262</ele>
        <time>2014-04-13T09:56:51Z</time>
      </trkpt>
      <trkpt lat="49.22363" lon="6.94611">
        <ele>263.3</ele>
        <time>2014-04-13T09:56:56Z</time>
      </trkpt>
      <trkpt lat="49.22359" lon="6.94602">
        <ele>263.9</ele>
        <time>2014-04-13T09:57:01Z</time>
      </trkpt>
      <trkpt lat="49.22351" lon="6.94585">
        <ele>265.4</ele>
        <time>2014-04-13T09:57:11Z</time>
      </trkpt>
      <trkpt lat="49.22348" lon="6.94577">
        <ele>265.8</ele>
        <time>2014-04-13T09:57:16Z</time>
      </trkpt>
      <trkpt lat="49.22346" lon="6.94567">
        <ele>265.9</ele>
        <time>2014-04-13T09:57:21Z</time>
      </trkpt>
      <trkpt lat="49.22343" lon="6.94558">
        <ele>267.3</ele>
        <time>2014-04-13T09:57:26Z</time>
      </trkpt>
      <trkpt lat="49.2234" lon="6.9455">
        <ele>268.4</ele>
        <time>2014-04-13T09:57:31Z</time>
      </trkpt>
      <trkpt lat="49.22337" lon="6.9454">
        <ele>268.9</ele>
        <time>2014-04-13T09:57:36Z</time>
      </trkpt>
      <trkpt lat="49.22334" lon="6.94531">
        <ele>268.2</ele>
        <time>2014-04-13T09:57:41Z</time>
      </trkpt>
      <trkpt lat="49.22331" lon="6.94522">
        <ele>270</ele>
        <time>2014-04-13T09:57:46Z</time>
      </trkpt>
      <trkpt lat="49.22328" lon="6.94512">
        <ele>271.2</ele>
        <time>2014-04-13T09:57:51Z</time>
      </trkpt>
      <trkpt lat="49.22326" lon="6.94503">
        <ele>271.7</ele>
        <time>2014-04-13T09:57:56Z</time>
      </trkpt>
      <trkpt lat="49.22324" lon="6.94493">
        <ele>271.9</ele>
        <time>2014-04-13T09:58:01Z</time>
      </trkpt>
      <trkpt lat="49.22321" lon="6.94484">
        <ele>272.2</ele>
        <time>2014-04-13T09:58:06Z</time>
      </trkpt>
      <trkpt lat="49.22315" lon="6.94466">
        <ele>273.5</ele>
        <time>2014-04-13T09:58:16Z</time>
      </trkpt>
      <trkpt lat="49.22312" lon="6.94457">
        <ele>274.9</ele>
        <time>2014-04-13T09:58:21Z</time>
      </trkpt>
      <trkpt lat="49.22308" lon="6.94447">
        <ele>275</ele>
        <time>2014-04-13T09:58:26Z</time>
      </trkpt>
      <trkpt lat="49.22306" lon="6.94438">
        <ele>276.2</ele>
        <time>2014-04-13T09:58:31Z</time>
      </trkpt>
      <trkpt lat="49.22303" lon="6.94428">
        <ele>276</ele>
        <time>2014-04-13T09:58:36Z</time>
      </trkpt>
      <trkpt lat="49.22299" lon="6.94417">
        <ele>277.6</ele>
        <time>2014-04-13T09:58:41Z</time>
      </trkpt>
      <trkpt lat="49.22297" lon="6.94407">
        <ele>277.7</ele>
        <time>2014-04-13T09:58:46Z</time>
      </trkpt>
      <trkpt lat="49.22293" lon="6.94397">
        <ele>278</ele>
        <time>2014-04-13T09:58:51Z</time>
      </trkpt>
      <trkpt lat="49.2229" lon="6.94386">
        <ele>278.2</ele>
        <time>2014-04-13T09:58:56Z</time>
      </trkpt>
      <trkpt lat="49.22288" lon="6.94376">
        <ele>279</ele>
        <time>2014-04-13T09:59:01Z</time>
      </trkpt>
      <trkpt lat="49.22286" lon="6.94364">
        <ele>279.2</ele>
        <time>2014-04-13T09:59:06Z</time>
      </trkpt>
      <trkpt lat="49.22285" lon="6.94354">
        <ele>279.1</ele>
        <time>2014-04-13T09:59:11Z</time>
      </trkpt>
      <trkpt lat="49.22283" lon="6.94332">
        <ele>279.5</ele>
        <time>2014-04-13T09:59:21Z</time>
      </trkpt>
      <trkpt lat="49.22282" lon="6.94322">
        <ele>278.9</ele>
        <time>2014-04-13T09:59:26Z</time>
      </trkpt>
      <trkpt lat="49.22281" lon="6.94311">
        <ele>278.9</ele>
        <time>2014-04-13T09:59:31Z</time>
      </trkpt>
      <trkpt lat="49.2228" lon="6.94302">
        <ele>278.7</ele>
        <time>2014-04-13T09:59:36Z</time>
      </trkpt>
      <trkpt lat="49.2228" lon="6.94291">
        <ele>278</ele>
        <time>2014-04-13T09:59:41Z</time>
      </trkpt>
      <trkpt lat="49.22281" lon="6.94281">
        <ele>277.8</ele>
        <time>2014-04-13T09:59:46Z</time>
      </trkpt>
      <trkpt lat="49.2228" lon="6.94271">
        <ele>278.3</ele>
        <time>2014-04-13T09:59:51Z</time>
      </trkpt>
      <trkpt lat="49.22279" lon="6.94261">
        <ele>278.4</ele>
        <time>2014-04-13T09:59:56Z</time>
      </trkpt>
      <trkpt lat="49.22278" lon="6.9425">
        <ele>277.3</ele>
        <time>2014-04-13T10:00:01Z</time>
      </trkpt>
      <trkpt lat="49.22277" lon="6.94238">
        <ele>277.5</ele>
        <time>2014-04-13T10:00:06Z</time>
      </trkpt>
      <trkpt lat="49.22276" lon="6.94228">
        <ele>276.9</ele>
        <time>2014-04-13T10:00:11Z</time>
      </trkpt>
      <trkpt lat="49.22275" lon="6.94216">
        <ele>276.7</ele>
        <time>2014-04-13T10:00:16Z</time>
      </trkpt>
      <trkpt lat="49.22273" lon="6.94195">
        <ele>276.7</ele>
        <time>2014-04-13T10:00:26Z</time>
      </trkpt>
      <trkpt lat="49.22272" lon="6.94184">
        <ele>275.9</ele>
        <time>2014-04-13T10:00:31Z</time>
      </trkpt>
      <trkpt lat="49.22271" lon="6.94173">
        <ele>276</ele>
        <time>2014-04-13T10:00:36Z</time>
      </trkpt>
      <trkpt lat="49.22269" lon="6.94163">
        <ele>276.8</ele>
        <time>2014-04-13T10:00:41Z</time>
      </trkpt>
      <trkpt lat="49.22268" lon="6.94151">
        <ele>275.8</ele>
        <time>2014-04-13T10:00:46Z</time>
      </trkpt>
      <trkpt lat="49.22267" lon="6.94139">
        <ele>274.9</ele>
        <time>2014-04-13T10:00:51Z</time>
      </trkpt>
      <trkpt lat="49.22267" lon="6.94129">
        <ele>274.8</ele>
        <time>2014-04-13T10:00:56Z</time>
      </trkpt>
      <trkpt lat="49.22266" lon="6.94118">
        <ele>275.5</ele>
        <time>2014-04-13T10:01:01Z</time>
      </trkpt>
      <trkpt lat="49.22265" lon="6.94108">
        <ele>275.1</ele>
        <time>2014-04-13T10:01:06Z</time>
      </trkpt>
      <trkpt lat="49.22264" lon="6.94097">
        <ele>275.3</ele>
        <time>2014-04-13T10:01:11Z</time>
      </trkpt>
      <trkpt lat="49.22263" lon="6.94086">
        <ele>274.4</ele>
        <time>2014-04-13T10:01:16Z</time>
      </trkpt>
      <trkpt lat="49.22261" lon="6.94075">
        <ele>273.5</ele>
        <time>2014-04-13T10:01:21Z</time>
      </trkpt>
      <trkpt lat="49.22258" lon="6.94052">
        <ele>273.2</ele>
        <time>2014-04-13T10:01:31Z</time>
      </trkpt>
      <trkpt lat="49.22256" lon="6.94041">
        <ele>272.8</ele>
        <time>2014-04-13T10:01:36Z</time>
      </trkpt>
      <trkpt lat="49.22255" lon="6.94029">
        <ele>272.8</ele>
        <time>2014-04-13T10:01:41Z</time>
      </trkpt>
      <trkpt lat="49.22253" lon="6.94019">
        <ele>272.6</ele>
        <time>2014-04-13T10:01:46Z</time>
      </trkpt>
      <trkpt lat="49.22253" lon="6.94007">
        <ele>271.4</ele>
        <time>2014-04-13T10:01:51Z</time>
      </trkpt>
      <trkpt lat="49.22251" lon="6.93996">
        <ele>270.4</ele>
        <time>2014-04-13T10:01:56Z</time>
      </trkpt>
      <trkpt lat="49.22251" lon="6.93984">
        <ele>270</ele>
        <time>2014-04-13T10:02:01Z</time>
      </trkpt>
      <trkpt lat="49.22251" lon="6.93972">
        <ele>270</ele>
        <time>2014-04-13T10:02:06Z</time>
      </trkpt>
      <trkpt lat="49.22251" lon="6.93961">
        <ele>269.6</ele>
        <time>2014-04-13T10:02:11Z</time>
      </trkpt>
      <trkpt lat="49.2225" lon="6.93949">
        <ele>269.9</ele>
        <time>2014-04-13T10:02:16Z</time>
      </trkpt>
      <trkpt lat="49.2225" lon="6.93937">
        <ele>269.4</ele>
        <time>2014-04-13T10:02:21Z</time>
      </trkpt>
      <trkpt lat="49.22249" lon="6.93926">
        <ele>268.5</ele>
        <time>2014-04-13T10:02:26Z</time>
      </trkpt>
      <trkpt lat="49.22247" lon="6.93903">
        <ele>268.1</ele>
        <time>2014-04-13T10:02:36Z</time>
      </trkpt>
      <trkpt lat="49.22246" lon="6.93891">
        <ele>267.8</ele>
        <time>2014-04-13T10:02:41Z</time>
      </trkpt>
      <trkpt lat="49.22244" lon="6.9388">
        <ele>267.2</ele>
        <time>2014-04-13T10:02:46Z</time>
      </trkpt>
      <trkpt lat="49.22244" lon="6.93868">
        <ele>267.8</ele>
        <time>2014-04-13T10:02:51Z</time>
      </trkpt>
      <trkpt lat="49.22245" lon="6.93858">
        <ele>267.1</ele>
        <time>2014-04-13T10:02:56Z</time>
      </trkpt>
      <trkpt lat="49.22246" lon="6.93849">
        <ele>266.6</ele>
        <time>2014-04-13T10:03:01Z</time>
      </trkpt>
      <trkpt lat="49.22248" lon="6.93838">
        <ele>266.2</ele>
        <time>2014-04-13T10:03:06Z</time>
      </trkpt>
      <trkpt lat="49.22248" lon="6.93826">
        <ele>266.1</ele>
        <time>2014-04-13T10:03:11Z</time>
      </trkpt>
      <trkpt lat="49.22249" lon="6.93813">
        <ele>265.5</ele>
        <time>2014-04-13T10:03:16Z</time>
      </trkpt>
      <trkpt lat="49.22249" lon="6.938">
        <ele>265.4</ele>
        <time>2014-04-13T10:03:21Z</time>
      </trkpt>
      <trkpt lat="49.22251" lon="6.93789">
        <ele>265.3</ele>
        <time>2014-04-13T10:03:26Z</time>
      </trkpt>
      <trkpt lat="49.22253" lon="6.9378">
        <ele>265.7</ele>
        <time>2014-04-13T10:03:31Z</time>
      </trkpt>
      <trkpt lat="49.22257" lon="6.93758">
        <ele>265.4</ele>
        <time>2014-04-13T10:03:41Z</time>
      </trkpt>
      <trkpt lat="49.2226" lon="6.93748">
        <ele>265.4</ele>
        <time>2014-04-13T10:03:46Z</time>
      </trkpt>
      <trkpt lat="49.22263" lon="6.93738">
        <ele>265.2</ele>
        <time>2014-04-13T10:03:51Z</time>
      </trkpt>
      <trkpt lat="49.22267" lon="6.9373">
        <ele>266</ele>
        <time>2014-04-13T10:03:56Z</time>
      </trkpt>
      <trkpt lat="49.22271" lon="6.93721">
        <ele>265</ele>
        <time>2014-04-13T10:04:01Z</time>
      </trkpt>
      <trkpt lat="49.22274" lon="6.93712">
        <ele>266.1</ele>
        <time>2014-04-13T10:04:06Z</time>
      </trkpt>
      <trkpt lat="49.22277" lon="6.93701">
        <ele>266.2</ele>
        <time>2014-04-13T10:04:11Z</time>
      </trkpt>
      <trkpt lat="49.22282" lon="6.9369">
        <ele>266.1</ele>
        <time>2014-04-13T10:04:16Z</time>
      </trkpt>
      <trkpt lat="49.22285" lon="6.9368">
        <ele>265.6</ele>
        <time>2014-04-13T10:04:21Z</time>
      </trkpt>
      <trkpt lat="49.22288" lon="6.9367">
        <ele>266.2</ele>
        <time>2014-04-13T10:04:26Z</time>
      </trkpt>
      <trkpt lat="49.22292" lon="6.93662">
        <ele>265.6</ele>
        <time>2014-04-13T10:04:31Z</time>
      </trkpt>
      <trkpt lat="49.22295" lon="6.93652">
        <ele>265.3</ele>
        <time>2014-04-13T10:04:36Z</time>
      </trkpt>
      <trkpt lat="49.22304" lon="6.93633">
        <ele>265.6</ele>
        <time>2014-04-13T10:04:46Z</time>
      </trkpt>
      <trkpt lat="49.22309" lon="6.93623">
        <ele>266.1</ele>
        <time>2014-04-13T10:04:51Z</time>
      </trkpt>
      <trkpt lat="49.22313" lon="6.93614">
        <ele>266.1</ele>
        <time>2014-04-13T10:04:56Z</time>
      </trkpt>
      <trkpt lat="49.22318" lon="6.93605">
        <ele>266.9</ele>
        <time>2014-04-13T10:05:01Z</time>
      </trkpt>
      <trkpt lat="49.22322" lon="6.93595">
        <ele>266.9</ele>
        <time>2014-04-13T10:05:06Z</time>
      </trkpt>
      <trkpt lat="49.22325" lon="6.93584">
        <ele>266.8</ele>
        <time>2014-04-13T10:05:11Z</time>
      </trkpt>
      <trkpt lat="49.22328" lon="6.93574">
        <ele>266.8</ele>
        <time>2014-04-13T10:05:16Z</time>
      </trkpt>
      <trkpt lat="49.22332" lon="6.93563">
        <ele>267.3</ele>
        <time>2014-04-13T10:05:21Z</time>
      </trkpt>
      <trkpt lat="49.22336" lon="6.93552">
        <ele>268.1</ele>
        <time>2014-04-13T10:05:26Z</time>
      </trkpt>
      <trkpt lat="49.2234" lon="6.93542">
        <ele>267</ele>
        <time>2014-04-13T10:05:31Z</time>
      </trkpt>
      <trkpt lat="49.22344" lon="6.93532">
        <ele>266.6</ele>
        <time>2014-04-13T10:05:36Z</time>
      </trkpt>
      <trkpt lat="49.22347" lon="6.93521">
        <ele>267.8</ele>
        <time>2014-04-13T10:05:41Z</time>
      </trkpt>
      <trkpt lat="49.22354" lon="6.93502">
        <ele>269</ele>
        <time>2014-04-13T10:05:51Z</time>
      </trkpt>
      <trkpt lat="49.22358" lon="6.93494">
        <ele>269.5</ele>
        <time>2014-04-13T10:05:56Z</time>
      </trkpt>
      <trkpt lat="49.22363" lon="6.93485">
        <ele>269</ele>
        <time>2014-04-13T10:06:01Z</time>
      </trkpt>
      <trkpt lat="49.22366" lon="6.93476">
        <ele>269.7</ele>
        <time>2014-04-13T10:06:06Z</time>
      </trkpt>
      <trkpt lat="49.22369" lon="6.9347">
        <ele>269.9</ele>
        <time>2014-04-13T10:06:11Z</time>
      </trkpt>
      <trkpt lat="49.22374" lon="6.93461">
        <ele>270.8</ele>
        <time>2014-04-13T10:06:16Z</time>
      </trkpt>
      <trkpt lat="49.22378" lon="6.93452">
        <ele>271.1</ele>
        <time>2014-04-13T10:06:21Z</time>
      </trkpt>
      <trkpt lat="49.22383" lon="6.93442">
        <ele>270.9</ele>
        <time>2014-04-13T10:06:26Z</time>
      </trkpt>
      <trkpt lat="49.22386" lon="6.93434">
        <ele>271.5</ele>
        <time>2014-04-13T10:06:31Z</time>
      </trkpt>
      <trkpt lat="49.2239" lon="6.93425">
        <ele>272.2</ele>
        <time>2014-04-13T10:06:36Z</time>
      </trkpt>
      <trkpt lat="49.22394" lon="6.93416">
        <ele>273.4</ele>
        <time>2014-04-13T10:06:41Z</time>
      </trkpt>
      <trkpt lat="49.22397" lon="6.93407">
        <ele>273.9</ele>
        <time>2014-04-13T10:06:46Z</time>
      </trkpt>
      <trkpt lat="49.22404" lon="6.9339">
        <ele>275.9</ele>
        <time>2014-04-13T10:06:56Z</time>
      </trkpt>
      <trkpt lat="49.2241" lon="6.93381">
        <ele>277.1</ele>
        <time>2014-04-13T10:07:01Z</time>
      </trkpt>
      <trkpt lat="49.22416" lon="6.93373">
        <ele>276.6</ele>
        <time>2014-04-13T10:07:06Z</time>
      </trkpt>
      <trkpt lat="49.22421" lon="6.93364">
        <ele>276.9</ele>
        <time>2014-04-13T10:07:11Z</time>
      </trkpt>
      <trkpt lat="49.22427" lon="6.93359">
        <ele>278.4</ele>
        <time>2014-04-13T10:07:16Z</time>
      </trkpt>
      <trkpt lat="49.22433" lon="6.93354">
        <ele>279.6</ele>
        <time>2014-04-13T10:07:21Z</time>
      </trkpt>
      <trkpt lat="49.22438" lon="6.9335">
        <ele>280.2</ele>
        <time>2014-04-13T10:07:26Z</time>
      </trkpt>
      <trkpt lat="49.22446" lon="6.93347">
        <ele>281.6</ele>
        <time>2014-04-13T10:07:31Z</time>
      </trkpt>
      <trkpt lat="49.22452" lon="6.93343">
        <ele>281.2</ele>
        <time>2014-04-13T10:07:36Z</time>
      </trkpt>
      <trkpt lat="49.22458" lon="6.93341">
        <ele>281.3</ele>
        <time>2014-04-13T10:07:41Z</time>
      </trkpt>
      <trkpt lat="49.22465" lon="6.93339">
        <ele>281.8</ele>
        <time>2014-04-13T10:07:46Z</time>
      </trkpt>
      <trkpt lat="49.22472" lon="6.93337">
        <ele>281.5</ele>
        <time>2014-04-13T10:07:51Z</time>
      </trkpt>
      <trkpt lat="49.22488" lon="6.93333">
        <ele>281.7</ele>
        <time>2014-04-13T10:08:01Z</time>
      </trkpt>
      <trkpt lat="49.22495" lon="6.93332">
        <ele>282.1</ele>
        <time>2014-04-13T10:08:06Z</time>
      </trkpt>
      <trkpt lat="49.22501" lon="6.9333">
        <ele>282.3</ele>
        <time>2014-04-13T10:08:11Z</time>
      </trkpt>
      <trkpt lat="49.22508" lon="6.93329">
        <ele>282.9</ele>
        <time>2014-04-13T10:08:16Z</time>
      </trkpt>
      <trkpt lat="49.22515" lon="6.93329">
        <ele>282.6</ele>
        <time>2014-04-13T10:08:21Z</time>
      </trkpt>
      <trkpt lat="49.22522" lon="6.93329">
        <ele>282.4</ele>
        <time>2014-04-13T10:08:26Z</time>
      </trkpt>
      <trkpt lat="49.22531" lon="6.93328">
        <ele>283.3</ele>
        <time>2014-04-13T10:08:31Z</time>
      </trkpt>
      <trkpt lat="49.2254" lon="6.93327">
        <ele>283.8</ele>
        <time>2014-04-13T10:08:36Z</time>
      </trkpt>
      <trkpt lat="49.22547" lon="6.93325">
        <ele>282.8</ele>
        <time>2014-04-13T10:08:41Z</time>
      </trkpt>
      <trkpt lat="49.22554" lon="6.93319">
        <ele>282.7</ele>
        <time>2014-04-13T10:08:46Z</time>
      </trkpt>
      <trkpt lat="49.22561" lon="6.93314">
        <ele>282.9</ele>
        <time>2014-04-13T10:08:51Z</time>
      </trkpt>
      <trkpt lat="49.22566" lon="6.93309">
        <ele>282.9</ele>
        <time>2014-04-13T10:08:56Z</time>
      </trkpt>
      <trkpt lat="49.22574" lon="6.93293">
        <ele>283.2</ele>
        <time>2014-04-13T10:09:06Z</time>
      </trkpt>
      <trkpt lat="49.22578" lon="6.93284">
        <ele>282.7</ele>
        <time>2014-04-13T10:09:11Z</time>
      </trkpt>
      <trkpt lat="49.22581" lon="6.93274">
        <ele>282.4</ele>
        <time>2014-04-13T10:09:16Z</time>
      </trkpt>
      <trkpt lat="49.22584" lon="6.93265">
        <ele>282.6</ele>
        <time>2014-04-13T10:09:21Z</time>
      </trkpt>
      <trkpt lat="49.22588" lon="6.93256">
        <ele>282.6</ele>
        <time>2014-04-13T10:09:26Z</time>
      </trkpt>
      <trkpt lat="49.22592" lon="6.93247">
        <ele>282.7</ele>
        <time>2014-04-13T10:09:31Z</time>
      </trkpt>
      <trkpt lat="49.22595" lon="6.93237">
        <ele>283.6</ele>
        <time>2014-04-13T10:09:36Z</time>
      </trkpt>
      <trkpt lat="49.22598" lon="6.93227">
        <ele>282.7</ele>
        <time>2014-04-13T10:09:41Z</time>
      </trkpt>
      <trkpt lat="49.22603" lon="6.93217">
        <ele>282.2</ele>
        <time>2014-04-13T10:09:46Z</time>
      </trkpt>
      <trkpt lat="49.22607" lon="6.93206">
        <ele>281.5</ele>
        <time>2014-04-13T10:09:51Z</time>
      </trkpt>
      <trkpt lat="49.22611" lon="6.93196">
        <ele>280.6</ele>
        <time>2014-04-13T10:09:56Z</time>
      </trkpt>
      <trkpt lat="49.22614" lon="6.93186">
        <ele>280.2</ele>
        <time>2014-04-13T10:10:01Z</time>
      </trkpt>
      <trkpt lat="49.22625" lon="6.93165">
        <ele>279.2</ele>
        <time>2014-04-13T10:10:11Z</time>
      </trkpt>
      <trkpt lat="49.22629" lon="6.93155">
        <ele>279.2</ele>
        <time>2014-04-13T10:10:16Z</time>
      </trkpt>
      <trkpt lat="49.22634" lon="6.93146">
        <ele>278.6</ele>
        <time>2014-04-13T10:10:21Z</time>
      </trkpt>
      <trkpt lat="49.22639" lon="6.93135">
        <ele>278.6</ele>
        <time>2014-04-13T10:10:26Z</time>
      </trkpt>
      <trkpt lat="49.22644" lon="6.93126">
        <ele>278.6</ele>
        <time>2014-04-13T10:10:31Z</time>
      </trkpt>
      <trkpt lat="49.22649" lon="6.93116">
        <ele>278.6</ele>
        <time>2014-04-13T10:10:36Z</time>
      </trkpt>
      <trkpt lat="49.22654" lon="6.93107">
        <ele>277.9</ele>
        <time>2014-04-13T10:10:41Z</time>
      </trkpt>
      <trkpt lat="49.2266" lon="6.93098">
        <ele>277.3</ele>
        <time>2014-04-13T10:10:46Z</time>
      </trkpt>
      <trkpt lat="49.22663" lon="6.93089">
        <ele>277.5</ele>
        <time>2014-04-13T10:10:51Z</time>
      </trkpt>
      <trkpt lat="49.22662" lon="6.9308">
        <ele>276.9</ele>
        <time>2014-04-13T10:10:56Z</time>
      </trkpt>
      <trkpt lat="49.22661" lon="6.9307">
        <ele>277.3</ele>
        <time>2014-04-13T10:11:01Z</time>
      </trkpt>
      <trkpt lat="49.2266" lon="6.93059">
        <ele>276.2</ele>
        <time>2014-04-13T10:11:06Z</time>
      </trkpt>
      <trkpt lat="49.22655" lon="6.93035">
        <ele>275.5</ele>
        <time>2014-04-13T10:11:16Z</time>
      </trkpt>
      <trkpt lat="49.22654" lon="6.93024">
        <ele>275.1</ele>
        <time>2014-04-13T10:11:21Z</time>
      </trkpt>
      <trkpt lat="49.22652" lon="6.93013">
        <ele>273.7</ele>
        <time>2014-04-13T10:11:26Z</time>
      </trkpt>
      <trkpt lat="49.2265" lon="6.93002">
        <ele>274</ele>
        <time>2014-04-13T10:11:31Z</time>
      </trkpt>
      <trkpt lat="49.22648" lon="6.92993">
        <ele>274.8</ele>
        <time>2014-04-13T10:11:36Z</time>
      </trkpt>
      <trkpt lat="49.22645" lon="6.92983">
        <ele>274.3</ele>
        <time>2014-04-13T10:11:41Z</time>
      </trkpt>
      <trkpt lat="49.22643" lon="6.92972">
        <ele>273</ele>
        <time>2014-04-13T10:11:46Z</time>
      </trkpt>
      <trkpt lat="49.2264" lon="6.92962">
        <ele>273.7</ele>
        <time>2014-04-13T10:11:51Z</time>
      </trkpt>
      <trkpt lat="49.22638" lon="6.9295">
        <ele>273.3</ele>
        <time>2014-04-13T10:11:56Z</time>
      </trkpt>
      <trkpt lat="49.22635" lon="6.9294">
        <ele>272.8</ele>
        <time>2014-04-13T10:12:01Z</time>
      </trkpt>
      <trkpt lat="49.22633" lon="6.92929">
        <ele>271.5</ele>
        <time>2014-04-13T10:12:06Z</time>
      </trkpt>
      <trkpt lat="49.22631" lon="6.92917">
        <ele>271.7</ele>
        <time>2014-04-13T10:12:11Z</time>
      </trkpt>
      <trkpt lat="49.22625" lon="6.92895">
        <ele>271.4</ele>
        <time>2014-04-13T10:12:21Z</time>
      </trkpt>
      <trkpt lat="49.22623" lon="6.92884">
        <ele>270.3</ele>
        <time>2014-04-13T10:12:26Z</time>
      </trkpt>
      <trkpt lat="49.22622" lon="6.92873">
        <ele>270.3</ele>
        <time>2014-04-13T10:12:31Z</time>
      </trkpt>
      <trkpt lat="49.2262" lon="6.92862">
        <ele>270</ele>
        <time>2014-04-13T10:12:36Z</time>
      </trkpt>
      <trkpt lat="49.22617" lon="6.92851">
        <ele>269.1</ele>
        <time>2014-04-13T10:12:41Z</time>
      </trkpt>
      <trkpt lat="49.22616" lon="6.92841">
        <ele>268.9</ele>
        <time>2014-04-13T10:12:46Z</time>
      </trkpt>
      <trkpt lat="49.22613" lon="6.92828">
        <ele>268.4</ele>
        <time>2014-04-13T10:12:51Z</time>
      </trkpt>
      <trkpt lat="49.22612" lon="6.92815">
        <ele>268.7</ele>
        <time>2014-04-13T10:12:56Z</time>
      </trkpt>
      <trkpt lat="49.2261" lon="6.92804">
        <ele>268.3</ele>
        <time>2014-04-13T10:13:01Z</time>
      </trkpt>
      <trkpt lat="49.22609" lon="6.92793">
        <ele>267.3</ele>
        <time>2014-04-13T10:13:06Z</time>
      </trkpt>
      <trkpt lat="49.22609" lon="6.92781">
        <ele>267.2</ele>
        <time>2014-04-13T10:13:11Z</time>
      </trkpt>
      <trkpt lat="49.22608" lon="6.92771">
        <ele>267.3</ele>
        <time>2014-04-13T10:13:16Z</time>
      </trkpt>
      <trkpt lat="49.22607" lon="6.92747">
        <ele>266.1</ele>
        <time>2014-04-13T10:13:26Z</time>
      </trkpt>
      <trkpt lat="49.22608" lon="6.92737">
        <ele>265.4</ele>
        <time>2014-04-13T10:13:31Z</time>
      </trkpt>
      <trkpt lat="49.22607" lon="6.92727">
        <ele>265</ele>
        <time>2014-04-13T10:13:36Z</time>
      </trkpt>
      <trkpt lat="49.22607" lon="6.92715">
        <ele>264.5</ele>
        <time>2014-04-13T10:13:41Z</time>
      </trkpt>
      <trkpt lat="49.22608" lon="6.92704">
        <ele>264.3</ele>
        <time>2014-04-13T10:13:46Z</time>
      </trkpt>
      <trkpt lat="49.22608" lon="6.92694">
        <ele>264.6</ele>
        <time>2014-04-13T10:13:51Z</time>
      </trkpt>
      <trkpt lat="49.22608" lon="6.92683">
        <ele>263.4</ele>
        <time>2014-04-13T10:13:56Z</time>
      </trkpt>
      <trkpt lat="49.22608" lon="6.92673">
        <ele>262.8</ele>
        <time>2014-04-13T10:14:01Z</time>
      </trkpt>
      <trkpt lat="49.22609" lon="6.92663">
        <ele>263.8</ele>
        <time>2014-04-13T10:14:06Z</time>
      </trkpt>
      <trkpt lat="49.2261" lon="6.92655">
        <ele>263.1</ele>
        <time>2014-04-13T10:14:11Z</time>
      </trkpt>
      <trkpt lat="49.22611" lon="6.92644">
        <ele>263.4</ele>
        <time>2014-04-13T10:14:16Z</time>
      </trkpt>
      <trkpt lat="49.22612" lon="6.92634">
        <ele>261.6</ele>
        <time>2014-04-13T10:14:21Z</time>
      </trkpt>
      <trkpt lat="49.22613" lon="6.92612">
        <ele>262.3</ele>
        <time>2014-04-13T10:14:31Z</time>
      </trkpt>
      <trkpt lat="49.22613" lon="6.92601">
        <ele>261.3</ele>
        <time>2014-04-13T10:14:36Z</time>
      </trkpt>
      <trkpt lat="49.22614" lon="6.9259">
        <ele>261.8</ele>
        <time>2014-04-13T10:14:41Z</time>
      </trkpt>
      <trkpt lat="49.22615" lon="6.9258">
        <ele>262.3</ele>
        <time>2014-04-13T10:14:46Z</time>
      </trkpt>
      <trkpt lat="49.22616" lon="6.92569">
        <ele>261</ele>
        <time>2014-04-13T10:14:51Z</time>
      </trkpt>
      <trkpt lat="49.22616" lon="6.92557">
        <ele>260.9</ele>
        <time>2014-04-13T10:14:56Z</time>
      </trkpt>
      <trkpt lat="49.22617" lon="6.92546">
        <ele>260.7</ele>
        <time>2014-04-13T10:15:01Z</time>
      </trkpt>
      <trkpt lat="49.22618" lon="6.92535">
        <ele>260.9</ele>
        <time>2014-04-13T10:15:06Z</time>
      </trkpt>
      <trkpt lat="49.22619" lon="6.92523">
        <ele>259.9</ele>
        <time>2014-04-13T10:15:11Z</time>
      </trkpt>
      <trkpt lat="49.2262" lon="6.92512">
        <ele>259</ele>
        <time>2014-04-13T10:15:16Z</time>
      </trkpt>
      <trkpt lat="49.2262" lon="6.925">
        <ele>258.8</ele>
        <time>2014-04-13T10:15:21Z</time>
      </trkpt>
      <trkpt lat="49.22619" lon="6.92488">
        <ele>260.1</ele>
        <time>2014-04-13T10:15:26Z</time>
      </trkpt>
      <trkpt lat="49.22619" lon="6.92463">
        <ele>259.7</ele>
        <time>2014-04-13T10:15:36Z</time>
      </trkpt>
      <trkpt lat="49.22619" lon="6.9245">
        <ele>260.1</ele>
        <time>2014-04-13T10:15:41Z</time>
      </trkpt>
      <trkpt lat="49.22619" lon="6.92438">
        <ele>259.5</ele>
        <time>2014-04-13T10:15:46Z</time>
      </trkpt>
      <trkpt lat="49.22618" lon="6.92424">
        <ele>259.8</ele>
        <time>2014-04-13T10:15:51Z</time>
      </trkpt>
      <trkpt lat="49.22617" lon="6.92413">
        <ele>258.7</ele>
        <time>2014-04-13T10:15:56Z</time>
      </trkpt>
      <trkpt lat="49.22616" lon="6.92401">
        <ele>258.7</ele>
        <time>2014-04-13T10:16:01Z</time>
      </trkpt>
      <trkpt lat="49.22615" lon="6.92389">
        <ele>258.5</ele>
        <time>2014-04-13T10:16:06Z</time>
      </trkpt>
      <trkpt lat="49.22615" lon="6.92378">
        <ele>258.1</ele>
        <time>2014-04-13T10:16:11Z</time>
      </trkpt>
      <trkpt lat="49.22614" lon="6.92367">
        <ele>256.3</ele>
        <time>2014-04-13T10:16:16Z</time>
      </trkpt>
      <trkpt lat="49.22614" lon="6.92356">
        <ele>256.8</ele>
        <time>2014-04-13T10:16:21Z</time>
      </trkpt>
      <trkpt lat="49.22614" lon="6.92344">
        <ele>257.4</ele>
        <time>2014-04-13T10:16:26Z</time>
      </trkpt>
      <trkpt lat="49.22612" lon="6.92333">
        <ele>256</ele>
        <time>2014-04-13T10:16:31Z</time>
      </trkpt>
      <trkpt lat="49.22611" lon="6.92312">
        <ele>255.6</ele>
        <time>2014-04-13T10:16:41Z</time>
      </trkpt>
      <trkpt lat="49.22611" lon="6.923">
        <ele>255.6</ele>
        <time>2014-04-13T10:16:46Z</time>
      </trkpt>
      <trkpt lat="49.22611" lon="6.92289">
        <ele>254.8</ele>
        <time>2014-04-13T10:16:51Z</time>
      </trkpt>
      <trkpt lat="49.22611" lon="6.92278">
        <ele>255.1</ele>
        <time>2014-04-13T10:16:56Z</time>
      </trkpt>
      <trkpt lat="49.22611" lon="6.92267">
        <ele>255</ele>
        <time>2014-04-13T10:17:01Z</time>
      </trkpt>
      <trkpt lat="49.2261" lon="6.92255">
        <ele>253.5</ele>
        <time>2014-04-13T10:17:06Z</time>
      </trkpt>
      <trkpt lat="49.2261" lon="6.92242">
        <ele>253.5</ele>
        <time>2014-04-13T10:17:11Z</time>
      </trkpt>
      <trkpt lat="49.22609" lon="6.9223">
        <ele>253.8</ele>
        <time>2014-04-13T10:17:16Z</time>
      </trkpt>
      <trkpt lat="49.22608" lon="6.92217">
        <ele>253.6</ele>
        <time>2014-04-13T10:17:21Z</time>
      </trkpt>
      <trkpt lat="49.22608" lon="6.92205">
        <ele>252.8</ele>
        <time>2014-04-13T10:17:26Z</time>
      </trkpt>
      <trkpt lat="49.22608" lon="6.92191">
        <ele>253.5</ele>
        <time>2014-04-13T10:17:31Z</time>
      </trkpt>
      <trkpt lat="49.22608" lon="6.92179">
        <ele>253</ele>
        <time>2014-04-13T10:17:36Z</time>
      </trkpt>
      <trkpt lat="49.2261" lon="6.92157">
        <ele>251.3</ele>
        <time>2014-04-13T10:17:46Z</time>
      </trkpt>
      <trkpt lat="49.2261" lon="6.92147">
        <ele>251.6</ele>
        <time>2014-04-13T10:17:51Z</time>
      </trkpt>
      <trkpt lat="49.22611" lon="6.92137">
        <ele>251.5</ele>
        <time>2014-04-13T10:17:56Z</time>
      </trkpt>
      <trkpt lat="49.22611" lon="6.92126">
        <ele>250.6</ele>
        <time>2014-04-13T10:18:01Z</time>
      </trkpt>
      <trkpt lat="49.22612" lon="6.92115">
        <ele>249.8</ele>
        <time>2014-04-13T10:18:06Z</time>
      </trkpt>
      <trkpt lat="49.22613" lon="6.92103">
        <ele>249.9</ele>
        <time>2014-04-13T10:18:11Z</time>
      </trkpt>
      <trkpt lat="49.22613" lon="6.92092">
        <ele>249.2</ele>
        <time>2014-04-13T10:18:16Z</time>
      </trkpt>
      <trkpt lat="49.22614" lon="6.9208">
        <ele>248.6</ele>
        <time>2014-04-13T10:18:21Z</time>
      </trkpt>
      <trkpt lat="49.22615" lon="6.92069">
        <ele>248.7</ele>
        <time>2014-04-13T10:18:26Z</time>
      </trkpt>
      <trkpt lat="49.22615" lon="6.92059">
        <ele>247.8</ele>
        <time>2014-04-13T10:18:31Z</time>
      </trkpt>
      <trkpt lat="49.22616" lon="6.92048">
        <ele>247</ele>
        <time>2014-04-13T10:18:36Z</time>
      </trkpt>
      <trkpt lat="49.22616" lon="6.92037">
        <ele>247.1</ele>
        <time>2014-04-13T10:18:41Z</time>
      </trkpt>
      <trkpt lat="49.22617" lon="6.92016">
        <ele>246.7</ele>
        <time>2014-04-13T10:18:51Z</time>
      </trkpt>
      <trkpt lat="49.22617" lon="6.92004">
        <ele>246.7</ele>
        <time>2014-04-13T10:18:56Z</time>
      </trkpt>
      <trkpt lat="49.22619" lon="6.91992">
        <ele>246</ele>
        <time>2014-04-13T10:19:01Z</time>
      </trkpt>
      <trkpt lat="49.2262" lon="6.91981">
        <ele>245.5</ele>
        <time>2014-04-13T10:19:06Z</time>
      </trkpt>
      <trkpt lat="49.2262" lon="6.91969">
        <ele>244.7</ele>
        <time>2014-04-13T10:19:11Z</time>
      </trkpt>
      <trkpt lat="49.2262" lon="6.91956">
        <ele>244.6</ele>
        <time>2014-04-13T10:19:16Z</time>
      </trkpt>
      <trkpt lat="49.22619" lon="6.91944">
        <ele>243</ele>
        <time>2014-04-13T10:19:21Z</time>
      </trkpt>
      <trkpt lat="49.22617" lon="6.91932">
        <ele>242.5</ele>
        <time>2014-04-13T10:19:26Z</time>
      </trkpt>
      <trkpt lat="49.22616" lon="6.91919">
        <ele>242.6</ele>
        <time>2014-04-13T10:19:31Z</time>
      </trkpt>
      <trkpt lat="49.22614" lon="6.91907">
        <ele>241</ele>
        <time>2014-04-13T10:19:36Z</time>
      </trkpt>
      <trkpt lat="49.22614" lon="6.91896">
        <ele>241.3</ele>
        <time>2014-04-13T10:19:41Z</time>
      </trkpt>
      <trkpt lat="49.22614" lon="6.91885">
        <ele>240.4</ele>
        <time>2014-04-13T10:19:46Z</time>
      </trkpt>
      <trkpt lat="49.22614" lon="6.91863">
        <ele>238.8</ele>
        <time>2014-04-13T10:19:56Z</time>
      </trkpt>
      <trkpt lat="49.22612" lon="6.91851">
        <ele>237.9</ele>
        <time>2014-04-13T10:20:01Z</time>
      </trkpt>
      <trkpt lat="49.2261" lon="6.9184">
        <ele>237.3</ele>
        <time>2014-04-13T10:20:06Z</time>
      </trkpt>
      <trkpt lat="49.22608" lon="6.91828">
        <ele>236.7</ele>
        <time>2014-04-13T10:20:11Z</time>
      </trkpt>
      <trkpt lat="49.22605" lon="6.91817">
        <ele>236.6</ele>
        <time>2014-04-13T10:20:16Z</time>
      </trkpt>
      <trkpt lat="49.22601" lon="6.91807">
        <ele>235.5</ele>
        <time>2014-04-13T10:20:21Z</time>
      </trkpt>
      <trkpt lat="49.22596" lon="6.91798">
        <ele>234.4</ele>
        <time>2014-04-13T10:20:26Z</time>
      </trkpt>
      <trkpt lat="49.22591" lon="6.9179">
        <ele>234.8</ele>
        <time>2014-04-13T10:20:31Z</time>
      </trkpt>
      <trkpt lat="49.22586" lon="6.91783">
        <ele>233.9</ele>
        <time>2014-04-13T10:20:36Z</time>
      </trkpt>
      <trkpt lat="49.2258" lon="6.91775">
        <ele>233.3</ele>
        <time>2014-04-13T10:20:41Z</time>
      </trkpt>
      <trkpt lat="49.22573" lon="6.91769">
        <ele>232.7</ele>
        <time>2014-04-13T10:20:46Z</time>
      </trkpt>
      <trkpt lat="49.22567" lon="6.91762">
        <ele>233.2</ele>
        <time>2014-04-13T10:20:51Z</time>
      </trkpt>
      <trkpt lat="49.22553" lon="6.9175">
        <ele>232.8</ele>
        <time>2014-04-13T10:21:01Z</time>
      </trkpt>
      <trkpt lat="49.22547" lon="6.91746">
        <ele>231.4</ele>
        <time>2014-04-13T10:21:06Z</time>
      </trkpt>
      <trkpt lat="49.22541" lon="6.91741">
        <ele>230.4</ele>
        <time>2014-04-13T10:21:11Z</time>
      </trkpt>
      <trkpt lat="49.22534" lon="6.91737">
        <ele>230.3</ele>
        <time>2014-04-13T10:21:16Z</time>
      </trkpt>
      <trkpt lat="49.22527" lon="6.91733">
        <ele>230.3</ele>
        <time>2014-04-13T10:21:21Z</time>
      </trkpt>
      <trkpt lat="49.2252" lon="6.9173">
        <ele>228.7</ele>
        <time>2014-04-13T10:21:26Z</time>
      </trkpt>
      <trkpt lat="49.22512" lon="6.91727">
        <ele>228.3</ele>
        <time>2014-04-13T10:21:31Z</time>
      </trkpt>
      <trkpt lat="49.22505" lon="6.91725">
        <ele>228.3</ele>
        <time>2014-04-13T10:21:36Z</time>
      </trkpt>
      <trkpt lat="49.22497" lon="6.91725">
        <ele>227.3</ele>
        <time>2014-04-13T10:21:41Z</time>
      </trkpt>
      <trkpt lat="49.22489" lon="6.91724">
        <ele>227</ele>
        <time>2014-04-13T10:21:46Z</time>
      </trkpt>
      <trkpt lat="49.22481" lon="6.91723">
        <ele>227</ele>
        <time>2014-04-13T10:21:51Z</time>
      </trkpt>
      <trkpt lat="49.22474" lon="6.91724">
        <ele>226.3</ele>
        <time>2014-04-13T10:21:56Z</time>
      </trkpt>
      <trkpt lat="49.22459" lon="6.91726">
        <ele>225.3</ele>
        <time>2014-04-13T10:22:06Z</time>
      </trkpt>
      <trkpt lat="49.22451" lon="6.91729">
        <ele>224.9</ele>
        <time>2014-04-13T10:22:11Z</time>
      </trkpt>
      <trkpt lat="49.22444" lon="6.91733">
        <ele>224.3</ele>
        <time>2014-04-13T10:22:16Z</time>
      </trkpt>
      <trkpt lat="49.22437" lon="6.91737">
        <ele>224.3</ele>
        <time>2014-04-13T10:22:21Z</time>
      </trkpt>
      <trkpt lat="49.22431" lon="6.91741">
        <ele>224</ele>
        <time>2014-04-13T10:22:26Z</time>
      </trkpt>
      <trkpt lat="49.22425" lon="6.91746">
        <ele>223.5</ele>
        <time>2014-04-13T10:22:31Z</time>
      </trkpt>
      <trkpt lat="49.22419" lon="6.91747">
        <ele>223.7</ele>
        <time>2014-04-13T10:22:36Z</time>
      </trkpt>
      <trkpt lat="49.22415" lon="6.91742">
        <ele>222.2</ele>
        <time>2014-04-13T10:22:41Z</time>
      </trkpt>
      <trkpt lat="49.22413" lon="6.91741">
        <ele>222.1</ele>
        <time>2014-04-13T10:22:46Z</time>
      </trkpt>
      <trkpt lat="49.22412" lon="6.9174">
        <ele>221.8</ele>
        <time>2014-04-13T10:22:51Z</time>
      </trkpt>
      <trkpt lat="49.22412" lon="6.91737">
        <ele>221.8</ele>
        <time>2014-04-13T10:22:56Z</time>
      </trkpt>
      <trkpt lat="49.22412" lon="6.91733">
        <ele>222</ele>
        <time>2014-04-13T10:23:01Z</time>
      </trkpt>
      <trkpt lat="49.22412" lon="6.91722">
        <ele>222</ele>
        <time>2014-04-13T10:23:11Z</time>
      </trkpt>
      <trkpt lat="49.22407" lon="6.91718">
        <ele>222.1</ele>
        <time>2014-04-13T10:23:16Z</time>
      </trkpt>
      <trkpt lat="49.22401" lon="6.91716">
        <ele>220.7</ele>
        <time>2014-04-13T10:23:21Z</time>
      </trkpt>
      <trkpt lat="49.22396" lon="6.91714">
        <ele>219.9</ele>
        <time>2014-04-13T10:23:26Z</time>
      </trkpt>
      <trkpt lat="49.2239" lon="6.91712">
        <ele>220</ele>
        <time>2014-04-13T10:23:31Z</time>
      </trkpt>
      <trkpt lat="49.22383" lon="6.9171">
        <ele>219.4</ele>
        <time>2014-04-13T10:23:36Z</time>
      </trkpt>
      <trkpt lat="49.22376" lon="6.91707">
        <ele>220</ele>
        <time>2014-04-13T10:23:41Z</time>
      </trkpt>
      <trkpt lat="49.22367" lon="6.91704">
        <ele>219.7</ele>
        <time>2014-04-13T10:23:46Z</time>
      </trkpt>
      <trkpt lat="49.22359" lon="6.91702">
        <ele>220.1</ele>
        <time>2014-04-13T10:23:51Z</time>
      </trkpt>
      <trkpt lat="49.22351" lon="6.91699">
        <ele>219.4</ele>
        <time>2014-04-13T10:23:56Z</time>
      </trkpt>
      <trkpt lat="49.22345" lon="6.91694">
        <ele>220</ele>
        <time>2014-04-13T10:24:01Z</time>
      </trkpt>
      <trkpt lat="49.22339" lon="6.91687">
        <ele>219.8</ele>
        <time>2014-04-13T10:24:06Z</time>
      </trkpt>
      <trkpt lat="49.22323" lon="6.91677">
        <ele>222.1</ele>
        <time>2014-04-13T10:24:16Z</time>
      </trkpt>
      <trkpt lat="49.22317" lon="6.91676">
        <ele>222.2</ele>
        <time>2014-04-13T10:24:21Z</time>
      </trkpt>
      <trkpt lat="49.22313" lon="6.9168">
        <ele>222.3</ele>
        <time>2014-04-13T10:24:26Z</time>
      </trkpt>
      <trkpt lat="49.22306" lon="6.91683">
        <ele>222.5</ele>
        <time>2014-04-13T10:24:31Z</time>
      </trkpt>
      <trkpt lat="49.223" lon="6.9169">
        <ele>222.7</ele>
        <time>2014-04-13T10:24:36Z</time>
      </trkpt>
      <trkpt lat="49.22294" lon="6.91695">
        <ele>223.1</ele>
        <time>2014-04-13T10:24:41Z</time>
      </trkpt>
      <trkpt lat="49.22288" lon="6.917">
        <ele>223.5</ele>
        <time>2014-04-13T10:24:46Z</time>
      </trkpt>
      <trkpt lat="49.22282" lon="6.91706">
        <ele>223.6</ele>
        <time>2014-04-13T10:24:51Z</time>
      </trkpt>
      <trkpt lat="49.22276" lon="6.91712">
        <ele>224.2</ele>
        <time>2014-04-13T10:24:56Z</time>
      </trkpt>
      <trkpt lat="49.2227" lon="6.9172">
        <ele>224.2</ele>
        <time>2014-04-13T10:25:01Z</time>
      </trkpt>
      <trkpt lat="49.22263" lon="6.91726">
        <ele>224.1</ele>
        <time>2014-04-13T10:25:06Z</time>
      </trkpt>
      <trkpt lat="49.22257" lon="6.91731">
        <ele>224</ele>
        <time>2014-04-13T10:25:11Z</time>
      </trkpt>
      <trkpt lat="49.22246" lon="6.91732">
        <ele>224.3</ele>
        <time>2014-04-13T10:25:21Z</time>
      </trkpt>
      <trkpt lat="49.2224" lon="6.91734">
        <ele>225.1</ele>
        <time>2014-04-13T10:25:26Z</time>
      </trkpt>
      <trkpt lat="49.22234" lon="6.91733">
        <ele>226.1</ele>
        <time>2014-04-13T10:25:31Z</time>
      </trkpt>
      <trkpt lat="49.22228" lon="6.91732">
        <ele>226.1</ele>
        <time>2014-04-13T10:25:36Z</time>
      </trkpt>
      <trkpt lat="49.22223" lon="6.9173">
        <ele>226</ele>
        <time>2014-04-13T10:25:41Z</time>
      </trkpt>
      <trkpt lat="49.22217" lon="6.91728">
        <ele>226.8</ele>
        <time>2014-04-13T10:25:46Z</time>
      </trkpt>
      <trkpt lat="49.22211" lon="6.91725">
        <ele>227.8</ele>
        <time>2014-04-13T10:25:51Z</time>
      </trkpt>
      <trkpt lat="49.22205" lon="6.91721">
        <ele>227.5</ele>
        <time>2014-04-13T10:25:56Z</time>
      </trkpt>
      <trkpt lat="49.222" lon="6.91717">
        <ele>228.7</ele>
        <time>2014-04-13T10:26:01Z</time>
      </trkpt>
      <trkpt lat="49.22195" lon="6.91712">
        <ele>228.5</ele>
        <time>2014-04-13T10:26:06Z</time>
      </trkpt>
      <trkpt lat="49.22192" lon="6.91707">
        <ele>229.8</ele>
        <time>2014-04-13T10:26:11Z</time>
      </trkpt>
      <trkpt lat="49.22191" lon="6.917">
        <ele>230.6</ele>
        <time>2014-04-13T10:26:16Z</time>
      </trkpt>
      <trkpt lat="49.22186" lon="6.91691">
        <ele>230.6</ele>
        <time>2014-04-13T10:26:26Z</time>
      </trkpt>
      <trkpt lat="49.22185" lon="6.9169">
        <ele>230.7</ele>
        <time>2014-04-13T10:26:31Z</time>
      </trkpt>
      <trkpt lat="49.22184" lon="6.9169">
        <ele>230.2</ele>
        <time>2014-04-13T10:26:36Z</time>
      </trkpt>
      <trkpt lat="49.22184" lon="6.9169">
        <ele>230.3</ele>
        <time>2014-04-13T10:26:41Z</time>
      </trkpt>
      <trkpt lat="49.22184" lon="6.91688">
        <ele>230.7</ele>
        <time>2014-04-13T10:26:46Z</time>
      </trkpt>
      <trkpt lat="49.22184" lon="6.91683">
        <ele>231.1</ele>
        <time>2014-04-13T10:26:51Z</time>
      </trkpt>
      <trkpt lat="49.22184" lon="6.91675">
        <ele>232</ele>
        <time>2014-04-13T10:26:56Z</time>
      </trkpt>
      <trkpt lat="49.22184" lon="6.91668">
        <ele>232.8</ele>
        <time>2014-04-13T10:27:01Z</time>
      </trkpt>
      <trkpt lat="49.22183" lon="6.9166">
        <ele>232.8</ele>
        <time>2014-04-13T10:27:06Z</time>
      </trkpt>
      <trkpt lat="49.22183" lon="6.91652">
        <ele>233.9</ele>
        <time>2014-04-13T10:27:11Z</time>
      </trkpt>
      <trkpt lat="49.22184" lon="6.91643">
        <ele>233.7</ele>
        <time>2014-04-13T10:27:16Z</time>
      </trkpt>
      <trkpt lat="49.22185" lon="6.91634">
        <ele>234.3</ele>
        <time>2014-04-13T10:27:21Z</time>
      </trkpt>
      <trkpt lat="49.22185" lon="6.91615">
        <ele>236.8</ele>
        <time>2014-04-13T10:27:31Z</time>
      </trkpt>
      <trkpt lat="49.22186" lon="6.91606">
        <ele>236.9</ele>
        <time>2014-04-13T10:27:36Z</time>
      </trkpt>
      <trkpt lat="49.22187" lon="6.91597">
        <ele>236.5</ele>
        <time>2014-04-13T10:27:41Z</time>
      </trkpt>
      <trkpt lat="49.22188" lon="6.91588">
        <ele>237.1</ele>
        <time>2014-04-13T10:27:46Z</time>
      </trkpt>
      <trkpt lat="49.22191" lon="6.9158">
        <ele>237.1</ele>
        <time>2014-04-13T10:27:51Z</time>
      </trkpt>
      <trkpt lat="49.22193" lon="6.91571">
        <ele>238.3</ele>
        <time>2014-04-13T10:27:56Z</time>
      </trkpt>
      <trkpt lat="49.22197" lon="6.91562">
        <ele>237.6</ele>
        <time>2014-04-13T10:28:01Z</time>
      </trkpt>
      <trkpt lat="49.22199" lon="6.91552">
        <ele>238.8</ele>
        <time>2014-04-13T10:28:06Z</time>
      </trkpt>
      <trkpt lat="49.22201" lon="6.91542">
        <ele>238.5</ele>
        <time>2014-04-13T10:28:11Z</time>
      </trkpt>
      <trkpt lat="49.22204" lon="6.9153">
        <ele>239.4</ele>
        <time>2014-04-13T10:28:16Z</time>
      </trkpt>
      <trkpt lat="49.22205" lon="6.91518">
        <ele>239.2</ele>
        <time>2014-04-13T10:28:21Z</time>
      </trkpt>
      <trkpt lat="49.22207" lon="6.91506">
        <ele>239.6</ele>
        <time>2014-04-13T10:28:26Z</time>
      </trkpt>
      <trkpt lat="49.22211" lon="6.91484">
        <ele>239.6</ele>
        <time>2014-04-13T10:28:36Z</time>
      </trkpt>
      <trkpt lat="49.22215" lon="6.91473">
        <ele>240</ele>
        <time>2014-04-13T10:28:41Z</time>
      </trkpt>
      <trkpt lat="49.22217" lon="6.91463">
        <ele>240.2</ele>
        <time>2014-04-13T10:28:46Z</time>
      </trkpt>
      <trkpt lat="49.22221" lon="6.91454">
        <ele>238.8</ele>
        <time>2014-04-13T10:28:51Z</time>
      </trkpt>
      <trkpt lat="49.22226" lon="6.91444">
        <ele>238.6</ele>
        <time>2014-04-13T10:28:56Z</time>
      </trkpt>
      <trkpt lat="49.22231" lon="6.91437">
        <ele>237.4</ele>
        <time>2014-04-13T10:29:01Z</time>
      </trkpt>
      <trkpt lat="49.22235" lon="6.91428">
        <ele>237.3</ele>
        <time>2014-04-13T10:29:06Z</time>
      </trkpt>
      <trkpt lat="49.22237" lon="6.91421">
        <ele>237.3</ele>
        <time>2014-04-13T10:29:11Z</time>
      </trkpt>
      <trkpt lat="49.22239" lon="6.91414">
        <ele>235.7</ele>
        <time>2014-04-13T10:29:16Z</time>
      </trkpt>
      <trkpt lat="49.22238" lon="6.91406">
        <ele>235.2</ele>
        <time>2014-04-13T10:29:21Z</time>
      </trkpt>
      <trkpt lat="49.22237" lon="6.91398">
        <ele>235.4</ele>
        <time>2014-04-13T10:29:26Z</time>
      </trkpt>
      <trkpt lat="49.22237" lon="6.91394">
        <ele>236.1</ele>
        <time>2014-04-13T10:29:31Z</time>
      </trkpt>
      <trkpt lat="49.22238" lon="6.91387">
        <ele>235.6</ele>
        <time>2014-04-13T10:29:41Z</time>
      </trkpt>
      <trkpt lat="49.22238" lon="6.91382">
        <ele>235.2</ele>
        <time>2014-04-13T10:29:46Z</time>
      </trkpt>
      <trkpt lat="49.22236" lon="6.91376">
        <ele>235.7</ele>
        <time>2014-04-13T10:29:51Z</time>
      </trkpt>
      <trkpt lat="49.22235" lon="6.91374">
        <ele>236.6</ele>
        <time>2014-04-13T10:29:56Z</time>
      </trkpt>
      <trkpt lat="49.22237" lon="6.91373">
        <ele>236.2</ele>
        <time>2014-04-13T10:30:01Z</time>
      </trkpt>
      <trkpt lat="49.22237" lon="6.91371">
        <ele>236.6</ele>
        <time>2014-04-13T10:30:06Z</time>
      </trkpt>
      <trkpt lat="49.22236" lon="6.91372">
        <ele>236.4</ele>
        <time>2014-04-13T10:30:11Z</time>
      </trkpt>
      <trkpt lat="49.22234" lon="6.91371">
        <ele>235.9</ele>
        <time>2014-04-13T10:30:16Z</time>
      </trkpt>
      <trkpt lat="49.2223" lon="6.91367">
        <ele>235.6</ele>
        <time>2014-04-13T10:30:21Z</time>
      </trkpt>
      <trkpt lat="49.22226" lon="6.91362">
        <ele>236</ele>
        <time>2014-04-13T10:30:26Z</time>
      </trkpt>
      <trkpt lat="49.22222" lon="6.91356">
        <ele>235.9</ele>
        <time>2014-04-13T10:30:31Z</time>
      </trkpt>
      <trkpt lat="49.2222" lon="6.91351">
        <ele>235.8</ele>
        <time>2014-04-13T10:30:36Z</time>
      </trkpt>
      <trkpt lat="49.2221" lon="6.91338">
        <ele>234.8</ele>
        <time>2014-04-13T10:30:46Z</time>
      </trkpt>
      <trkpt lat="49.22204" lon="6.91331">
        <ele>235</ele>
        <time>2014-04-13T10:30:51Z</time>
      </trkpt>
      <trkpt lat="49.22198" lon="6.91323">
        <ele>235.7</ele>
        <time>2014-04-13T10:30:56Z</time>
      </trkpt>
      <trkpt lat="49.22193" lon="6.91316">
        <ele>235.8</ele>
        <time>2014-04-13T10:31:01Z</time>
      </trkpt>
      <trkpt lat="49.22188" lon="6.91309">
        <ele>235.8</ele>
        <time>2014-04-13T10:31:06Z</time>
      </trkpt>
      <trkpt lat="49.22183" lon="6.91301">
        <ele>235.3</ele>
        <time>2014-04-13T10:31:11Z</time>
      </trkpt>
      <trkpt lat="49.22177" lon="6.91294">
        <ele>234.8</ele>
        <time>2014-04-13T10:31:16Z</time>
      </trkpt>
      <trkpt lat="49.22173" lon="6.91287">
        <ele>234.8</ele>
        <time>2014-04-13T10:31:21Z</time>
      </trkpt>
      <trkpt lat="49.22167" lon="6.91278">
        <ele>234.1</ele>
        <time>2014-04-13T10:31:26Z</time>
      </trkpt>
      <trkpt lat="49.22161" lon="6.9127">
        <ele>234.6</ele>
        <time>2014-04-13T10:31:31Z</time>
      </trkpt>
      <trkpt lat="49.22155" lon="6.91261">
        <ele>233.7</ele>
        <time>2014-04-13T10:31:36Z</time>
      </trkpt>
      <trkpt lat="49.2215" lon="6.91253">
        <ele>232.8</ele>
        <time>2014-04-13T10:31:41Z</time>
      </trkpt>
      <trkpt lat="49.22141" lon="6.91239">
        <ele>232.1</ele>
        <time>2014-04-13T10:31:51Z</time>
      </trkpt>
      <trkpt lat="49.22135" lon="6.91231">
        <ele>231.5</ele>
        <time>2014-04-13T10:31:56Z</time>
      </trkpt>
      <trkpt lat="49.22129" lon="6.91222">
        <ele>231.1</ele>
        <time>2014-04-13T10:32:01Z</time>
      </trkpt>
      <trkpt lat="49.22124" lon="6.91214">
        <ele>231</ele>
        <time>2014-04-13T10:32:06Z</time>
      </trkpt>
      <trkpt lat="49.22119" lon="6.91206">
        <ele>230.5</ele>
        <time>2014-04-13T10:32:11Z</time>
      </trkpt>
      <trkpt lat="49.22115" lon="6.91197">
        <ele>230.4</ele>
        <time>2014-04-13T10:32:16Z</time>
      </trkpt>
      <trkpt lat="49.22111" lon="6.91189">
        <ele>230.9</ele>
        <time>2014-04-13T10:32:21Z</time>
      </trkpt>
      <trkpt lat="49.22107" lon="6.91182">
        <ele>230.6</ele>
        <time>2014-04-13T10:32:26Z</time>
      </trkpt>
      <trkpt lat="49.22103" lon="6.91173">
        <ele>230.5</ele>
        <time>2014-04-13T10:32:31Z</time>
      </trkpt>
      <trkpt lat="49.22099" lon="6.91164">
        <ele>230.3</ele>
        <time>2014-04-13T10:32:36Z</time>
      </trkpt>
      <trkpt lat="49.22094" lon="6.91155">
        <ele>230.8</ele>
        <time>2014-04-13T10:32:41Z</time>
      </trkpt>
      <trkpt lat="49.22088" lon="6.91146">
        <ele>230.7</ele>
        <time>2014-04-13T10:32:46Z</time>
      </trkpt>
      <trkpt lat="49.22079" lon="6.91131">
        <ele>231</ele>
        <time>2014-04-13T10:32:56Z</time>
      </trkpt>
      <trkpt lat="49.22073" lon="6.91126">
        <ele>230.6</ele>
        <time>2014-04-13T10:33:01Z</time>
      </trkpt>
      <trkpt lat="49.22068" lon="6.91121">
        <ele>231</ele>
        <time>2014-04-13T10:33:06Z</time>
      </trkpt>
      <trkpt lat="49.22062" lon="6.91116">
        <ele>231</ele>
        <time>2014-04-13T10:33:11Z</time>
      </trkpt>
      <trkpt lat="49.22056" lon="6.91112">
        <ele>230.9</ele>
        <time>2014-04-13T10:33:16Z</time>
      </trkpt>
      <trkpt lat="49.2205" lon="6.91107">
        <ele>230.9</ele>
        <time>2014-04-13T10:33:21Z</time>
      </trkpt>
      <trkpt lat="49.22043" lon="6.91102">
        <ele>230.9</ele>
        <time>2014-04-13T10:33:26Z</time>
      </trkpt>
      <trkpt lat="49.22037" lon="6.91097">
        <ele>231.4</ele>
        <time>2014-04-13T10:33:31Z</time>
      </trkpt>
      <trkpt lat="49.2203" lon="6.91093">
        <ele>232.2</ele>
        <time>2014-04-13T10:33:36Z</time>
      </trkpt>
      <trkpt lat="49.22022" lon="6.91089">
        <ele>232.1</ele>
        <time>2014-04-13T10:33:41Z</time>
      </trkpt>
      <trkpt lat="49.22016" lon="6.91085">
        <ele>232</ele>
        <time>2014-04-13T10:33:46Z</time>
      </trkpt>
      <trkpt lat="49.22008" lon="6.91081">
        <ele>232.6</ele>
        <time>2014-04-13T10:33:51Z</time>
      </trkpt>
      <trkpt lat="49.21992" lon="6.91073">
        <ele>232.6</ele>
        <time>2014-04-13T10:34:01Z</time>
      </trkpt>
      <trkpt lat="49.21985" lon="6.91071">
        <ele>232.4</ele>
        <time>2014-04-13T10:34:06Z</time>
      </trkpt>
      <trkpt lat="49.21979" lon="6.91068">
        <ele>232.9</ele>
        <time>2014-04-13T10:34:11Z</time>
      </trkpt>
      <trkpt lat="49.21973" lon="6.91065">
        <ele>232.8</ele>
        <time>2014-04-13T10:34:16Z</time>
      </trkpt>
      <trkpt lat="49.21965" lon="6.91062">
        <ele>233.1</ele>
        <time>2014-04-13T10:34:21Z</time>
      </trkpt>
      <trkpt lat="49.21957" lon="6.91059">
        <ele>233.4</ele>
        <time>2014-04-13T10:34:26Z</time>
      </trkpt>
      <trkpt lat="49.21949" lon="6.91055">
        <ele>233.1</ele>
        <time>2014-04-13T10:34:31Z</time>
      </trkpt>
      <trkpt lat="49.2194" lon="6.91051">
        <ele>233.4</ele>
        <time>2014-04-13T10:34:36Z</time>
      </trkpt>
      <trkpt lat="49.21934" lon="6.91048">
        <ele>233.6</ele>
        <time>2014-04-13T10:34:41Z</time>
      </trkpt>
      <trkpt lat="49.21927" lon="6.91044">
        <ele>232.5</ele>
        <time>2014-04-13T10:34:46Z</time>
      </trkpt>
      <trkpt lat="49.21921" lon="6.91042">
        <ele>232.8</ele>
        <time>2014-04-13T10:34:51Z</time>
      </trkpt>
      <trkpt lat="49.21915" lon="6.91037">
        <ele>232.9</ele>
        <time>2014-04-13T10:34:56Z</time>
      </trkpt>
      <trkpt lat="49.21902" lon="6.91026">
        <ele>233.1</ele>
        <time>2014-04-13T10:35:06Z</time>
      </trkpt>
      <trkpt lat="49.21896" lon="6.9102">
        <ele>232.8</ele>
        <time>2014-04-13T10:35:11Z</time>
      </trkpt>
      <trkpt lat="49.21891" lon="6.91014">
        <ele>232.7</ele>
        <time>2014-04-13T10:35:16Z</time>
      </trkpt>
      <trkpt lat="49.21885" lon="6.91008">
        <ele>232.9</ele>
        <time>2014-04-13T10:35:21Z</time>
      </trkpt>
      <trkpt lat="49.21879" lon="6.91002">
        <ele>232.9</ele>
        <time>2014-04-13T10:35:26Z</time>
      </trkpt>
      <trkpt lat="49.21873" lon="6.90994">
        <ele>233.8</ele>
        <time>2014-04-13T10:35:31Z</time>
      </trkpt>
      <trkpt lat="49.21867" lon="6.90987">
        <ele>233.4</ele>
        <time>2014-04-13T10:35:36Z</time>
      </trkpt>
      <trkpt lat="49.2186" lon="6.90981">
        <ele>234</ele>
        <time>2014-04-13T10:35:41Z</time>
      </trkpt>
      <trkpt lat="49.21853" lon="6.90975">
        <ele>233.5</ele>
        <time>2014-04-13T10:35:46Z</time>
      </trkpt>
      <trkpt lat="49.21848" lon="6.90967">
        <ele>233.9</ele>
        <time>2014-04-13T10:35:51Z</time>
      </trkpt>
      <trkpt lat="49.21842" lon="6.9096">
        <ele>233.9</ele>
        <time>2014-04-13T10:35:56Z</time>
      </trkpt>
      <trkpt lat="49.21836" lon="6.90952">
        <ele>234.2</ele>
        <time>2014-04-13T10:36:01Z</time>
      </trkpt>
      <trkpt lat="49.21825" lon="6.90937">
        <ele>234.9</ele>
        <time>2014-04-13T10:36:11Z</time>
      </trkpt>
      <trkpt lat="49.21821" lon="6.90931">
        <ele>235.3</ele>
        <time>2014-04-13T10:36:16Z</time>
      </trkpt>
      <trkpt lat="49.21816" lon="6.90924">
        <ele>234.6</ele>
        <time>2014-04-13T10:36:21Z</time>
      </trkpt>
      <trkpt lat="49.2181" lon="6.90916">
        <ele>234.7</ele>
        <time>2014-04-13T10:36:26Z</time>
      </trkpt>
      <trkpt lat="49.21806" lon="6.9091">
        <ele>235.4</ele>
        <time>2014-04-13T10:36:31Z</time>
      </trkpt>
      <trkpt lat="49.21801" lon="6.90902">
        <ele>236.1</ele>
        <time>2014-04-13T10:36:36Z</time>
      </trkpt>
      <trkpt lat="49.21796" lon="6.90896">
        <ele>236.8</ele>
        <time>2014-04-13T10:36:41Z</time>
      </trkpt>
      <trkpt lat="49.21791" lon="6.90889">
        <ele>236.3</ele>
        <time>2014-04-13T10:36:46Z</time>
      </trkpt>
      <trkpt lat="49.21786" lon="6.90883">
        <ele>236.3</ele>
        <time>2014-04-13T10:36:51Z</time>
      </trkpt>
      <trkpt lat="49.21782" lon="6.90876">
        <ele>237.2</ele>
        <time>2014-04-13T10:36:56Z</time>
      </trkpt>
      <trkpt lat="49.21777" lon="6.90871">
        <ele>237</ele>
        <time>2014-04-13T10:37:01Z</time>
      </trkpt>
      <trkpt lat="49.21771" lon="6.9086">
        <ele>237</ele>
        <time>2014-04-13T10:37:07Z</time>
      </trkpt>
      <trkpt lat="49.21762" lon="6.90843">
        <ele>237.4</ele>
        <time>2014-04-13T10:37:17Z</time>
      </trkpt>
      <trkpt lat="49.21757" lon="6.90832">
        <ele>237.5</ele>
        <time>2014-04-13T10:37:22Z</time>
      </trkpt>
      <trkpt lat="49.21752" lon="6.90821">
        <ele>237.5</ele>
        <time>2014-04-13T10:37:27Z</time>
      </trkpt>
      <trkpt lat="49.21747" lon="6.90811">
        <ele>236.8</ele>
        <time>2014-04-13T10:37:32Z</time>
      </trkpt>
      <trkpt lat="49.21741" lon="6.908">
        <ele>237.5</ele>
        <time>2014-04-13T10:37:37Z</time>
      </trkpt>
      <trkpt lat="49.21735" lon="6.90789">
        <ele>237</ele>
        <time>2014-04-13T10:37:42Z</time>
      </trkpt>
      <trkpt lat="49.2173" lon="6.90778">
        <ele>236.5</ele>
        <time>2014-04-13T10:37:47Z</time>
      </trkpt>
      <trkpt lat="49.21724" lon="6.90767">
        <ele>236.9</ele>
        <time>2014-04-13T10:37:52Z</time>
      </trkpt>
      <trkpt lat="49.21718" lon="6.90755">
        <ele>236.9</ele>
        <time>2014-04-13T10:37:57Z</time>
      </trkpt>
      <trkpt lat="49.21713" lon="6.90744">
        <ele>237</ele>
        <time>2014-04-13T10:38:02Z</time>
      </trkpt>
      <trkpt lat="49.21709" lon="6.90734">
        <ele>237.9</ele>
        <time>2014-04-13T10:38:07Z</time>
      </trkpt>
      <trkpt lat="49.21707" lon="6.90724">
        <ele>237.5</ele>
        <time>2014-04-13T10:38:12Z</time>
      </trkpt>
      <trkpt lat="49.21709" lon="6.90707">
        <ele>237.4</ele>
        <time>2014-04-13T10:38:22Z</time>
      </trkpt>
      <trkpt lat="49.2171" lon="6.907">
        <ele>237.9</ele>
        <time>2014-04-13T10:38:27Z</time>
      </trkpt>
      <trkpt lat="49.21712" lon="6.90693">
        <ele>237.9</ele>
        <time>2014-04-13T10:38:32Z</time>
      </trkpt>
      <trkpt lat="49.21715" lon="6.90686">
        <ele>237.4</ele>
        <time>2014-04-13T10:38:37Z</time>
      </trkpt>
      <trkpt lat="49.21717" lon="6.90678">
        <ele>237.9</ele>
        <time>2014-04-13T10:38:42Z</time>
      </trkpt>
      <trkpt lat="49.2172" lon="6.9067">
        <ele>238.4</ele>
        <time>2014-04-13T10:38:47Z</time>
      </trkpt>
      <trkpt lat="49.21723" lon="6.90663">
        <ele>238.1</ele>
        <time>2014-04-13T10:38:52Z</time>
      </trkpt>
      <trkpt lat="49.21727" lon="6.90655">
        <ele>239.8</ele>
        <time>2014-04-13T10:38:57Z</time>
      </trkpt>
      <trkpt lat="49.21731" lon="6.90648">
        <ele>240.2</ele>
        <time>2014-04-13T10:39:02Z</time>
      </trkpt>
      <trkpt lat="49.21736" lon="6.90641">
        <ele>240.5</ele>
        <time>2014-04-13T10:39:07Z</time>
      </trkpt>
      <trkpt lat="49.21741" lon="6.90633">
        <ele>241.5</ele>
        <time>2014-04-13T10:39:12Z</time>
      </trkpt>
      <trkpt lat="49.21745" lon="6.90625">
        <ele>241.9</ele>
        <time>2014-04-13T10:39:17Z</time>
      </trkpt>
      <trkpt lat="49.21754" lon="6.90609">
        <ele>242.7</ele>
        <time>2014-04-13T10:39:27Z</time>
      </trkpt>
      <trkpt lat="49.21756" lon="6.90601">
        <ele>243.3</ele>
        <time>2014-04-13T10:39:32Z</time>
      </trkpt>
      <trkpt lat="49.2176" lon="6.90593">
        <ele>244.1</ele>
        <time>2014-04-13T10:39:37Z</time>
      </trkpt>
      <trkpt lat="49.21764" lon="6.90585">
        <ele>244.7</ele>
        <time>2014-04-13T10:39:42Z</time>
      </trkpt>
      <trkpt lat="49.21768" lon="6.90576">
        <ele>245.3</ele>
        <time>2014-04-13T10:39:47Z</time>
      </trkpt>
      <trkpt lat="49.21771" lon="6.90568">
        <ele>245.5</ele>
        <time>2014-04-13T10:39:52Z</time>
      </trkpt>
      <trkpt lat="49.21774" lon="6.90561">
        <ele>247</ele>
        <time>2014-04-13T10:39:57Z</time>
      </trkpt>
      <trkpt lat="49.2178" lon="6.90553">
        <ele>246.1</ele>
        <time>2014-04-13T10:40:02Z</time>
      </trkpt>
      <trkpt lat="49.21786" lon="6.90545">
        <ele>245.7</ele>
        <time>2014-04-13T10:40:07Z</time>
      </trkpt>
      <trkpt lat="49.21791" lon="6.9054">
        <ele>245.6</ele>
        <time>2014-04-13T10:40:12Z</time>
      </trkpt>
      <trkpt lat="49.21797" lon="6.90535">
        <ele>245.1</ele>
        <time>2014-04-13T10:40:17Z</time>
      </trkpt>
      <trkpt lat="49.21803" lon="6.90531">
        <ele>243.9</ele>
        <time>2014-04-13T10:40:22Z</time>
      </trkpt>
      <trkpt lat="49.21815" lon="6.90527">
        <ele>242.4</ele>
        <time>2014-04-13T10:40:32Z</time>
      </trkpt>
      <trkpt lat="49.21822" lon="6.90526">
        <ele>241.9</ele>
        <time>2014-04-13T10:40:37Z</time>
      </trkpt>
      <trkpt lat="49.21828" lon="6.90526">
        <ele>240.8</ele>
        <time>2014-04-13T10:40:42Z</time>
      </trkpt>
      <trkpt lat="49.21835" lon="6.90526">
        <ele>240.4</ele>
        <time>2014-04-13T10:40:47Z</time>
      </trkpt>
      <trkpt lat="49.21842" lon="6.90526">
        <ele>240.8</ele>
        <time>2014-04-13T10:40:52Z</time>
      </trkpt>
      <trkpt lat="49.2185" lon="6.90526">
        <ele>239.3</ele>
        <time>2014-04-13T10:40:57Z</time>
      </trkpt>
      <trkpt lat="49.21858" lon="6.90526">
        <ele>238.6</ele>
        <time>2014-04-13T10:41:02Z</time>
      </trkpt>
      <trkpt lat="49.21865" lon="6.90526">
        <ele>237.2</ele>
        <time>2014-04-13T10:41:07Z</time>
      </trkpt>
      <trkpt lat="49.21872" lon="6.90525">
        <ele>236.5</ele>
        <time>2014-04-13T10:41:12Z</time>
      </trkpt>
      <trkpt lat="49.21879" lon="6.90523">
        <ele>235.3</ele>
        <time>2014-04-13T10:41:17Z</time>
      </trkpt>
      <trkpt lat="49.21888" lon="6.9052">
        <ele>234.7</ele>
        <time>2014-04-13T10:41:22Z</time>
      </trkpt>
      <trkpt lat="49.21896" lon="6.90516">
        <ele>234.4</ele>
        <time>2014-04-13T10:41:27Z</time>
      </trkpt>
      <trkpt lat="49.21909" lon="6.90509">
        <ele>235.1</ele>
        <time>2014-04-13T10:41:37Z</time>
      </trkpt>
      <trkpt lat="49.21916" lon="6.90505">
        <ele>234.9</ele>
        <time>2014-04-13T10:41:42Z</time>
      </trkpt>
      <trkpt lat="49.21921" lon="6.90502">
        <ele>235.2</ele>
        <time>2014-04-13T10:41:47Z</time>
      </trkpt>
      <trkpt lat="49.21927" lon="6.90497">
        <ele>235.3</ele>
        <time>2014-04-13T10:41:52Z</time>
      </trkpt>
      <trkpt lat="49.21933" lon="6.90491">
        <ele>236.6</ele>
        <time>2014-04-13T10:41:57Z</time>
      </trkpt>
      <trkpt lat="49.21939" lon="6.90485">
        <ele>236.8</ele>
        <time>2014-04-13T10:42:02Z</time>
      </trkpt>
      <trkpt lat="49.21945" lon="6.90479">
        <ele>238</ele>
        <time>2014-04-13T10:42:07Z</time>
      </trkpt>
      <trkpt lat="49.2195" lon="6.90472">
        <ele>238.1</ele>
        <time>2014-04-13T10:42:12Z</time>
      </trkpt>
      <trkpt lat="49.21953" lon="6.90464">
        <ele>237.7</ele>
        <time>2014-04-13T10:42:17Z</time>
      </trkpt>
      <trkpt lat="49.21956" lon="6.90456">
        <ele>237</ele>
        <time>2014-04-13T10:42:22Z</time>
      </trkpt>
      <trkpt lat="49.21959" lon="6.90447">
        <ele>236.7</ele>
        <time>2014-04-13T10:42:27Z</time>
      </trkpt>
      <trkpt lat="49.21962" lon="6.90437">
        <ele>236.9</ele>
        <time>2014-04-13T10:42:32Z</time>
      </trkpt>
      <trkpt lat="49.21965" lon="6.90419">
        <ele>236.2</ele>
        <time>2014-04-13T10:42:42Z</time>
      </trkpt>
      <trkpt lat="49.21966" lon="6.9041">
        <ele>235.5</ele>
        <time>2014-04-13T10:42:47Z</time>
      </trkpt>
      <trkpt lat="49.21967" lon="6.90403">
        <ele>236.5</ele>
        <time>2014-04-13T10:42:52Z</time>
      </trkpt>
      <trkpt lat="49.21968" lon="6.90398">
        <ele>235.3</ele>
        <time>2014-04-13T10:42:57Z</time>
      </trkpt>
      <trkpt lat="49.2197" lon="6.90391">
        <ele>235.3</ele>
        <time>2014-04-13T10:43:02Z</time>
      </trkpt>
      <trkpt lat="49.2197" lon="6.90384">
        <ele>235.6</ele>
        <time>2014-04-13T10:43:07Z</time>
      </trkpt>
      <trkpt lat="49.2197" lon="6.90375">
        <ele>235.5</ele>
        <time>2014-04-13T10:43:12Z</time>
      </trkpt>
      <trkpt lat="49.21968" lon="6.90366">
        <ele>236.2</ele>
        <time>2014-04-13T10:43:17Z</time>
      </trkpt>
      <trkpt lat="49.21967" lon="6.90356">
        <ele>236.4</ele>
        <time>2014-04-13T10:43:22Z</time>
      </trkpt>
      <trkpt lat="49.21966" lon="6.90348">
        <ele>236</ele>
        <time>2014-04-13T10:43:27Z</time>
      </trkpt>
      <trkpt lat="49.21965" lon="6.90339">
        <ele>235.9</ele>
        <time>2014-04-13T10:43:32Z</time>
      </trkpt>
      <trkpt lat="49.21964" lon="6.90331">
        <ele>235.7</ele>
        <time>2014-04-13T10:43:37Z</time>
      </trkpt>
      <trkpt lat="49.21964" lon="6.90321">
        <ele>235.3</ele>
        <time>2014-04-13T10:43:47Z</time>
      </trkpt>
      <trkpt lat="49.21964" lon="6.90319">
        <ele>235.6</ele>
        <time>2014-04-13T10:43:52Z</time>
      </trkpt>
      <trkpt lat="49.21963" lon="6.90317">
        <ele>235.3</ele>
        <time>2014-04-13T10:43:57Z</time>
      </trkpt>
      <trkpt lat="49.21963" lon="6.90315">
        <ele>235.7</ele>
        <time>2014-04-13T10:44:02Z</time>
      </trkpt>
      <trkpt lat="49.21963" lon="6.90311">
        <ele>236.6</ele>
        <time>2014-04-13T10:44:07Z</time>
      </trkpt>
      <trkpt lat="49.21962" lon="6.90303">
        <ele>235.9</ele>
        <time>2014-04-13T10:44:12Z</time>
      </trkpt>
      <trkpt lat="49.21961" lon="6.90296">
        <ele>236.2</ele>
        <time>2014-04-13T10:44:17Z</time>
      </trkpt>
      <trkpt lat="49.2196" lon="6.9029">
        <ele>236.4</ele>
        <time>2014-04-13T10:44:22Z</time>
      </trkpt>
      <trkpt lat="49.21961" lon="6.90286">
        <ele>236.1</ele>
        <time>2014-04-13T10:44:27Z</time>
      </trkpt>
      <trkpt lat="49.21961" lon="6.90284">
        <ele>236.2</ele>
        <time>2014-04-13T10:44:32Z</time>
      </trkpt>
      <trkpt lat="49.21963" lon="6.90283">
        <ele>236</ele>
        <time>2014-04-13T10:44:37Z</time>
      </trkpt>
      <trkpt lat="49.21966" lon="6.90283">
        <ele>234.9</ele>
        <time>2014-04-13T10:44:42Z</time>
      </trkpt>
      <trkpt lat="49.21968" lon="6.90284">
        <ele>235.3</ele>
        <time>2014-04-13T10:44:52Z</time>
      </trkpt>
      <trkpt lat="49.2197" lon="6.90283">
        <ele>235.6</ele>
        <time>2014-04-13T10:44:57Z</time>
      </trkpt>
      <trkpt lat="49.21973" lon="6.90283">
        <ele>235</ele>
        <time>2014-04-13T10:45:02Z</time>
      </trkpt>
      <trkpt lat="49.21975" lon="6.90283">
        <ele>235.5</ele>
        <time>2014-04-13T10:45:07Z</time>
      </trkpt>
      <trkpt lat="49.21977" lon="6.90283">
        <ele>235.9</ele>
        <time>2014-04-13T10:45:12Z</time>
      </trkpt>
      <trkpt lat="49.21979" lon="6.90284">
        <ele>234.9</ele>
        <time>2014-04-13T10:45:17Z</time>
      </trkpt>
      <trkpt lat="49.2198" lon="6.90286">
        <ele>235.6</ele>
        <time>2014-04-13T10:45:22Z</time>
      </trkpt>
      <trkpt lat="49.2198" lon="6.90289">
        <ele>234.6</ele>
        <time>2014-04-13T10:45:27Z</time>
      </trkpt>
      <trkpt lat="49.21981" lon="6.90291">
        <ele>234.9</ele>
        <time>2014-04-13T10:45:32Z</time>
      </trkpt>
      <trkpt lat="49.2198" lon="6.90291">
        <ele>234.7</ele>
        <time>2014-04-13T10:45:37Z</time>
      </trkpt>
      <trkpt lat="49.21979" lon="6.90291">
        <ele>235.5</ele>
        <time>2014-04-13T10:45:42Z</time>
      </trkpt>
      <trkpt lat="49.21975" lon="6.90291">
        <ele>235.4</ele>
        <time>2014-04-13T10:45:47Z</time>
      </trkpt>
      <trkpt lat="49.21967" lon="6.9029">
        <ele>235.9</ele>
        <time>2014-04-13T10:45:57Z</time>
      </trkpt>
      <trkpt lat="49.21965" lon="6.90286">
        <ele>236.3</ele>
        <time>2014-04-13T10:46:02Z</time>
      </trkpt>
      <trkpt lat="49.21962" lon="6.90283">
        <ele>236.7</ele>
        <time>2014-04-13T10:46:07Z</time>
      </trkpt>
      <trkpt lat="49.2196" lon="6.90281">
        <ele>236.9</ele>
        <time>2014-04-13T10:46:12Z</time>
      </trkpt>
      <trkpt lat="49.21957" lon="6.90279">
        <ele>237.2</ele>
        <time>2014-04-13T10:46:17Z</time>
      </trkpt>
      <trkpt lat="49.21955" lon="6.90278">
        <ele>237.8</ele>
        <time>2014-04-13T10:46:22Z</time>
      </trkpt>
      <trkpt lat="49.21952" lon="6.90278">
        <ele>237.6</ele>
        <time>2014-04-13T10:46:27Z</time>
      </trkpt>
      <trkpt lat="49.21951" lon="6.90277">
        <ele>237</ele>
        <time>2014-04-13T10:46:32Z</time>
      </trkpt>
      <trkpt lat="49.21952" lon="6.90276">
        <ele>237</ele>
        <time>2014-04-13T10:46:37Z</time>
      </trkpt>
      <trkpt lat="49.21952" lon="6.90275">
        <ele>237.4</ele>
        <time>2014-04-13T10:46:42Z</time>
      </trkpt>
      <trkpt lat="49.21952" lon="6.90273">
        <ele>237.3</ele>
        <time>2014-04-13T10:46:47Z</time>
      </trkpt>
      <trkpt lat="49.21952" lon="6.90273">
        <ele>236.4</ele>
        <time>2014-04-13T10:46:52Z</time>
      </trkpt>
      <trkpt lat="49.21954" lon="6.90274">
        <ele>236.4</ele>
        <time>2014-04-13T10:47:02Z</time>
      </trkpt>
      <trkpt lat="49.21955" lon="6.90277">
        <ele>236.3</ele>
        <time>2014-04-13T10:47:07Z</time>
      </trkpt>
      <trkpt lat="49.21956" lon="6.90278">
        <ele>236</ele>
        <time>2014-04-13T10:47:12Z</time>
      </trkpt>
      <trkpt lat="49.21957" lon="6.90278">
        <ele>236</ele>
        <time>2014-04-13T10:47:17Z</time>
      </trkpt>
      <trkpt lat="49.21957" lon="6.90279">
        <ele>236.7</ele>
        <time>2014-04-13T10:47:22Z</time>
      </trkpt>
      <trkpt lat="49.21957" lon="6.90281">
        <ele>236.3</ele>
        <time>2014-04-13T10:47:27Z</time>
      </trkpt>
      <trkpt lat="49.21957" lon="6.90284">
        <ele>236.5</ele>
        <time>2014-04-13T10:47:32Z</time>
      </trkpt>
      <trkpt lat="49.21957" lon="6.90284">
        <ele>236.2</ele>
        <time>2014-04-13T10:47:37Z</time>
      </trkpt>
      <trkpt lat="49.21955" lon="6.90284">
        <ele>235.9</ele>
        <time>2014-04-13T10:47:42Z</time>
      </trkpt>
      <trkpt lat="49.21953" lon="6.90285">
        <ele>235.9</ele>
        <time>2014-04-13T10:47:47Z</time>
      </trkpt>
      <trkpt lat="49.2195" lon="6.90288">
        <ele>236.3</ele>
        <time>2014-04-13T10:47:52Z</time>
      </trkpt>
      <trkpt lat="49.21949" lon="6.90291">
        <ele>236.9</ele>
        <time>2014-04-13T10:47:57Z</time>
      </trkpt>
      <trkpt lat="49.21949" lon="6.9029">
        <ele>236.7</ele>
        <time>2014-04-13T10:48:07Z</time>
      </trkpt>
      <trkpt lat="49.21951" lon="6.9029">
        <ele>236.4</ele>
        <time>2014-04-13T10:48:12Z</time>
      </trkpt>
      <trkpt lat="49.21952" lon="6.90294">
        <ele>236.1</ele>
        <time>2014-04-13T10:48:17Z</time>
      </trkpt>
      <trkpt lat="49.21953" lon="6.90296">
        <ele>236.1</ele>
        <time>2014-04-13T10:48:22Z</time>
      </trkpt>
      <trkpt lat="49.21953" lon="6.903">
        <ele>235.8</ele>
        <time>2014-04-13T10:48:27Z</time>
      </trkpt>
      <trkpt lat="49.21953" lon="6.90302">
        <ele>236</ele>
        <time>2014-04-13T10:48:32Z</time>
      </trkpt>
      <trkpt lat="49.21953" lon="6.90303">
        <ele>236.2</ele>
        <time>2014-04-13T10:48:37Z</time>
      </trkpt>
      <trkpt lat="49.21953" lon="6.90304">
        <ele>235.9</ele>
        <time>2014-04-13T10:48:42Z</time>
      </trkpt>
      <trkpt lat="49.21952" lon="6.90304">
        <ele>236</ele>
        <time>2014-04-13T10:48:47Z</time>
      </trkpt>
      <trkpt lat="49.21952" lon="6.90305">
        <ele>236.1</ele>
        <time>2014-04-13T10:48:52Z</time>
      </trkpt>
      <trkpt lat="49.2195" lon="6.90308">
        <ele>236.4</ele>
        <time>2014-04-13T10:48:57Z</time>
      </trkpt>
      <trkpt lat="49.2195" lon="6.90309">
        <ele>236.3</ele>
        <time>2014-04-13T10:49:02Z</time>
      </trkpt>
      <trkpt lat="49.21947" lon="6.90312">
        <ele>236.5</ele>
        <time>2014-04-13T10:49:12Z</time>
      </trkpt>
      <trkpt lat="49.21947" lon="6.90313">
        <ele>236.6</ele>
        <time>2014-04-13T10:49:17Z</time>
      </trkpt>
      <trkpt lat="49.21947" lon="6.90314">
        <ele>237.5</ele>
        <time>2014-04-13T10:49:22Z</time>
      </trkpt>
      <trkpt lat="49.21947" lon="6.90313">
        <ele>237.2</ele>
        <time>2014-04-13T10:49:27Z</time>
      </trkpt>
      <trkpt lat="49.21947" lon="6.90313">
        <ele>236.9</ele>
        <time>2014-04-13T10:49:32Z</time>
      </trkpt>
      <trkpt lat="49.21947" lon="6.9031">
        <ele>237</ele>
        <time>2014-04-13T10:49:37Z</time>
      </trkpt>
      <trkpt lat="49.21947" lon="6.90307">
        <ele>237</ele>
        <time>2014-04-13T10:49:42Z</time>
      </trkpt>
      <trkpt lat="49.21948" lon="6.90303">
        <ele>236.4</ele>
        <time>2014-04-13T10:49:47Z</time>
      </trkpt>
      <trkpt lat="49.21948" lon="6.90302">
        <ele>236.7</ele>
        <time>2014-04-13T10:49:52Z</time>
      </trkpt>
      <trkpt lat="49.21947" lon="6.90302">
        <ele>237.1</ele>
        <time>2014-04-13T10:49:57Z</time>
      </trkpt>
      <trkpt lat="49.21947" lon="6.90302">
        <ele>237.3</ele>
        <time>2014-04-13T10:50:02Z</time>
      </trkpt>
      <trkpt lat="49.21949" lon="6.90302">
        <ele>237.6</ele>
        <time>2014-04-13T10:50:07Z</time>
      </trkpt>
      <trkpt lat="49.21952" lon="6.90298">
        <ele>237.9</ele>
        <time>2014-04-13T10:50:17Z</time>
      </trkpt>
      <trkpt lat="49.21953" lon="6.90297">
        <ele>236.8</ele>
        <time>2014-04-13T10:50:22Z</time>
      </trkpt>
      <trkpt lat="49.21954" lon="6.90296">
        <ele>236.5</ele>
        <time>2014-04-13T10:50:27Z</time>
      </trkpt>
      <trkpt lat="49.21955" lon="6.90294">
        <ele>237</ele>
        <time>2014-04-13T10:50:32Z</time>
      </trkpt>
      <trkpt lat="49.21956" lon="6.90293">
        <ele>236.9</ele>
        <time>2014-04-13T10:50:37Z</time>
      </trkpt>
      <trkpt lat="49.21956" lon="6.90292">
        <ele>237.5</ele>
        <time>2014-04-13T10:50:42Z</time>
      </trkpt>
      <trkpt lat="49.21957" lon="6.90291">
        <ele>237.7</ele>
        <time>2014-04-13T10:50:47Z</time>
      </trkpt>
      <trkpt lat="49.21958" lon="6.9029">
        <ele>237.4</ele>
        <time>2014-04-13T10:50:52Z</time>
      </trkpt>
      <trkpt lat="49.21957" lon="6.90291">
        <ele>236.7</ele>
        <time>2014-04-13T10:50:57Z</time>
      </trkpt>
      <trkpt lat="49.21956" lon="6.90294">
        <ele>237</ele>
        <time>2014-04-13T10:51:02Z</time>
      </trkpt>
      <trkpt lat="49.21955" lon="6.90298">
        <ele>237.2</ele>
        <time>2014-04-13T10:51:07Z</time>
      </trkpt>
      <trkpt lat="49.21954" lon="6.90301">
        <ele>236.5</ele>
        <time>2014-04-13T10:51:12Z</time>
      </trkpt>
      <trkpt lat="49.21953" lon="6.90307">
        <ele>237.7</ele>
        <time>2014-04-13T10:51:22Z</time>
      </trkpt>
      <trkpt lat="49.21954" lon="6.90308">
        <ele>237.4</ele>
        <time>2014-04-13T10:51:27Z</time>
      </trkpt>
      <trkpt lat="49.21956" lon="6.90306">
        <ele>236.7</ele>
        <time>2014-04-13T10:51:32Z</time>
      </trkpt>
      <trkpt lat="49.21959" lon="6.90303">
        <ele>237.4</ele>
        <time>2014-04-13T10:51:37Z</time>
      </trkpt>
      <trkpt lat="49.21962" lon="6.903">
        <ele>236.8</ele>
        <time>2014-04-13T10:51:42Z</time>
      </trkpt>
      <trkpt lat="49.21963" lon="6.90296">
        <ele>236.7</ele>
        <time>2014-04-13T10:51:47Z</time>
      </trkpt>
      <trkpt lat="49.21964" lon="6.90293">
        <ele>237.1</ele>
        <time>2014-04-13T10:51:52Z</time>
      </trkpt>
      <trkpt lat="49.21965" lon="6.90292">
        <ele>236.7</ele>
        <time>2014-04-13T10:51:57Z</time>
      </trkpt>
      <trkpt lat="49.21965" lon="6.90292">
        <ele>236.7</ele>
        <time>2014-04-13T10:52:02Z</time>
      </trkpt>
      <trkpt lat="49.21964" lon="6.90293">
        <ele>236.3</ele>
        <time>2014-04-13T10:52:07Z</time>
      </trkpt>
      <trkpt lat="49.21963" lon="6.90294">
        <ele>236.7</ele>
        <time>2014-04-13T10:52:12Z</time>
      </trkpt>
      <trkpt lat="49.21962" lon="6.90296">
        <ele>237.2</ele>
        <time>2014-04-13T10:52:17Z</time>
      </trkpt>
      <trkpt lat="49.2196" lon="6.90299">
        <ele>237.8</ele>
        <time>2014-04-13T10:52:27Z</time>
      </trkpt>
      <trkpt lat="49.21959" lon="6.90299">
        <ele>237.3</ele>
        <time>2014-04-13T10:52:32Z</time>
      </trkpt>
      <trkpt lat="49.21959" lon="6.903">
        <ele>237</ele>
        <time>2014-04-13T10:52:37Z</time>
      </trkpt>
      <trkpt lat="49.21958" lon="6.90301">
        <ele>236.6</ele>
        <time>2014-04-13T10:52:42Z</time>
      </trkpt>
      <trkpt lat="49.21958" lon="6.90301">
        <ele>236.3</ele>
        <time>2014-04-13T10:52:47Z</time>
      </trkpt>
      <trkpt lat="49.21958" lon="6.90301">
        <ele>236.9</ele>
        <time>2014-04-13T10:52:52Z</time>
      </trkpt>
      <trkpt lat="49.21958" lon="6.90301">
        <ele>237.2</ele>
        <time>2014-04-13T10:52:57Z</time>
      </trkpt>
      <trkpt lat="49.21958" lon="6.90302">
        <ele>236.7</ele>
        <time>2014-04-13T10:53:02Z</time>
      </trkpt>
      <trkpt lat="49.21958" lon="6.90302">
        <ele>237.1</ele>
        <time>2014-04-13T10:53:07Z</time>
      </trkpt>
      <trkpt lat="49.21958" lon="6.90302">
        <ele>237.2</ele>
        <time>2014-04-13T10:53:12Z</time>
      </trkpt>
      <trkpt lat="49.21958" lon="6.90302">
        <ele>237</ele>
        <time>2014-04-13T10:53:17Z</time>
      </trkpt>
      <trkpt lat="49.21957" lon="6.90302">
        <ele>237.7</ele>
        <time>2014-04-13T10:53:22Z</time>
      </trkpt>
      <trkpt lat="49.21957" lon="6.90302">
        <ele>237.2</ele>
        <time>2014-04-13T10:53:32Z</time>
      </trkpt>
      <trkpt lat="49.21957" lon="6.90303">
        <ele>237.2</ele>
        <time>2014-04-13T10:53:37Z</time>
      </trkpt>
      <trkpt lat="49.21957" lon="6.90302">
        <ele>236.5</ele>
        <time>2014-04-13T10:53:42Z</time>
      </trkpt>
      <trkpt lat="49.21957" lon="6.90301">
        <ele>235.9</ele>
        <time>2014-04-13T10:53:47Z</time>
      </trkpt>
      <trkpt lat="49.21957" lon="6.90299">
        <ele>236.1</ele>
        <time>2014-04-13T10:53:52Z</time>
      </trkpt>
      <trkpt lat="49.21958" lon="6.90297">
        <ele>236.5</ele>
        <time>2014-04-13T10:53:57Z</time>
      </trkpt>
      <trkpt lat="49.21958" lon="6.90295">
        <ele>236.4</ele>
        <time>2014-04-13T10:54:02Z</time>
      </trkpt>
      <trkpt lat="49.21958" lon="6.90293">
        <ele>236.6</ele>
        <time>2014-04-13T10:54:07Z</time>
      </trkpt>
      <trkpt lat="49.21958" lon="6.90292">
        <ele>236.6</ele>
        <time>2014-04-13T10:54:12Z</time>
      </trkpt>
      <trkpt lat="49.21957" lon="6.90293">
        <ele>236.5</ele>
        <time>2014-04-13T10:54:17Z</time>
      </trkpt>
      <trkpt lat="49.21956" lon="6.90294">
        <ele>236.9</ele>
        <time>2014-04-13T10:54:22Z</time>
      </trkpt>
      <trkpt lat="49.21956" lon="6.90293">
        <ele>237.6</ele>
        <time>2014-04-13T10:54:27Z</time>
      </trkpt>
      <trkpt lat="49.21957" lon="6.90292">
        <ele>237.3</ele>
        <time>2014-04-13T10:54:37Z</time>
      </trkpt>
      <trkpt lat="49.21959" lon="6.90295">
        <ele>237</ele>
        <time>2014-04-13T10:54:42Z</time>
      </trkpt>
      <trkpt lat="49.2196" lon="6.90296">
        <ele>237.4</ele>
        <time>2014-04-13T10:54:47Z</time>
      </trkpt>
      <trkpt lat="49.21961" lon="6.90295">
        <ele>236.9</ele>
        <time>2014-04-13T10:54:52Z</time>
      </trkpt>
      <trkpt lat="49.21962" lon="6.90295">
        <ele>236.9</ele>
        <time>2014-04-13T10:54:57Z</time>
      </trkpt>
      <trkpt lat="49.21961" lon="6.90294">
        <ele>237.3</ele>
        <time>2014-04-13T10:55:02Z</time>
      </trkpt>
      <trkpt lat="49.21961" lon="6.90293">
        <ele>237.1</ele>
        <time>2014-04-13T10:55:07Z</time>
      </trkpt>
      <trkpt lat="49.2196" lon="6.90291">
        <ele>237.5</ele>
        <time>2014-04-13T10:55:12Z</time>
      </trkpt>
      <trkpt lat="49.21959" lon="6.90289">
        <ele>237.3</ele>
        <time>2014-04-13T10:55:17Z</time>
      </trkpt>
      <trkpt lat="49.21959" lon="6.90288">
        <ele>237.8</ele>
        <time>2014-04-13T10:55:22Z</time>
      </trkpt>
      <trkpt lat="49.21958" lon="6.90287">
        <ele>237.5</ele>
        <time>2014-04-13T10:55:27Z</time>
      </trkpt>
      <trkpt lat="49.21957" lon="6.90285">
        <ele>237.3</ele>
        <time>2014-04-13T10:55:32Z</time>
      </trkpt>
      <trkpt lat="49.21955" lon="6.90287">
        <ele>237.8</ele>
        <time>2014-04-13T10:55:42Z</time>
      </trkpt>
      <trkpt lat="49.21954" lon="6.90289">
        <ele>237.4</ele>
        <time>2014-04-13T10:55:47Z</time>
      </trkpt>
      <trkpt lat="49.21953" lon="6.9029">
        <ele>237.6</ele>
        <time>2014-04-13T10:55:52Z</time>
      </trkpt>
      <trkpt lat="49.21953" lon="6.9029">
        <ele>237.4</ele>
        <time>2014-04-13T10:55:57Z</time>
      </trkpt>
      <trkpt lat="49.21953" lon="6.9029">
        <ele>237.5</ele>
        <time>2014-04-13T10:56:02Z</time>
      </trkpt>
      <trkpt lat="49.21953" lon="6.90291">
        <ele>237.7</ele>
        <time>2014-04-13T10:56:07Z</time>
      </trkpt>
      <trkpt lat="49.21952" lon="6.90292">
        <ele>237.8</ele>
        <time>2014-04-13T10:56:12Z</time>
      </trkpt>
      <trkpt lat="49.21951" lon="6.90293">
        <ele>237.6</ele>
        <time>2014-04-13T10:56:17Z</time>
      </trkpt>
      <trkpt lat="49.2195" lon="6.90296">
        <ele>237.8</ele>
        <time>2014-04-13T10:56:22Z</time>
      </trkpt>
      <trkpt lat="49.21949" lon="6.90299">
        <ele>237.7</ele>
        <time>2014-04-13T10:56:27Z</time>
      </trkpt>
      <trkpt lat="49.21948" lon="6.90302">
        <ele>238.1</ele>
        <time>2014-04-13T10:56:32Z</time>
      </trkpt>
      <trkpt lat="49.21947" lon="6.90303">
        <ele>238.2</ele>
        <time>2014-04-13T10:56:37Z</time>
      </trkpt>
      <trkpt lat="49.21947" lon="6.90305">
        <ele>238.2</ele>
        <time>2014-04-13T10:56:47Z</time>
      </trkpt>
      <trkpt lat="49.21948" lon="6.90304">
        <ele>237.8</ele>
        <time>2014-04-13T10:56:52Z</time>
      </trkpt>
      <trkpt lat="49.21949" lon="6.90302">
        <ele>237.8</ele>
        <time>2014-04-13T10:56:57Z</time>
      </trkpt>
      <trkpt lat="49.2195" lon="6.90299">
        <ele>237.7</ele>
        <time>2014-04-13T10:57:02Z</time>
      </trkpt>
      <trkpt lat="49.21951" lon="6.90297">
        <ele>237.9</ele>
        <time>2014-04-13T10:57:07Z</time>
      </trkpt>
      <trkpt lat="49.21951" lon="6.90296">
        <ele>238.4</ele>
        <time>2014-04-13T10:57:12Z</time>
      </trkpt>
      <trkpt lat="49.21951" lon="6.90296">
        <ele>238.2</ele>
        <time>2014-04-13T10:57:17Z</time>
      </trkpt>
      <trkpt lat="49.21951" lon="6.90295">
        <ele>238</ele>
        <time>2014-04-13T10:57:22Z</time>
      </trkpt>
      <trkpt lat="49.21953" lon="6.90295">
        <ele>238.1</ele>
        <time>2014-04-13T10:57:27Z</time>
      </trkpt>
      <trkpt lat="49.21953" lon="6.90294">
        <ele>237.9</ele>
        <time>2014-04-13T10:57:32Z</time>
      </trkpt>
      <trkpt lat="49.21954" lon="6.90294">
        <ele>238.4</ele>
        <time>2014-04-13T10:57:37Z</time>
      </trkpt>
      <trkpt lat="49.21954" lon="6.90294">
        <ele>238.5</ele>
        <time>2014-04-13T10:57:42Z</time>
      </trkpt>
      <trkpt lat="49.21955" lon="6.90292">
        <ele>238.1</ele>
        <time>2014-04-13T10:57:52Z</time>
      </trkpt>
      <trkpt lat="49.21954" lon="6.90292">
        <ele>238.2</ele>
        <time>2014-04-13T10:57:57Z</time>
      </trkpt>
      <trkpt lat="49.21954" lon="6.90293">
        <ele>238</ele>
        <time>2014-04-13T10:58:02Z</time>
      </trkpt>
      <trkpt lat="49.21953" lon="6.90293">
        <ele>238.3</ele>
        <time>2014-04-13T10:58:07Z</time>
      </trkpt>
      <trkpt lat="49.21953" lon="6.90291">
        <ele>238.4</ele>
        <time>2014-04-13T10:58:12Z</time>
      </trkpt>
      <trkpt lat="49.21955" lon="6.90289">
        <ele>238</ele>
        <time>2014-04-13T10:58:17Z</time>
      </trkpt>
      <trkpt lat="49.21957" lon="6.90286">
        <ele>237.4</ele>
        <time>2014-04-13T10:58:22Z</time>
      </trkpt>
      <trkpt lat="49.21958" lon="6.90283">
        <ele>238</ele>
        <time>2014-04-13T10:58:27Z</time>
      </trkpt>
      <trkpt lat="49.21958" lon="6.90282">
        <ele>237.8</ele>
        <time>2014-04-13T10:58:32Z</time>
      </trkpt>
      <trkpt lat="49.21957" lon="6.90283">
        <ele>238.5</ele>
        <time>2014-04-13T10:58:37Z</time>
      </trkpt>
      <trkpt lat="49.21956" lon="6.90282">
        <ele>237.8</ele>
        <time>2014-04-13T10:58:42Z</time>
      </trkpt>
      <trkpt lat="49.21955" lon="6.90282">
        <ele>238.3</ele>
        <time>2014-04-13T10:58:47Z</time>
      </trkpt>
      <trkpt lat="49.21953" lon="6.90283">
        <ele>237.3</ele>
        <time>2014-04-13T10:58:57Z</time>
      </trkpt>
      <trkpt lat="49.21952" lon="6.90283">
        <ele>238.4</ele>
        <time>2014-04-13T10:59:02Z</time>
      </trkpt>
      <trkpt lat="49.21951" lon="6.90282">
        <ele>237.7</ele>
        <time>2014-04-13T10:59:07Z</time>
      </trkpt>
      <trkpt lat="49.2195" lon="6.90281">
        <ele>237.6</ele>
        <time>2014-04-13T10:59:12Z</time>
      </trkpt>
      <trkpt lat="49.21949" lon="6.90279">
        <ele>237.6</ele>
        <time>2014-04-13T10:59:17Z</time>
      </trkpt>
      <trkpt lat="49.21949" lon="6.90278">
        <ele>238.4</ele>
        <time>2014-04-13T10:59:22Z</time>
      </trkpt>
      <trkpt lat="49.21948" lon="6.90277">
        <ele>237.5</ele>
        <time>2014-04-13T10:59:27Z</time>
      </trkpt>
      <trkpt lat="49.21947" lon="6.90277">
        <ele>237.7</ele>
        <time>2014-04-13T10:59:32Z</time>
      </trkpt>
      <trkpt lat="49.21947" lon="6.90278">
        <ele>238</ele>
        <time>2014-04-13T10:59:37Z</time>
      </trkpt>
      <trkpt lat="49.21947" lon="6.90278">
        <ele>237.8</ele>
        <time>2014-04-13T10:59:42Z</time>
      </trkpt>
      <trkpt lat="49.21948" lon="6.90279">
        <ele>237.3</ele>
        <time>2014-04-13T10:59:47Z</time>
      </trkpt>
      <trkpt lat="49.21948" lon="6.9028">
        <ele>238.1</ele>
        <time>2014-04-13T10:59:52Z</time>
      </trkpt>
      <trkpt lat="49.21948" lon="6.90283">
        <ele>238.1</ele>
        <time>2014-04-13T11:00:02Z</time>
      </trkpt>
      <trkpt lat="49.21949" lon="6.90284">
        <ele>237.9</ele>
        <time>2014-04-13T11:00:07Z</time>
      </trkpt>
      <trkpt lat="49.21948" lon="6.90285">
        <ele>237.7</ele>
        <time>2014-04-13T11:00:12Z</time>
      </trkpt>
      <trkpt lat="49.21948" lon="6.90287">
        <ele>238.8</ele>
        <time>2014-04-13T11:00:17Z</time>
      </trkpt>
      <trkpt lat="49.21947" lon="6.90288">
        <ele>238.1</ele>
        <time>2014-04-13T11:00:22Z</time>
      </trkpt>
      <trkpt lat="49.21947" lon="6.90288">
        <ele>237.7</ele>
        <time>2014-04-13T11:00:27Z</time>
      </trkpt>
      <trkpt lat="49.21946" lon="6.90288">
        <ele>238.2</ele>
        <time>2014-04-13T11:00:32Z</time>
      </trkpt>
      <trkpt lat="49.21947" lon="6.90288">
        <ele>237.9</ele>
        <time>2014-04-13T11:00:37Z</time>
      </trkpt>
      <trkpt lat="49.21948" lon="6.90287">
        <ele>238.5</ele>
        <time>2014-04-13T11:00:42Z</time>
      </trkpt>
      <trkpt lat="49.21949" lon="6.90286">
        <ele>238.7</ele>
        <time>2014-04-13T11:00:47Z</time>
      </trkpt>
      <trkpt lat="49.2195" lon="6.90286">
        <ele>239</ele>
        <time>2014-04-13T11:00:52Z</time>
      </trkpt>
      <trkpt lat="49.2195" lon="6.90286">
        <ele>238</ele>
        <time>2014-04-13T11:00:57Z</time>
      </trkpt>
      <trkpt lat="49.21952" lon="6.90288">
        <ele>237.8</ele>
        <time>2014-04-13T11:01:07Z</time>
      </trkpt>
      <trkpt lat="49.21951" lon="6.90288">
        <ele>237.6</ele>
        <time>2014-04-13T11:01:12Z</time>
      </trkpt>
      <trkpt lat="49.21951" lon="6.90288">
        <ele>238.2</ele>
        <time>2014-04-13T11:01:17Z</time>
      </trkpt>
      <trkpt lat="49.2195" lon="6.90288">
        <ele>238.4</ele>
        <time>2014-04-13T11:01:22Z</time>
      </trkpt>
      <trkpt lat="49.2195" lon="6.90288">
        <ele>238.1</ele>
        <time>2014-04-13T11:01:27Z</time>
      </trkpt>
      <trkpt lat="49.21949" lon="6.90288">
        <ele>237.6</ele>
        <time>2014-04-13T11:01:32Z</time>
      </trkpt>
      <trkpt lat="49.21949" lon="6.90288">
        <ele>238.6</ele>
        <time>2014-04-13T11:01:37Z</time>
      </trkpt>
      <trkpt lat="49.21948" lon="6.90289">
        <ele>238.6</ele>
        <time>2014-04-13T11:01:42Z</time>
      </trkpt>
      <trkpt lat="49.21947" lon="6.9029">
        <ele>238.4</ele>
        <time>2014-04-13T11:01:47Z</time>
      </trkpt>
      <trkpt lat="49.21947" lon="6.90292">
        <ele>238.7</ele>
        <time>2014-04-13T11:01:52Z</time>
      </trkpt>
      <trkpt lat="49.21946" lon="6.90293">
        <ele>238</ele>
        <time>2014-04-13T11:01:57Z</time>
      </trkpt>
      <trkpt lat="49.21946" lon="6.90295">
        <ele>238.2</ele>
        <time>2014-04-13T11:02:02Z</time>
      </trkpt>
      <trkpt lat="49.21947" lon="6.90297">
        <ele>238.2</ele>
        <time>2014-04-13T11:02:12Z</time>
      </trkpt>
      <trkpt lat="49.21947" lon="6.90298">
        <ele>237.7</ele>
        <time>2014-04-13T11:02:17Z</time>
      </trkpt>
      <trkpt lat="49.21948" lon="6.90298">
        <ele>237.8</ele>
        <time>2014-04-13T11:02:22Z</time>
      </trkpt>
      <trkpt lat="49.21948" lon="6.90297">
        <ele>238</ele>
        <time>2014-04-13T11:02:27Z</time>
      </trkpt>
      <trkpt lat="49.21949" lon="6.90296">
        <ele>236.9</ele>
        <time>2014-04-13T11:02:32Z</time>
      </trkpt>
      <trkpt lat="49.21949" lon="6.90294">
        <ele>237</ele>
        <time>2014-04-13T11:02:37Z</time>
      </trkpt>
      <trkpt lat="49.2195" lon="6.90292">
        <ele>237.7</ele>
        <time>2014-04-13T11:02:42Z</time>
      </trkpt>
      <trkpt lat="49.2195" lon="6.9029">
        <ele>237.2</ele>
        <time>2014-04-13T11:02:47Z</time>
      </trkpt>
      <trkpt lat="49.2195" lon="6.90289">
        <ele>237.5</ele>
        <time>2014-04-13T11:02:52Z</time>
      </trkpt>
      <trkpt lat="49.21951" lon="6.9029">
        <ele>237.1</ele>
        <time>2014-04-13T11:02:57Z</time>
      </trkpt>
      <trkpt lat="49.21951" lon="6.90291">
        <ele>236.9</ele>
        <time>2014-04-13T11:03:02Z</time>
      </trkpt>
      <trkpt lat="49.21952" lon="6.90291">
        <ele>237.3</ele>
        <time>2014-04-13T11:03:07Z</time>
      </trkpt>
      <trkpt lat="49.21952" lon="6.90294">
        <ele>237.3</ele>
        <time>2014-04-13T11:03:17Z</time>
      </trkpt>
      <trkpt lat="49.21951" lon="6.90294">
        <ele>237.1</ele>
        <time>2014-04-13T11:03:22Z</time>
      </trkpt>
      <trkpt lat="49.2195" lon="6.90294">
        <ele>237.1</ele>
        <time>2014-04-13T11:03:27Z</time>
      </trkpt>
      <trkpt lat="49.21949" lon="6.90295">
        <ele>237.4</ele>
        <time>2014-04-13T11:03:32Z</time>
      </trkpt>
      <trkpt lat="49.21948" lon="6.90297">
        <ele>238</ele>
        <time>2014-04-13T11:03:37Z</time>
      </trkpt>
      <trkpt lat="49.21947" lon="6.90298">
        <ele>237.6</ele>
        <time>2014-04-13T11:03:42Z</time>
      </trkpt>
      <trkpt lat="49.21947" lon="6.90299">
        <ele>237.5</ele>
        <time>2014-04-13T11:03:47Z</time>
      </trkpt>
      <trkpt lat="49.21946" lon="6.903">
        <ele>237.9</ele>
        <time>2014-04-13T11:03:52Z</time>
      </trkpt>
      <trkpt lat="49.21946" lon="6.903">
        <ele>237.6</ele>
        <time>2014-04-13T11:03:57Z</time>
      </trkpt>
      <trkpt lat="49.21946" lon="6.903">
        <ele>237.7</ele>
        <time>2014-04-13T11:04:02Z</time>
      </trkpt>
      <trkpt lat="49.21946" lon="6.90299">
        <ele>237.8</ele>
        <time>2014-04-13T11:04:07Z</time>
      </trkpt>
      <trkpt lat="49.21947" lon="6.90298">
        <ele>238.6</ele>
        <time>2014-04-13T11:04:12Z</time>
      </trkpt>
      <trkpt lat="49.21949" lon="6.90297">
        <ele>237.6</ele>
        <time>2014-04-13T11:04:22Z</time>
      </trkpt>
      <trkpt lat="49.21949" lon="6.90296">
        <ele>238.3</ele>
        <time>2014-04-13T11:04:27Z</time>
      </trkpt>
      <trkpt lat="49.2195" lon="6.90295">
        <ele>238</ele>
        <time>2014-04-13T11:04:32Z</time>
      </trkpt>
      <trkpt lat="49.2195" lon="6.90295">
        <ele>238.4</ele>
        <time>2014-04-13T11:04:37Z</time>
      </trkpt>
      <trkpt lat="49.21951" lon="6.90294">
        <ele>238.8</ele>
        <time>2014-04-13T11:04:42Z</time>
      </trkpt>
      <trkpt lat="49.21953" lon="6.90292">
        <ele>238.4</ele>
        <time>2014-04-13T11:04:47Z</time>
      </trkpt>
      <trkpt lat="49.21955" lon="6.9029">
        <ele>238.1</ele>
        <time>2014-04-13T11:04:52Z</time>
      </trkpt>
      <trkpt lat="49.21956" lon="6.90288">
        <ele>238</ele>
        <time>2014-04-13T11:04:57Z</time>
      </trkpt>
      <trkpt lat="49.21956" lon="6.90286">
        <ele>238.6</ele>
        <time>2014-04-13T11:05:02Z</time>
      </trkpt>
      <trkpt lat="49.21956" lon="6.90285">
        <ele>237.8</ele>
        <time>2014-04-13T11:05:07Z</time>
      </trkpt>
      <trkpt lat="49.21956" lon="6.90282">
        <ele>238.7</ele>
        <time>2014-04-13T11:05:12Z</time>
      </trkpt>
      <trkpt lat="49.21955" lon="6.90281">
        <ele>238.5</ele>
        <time>2014-04-13T11:05:17Z</time>
      </trkpt>
      <trkpt lat="49.21956" lon="6.90279">
        <ele>238.7</ele>
        <time>2014-04-13T11:05:27Z</time>
      </trkpt>
      <trkpt lat="49.21955" lon="6.90279">
        <ele>238.6</ele>
        <time>2014-04-13T11:05:32Z</time>
      </trkpt>
      <trkpt lat="49.21956" lon="6.90279">
        <ele>238.1</ele>
        <time>2014-04-13T11:05:37Z</time>
      </trkpt>
      <trkpt lat="49.21955" lon="6.90279">
        <ele>237.6</ele>
        <time>2014-04-13T11:05:42Z</time>
      </trkpt>
      <trkpt lat="49.21954" lon="6.90281">
        <ele>237.6</ele>
        <time>2014-04-13T11:05:47Z</time>
      </trkpt>
      <trkpt lat="49.21953" lon="6.90281">
        <ele>237.6</ele>
        <time>2014-04-13T11:05:52Z</time>
      </trkpt>
      <trkpt lat="49.21952" lon="6.90283">
        <ele>236.9</ele>
        <time>2014-04-13T11:05:57Z</time>
      </trkpt>
      <trkpt lat="49.21951" lon="6.90285">
        <ele>237.2</ele>
        <time>2014-04-13T11:06:02Z</time>
      </trkpt>
      <trkpt lat="49.2195" lon="6.90287">
        <ele>237.5</ele>
        <time>2014-04-13T11:06:07Z</time>
      </trkpt>
      <trkpt lat="49.2195" lon="6.90289">
        <ele>237.3</ele>
        <time>2014-04-13T11:06:12Z</time>
      </trkpt>
      <trkpt lat="49.21948" lon="6.90291">
        <ele>237.5</ele>
        <time>2014-04-13T11:06:17Z</time>
      </trkpt>
      <trkpt lat="49.21947" lon="6.90293">
        <ele>238.4</ele>
        <time>2014-04-13T11:06:22Z</time>
      </trkpt>
      <trkpt lat="49.21947" lon="6.90294">
        <ele>238</ele>
        <time>2014-04-13T11:06:32Z</time>
      </trkpt>
      <trkpt lat="49.21947" lon="6.90294">
        <ele>237.8</ele>
        <time>2014-04-13T11:06:37Z</time>
      </trkpt>
      <trkpt lat="49.21948" lon="6.90294">
        <ele>238.4</ele>
        <time>2014-04-13T11:06:42Z</time>
      </trkpt>
      <trkpt lat="49.21948" lon="6.90295">
        <ele>238</ele>
        <time>2014-04-13T11:06:47Z</time>
      </trkpt>
      <trkpt lat="49.21948" lon="6.90295">
        <ele>238.2</ele>
        <time>2014-04-13T11:06:52Z</time>
      </trkpt>
      <trkpt lat="49.21948" lon="6.90295">
        <ele>237.8</ele>
        <time>2014-04-13T11:06:57Z</time>
      </trkpt>
      <trkpt lat="49.21948" lon="6.90295">
        <ele>238.1</ele>
        <time>2014-04-13T11:07:02Z</time>
      </trkpt>
      <trkpt lat="49.21948" lon="6.90294">
        <ele>237.9</ele>
        <time>2014-04-13T11:07:07Z</time>
      </trkpt>
      <trkpt lat="49.21948" lon="6.90293">
        <ele>238.1</ele>
        <time>2014-04-13T11:07:12Z</time>
      </trkpt>
      <trkpt lat="49.21948" lon="6.90292">
        <ele>238.3</ele>
        <time>2014-04-13T11:07:17Z</time>
      </trkpt>
      <trkpt lat="49.21949" lon="6.9029">
        <ele>238</ele>
        <time>2014-04-13T11:07:22Z</time>
      </trkpt>
      <trkpt lat="49.21949" lon="6.90289">
        <ele>237.7</ele>
        <time>2014-04-13T11:07:27Z</time>
      </trkpt>
      <trkpt lat="49.21949" lon="6.9029">
        <ele>239</ele>
        <time>2014-04-13T11:07:37Z</time>
      </trkpt>
      <trkpt lat="49.2195" lon="6.9029">
        <ele>238.8</ele>
        <time>2014-04-13T11:07:42Z</time>
      </trkpt>
      <trkpt lat="49.21948" lon="6.9029">
        <ele>238.6</ele>
        <time>2014-04-13T11:07:47Z</time>
      </trkpt>
      <trkpt lat="49.21947" lon="6.90291">
        <ele>238.6</ele>
        <time>2014-04-13T11:07:52Z</time>
      </trkpt>
      <trkpt lat="49.21945" lon="6.90291">
        <ele>239</ele>
        <time>2014-04-13T11:07:57Z</time>
      </trkpt>
      <trkpt lat="49.21944" lon="6.90291">
        <ele>238.2</ele>
        <time>2014-04-13T11:08:02Z</time>
      </trkpt>
      <trkpt lat="49.21943" lon="6.90292">
        <ele>238</ele>
        <time>2014-04-13T11:08:07Z</time>
      </trkpt>
      <trkpt lat="49.21943" lon="6.90293">
        <ele>238.2</ele>
        <time>2014-04-13T11:08:12Z</time>
      </trkpt>
      <trkpt lat="49.21942" lon="6.90294">
        <ele>239</ele>
        <time>2014-04-13T11:08:17Z</time>
      </trkpt>
      <trkpt lat="49.21942" lon="6.90294">
        <ele>238.4</ele>
        <time>2014-04-13T11:08:22Z</time>
      </trkpt>
      <trkpt lat="49.21943" lon="6.90295">
        <ele>238.6</ele>
        <time>2014-04-13T11:08:27Z</time>
      </trkpt>
      <trkpt lat="49.21944" lon="6.90294">
        <ele>238.6</ele>
        <time>2014-04-13T11:08:32Z</time>
      </trkpt>
      <trkpt lat="49.21947" lon="6.90288">
        <ele>240.1</ele>
        <time>2014-04-13T11:08:42Z</time>
      </trkpt>
      <trkpt lat="49.21948" lon="6.90285">
        <ele>239.2</ele>
        <time>2014-04-13T11:08:47Z</time>
      </trkpt>
      <trkpt lat="49.21948" lon="6.90281">
        <ele>239.1</ele>
        <time>2014-04-13T11:08:52Z</time>
      </trkpt>
      <trkpt lat="49.21948" lon="6.90279">
        <ele>238.7</ele>
        <time>2014-04-13T11:08:57Z</time>
      </trkpt>
      <trkpt lat="49.21949" lon="6.90277">
        <ele>238.9</ele>
        <time>2014-04-13T11:09:02Z</time>
      </trkpt>
      <trkpt lat="49.21948" lon="6.90276">
        <ele>239.1</ele>
        <time>2014-04-13T11:09:07Z</time>
      </trkpt>
      <trkpt lat="49.21948" lon="6.90274">
        <ele>239.1</ele>
        <time>2014-04-13T11:09:12Z</time>
      </trkpt>
      <trkpt lat="49.21947" lon="6.90273">
        <ele>238.2</ele>
        <time>2014-04-13T11:09:17Z</time>
      </trkpt>
      <trkpt lat="49.21946" lon="6.90273">
        <ele>238.5</ele>
        <time>2014-04-13T11:09:22Z</time>
      </trkpt>
      <trkpt lat="49.21944" lon="6.90274">
        <ele>239</ele>
        <time>2014-04-13T11:09:27Z</time>
      </trkpt>
      <trkpt lat="49.21943" lon="6.90276">
        <ele>239</ele>
        <time>2014-04-13T11:09:32Z</time>
      </trkpt>
      <trkpt lat="49.21943" lon="6.90275">
        <ele>238</ele>
        <time>2014-04-13T11:09:37Z</time>
      </trkpt>
      <trkpt lat="49.21945" lon="6.90274">
        <ele>239</ele>
        <time>2014-04-13T11:09:47Z</time>
      </trkpt>
      <trkpt lat="49.21947" lon="6.90273">
        <ele>238.6</ele>
        <time>2014-04-13T11:09:52Z</time>
      </trkpt>
      <trkpt lat="49.21949" lon="6.90271">
        <ele>238.8</ele>
        <time>2014-04-13T11:09:57Z</time>
      </trkpt>
      <trkpt lat="49.2195" lon="6.90269">
        <ele>238.5</ele>
        <time>2014-04-13T11:10:02Z</time>
      </trkpt>
      <trkpt lat="49.2195" lon="6.90268">
        <ele>239</ele>
        <time>2014-04-13T11:10:07Z</time>
      </trkpt>
      <trkpt lat="49.2195" lon="6.90268">
        <ele>239.2</ele>
        <time>2014-04-13T11:10:12Z</time>
      </trkpt>
      <trkpt lat="49.21949" lon="6.90269">
        <ele>239.1</ele>
        <time>2014-04-13T11:10:17Z</time>
      </trkpt>
      <trkpt lat="49.21949" lon="6.9027">
        <ele>239</ele>
        <time>2014-04-13T11:10:22Z</time>
      </trkpt>
      <trkpt lat="49.21948" lon="6.90271">
        <ele>239.7</ele>
        <time>2014-04-13T11:10:27Z</time>
      </trkpt>
      <trkpt lat="49.21948" lon="6.90271">
        <ele>239.5</ele>
        <time>2014-04-13T11:10:32Z</time>
      </trkpt>
      <trkpt lat="49.21947" lon="6.90272">
        <ele>239.3</ele>
        <time>2014-04-13T11:10:37Z</time>
      </trkpt>
      <trkpt lat="49.21947" lon="6.90271">
        <ele>239.1</ele>
        <time>2014-04-13T11:10:42Z</time>
      </trkpt>
      <trkpt lat="49.21947" lon="6.90269">
        <ele>239.7</ele>
        <time>2014-04-13T11:10:52Z</time>
      </trkpt>
      <trkpt lat="49.21947" lon="6.9027">
        <ele>240</ele>
        <time>2014-04-13T11:10:57Z</time>
      </trkpt>
      <trkpt lat="49.21947" lon="6.90273">
        <ele>238.8</ele>
        <time>2014-04-13T11:11:02Z</time>
      </trkpt>
      <trkpt lat="49.21948" lon="6.90276">
        <ele>239.2</ele>
        <time>2014-04-13T11:11:07Z</time>
      </trkpt>
      <trkpt lat="49.21947" lon="6.90278">
        <ele>239</ele>
        <time>2014-04-13T11:11:12Z</time>
      </trkpt>
      <trkpt lat="49.21948" lon="6.90278">
        <ele>238.9</ele>
        <time>2014-04-13T11:11:17Z</time>
      </trkpt>
      <trkpt lat="49.2195" lon="6.90278">
        <ele>239.4</ele>
        <time>2014-04-13T11:11:22Z</time>
      </trkpt>
      <trkpt lat="49.21952" lon="6.90278">
        <ele>240.2</ele>
        <time>2014-04-13T11:11:27Z</time>
      </trkpt>
      <trkpt lat="49.21952" lon="6.90278">
        <ele>239</ele>
        <time>2014-04-13T11:11:32Z</time>
      </trkpt>
      <trkpt lat="49.21952" lon="6.90278">
        <ele>239.7</ele>
        <time>2014-04-13T11:11:37Z</time>
      </trkpt>
      <trkpt lat="49.21952" lon="6.90278">
        <ele>239.2</ele>
        <time>2014-04-13T11:11:42Z</time>
      </trkpt>
      <trkpt lat="49.21951" lon="6.9028">
        <ele>239.6</ele>
        <time>2014-04-13T11:11:47Z</time>
      </trkpt>
      <trkpt lat="49.21952" lon="6.90281">
        <ele>239.2</ele>
        <time>2014-04-13T11:11:57Z</time>
      </trkpt>
      <trkpt lat="49.21953" lon="6.9028">
        <ele>239.5</ele>
        <time>2014-04-13T11:12:02Z</time>
      </trkpt>
      <trkpt lat="49.21953" lon="6.90279">
        <ele>238.3</ele>
        <time>2014-04-13T11:12:07Z</time>
      </trkpt>
      <trkpt lat="49.21954" lon="6.90278">
        <ele>238.7</ele>
        <time>2014-04-13T11:12:12Z</time>
      </trkpt>
      <trkpt lat="49.21954" lon="6.90277">
        <ele>239.8</ele>
        <time>2014-04-13T11:12:17Z</time>
      </trkpt>
      <trkpt lat="49.21954" lon="6.90276">
        <ele>238.9</ele>
        <time>2014-04-13T11:12:22Z</time>
      </trkpt>
      <trkpt lat="49.21954" lon="6.90276">
        <ele>238.9</ele>
        <time>2014-04-13T11:12:27Z</time>
      </trkpt>
      <trkpt lat="49.21954" lon="6.90277">
        <ele>239.1</ele>
        <time>2014-04-13T11:12:32Z</time>
      </trkpt>
      <trkpt lat="49.21954" lon="6.90278">
        <ele>240.3</ele>
        <time>2014-04-13T11:12:37Z</time>
      </trkpt>
      <trkpt lat="49.21953" lon="6.9028">
        <ele>239.9</ele>
        <time>2014-04-13T11:12:42Z</time>
      </trkpt>
      <trkpt lat="49.21953" lon="6.90281">
        <ele>239</ele>
        <time>2014-04-13T11:12:47Z</time>
      </trkpt>
      <trkpt lat="49.21952" lon="6.90281">
        <ele>238.5</ele>
        <time>2014-04-13T11:12:52Z</time>
      </trkpt>
      <trkpt lat="49.21951" lon="6.9028">
        <ele>238.7</ele>
        <time>2014-04-13T11:13:02Z</time>
      </trkpt>
      <trkpt lat="49.2195" lon="6.90279">
        <ele>239.6</ele>
        <time>2014-04-13T11:13:07Z</time>
      </trkpt>
      <trkpt lat="49.21949" lon="6.90274">
        <ele>239.4</ele>
        <time>2014-04-13T11:13:12Z</time>
      </trkpt>
      <trkpt lat="49.21947" lon="6.90267">
        <ele>239.5</ele>
        <time>2014-04-13T11:13:17Z</time>
      </trkpt>
      <trkpt lat="49.21945" lon="6.90262">
        <ele>239.5</ele>
        <time>2014-04-13T11:13:22Z</time>
      </trkpt>
      <trkpt lat="49.21942" lon="6.90255">
        <ele>238.9</ele>
        <time>2014-04-13T11:13:27Z</time>
      </trkpt>
      <trkpt lat="49.21939" lon="6.90248">
        <ele>239.6</ele>
        <time>2014-04-13T11:13:32Z</time>
      </trkpt>
      <trkpt lat="49.21935" lon="6.90242">
        <ele>239.2</ele>
        <time>2014-04-13T11:13:37Z</time>
      </trkpt>
      <trkpt lat="49.21932" lon="6.90236">
        <ele>239.6</ele>
        <time>2014-04-13T11:13:42Z</time>
      </trkpt>
      <trkpt lat="49.21929" lon="6.90228">
        <ele>239.2</ele>
        <time>2014-04-13T11:13:47Z</time>
      </trkpt>
      <trkpt lat="49.21925" lon="6.9022">
        <ele>239.1</ele>
        <time>2014-04-13T11:13:52Z</time>
      </trkpt>
      <trkpt lat="49.21922" lon="6.90212">
        <ele>239.6</ele>
        <time>2014-04-13T11:13:57Z</time>
      </trkpt>
      <trkpt lat="49.21915" lon="6.90195">
        <ele>238.8</ele>
        <time>2014-04-13T11:14:07Z</time>
      </trkpt>
      <trkpt lat="49.21912" lon="6.90186">
        <ele>239.8</ele>
        <time>2014-04-13T11:14:12Z</time>
      </trkpt>
      <trkpt lat="49.21909" lon="6.90178">
        <ele>239.6</ele>
        <time>2014-04-13T11:14:17Z</time>
      </trkpt>
      <trkpt lat="49.21906" lon="6.90169">
        <ele>240.1</ele>
        <time>2014-04-13T11:14:22Z</time>
      </trkpt>
      <trkpt lat="49.21903" lon="6.90161">
        <ele>239.7</ele>
        <time>2014-04-13T11:14:27Z</time>
      </trkpt>
      <trkpt lat="49.219" lon="6.90153">
        <ele>240</ele>
        <time>2014-04-13T11:14:32Z</time>
      </trkpt>
      <trkpt lat="49.21897" lon="6.90145">
        <ele>240.3</ele>
        <time>2014-04-13T11:14:37Z</time>
      </trkpt>
      <trkpt lat="49.21893" lon="6.90137">
        <ele>239.8</ele>
        <time>2014-04-13T11:14:42Z</time>
      </trkpt>
      <trkpt lat="49.21889" lon="6.90129">
        <ele>239.9</ele>
        <time>2014-04-13T11:14:47Z</time>
      </trkpt>
      <trkpt lat="49.21886" lon="6.9012">
        <ele>241</ele>
        <time>2014-04-13T11:14:52Z</time>
      </trkpt>
      <trkpt lat="49.21883" lon="6.90112">
        <ele>241.5</ele>
        <time>2014-04-13T11:14:57Z</time>
      </trkpt>
      <trkpt lat="49.21879" lon="6.90103">
        <ele>241.1</ele>
        <time>2014-04-13T11:15:02Z</time>
      </trkpt>
      <trkpt lat="49.21871" lon="6.90087">
        <ele>242.2</ele>
        <time>2014-04-13T11:15:12Z</time>
      </trkpt>
      <trkpt lat="49.21867" lon="6.90078">
        <ele>241.7</ele>
        <time>2014-04-13T11:15:17Z</time>
      </trkpt>
      <trkpt lat="49.21862" lon="6.9007">
        <ele>240.8</ele>
        <time>2014-04-13T11:15:22Z</time>
      </trkpt>
      <trkpt lat="49.21859" lon="6.90061">
        <ele>240.9</ele>
        <time>2014-04-13T11:15:27Z</time>
      </trkpt>
      <trkpt lat="49.21855" lon="6.90052">
        <ele>241.5</ele>
        <time>2014-04-13T11:15:32Z</time>
      </trkpt>
      <trkpt lat="49.21852" lon="6.90045">
        <ele>241.6</ele>
        <time>2014-04-13T11:15:37Z</time>
      </trkpt>
      <trkpt lat="49.21848" lon="6.90037">
        <ele>240.6</ele>
        <time>2014-04-13T11:15:42Z</time>
      </trkpt>
      <trkpt lat="49.21844" lon="6.9003">
        <ele>242.3</ele>
        <time>2014-04-13T11:15:47Z</time>
      </trkpt>
      <trkpt lat="49.21841" lon="6.90021">
        <ele>242.6</ele>
        <time>2014-04-13T11:15:52Z</time>
      </trkpt>
      <trkpt lat="49.2184" lon="6.90014">
        <ele>243</ele>
        <time>2014-04-13T11:15:57Z</time>
      </trkpt>
      <trkpt lat="49.21838" lon="6.90006">
        <ele>242</ele>
        <time>2014-04-13T11:16:02Z</time>
      </trkpt>
      <trkpt lat="49.21838" lon="6.89996">
        <ele>243.8</ele>
        <time>2014-04-13T11:16:07Z</time>
      </trkpt>
      <trkpt lat="49.21837" lon="6.89976">
        <ele>243.4</ele>
        <time>2014-04-13T11:16:17Z</time>
      </trkpt>
      <trkpt lat="49.21837" lon="6.89965">
        <ele>243.3</ele>
        <time>2014-04-13T11:16:22Z</time>
      </trkpt>
      <trkpt lat="49.21837" lon="6.89954">
        <ele>243.3</ele>
        <time>2014-04-13T11:16:27Z</time>
      </trkpt>
      <trkpt lat="49.21837" lon="6.89943">
        <ele>244</ele>
        <time>2014-04-13T11:16:32Z</time>
      </trkpt>
      <trkpt lat="49.21837" lon="6.89933">
        <ele>244.2</ele>
        <time>2014-04-13T11:16:37Z</time>
      </trkpt>
      <trkpt lat="49.21836" lon="6.89922">
        <ele>244.3</ele>
        <time>2014-04-13T11:16:42Z</time>
      </trkpt>
      <trkpt lat="49.21835" lon="6.89912">
        <ele>244.6</ele>
        <time>2014-04-13T11:16:47Z</time>
      </trkpt>
      <trkpt lat="49.21834" lon="6.89901">
        <ele>244.7</ele>
        <time>2014-04-13T11:16:52Z</time>
      </trkpt>
      <trkpt lat="49.21833" lon="6.89892">
        <ele>244</ele>
        <time>2014-04-13T11:16:57Z</time>
      </trkpt>
      <trkpt lat="49.21831" lon="6.89882">
        <ele>244</ele>
        <time>2014-04-13T11:17:02Z</time>
      </trkpt>
      <trkpt lat="49.21828" lon="6.89872">
        <ele>245.2</ele>
        <time>2014-04-13T11:17:07Z</time>
      </trkpt>
      <trkpt lat="49.21825" lon="6.89861">
        <ele>246.1</ele>
        <time>2014-04-13T11:17:12Z</time>
      </trkpt>
      <trkpt lat="49.21819" lon="6.89844">
        <ele>245.6</ele>
        <time>2014-04-13T11:17:22Z</time>
      </trkpt>
      <trkpt lat="49.21816" lon="6.89835">
        <ele>245.4</ele>
        <time>2014-04-13T11:17:27Z</time>
      </trkpt>
      <trkpt lat="49.21812" lon="6.89828">
        <ele>245.5</ele>
        <time>2014-04-13T11:17:32Z</time>
      </trkpt>
      <trkpt lat="49.21807" lon="6.8982">
        <ele>246.1</ele>
        <time>2014-04-13T11:17:37Z</time>
      </trkpt>
      <trkpt lat="49.21803" lon="6.89812">
        <ele>246.1</ele>
        <time>2014-04-13T11:17:42Z</time>
      </trkpt>
      <trkpt lat="49.21798" lon="6.89806">
        <ele>246.1</ele>
        <time>2014-04-13T11:17:47Z</time>
      </trkpt>
      <trkpt lat="49.21793" lon="6.89798">
        <ele>246.1</ele>
        <time>2014-04-13T11:17:52Z</time>
      </trkpt>
      <trkpt lat="49.21787" lon="6.89791">
        <ele>246.5</ele>
        <time>2014-04-13T11:17:57Z</time>
      </trkpt>
      <trkpt lat="49.21781" lon="6.89786">
        <ele>247.4</ele>
        <time>2014-04-13T11:18:02Z</time>
      </trkpt>
      <trkpt lat="49.21776" lon="6.89783">
        <ele>247.3</ele>
        <time>2014-04-13T11:18:07Z</time>
      </trkpt>
      <trkpt lat="49.21769" lon="6.89779">
        <ele>246.8</ele>
        <time>2014-04-13T11:18:12Z</time>
      </trkpt>
      <trkpt lat="49.21763" lon="6.89776">
        <ele>247</ele>
        <time>2014-04-13T11:18:17Z</time>
      </trkpt>
      <trkpt lat="49.21749" lon="6.89772">
        <ele>247.9</ele>
        <time>2014-04-13T11:18:27Z</time>
      </trkpt>
      <trkpt lat="49.21743" lon="6.89771">
        <ele>247</ele>
        <time>2014-04-13T11:18:32Z</time>
      </trkpt>
      <trkpt lat="49.21735" lon="6.8977">
        <ele>247.4</ele>
        <time>2014-04-13T11:18:37Z</time>
      </trkpt>
      <trkpt lat="49.21728" lon="6.89769">
        <ele>247.2</ele>
        <time>2014-04-13T11:18:42Z</time>
      </trkpt>
      <trkpt lat="49.21721" lon="6.89765">
        <ele>248</ele>
        <time>2014-04-13T11:18:47Z</time>
      </trkpt>
      <trkpt lat="49.21714" lon="6.89761">
        <ele>249</ele>
        <time>2014-04-13T11:18:52Z</time>
      </trkpt>
      <trkpt lat="49.21709" lon="6.89757">
        <ele>248.7</ele>
        <time>2014-04-13T11:18:57Z</time>
      </trkpt>
      <trkpt lat="49.21703" lon="6.89752">
        <ele>249.3</ele>
        <time>2014-04-13T11:19:02Z</time>
      </trkpt>
      <trkpt lat="49.21696" lon="6.89748">
        <ele>249.5</ele>
        <time>2014-04-13T11:19:07Z</time>
      </trkpt>
      <trkpt lat="49.2169" lon="6.89742">
        <ele>250.1</ele>
        <time>2014-04-13T11:19:12Z</time>
      </trkpt>
      <trkpt lat="49.21684" lon="6.89738">
        <ele>250.2</ele>
        <time>2014-04-13T11:19:17Z</time>
      </trkpt>
      <trkpt lat="49.21678" lon="6.89732">
        <ele>250.4</ele>
        <time>2014-04-13T11:19:22Z</time>
      </trkpt>
      <trkpt lat="49.21666" lon="6.89721">
        <ele>250.8</ele>
        <time>2014-04-13T11:19:32Z</time>
      </trkpt>
      <trkpt lat="49.21661" lon="6.89716">
        <ele>250.6</ele>
        <time>2014-04-13T11:19:37Z</time>
      </trkpt>
      <trkpt lat="49.21654" lon="6.89711">
        <ele>251</ele>
        <time>2014-04-13T11:19:42Z</time>
      </trkpt>
      <trkpt lat="49.21649" lon="6.89708">
        <ele>251.6</ele>
        <time>2014-04-13T11:19:47Z</time>
      </trkpt>
      <trkpt lat="49.21642" lon="6.89703">
        <ele>252</ele>
        <time>2014-04-13T11:19:52Z</time>
      </trkpt>
      <trkpt lat="49.21636" lon="6.89699">
        <ele>252.8</ele>
        <time>2014-04-13T11:19:57Z</time>
      </trkpt>
      <trkpt lat="49.21631" lon="6.89694">
        <ele>252.7</ele>
        <time>2014-04-13T11:20:02Z</time>
      </trkpt>
      <trkpt lat="49.21625" lon="6.89688">
        <ele>253</ele>
        <time>2014-04-13T11:20:07Z</time>
      </trkpt>
      <trkpt lat="49.2162" lon="6.89682">
        <ele>252.9</ele>
        <time>2014-04-13T11:20:12Z</time>
      </trkpt>
      <trkpt lat="49.21615" lon="6.89673">
        <ele>252.8</ele>
        <time>2014-04-13T11:20:17Z</time>
      </trkpt>
      <trkpt lat="49.2161" lon="6.89666">
        <ele>253</ele>
        <time>2014-04-13T11:20:22Z</time>
      </trkpt>
      <trkpt lat="49.21605" lon="6.89657">
        <ele>252.9</ele>
        <time>2014-04-13T11:20:27Z</time>
      </trkpt>
      <trkpt lat="49.21597" lon="6.89639">
        <ele>254.5</ele>
        <time>2014-04-13T11:20:37Z</time>
      </trkpt>
      <trkpt lat="49.21593" lon="6.8963">
        <ele>254.4</ele>
        <time>2014-04-13T11:20:42Z</time>
      </trkpt>
      <trkpt lat="49.21589" lon="6.89622">
        <ele>253.7</ele>
        <time>2014-04-13T11:20:47Z</time>
      </trkpt>
      <trkpt lat="49.21585" lon="6.89615">
        <ele>254.2</ele>
        <time>2014-04-13T11:20:52Z</time>
      </trkpt>
      <trkpt lat="49.21581" lon="6.89607">
        <ele>255.1</ele>
        <time>2014-04-13T11:20:57Z</time>
      </trkpt>
      <trkpt lat="49.21578" lon="6.89599">
        <ele>256.1</ele>
        <time>2014-04-13T11:21:02Z</time>
      </trkpt>
      <trkpt lat="49.21574" lon="6.8959">
        <ele>257.5</ele>
        <time>2014-04-13T11:21:07Z</time>
      </trkpt>
      <trkpt lat="49.21571" lon="6.89582">
        <ele>257.6</ele>
        <time>2014-04-13T11:21:12Z</time>
      </trkpt>
      <trkpt lat="49.21566" lon="6.89573">
        <ele>258.7</ele>
        <time>2014-04-13T11:21:17Z</time>
      </trkpt>
      <trkpt lat="49.21563" lon="6.89564">
        <ele>259.4</ele>
        <time>2014-04-13T11:21:22Z</time>
      </trkpt>
      <trkpt lat="49.21559" lon="6.89556">
        <ele>259.5</ele>
        <time>2014-04-13T11:21:27Z</time>
      </trkpt>
      <trkpt lat="49.21555" lon="6.89547">
        <ele>259.8</ele>
        <time>2014-04-13T11:21:32Z</time>
      </trkpt>
      <trkpt lat="49.21547" lon="6.89531">
        <ele>262.3</ele>
        <time>2014-04-13T11:21:42Z</time>
      </trkpt>
      <trkpt lat="49.21544" lon="6.89521">
        <ele>263.3</ele>
        <time>2014-04-13T11:21:47Z</time>
      </trkpt>
      <trkpt lat="49.21541" lon="6.89511">
        <ele>263.4</ele>
        <time>2014-04-13T11:21:52Z</time>
      </trkpt>
      <trkpt lat="49.21536" lon="6.89501">
        <ele>265</ele>
        <time>2014-04-13T11:21:57Z</time>
      </trkpt>
      <trkpt lat="49.21531" lon="6.89492">
        <ele>266.6</ele>
        <time>2014-04-13T11:22:02Z</time>
      </trkpt>
      <trkpt lat="49.21526" lon="6.89485">
        <ele>266.8</ele>
        <time>2014-04-13T11:22:07Z</time>
      </trkpt>
      <trkpt lat="49.21522" lon="6.89478">
        <ele>265.8</ele>
        <time>2014-04-13T11:22:12Z</time>
      </trkpt>
      <trkpt lat="49.21517" lon="6.89472">
        <ele>265</ele>
        <time>2014-04-13T11:22:17Z</time>
      </trkpt>
      <trkpt lat="49.21512" lon="6.89468">
        <ele>264.6</ele>
        <time>2014-04-13T11:22:22Z</time>
      </trkpt>
      <trkpt lat="49.21506" lon="6.89464">
        <ele>264.5</ele>
        <time>2014-04-13T11:22:27Z</time>
      </trkpt>
      <trkpt lat="49.215" lon="6.8946">
        <ele>264.2</ele>
        <time>2014-04-13T11:22:32Z</time>
      </trkpt>
      <trkpt lat="49.21493" lon="6.89457">
        <ele>263.2</ele>
        <time>2014-04-13T11:22:37Z</time>
      </trkpt>
      <trkpt lat="49.21481" lon="6.8945">
        <ele>261.9</ele>
        <time>2014-04-13T11:22:47Z</time>
      </trkpt>
      <trkpt lat="49.21475" lon="6.89447">
        <ele>261.3</ele>
        <time>2014-04-13T11:22:52Z</time>
      </trkpt>
      <trkpt lat="49.21468" lon="6.89443">
        <ele>261.1</ele>
        <time>2014-04-13T11:22:57Z</time>
      </trkpt>
      <trkpt lat="49.2146" lon="6.89439">
        <ele>261</ele>
        <time>2014-04-13T11:23:02Z</time>
      </trkpt>
      <trkpt lat="49.21453" lon="6.89435">
        <ele>261</ele>
        <time>2014-04-13T11:23:07Z</time>
      </trkpt>
      <trkpt lat="49.21446" lon="6.89432">
        <ele>261.5</ele>
        <time>2014-04-13T11:23:12Z</time>
      </trkpt>
      <trkpt lat="49.21441" lon="6.89427">
        <ele>261.3</ele>
        <time>2014-04-13T11:23:17Z</time>
      </trkpt>
      <trkpt lat="49.21439" lon="6.89421">
        <ele>261.3</ele>
        <time>2014-04-13T11:23:22Z</time>
      </trkpt>
      <trkpt lat="49.21438" lon="6.89414">
        <ele>261.9</ele>
        <time>2014-04-13T11:23:27Z</time>
      </trkpt>
      <trkpt lat="49.21436" lon="6.89405">
        <ele>263.1</ele>
        <time>2014-04-13T11:23:32Z</time>
      </trkpt>
      <trkpt lat="49.21434" lon="6.89397">
        <ele>262</ele>
        <time>2014-04-13T11:23:37Z</time>
      </trkpt>
      <trkpt lat="49.21432" lon="6.89389">
        <ele>262.8</ele>
        <time>2014-04-13T11:23:42Z</time>
      </trkpt>
      <trkpt lat="49.21427" lon="6.8937">
        <ele>263.6</ele>
        <time>2014-04-13T11:23:52Z</time>
      </trkpt>
      <trkpt lat="49.21424" lon="6.8936">
        <ele>264.2</ele>
        <time>2014-04-13T11:23:57Z</time>
      </trkpt>
      <trkpt lat="49.21422" lon="6.89351">
        <ele>264.8</ele>
        <time>2014-04-13T11:24:02Z</time>
      </trkpt>
      <trkpt lat="49.21418" lon="6.89341">
        <ele>263.7</ele>
        <time>2014-04-13T11:24:07Z</time>
      </trkpt>
      <trkpt lat="49.21415" lon="6.89334">
        <ele>265.2</ele>
        <time>2014-04-13T11:24:12Z</time>
      </trkpt>
      <trkpt lat="49.21411" lon="6.89327">
        <ele>265.5</ele>
        <time>2014-04-13T11:24:17Z</time>
      </trkpt>
      <trkpt lat="49.21407" lon="6.89319">
        <ele>267.1</ele>
        <time>2014-04-13T11:24:22Z</time>
      </trkpt>
      <trkpt lat="49.21402" lon="6.89312">
        <ele>268.2</ele>
        <time>2014-04-13T11:24:27Z</time>
      </trkpt>
      <trkpt lat="49.21398" lon="6.89304">
        <ele>269.2</ele>
        <time>2014-04-13T11:24:32Z</time>
      </trkpt>
      <trkpt lat="49.21394" lon="6.89297">
        <ele>270</ele>
        <time>2014-04-13T11:24:37Z</time>
      </trkpt>
      <trkpt lat="49.2139" lon="6.89291">
        <ele>270.9</ele>
        <time>2014-04-13T11:24:42Z</time>
      </trkpt>
      <trkpt lat="49.21386" lon="6.89284">
        <ele>271.5</ele>
        <time>2014-04-13T11:24:47Z</time>
      </trkpt>
      <trkpt lat="49.21377" lon="6.89268">
        <ele>272</ele>
        <time>2014-04-13T11:24:57Z</time>
      </trkpt>
      <trkpt lat="49.21372" lon="6.89261">
        <ele>272.6</ele>
        <time>2014-04-13T11:25:02Z</time>
      </trkpt>
      <trkpt lat="49.21367" lon="6.89254">
        <ele>273.6</ele>
        <time>2014-04-13T11:25:07Z</time>
      </trkpt>
      <trkpt lat="49.21363" lon="6.89247">
        <ele>273.9</ele>
        <time>2014-04-13T11:25:12Z</time>
      </trkpt>
      <trkpt lat="49.21357" lon="6.89239">
        <ele>274.5</ele>
        <time>2014-04-13T11:25:17Z</time>
      </trkpt>
      <trkpt lat="49.21353" lon="6.89232">
        <ele>274.1</ele>
        <time>2014-04-13T11:25:22Z</time>
      </trkpt>
      <trkpt lat="49.2135" lon="6.89225">
        <ele>274.2</ele>
        <time>2014-04-13T11:25:27Z</time>
      </trkpt>
      <trkpt lat="49.21347" lon="6.89217">
        <ele>274.7</ele>
        <time>2014-04-13T11:25:32Z</time>
      </trkpt>
      <trkpt lat="49.21345" lon="6.89208">
        <ele>274.7</ele>
        <time>2014-04-13T11:25:37Z</time>
      </trkpt>
      <trkpt lat="49.21343" lon="6.89199">
        <ele>274.7</ele>
        <time>2014-04-13T11:25:42Z</time>
      </trkpt>
      <trkpt lat="49.21341" lon="6.89189">
        <ele>274.2</ele>
        <time>2014-04-13T11:25:47Z</time>
      </trkpt>
      <trkpt lat="49.21339" lon="6.89179">
        <ele>276.3</ele>
        <time>2014-04-13T11:25:52Z</time>
      </trkpt>
      <trkpt lat="49.21336" lon="6.89159">
        <ele>276</ele>
        <time>2014-04-13T11:26:02Z</time>
      </trkpt>
      <trkpt lat="49.21334" lon="6.89148">
        <ele>275.8</ele>
        <time>2014-04-13T11:26:07Z</time>
      </trkpt>
      <trkpt lat="49.21333" lon="6.89136">
        <ele>276.2</ele>
        <time>2014-04-13T11:26:12Z</time>
      </trkpt>
      <trkpt lat="49.21332" lon="6.89126">
        <ele>276.9</ele>
        <time>2014-04-13T11:26:17Z</time>
      </trkpt>
      <trkpt lat="49.2133" lon="6.89116">
        <ele>277.4</ele>
        <time>2014-04-13T11:26:22Z</time>
      </trkpt>
      <trkpt lat="49.21328" lon="6.89107">
        <ele>277.7</ele>
        <time>2014-04-13T11:26:27Z</time>
      </trkpt>
      <trkpt lat="49.21326" lon="6.89097">
        <ele>277.6</ele>
        <time>2014-04-13T11:26:32Z</time>
      </trkpt>
      <trkpt lat="49.21323" lon="6.89087">
        <ele>277.1</ele>
        <time>2014-04-13T11:26:37Z</time>
      </trkpt>
      <trkpt lat="49.21322" lon="6.89076">
        <ele>278.6</ele>
        <time>2014-04-13T11:26:42Z</time>
      </trkpt>
      <trkpt lat="49.21322" lon="6.89065">
        <ele>279.3</ele>
        <time>2014-04-13T11:26:47Z</time>
      </trkpt>
      <trkpt lat="49.2132" lon="6.89056">
        <ele>279.5</ele>
        <time>2014-04-13T11:26:52Z</time>
      </trkpt>
      <trkpt lat="49.21318" lon="6.89046">
        <ele>280.3</ele>
        <time>2014-04-13T11:26:57Z</time>
      </trkpt>
      <trkpt lat="49.21314" lon="6.89027">
        <ele>280.7</ele>
        <time>2014-04-13T11:27:07Z</time>
      </trkpt>
      <trkpt lat="49.21311" lon="6.89017">
        <ele>281</ele>
        <time>2014-04-13T11:27:12Z</time>
      </trkpt>
      <trkpt lat="49.21308" lon="6.89005">
        <ele>281.5</ele>
        <time>2014-04-13T11:27:17Z</time>
      </trkpt>
      <trkpt lat="49.21306" lon="6.88995">
        <ele>282</ele>
        <time>2014-04-13T11:27:22Z</time>
      </trkpt>
      <trkpt lat="49.21303" lon="6.88985">
        <ele>282.1</ele>
        <time>2014-04-13T11:27:27Z</time>
      </trkpt>
      <trkpt lat="49.213" lon="6.88976">
        <ele>281.8</ele>
        <time>2014-04-13T11:27:32Z</time>
      </trkpt>
      <trkpt lat="49.21298" lon="6.88967">
        <ele>283</ele>
        <time>2014-04-13T11:27:37Z</time>
      </trkpt>
      <trkpt lat="49.21295" lon="6.88958">
        <ele>282.4</ele>
        <time>2014-04-13T11:27:42Z</time>
      </trkpt>
      <trkpt lat="49.21292" lon="6.88947">
        <ele>282.1</ele>
        <time>2014-04-13T11:27:47Z</time>
      </trkpt>
      <trkpt lat="49.21288" lon="6.88939">
        <ele>283</ele>
        <time>2014-04-13T11:27:52Z</time>
      </trkpt>
      <trkpt lat="49.21286" lon="6.8893">
        <ele>283.4</ele>
        <time>2014-04-13T11:27:57Z</time>
      </trkpt>
      <trkpt lat="49.21285" lon="6.88922">
        <ele>284.8</ele>
        <time>2014-04-13T11:28:02Z</time>
      </trkpt>
      <trkpt lat="49.21279" lon="6.88902">
        <ele>285.6</ele>
        <time>2014-04-13T11:28:12Z</time>
      </trkpt>
      <trkpt lat="49.21276" lon="6.88893">
        <ele>285.8</ele>
        <time>2014-04-13T11:28:17Z</time>
      </trkpt>
      <trkpt lat="49.21274" lon="6.88884">
        <ele>285.6</ele>
        <time>2014-04-13T11:28:22Z</time>
      </trkpt>
      <trkpt lat="49.21273" lon="6.88874">
        <ele>286</ele>
        <time>2014-04-13T11:28:27Z</time>
      </trkpt>
      <trkpt lat="49.21272" lon="6.88864">
        <ele>285.4</ele>
        <time>2014-04-13T11:28:32Z</time>
      </trkpt>
      <trkpt lat="49.21272" lon="6.88855">
        <ele>286.8</ele>
        <time>2014-04-13T11:28:37Z</time>
      </trkpt>
      <trkpt lat="49.21273" lon="6.88845">
        <ele>287.8</ele>
        <time>2014-04-13T11:28:42Z</time>
      </trkpt>
      <trkpt lat="49.21273" lon="6.88834">
        <ele>287.9</ele>
        <time>2014-04-13T11:28:47Z</time>
      </trkpt>
      <trkpt lat="49.21275" lon="6.88825">
        <ele>287.2</ele>
        <time>2014-04-13T11:28:52Z</time>
      </trkpt>
      <trkpt lat="49.21276" lon="6.88817">
        <ele>287.7</ele>
        <time>2014-04-13T11:28:57Z</time>
      </trkpt>
      <trkpt lat="49.21276" lon="6.88809">
        <ele>288</ele>
        <time>2014-04-13T11:29:02Z</time>
      </trkpt>
      <trkpt lat="49.21274" lon="6.88799">
        <ele>289.5</ele>
        <time>2014-04-13T11:29:07Z</time>
      </trkpt>
      <trkpt lat="49.21271" lon="6.88782">
        <ele>288.7</ele>
        <time>2014-04-13T11:29:17Z</time>
      </trkpt>
      <trkpt lat="49.21269" lon="6.88773">
        <ele>288.8</ele>
        <time>2014-04-13T11:29:22Z</time>
      </trkpt>
      <trkpt lat="49.21266" lon="6.88764">
        <ele>288.7</ele>
        <time>2014-04-13T11:29:27Z</time>
      </trkpt>
      <trkpt lat="49.21263" lon="6.88755">
        <ele>289.6</ele>
        <time>2014-04-13T11:29:32Z</time>
      </trkpt>
      <trkpt lat="49.2126" lon="6.88746">
        <ele>290.4</ele>
        <time>2014-04-13T11:29:37Z</time>
      </trkpt>
      <trkpt lat="49.21257" lon="6.88736">
        <ele>290</ele>
        <time>2014-04-13T11:29:42Z</time>
      </trkpt>
      <trkpt lat="49.21254" lon="6.88727">
        <ele>289.9</ele>
        <time>2014-04-13T11:29:47Z</time>
      </trkpt>
      <trkpt lat="49.21251" lon="6.88717">
        <ele>290.1</ele>
        <time>2014-04-13T11:29:52Z</time>
      </trkpt>
      <trkpt lat="49.21247" lon="6.88707">
        <ele>289.7</ele>
        <time>2014-04-13T11:29:57Z</time>
      </trkpt>
      <trkpt lat="49.21244" lon="6.88698">
        <ele>289.7</ele>
        <time>2014-04-13T11:30:02Z</time>
      </trkpt>
      <trkpt lat="49.21241" lon="6.8869">
        <ele>289.5</ele>
        <time>2014-04-13T11:30:07Z</time>
      </trkpt>
      <trkpt lat="49.21239" lon="6.8868">
        <ele>288.8</ele>
        <time>2014-04-13T11:30:12Z</time>
      </trkpt>
      <trkpt lat="49.21235" lon="6.8866">
        <ele>289.3</ele>
        <time>2014-04-13T11:30:22Z</time>
      </trkpt>
      <trkpt lat="49.21234" lon="6.8865">
        <ele>289.4</ele>
        <time>2014-04-13T11:30:27Z</time>
      </trkpt>
      <trkpt lat="49.21232" lon="6.88639">
        <ele>289.6</ele>
        <time>2014-04-13T11:30:32Z</time>
      </trkpt>
      <trkpt lat="49.2123" lon="6.88628">
        <ele>291.1</ele>
        <time>2014-04-13T11:30:37Z</time>
      </trkpt>
      <trkpt lat="49.21229" lon="6.88618">
        <ele>290.5</ele>
        <time>2014-04-13T11:30:42Z</time>
      </trkpt>
      <trkpt lat="49.21226" lon="6.88607">
        <ele>290</ele>
        <time>2014-04-13T11:30:47Z</time>
      </trkpt>
      <trkpt lat="49.21225" lon="6.88596">
        <ele>289.3</ele>
        <time>2014-04-13T11:30:52Z</time>
      </trkpt>
      <trkpt lat="49.21223" lon="6.88584">
        <ele>288.8</ele>
        <time>2014-04-13T11:30:57Z</time>
      </trkpt>
      <trkpt lat="49.21221" lon="6.88572">
        <ele>288.7</ele>
        <time>2014-04-13T11:31:02Z</time>
      </trkpt>
      <trkpt lat="49.2122" lon="6.88561">
        <ele>289.8</ele>
        <time>2014-04-13T11:31:07Z</time>
      </trkpt>
      <trkpt lat="49.21219" lon="6.8855">
        <ele>289.4</ele>
        <time>2014-04-13T11:31:12Z</time>
      </trkpt>
      <trkpt lat="49.21217" lon="6.8854">
        <ele>288.3</ele>
        <time>2014-04-13T11:31:17Z</time>
      </trkpt>
      <trkpt lat="49.21215" lon="6.88519">
        <ele>289.2</ele>
        <time>2014-04-13T11:31:27Z</time>
      </trkpt>
      <trkpt lat="49.21213" lon="6.88508">
        <ele>288.8</ele>
        <time>2014-04-13T11:31:32Z</time>
      </trkpt>
      <trkpt lat="49.21211" lon="6.88498">
        <ele>288.4</ele>
        <time>2014-04-13T11:31:37Z</time>
      </trkpt>
      <trkpt lat="49.21209" lon="6.88487">
        <ele>287.9</ele>
        <time>2014-04-13T11:31:42Z</time>
      </trkpt>
      <trkpt lat="49.21208" lon="6.88476">
        <ele>288.2</ele>
        <time>2014-04-13T11:31:47Z</time>
      </trkpt>
      <trkpt lat="49.21206" lon="6.88467">
        <ele>288.8</ele>
        <time>2014-04-13T11:31:52Z</time>
      </trkpt>
      <trkpt lat="49.21205" lon="6.88456">
        <ele>289.3</ele>
        <time>2014-04-13T11:31:57Z</time>
      </trkpt>
      <trkpt lat="49.21203" lon="6.88444">
        <ele>288.9</ele>
        <time>2014-04-13T11:32:02Z</time>
      </trkpt>
      <trkpt lat="49.21201" lon="6.88434">
        <ele>289.6</ele>
        <time>2014-04-13T11:32:07Z</time>
      </trkpt>
      <trkpt lat="49.21199" lon="6.88423">
        <ele>289.2</ele>
        <time>2014-04-13T11:32:12Z</time>
      </trkpt>
      <trkpt lat="49.21198" lon="6.88413">
        <ele>289.1</ele>
        <time>2014-04-13T11:32:17Z</time>
      </trkpt>
      <trkpt lat="49.21198" lon="6.88404">
        <ele>288.2</ele>
        <time>2014-04-13T11:32:22Z</time>
      </trkpt>
      <trkpt lat="49.21198" lon="6.88385">
        <ele>288.6</ele>
        <time>2014-04-13T11:32:32Z</time>
      </trkpt>
      <trkpt lat="49.21201" lon="6.88377">
        <ele>288.5</ele>
        <time>2014-04-13T11:32:37Z</time>
      </trkpt>
      <trkpt lat="49.21204" lon="6.88369">
        <ele>289.4</ele>
        <time>2014-04-13T11:32:42Z</time>
      </trkpt>
      <trkpt lat="49.21207" lon="6.88358">
        <ele>290.6</ele>
        <time>2014-04-13T11:32:47Z</time>
      </trkpt>
      <trkpt lat="49.2121" lon="6.88348">
        <ele>290</ele>
        <time>2014-04-13T11:32:52Z</time>
      </trkpt>
      <trkpt lat="49.21212" lon="6.88337">
        <ele>290.8</ele>
        <time>2014-04-13T11:32:57Z</time>
      </trkpt>
      <trkpt lat="49.21212" lon="6.88326">
        <ele>291</ele>
        <time>2014-04-13T11:33:02Z</time>
      </trkpt>
      <trkpt lat="49.21211" lon="6.88316">
        <ele>291.2</ele>
        <time>2014-04-13T11:33:07Z</time>
      </trkpt>
      <trkpt lat="49.21211" lon="6.88307">
        <ele>290.7</ele>
        <time>2014-04-13T11:33:12Z</time>
      </trkpt>
      <trkpt lat="49.21212" lon="6.88299">
        <ele>291.4</ele>
        <time>2014-04-13T11:33:17Z</time>
      </trkpt>
      <trkpt lat="49.21214" lon="6.8829">
        <ele>290.4</ele>
        <time>2014-04-13T11:33:22Z</time>
      </trkpt>
      <trkpt lat="49.21216" lon="6.88281">
        <ele>291.4</ele>
        <time>2014-04-13T11:33:27Z</time>
      </trkpt>
      <trkpt lat="49.21219" lon="6.88263">
        <ele>293.6</ele>
        <time>2014-04-13T11:33:37Z</time>
      </trkpt>
      <trkpt lat="49.21221" lon="6.88253">
        <ele>292.9</ele>
        <time>2014-04-13T11:33:42Z</time>
      </trkpt>
      <trkpt lat="49.21222" lon="6.88243">
        <ele>292</ele>
        <time>2014-04-13T11:33:47Z</time>
      </trkpt>
      <trkpt lat="49.21222" lon="6.88234">
        <ele>291.6</ele>
        <time>2014-04-13T11:33:52Z</time>
      </trkpt>
      <trkpt lat="49.21221" lon="6.88225">
        <ele>292.1</ele>
        <time>2014-04-13T11:33:57Z</time>
      </trkpt>
      <trkpt lat="49.21221" lon="6.88215">
        <ele>291.3</ele>
        <time>2014-04-13T11:34:02Z</time>
      </trkpt>
      <trkpt lat="49.21218" lon="6.88206">
        <ele>290.9</ele>
        <time>2014-04-13T11:34:07Z</time>
      </trkpt>
      <trkpt lat="49.21219" lon="6.88197">
        <ele>290.7</ele>
        <time>2014-04-13T11:34:12Z</time>
      </trkpt>
      <trkpt lat="49.21217" lon="6.88185">
        <ele>290.3</ele>
        <time>2014-04-13T11:34:17Z</time>
      </trkpt>
      <trkpt lat="49.21213" lon="6.88174">
        <ele>289.7</ele>
        <time>2014-04-13T11:34:22Z</time>
      </trkpt>
      <trkpt lat="49.21209" lon="6.88163">
        <ele>289.5</ele>
        <time>2014-04-13T11:34:27Z</time>
      </trkpt>
      <trkpt lat="49.21206" lon="6.88153">
        <ele>289.2</ele>
        <time>2014-04-13T11:34:32Z</time>
      </trkpt>
      <trkpt lat="49.21196" lon="6.88135">
        <ele>289</ele>
        <time>2014-04-13T11:34:42Z</time>
      </trkpt>
      <trkpt lat="49.21191" lon="6.88134">
        <ele>288.6</ele>
        <time>2014-04-13T11:34:47Z</time>
      </trkpt>
      <trkpt lat="49.21186" lon="6.88133">
        <ele>287.4</ele>
        <time>2014-04-13T11:34:52Z</time>
      </trkpt>
      <trkpt lat="49.21181" lon="6.88131">
        <ele>286</ele>
        <time>2014-04-13T11:34:57Z</time>
      </trkpt>
      <trkpt lat="49.21175" lon="6.88128">
        <ele>284.3</ele>
        <time>2014-04-13T11:35:02Z</time>
      </trkpt>
      <trkpt lat="49.21169" lon="6.88126">
        <ele>283</ele>
        <time>2014-04-13T11:35:07Z</time>
      </trkpt>
      <trkpt lat="49.21165" lon="6.88124">
        <ele>280.7</ele>
        <time>2014-04-13T11:35:12Z</time>
      </trkpt>
      <trkpt lat="49.21159" lon="6.88122">
        <ele>280.2</ele>
        <time>2014-04-13T11:35:17Z</time>
      </trkpt>
      <trkpt lat="49.21154" lon="6.88119">
        <ele>279.7</ele>
        <time>2014-04-13T11:35:22Z</time>
      </trkpt>
      <trkpt lat="49.21148" lon="6.88117">
        <ele>278.2</ele>
        <time>2014-04-13T11:35:27Z</time>
      </trkpt>
      <trkpt lat="49.21142" lon="6.88115">
        <ele>276.7</ele>
        <time>2014-04-13T11:35:32Z</time>
      </trkpt>
      <trkpt lat="49.21136" lon="6.8811">
        <ele>276.1</ele>
        <time>2014-04-13T11:35:37Z</time>
      </trkpt>
      <trkpt lat="49.21123" lon="6.88102">
        <ele>274.4</ele>
        <time>2014-04-13T11:35:47Z</time>
      </trkpt>
      <trkpt lat="49.21117" lon="6.88098">
        <ele>274.8</ele>
        <time>2014-04-13T11:35:52Z</time>
      </trkpt>
      <trkpt lat="49.21112" lon="6.88092">
        <ele>274.8</ele>
        <time>2014-04-13T11:35:57Z</time>
      </trkpt>
      <trkpt lat="49.21106" lon="6.88087">
        <ele>273.8</ele>
        <time>2014-04-13T11:36:02Z</time>
      </trkpt>
      <trkpt lat="49.211" lon="6.88083">
        <ele>273.3</ele>
        <time>2014-04-13T11:36:07Z</time>
      </trkpt>
      <trkpt lat="49.21094" lon="6.8808">
        <ele>272.7</ele>
        <time>2014-04-13T11:36:12Z</time>
      </trkpt>
      <trkpt lat="49.2109" lon="6.88075">
        <ele>272.7</ele>
        <time>2014-04-13T11:36:17Z</time>
      </trkpt>
      <trkpt lat="49.21086" lon="6.88068">
        <ele>272.3</ele>
        <time>2014-04-13T11:36:22Z</time>
      </trkpt>
      <trkpt lat="49.21082" lon="6.8806">
        <ele>271.5</ele>
        <time>2014-04-13T11:36:27Z</time>
      </trkpt>
      <trkpt lat="49.21079" lon="6.88053">
        <ele>271.9</ele>
        <time>2014-04-13T11:36:32Z</time>
      </trkpt>
      <trkpt lat="49.21075" lon="6.88046">
        <ele>271.8</ele>
        <time>2014-04-13T11:36:37Z</time>
      </trkpt>
      <trkpt lat="49.21072" lon="6.88038">
        <ele>272.6</ele>
        <time>2014-04-13T11:36:42Z</time>
      </trkpt>
      <trkpt lat="49.21064" lon="6.88021">
        <ele>275.3</ele>
        <time>2014-04-13T11:36:52Z</time>
      </trkpt>
      <trkpt lat="49.2106" lon="6.88011">
        <ele>275.4</ele>
        <time>2014-04-13T11:36:57Z</time>
      </trkpt>
      <trkpt lat="49.21056" lon="6.88001">
        <ele>275.6</ele>
        <time>2014-04-13T11:37:02Z</time>
      </trkpt>
      <trkpt lat="49.21053" lon="6.87992">
        <ele>275.8</ele>
        <time>2014-04-13T11:37:07Z</time>
      </trkpt>
      <trkpt lat="49.21049" lon="6.87984">
        <ele>275.7</ele>
        <time>2014-04-13T11:37:12Z</time>
      </trkpt>
      <trkpt lat="49.21046" lon="6.87976">
        <ele>276.6</ele>
        <time>2014-04-13T11:37:17Z</time>
      </trkpt>
      <trkpt lat="49.21042" lon="6.87968">
        <ele>276.2</ele>
        <time>2014-04-13T11:37:22Z</time>
      </trkpt>
      <trkpt lat="49.21039" lon="6.8796">
        <ele>276.6</ele>
        <time>2014-04-13T11:37:27Z</time>
      </trkpt>
      <trkpt lat="49.21036" lon="6.87951">
        <ele>276.8</ele>
        <time>2014-04-13T11:37:32Z</time>
      </trkpt>
      <trkpt lat="49.21032" lon="6.87943">
        <ele>277.9</ele>
        <time>2014-04-13T11:37:37Z</time>
      </trkpt>
      <trkpt lat="49.21028" lon="6.87936">
        <ele>277.8</ele>
        <time>2014-04-13T11:37:42Z</time>
      </trkpt>
      <trkpt lat="49.21025" lon="6.87928">
        <ele>277.4</ele>
        <time>2014-04-13T11:37:47Z</time>
      </trkpt>
      <trkpt lat="49.21016" lon="6.87915">
        <ele>277.4</ele>
        <time>2014-04-13T11:37:57Z</time>
      </trkpt>
      <trkpt lat="49.21011" lon="6.87909">
        <ele>278</ele>
        <time>2014-04-13T11:38:02Z</time>
      </trkpt>
      <trkpt lat="49.21006" lon="6.87905">
        <ele>279.6</ele>
        <time>2014-04-13T11:38:07Z</time>
      </trkpt>
      <trkpt lat="49.21" lon="6.87899">
        <ele>280.1</ele>
        <time>2014-04-13T11:38:12Z</time>
      </trkpt>
      <trkpt lat="49.20995" lon="6.87894">
        <ele>280.4</ele>
        <time>2014-04-13T11:38:17Z</time>
      </trkpt>
      <trkpt lat="49.2099" lon="6.87888">
        <ele>279.9</ele>
        <time>2014-04-13T11:38:22Z</time>
      </trkpt>
      <trkpt lat="49.20986" lon="6.87883">
        <ele>280</ele>
        <time>2014-04-13T11:38:27Z</time>
      </trkpt>
      <trkpt lat="49.20981" lon="6.87876">
        <ele>279.9</ele>
        <time>2014-04-13T11:38:32Z</time>
      </trkpt>
      <trkpt lat="49.20976" lon="6.87869">
        <ele>280</ele>
        <time>2014-04-13T11:38:37Z</time>
      </trkpt>
      <trkpt lat="49.20971" lon="6.8786">
        <ele>279.7</ele>
        <time>2014-04-13T11:38:42Z</time>
      </trkpt>
      <trkpt lat="49.20967" lon="6.87853">
        <ele>279.7</ele>
        <time>2014-04-13T11:38:47Z</time>
      </trkpt>
      <trkpt lat="49.20962" lon="6.87844">
        <ele>280.7</ele>
        <time>2014-04-13T11:38:52Z</time>
      </trkpt>
      <trkpt lat="49.20954" lon="6.87828">
        <ele>280.8</ele>
        <time>2014-04-13T11:39:02Z</time>
      </trkpt>
      <trkpt lat="49.2095" lon="6.87821">
        <ele>280.5</ele>
        <time>2014-04-13T11:39:07Z</time>
      </trkpt>
      <trkpt lat="49.20946" lon="6.87814">
        <ele>280</ele>
        <time>2014-04-13T11:39:12Z</time>
      </trkpt>
      <trkpt lat="49.20941" lon="6.87808">
        <ele>280.2</ele>
        <time>2014-04-13T11:39:17Z</time>
      </trkpt>
      <trkpt lat="49.20937" lon="6.878">
        <ele>280.5</ele>
        <time>2014-04-13T11:39:22Z</time>
      </trkpt>
      <trkpt lat="49.20932" lon="6.87794">
        <ele>280.1</ele>
        <time>2014-04-13T11:39:27Z</time>
      </trkpt>
      <trkpt lat="49.20926" lon="6.87788">
        <ele>279.4</ele>
        <time>2014-04-13T11:39:32Z</time>
      </trkpt>
      <trkpt lat="49.20921" lon="6.87781">
        <ele>280.3</ele>
        <time>2014-04-13T11:39:37Z</time>
      </trkpt>
      <trkpt lat="49.20916" lon="6.87775">
        <ele>280.2</ele>
        <time>2014-04-13T11:39:42Z</time>
      </trkpt>
      <trkpt lat="49.20911" lon="6.87769">
        <ele>280.3</ele>
        <time>2014-04-13T11:39:47Z</time>
      </trkpt>
      <trkpt lat="49.20906" lon="6.87762">
        <ele>280.7</ele>
        <time>2014-04-13T11:39:52Z</time>
      </trkpt>
      <trkpt lat="49.20901" lon="6.87756">
        <ele>280.2</ele>
        <time>2014-04-13T11:39:57Z</time>
      </trkpt>
      <trkpt lat="49.20889" lon="6.87745">
        <ele>280.3</ele>
        <time>2014-04-13T11:40:07Z</time>
      </trkpt>
      <trkpt lat="49.20883" lon="6.87738">
        <ele>280.4</ele>
        <time>2014-04-13T11:40:12Z</time>
      </trkpt>
      <trkpt lat="49.20876" lon="6.87733">
        <ele>280.6</ele>
        <time>2014-04-13T11:40:17Z</time>
      </trkpt>
      <trkpt lat="49.2087" lon="6.87729">
        <ele>280.2</ele>
        <time>2014-04-13T11:40:22Z</time>
      </trkpt>
      <trkpt lat="49.20863" lon="6.87725">
        <ele>278.6</ele>
        <time>2014-04-13T11:40:27Z</time>
      </trkpt>
      <trkpt lat="49.20857" lon="6.87721">
        <ele>279.3</ele>
        <time>2014-04-13T11:40:32Z</time>
      </trkpt>
      <trkpt lat="49.20852" lon="6.87718">
        <ele>279.1</ele>
        <time>2014-04-13T11:40:37Z</time>
      </trkpt>
      <trkpt lat="49.20845" lon="6.87715">
        <ele>279.1</ele>
        <time>2014-04-13T11:40:42Z</time>
      </trkpt>
      <trkpt lat="49.20838" lon="6.87712">
        <ele>279.6</ele>
        <time>2014-04-13T11:40:47Z</time>
      </trkpt>
      <trkpt lat="49.20832" lon="6.87709">
        <ele>279.1</ele>
        <time>2014-04-13T11:40:52Z</time>
      </trkpt>
      <trkpt lat="49.20826" lon="6.87705">
        <ele>279</ele>
        <time>2014-04-13T11:40:57Z</time>
      </trkpt>
      <trkpt lat="49.20819" lon="6.877">
        <ele>278.7</ele>
        <time>2014-04-13T11:41:02Z</time>
      </trkpt>
      <trkpt lat="49.20807" lon="6.87689">
        <ele>279.5</ele>
        <time>2014-04-13T11:41:12Z</time>
      </trkpt>
      <trkpt lat="49.20804" lon="6.87685">
        <ele>278.5</ele>
        <time>2014-04-13T11:41:17Z</time>
      </trkpt>
      <trkpt lat="49.20803" lon="6.87679">
        <ele>278</ele>
        <time>2014-04-13T11:41:22Z</time>
      </trkpt>
      <trkpt lat="49.20801" lon="6.87672">
        <ele>276.9</ele>
        <time>2014-04-13T11:41:27Z</time>
      </trkpt>
      <trkpt lat="49.20799" lon="6.87665">
        <ele>276.5</ele>
        <time>2014-04-13T11:41:32Z</time>
      </trkpt>
      <trkpt lat="49.20797" lon="6.87657">
        <ele>275.4</ele>
        <time>2014-04-13T11:41:37Z</time>
      </trkpt>
      <trkpt lat="49.20794" lon="6.87648">
        <ele>274</ele>
        <time>2014-04-13T11:41:42Z</time>
      </trkpt>
      <trkpt lat="49.20792" lon="6.87638">
        <ele>272.2</ele>
        <time>2014-04-13T11:41:47Z</time>
      </trkpt>
      <trkpt lat="49.2079" lon="6.87628">
        <ele>271.4</ele>
        <time>2014-04-13T11:41:52Z</time>
      </trkpt>
      <trkpt lat="49.20789" lon="6.87618">
        <ele>270.4</ele>
        <time>2014-04-13T11:41:57Z</time>
      </trkpt>
      <trkpt lat="49.20787" lon="6.87608">
        <ele>269.8</ele>
        <time>2014-04-13T11:42:02Z</time>
      </trkpt>
      <trkpt lat="49.20785" lon="6.87598">
        <ele>269.3</ele>
        <time>2014-04-13T11:42:07Z</time>
      </trkpt>
      <trkpt lat="49.20781" lon="6.87577">
        <ele>267.2</ele>
        <time>2014-04-13T11:42:17Z</time>
      </trkpt>
      <trkpt lat="49.20779" lon="6.87566">
        <ele>266.8</ele>
        <time>2014-04-13T11:42:22Z</time>
      </trkpt>
      <trkpt lat="49.20778" lon="6.87555">
        <ele>265.1</ele>
        <time>2014-04-13T11:42:27Z</time>
      </trkpt>
      <trkpt lat="49.20776" lon="6.87546">
        <ele>264.4</ele>
        <time>2014-04-13T11:42:32Z</time>
      </trkpt>
      <trkpt lat="49.20775" lon="6.87534">
        <ele>263.2</ele>
        <time>2014-04-13T11:42:37Z</time>
      </trkpt>
      <trkpt lat="49.20773" lon="6.87524">
        <ele>263.5</ele>
        <time>2014-04-13T11:42:42Z</time>
      </trkpt>
      <trkpt lat="49.20772" lon="6.87513">
        <ele>262.1</ele>
        <time>2014-04-13T11:42:47Z</time>
      </trkpt>
      <trkpt lat="49.2077" lon="6.87502">
        <ele>261.2</ele>
        <time>2014-04-13T11:42:52Z</time>
      </trkpt>
      <trkpt lat="49.20769" lon="6.87491">
        <ele>260</ele>
        <time>2014-04-13T11:42:57Z</time>
      </trkpt>
      <trkpt lat="49.20768" lon="6.87481">
        <ele>259.9</ele>
        <time>2014-04-13T11:43:02Z</time>
      </trkpt>
      <trkpt lat="49.20767" lon="6.8747">
        <ele>258.2</ele>
        <time>2014-04-13T11:43:07Z</time>
      </trkpt>
      <trkpt lat="49.20767" lon="6.87459">
        <ele>259.2</ele>
        <time>2014-04-13T11:43:12Z</time>
      </trkpt>
      <trkpt lat="49.20764" lon="6.87437">
        <ele>260.2</ele>
        <time>2014-04-13T11:43:22Z</time>
      </trkpt>
      <trkpt lat="49.20763" lon="6.87427">
        <ele>260.6</ele>
        <time>2014-04-13T11:43:27Z</time>
      </trkpt>
      <trkpt lat="49.20762" lon="6.87416">
        <ele>260.5</ele>
        <time>2014-04-13T11:43:32Z</time>
      </trkpt>
      <trkpt lat="49.20761" lon="6.87406">
        <ele>260.3</ele>
        <time>2014-04-13T11:43:37Z</time>
      </trkpt>
      <trkpt lat="49.20761" lon="6.87395">
        <ele>261</ele>
        <time>2014-04-13T11:43:42Z</time>
      </trkpt>
      <trkpt lat="49.20762" lon="6.87385">
        <ele>261.1</ele>
        <time>2014-04-13T11:43:47Z</time>
      </trkpt>
      <trkpt lat="49.20764" lon="6.87375">
        <ele>260.9</ele>
        <time>2014-04-13T11:43:52Z</time>
      </trkpt>
      <trkpt lat="49.20767" lon="6.87363">
        <ele>262.6</ele>
        <time>2014-04-13T11:43:57Z</time>
      </trkpt>
      <trkpt lat="49.20766" lon="6.87351">
        <ele>262.9</ele>
        <time>2014-04-13T11:44:02Z</time>
      </trkpt>
      <trkpt lat="49.20764" lon="6.87339">
        <ele>263.4</ele>
        <time>2014-04-13T11:44:07Z</time>
      </trkpt>
      <trkpt lat="49.20761" lon="6.87327">
        <ele>264</ele>
        <time>2014-04-13T11:44:12Z</time>
      </trkpt>
      <trkpt lat="49.20758" lon="6.87316">
        <ele>264.6</ele>
        <time>2014-04-13T11:44:17Z</time>
      </trkpt>
      <trkpt lat="49.20749" lon="6.87298">
        <ele>263</ele>
        <time>2014-04-13T11:44:27Z</time>
      </trkpt>
      <trkpt lat="49.20745" lon="6.87291">
        <ele>263.1</ele>
        <time>2014-04-13T11:44:32Z</time>
      </trkpt>
      <trkpt lat="49.20741" lon="6.87284">
        <ele>262.7</ele>
        <time>2014-04-13T11:44:37Z</time>
      </trkpt>
      <trkpt lat="49.20737" lon="6.87276">
        <ele>263.6</ele>
        <time>2014-04-13T11:44:42Z</time>
      </trkpt>
      <trkpt lat="49.20732" lon="6.87268">
        <ele>263.2</ele>
        <time>2014-04-13T11:44:47Z</time>
      </trkpt>
      <trkpt lat="49.20729" lon="6.87259">
        <ele>262.3</ele>
        <time>2014-04-13T11:44:52Z</time>
      </trkpt>
      <trkpt lat="49.20724" lon="6.87252">
        <ele>262.2</ele>
        <time>2014-04-13T11:44:57Z</time>
      </trkpt>
      <trkpt lat="49.20721" lon="6.87245">
        <ele>262.1</ele>
        <time>2014-04-13T11:45:02Z</time>
      </trkpt>
      <trkpt lat="49.20716" lon="6.87236">
        <ele>261.8</ele>
        <time>2014-04-13T11:45:07Z</time>
      </trkpt>
      <trkpt lat="49.20712" lon="6.87229">
        <ele>262.4</ele>
        <time>2014-04-13T11:45:12Z</time>
      </trkpt>
      <trkpt lat="49.20708" lon="6.87218">
        <ele>261.9</ele>
        <time>2014-04-13T11:45:17Z</time>
      </trkpt>
      <trkpt lat="49.20704" lon="6.87208">
        <ele>262</ele>
        <time>2014-04-13T11:45:22Z</time>
      </trkpt>
      <trkpt lat="49.20695" lon="6.87192">
        <ele>260.8</ele>
        <time>2014-04-13T11:45:32Z</time>
      </trkpt>
      <trkpt lat="49.20692" lon="6.87182">
        <ele>261.1</ele>
        <time>2014-04-13T11:45:37Z</time>
      </trkpt>
      <trkpt lat="49.20688" lon="6.87174">
        <ele>260.7</ele>
        <time>2014-04-13T11:45:42Z</time>
      </trkpt>
      <trkpt lat="49.20683" lon="6.87166">
        <ele>259.8</ele>
        <time>2014-04-13T11:45:47Z</time>
      </trkpt>
      <trkpt lat="49.20679" lon="6.87159">
        <ele>259.4</ele>
        <time>2014-04-13T11:45:52Z</time>
      </trkpt>
      <trkpt lat="49.20675" lon="6.87151">
        <ele>260</ele>
        <time>2014-04-13T11:45:57Z</time>
      </trkpt>
      <trkpt lat="49.20671" lon="6.87143">
        <ele>260.1</ele>
        <time>2014-04-13T11:46:02Z</time>
      </trkpt>
      <trkpt lat="49.20666" lon="6.87134">
        <ele>260.3</ele>
        <time>2014-04-13T11:46:07Z</time>
      </trkpt>
      <trkpt lat="49.20663" lon="6.87127">
        <ele>259.5</ele>
        <time>2014-04-13T11:46:12Z</time>
      </trkpt>
      <trkpt lat="49.20659" lon="6.87119">
        <ele>259.4</ele>
        <time>2014-04-13T11:46:17Z</time>
      </trkpt>
      <trkpt lat="49.20656" lon="6.87109">
        <ele>259.5</ele>
        <time>2014-04-13T11:46:22Z</time>
      </trkpt>
      <trkpt lat="49.20653" lon="6.87101">
        <ele>257.9</ele>
        <time>2014-04-13T11:46:27Z</time>
      </trkpt>
      <trkpt lat="49.20647" lon="6.87083">
        <ele>258</ele>
        <time>2014-04-13T11:46:37Z</time>
      </trkpt>
      <trkpt lat="49.20645" lon="6.87073">
        <ele>258.7</ele>
        <time>2014-04-13T11:46:42Z</time>
      </trkpt>
      <trkpt lat="49.20644" lon="6.87064">
        <ele>258</ele>
        <time>2014-04-13T11:46:47Z</time>
      </trkpt>
      <trkpt lat="49.20642" lon="6.87056">
        <ele>257.3</ele>
        <time>2014-04-13T11:46:52Z</time>
      </trkpt>
      <trkpt lat="49.2064" lon="6.87048">
        <ele>256.6</ele>
        <time>2014-04-13T11:46:57Z</time>
      </trkpt>
      <trkpt lat="49.20639" lon="6.87038">
        <ele>256.5</ele>
        <time>2014-04-13T11:47:02Z</time>
      </trkpt>
      <trkpt lat="49.20637" lon="6.87028">
        <ele>256.1</ele>
        <time>2014-04-13T11:47:07Z</time>
      </trkpt>
      <trkpt lat="49.20635" lon="6.87018">
        <ele>256.4</ele>
        <time>2014-04-13T11:47:12Z</time>
      </trkpt>
      <trkpt lat="49.20633" lon="6.87009">
        <ele>256.6</ele>
        <time>2014-04-13T11:47:17Z</time>
      </trkpt>
      <trkpt lat="49.20632" lon="6.86998">
        <ele>256.1</ele>
        <time>2014-04-13T11:47:22Z</time>
      </trkpt>
      <trkpt lat="49.2063" lon="6.86987">
        <ele>257.4</ele>
        <time>2014-04-13T11:47:27Z</time>
      </trkpt>
      <trkpt lat="49.20628" lon="6.86976">
        <ele>256.9</ele>
        <time>2014-04-13T11:47:32Z</time>
      </trkpt>
      <trkpt lat="49.20627" lon="6.86955">
        <ele>256.6</ele>
        <time>2014-04-13T11:47:42Z</time>
      </trkpt>
      <trkpt lat="49.20627" lon="6.86945">
        <ele>256.6</ele>
        <time>2014-04-13T11:47:47Z</time>
      </trkpt>
      <trkpt lat="49.20627" lon="6.86934">
        <ele>256.2</ele>
        <time>2014-04-13T11:47:52Z</time>
      </trkpt>
      <trkpt lat="49.20626" lon="6.86923">
        <ele>256.3</ele>
        <time>2014-04-13T11:47:57Z</time>
      </trkpt>
      <trkpt lat="49.20626" lon="6.86913">
        <ele>255.9</ele>
        <time>2014-04-13T11:48:02Z</time>
      </trkpt>
      <trkpt lat="49.20627" lon="6.86905">
        <ele>255.5</ele>
        <time>2014-04-13T11:48:07Z</time>
      </trkpt>
      <trkpt lat="49.20626" lon="6.86896">
        <ele>254.9</ele>
        <time>2014-04-13T11:48:12Z</time>
      </trkpt>
      <trkpt lat="49.20626" lon="6.8689">
        <ele>254.5</ele>
        <time>2014-04-13T11:48:17Z</time>
      </trkpt>
      <trkpt lat="49.20624" lon="6.86886">
        <ele>254.5</ele>
        <time>2014-04-13T11:48:22Z</time>
      </trkpt>
      <trkpt lat="49.20624" lon="6.86883">
        <ele>254.8</ele>
        <time>2014-04-13T11:48:27Z</time>
      </trkpt>
      <trkpt lat="49.20623" lon="6.86881">
        <ele>254.8</ele>
        <time>2014-04-13T11:48:32Z</time>
      </trkpt>
      <trkpt lat="49.20621" lon="6.86881">
        <ele>255.3</ele>
        <time>2014-04-13T11:48:37Z</time>
      </trkpt>
      <trkpt lat="49.20616" lon="6.86885">
        <ele>255.7</ele>
        <time>2014-04-13T11:48:47Z</time>
      </trkpt>
      <trkpt lat="49.20612" lon="6.86888">
        <ele>255.7</ele>
        <time>2014-04-13T11:48:52Z</time>
      </trkpt>
      <trkpt lat="49.20609" lon="6.86892">
        <ele>255.3</ele>
        <time>2014-04-13T11:48:57Z</time>
      </trkpt>
      <trkpt lat="49.20607" lon="6.86894">
        <ele>255.4</ele>
        <time>2014-04-13T11:49:02Z</time>
      </trkpt>
      <trkpt lat="49.20604" lon="6.86896">
        <ele>256</ele>
        <time>2014-04-13T11:49:07Z</time>
      </trkpt>
      <trkpt lat="49.20602" lon="6.869">
        <ele>255.8</ele>
        <time>2014-04-13T11:49:12Z</time>
      </trkpt>
      <trkpt lat="49.20599" lon="6.86904">
        <ele>255.1</ele>
        <time>2014-04-13T11:49:17Z</time>
      </trkpt>
      <trkpt lat="49.20596" lon="6.86908">
        <ele>254.6</ele>
        <time>2014-04-13T11:49:22Z</time>
      </trkpt>
      <trkpt lat="49.20595" lon="6.86911">
        <ele>254.5</ele>
        <time>2014-04-13T11:49:27Z</time>
      </trkpt>
      <trkpt lat="49.20594" lon="6.86913">
        <ele>255.7</ele>
        <time>2014-04-13T11:49:32Z</time>
      </trkpt>
      <trkpt lat="49.20595" lon="6.86916">
        <ele>255.6</ele>
        <time>2014-04-13T11:49:37Z</time>
      </trkpt>
      <trkpt lat="49.20596" lon="6.86923">
        <ele>255.6</ele>
        <time>2014-04-13T11:49:42Z</time>
      </trkpt>
      <trkpt lat="49.20598" lon="6.86916">
        <ele>254.8</ele>
        <time>2014-04-13T11:49:52Z</time>
      </trkpt>
      <trkpt lat="49.20599" lon="6.8691">
        <ele>255</ele>
        <time>2014-04-13T11:49:57Z</time>
      </trkpt>
      <trkpt lat="49.20599" lon="6.86904">
        <ele>255</ele>
        <time>2014-04-13T11:50:02Z</time>
      </trkpt>
      <trkpt lat="49.20598" lon="6.86899">
        <ele>253.8</ele>
        <time>2014-04-13T11:50:07Z</time>
      </trkpt>
      <trkpt lat="49.20599" lon="6.86896">
        <ele>254</ele>
        <time>2014-04-13T11:50:12Z</time>
      </trkpt>
      <trkpt lat="49.206" lon="6.86894">
        <ele>254.2</ele>
        <time>2014-04-13T11:50:17Z</time>
      </trkpt>
      <trkpt lat="49.20601" lon="6.86891">
        <ele>254.6</ele>
        <time>2014-04-13T11:50:22Z</time>
      </trkpt>
      <trkpt lat="49.20602" lon="6.86889">
        <ele>255.1</ele>
        <time>2014-04-13T11:50:27Z</time>
      </trkpt>
      <trkpt lat="49.20602" lon="6.86893">
        <ele>254.9</ele>
        <time>2014-04-13T11:50:32Z</time>
      </trkpt>
      <trkpt lat="49.20601" lon="6.86898">
        <ele>254.7</ele>
        <time>2014-04-13T11:50:37Z</time>
      </trkpt>
      <trkpt lat="49.20601" lon="6.86899">
        <ele>254.8</ele>
        <time>2014-04-13T11:50:42Z</time>
      </trkpt>
      <trkpt lat="49.20601" lon="6.86898">
        <ele>255.7</ele>
        <time>2014-04-13T11:50:47Z</time>
      </trkpt>
      <trkpt lat="49.20602" lon="6.86893">
        <ele>254.9</ele>
        <time>2014-04-13T11:50:57Z</time>
      </trkpt>
      <trkpt lat="49.20603" lon="6.86892">
        <ele>254.7</ele>
        <time>2014-04-13T11:51:02Z</time>
      </trkpt>
      <trkpt lat="49.20604" lon="6.86891">
        <ele>254.9</ele>
        <time>2014-04-13T11:51:07Z</time>
      </trkpt>
      <trkpt lat="49.20605" lon="6.86892">
        <ele>255.5</ele>
        <time>2014-04-13T11:51:12Z</time>
      </trkpt>
      <trkpt lat="49.20605" lon="6.86893">
        <ele>255</ele>
        <time>2014-04-13T11:51:17Z</time>
      </trkpt>
      <trkpt lat="49.20602" lon="6.869">
        <ele>254.5</ele>
        <time>2014-04-13T11:51:22Z</time>
      </trkpt>
      <trkpt lat="49.20602" lon="6.86901">
        <ele>254.6</ele>
        <time>2014-04-13T11:51:27Z</time>
      </trkpt>
      <trkpt lat="49.20601" lon="6.86898">
        <ele>254.5</ele>
        <time>2014-04-13T11:51:32Z</time>
      </trkpt>
      <trkpt lat="49.20601" lon="6.86894">
        <ele>255.6</ele>
        <time>2014-04-13T11:51:37Z</time>
      </trkpt>
      <trkpt lat="49.20602" lon="6.86891">
        <ele>254.7</ele>
        <time>2014-04-13T11:51:42Z</time>
      </trkpt>
      <trkpt lat="49.20602" lon="6.86887">
        <ele>255.1</ele>
        <time>2014-04-13T11:51:47Z</time>
      </trkpt>
      <trkpt lat="49.20601" lon="6.86883">
        <ele>254.4</ele>
        <time>2014-04-13T11:51:52Z</time>
      </trkpt>
      <trkpt lat="49.20601" lon="6.86879">
        <ele>255.2</ele>
        <time>2014-04-13T11:52:02Z</time>
      </trkpt>
      <trkpt lat="49.20601" lon="6.86877">
        <ele>255.9</ele>
        <time>2014-04-13T11:52:07Z</time>
      </trkpt>
      <trkpt lat="49.20602" lon="6.86875">
        <ele>256.9</ele>
        <time>2014-04-13T11:52:12Z</time>
      </trkpt>
      <trkpt lat="49.20604" lon="6.86873">
        <ele>255.9</ele>
        <time>2014-04-13T11:52:17Z</time>
      </trkpt>
      <trkpt lat="49.20605" lon="6.86871">
        <ele>255.5</ele>
        <time>2014-04-13T11:52:22Z</time>
      </trkpt>
      <trkpt lat="49.20606" lon="6.86871">
        <ele>255.2</ele>
        <time>2014-04-13T11:52:27Z</time>
      </trkpt>
      <trkpt lat="49.20607" lon="6.8687">
        <ele>254.7</ele>
        <time>2014-04-13T11:52:32Z</time>
      </trkpt>
      <trkpt lat="49.20608" lon="6.8687">
        <ele>254.7</ele>
        <time>2014-04-13T11:52:37Z</time>
      </trkpt>
      <trkpt lat="49.2061" lon="6.8687">
        <ele>255.3</ele>
        <time>2014-04-13T11:52:42Z</time>
      </trkpt>
      <trkpt lat="49.20611" lon="6.86872">
        <ele>255.5</ele>
        <time>2014-04-13T11:52:47Z</time>
      </trkpt>
      <trkpt lat="49.20612" lon="6.86873">
        <ele>255.5</ele>
        <time>2014-04-13T11:52:52Z</time>
      </trkpt>
      <trkpt lat="49.20612" lon="6.86874">
        <ele>255.6</ele>
        <time>2014-04-13T11:52:57Z</time>
      </trkpt>
      <trkpt lat="49.20615" lon="6.86878">
        <ele>255</ele>
        <time>2014-04-13T11:53:07Z</time>
      </trkpt>
      <trkpt lat="49.20615" lon="6.86878">
        <ele>254.8</ele>
        <time>2014-04-13T11:53:12Z</time>
      </trkpt>
      <trkpt lat="49.20615" lon="6.86879">
        <ele>255.1</ele>
        <time>2014-04-13T11:53:17Z</time>
      </trkpt>
      <trkpt lat="49.20616" lon="6.86882">
        <ele>254.9</ele>
        <time>2014-04-13T11:53:22Z</time>
      </trkpt>
      <trkpt lat="49.20615" lon="6.86882">
        <ele>255.8</ele>
        <time>2014-04-13T11:53:27Z</time>
      </trkpt>
      <trkpt lat="49.20616" lon="6.86889">
        <ele>255.6</ele>
        <time>2014-04-13T11:53:32Z</time>
      </trkpt>
      <trkpt lat="49.20617" lon="6.86891">
        <ele>255.7</ele>
        <time>2014-04-13T11:53:37Z</time>
      </trkpt>
      <trkpt lat="49.20617" lon="6.86892">
        <ele>255.2</ele>
        <time>2014-04-13T11:53:42Z</time>
      </trkpt>
      <trkpt lat="49.20616" lon="6.86892">
        <ele>254.8</ele>
        <time>2014-04-13T11:53:47Z</time>
      </trkpt>
      <trkpt lat="49.20616" lon="6.86893">
        <ele>255.7</ele>
        <time>2014-04-13T11:53:52Z</time>
      </trkpt>
      <trkpt lat="49.20615" lon="6.86894">
        <ele>254.8</ele>
        <time>2014-04-13T11:53:57Z</time>
      </trkpt>
      <trkpt lat="49.20614" lon="6.86894">
        <ele>255</ele>
        <time>2014-04-13T11:54:02Z</time>
      </trkpt>
      <trkpt lat="49.20617" lon="6.86891">
        <ele>256.4</ele>
        <time>2014-04-13T11:54:12Z</time>
      </trkpt>
      <trkpt lat="49.20617" lon="6.86891">
        <ele>255</ele>
        <time>2014-04-13T11:54:17Z</time>
      </trkpt>
      <trkpt lat="49.20617" lon="6.86891">
        <ele>255.2</ele>
        <time>2014-04-13T11:54:22Z</time>
      </trkpt>
      <trkpt lat="49.20615" lon="6.86894">
        <ele>255.5</ele>
        <time>2014-04-13T11:54:27Z</time>
      </trkpt>
      <trkpt lat="49.20612" lon="6.86896">
        <ele>255.2</ele>
        <time>2014-04-13T11:54:32Z</time>
      </trkpt>
      <trkpt lat="49.20611" lon="6.86894">
        <ele>255.4</ele>
        <time>2014-04-13T11:54:37Z</time>
      </trkpt>
      <trkpt lat="49.20611" lon="6.86894">
        <ele>255</ele>
        <time>2014-04-13T11:54:42Z</time>
      </trkpt>
      <trkpt lat="49.20611" lon="6.86893">
        <ele>255.3</ele>
        <time>2014-04-13T11:54:47Z</time>
      </trkpt>
      <trkpt lat="49.20611" lon="6.86892">
        <ele>255.8</ele>
        <time>2014-04-13T11:54:52Z</time>
      </trkpt>
      <trkpt lat="49.2061" lon="6.86891">
        <ele>255.2</ele>
        <time>2014-04-13T11:54:57Z</time>
      </trkpt>
      <trkpt lat="49.20611" lon="6.86889">
        <ele>255.6</ele>
        <time>2014-04-13T11:55:02Z</time>
      </trkpt>
      <trkpt lat="49.20613" lon="6.86885">
        <ele>254.7</ele>
        <time>2014-04-13T11:55:07Z</time>
      </trkpt>
      <trkpt lat="49.20617" lon="6.86883">
        <ele>254.5</ele>
        <time>2014-04-13T11:55:17Z</time>
      </trkpt>
      <trkpt lat="49.20617" lon="6.8688">
        <ele>253.6</ele>
        <time>2014-04-13T11:55:22Z</time>
      </trkpt>
      <trkpt lat="49.20617" lon="6.86877">
        <ele>254.1</ele>
        <time>2014-04-13T11:55:27Z</time>
      </trkpt>
      <trkpt lat="49.20616" lon="6.86874">
        <ele>254.9</ele>
        <time>2014-04-13T11:55:32Z</time>
      </trkpt>
      <trkpt lat="49.20616" lon="6.8687">
        <ele>254.2</ele>
        <time>2014-04-13T11:55:37Z</time>
      </trkpt>
      <trkpt lat="49.20616" lon="6.86869">
        <ele>255.2</ele>
        <time>2014-04-13T11:55:42Z</time>
      </trkpt>
      <trkpt lat="49.20616" lon="6.8687">
        <ele>255.2</ele>
        <time>2014-04-13T11:55:47Z</time>
      </trkpt>
      <trkpt lat="49.20617" lon="6.8687">
        <ele>254.7</ele>
        <time>2014-04-13T11:55:52Z</time>
      </trkpt>
      <trkpt lat="49.20619" lon="6.8687">
        <ele>254.7</ele>
        <time>2014-04-13T11:55:57Z</time>
      </trkpt>
      <trkpt lat="49.2062" lon="6.86869">
        <ele>255.7</ele>
        <time>2014-04-13T11:56:02Z</time>
      </trkpt>
      <trkpt lat="49.20621" lon="6.86868">
        <ele>255.9</ele>
        <time>2014-04-13T11:56:07Z</time>
      </trkpt>
      <trkpt lat="49.20623" lon="6.86868">
        <ele>256.1</ele>
        <time>2014-04-13T11:56:12Z</time>
      </trkpt>
      <trkpt lat="49.20623" lon="6.86869">
        <ele>255.2</ele>
        <time>2014-04-13T11:56:22Z</time>
      </trkpt>
      <trkpt lat="49.20623" lon="6.8687">
        <ele>254.9</ele>
        <time>2014-04-13T11:56:27Z</time>
      </trkpt>
      <trkpt lat="49.20622" lon="6.8687">
        <ele>254.9</ele>
        <time>2014-04-13T11:56:32Z</time>
      </trkpt>
      <trkpt lat="49.2062" lon="6.86871">
        <ele>254.2</ele>
        <time>2014-04-13T11:56:37Z</time>
      </trkpt>
      <trkpt lat="49.20619" lon="6.86871">
        <ele>255.5</ele>
        <time>2014-04-13T11:56:42Z</time>
      </trkpt>
      <trkpt lat="49.20618" lon="6.86871">
        <ele>255.4</ele>
        <time>2014-04-13T11:56:47Z</time>
      </trkpt>
      <trkpt lat="49.20618" lon="6.86871">
        <ele>255.2</ele>
        <time>2014-04-13T11:56:52Z</time>
      </trkpt>
      <trkpt lat="49.20618" lon="6.8687">
        <ele>254.7</ele>
        <time>2014-04-13T11:56:57Z</time>
      </trkpt>
      <trkpt lat="49.20618" lon="6.86867">
        <ele>254.9</ele>
        <time>2014-04-13T11:57:02Z</time>
      </trkpt>
      <trkpt lat="49.20619" lon="6.86865">
        <ele>254.1</ele>
        <time>2014-04-13T11:57:07Z</time>
      </trkpt>
      <trkpt lat="49.20619" lon="6.86863">
        <ele>254.8</ele>
        <time>2014-04-13T11:57:12Z</time>
      </trkpt>
      <trkpt lat="49.20619" lon="6.86864">
        <ele>254.8</ele>
        <time>2014-04-13T11:57:17Z</time>
      </trkpt>
      <trkpt lat="49.20618" lon="6.86865">
        <ele>254.9</ele>
        <time>2014-04-13T11:57:27Z</time>
      </trkpt>
      <trkpt lat="49.20617" lon="6.86866">
        <ele>254.8</ele>
        <time>2014-04-13T11:57:32Z</time>
      </trkpt>
      <trkpt lat="49.20617" lon="6.86868">
        <ele>254.5</ele>
        <time>2014-04-13T11:57:37Z</time>
      </trkpt>
      <trkpt lat="49.20616" lon="6.86869">
        <ele>254.7</ele>
        <time>2014-04-13T11:57:42Z</time>
      </trkpt>
      <trkpt lat="49.20616" lon="6.8687">
        <ele>254.4</ele>
        <time>2014-04-13T11:57:47Z</time>
      </trkpt>
      <trkpt lat="49.20616" lon="6.86866">
        <ele>254.6</ele>
        <time>2014-04-13T11:57:52Z</time>
      </trkpt>
      <trkpt lat="49.20616" lon="6.86864">
        <ele>254.8</ele>
        <time>2014-04-13T11:57:57Z</time>
      </trkpt>
      <trkpt lat="49.20617" lon="6.86859">
        <ele>255</ele>
        <time>2014-04-13T11:58:02Z</time>
      </trkpt>
      <trkpt lat="49.20618" lon="6.86854">
        <ele>254.2</ele>
        <time>2014-04-13T11:58:07Z</time>
      </trkpt>
      <trkpt lat="49.2062" lon="6.86842">
        <ele>253.2</ele>
        <time>2014-04-13T11:58:12Z</time>
      </trkpt>
      <trkpt lat="49.20623" lon="6.86834">
        <ele>253.5</ele>
        <time>2014-04-13T11:58:17Z</time>
      </trkpt>
      <trkpt lat="49.20626" lon="6.86825">
        <ele>254.2</ele>
        <time>2014-04-13T11:58:22Z</time>
      </trkpt>
      <trkpt lat="49.20628" lon="6.86806">
        <ele>253.3</ele>
        <time>2014-04-13T11:58:32Z</time>
      </trkpt>
      <trkpt lat="49.2063" lon="6.86799">
        <ele>252.7</ele>
        <time>2014-04-13T11:58:37Z</time>
      </trkpt>
      <trkpt lat="49.20631" lon="6.8679">
        <ele>252.9</ele>
        <time>2014-04-13T11:58:42Z</time>
      </trkpt>
      <trkpt lat="49.20633" lon="6.86781">
        <ele>253.2</ele>
        <time>2014-04-13T11:58:47Z</time>
      </trkpt>
      <trkpt lat="49.20635" lon="6.86773">
        <ele>253.2</ele>
        <time>2014-04-13T11:58:52Z</time>
      </trkpt>
      <trkpt lat="49.20636" lon="6.86763">
        <ele>253.7</ele>
        <time>2014-04-13T11:58:57Z</time>
      </trkpt>
      <trkpt lat="49.20638" lon="6.86753">
        <ele>253.3</ele>
        <time>2014-04-13T11:59:02Z</time>
      </trkpt>
      <trkpt lat="49.2064" lon="6.86744">
        <ele>252.8</ele>
        <time>2014-04-13T11:59:07Z</time>
      </trkpt>
      <trkpt lat="49.20642" lon="6.86734">
        <ele>252.6</ele>
        <time>2014-04-13T11:59:12Z</time>
      </trkpt>
      <trkpt lat="49.20644" lon="6.86725">
        <ele>251.6</ele>
        <time>2014-04-13T11:59:17Z</time>
      </trkpt>
      <trkpt lat="49.20645" lon="6.86714">
        <ele>252.1</ele>
        <time>2014-04-13T11:59:22Z</time>
      </trkpt>
      <trkpt lat="49.20646" lon="6.86704">
        <ele>251</ele>
        <time>2014-04-13T11:59:27Z</time>
      </trkpt>
      <trkpt lat="49.20648" lon="6.86681">
        <ele>251.8</ele>
        <time>2014-04-13T11:59:37Z</time>
      </trkpt>
      <trkpt lat="49.20648" lon="6.8667">
        <ele>251</ele>
        <time>2014-04-13T11:59:42Z</time>
      </trkpt>
      <trkpt lat="49.20649" lon="6.86658">
        <ele>250.3</ele>
        <time>2014-04-13T11:59:47Z</time>
      </trkpt>
      <trkpt lat="49.20649" lon="6.86646">
        <ele>249.8</ele>
        <time>2014-04-13T11:59:52Z</time>
      </trkpt>
      <trkpt lat="49.20649" lon="6.86633">
        <ele>249.8</ele>
        <time>2014-04-13T11:59:57Z</time>
      </trkpt>
      <trkpt lat="49.20649" lon="6.86621">
        <ele>249.9</ele>
        <time>2014-04-13T12:00:02Z</time>
      </trkpt>
      <trkpt lat="49.20649" lon="6.86609">
        <ele>249.9</ele>
        <time>2014-04-13T12:00:07Z</time>
      </trkpt>
      <trkpt lat="49.20648" lon="6.86598">
        <ele>248.6</ele>
        <time>2014-04-13T12:00:12Z</time>
      </trkpt>
      <trkpt lat="49.20648" lon="6.86587">
        <ele>248.5</ele>
        <time>2014-04-13T12:00:17Z</time>
      </trkpt>
      <trkpt lat="49.20646" lon="6.86578">
        <ele>249.8</ele>
        <time>2014-04-13T12:00:22Z</time>
      </trkpt>
      <trkpt lat="49.20644" lon="6.86575">
        <ele>249.6</ele>
        <time>2014-04-13T12:00:27Z</time>
      </trkpt>
      <trkpt lat="49.20644" lon="6.86572">
        <ele>249.9</ele>
        <time>2014-04-13T12:00:32Z</time>
      </trkpt>
      <trkpt lat="49.20643" lon="6.8657">
        <ele>249.8</ele>
        <time>2014-04-13T12:00:42Z</time>
      </trkpt>
      <trkpt lat="49.20643" lon="6.86569">
        <ele>249.2</ele>
        <time>2014-04-13T12:00:47Z</time>
      </trkpt>
      <trkpt lat="49.20643" lon="6.86568">
        <ele>249</ele>
        <time>2014-04-13T12:00:52Z</time>
      </trkpt>
      <trkpt lat="49.20644" lon="6.86567">
        <ele>249.9</ele>
        <time>2014-04-13T12:00:57Z</time>
      </trkpt>
      <trkpt lat="49.20643" lon="6.86565">
        <ele>249.7</ele>
        <time>2014-04-13T12:01:02Z</time>
      </trkpt>
      <trkpt lat="49.20643" lon="6.86564">
        <ele>249.9</ele>
        <time>2014-04-13T12:01:07Z</time>
      </trkpt>
      <trkpt lat="49.20645" lon="6.86566">
        <ele>249</ele>
        <time>2014-04-13T12:01:12Z</time>
      </trkpt>
      <trkpt lat="49.20646" lon="6.86566">
        <ele>248.5</ele>
        <time>2014-04-13T12:01:17Z</time>
      </trkpt>
      <trkpt lat="49.20647" lon="6.86566">
        <ele>249.6</ele>
        <time>2014-04-13T12:01:22Z</time>
      </trkpt>
      <trkpt lat="49.20647" lon="6.86566">
        <ele>250.6</ele>
        <time>2014-04-13T12:01:27Z</time>
      </trkpt>
      <trkpt lat="49.20647" lon="6.86567">
        <ele>249.7</ele>
        <time>2014-04-13T12:01:32Z</time>
      </trkpt>
      <trkpt lat="49.20648" lon="6.86567">
        <ele>250.6</ele>
        <time>2014-04-13T12:01:37Z</time>
      </trkpt>
      <trkpt lat="49.20648" lon="6.86567">
        <ele>250.7</ele>
        <time>2014-04-13T12:01:47Z</time>
      </trkpt>
      <trkpt lat="49.20648" lon="6.86566">
        <ele>249.4</ele>
        <time>2014-04-13T12:01:52Z</time>
      </trkpt>
      <trkpt lat="49.20649" lon="6.86565">
        <ele>250.2</ele>
        <time>2014-04-13T12:01:57Z</time>
      </trkpt>
      <trkpt lat="49.20648" lon="6.86565">
        <ele>249.9</ele>
        <time>2014-04-13T12:02:02Z</time>
      </trkpt>
      <trkpt lat="49.20649" lon="6.86564">
        <ele>249.1</ele>
        <time>2014-04-13T12:02:07Z</time>
      </trkpt>
      <trkpt lat="49.20648" lon="6.86564">
        <ele>249.5</ele>
        <time>2014-04-13T12:02:12Z</time>
      </trkpt>
      <trkpt lat="49.20648" lon="6.86565">
        <ele>249.8</ele>
        <time>2014-04-13T12:02:17Z</time>
      </trkpt>
      <trkpt lat="49.20646" lon="6.86566">
        <ele>249</ele>
        <time>2014-04-13T12:02:22Z</time>
      </trkpt>
      <trkpt lat="49.20646" lon="6.86567">
        <ele>249.4</ele>
        <time>2014-04-13T12:02:27Z</time>
      </trkpt>
      <trkpt lat="49.20645" lon="6.86568">
        <ele>250.3</ele>
        <time>2014-04-13T12:02:32Z</time>
      </trkpt>
      <trkpt lat="49.20645" lon="6.86568">
        <ele>249.7</ele>
        <time>2014-04-13T12:02:37Z</time>
      </trkpt>
      <trkpt lat="49.20645" lon="6.86568">
        <ele>249.6</ele>
        <time>2014-04-13T12:02:42Z</time>
      </trkpt>
      <trkpt lat="49.20645" lon="6.86568">
        <ele>249.3</ele>
        <time>2014-04-13T12:02:52Z</time>
      </trkpt>
      <trkpt lat="49.20645" lon="6.86568">
        <ele>249</ele>
        <time>2014-04-13T12:02:57Z</time>
      </trkpt>
      <trkpt lat="49.20645" lon="6.86568">
        <ele>249.4</ele>
        <time>2014-04-13T12:03:02Z</time>
      </trkpt>
      <trkpt lat="49.20645" lon="6.86567">
        <ele>249.8</ele>
        <time>2014-04-13T12:03:07Z</time>
      </trkpt>
      <trkpt lat="49.20645" lon="6.86567">
        <ele>249.5</ele>
        <time>2014-04-13T12:03:12Z</time>
      </trkpt>
      <trkpt lat="49.20644" lon="6.86567">
        <ele>249.3</ele>
        <time>2014-04-13T12:03:17Z</time>
      </trkpt>
      <trkpt lat="49.20644" lon="6.86566">
        <ele>249.3</ele>
        <time>2014-04-13T12:03:22Z</time>
      </trkpt>
      <trkpt lat="49.20644" lon="6.86567">
        <ele>249.9</ele>
        <time>2014-04-13T12:03:27Z</time>
      </trkpt>
      <trkpt lat="49.20644" lon="6.86567">
        <ele>249.9</ele>
        <time>2014-04-13T12:03:32Z</time>
      </trkpt>
      <trkpt lat="49.20644" lon="6.86567">
        <ele>249.8</ele>
        <time>2014-04-13T12:03:37Z</time>
      </trkpt>
      <trkpt lat="49.20643" lon="6.86567">
        <ele>249.5</ele>
        <time>2014-04-13T12:03:42Z</time>
      </trkpt>
      <trkpt lat="49.20643" lon="6.86568">
        <ele>249.8</ele>
        <time>2014-04-13T12:03:47Z</time>
      </trkpt>
      <trkpt lat="49.20642" lon="6.86569">
        <ele>249.9</ele>
        <time>2014-04-13T12:03:57Z</time>
      </trkpt>
      <trkpt lat="49.20642" lon="6.86568">
        <ele>249</ele>
        <time>2014-04-13T12:04:02Z</time>
      </trkpt>
      <trkpt lat="49.20641" lon="6.86568">
        <ele>248.4</ele>
        <time>2014-04-13T12:04:07Z</time>
      </trkpt>
      <trkpt lat="49.20641" lon="6.86567">
        <ele>249.2</ele>
        <time>2014-04-13T12:04:12Z</time>
      </trkpt>
      <trkpt lat="49.20641" lon="6.86566">
        <ele>249.9</ele>
        <time>2014-04-13T12:04:17Z</time>
      </trkpt>
      <trkpt lat="49.20642" lon="6.86564">
        <ele>249</ele>
        <time>2014-04-13T12:04:22Z</time>
      </trkpt>
      <trkpt lat="49.20643" lon="6.86562">
        <ele>250</ele>
        <time>2014-04-13T12:04:27Z</time>
      </trkpt>
      <trkpt lat="49.20643" lon="6.86561">
        <ele>250.3</ele>
        <time>2014-04-13T12:04:32Z</time>
      </trkpt>
      <trkpt lat="49.20644" lon="6.86561">
        <ele>250.2</ele>
        <time>2014-04-13T12:04:37Z</time>
      </trkpt>
      <trkpt lat="49.20645" lon="6.86561">
        <ele>249.8</ele>
        <time>2014-04-13T12:04:42Z</time>
      </trkpt>
      <trkpt lat="49.20645" lon="6.86561">
        <ele>249.2</ele>
        <time>2014-04-13T12:04:47Z</time>
      </trkpt>
      <trkpt lat="49.20646" lon="6.86557">
        <ele>249.5</ele>
        <time>2014-04-13T12:04:52Z</time>
      </trkpt>
      <trkpt lat="49.20645" lon="6.86543">
        <ele>249.9</ele>
        <time>2014-04-13T12:05:02Z</time>
      </trkpt>
      <trkpt lat="49.20644" lon="6.86535">
        <ele>249.5</ele>
        <time>2014-04-13T12:05:07Z</time>
      </trkpt>
      <trkpt lat="49.20642" lon="6.86525">
        <ele>249.7</ele>
        <time>2014-04-13T12:05:12Z</time>
      </trkpt>
      <trkpt lat="49.20641" lon="6.86516">
        <ele>249</ele>
        <time>2014-04-13T12:05:17Z</time>
      </trkpt>
      <trkpt lat="49.20639" lon="6.86506">
        <ele>248.1</ele>
        <time>2014-04-13T12:05:22Z</time>
      </trkpt>
      <trkpt lat="49.20637" lon="6.86497">
        <ele>248</ele>
        <time>2014-04-13T12:05:27Z</time>
      </trkpt>
      <trkpt lat="49.20635" lon="6.8649">
        <ele>248.6</ele>
        <time>2014-04-13T12:05:32Z</time>
      </trkpt>
      <trkpt lat="49.20633" lon="6.86482">
        <ele>248.3</ele>
        <time>2014-04-13T12:05:37Z</time>
      </trkpt>
      <trkpt lat="49.20631" lon="6.86473">
        <ele>248.4</ele>
        <time>2014-04-13T12:05:42Z</time>
      </trkpt>
      <trkpt lat="49.20628" lon="6.86464">
        <ele>248.5</ele>
        <time>2014-04-13T12:05:47Z</time>
      </trkpt>
      <trkpt lat="49.20626" lon="6.86456">
        <ele>248.9</ele>
        <time>2014-04-13T12:05:52Z</time>
      </trkpt>
      <trkpt lat="49.20623" lon="6.86447">
        <ele>247.8</ele>
        <time>2014-04-13T12:05:57Z</time>
      </trkpt>
      <trkpt lat="49.20618" lon="6.86427">
        <ele>247.4</ele>
        <time>2014-04-13T12:06:07Z</time>
      </trkpt>
      <trkpt lat="49.20615" lon="6.86419">
        <ele>246.9</ele>
        <time>2014-04-13T12:06:12Z</time>
      </trkpt>
      <trkpt lat="49.20612" lon="6.86411">
        <ele>247</ele>
        <time>2014-04-13T12:06:17Z</time>
      </trkpt>
      <trkpt lat="49.20609" lon="6.86402">
        <ele>246.3</ele>
        <time>2014-04-13T12:06:22Z</time>
      </trkpt>
      <trkpt lat="49.20607" lon="6.86393">
        <ele>246.4</ele>
        <time>2014-04-13T12:06:27Z</time>
      </trkpt>
      <trkpt lat="49.20604" lon="6.86383">
        <ele>246</ele>
        <time>2014-04-13T12:06:32Z</time>
      </trkpt>
      <trkpt lat="49.206" lon="6.86372">
        <ele>245.2</ele>
        <time>2014-04-13T12:06:37Z</time>
      </trkpt>
      <trkpt lat="49.20596" lon="6.86362">
        <ele>245.2</ele>
        <time>2014-04-13T12:06:42Z</time>
      </trkpt>
      <trkpt lat="49.20592" lon="6.86352">
        <ele>245.4</ele>
        <time>2014-04-13T12:06:47Z</time>
      </trkpt>
      <trkpt lat="49.20588" lon="6.86341">
        <ele>245.2</ele>
        <time>2014-04-13T12:06:52Z</time>
      </trkpt>
      <trkpt lat="49.20583" lon="6.86332">
        <ele>245.4</ele>
        <time>2014-04-13T12:06:57Z</time>
      </trkpt>
      <trkpt lat="49.20579" lon="6.86323">
        <ele>244.9</ele>
        <time>2014-04-13T12:07:02Z</time>
      </trkpt>
      <trkpt lat="49.20571" lon="6.86303">
        <ele>245.5</ele>
        <time>2014-04-13T12:07:12Z</time>
      </trkpt>
      <trkpt lat="49.20567" lon="6.86293">
        <ele>246</ele>
        <time>2014-04-13T12:07:17Z</time>
      </trkpt>
      <trkpt lat="49.20563" lon="6.86285">
        <ele>244.7</ele>
        <time>2014-04-13T12:07:22Z</time>
      </trkpt>
      <trkpt lat="49.20559" lon="6.86276">
        <ele>244.2</ele>
        <time>2014-04-13T12:07:27Z</time>
      </trkpt>
      <trkpt lat="49.20556" lon="6.86266">
        <ele>245.7</ele>
        <time>2014-04-13T12:07:32Z</time>
      </trkpt>
      <trkpt lat="49.20553" lon="6.86256">
        <ele>245.2</ele>
        <time>2014-04-13T12:07:37Z</time>
      </trkpt>
      <trkpt lat="49.20549" lon="6.86248">
        <ele>244.6</ele>
        <time>2014-04-13T12:07:42Z</time>
      </trkpt>
      <trkpt lat="49.20545" lon="6.86238">
        <ele>243.7</ele>
        <time>2014-04-13T12:07:47Z</time>
      </trkpt>
      <trkpt lat="49.20541" lon="6.86229">
        <ele>243.7</ele>
        <time>2014-04-13T12:07:52Z</time>
      </trkpt>
      <trkpt lat="49.20537" lon="6.8622">
        <ele>243.1</ele>
        <time>2014-04-13T12:07:57Z</time>
      </trkpt>
      <trkpt lat="49.20533" lon="6.8621">
        <ele>243</ele>
        <time>2014-04-13T12:08:02Z</time>
      </trkpt>
      <trkpt lat="49.20529" lon="6.86201">
        <ele>241.7</ele>
        <time>2014-04-13T12:08:07Z</time>
      </trkpt>
      <trkpt lat="49.2052" lon="6.86183">
        <ele>241.9</ele>
        <time>2014-04-13T12:08:17Z</time>
      </trkpt>
      <trkpt lat="49.20516" lon="6.86174">
        <ele>242</ele>
        <time>2014-04-13T12:08:22Z</time>
      </trkpt>
      <trkpt lat="49.20512" lon="6.86167">
        <ele>242.2</ele>
        <time>2014-04-13T12:08:27Z</time>
      </trkpt>
      <trkpt lat="49.20506" lon="6.86159">
        <ele>241.4</ele>
        <time>2014-04-13T12:08:32Z</time>
      </trkpt>
      <trkpt lat="49.20501" lon="6.86151">
        <ele>241</ele>
        <time>2014-04-13T12:08:37Z</time>
      </trkpt>
      <trkpt lat="49.20495" lon="6.86144">
        <ele>240.7</ele>
        <time>2014-04-13T12:08:42Z</time>
      </trkpt>
      <trkpt lat="49.20489" lon="6.86138">
        <ele>240.5</ele>
        <time>2014-04-13T12:08:47Z</time>
      </trkpt>
      <trkpt lat="49.20482" lon="6.86131">
        <ele>241</ele>
        <time>2014-04-13T12:08:52Z</time>
      </trkpt>
      <trkpt lat="49.20476" lon="6.86124">
        <ele>239.8</ele>
        <time>2014-04-13T12:08:57Z</time>
      </trkpt>
      <trkpt lat="49.2047" lon="6.86118">
        <ele>240.7</ele>
        <time>2014-04-13T12:09:02Z</time>
      </trkpt>
      <trkpt lat="49.20464" lon="6.86111">
        <ele>240.2</ele>
        <time>2014-04-13T12:09:07Z</time>
      </trkpt>
      <trkpt lat="49.20458" lon="6.86105">
        <ele>239.8</ele>
        <time>2014-04-13T12:09:12Z</time>
      </trkpt>
      <trkpt lat="49.20446" lon="6.86094">
        <ele>239.9</ele>
        <time>2014-04-13T12:09:22Z</time>
      </trkpt>
      <trkpt lat="49.2044" lon="6.86089">
        <ele>239.9</ele>
        <time>2014-04-13T12:09:27Z</time>
      </trkpt>
      <trkpt lat="49.20434" lon="6.86084">
        <ele>239.1</ele>
        <time>2014-04-13T12:09:32Z</time>
      </trkpt>
      <trkpt lat="49.20427" lon="6.86079">
        <ele>239.2</ele>
        <time>2014-04-13T12:09:37Z</time>
      </trkpt>
      <trkpt lat="49.20421" lon="6.86075">
        <ele>238.8</ele>
        <time>2014-04-13T12:09:42Z</time>
      </trkpt>
      <trkpt lat="49.20415" lon="6.8607">
        <ele>237.7</ele>
        <time>2014-04-13T12:09:47Z</time>
      </trkpt>
      <trkpt lat="49.20408" lon="6.86065">
        <ele>237.2</ele>
        <time>2014-04-13T12:09:52Z</time>
      </trkpt>
      <trkpt lat="49.20402" lon="6.86061">
        <ele>237.6</ele>
        <time>2014-04-13T12:09:57Z</time>
      </trkpt>
      <trkpt lat="49.20397" lon="6.86055">
        <ele>237.4</ele>
        <time>2014-04-13T12:10:02Z</time>
      </trkpt>
      <trkpt lat="49.20391" lon="6.86049">
        <ele>237.5</ele>
        <time>2014-04-13T12:10:07Z</time>
      </trkpt>
      <trkpt lat="49.20385" lon="6.86044">
        <ele>237.4</ele>
        <time>2014-04-13T12:10:12Z</time>
      </trkpt>
      <trkpt lat="49.2038" lon="6.86038">
        <ele>236.3</ele>
        <time>2014-04-13T12:10:17Z</time>
      </trkpt>
      <trkpt lat="49.20375" lon="6.86033">
        <ele>236.1</ele>
        <time>2014-04-13T12:10:27Z</time>
      </trkpt>
      <trkpt lat="49.20375" lon="6.86033">
        <ele>236.8</ele>
        <time>2014-04-13T12:10:32Z</time>
      </trkpt>
      <trkpt lat="49.20375" lon="6.86032">
        <ele>237.6</ele>
        <time>2014-04-13T12:10:37Z</time>
      </trkpt>
      <trkpt lat="49.20375" lon="6.86031">
        <ele>237.9</ele>
        <time>2014-04-13T12:10:42Z</time>
      </trkpt>
      <trkpt lat="49.20375" lon="6.8603">
        <ele>237.1</ele>
        <time>2014-04-13T12:10:47Z</time>
      </trkpt>
      <trkpt lat="49.20375" lon="6.8603">
        <ele>236.8</ele>
        <time>2014-04-13T12:10:52Z</time>
      </trkpt>
      <trkpt lat="49.20375" lon="6.8603">
        <ele>236.9</ele>
        <time>2014-04-13T12:10:57Z</time>
      </trkpt>
      <trkpt lat="49.20375" lon="6.86029">
        <ele>236.7</ele>
        <time>2014-04-13T12:11:02Z</time>
      </trkpt>
      <trkpt lat="49.20375" lon="6.8603">
        <ele>236.4</ele>
        <time>2014-04-13T12:11:07Z</time>
      </trkpt>
      <trkpt lat="49.20375" lon="6.8603">
        <ele>236.7</ele>
        <time>2014-04-13T12:11:12Z</time>
      </trkpt>
      <trkpt lat="49.20375" lon="6.86029">
        <ele>236.4</ele>
        <time>2014-04-13T12:11:17Z</time>
      </trkpt>
      <trkpt lat="49.20375" lon="6.86029">
        <ele>236.7</ele>
        <time>2014-04-13T12:11:22Z</time>
      </trkpt>
      <trkpt lat="49.20375" lon="6.86028">
        <ele>236.4</ele>
        <time>2014-04-13T12:11:32Z</time>
      </trkpt>
      <trkpt lat="49.20375" lon="6.86028">
        <ele>237</ele>
        <time>2014-04-13T12:11:38Z</time>
      </trkpt>
      <trkpt lat="49.20374" lon="6.8603">
        <ele>236.8</ele>
        <time>2014-04-13T12:11:45Z</time>
      </trkpt>
      <trkpt lat="49.20372" lon="6.86033">
        <ele>236.3</ele>
        <time>2014-04-13T12:11:50Z</time>
      </trkpt>
      <trkpt lat="49.20373" lon="6.86032">
        <ele>236.5</ele>
        <time>2014-04-13T12:11:55Z</time>
      </trkpt>
      <trkpt lat="49.20374" lon="6.86031">
        <ele>237.2</ele>
        <time>2014-04-13T12:12:00Z</time>
      </trkpt>
      <trkpt lat="49.20374" lon="6.86031">
        <ele>236.8</ele>
        <time>2014-04-13T12:12:05Z</time>
      </trkpt>
      <trkpt lat="49.20375" lon="6.86031">
        <ele>237.2</ele>
        <time>2014-04-13T12:12:10Z</time>
      </trkpt>
      <trkpt lat="49.20374" lon="6.86031">
        <ele>237.2</ele>
        <time>2014-04-13T12:12:15Z</time>
      </trkpt>
      <trkpt lat="49.20374" lon="6.86032">
        <ele>236.8</ele>
        <time>2014-04-13T12:12:20Z</time>
      </trkpt>
      <trkpt lat="49.20374" lon="6.86032">
        <ele>236.5</ele>
        <time>2014-04-13T12:12:25Z</time>
      </trkpt>
      <trkpt lat="49.20373" lon="6.86033">
        <ele>236.3</ele>
        <time>2014-04-13T12:12:35Z</time>
      </trkpt>
      <trkpt lat="49.20373" lon="6.86034">
        <ele>236.9</ele>
        <time>2014-04-13T12:12:40Z</time>
      </trkpt>
      <trkpt lat="49.20372" lon="6.86035">
        <ele>236.7</ele>
        <time>2014-04-13T12:12:45Z</time>
      </trkpt>
      <trkpt lat="49.20372" lon="6.86034">
        <ele>237.5</ele>
        <time>2014-04-13T12:12:50Z</time>
      </trkpt>
      <trkpt lat="49.20372" lon="6.86034">
        <ele>236.5</ele>
        <time>2014-04-13T12:12:55Z</time>
      </trkpt>
      <trkpt lat="49.20373" lon="6.86034">
        <ele>236.5</ele>
        <time>2014-04-13T12:13:00Z</time>
      </trkpt>
      <trkpt lat="49.20373" lon="6.86034">
        <ele>236.5</ele>
        <time>2014-04-13T12:13:05Z</time>
      </trkpt>
      <trkpt lat="49.20372" lon="6.86034">
        <ele>235.7</ele>
        <time>2014-04-13T12:13:10Z</time>
      </trkpt>
      <trkpt lat="49.20371" lon="6.86036">
        <ele>235.9</ele>
        <time>2014-04-13T12:13:15Z</time>
      </trkpt>
      <trkpt lat="49.20371" lon="6.86036">
        <ele>236.3</ele>
        <time>2014-04-13T12:13:20Z</time>
      </trkpt>
      <trkpt lat="49.20372" lon="6.86035">
        <ele>235.7</ele>
        <time>2014-04-13T12:13:25Z</time>
      </trkpt>
      <trkpt lat="49.20372" lon="6.86035">
        <ele>237.1</ele>
        <time>2014-04-13T12:13:30Z</time>
      </trkpt>
      <trkpt lat="49.20372" lon="6.86035">
        <ele>237.7</ele>
        <time>2014-04-13T12:13:40Z</time>
      </trkpt>
      <trkpt lat="49.20372" lon="6.86036">
        <ele>237.6</ele>
        <time>2014-04-13T12:13:45Z</time>
      </trkpt>
      <trkpt lat="49.20371" lon="6.86037">
        <ele>237.4</ele>
        <time>2014-04-13T12:13:50Z</time>
      </trkpt>
      <trkpt lat="49.20371" lon="6.86037">
        <ele>237.6</ele>
        <time>2014-04-13T12:13:55Z</time>
      </trkpt>
      <trkpt lat="49.20371" lon="6.86037">
        <ele>237.4</ele>
        <time>2014-04-13T12:14:00Z</time>
      </trkpt>
      <trkpt lat="49.20372" lon="6.86037">
        <ele>237</ele>
        <time>2014-04-13T12:14:05Z</time>
      </trkpt>
      <trkpt lat="49.20372" lon="6.86037">
        <ele>237.4</ele>
        <time>2014-04-13T12:14:10Z</time>
      </trkpt>
      <trkpt lat="49.20373" lon="6.86036">
        <ele>237.4</ele>
        <time>2014-04-13T12:14:15Z</time>
      </trkpt>
      <trkpt lat="49.20373" lon="6.86036">
        <ele>237.1</ele>
        <time>2014-04-13T12:14:20Z</time>
      </trkpt>
      <trkpt lat="49.20373" lon="6.86036">
        <ele>236.9</ele>
        <time>2014-04-13T12:14:25Z</time>
      </trkpt>
      <trkpt lat="49.20373" lon="6.86036">
        <ele>237.3</ele>
        <time>2014-04-13T12:14:30Z</time>
      </trkpt>
      <trkpt lat="49.20373" lon="6.86036">
        <ele>236.9</ele>
        <time>2014-04-13T12:14:35Z</time>
      </trkpt>
      <trkpt lat="49.20372" lon="6.86037">
        <ele>237.5</ele>
        <time>2014-04-13T12:14:45Z</time>
      </trkpt>
      <trkpt lat="49.20371" lon="6.86039">
        <ele>236.8</ele>
        <time>2014-04-13T12:14:50Z</time>
      </trkpt>
      <trkpt lat="49.20371" lon="6.8604">
        <ele>236.8</ele>
        <time>2014-04-13T12:14:55Z</time>
      </trkpt>
      <trkpt lat="49.20371" lon="6.86036">
        <ele>237.2</ele>
        <time>2014-04-13T12:15:00Z</time>
      </trkpt>
      <trkpt lat="49.20371" lon="6.86034">
        <ele>237.7</ele>
        <time>2014-04-13T12:15:05Z</time>
      </trkpt>
      <trkpt lat="49.20372" lon="6.86033">
        <ele>237.3</ele>
        <time>2014-04-13T12:15:10Z</time>
      </trkpt>
      <trkpt lat="49.20372" lon="6.86033">
        <ele>237</ele>
        <time>2014-04-13T12:15:15Z</time>
      </trkpt>
      <trkpt lat="49.20372" lon="6.86032">
        <ele>236.7</ele>
        <time>2014-04-13T12:15:20Z</time>
      </trkpt>
      <trkpt lat="49.20372" lon="6.86032">
        <ele>236.4</ele>
        <time>2014-04-13T12:15:25Z</time>
      </trkpt>
      <trkpt lat="49.20373" lon="6.86032">
        <ele>237.4</ele>
        <time>2014-04-13T12:15:30Z</time>
      </trkpt>
      <trkpt lat="49.20373" lon="6.86031">
        <ele>237.3</ele>
        <time>2014-04-13T12:15:35Z</time>
      </trkpt>
      <trkpt lat="49.20374" lon="6.8603">
        <ele>237.1</ele>
        <time>2014-04-13T12:15:40Z</time>
      </trkpt>
      <trkpt lat="49.20374" lon="6.86028">
        <ele>237.2</ele>
        <time>2014-04-13T12:15:50Z</time>
      </trkpt>
      <trkpt lat="49.20374" lon="6.86027">
        <ele>237</ele>
        <time>2014-04-13T12:15:55Z</time>
      </trkpt>
      <trkpt lat="49.20374" lon="6.86027">
        <ele>237.5</ele>
        <time>2014-04-13T12:16:00Z</time>
      </trkpt>
      <trkpt lat="49.20374" lon="6.86027">
        <ele>237</ele>
        <time>2014-04-13T12:16:05Z</time>
      </trkpt>
      <trkpt lat="49.20375" lon="6.86026">
        <ele>237.4</ele>
        <time>2014-04-13T12:16:10Z</time>
      </trkpt>
      <trkpt lat="49.20374" lon="6.86026">
        <ele>237.1</ele>
        <time>2014-04-13T12:16:15Z</time>
      </trkpt>
      <trkpt lat="49.20374" lon="6.86027">
        <ele>237.6</ele>
        <time>2014-04-13T12:16:20Z</time>
      </trkpt>
      <trkpt lat="49.20374" lon="6.86026">
        <ele>237.4</ele>
        <time>2014-04-13T12:16:25Z</time>
      </trkpt>
      <trkpt lat="49.20372" lon="6.86023">
        <ele>236.9</ele>
        <time>2014-04-13T12:16:30Z</time>
      </trkpt>
      <trkpt lat="49.20372" lon="6.86021">
        <ele>237.2</ele>
        <time>2014-04-13T12:16:35Z</time>
      </trkpt>
      <trkpt lat="49.20372" lon="6.8602">
        <ele>237.4</ele>
        <time>2014-04-13T12:16:40Z</time>
      </trkpt>
      <trkpt lat="49.20372" lon="6.8602">
        <ele>238</ele>
        <time>2014-04-13T12:16:45Z</time>
      </trkpt>
      <trkpt lat="49.20372" lon="6.86019">
        <ele>237.4</ele>
        <time>2014-04-13T12:16:55Z</time>
      </trkpt>
      <trkpt lat="49.20372" lon="6.86018">
        <ele>236.7</ele>
        <time>2014-04-13T12:17:00Z</time>
      </trkpt>
      <trkpt lat="49.2037" lon="6.86017">
        <ele>236.7</ele>
        <time>2014-04-13T12:17:05Z</time>
      </trkpt>
      <trkpt lat="49.20367" lon="6.86017">
        <ele>236.9</ele>
        <time>2014-04-13T12:17:10Z</time>
      </trkpt>
      <trkpt lat="49.20361" lon="6.8602">
        <ele>237</ele>
        <time>2014-04-13T12:17:15Z</time>
      </trkpt>
      <trkpt lat="49.20355" lon="6.86024">
        <ele>237.8</ele>
        <time>2014-04-13T12:17:20Z</time>
      </trkpt>
      <trkpt lat="49.20349" lon="6.86025">
        <ele>236.7</ele>
        <time>2014-04-13T12:17:25Z</time>
      </trkpt>
      <trkpt lat="49.20342" lon="6.86023">
        <ele>236.6</ele>
        <time>2014-04-13T12:17:30Z</time>
      </trkpt>
      <trkpt lat="49.20335" lon="6.86023">
        <ele>237.6</ele>
        <time>2014-04-13T12:17:35Z</time>
      </trkpt>
      <trkpt lat="49.2033" lon="6.86027">
        <ele>237.7</ele>
        <time>2014-04-13T12:17:40Z</time>
      </trkpt>
      <trkpt lat="49.20324" lon="6.86029">
        <ele>237.3</ele>
        <time>2014-04-13T12:17:45Z</time>
      </trkpt>
      <trkpt lat="49.20318" lon="6.86028">
        <ele>237.7</ele>
        <time>2014-04-13T12:17:50Z</time>
      </trkpt>
      <trkpt lat="49.20306" lon="6.86022">
        <ele>236.6</ele>
        <time>2014-04-13T12:18:00Z</time>
      </trkpt>
      <trkpt lat="49.203" lon="6.86017">
        <ele>237.6</ele>
        <time>2014-04-13T12:18:05Z</time>
      </trkpt>
      <trkpt lat="49.20294" lon="6.86012">
        <ele>236.4</ele>
        <time>2014-04-13T12:18:10Z</time>
      </trkpt>
      <trkpt lat="49.20289" lon="6.86008">
        <ele>236.4</ele>
        <time>2014-04-13T12:18:15Z</time>
      </trkpt>
      <trkpt lat="49.20283" lon="6.86005">
        <ele>236.5</ele>
        <time>2014-04-13T12:18:20Z</time>
      </trkpt>
      <trkpt lat="49.20279" lon="6.86002">
        <ele>236.8</ele>
        <time>2014-04-13T12:18:25Z</time>
      </trkpt>
      <trkpt lat="49.20272" lon="6.86">
        <ele>236.7</ele>
        <time>2014-04-13T12:18:30Z</time>
      </trkpt>
      <trkpt lat="49.20266" lon="6.86">
        <ele>236.4</ele>
        <time>2014-04-13T12:18:35Z</time>
      </trkpt>
      <trkpt lat="49.20259" lon="6.86">
        <ele>236.3</ele>
        <time>2014-04-13T12:18:40Z</time>
      </trkpt>
      <trkpt lat="49.20252" lon="6.85999">
        <ele>236.8</ele>
        <time>2014-04-13T12:18:45Z</time>
      </trkpt>
      <trkpt lat="49.20246" lon="6.85997">
        <ele>237.3</ele>
        <time>2014-04-13T12:18:50Z</time>
      </trkpt>
      <trkpt lat="49.2024" lon="6.85996">
        <ele>238.2</ele>
        <time>2014-04-13T12:18:55Z</time>
      </trkpt>
      <trkpt lat="49.20226" lon="6.85992">
        <ele>238.7</ele>
        <time>2014-04-13T12:19:05Z</time>
      </trkpt>
      <trkpt lat="49.2022" lon="6.85989">
        <ele>239.3</ele>
        <time>2014-04-13T12:19:10Z</time>
      </trkpt>
      <trkpt lat="49.20214" lon="6.85988">
        <ele>238.9</ele>
        <time>2014-04-13T12:19:15Z</time>
      </trkpt>
      <trkpt lat="49.20207" lon="6.85986">
        <ele>239.4</ele>
        <time>2014-04-13T12:19:20Z</time>
      </trkpt>
      <trkpt lat="49.20201" lon="6.85984">
        <ele>238.9</ele>
        <time>2014-04-13T12:19:25Z</time>
      </trkpt>
      <trkpt lat="49.20196" lon="6.85981">
        <ele>238.3</ele>
        <time>2014-04-13T12:19:30Z</time>
      </trkpt>
      <trkpt lat="49.2019" lon="6.85978">
        <ele>237.9</ele>
        <time>2014-04-13T12:19:35Z</time>
      </trkpt>
      <trkpt lat="49.20185" lon="6.85976">
        <ele>236.8</ele>
        <time>2014-04-13T12:19:40Z</time>
      </trkpt>
      <trkpt lat="49.2018" lon="6.85975">
        <ele>235.5</ele>
        <time>2014-04-13T12:19:45Z</time>
      </trkpt>
      <trkpt lat="49.20172" lon="6.85974">
        <ele>234.3</ele>
        <time>2014-04-13T12:19:50Z</time>
      </trkpt>
      <trkpt lat="49.20167" lon="6.85976">
        <ele>232.7</ele>
        <time>2014-04-13T12:19:55Z</time>
      </trkpt>
      <trkpt lat="49.2016" lon="6.85975">
        <ele>233.4</ele>
        <time>2014-04-13T12:20:00Z</time>
      </trkpt>
      <trkpt lat="49.20147" lon="6.8597">
        <ele>234.8</ele>
        <time>2014-04-13T12:20:10Z</time>
      </trkpt>
      <trkpt lat="49.20141" lon="6.85967">
        <ele>234</ele>
        <time>2014-04-13T12:20:15Z</time>
      </trkpt>
      <trkpt lat="49.20134" lon="6.85966">
        <ele>232.3</ele>
        <time>2014-04-13T12:20:20Z</time>
      </trkpt>
      <trkpt lat="49.20129" lon="6.85965">
        <ele>231.8</ele>
        <time>2014-04-13T12:20:25Z</time>
      </trkpt>
      <trkpt lat="49.20122" lon="6.85963">
        <ele>231</ele>
        <time>2014-04-13T12:20:30Z</time>
      </trkpt>
      <trkpt lat="49.20116" lon="6.85961">
        <ele>231.6</ele>
        <time>2014-04-13T12:20:35Z</time>
      </trkpt>
      <trkpt lat="49.2011" lon="6.85959">
        <ele>232.2</ele>
        <time>2014-04-13T12:20:40Z</time>
      </trkpt>
      <trkpt lat="49.20104" lon="6.85957">
        <ele>231.8</ele>
        <time>2014-04-13T12:20:45Z</time>
      </trkpt>
      <trkpt lat="49.20095" lon="6.85953">
        <ele>231.2</ele>
        <time>2014-04-13T12:20:50Z</time>
      </trkpt>
      <trkpt lat="49.20089" lon="6.8595">
        <ele>230.1</ele>
        <time>2014-04-13T12:20:55Z</time>
      </trkpt>
      <trkpt lat="49.20083" lon="6.85948">
        <ele>229.8</ele>
        <time>2014-04-13T12:21:00Z</time>
      </trkpt>
      <trkpt lat="49.20077" lon="6.85942">
        <ele>229.8</ele>
        <time>2014-04-13T12:21:05Z</time>
      </trkpt>
      <trkpt lat="49.2007" lon="6.85926">
        <ele>229.2</ele>
        <time>2014-04-13T12:21:15Z</time>
      </trkpt>
      <trkpt lat="49.20067" lon="6.85916">
        <ele>229.1</ele>
        <time>2014-04-13T12:21:20Z</time>
      </trkpt>
      <trkpt lat="49.20063" lon="6.85907">
        <ele>229.7</ele>
        <time>2014-04-13T12:21:25Z</time>
      </trkpt>
      <trkpt lat="49.20059" lon="6.859">
        <ele>229.7</ele>
        <time>2014-04-13T12:21:30Z</time>
      </trkpt>
      <trkpt lat="49.20053" lon="6.85895">
        <ele>228.8</ele>
        <time>2014-04-13T12:21:35Z</time>
      </trkpt>
      <trkpt lat="49.20047" lon="6.85889">
        <ele>229</ele>
        <time>2014-04-13T12:21:40Z</time>
      </trkpt>
      <trkpt lat="49.2004" lon="6.85885">
        <ele>229.4</ele>
        <time>2014-04-13T12:21:45Z</time>
      </trkpt>
      <trkpt lat="49.20033" lon="6.8588">
        <ele>228.7</ele>
        <time>2014-04-13T12:21:50Z</time>
      </trkpt>
      <trkpt lat="49.20025" lon="6.85877">
        <ele>228.1</ele>
        <time>2014-04-13T12:21:55Z</time>
      </trkpt>
      <trkpt lat="49.20018" lon="6.85875">
        <ele>228.2</ele>
        <time>2014-04-13T12:22:00Z</time>
      </trkpt>
      <trkpt lat="49.20011" lon="6.85872">
        <ele>228.2</ele>
        <time>2014-04-13T12:22:05Z</time>
      </trkpt>
      <trkpt lat="49.20004" lon="6.85871">
        <ele>229.4</ele>
        <time>2014-04-13T12:22:10Z</time>
      </trkpt>
      <trkpt lat="49.19991" lon="6.85867">
        <ele>228.6</ele>
        <time>2014-04-13T12:22:20Z</time>
      </trkpt>
      <trkpt lat="49.19984" lon="6.85866">
        <ele>228.4</ele>
        <time>2014-04-13T12:22:25Z</time>
      </trkpt>
      <trkpt lat="49.19977" lon="6.85863">
        <ele>229.1</ele>
        <time>2014-04-13T12:22:30Z</time>
      </trkpt>
      <trkpt lat="49.1997" lon="6.85859">
        <ele>228.7</ele>
        <time>2014-04-13T12:22:35Z</time>
      </trkpt>
      <trkpt lat="49.19964" lon="6.85854">
        <ele>228.4</ele>
        <time>2014-04-13T12:22:40Z</time>
      </trkpt>
      <trkpt lat="49.19957" lon="6.8585">
        <ele>228</ele>
        <time>2014-04-13T12:22:45Z</time>
      </trkpt>
      <trkpt lat="49.19951" lon="6.85846">
        <ele>228</ele>
        <time>2014-04-13T12:22:50Z</time>
      </trkpt>
      <trkpt lat="49.19945" lon="6.85841">
        <ele>228.3</ele>
        <time>2014-04-13T12:22:55Z</time>
      </trkpt>
      <trkpt lat="49.19939" lon="6.85835">
        <ele>227.8</ele>
        <time>2014-04-13T12:23:00Z</time>
      </trkpt>
      <trkpt lat="49.19933" lon="6.85829">
        <ele>227.9</ele>
        <time>2014-04-13T12:23:05Z</time>
      </trkpt>
      <trkpt lat="49.19927" lon="6.85823">
        <ele>226.9</ele>
        <time>2014-04-13T12:23:10Z</time>
      </trkpt>
      <trkpt lat="49.19921" lon="6.85817">
        <ele>228</ele>
        <time>2014-04-13T12:23:15Z</time>
      </trkpt>
      <trkpt lat="49.19911" lon="6.85805">
        <ele>228.3</ele>
        <time>2014-04-13T12:23:25Z</time>
      </trkpt>
      <trkpt lat="49.19907" lon="6.858">
        <ele>227.9</ele>
        <time>2014-04-13T12:23:30Z</time>
      </trkpt>
      <trkpt lat="49.19901" lon="6.85792">
        <ele>227</ele>
        <time>2014-04-13T12:23:35Z</time>
      </trkpt>
      <trkpt lat="49.19895" lon="6.85784">
        <ele>227.6</ele>
        <time>2014-04-13T12:23:40Z</time>
      </trkpt>
      <trkpt lat="49.19889" lon="6.85777">
        <ele>227.1</ele>
        <time>2014-04-13T12:23:45Z</time>
      </trkpt>
      <trkpt lat="49.19881" lon="6.85777">
        <ele>226.3</ele>
        <time>2014-04-13T12:23:50Z</time>
      </trkpt>
      <trkpt lat="49.19875" lon="6.85771">
        <ele>226.7</ele>
        <time>2014-04-13T12:23:55Z</time>
      </trkpt>
      <trkpt lat="49.19869" lon="6.85764">
        <ele>227.1</ele>
        <time>2014-04-13T12:24:00Z</time>
      </trkpt>
      <trkpt lat="49.19863" lon="6.85758">
        <ele>227.1</ele>
        <time>2014-04-13T12:24:05Z</time>
      </trkpt>
      <trkpt lat="49.19857" lon="6.85751">
        <ele>227.1</ele>
        <time>2014-04-13T12:24:10Z</time>
      </trkpt>
      <trkpt lat="49.19852" lon="6.85745">
        <ele>226.9</ele>
        <time>2014-04-13T12:24:15Z</time>
      </trkpt>
      <trkpt lat="49.19848" lon="6.85739">
        <ele>227</ele>
        <time>2014-04-13T12:24:20Z</time>
      </trkpt>
      <trkpt lat="49.19838" lon="6.8573">
        <ele>227.2</ele>
        <time>2014-04-13T12:24:30Z</time>
      </trkpt>
      <trkpt lat="49.19832" lon="6.85725">
        <ele>227.3</ele>
        <time>2014-04-13T12:24:35Z</time>
      </trkpt>
      <trkpt lat="49.19827" lon="6.85718">
        <ele>226.3</ele>
        <time>2014-04-13T12:24:40Z</time>
      </trkpt>
      <trkpt lat="49.19822" lon="6.85713">
        <ele>226.3</ele>
        <time>2014-04-13T12:24:45Z</time>
      </trkpt>
      <trkpt lat="49.19817" lon="6.85706">
        <ele>226.4</ele>
        <time>2014-04-13T12:24:50Z</time>
      </trkpt>
      <trkpt lat="49.19813" lon="6.857">
        <ele>226.5</ele>
        <time>2014-04-13T12:24:55Z</time>
      </trkpt>
      <trkpt lat="49.19809" lon="6.85695">
        <ele>226.2</ele>
        <time>2014-04-13T12:25:00Z</time>
      </trkpt>
      <trkpt lat="49.19804" lon="6.85691">
        <ele>226.1</ele>
        <time>2014-04-13T12:25:05Z</time>
      </trkpt>
      <trkpt lat="49.19796" lon="6.85685">
        <ele>226.7</ele>
        <time>2014-04-13T12:25:10Z</time>
      </trkpt>
      <trkpt lat="49.1979" lon="6.85679">
        <ele>226.5</ele>
        <time>2014-04-13T12:25:15Z</time>
      </trkpt>
      <trkpt lat="49.19783" lon="6.85672">
        <ele>226.3</ele>
        <time>2014-04-13T12:25:20Z</time>
      </trkpt>
      <trkpt lat="49.19779" lon="6.85666">
        <ele>226.8</ele>
        <time>2014-04-13T12:25:25Z</time>
      </trkpt>
      <trkpt lat="49.19768" lon="6.85653">
        <ele>226.1</ele>
        <time>2014-04-13T12:25:35Z</time>
      </trkpt>
      <trkpt lat="49.19762" lon="6.85648">
        <ele>226.4</ele>
        <time>2014-04-13T12:25:40Z</time>
      </trkpt>
      <trkpt lat="49.19757" lon="6.85642">
        <ele>226.1</ele>
        <time>2014-04-13T12:25:45Z</time>
      </trkpt>
      <trkpt lat="49.19751" lon="6.85634">
        <ele>226.1</ele>
        <time>2014-04-13T12:25:50Z</time>
      </trkpt>
      <trkpt lat="49.19747" lon="6.85627">
        <ele>226</ele>
        <time>2014-04-13T12:25:55Z</time>
      </trkpt>
      <trkpt lat="49.19742" lon="6.85619">
        <ele>226.1</ele>
        <time>2014-04-13T12:26:00Z</time>
      </trkpt>
      <trkpt lat="49.19737" lon="6.85613">
        <ele>226</ele>
        <time>2014-04-13T12:26:05Z</time>
      </trkpt>
      <trkpt lat="49.19731" lon="6.85605">
        <ele>227.2</ele>
        <time>2014-04-13T12:26:10Z</time>
      </trkpt>
      <trkpt lat="49.19726" lon="6.85599">
        <ele>226.4</ele>
        <time>2014-04-13T12:26:15Z</time>
      </trkpt>
      <trkpt lat="49.19721" lon="6.85592">
        <ele>226.2</ele>
        <time>2014-04-13T12:26:20Z</time>
      </trkpt>
      <trkpt lat="49.19715" lon="6.85586">
        <ele>226.3</ele>
        <time>2014-04-13T12:26:25Z</time>
      </trkpt>
      <trkpt lat="49.19709" lon="6.85581">
        <ele>225.9</ele>
        <time>2014-04-13T12:26:30Z</time>
      </trkpt>
      <trkpt lat="49.19698" lon="6.8557">
        <ele>227</ele>
        <time>2014-04-13T12:26:40Z</time>
      </trkpt>
      <trkpt lat="49.19693" lon="6.85562">
        <ele>228.1</ele>
        <time>2014-04-13T12:26:45Z</time>
      </trkpt>
      <trkpt lat="49.19687" lon="6.85556">
        <ele>227.3</ele>
        <time>2014-04-13T12:26:50Z</time>
      </trkpt>
      <trkpt lat="49.19682" lon="6.8555">
        <ele>226.7</ele>
        <time>2014-04-13T12:26:55Z</time>
      </trkpt>
      <trkpt lat="49.19676" lon="6.85544">
        <ele>227.1</ele>
        <time>2014-04-13T12:27:00Z</time>
      </trkpt>
      <trkpt lat="49.1967" lon="6.85537">
        <ele>227.6</ele>
        <time>2014-04-13T12:27:05Z</time>
      </trkpt>
      <trkpt lat="49.19664" lon="6.8553">
        <ele>227.5</ele>
        <time>2014-04-13T12:27:10Z</time>
      </trkpt>
      <trkpt lat="49.1966" lon="6.85524">
        <ele>227</ele>
        <time>2014-04-13T12:27:15Z</time>
      </trkpt>
      <trkpt lat="49.19654" lon="6.85518">
        <ele>226.6</ele>
        <time>2014-04-13T12:27:20Z</time>
      </trkpt>
      <trkpt lat="49.19649" lon="6.85511">
        <ele>227.4</ele>
        <time>2014-04-13T12:27:25Z</time>
      </trkpt>
      <trkpt lat="49.19643" lon="6.85506">
        <ele>227.3</ele>
        <time>2014-04-13T12:27:30Z</time>
      </trkpt>
      <trkpt lat="49.19637" lon="6.855">
        <ele>227.2</ele>
        <time>2014-04-13T12:27:35Z</time>
      </trkpt>
      <trkpt lat="49.19626" lon="6.85489">
        <ele>227.5</ele>
        <time>2014-04-13T12:27:45Z</time>
      </trkpt>
      <trkpt lat="49.19621" lon="6.85482">
        <ele>226.2</ele>
        <time>2014-04-13T12:27:50Z</time>
      </trkpt>
      <trkpt lat="49.19615" lon="6.85475">
        <ele>226.3</ele>
        <time>2014-04-13T12:27:55Z</time>
      </trkpt>
      <trkpt lat="49.19609" lon="6.85469">
        <ele>228</ele>
        <time>2014-04-13T12:28:00Z</time>
      </trkpt>
      <trkpt lat="49.19603" lon="6.85465">
        <ele>226.8</ele>
        <time>2014-04-13T12:28:05Z</time>
      </trkpt>
      <trkpt lat="49.19597" lon="6.8546">
        <ele>227.1</ele>
        <time>2014-04-13T12:28:10Z</time>
      </trkpt>
      <trkpt lat="49.1959" lon="6.85455">
        <ele>227.4</ele>
        <time>2014-04-13T12:28:15Z</time>
      </trkpt>
      <trkpt lat="49.19584" lon="6.8545">
        <ele>226.5</ele>
        <time>2014-04-13T12:28:20Z</time>
      </trkpt>
      <trkpt lat="49.19577" lon="6.85445">
        <ele>226.8</ele>
        <time>2014-04-13T12:28:25Z</time>
      </trkpt>
      <trkpt lat="49.1957" lon="6.85441">
        <ele>227.8</ele>
        <time>2014-04-13T12:28:30Z</time>
      </trkpt>
      <trkpt lat="49.19563" lon="6.85437">
        <ele>227.3</ele>
        <time>2014-04-13T12:28:35Z</time>
      </trkpt>
      <trkpt lat="49.19557" lon="6.85433">
        <ele>226.5</ele>
        <time>2014-04-13T12:28:40Z</time>
      </trkpt>
      <trkpt lat="49.19545" lon="6.85425">
        <ele>227.3</ele>
        <time>2014-04-13T12:28:50Z</time>
      </trkpt>
      <trkpt lat="49.19538" lon="6.8542">
        <ele>227.1</ele>
        <time>2014-04-13T12:28:55Z</time>
      </trkpt>
      <trkpt lat="49.19532" lon="6.85417">
        <ele>227.2</ele>
        <time>2014-04-13T12:29:00Z</time>
      </trkpt>
      <trkpt lat="49.19525" lon="6.85413">
        <ele>227.6</ele>
        <time>2014-04-13T12:29:05Z</time>
      </trkpt>
      <trkpt lat="49.19519" lon="6.85409">
        <ele>228.1</ele>
        <time>2014-04-13T12:29:10Z</time>
      </trkpt>
      <trkpt lat="49.19512" lon="6.85403">
        <ele>227.2</ele>
        <time>2014-04-13T12:29:15Z</time>
      </trkpt>
      <trkpt lat="49.19506" lon="6.85399">
        <ele>227.2</ele>
        <time>2014-04-13T12:29:20Z</time>
      </trkpt>
      <trkpt lat="49.19499" lon="6.85395">
        <ele>227.7</ele>
        <time>2014-04-13T12:29:25Z</time>
      </trkpt>
      <trkpt lat="49.19493" lon="6.85391">
        <ele>227.6</ele>
        <time>2014-04-13T12:29:30Z</time>
      </trkpt>
      <trkpt lat="49.19486" lon="6.85387">
        <ele>227.2</ele>
        <time>2014-04-13T12:29:35Z</time>
      </trkpt>
      <trkpt lat="49.1948" lon="6.85384">
        <ele>227.5</ele>
        <time>2014-04-13T12:29:40Z</time>
      </trkpt>
      <trkpt lat="49.19473" lon="6.85381">
        <ele>228.4</ele>
        <time>2014-04-13T12:29:45Z</time>
      </trkpt>
      <trkpt lat="49.1946" lon="6.85378">
        <ele>228.9</ele>
        <time>2014-04-13T12:29:55Z</time>
      </trkpt>
      <trkpt lat="49.19455" lon="6.85377">
        <ele>227.5</ele>
        <time>2014-04-13T12:30:00Z</time>
      </trkpt>
      <trkpt lat="49.19449" lon="6.85375">
        <ele>226.9</ele>
        <time>2014-04-13T12:30:05Z</time>
      </trkpt>
      <trkpt lat="49.19444" lon="6.85373">
        <ele>227.6</ele>
        <time>2014-04-13T12:30:10Z</time>
      </trkpt>
      <trkpt lat="49.19438" lon="6.8537">
        <ele>227.5</ele>
        <time>2014-04-13T12:30:15Z</time>
      </trkpt>
      <trkpt lat="49.19432" lon="6.85368">
        <ele>227.7</ele>
        <time>2014-04-13T12:30:20Z</time>
      </trkpt>
      <trkpt lat="49.19425" lon="6.85365">
        <ele>228</ele>
        <time>2014-04-13T12:30:25Z</time>
      </trkpt>
      <trkpt lat="49.19418" lon="6.85363">
        <ele>227.5</ele>
        <time>2014-04-13T12:30:30Z</time>
      </trkpt>
      <trkpt lat="49.19411" lon="6.8536">
        <ele>227.5</ele>
        <time>2014-04-13T12:30:35Z</time>
      </trkpt>
      <trkpt lat="49.19403" lon="6.85359">
        <ele>227.3</ele>
        <time>2014-04-13T12:30:40Z</time>
      </trkpt>
      <trkpt lat="49.19397" lon="6.85356">
        <ele>227</ele>
        <time>2014-04-13T12:30:45Z</time>
      </trkpt>
      <trkpt lat="49.1939" lon="6.85355">
        <ele>226.8</ele>
        <time>2014-04-13T12:30:50Z</time>
      </trkpt>
      <trkpt lat="49.19375" lon="6.85353">
        <ele>227.4</ele>
        <time>2014-04-13T12:31:00Z</time>
      </trkpt>
      <trkpt lat="49.19368" lon="6.85352">
        <ele>227.5</ele>
        <time>2014-04-13T12:31:05Z</time>
      </trkpt>
      <trkpt lat="49.1936" lon="6.85352">
        <ele>228</ele>
        <time>2014-04-13T12:31:10Z</time>
      </trkpt>
      <trkpt lat="49.19352" lon="6.85351">
        <ele>228.6</ele>
        <time>2014-04-13T12:31:15Z</time>
      </trkpt>
      <trkpt lat="49.19345" lon="6.85351">
        <ele>228</ele>
        <time>2014-04-13T12:31:20Z</time>
      </trkpt>
      <trkpt lat="49.19338" lon="6.85352">
        <ele>228</ele>
        <time>2014-04-13T12:31:25Z</time>
      </trkpt>
      <trkpt lat="49.19332" lon="6.85354">
        <ele>228.2</ele>
        <time>2014-04-13T12:31:30Z</time>
      </trkpt>
      <trkpt lat="49.19325" lon="6.85355">
        <ele>228.1</ele>
        <time>2014-04-13T12:31:35Z</time>
      </trkpt>
      <trkpt lat="49.19319" lon="6.85356">
        <ele>227.6</ele>
        <time>2014-04-13T12:31:40Z</time>
      </trkpt>
      <trkpt lat="49.19312" lon="6.85356">
        <ele>227.4</ele>
        <time>2014-04-13T12:31:45Z</time>
      </trkpt>
      <trkpt lat="49.19305" lon="6.85358">
        <ele>227.7</ele>
        <time>2014-04-13T12:31:50Z</time>
      </trkpt>
      <trkpt lat="49.19297" lon="6.85361">
        <ele>228</ele>
        <time>2014-04-13T12:31:55Z</time>
      </trkpt>
      <trkpt lat="49.19284" lon="6.85366">
        <ele>227.9</ele>
        <time>2014-04-13T12:32:05Z</time>
      </trkpt>
      <trkpt lat="49.19277" lon="6.85367">
        <ele>228.1</ele>
        <time>2014-04-13T12:32:10Z</time>
      </trkpt>
      <trkpt lat="49.19271" lon="6.85369">
        <ele>227.6</ele>
        <time>2014-04-13T12:32:15Z</time>
      </trkpt>
      <trkpt lat="49.19264" lon="6.85373">
        <ele>227.2</ele>
        <time>2014-04-13T12:32:20Z</time>
      </trkpt>
      <trkpt lat="49.19257" lon="6.85378">
        <ele>226.8</ele>
        <time>2014-04-13T12:32:25Z</time>
      </trkpt>
      <trkpt lat="49.19251" lon="6.85382">
        <ele>227.8</ele>
        <time>2014-04-13T12:32:30Z</time>
      </trkpt>
      <trkpt lat="49.19244" lon="6.85386">
        <ele>227.5</ele>
        <time>2014-04-13T12:32:35Z</time>
      </trkpt>
      <trkpt lat="49.19237" lon="6.85389">
        <ele>227.7</ele>
        <time>2014-04-13T12:32:40Z</time>
      </trkpt>
      <trkpt lat="49.19231" lon="6.85393">
        <ele>228.4</ele>
        <time>2014-04-13T12:32:45Z</time>
      </trkpt>
      <trkpt lat="49.19225" lon="6.85397">
        <ele>228</ele>
        <time>2014-04-13T12:32:50Z</time>
      </trkpt>
      <trkpt lat="49.1922" lon="6.854">
        <ele>227.5</ele>
        <time>2014-04-13T12:32:55Z</time>
      </trkpt>
      <trkpt lat="49.19214" lon="6.85404">
        <ele>227.3</ele>
        <time>2014-04-13T12:33:00Z</time>
      </trkpt>
      <trkpt lat="49.19202" lon="6.85412">
        <ele>228.1</ele>
        <time>2014-04-13T12:33:10Z</time>
      </trkpt>
      <trkpt lat="49.19196" lon="6.85418">
        <ele>227.4</ele>
        <time>2014-04-13T12:33:15Z</time>
      </trkpt>
      <trkpt lat="49.19189" lon="6.85423">
        <ele>227.9</ele>
        <time>2014-04-13T12:33:20Z</time>
      </trkpt>
      <trkpt lat="49.19185" lon="6.85427">
        <ele>227.9</ele>
        <time>2014-04-13T12:33:25Z</time>
      </trkpt>
      <trkpt lat="49.19179" lon="6.85432">
        <ele>227.6</ele>
        <time>2014-04-13T12:33:30Z</time>
      </trkpt>
      <trkpt lat="49.19174" lon="6.85437">
        <ele>228.4</ele>
        <time>2014-04-13T12:33:35Z</time>
      </trkpt>
      <trkpt lat="49.19168" lon="6.85444">
        <ele>228.5</ele>
        <time>2014-04-13T12:33:40Z</time>
      </trkpt>
      <trkpt lat="49.19162" lon="6.85449">
        <ele>227.6</ele>
        <time>2014-04-13T12:33:45Z</time>
      </trkpt>
      <trkpt lat="49.19155" lon="6.85457">
        <ele>227.8</ele>
        <time>2014-04-13T12:33:50Z</time>
      </trkpt>
      <trkpt lat="49.19149" lon="6.85464">
        <ele>228.6</ele>
        <time>2014-04-13T12:33:55Z</time>
      </trkpt>
      <trkpt lat="49.19143" lon="6.85471">
        <ele>228.2</ele>
        <time>2014-04-13T12:34:00Z</time>
      </trkpt>
      <trkpt lat="49.19137" lon="6.85479">
        <ele>228.3</ele>
        <time>2014-04-13T12:34:05Z</time>
      </trkpt>
      <trkpt lat="49.19125" lon="6.85493">
        <ele>228</ele>
        <time>2014-04-13T12:34:15Z</time>
      </trkpt>
      <trkpt lat="49.1912" lon="6.85501">
        <ele>228.2</ele>
        <time>2014-04-13T12:34:20Z</time>
      </trkpt>
      <trkpt lat="49.19113" lon="6.85509">
        <ele>228.7</ele>
        <time>2014-04-13T12:34:25Z</time>
      </trkpt>
      <trkpt lat="49.19108" lon="6.85517">
        <ele>228</ele>
        <time>2014-04-13T12:34:30Z</time>
      </trkpt>
      <trkpt lat="49.19102" lon="6.85525">
        <ele>228.1</ele>
        <time>2014-04-13T12:34:35Z</time>
      </trkpt>
      <trkpt lat="49.19096" lon="6.85534">
        <ele>227.2</ele>
        <time>2014-04-13T12:34:40Z</time>
      </trkpt>
      <trkpt lat="49.1909" lon="6.85543">
        <ele>228.3</ele>
        <time>2014-04-13T12:34:45Z</time>
      </trkpt>
      <trkpt lat="49.19086" lon="6.85551">
        <ele>228.4</ele>
        <time>2014-04-13T12:34:50Z</time>
      </trkpt>
      <trkpt lat="49.19082" lon="6.85559">
        <ele>227.4</ele>
        <time>2014-04-13T12:34:55Z</time>
      </trkpt>
      <trkpt lat="49.19078" lon="6.85567">
        <ele>228.2</ele>
        <time>2014-04-13T12:35:00Z</time>
      </trkpt>
      <trkpt lat="49.19073" lon="6.85574">
        <ele>228</ele>
        <time>2014-04-13T12:35:05Z</time>
      </trkpt>
      <trkpt lat="49.19069" lon="6.85581">
        <ele>228.8</ele>
        <time>2014-04-13T12:35:10Z</time>
      </trkpt>
      <trkpt lat="49.1906" lon="6.85596">
        <ele>228.4</ele>
        <time>2014-04-13T12:35:20Z</time>
      </trkpt>
      <trkpt lat="49.19056" lon="6.85603">
        <ele>227.7</ele>
        <time>2014-04-13T12:35:25Z</time>
      </trkpt>
      <trkpt lat="49.1905" lon="6.85612">
        <ele>228.6</ele>
        <time>2014-04-13T12:35:30Z</time>
      </trkpt>
      <trkpt lat="49.19046" lon="6.85619">
        <ele>227.8</ele>
        <time>2014-04-13T12:35:35Z</time>
      </trkpt>
      <trkpt lat="49.19041" lon="6.85627">
        <ele>227.8</ele>
        <time>2014-04-13T12:35:40Z</time>
      </trkpt>
      <trkpt lat="49.19037" lon="6.85634">
        <ele>228.1</ele>
        <time>2014-04-13T12:35:45Z</time>
      </trkpt>
      <trkpt lat="49.19032" lon="6.85641">
        <ele>228.2</ele>
        <time>2014-04-13T12:35:50Z</time>
      </trkpt>
      <trkpt lat="49.19028" lon="6.85649">
        <ele>228.7</ele>
        <time>2014-04-13T12:35:55Z</time>
      </trkpt>
      <trkpt lat="49.19022" lon="6.85657">
        <ele>228.7</ele>
        <time>2014-04-13T12:36:00Z</time>
      </trkpt>
      <trkpt lat="49.19017" lon="6.85665">
        <ele>228.1</ele>
        <time>2014-04-13T12:36:05Z</time>
      </trkpt>
      <trkpt lat="49.19011" lon="6.85674">
        <ele>228.2</ele>
        <time>2014-04-13T12:36:10Z</time>
      </trkpt>
      <trkpt lat="49.19006" lon="6.85682">
        <ele>228.1</ele>
        <time>2014-04-13T12:36:15Z</time>
      </trkpt>
      <trkpt lat="49.18995" lon="6.85698">
        <ele>227.7</ele>
        <time>2014-04-13T12:36:25Z</time>
      </trkpt>
      <trkpt lat="49.1899" lon="6.85707">
        <ele>228</ele>
        <time>2014-04-13T12:36:30Z</time>
      </trkpt>
      <trkpt lat="49.18986" lon="6.85715">
        <ele>228.4</ele>
        <time>2014-04-13T12:36:35Z</time>
      </trkpt>
      <trkpt lat="49.18982" lon="6.85723">
        <ele>228.3</ele>
        <time>2014-04-13T12:36:40Z</time>
      </trkpt>
      <trkpt lat="49.18977" lon="6.85732">
        <ele>227.9</ele>
        <time>2014-04-13T12:36:45Z</time>
      </trkpt>
      <trkpt lat="49.18972" lon="6.85741">
        <ele>227.4</ele>
        <time>2014-04-13T12:36:50Z</time>
      </trkpt>
      <trkpt lat="49.18966" lon="6.85749">
        <ele>228.4</ele>
        <time>2014-04-13T12:36:55Z</time>
      </trkpt>
      <trkpt lat="49.18961" lon="6.85756">
        <ele>228.6</ele>
        <time>2014-04-13T12:37:00Z</time>
      </trkpt>
      <trkpt lat="49.18955" lon="6.85763">
        <ele>229</ele>
        <time>2014-04-13T12:37:05Z</time>
      </trkpt>
      <trkpt lat="49.18951" lon="6.85772">
        <ele>228.4</ele>
        <time>2014-04-13T12:37:10Z</time>
      </trkpt>
      <trkpt lat="49.18946" lon="6.85779">
        <ele>229.1</ele>
        <time>2014-04-13T12:37:15Z</time>
      </trkpt>
      <trkpt lat="49.18941" lon="6.85787">
        <ele>228.8</ele>
        <time>2014-04-13T12:37:20Z</time>
      </trkpt>
      <trkpt lat="49.18931" lon="6.85803">
        <ele>229.4</ele>
        <time>2014-04-13T12:37:30Z</time>
      </trkpt>
      <trkpt lat="49.18926" lon="6.85811">
        <ele>229.1</ele>
        <time>2014-04-13T12:37:35Z</time>
      </trkpt>
      <trkpt lat="49.18921" lon="6.85819">
        <ele>229.3</ele>
        <time>2014-04-13T12:37:40Z</time>
      </trkpt>
      <trkpt lat="49.18916" lon="6.85828">
        <ele>228.9</ele>
        <time>2014-04-13T12:37:45Z</time>
      </trkpt>
      <trkpt lat="49.18911" lon="6.85837">
        <ele>227.7</ele>
        <time>2014-04-13T12:37:50Z</time>
      </trkpt>
      <trkpt lat="49.18905" lon="6.85846">
        <ele>228.6</ele>
        <time>2014-04-13T12:37:55Z</time>
      </trkpt>
      <trkpt lat="49.18899" lon="6.85855">
        <ele>228.2</ele>
        <time>2014-04-13T12:38:00Z</time>
      </trkpt>
      <trkpt lat="49.18894" lon="6.85865">
        <ele>228.3</ele>
        <time>2014-04-13T12:38:05Z</time>
      </trkpt>
      <trkpt lat="49.18889" lon="6.85874">
        <ele>228</ele>
        <time>2014-04-13T12:38:10Z</time>
      </trkpt>
      <trkpt lat="49.18885" lon="6.85882">
        <ele>228.5</ele>
        <time>2014-04-13T12:38:15Z</time>
      </trkpt>
      <trkpt lat="49.18881" lon="6.8589">
        <ele>228.4</ele>
        <time>2014-04-13T12:38:20Z</time>
      </trkpt>
      <trkpt lat="49.18877" lon="6.85899">
        <ele>228.6</ele>
        <time>2014-04-13T12:38:25Z</time>
      </trkpt>
      <trkpt lat="49.18868" lon="6.85916">
        <ele>228.9</ele>
        <time>2014-04-13T12:38:35Z</time>
      </trkpt>
      <trkpt lat="49.18863" lon="6.85925">
        <ele>227.4</ele>
        <time>2014-04-13T12:38:40Z</time>
      </trkpt>
      <trkpt lat="49.18858" lon="6.85935">
        <ele>228</ele>
        <time>2014-04-13T12:38:45Z</time>
      </trkpt>
      <trkpt lat="49.18852" lon="6.85944">
        <ele>227.9</ele>
        <time>2014-04-13T12:38:50Z</time>
      </trkpt>
      <trkpt lat="49.18848" lon="6.85954">
        <ele>228.6</ele>
        <time>2014-04-13T12:38:55Z</time>
      </trkpt>
      <trkpt lat="49.18843" lon="6.85962">
        <ele>229</ele>
        <time>2014-04-13T12:39:00Z</time>
      </trkpt>
      <trkpt lat="49.18838" lon="6.85972">
        <ele>228.8</ele>
        <time>2014-04-13T12:39:05Z</time>
      </trkpt>
      <trkpt lat="49.18832" lon="6.85981">
        <ele>228.6</ele>
        <time>2014-04-13T12:39:10Z</time>
      </trkpt>
      <trkpt lat="49.18829" lon="6.8599">
        <ele>228.4</ele>
        <time>2014-04-13T12:39:15Z</time>
      </trkpt>
      <trkpt lat="49.18824" lon="6.86001">
        <ele>227.8</ele>
        <time>2014-04-13T12:39:20Z</time>
      </trkpt>
      <trkpt lat="49.18819" lon="6.86011">
        <ele>228.1</ele>
        <time>2014-04-13T12:39:25Z</time>
      </trkpt>
      <trkpt lat="49.18814" lon="6.8602">
        <ele>228.2</ele>
        <time>2014-04-13T12:39:30Z</time>
      </trkpt>
      <trkpt lat="49.18807" lon="6.86041">
        <ele>228.3</ele>
        <time>2014-04-13T12:39:40Z</time>
      </trkpt>
      <trkpt lat="49.18803" lon="6.86052">
        <ele>228</ele>
        <time>2014-04-13T12:39:45Z</time>
      </trkpt>
      <trkpt lat="49.18799" lon="6.86062">
        <ele>228.1</ele>
        <time>2014-04-13T12:39:50Z</time>
      </trkpt>
      <trkpt lat="49.18796" lon="6.86074">
        <ele>228.2</ele>
        <time>2014-04-13T12:39:55Z</time>
      </trkpt>
      <trkpt lat="49.18793" lon="6.86083">
        <ele>229.3</ele>
        <time>2014-04-13T12:40:00Z</time>
      </trkpt>
      <trkpt lat="49.18791" lon="6.86092">
        <ele>229.7</ele>
        <time>2014-04-13T12:40:05Z</time>
      </trkpt>
      <trkpt lat="49.18788" lon="6.86103">
        <ele>229.6</ele>
        <time>2014-04-13T12:40:10Z</time>
      </trkpt>
      <trkpt lat="49.18786" lon="6.86112">
        <ele>228.4</ele>
        <time>2014-04-13T12:40:15Z</time>
      </trkpt>
      <trkpt lat="49.18784" lon="6.8612">
        <ele>228.2</ele>
        <time>2014-04-13T12:40:20Z</time>
      </trkpt>
      <trkpt lat="49.18782" lon="6.86131">
        <ele>228</ele>
        <time>2014-04-13T12:40:25Z</time>
      </trkpt>
      <trkpt lat="49.1878" lon="6.86141">
        <ele>228.2</ele>
        <time>2014-04-13T12:40:30Z</time>
      </trkpt>
      <trkpt lat="49.18779" lon="6.86152">
        <ele>228.9</ele>
        <time>2014-04-13T12:40:35Z</time>
      </trkpt>
      <trkpt lat="49.18774" lon="6.86176">
        <ele>228.8</ele>
        <time>2014-04-13T12:40:45Z</time>
      </trkpt>
      <trkpt lat="49.18772" lon="6.86186">
        <ele>228.3</ele>
        <time>2014-04-13T12:40:50Z</time>
      </trkpt>
      <trkpt lat="49.18771" lon="6.86197">
        <ele>229.1</ele>
        <time>2014-04-13T12:40:55Z</time>
      </trkpt>
      <trkpt lat="49.1877" lon="6.86207">
        <ele>229.6</ele>
        <time>2014-04-13T12:41:00Z</time>
      </trkpt>
      <trkpt lat="49.18769" lon="6.86218">
        <ele>229.9</ele>
        <time>2014-04-13T12:41:05Z</time>
      </trkpt>
      <trkpt lat="49.18767" lon="6.86229">
        <ele>230.1</ele>
        <time>2014-04-13T12:41:10Z</time>
      </trkpt>
      <trkpt lat="49.18766" lon="6.86241">
        <ele>229.3</ele>
        <time>2014-04-13T12:41:15Z</time>
      </trkpt>
      <trkpt lat="49.18764" lon="6.86252">
        <ele>228.7</ele>
        <time>2014-04-13T12:41:20Z</time>
      </trkpt>
      <trkpt lat="49.18763" lon="6.86263">
        <ele>229</ele>
        <time>2014-04-13T12:41:25Z</time>
      </trkpt>
      <trkpt lat="49.18762" lon="6.86274">
        <ele>230.1</ele>
        <time>2014-04-13T12:41:30Z</time>
      </trkpt>
      <trkpt lat="49.18761" lon="6.86285">
        <ele>229.3</ele>
        <time>2014-04-13T12:41:35Z</time>
      </trkpt>
      <trkpt lat="49.1876" lon="6.86295">
        <ele>229.1</ele>
        <time>2014-04-13T12:41:40Z</time>
      </trkpt>
      <trkpt lat="49.18758" lon="6.86315">
        <ele>229.6</ele>
        <time>2014-04-13T12:41:50Z</time>
      </trkpt>
      <trkpt lat="49.18757" lon="6.86326">
        <ele>230.2</ele>
        <time>2014-04-13T12:41:55Z</time>
      </trkpt>
      <trkpt lat="49.18757" lon="6.86337">
        <ele>229</ele>
        <time>2014-04-13T12:42:00Z</time>
      </trkpt>
      <trkpt lat="49.18757" lon="6.86348">
        <ele>229.4</ele>
        <time>2014-04-13T12:42:05Z</time>
      </trkpt>
      <trkpt lat="49.18757" lon="6.86358">
        <ele>229.5</ele>
        <time>2014-04-13T12:42:10Z</time>
      </trkpt>
      <trkpt lat="49.18757" lon="6.86367">
        <ele>229.4</ele>
        <time>2014-04-13T12:42:15Z</time>
      </trkpt>
      <trkpt lat="49.18757" lon="6.86377">
        <ele>228.6</ele>
        <time>2014-04-13T12:42:20Z</time>
      </trkpt>
      <trkpt lat="49.18758" lon="6.86387">
        <ele>229.4</ele>
        <time>2014-04-13T12:42:25Z</time>
      </trkpt>
      <trkpt lat="49.18757" lon="6.86397">
        <ele>229</ele>
        <time>2014-04-13T12:42:30Z</time>
      </trkpt>
      <trkpt lat="49.18757" lon="6.86407">
        <ele>229.8</ele>
        <time>2014-04-13T12:42:35Z</time>
      </trkpt>
      <trkpt lat="49.18757" lon="6.86418">
        <ele>229.7</ele>
        <time>2014-04-13T12:42:40Z</time>
      </trkpt>
      <trkpt lat="49.18758" lon="6.86429">
        <ele>229</ele>
        <time>2014-04-13T12:42:45Z</time>
      </trkpt>
      <trkpt lat="49.18758" lon="6.86453">
        <ele>230</ele>
        <time>2014-04-13T12:42:55Z</time>
      </trkpt>
      <trkpt lat="49.18759" lon="6.86465">
        <ele>229.4</ele>
        <time>2014-04-13T12:43:00Z</time>
      </trkpt>
      <trkpt lat="49.1876" lon="6.86477">
        <ele>229.5</ele>
        <time>2014-04-13T12:43:05Z</time>
      </trkpt>
      <trkpt lat="49.18761" lon="6.86488">
        <ele>229.2</ele>
        <time>2014-04-13T12:43:10Z</time>
      </trkpt>
      <trkpt lat="49.18763" lon="6.86499">
        <ele>228.9</ele>
        <time>2014-04-13T12:43:15Z</time>
      </trkpt>
      <trkpt lat="49.18764" lon="6.86509">
        <ele>229.5</ele>
        <time>2014-04-13T12:43:20Z</time>
      </trkpt>
      <trkpt lat="49.18765" lon="6.86519">
        <ele>229</ele>
        <time>2014-04-13T12:43:25Z</time>
      </trkpt>
      <trkpt lat="49.18768" lon="6.86528">
        <ele>229.5</ele>
        <time>2014-04-13T12:43:30Z</time>
      </trkpt>
      <trkpt lat="49.18769" lon="6.86539">
        <ele>229.4</ele>
        <time>2014-04-13T12:43:35Z</time>
      </trkpt>
      <trkpt lat="49.1877" lon="6.8655">
        <ele>229.7</ele>
        <time>2014-04-13T12:43:40Z</time>
      </trkpt>
      <trkpt lat="49.18771" lon="6.86562">
        <ele>230.2</ele>
        <time>2014-04-13T12:43:45Z</time>
      </trkpt>
      <trkpt lat="49.18772" lon="6.86573">
        <ele>229.8</ele>
        <time>2014-04-13T12:43:50Z</time>
      </trkpt>
      <trkpt lat="49.18777" lon="6.86597">
        <ele>228.9</ele>
        <time>2014-04-13T12:44:00Z</time>
      </trkpt>
      <trkpt lat="49.18778" lon="6.86607">
        <ele>228.9</ele>
        <time>2014-04-13T12:44:05Z</time>
      </trkpt>
      <trkpt lat="49.18781" lon="6.86616">
        <ele>229.5</ele>
        <time>2014-04-13T12:44:10Z</time>
      </trkpt>
      <trkpt lat="49.18784" lon="6.86626">
        <ele>228.8</ele>
        <time>2014-04-13T12:44:15Z</time>
      </trkpt>
      <trkpt lat="49.18786" lon="6.86637">
        <ele>228.8</ele>
        <time>2014-04-13T12:44:20Z</time>
      </trkpt>
      <trkpt lat="49.1879" lon="6.86647">
        <ele>229</ele>
        <time>2014-04-13T12:44:25Z</time>
      </trkpt>
      <trkpt lat="49.18793" lon="6.86658">
        <ele>229.3</ele>
        <time>2014-04-13T12:44:30Z</time>
      </trkpt>
      <trkpt lat="49.18797" lon="6.86669">
        <ele>228.9</ele>
        <time>2014-04-13T12:44:35Z</time>
      </trkpt>
      <trkpt lat="49.188" lon="6.86681">
        <ele>229.1</ele>
        <time>2014-04-13T12:44:40Z</time>
      </trkpt>
      <trkpt lat="49.18804" lon="6.86692">
        <ele>228.8</ele>
        <time>2014-04-13T12:44:45Z</time>
      </trkpt>
      <trkpt lat="49.18808" lon="6.86702">
        <ele>229.4</ele>
        <time>2014-04-13T12:44:50Z</time>
      </trkpt>
      <trkpt lat="49.1881" lon="6.86712">
        <ele>229.7</ele>
        <time>2014-04-13T12:44:55Z</time>
      </trkpt>
      <trkpt lat="49.18814" lon="6.8673">
        <ele>229.6</ele>
        <time>2014-04-13T12:45:05Z</time>
      </trkpt>
      <trkpt lat="49.18816" lon="6.86739">
        <ele>229.2</ele>
        <time>2014-04-13T12:45:10Z</time>
      </trkpt>
      <trkpt lat="49.18819" lon="6.86748">
        <ele>229</ele>
        <time>2014-04-13T12:45:15Z</time>
      </trkpt>
      <trkpt lat="49.18821" lon="6.86756">
        <ele>229.8</ele>
        <time>2014-04-13T12:45:20Z</time>
      </trkpt>
      <trkpt lat="49.18824" lon="6.86763">
        <ele>229.8</ele>
        <time>2014-04-13T12:45:25Z</time>
      </trkpt>
      <trkpt lat="49.18828" lon="6.8677">
        <ele>229.7</ele>
        <time>2014-04-13T12:45:30Z</time>
      </trkpt>
      <trkpt lat="49.18832" lon="6.86777">
        <ele>228.7</ele>
        <time>2014-04-13T12:45:35Z</time>
      </trkpt>
      <trkpt lat="49.18835" lon="6.86784">
        <ele>229.6</ele>
        <time>2014-04-13T12:45:40Z</time>
      </trkpt>
      <trkpt lat="49.18835" lon="6.86791">
        <ele>229.2</ele>
        <time>2014-04-13T12:45:45Z</time>
      </trkpt>
      <trkpt lat="49.18833" lon="6.86798">
        <ele>228</ele>
        <time>2014-04-13T12:45:50Z</time>
      </trkpt>
      <trkpt lat="49.18828" lon="6.86803">
        <ele>227.3</ele>
        <time>2014-04-13T12:45:55Z</time>
      </trkpt>
      <trkpt lat="49.18823" lon="6.86806">
        <ele>226.5</ele>
        <time>2014-04-13T12:46:00Z</time>
      </trkpt>
      <trkpt lat="49.18811" lon="6.86809">
        <ele>225.2</ele>
        <time>2014-04-13T12:46:10Z</time>
      </trkpt>
      <trkpt lat="49.18804" lon="6.86813">
        <ele>224.2</ele>
        <time>2014-04-13T12:46:15Z</time>
      </trkpt>
      <trkpt lat="49.18799" lon="6.86817">
        <ele>224.3</ele>
        <time>2014-04-13T12:46:20Z</time>
      </trkpt>
      <trkpt lat="49.18793" lon="6.86818">
        <ele>223.3</ele>
        <time>2014-04-13T12:46:25Z</time>
      </trkpt>
      <trkpt lat="49.18786" lon="6.8682">
        <ele>221.8</ele>
        <time>2014-04-13T12:46:30Z</time>
      </trkpt>
      <trkpt lat="49.18779" lon="6.86818">
        <ele>220.9</ele>
        <time>2014-04-13T12:46:35Z</time>
      </trkpt>
      <trkpt lat="49.18772" lon="6.86816">
        <ele>221.1</ele>
        <time>2014-04-13T12:46:40Z</time>
      </trkpt>
      <trkpt lat="49.18766" lon="6.86814">
        <ele>221.3</ele>
        <time>2014-04-13T12:46:45Z</time>
      </trkpt>
      <trkpt lat="49.18759" lon="6.8681">
        <ele>221.3</ele>
        <time>2014-04-13T12:46:50Z</time>
      </trkpt>
      <trkpt lat="49.18753" lon="6.86807">
        <ele>221</ele>
        <time>2014-04-13T12:46:55Z</time>
      </trkpt>
      <trkpt lat="49.18746" lon="6.86802">
        <ele>220.7</ele>
        <time>2014-04-13T12:47:00Z</time>
      </trkpt>
      <trkpt lat="49.18738" lon="6.86796">
        <ele>220.2</ele>
        <time>2014-04-13T12:47:05Z</time>
      </trkpt>
      <trkpt lat="49.18723" lon="6.86785">
        <ele>219.6</ele>
        <time>2014-04-13T12:47:15Z</time>
      </trkpt>
      <trkpt lat="49.18716" lon="6.86779">
        <ele>219.1</ele>
        <time>2014-04-13T12:47:20Z</time>
      </trkpt>
      <trkpt lat="49.18709" lon="6.86774">
        <ele>220.8</ele>
        <time>2014-04-13T12:47:25Z</time>
      </trkpt>
      <trkpt lat="49.18704" lon="6.86767">
        <ele>220.1</ele>
        <time>2014-04-13T12:47:30Z</time>
      </trkpt>
      <trkpt lat="49.18697" lon="6.8676">
        <ele>219.9</ele>
        <time>2014-04-13T12:47:35Z</time>
      </trkpt>
      <trkpt lat="49.1869" lon="6.86754">
        <ele>219.7</ele>
        <time>2014-04-13T12:47:40Z</time>
      </trkpt>
      <trkpt lat="49.18684" lon="6.86748">
        <ele>220.1</ele>
        <time>2014-04-13T12:47:45Z</time>
      </trkpt>
      <trkpt lat="49.18677" lon="6.86742">
        <ele>220.5</ele>
        <time>2014-04-13T12:47:50Z</time>
      </trkpt>
      <trkpt lat="49.18671" lon="6.86737">
        <ele>219.8</ele>
        <time>2014-04-13T12:47:55Z</time>
      </trkpt>
      <trkpt lat="49.18665" lon="6.86733">
        <ele>219.8</ele>
        <time>2014-04-13T12:48:00Z</time>
      </trkpt>
      <trkpt lat="49.18659" lon="6.86728">
        <ele>219.8</ele>
        <time>2014-04-13T12:48:05Z</time>
      </trkpt>
      <trkpt lat="49.18653" lon="6.86722">
        <ele>220.2</ele>
        <time>2014-04-13T12:48:10Z</time>
      </trkpt>
      <trkpt lat="49.18641" lon="6.8671">
        <ele>218.9</ele>
        <time>2014-04-13T12:48:20Z</time>
      </trkpt>
      <trkpt lat="49.18635" lon="6.86704">
        <ele>219.2</ele>
        <time>2014-04-13T12:48:25Z</time>
      </trkpt>
      <trkpt lat="49.18629" lon="6.867">
        <ele>218.5</ele>
        <time>2014-04-13T12:48:30Z</time>
      </trkpt>
      <trkpt lat="49.18623" lon="6.86694">
        <ele>218.5</ele>
        <time>2014-04-13T12:48:35Z</time>
      </trkpt>
      <trkpt lat="49.18617" lon="6.86688">
        <ele>219.4</ele>
        <time>2014-04-13T12:48:40Z</time>
      </trkpt>
      <trkpt lat="49.18611" lon="6.86682">
        <ele>218.1</ele>
        <time>2014-04-13T12:48:45Z</time>
      </trkpt>
      <trkpt lat="49.18605" lon="6.86677">
        <ele>219</ele>
        <time>2014-04-13T12:48:50Z</time>
      </trkpt>
      <trkpt lat="49.18598" lon="6.86671">
        <ele>218.2</ele>
        <time>2014-04-13T12:48:55Z</time>
      </trkpt>
      <trkpt lat="49.18591" lon="6.86666">
        <ele>217.8</ele>
        <time>2014-04-13T12:49:00Z</time>
      </trkpt>
      <trkpt lat="49.18584" lon="6.86661">
        <ele>217.7</ele>
        <time>2014-04-13T12:49:05Z</time>
      </trkpt>
      <trkpt lat="49.18576" lon="6.86655">
        <ele>219.1</ele>
        <time>2014-04-13T12:49:10Z</time>
      </trkpt>
      <trkpt lat="49.18569" lon="6.86648">
        <ele>219.4</ele>
        <time>2014-04-13T12:49:15Z</time>
      </trkpt>
      <trkpt lat="49.18557" lon="6.86636">
        <ele>218.5</ele>
        <time>2014-04-13T12:49:25Z</time>
      </trkpt>
      <trkpt lat="49.18551" lon="6.86631">
        <ele>218</ele>
        <time>2014-04-13T12:49:30Z</time>
      </trkpt>
      <trkpt lat="49.18546" lon="6.86626">
        <ele>218.3</ele>
        <time>2014-04-13T12:49:35Z</time>
      </trkpt>
      <trkpt lat="49.18541" lon="6.86619">
        <ele>217.2</ele>
        <time>2014-04-13T12:49:40Z</time>
      </trkpt>
      <trkpt lat="49.18536" lon="6.86612">
        <ele>217.7</ele>
        <time>2014-04-13T12:49:45Z</time>
      </trkpt>
      <trkpt lat="49.1853" lon="6.86607">
        <ele>218.8</ele>
        <time>2014-04-13T12:49:50Z</time>
      </trkpt>
      <trkpt lat="49.18524" lon="6.86602">
        <ele>218.9</ele>
        <time>2014-04-13T12:49:55Z</time>
      </trkpt>
      <trkpt lat="49.18518" lon="6.86596">
        <ele>218.1</ele>
        <time>2014-04-13T12:50:00Z</time>
      </trkpt>
      <trkpt lat="49.18511" lon="6.86592">
        <ele>218.2</ele>
        <time>2014-04-13T12:50:05Z</time>
      </trkpt>
      <trkpt lat="49.18504" lon="6.86588">
        <ele>218.1</ele>
        <time>2014-04-13T12:50:10Z</time>
      </trkpt>
      <trkpt lat="49.18497" lon="6.86583">
        <ele>218</ele>
        <time>2014-04-13T12:50:15Z</time>
      </trkpt>
      <trkpt lat="49.1849" lon="6.86578">
        <ele>218</ele>
        <time>2014-04-13T12:50:20Z</time>
      </trkpt>
      <trkpt lat="49.18475" lon="6.86569">
        <ele>218.4</ele>
        <time>2014-04-13T12:50:30Z</time>
      </trkpt>
      <trkpt lat="49.18469" lon="6.86564">
        <ele>217.3</ele>
        <time>2014-04-13T12:50:35Z</time>
      </trkpt>
      <trkpt lat="49.18463" lon="6.86559">
        <ele>216.9</ele>
        <time>2014-04-13T12:50:40Z</time>
      </trkpt>
      <trkpt lat="49.18456" lon="6.86554">
        <ele>216.7</ele>
        <time>2014-04-13T12:50:45Z</time>
      </trkpt>
      <trkpt lat="49.18449" lon="6.86551">
        <ele>216.6</ele>
        <time>2014-04-13T12:50:50Z</time>
      </trkpt>
      <trkpt lat="49.18442" lon="6.86547">
        <ele>216.7</ele>
        <time>2014-04-13T12:50:55Z</time>
      </trkpt>
      <trkpt lat="49.18435" lon="6.86544">
        <ele>216.2</ele>
        <time>2014-04-13T12:51:00Z</time>
      </trkpt>
      <trkpt lat="49.18428" lon="6.86541">
        <ele>215.6</ele>
        <time>2014-04-13T12:51:05Z</time>
      </trkpt>
      <trkpt lat="49.18421" lon="6.86538">
        <ele>216.7</ele>
        <time>2014-04-13T12:51:10Z</time>
      </trkpt>
      <trkpt lat="49.18415" lon="6.86534">
        <ele>216.7</ele>
        <time>2014-04-13T12:51:15Z</time>
      </trkpt>
      <trkpt lat="49.18408" lon="6.86531">
        <ele>216.6</ele>
        <time>2014-04-13T12:51:20Z</time>
      </trkpt>
      <trkpt lat="49.18401" lon="6.86528">
        <ele>215.6</ele>
        <time>2014-04-13T12:51:25Z</time>
      </trkpt>
      <trkpt lat="49.18383" lon="6.86524">
        <ele>215.7</ele>
        <time>2014-04-13T12:51:35Z</time>
      </trkpt>
      <trkpt lat="49.18376" lon="6.86522">
        <ele>215.6</ele>
        <time>2014-04-13T12:51:40Z</time>
      </trkpt>
      <trkpt lat="49.18369" lon="6.8652">
        <ele>216.3</ele>
        <time>2014-04-13T12:51:45Z</time>
      </trkpt>
      <trkpt lat="49.18362" lon="6.86518">
        <ele>215.7</ele>
        <time>2014-04-13T12:51:50Z</time>
      </trkpt>
      <trkpt lat="49.18354" lon="6.86515">
        <ele>215.6</ele>
        <time>2014-04-13T12:51:55Z</time>
      </trkpt>
      <trkpt lat="49.18347" lon="6.86514">
        <ele>216.2</ele>
        <time>2014-04-13T12:52:00Z</time>
      </trkpt>
      <trkpt lat="49.18339" lon="6.86513">
        <ele>215.1</ele>
        <time>2014-04-13T12:52:05Z</time>
      </trkpt>
      <trkpt lat="49.18333" lon="6.86512">
        <ele>215.8</ele>
        <time>2014-04-13T12:52:10Z</time>
      </trkpt>
      <trkpt lat="49.18327" lon="6.86509">
        <ele>216.7</ele>
        <time>2014-04-13T12:52:15Z</time>
      </trkpt>
      <trkpt lat="49.1832" lon="6.86508">
        <ele>216.2</ele>
        <time>2014-04-13T12:52:20Z</time>
      </trkpt>
      <trkpt lat="49.18314" lon="6.86507">
        <ele>215.2</ele>
        <time>2014-04-13T12:52:25Z</time>
      </trkpt>
      <trkpt lat="49.18307" lon="6.86506">
        <ele>214.6</ele>
        <time>2014-04-13T12:52:30Z</time>
      </trkpt>
      <trkpt lat="49.18292" lon="6.86504">
        <ele>214.7</ele>
        <time>2014-04-13T12:52:40Z</time>
      </trkpt>
      <trkpt lat="49.18285" lon="6.86503">
        <ele>215.4</ele>
        <time>2014-04-13T12:52:45Z</time>
      </trkpt>
      <trkpt lat="49.18278" lon="6.86502">
        <ele>215.6</ele>
        <time>2014-04-13T12:52:50Z</time>
      </trkpt>
      <trkpt lat="49.18271" lon="6.86501">
        <ele>215</ele>
        <time>2014-04-13T12:52:55Z</time>
      </trkpt>
      <trkpt lat="49.18263" lon="6.86499">
        <ele>214.8</ele>
        <time>2014-04-13T12:53:00Z</time>
      </trkpt>
      <trkpt lat="49.18256" lon="6.86497">
        <ele>214.3</ele>
        <time>2014-04-13T12:53:05Z</time>
      </trkpt>
      <trkpt lat="49.18249" lon="6.86496">
        <ele>214.6</ele>
        <time>2014-04-13T12:53:10Z</time>
      </trkpt>
      <trkpt lat="49.18242" lon="6.86495">
        <ele>214.4</ele>
        <time>2014-04-13T12:53:15Z</time>
      </trkpt>
      <trkpt lat="49.18234" lon="6.86494">
        <ele>214.1</ele>
        <time>2014-04-13T12:53:20Z</time>
      </trkpt>
      <trkpt lat="49.18225" lon="6.86492">
        <ele>214.8</ele>
        <time>2014-04-13T12:53:25Z</time>
      </trkpt>
      <trkpt lat="49.18217" lon="6.86491">
        <ele>214.6</ele>
        <time>2014-04-13T12:53:30Z</time>
      </trkpt>
      <trkpt lat="49.18208" lon="6.86491">
        <ele>213.9</ele>
        <time>2014-04-13T12:53:35Z</time>
      </trkpt>
      <trkpt lat="49.1819" lon="6.8649">
        <ele>213.7</ele>
        <time>2014-04-13T12:53:45Z</time>
      </trkpt>
      <trkpt lat="49.18182" lon="6.86489">
        <ele>213.3</ele>
        <time>2014-04-13T12:53:50Z</time>
      </trkpt>
      <trkpt lat="49.18174" lon="6.86487">
        <ele>213.4</ele>
        <time>2014-04-13T12:53:55Z</time>
      </trkpt>
      <trkpt lat="49.18167" lon="6.86486">
        <ele>213.7</ele>
        <time>2014-04-13T12:54:00Z</time>
      </trkpt>
      <trkpt lat="49.18159" lon="6.86484">
        <ele>213.3</ele>
        <time>2014-04-13T12:54:05Z</time>
      </trkpt>
      <trkpt lat="49.18151" lon="6.86483">
        <ele>212.9</ele>
        <time>2014-04-13T12:54:10Z</time>
      </trkpt>
      <trkpt lat="49.18143" lon="6.86482">
        <ele>212.8</ele>
        <time>2014-04-13T12:54:15Z</time>
      </trkpt>
      <trkpt lat="49.18137" lon="6.8648">
        <ele>213.2</ele>
        <time>2014-04-13T12:54:20Z</time>
      </trkpt>
      <trkpt lat="49.1813" lon="6.8648">
        <ele>214</ele>
        <time>2014-04-13T12:54:25Z</time>
      </trkpt>
      <trkpt lat="49.18123" lon="6.86477">
        <ele>213.9</ele>
        <time>2014-04-13T12:54:30Z</time>
      </trkpt>
      <trkpt lat="49.18119" lon="6.8647">
        <ele>213.5</ele>
        <time>2014-04-13T12:54:35Z</time>
      </trkpt>
      <trkpt lat="49.18118" lon="6.86458">
        <ele>213.7</ele>
        <time>2014-04-13T12:54:40Z</time>
      </trkpt>
      <trkpt lat="49.18109" lon="6.86443">
        <ele>213.3</ele>
        <time>2014-04-13T12:54:50Z</time>
      </trkpt>
      <trkpt lat="49.18103" lon="6.86439">
        <ele>212.4</ele>
        <time>2014-04-13T12:54:55Z</time>
      </trkpt>
      <trkpt lat="49.18096" lon="6.86434">
        <ele>212.5</ele>
        <time>2014-04-13T12:55:00Z</time>
      </trkpt>
      <trkpt lat="49.1809" lon="6.86429">
        <ele>213.1</ele>
        <time>2014-04-13T12:55:05Z</time>
      </trkpt>
      <trkpt lat="49.18083" lon="6.86422">
        <ele>212.7</ele>
        <time>2014-04-13T12:55:10Z</time>
      </trkpt>
      <trkpt lat="49.18077" lon="6.86416">
        <ele>212.7</ele>
        <time>2014-04-13T12:55:15Z</time>
      </trkpt>
      <trkpt lat="49.18069" lon="6.8641">
        <ele>212.3</ele>
        <time>2014-04-13T12:55:20Z</time>
      </trkpt>
      <trkpt lat="49.18062" lon="6.86406">
        <ele>211.7</ele>
        <time>2014-04-13T12:55:25Z</time>
      </trkpt>
      <trkpt lat="49.18055" lon="6.86402">
        <ele>212.2</ele>
        <time>2014-04-13T12:55:30Z</time>
      </trkpt>
      <trkpt lat="49.18046" lon="6.86398">
        <ele>211.8</ele>
        <time>2014-04-13T12:55:35Z</time>
      </trkpt>
      <trkpt lat="49.18039" lon="6.86395">
        <ele>212.1</ele>
        <time>2014-04-13T12:55:40Z</time>
      </trkpt>
      <trkpt lat="49.18031" lon="6.86391">
        <ele>211.9</ele>
        <time>2014-04-13T12:55:45Z</time>
      </trkpt>
      <trkpt lat="49.18016" lon="6.86385">
        <ele>211.7</ele>
        <time>2014-04-13T12:55:55Z</time>
      </trkpt>
      <trkpt lat="49.18009" lon="6.86382">
        <ele>211.6</ele>
        <time>2014-04-13T12:56:00Z</time>
      </trkpt>
      <trkpt lat="49.18001" lon="6.8638">
        <ele>211.8</ele>
        <time>2014-04-13T12:56:05Z</time>
      </trkpt>
      <trkpt lat="49.17993" lon="6.86377">
        <ele>212.7</ele>
        <time>2014-04-13T12:56:10Z</time>
      </trkpt>
      <trkpt lat="49.17986" lon="6.86375">
        <ele>212.9</ele>
        <time>2014-04-13T12:56:15Z</time>
      </trkpt>
      <trkpt lat="49.17979" lon="6.86372">
        <ele>212.6</ele>
        <time>2014-04-13T12:56:20Z</time>
      </trkpt>
      <trkpt lat="49.17971" lon="6.86369">
        <ele>212.4</ele>
        <time>2014-04-13T12:56:25Z</time>
      </trkpt>
      <trkpt lat="49.17964" lon="6.86368">
        <ele>211.8</ele>
        <time>2014-04-13T12:56:30Z</time>
      </trkpt>
      <trkpt lat="49.17956" lon="6.86365">
        <ele>212.2</ele>
        <time>2014-04-13T12:56:35Z</time>
      </trkpt>
      <trkpt lat="49.17949" lon="6.86364">
        <ele>212</ele>
        <time>2014-04-13T12:56:40Z</time>
      </trkpt>
      <trkpt lat="49.17942" lon="6.86362">
        <ele>212</ele>
        <time>2014-04-13T12:56:45Z</time>
      </trkpt>
      <trkpt lat="49.17935" lon="6.86361">
        <ele>211.5</ele>
        <time>2014-04-13T12:56:50Z</time>
      </trkpt>
      <trkpt lat="49.17922" lon="6.86357">
        <ele>212.1</ele>
        <time>2014-04-13T12:57:00Z</time>
      </trkpt>
      <trkpt lat="49.17915" lon="6.86354">
        <ele>211.8</ele>
        <time>2014-04-13T12:57:05Z</time>
      </trkpt>
      <trkpt lat="49.17908" lon="6.86351">
        <ele>212.1</ele>
        <time>2014-04-13T12:57:10Z</time>
      </trkpt>
      <trkpt lat="49.17901" lon="6.86346">
        <ele>211.9</ele>
        <time>2014-04-13T12:57:15Z</time>
      </trkpt>
      <trkpt lat="49.17894" lon="6.86341">
        <ele>212.5</ele>
        <time>2014-04-13T12:57:20Z</time>
      </trkpt>
      <trkpt lat="49.17888" lon="6.86336">
        <ele>211.9</ele>
        <time>2014-04-13T12:57:25Z</time>
      </trkpt>
      <trkpt lat="49.17881" lon="6.86333">
        <ele>211.5</ele>
        <time>2014-04-13T12:57:30Z</time>
      </trkpt>
      <trkpt lat="49.17875" lon="6.86331">
        <ele>211.4</ele>
        <time>2014-04-13T12:57:35Z</time>
      </trkpt>
      <trkpt lat="49.17869" lon="6.8633">
        <ele>212.3</ele>
        <time>2014-04-13T12:57:40Z</time>
      </trkpt>
      <trkpt lat="49.17863" lon="6.86329">
        <ele>211.8</ele>
        <time>2014-04-13T12:57:45Z</time>
      </trkpt>
      <trkpt lat="49.17856" lon="6.86329">
        <ele>211.3</ele>
        <time>2014-04-13T12:57:50Z</time>
      </trkpt>
      <trkpt lat="49.17849" lon="6.86327">
        <ele>211.1</ele>
        <time>2014-04-13T12:57:55Z</time>
      </trkpt>
      <trkpt lat="49.17835" lon="6.86326">
        <ele>212</ele>
        <time>2014-04-13T12:58:05Z</time>
      </trkpt>
      <trkpt lat="49.17828" lon="6.86325">
        <ele>212.2</ele>
        <time>2014-04-13T12:58:10Z</time>
      </trkpt>
      <trkpt lat="49.1782" lon="6.86323">
        <ele>211.4</ele>
        <time>2014-04-13T12:58:15Z</time>
      </trkpt>
      <trkpt lat="49.17814" lon="6.86319">
        <ele>211.9</ele>
        <time>2014-04-13T12:58:20Z</time>
      </trkpt>
      <trkpt lat="49.17808" lon="6.86314">
        <ele>212.4</ele>
        <time>2014-04-13T12:58:25Z</time>
      </trkpt>
      <trkpt lat="49.17801" lon="6.8631">
        <ele>212.1</ele>
        <time>2014-04-13T12:58:30Z</time>
      </trkpt>
      <trkpt lat="49.17794" lon="6.86305">
        <ele>212.4</ele>
        <time>2014-04-13T12:58:35Z</time>
      </trkpt>
      <trkpt lat="49.17787" lon="6.86301">
        <ele>211.6</ele>
        <time>2014-04-13T12:58:40Z</time>
      </trkpt>
      <trkpt lat="49.1778" lon="6.86297">
        <ele>211.4</ele>
        <time>2014-04-13T12:58:45Z</time>
      </trkpt>
      <trkpt lat="49.17774" lon="6.86292">
        <ele>211.9</ele>
        <time>2014-04-13T12:58:50Z</time>
      </trkpt>
      <trkpt lat="49.17767" lon="6.86287">
        <ele>211.3</ele>
        <time>2014-04-13T12:58:55Z</time>
      </trkpt>
      <trkpt lat="49.17761" lon="6.86281">
        <ele>211.4</ele>
        <time>2014-04-13T12:59:00Z</time>
      </trkpt>
      <trkpt lat="49.17753" lon="6.86262">
        <ele>210.3</ele>
        <time>2014-04-13T12:59:10Z</time>
      </trkpt>
      <trkpt lat="49.1775" lon="6.86252">
        <ele>210.8</ele>
        <time>2014-04-13T12:59:15Z</time>
      </trkpt>
      <trkpt lat="49.17749" lon="6.86242">
        <ele>210.8</ele>
        <time>2014-04-13T12:59:20Z</time>
      </trkpt>
      <trkpt lat="49.17748" lon="6.86231">
        <ele>211</ele>
        <time>2014-04-13T12:59:25Z</time>
      </trkpt>
      <trkpt lat="49.17747" lon="6.86221">
        <ele>211.7</ele>
        <time>2014-04-13T12:59:30Z</time>
      </trkpt>
      <trkpt lat="49.17745" lon="6.8621">
        <ele>211</ele>
        <time>2014-04-13T12:59:35Z</time>
      </trkpt>
      <trkpt lat="49.17741" lon="6.86199">
        <ele>210.4</ele>
        <time>2014-04-13T12:59:40Z</time>
      </trkpt>
      <trkpt lat="49.17737" lon="6.8619">
        <ele>209.6</ele>
        <time>2014-04-13T12:59:45Z</time>
      </trkpt>
      <trkpt lat="49.17732" lon="6.86181">
        <ele>210.6</ele>
        <time>2014-04-13T12:59:50Z</time>
      </trkpt>
      <trkpt lat="49.17727" lon="6.86171">
        <ele>209.8</ele>
        <time>2014-04-13T12:59:55Z</time>
      </trkpt>
      <trkpt lat="49.17722" lon="6.86162">
        <ele>211.2</ele>
        <time>2014-04-13T13:00:00Z</time>
      </trkpt>
      <trkpt lat="49.17716" lon="6.86153">
        <ele>210</ele>
        <time>2014-04-13T13:00:05Z</time>
      </trkpt>
      <trkpt lat="49.17704" lon="6.86136">
        <ele>210.3</ele>
        <time>2014-04-13T13:00:15Z</time>
      </trkpt>
      <trkpt lat="49.17698" lon="6.86128">
        <ele>210.4</ele>
        <time>2014-04-13T13:00:20Z</time>
      </trkpt>
      <trkpt lat="49.17691" lon="6.86122">
        <ele>210.7</ele>
        <time>2014-04-13T13:00:25Z</time>
      </trkpt>
      <trkpt lat="49.17683" lon="6.86113">
        <ele>210.2</ele>
        <time>2014-04-13T13:00:30Z</time>
      </trkpt>
      <trkpt lat="49.17678" lon="6.86104">
        <ele>210.6</ele>
        <time>2014-04-13T13:00:35Z</time>
      </trkpt>
      <trkpt lat="49.17674" lon="6.86095">
        <ele>211.2</ele>
        <time>2014-04-13T13:00:40Z</time>
      </trkpt>
      <trkpt lat="49.1767" lon="6.86086">
        <ele>211.6</ele>
        <time>2014-04-13T13:00:45Z</time>
      </trkpt>
      <trkpt lat="49.17666" lon="6.86078">
        <ele>211.5</ele>
        <time>2014-04-13T13:00:50Z</time>
      </trkpt>
      <trkpt lat="49.17661" lon="6.86069">
        <ele>211.2</ele>
        <time>2014-04-13T13:00:55Z</time>
      </trkpt>
      <trkpt lat="49.17655" lon="6.86062">
        <ele>211.5</ele>
        <time>2014-04-13T13:01:00Z</time>
      </trkpt>
      <trkpt lat="49.17649" lon="6.86054">
        <ele>211.1</ele>
        <time>2014-04-13T13:01:05Z</time>
      </trkpt>
      <trkpt lat="49.17644" lon="6.86047">
        <ele>210.6</ele>
        <time>2014-04-13T13:01:10Z</time>
      </trkpt>
      <trkpt lat="49.17631" lon="6.86036">
        <ele>211.9</ele>
        <time>2014-04-13T13:01:20Z</time>
      </trkpt>
      <trkpt lat="49.17626" lon="6.8603">
        <ele>210.7</ele>
        <time>2014-04-13T13:01:25Z</time>
      </trkpt>
      <trkpt lat="49.1762" lon="6.86025">
        <ele>210.9</ele>
        <time>2014-04-13T13:01:30Z</time>
      </trkpt>
      <trkpt lat="49.17614" lon="6.8602">
        <ele>211.5</ele>
        <time>2014-04-13T13:01:35Z</time>
      </trkpt>
      <trkpt lat="49.17608" lon="6.86015">
        <ele>211.1</ele>
        <time>2014-04-13T13:01:40Z</time>
      </trkpt>
      <trkpt lat="49.17602" lon="6.86011">
        <ele>211.7</ele>
        <time>2014-04-13T13:01:45Z</time>
      </trkpt>
      <trkpt lat="49.17596" lon="6.86007">
        <ele>212.5</ele>
        <time>2014-04-13T13:01:50Z</time>
      </trkpt>
      <trkpt lat="49.1759" lon="6.86002">
        <ele>211.6</ele>
        <time>2014-04-13T13:01:55Z</time>
      </trkpt>
      <trkpt lat="49.17583" lon="6.85998">
        <ele>211.9</ele>
        <time>2014-04-13T13:02:00Z</time>
      </trkpt>
      <trkpt lat="49.17577" lon="6.85992">
        <ele>211.5</ele>
        <time>2014-04-13T13:02:05Z</time>
      </trkpt>
      <trkpt lat="49.1757" lon="6.85987">
        <ele>211.1</ele>
        <time>2014-04-13T13:02:10Z</time>
      </trkpt>
      <trkpt lat="49.17564" lon="6.85981">
        <ele>210.9</ele>
        <time>2014-04-13T13:02:15Z</time>
      </trkpt>
      <trkpt lat="49.17548" lon="6.85973">
        <ele>209.8</ele>
        <time>2014-04-13T13:02:25Z</time>
      </trkpt>
      <trkpt lat="49.17541" lon="6.85969">
        <ele>209.7</ele>
        <time>2014-04-13T13:02:30Z</time>
      </trkpt>
      <trkpt lat="49.17535" lon="6.85965">
        <ele>209.5</ele>
        <time>2014-04-13T13:02:35Z</time>
      </trkpt>
      <trkpt lat="49.17525" lon="6.85961">
        <ele>209.2</ele>
        <time>2014-04-13T13:02:40Z</time>
      </trkpt>
      <trkpt lat="49.17518" lon="6.85957">
        <ele>208.6</ele>
        <time>2014-04-13T13:02:45Z</time>
      </trkpt>
      <trkpt lat="49.17511" lon="6.85955">
        <ele>208.8</ele>
        <time>2014-04-13T13:02:50Z</time>
      </trkpt>
      <trkpt lat="49.17504" lon="6.85953">
        <ele>207.7</ele>
        <time>2014-04-13T13:02:55Z</time>
      </trkpt>
      <trkpt lat="49.175" lon="6.85949">
        <ele>207.4</ele>
        <time>2014-04-13T13:03:00Z</time>
      </trkpt>
      <trkpt lat="49.17495" lon="6.85945">
        <ele>207.7</ele>
        <time>2014-04-13T13:03:05Z</time>
      </trkpt>
      <trkpt lat="49.17489" lon="6.85942">
        <ele>207.6</ele>
        <time>2014-04-13T13:03:10Z</time>
      </trkpt>
      <trkpt lat="49.17477" lon="6.85938">
        <ele>207.8</ele>
        <time>2014-04-13T13:03:15Z</time>
      </trkpt>
      <trkpt lat="49.1747" lon="6.85935">
        <ele>207.8</ele>
        <time>2014-04-13T13:03:20Z</time>
      </trkpt>
      <trkpt lat="49.17455" lon="6.8593">
        <ele>208.4</ele>
        <time>2014-04-13T13:03:30Z</time>
      </trkpt>
      <trkpt lat="49.17446" lon="6.8593">
        <ele>208.3</ele>
        <time>2014-04-13T13:03:35Z</time>
      </trkpt>
      <trkpt lat="49.17437" lon="6.85929">
        <ele>208</ele>
        <time>2014-04-13T13:03:40Z</time>
      </trkpt>
      <trkpt lat="49.17429" lon="6.85927">
        <ele>208.2</ele>
        <time>2014-04-13T13:03:45Z</time>
      </trkpt>
      <trkpt lat="49.17421" lon="6.85926">
        <ele>208.3</ele>
        <time>2014-04-13T13:03:50Z</time>
      </trkpt>
      <trkpt lat="49.17413" lon="6.85925">
        <ele>207.8</ele>
        <time>2014-04-13T13:03:55Z</time>
      </trkpt>
      <trkpt lat="49.17406" lon="6.85923">
        <ele>208.2</ele>
        <time>2014-04-13T13:04:00Z</time>
      </trkpt>
      <trkpt lat="49.17399" lon="6.8592">
        <ele>207.8</ele>
        <time>2014-04-13T13:04:05Z</time>
      </trkpt>
      <trkpt lat="49.17392" lon="6.85918">
        <ele>208</ele>
        <time>2014-04-13T13:04:10Z</time>
      </trkpt>
      <trkpt lat="49.17384" lon="6.85917">
        <ele>208</ele>
        <time>2014-04-13T13:04:15Z</time>
      </trkpt>
      <trkpt lat="49.17376" lon="6.85916">
        <ele>208.2</ele>
        <time>2014-04-13T13:04:20Z</time>
      </trkpt>
      <trkpt lat="49.17368" lon="6.85914">
        <ele>207.3</ele>
        <time>2014-04-13T13:04:25Z</time>
      </trkpt>
      <trkpt lat="49.17355" lon="6.85909">
        <ele>208</ele>
        <time>2014-04-13T13:04:35Z</time>
      </trkpt>
      <trkpt lat="49.17349" lon="6.85905">
        <ele>207.7</ele>
        <time>2014-04-13T13:04:40Z</time>
      </trkpt>
      <trkpt lat="49.17342" lon="6.85903">
        <ele>207.3</ele>
        <time>2014-04-13T13:04:45Z</time>
      </trkpt>
      <trkpt lat="49.17337" lon="6.85899">
        <ele>206.1</ele>
        <time>2014-04-13T13:04:50Z</time>
      </trkpt>
      <trkpt lat="49.17329" lon="6.85896">
        <ele>206.4</ele>
        <time>2014-04-13T13:04:55Z</time>
      </trkpt>
      <trkpt lat="49.1732" lon="6.85893">
        <ele>206.3</ele>
        <time>2014-04-13T13:05:00Z</time>
      </trkpt>
      <trkpt lat="49.17313" lon="6.85889">
        <ele>205.4</ele>
        <time>2014-04-13T13:05:05Z</time>
      </trkpt>
      <trkpt lat="49.17307" lon="6.85886">
        <ele>204.9</ele>
        <time>2014-04-13T13:05:10Z</time>
      </trkpt>
      <trkpt lat="49.17302" lon="6.85882">
        <ele>205.4</ele>
        <time>2014-04-13T13:05:15Z</time>
      </trkpt>
      <trkpt lat="49.17296" lon="6.85884">
        <ele>204.8</ele>
        <time>2014-04-13T13:05:20Z</time>
      </trkpt>
      <trkpt lat="49.17294" lon="6.85884">
        <ele>204.9</ele>
        <time>2014-04-13T13:05:25Z</time>
      </trkpt>
      <trkpt lat="49.17293" lon="6.85883">
        <ele>205.5</ele>
        <time>2014-04-13T13:05:30Z</time>
      </trkpt>
      <trkpt lat="49.1729" lon="6.8588">
        <ele>205.7</ele>
        <time>2014-04-13T13:05:40Z</time>
      </trkpt>
      <trkpt lat="49.1729" lon="6.8588">
        <ele>205.2</ele>
        <time>2014-04-13T13:05:45Z</time>
      </trkpt>
      <trkpt lat="49.17291" lon="6.8588">
        <ele>204.3</ele>
        <time>2014-04-13T13:05:50Z</time>
      </trkpt>
      <trkpt lat="49.17293" lon="6.8588">
        <ele>204.8</ele>
        <time>2014-04-13T13:05:55Z</time>
      </trkpt>
      <trkpt lat="49.17294" lon="6.85881">
        <ele>205.1</ele>
        <time>2014-04-13T13:06:00Z</time>
      </trkpt>
      <trkpt lat="49.17295" lon="6.85883">
        <ele>204.9</ele>
        <time>2014-04-13T13:06:05Z</time>
      </trkpt>
      <trkpt lat="49.17296" lon="6.85885">
        <ele>205.3</ele>
        <time>2014-04-13T13:06:10Z</time>
      </trkpt>
      <trkpt lat="49.17295" lon="6.85886">
        <ele>204.9</ele>
        <time>2014-04-13T13:06:15Z</time>
      </trkpt>
      <trkpt lat="49.17295" lon="6.85887">
        <ele>205.6</ele>
        <time>2014-04-13T13:06:20Z</time>
      </trkpt>
      <trkpt lat="49.17294" lon="6.85887">
        <ele>205.7</ele>
        <time>2014-04-13T13:06:25Z</time>
      </trkpt>
      <trkpt lat="49.17293" lon="6.85887">
        <ele>204.8</ele>
        <time>2014-04-13T13:06:30Z</time>
      </trkpt>
      <trkpt lat="49.17292" lon="6.85886">
        <ele>204.6</ele>
        <time>2014-04-13T13:06:35Z</time>
      </trkpt>
      <trkpt lat="49.1729" lon="6.85884">
        <ele>204.9</ele>
        <time>2014-04-13T13:06:45Z</time>
      </trkpt>
      <trkpt lat="49.17289" lon="6.85883">
        <ele>204.2</ele>
        <time>2014-04-13T13:06:50Z</time>
      </trkpt>
      <trkpt lat="49.17288" lon="6.85881">
        <ele>204.6</ele>
        <time>2014-04-13T13:06:55Z</time>
      </trkpt>
      <trkpt lat="49.17287" lon="6.8588">
        <ele>205.9</ele>
        <time>2014-04-13T13:07:00Z</time>
      </trkpt>
      <trkpt lat="49.17286" lon="6.8588">
        <ele>205.9</ele>
        <time>2014-04-13T13:07:05Z</time>
      </trkpt>
      <trkpt lat="49.17285" lon="6.85879">
        <ele>205.2</ele>
        <time>2014-04-13T13:07:10Z</time>
      </trkpt>
      <trkpt lat="49.17284" lon="6.85879">
        <ele>205.1</ele>
        <time>2014-04-13T13:07:15Z</time>
      </trkpt>
      <trkpt lat="49.17283" lon="6.85878">
        <ele>204.7</ele>
        <time>2014-04-13T13:07:20Z</time>
      </trkpt>
      <trkpt lat="49.17282" lon="6.85877">
        <ele>204.1</ele>
        <time>2014-04-13T13:07:25Z</time>
      </trkpt>
      <trkpt lat="49.17281" lon="6.85877">
        <ele>204.2</ele>
        <time>2014-04-13T13:07:30Z</time>
      </trkpt>
      <trkpt lat="49.1728" lon="6.85876">
        <ele>204</ele>
        <time>2014-04-13T13:07:35Z</time>
      </trkpt>
      <trkpt lat="49.17279" lon="6.85875">
        <ele>204.7</ele>
        <time>2014-04-13T13:07:40Z</time>
      </trkpt>
      <trkpt lat="49.17279" lon="6.85876">
        <ele>204.5</ele>
        <time>2014-04-13T13:07:50Z</time>
      </trkpt>
      <trkpt lat="49.17279" lon="6.85876">
        <ele>206.1</ele>
        <time>2014-04-13T13:07:55Z</time>
      </trkpt>
      <trkpt lat="49.17279" lon="6.85877">
        <ele>206.4</ele>
        <time>2014-04-13T13:08:00Z</time>
      </trkpt>
      <trkpt lat="49.17278" lon="6.85877">
        <ele>206.2</ele>
        <time>2014-04-13T13:08:05Z</time>
      </trkpt>
      <trkpt lat="49.17278" lon="6.85878">
        <ele>205.3</ele>
        <time>2014-04-13T13:08:10Z</time>
      </trkpt>
      <trkpt lat="49.17278" lon="6.85879">
        <ele>204.8</ele>
        <time>2014-04-13T13:08:15Z</time>
      </trkpt>
      <trkpt lat="49.17278" lon="6.85879">
        <ele>204.5</ele>
        <time>2014-04-13T13:08:20Z</time>
      </trkpt>
      <trkpt lat="49.17278" lon="6.85879">
        <ele>204.7</ele>
        <time>2014-04-13T13:08:25Z</time>
      </trkpt>
      <trkpt lat="49.17277" lon="6.85879">
        <ele>205.2</ele>
        <time>2014-04-13T13:08:30Z</time>
      </trkpt>
      <trkpt lat="49.17277" lon="6.8588">
        <ele>203</ele>
        <time>2014-04-13T13:08:35Z</time>
      </trkpt>
      <trkpt lat="49.17278" lon="6.8588">
        <ele>204.9</ele>
        <time>2014-04-13T13:08:40Z</time>
      </trkpt>
      <trkpt lat="49.17278" lon="6.85881">
        <ele>205.3</ele>
        <time>2014-04-13T13:08:45Z</time>
      </trkpt>
      <trkpt lat="49.17279" lon="6.85882">
        <ele>205.4</ele>
        <time>2014-04-13T13:08:55Z</time>
      </trkpt>
      <trkpt lat="49.17279" lon="6.85882">
        <ele>204.8</ele>
        <time>2014-04-13T13:09:00Z</time>
      </trkpt>
      <trkpt lat="49.1728" lon="6.85882">
        <ele>205.9</ele>
        <time>2014-04-13T13:09:05Z</time>
      </trkpt>
      <trkpt lat="49.17281" lon="6.85882">
        <ele>205.6</ele>
        <time>2014-04-13T13:09:10Z</time>
      </trkpt>
      <trkpt lat="49.17282" lon="6.85882">
        <ele>205.5</ele>
        <time>2014-04-13T13:09:15Z</time>
      </trkpt>
      <trkpt lat="49.17283" lon="6.85883">
        <ele>205.6</ele>
        <time>2014-04-13T13:09:20Z</time>
      </trkpt>
      <trkpt lat="49.17283" lon="6.85884">
        <ele>205</ele>
        <time>2014-04-13T13:09:25Z</time>
      </trkpt>
      <trkpt lat="49.17284" lon="6.85886">
        <ele>205</ele>
        <time>2014-04-13T13:09:30Z</time>
      </trkpt>
      <trkpt lat="49.17284" lon="6.85891">
        <ele>204.6</ele>
        <time>2014-04-13T13:09:35Z</time>
      </trkpt>
      <trkpt lat="49.17284" lon="6.85894">
        <ele>205</ele>
        <time>2014-04-13T13:09:40Z</time>
      </trkpt>
      <trkpt lat="49.17283" lon="6.859">
        <ele>205.1</ele>
        <time>2014-04-13T13:09:45Z</time>
      </trkpt>
      <trkpt lat="49.17282" lon="6.85906">
        <ele>203.7</ele>
        <time>2014-04-13T13:09:50Z</time>
      </trkpt>
      <trkpt lat="49.17279" lon="6.85925">
        <ele>204.6</ele>
        <time>2014-04-13T13:10:00Z</time>
      </trkpt>
      <trkpt lat="49.17279" lon="6.85934">
        <ele>204.6</ele>
        <time>2014-04-13T13:10:05Z</time>
      </trkpt>
      <trkpt lat="49.17278" lon="6.85942">
        <ele>204.4</ele>
        <time>2014-04-13T13:10:10Z</time>
      </trkpt>
      <trkpt lat="49.17277" lon="6.85951">
        <ele>204.7</ele>
        <time>2014-04-13T13:10:15Z</time>
      </trkpt>
      <trkpt lat="49.17275" lon="6.8596">
        <ele>205</ele>
        <time>2014-04-13T13:10:20Z</time>
      </trkpt>
      <trkpt lat="49.17274" lon="6.85969">
        <ele>204.9</ele>
        <time>2014-04-13T13:10:25Z</time>
      </trkpt>
      <trkpt lat="49.17273" lon="6.85977">
        <ele>205.3</ele>
        <time>2014-04-13T13:10:30Z</time>
      </trkpt>
      <trkpt lat="49.17271" lon="6.85986">
        <ele>204.8</ele>
        <time>2014-04-13T13:10:35Z</time>
      </trkpt>
      <trkpt lat="49.17269" lon="6.85993">
        <ele>205.4</ele>
        <time>2014-04-13T13:10:40Z</time>
      </trkpt>
      <trkpt lat="49.17268" lon="6.86">
        <ele>205.9</ele>
        <time>2014-04-13T13:10:45Z</time>
      </trkpt>
      <trkpt lat="49.17266" lon="6.86011">
        <ele>204.7</ele>
        <time>2014-04-13T13:10:50Z</time>
      </trkpt>
      <trkpt lat="49.17263" lon="6.86022">
        <ele>205.4</ele>
        <time>2014-04-13T13:10:55Z</time>
      </trkpt>
      <trkpt lat="49.17259" lon="6.86043">
        <ele>205.1</ele>
        <time>2014-04-13T13:11:05Z</time>
      </trkpt>
      <trkpt lat="49.17257" lon="6.86055">
        <ele>204.8</ele>
        <time>2014-04-13T13:11:10Z</time>
      </trkpt>
      <trkpt lat="49.17255" lon="6.86066">
        <ele>205.9</ele>
        <time>2014-04-13T13:11:15Z</time>
      </trkpt>
      <trkpt lat="49.17253" lon="6.86078">
        <ele>206.4</ele>
        <time>2014-04-13T13:11:20Z</time>
      </trkpt>
      <trkpt lat="49.1725" lon="6.8609">
        <ele>205.6</ele>
        <time>2014-04-13T13:11:25Z</time>
      </trkpt>
      <trkpt lat="49.17248" lon="6.86102">
        <ele>205.4</ele>
        <time>2014-04-13T13:11:30Z</time>
      </trkpt>
      <trkpt lat="49.17246" lon="6.86114">
        <ele>206.1</ele>
        <time>2014-04-13T13:11:35Z</time>
      </trkpt>
      <trkpt lat="49.17244" lon="6.86126">
        <ele>206.3</ele>
        <time>2014-04-13T13:11:40Z</time>
      </trkpt>
      <trkpt lat="49.17241" lon="6.86137">
        <ele>206.8</ele>
        <time>2014-04-13T13:11:45Z</time>
      </trkpt>
      <trkpt lat="49.17239" lon="6.86148">
        <ele>207.4</ele>
        <time>2014-04-13T13:11:50Z</time>
      </trkpt>
      <trkpt lat="49.17237" lon="6.8616">
        <ele>208</ele>
        <time>2014-04-13T13:11:55Z</time>
      </trkpt>
      <trkpt lat="49.17236" lon="6.86168">
        <ele>209.1</ele>
        <time>2014-04-13T13:12:00Z</time>
      </trkpt>
      <trkpt lat="49.17233" lon="6.86188">
        <ele>209.4</ele>
        <time>2014-04-13T13:12:10Z</time>
      </trkpt>
      <trkpt lat="49.17232" lon="6.86198">
        <ele>209.6</ele>
        <time>2014-04-13T13:12:15Z</time>
      </trkpt>
      <trkpt lat="49.17231" lon="6.86207">
        <ele>209</ele>
        <time>2014-04-13T13:12:20Z</time>
      </trkpt>
      <trkpt lat="49.1723" lon="6.86218">
        <ele>208.8</ele>
        <time>2014-04-13T13:12:25Z</time>
      </trkpt>
      <trkpt lat="49.17228" lon="6.86228">
        <ele>210.2</ele>
        <time>2014-04-13T13:12:30Z</time>
      </trkpt>
      <trkpt lat="49.17227" lon="6.86239">
        <ele>209</ele>
        <time>2014-04-13T13:12:35Z</time>
      </trkpt>
      <trkpt lat="49.17227" lon="6.86251">
        <ele>208.9</ele>
        <time>2014-04-13T13:12:40Z</time>
      </trkpt>
      <trkpt lat="49.17226" lon="6.86262">
        <ele>209.4</ele>
        <time>2014-04-13T13:12:45Z</time>
      </trkpt>
      <trkpt lat="49.17226" lon="6.86274">
        <ele>210.4</ele>
        <time>2014-04-13T13:12:50Z</time>
      </trkpt>
      <trkpt lat="49.17226" lon="6.86284">
        <ele>209.9</ele>
        <time>2014-04-13T13:12:55Z</time>
      </trkpt>
      <trkpt lat="49.17225" lon="6.86295">
        <ele>210.7</ele>
        <time>2014-04-13T13:13:00Z</time>
      </trkpt>
      <trkpt lat="49.17224" lon="6.86305">
        <ele>210</ele>
        <time>2014-04-13T13:13:05Z</time>
      </trkpt>
      <trkpt lat="49.17222" lon="6.86327">
        <ele>212.2</ele>
        <time>2014-04-13T13:13:15Z</time>
      </trkpt>
      <trkpt lat="49.1722" lon="6.86337">
        <ele>211.2</ele>
        <time>2014-04-13T13:13:20Z</time>
      </trkpt>
      <trkpt lat="49.17218" lon="6.86347">
        <ele>211.3</ele>
        <time>2014-04-13T13:13:25Z</time>
      </trkpt>
      <trkpt lat="49.17215" lon="6.86356">
        <ele>212.1</ele>
        <time>2014-04-13T13:13:30Z</time>
      </trkpt>
      <trkpt lat="49.17212" lon="6.86366">
        <ele>212.7</ele>
        <time>2014-04-13T13:13:35Z</time>
      </trkpt>
      <trkpt lat="49.17209" lon="6.86377">
        <ele>213.3</ele>
        <time>2014-04-13T13:13:40Z</time>
      </trkpt>
      <trkpt lat="49.17206" lon="6.86387">
        <ele>214.4</ele>
        <time>2014-04-13T13:13:45Z</time>
      </trkpt>
      <trkpt lat="49.17202" lon="6.86398">
        <ele>214.1</ele>
        <time>2014-04-13T13:13:50Z</time>
      </trkpt>
      <trkpt lat="49.17198" lon="6.86408">
        <ele>214.2</ele>
        <time>2014-04-13T13:13:55Z</time>
      </trkpt>
      <trkpt lat="49.17195" lon="6.86416">
        <ele>215.5</ele>
        <time>2014-04-13T13:14:00Z</time>
      </trkpt>
      <trkpt lat="49.1719" lon="6.86425">
        <ele>216.4</ele>
        <time>2014-04-13T13:14:05Z</time>
      </trkpt>
      <trkpt lat="49.17185" lon="6.86434">
        <ele>217.1</ele>
        <time>2014-04-13T13:14:10Z</time>
      </trkpt>
      <trkpt lat="49.17176" lon="6.86452">
        <ele>217.9</ele>
        <time>2014-04-13T13:14:20Z</time>
      </trkpt>
      <trkpt lat="49.17172" lon="6.8646">
        <ele>218.1</ele>
        <time>2014-04-13T13:14:25Z</time>
      </trkpt>
      <trkpt lat="49.17167" lon="6.86468">
        <ele>219.1</ele>
        <time>2014-04-13T13:14:30Z</time>
      </trkpt>
      <trkpt lat="49.17161" lon="6.86475">
        <ele>219.3</ele>
        <time>2014-04-13T13:14:35Z</time>
      </trkpt>
      <trkpt lat="49.17154" lon="6.86479">
        <ele>220</ele>
        <time>2014-04-13T13:14:40Z</time>
      </trkpt>
      <trkpt lat="49.17146" lon="6.86481">
        <ele>219.5</ele>
        <time>2014-04-13T13:14:45Z</time>
      </trkpt>
      <trkpt lat="49.1714" lon="6.86486">
        <ele>219.3</ele>
        <time>2014-04-13T13:14:50Z</time>
      </trkpt>
      <trkpt lat="49.17135" lon="6.86494">
        <ele>219.1</ele>
        <time>2014-04-13T13:14:55Z</time>
      </trkpt>
      <trkpt lat="49.17129" lon="6.86502">
        <ele>219.7</ele>
        <time>2014-04-13T13:15:00Z</time>
      </trkpt>
      <trkpt lat="49.17122" lon="6.86507">
        <ele>220.5</ele>
        <time>2014-04-13T13:15:05Z</time>
      </trkpt>
      <trkpt lat="49.17116" lon="6.86514">
        <ele>220.4</ele>
        <time>2014-04-13T13:15:10Z</time>
      </trkpt>
      <trkpt lat="49.17109" lon="6.8652">
        <ele>220.8</ele>
        <time>2014-04-13T13:15:15Z</time>
      </trkpt>
      <trkpt lat="49.17098" lon="6.86535">
        <ele>222.5</ele>
        <time>2014-04-13T13:15:25Z</time>
      </trkpt>
      <trkpt lat="49.1709" lon="6.86543">
        <ele>222.4</ele>
        <time>2014-04-13T13:15:30Z</time>
      </trkpt>
      <trkpt lat="49.17084" lon="6.86548">
        <ele>222.4</ele>
        <time>2014-04-13T13:15:35Z</time>
      </trkpt>
      <trkpt lat="49.17078" lon="6.86555">
        <ele>222.8</ele>
        <time>2014-04-13T13:15:40Z</time>
      </trkpt>
      <trkpt lat="49.17073" lon="6.86563">
        <ele>222.8</ele>
        <time>2014-04-13T13:15:45Z</time>
      </trkpt>
      <trkpt lat="49.17066" lon="6.8657">
        <ele>223.3</ele>
        <time>2014-04-13T13:15:50Z</time>
      </trkpt>
      <trkpt lat="49.1706" lon="6.86577">
        <ele>223.5</ele>
        <time>2014-04-13T13:15:55Z</time>
      </trkpt>
      <trkpt lat="49.17054" lon="6.86584">
        <ele>224.2</ele>
        <time>2014-04-13T13:16:00Z</time>
      </trkpt>
      <trkpt lat="49.17048" lon="6.8659">
        <ele>224.4</ele>
        <time>2014-04-13T13:16:05Z</time>
      </trkpt>
      <trkpt lat="49.17042" lon="6.86597">
        <ele>224.4</ele>
        <time>2014-04-13T13:16:10Z</time>
      </trkpt>
      <trkpt lat="49.17037" lon="6.86605">
        <ele>224.2</ele>
        <time>2014-04-13T13:16:15Z</time>
      </trkpt>
      <trkpt lat="49.17032" lon="6.86612">
        <ele>225</ele>
        <time>2014-04-13T13:16:20Z</time>
      </trkpt>
      <trkpt lat="49.1702" lon="6.86625">
        <ele>225.4</ele>
        <time>2014-04-13T13:16:30Z</time>
      </trkpt>
      <trkpt lat="49.17016" lon="6.86632">
        <ele>225.8</ele>
        <time>2014-04-13T13:16:35Z</time>
      </trkpt>
      <trkpt lat="49.17011" lon="6.86641">
        <ele>226.2</ele>
        <time>2014-04-13T13:16:40Z</time>
      </trkpt>
      <trkpt lat="49.17006" lon="6.86649">
        <ele>226</ele>
        <time>2014-04-13T13:16:45Z</time>
      </trkpt>
      <trkpt lat="49.17002" lon="6.86658">
        <ele>225.4</ele>
        <time>2014-04-13T13:16:50Z</time>
      </trkpt>
      <trkpt lat="49.16998" lon="6.86667">
        <ele>226.5</ele>
        <time>2014-04-13T13:16:55Z</time>
      </trkpt>
      <trkpt lat="49.16994" lon="6.86677">
        <ele>226.3</ele>
        <time>2014-04-13T13:17:00Z</time>
      </trkpt>
      <trkpt lat="49.16989" lon="6.86684">
        <ele>225.2</ele>
        <time>2014-04-13T13:17:05Z</time>
      </trkpt>
      <trkpt lat="49.16984" lon="6.86691">
        <ele>225.5</ele>
        <time>2014-04-13T13:17:10Z</time>
      </trkpt>
      <trkpt lat="49.1698" lon="6.86697">
        <ele>226.1</ele>
        <time>2014-04-13T13:17:15Z</time>
      </trkpt>
      <trkpt lat="49.16976" lon="6.86703">
        <ele>225.5</ele>
        <time>2014-04-13T13:17:20Z</time>
      </trkpt>
      <trkpt lat="49.16972" lon="6.8671">
        <ele>226</ele>
        <time>2014-04-13T13:17:25Z</time>
      </trkpt>
      <trkpt lat="49.16963" lon="6.86725">
        <ele>226.3</ele>
        <time>2014-04-13T13:17:35Z</time>
      </trkpt>
      <trkpt lat="49.16959" lon="6.86734">
        <ele>226.2</ele>
        <time>2014-04-13T13:17:40Z</time>
      </trkpt>
      <trkpt lat="49.16955" lon="6.86743">
        <ele>226.2</ele>
        <time>2014-04-13T13:17:45Z</time>
      </trkpt>
      <trkpt lat="49.1695" lon="6.86751">
        <ele>226.4</ele>
        <time>2014-04-13T13:17:50Z</time>
      </trkpt>
      <trkpt lat="49.16946" lon="6.8676">
        <ele>226.1</ele>
        <time>2014-04-13T13:17:55Z</time>
      </trkpt>
      <trkpt lat="49.1694" lon="6.86768">
        <ele>226.3</ele>
        <time>2014-04-13T13:18:00Z</time>
      </trkpt>
      <trkpt lat="49.16935" lon="6.86778">
        <ele>226.5</ele>
        <time>2014-04-13T13:18:05Z</time>
      </trkpt>
      <trkpt lat="49.1693" lon="6.86787">
        <ele>226.5</ele>
        <time>2014-04-13T13:18:10Z</time>
      </trkpt>
      <trkpt lat="49.16925" lon="6.86794">
        <ele>226.9</ele>
        <time>2014-04-13T13:18:15Z</time>
      </trkpt>
      <trkpt lat="49.16921" lon="6.86801">
        <ele>226.1</ele>
        <time>2014-04-13T13:18:20Z</time>
      </trkpt>
      <trkpt lat="49.16915" lon="6.86809">
        <ele>226.6</ele>
        <time>2014-04-13T13:18:25Z</time>
      </trkpt>
      <trkpt lat="49.1691" lon="6.86817">
        <ele>226.5</ele>
        <time>2014-04-13T13:18:30Z</time>
      </trkpt>
      <trkpt lat="49.16899" lon="6.86833">
        <ele>225.7</ele>
        <time>2014-04-13T13:18:40Z</time>
      </trkpt>
      <trkpt lat="49.16893" lon="6.86844">
        <ele>226.4</ele>
        <time>2014-04-13T13:18:45Z</time>
      </trkpt>
      <trkpt lat="49.16888" lon="6.8685">
        <ele>225.7</ele>
        <time>2014-04-13T13:18:50Z</time>
      </trkpt>
      <trkpt lat="49.16882" lon="6.86857">
        <ele>225.6</ele>
        <time>2014-04-13T13:18:55Z</time>
      </trkpt>
      <trkpt lat="49.16877" lon="6.86867">
        <ele>225.8</ele>
        <time>2014-04-13T13:19:00Z</time>
      </trkpt>
      <trkpt lat="49.16872" lon="6.86878">
        <ele>225.7</ele>
        <time>2014-04-13T13:19:05Z</time>
      </trkpt>
      <trkpt lat="49.16866" lon="6.86887">
        <ele>226.3</ele>
        <time>2014-04-13T13:19:10Z</time>
      </trkpt>
      <trkpt lat="49.1686" lon="6.86896">
        <ele>226</ele>
        <time>2014-04-13T13:19:15Z</time>
      </trkpt>
      <trkpt lat="49.16853" lon="6.869">
        <ele>225.8</ele>
        <time>2014-04-13T13:19:20Z</time>
      </trkpt>
      <trkpt lat="49.16845" lon="6.86906">
        <ele>225.1</ele>
        <time>2014-04-13T13:19:25Z</time>
      </trkpt>
      <trkpt lat="49.16842" lon="6.86916">
        <ele>224.9</ele>
        <time>2014-04-13T13:19:30Z</time>
      </trkpt>
      <trkpt lat="49.16836" lon="6.86924">
        <ele>225.5</ele>
        <time>2014-04-13T13:19:35Z</time>
      </trkpt>
      <trkpt lat="49.16823" lon="6.86934">
        <ele>224.4</ele>
        <time>2014-04-13T13:19:45Z</time>
      </trkpt>
      <trkpt lat="49.16816" lon="6.8694">
        <ele>224.2</ele>
        <time>2014-04-13T13:19:50Z</time>
      </trkpt>
      <trkpt lat="49.1681" lon="6.86946">
        <ele>225.2</ele>
        <time>2014-04-13T13:19:55Z</time>
      </trkpt>
      <trkpt lat="49.16804" lon="6.86952">
        <ele>224.7</ele>
        <time>2014-04-13T13:20:00Z</time>
      </trkpt>
      <trkpt lat="49.16797" lon="6.86957">
        <ele>224.8</ele>
        <time>2014-04-13T13:20:05Z</time>
      </trkpt>
      <trkpt lat="49.1679" lon="6.86961">
        <ele>224.4</ele>
        <time>2014-04-13T13:20:10Z</time>
      </trkpt>
      <trkpt lat="49.16783" lon="6.86968">
        <ele>224.3</ele>
        <time>2014-04-13T13:20:15Z</time>
      </trkpt>
      <trkpt lat="49.16777" lon="6.86973">
        <ele>225.2</ele>
        <time>2014-04-13T13:20:20Z</time>
      </trkpt>
      <trkpt lat="49.1677" lon="6.86979">
        <ele>225.9</ele>
        <time>2014-04-13T13:20:25Z</time>
      </trkpt>
      <trkpt lat="49.16764" lon="6.86984">
        <ele>225.3</ele>
        <time>2014-04-13T13:20:30Z</time>
      </trkpt>
      <trkpt lat="49.16758" lon="6.86988">
        <ele>225.1</ele>
        <time>2014-04-13T13:20:35Z</time>
      </trkpt>
      <trkpt lat="49.1675" lon="6.86993">
        <ele>225.3</ele>
        <time>2014-04-13T13:20:40Z</time>
      </trkpt>
      <trkpt lat="49.16734" lon="6.86995">
        <ele>224.7</ele>
        <time>2014-04-13T13:20:50Z</time>
      </trkpt>
      <trkpt lat="49.16727" lon="6.86992">
        <ele>225.4</ele>
        <time>2014-04-13T13:20:55Z</time>
      </trkpt>
      <trkpt lat="49.16719" lon="6.86991">
        <ele>226</ele>
        <time>2014-04-13T13:21:00Z</time>
      </trkpt>
      <trkpt lat="49.16712" lon="6.86984">
        <ele>224.9</ele>
        <time>2014-04-13T13:21:05Z</time>
      </trkpt>
      <trkpt lat="49.16705" lon="6.86981">
        <ele>225.1</ele>
        <time>2014-04-13T13:21:10Z</time>
      </trkpt>
      <trkpt lat="49.16697" lon="6.86978">
        <ele>223.4</ele>
        <time>2014-04-13T13:21:15Z</time>
      </trkpt>
      <trkpt lat="49.16689" lon="6.86976">
        <ele>224.4</ele>
        <time>2014-04-13T13:21:20Z</time>
      </trkpt>
      <trkpt lat="49.16681" lon="6.86974">
        <ele>224.6</ele>
        <time>2014-04-13T13:21:25Z</time>
      </trkpt>
      <trkpt lat="49.16674" lon="6.86972">
        <ele>224.5</ele>
        <time>2014-04-13T13:21:30Z</time>
      </trkpt>
      <trkpt lat="49.16668" lon="6.86971">
        <ele>224.5</ele>
        <time>2014-04-13T13:21:35Z</time>
      </trkpt>
      <trkpt lat="49.16662" lon="6.86969">
        <ele>225.3</ele>
        <time>2014-04-13T13:21:40Z</time>
      </trkpt>
      <trkpt lat="49.16654" lon="6.86966">
        <ele>225.6</ele>
        <time>2014-04-13T13:21:45Z</time>
      </trkpt>
      <trkpt lat="49.16638" lon="6.86962">
        <ele>225.6</ele>
        <time>2014-04-13T13:21:55Z</time>
      </trkpt>
      <trkpt lat="49.1663" lon="6.86959">
        <ele>225.2</ele>
        <time>2014-04-13T13:22:00Z</time>
      </trkpt>
      <trkpt lat="49.16623" lon="6.86956">
        <ele>227.4</ele>
        <time>2014-04-13T13:22:05Z</time>
      </trkpt>
      <trkpt lat="49.16616" lon="6.86953">
        <ele>227.6</ele>
        <time>2014-04-13T13:22:10Z</time>
      </trkpt>
      <trkpt lat="49.16608" lon="6.86949">
        <ele>228.1</ele>
        <time>2014-04-13T13:22:15Z</time>
      </trkpt>
      <trkpt lat="49.16601" lon="6.86947">
        <ele>228.5</ele>
        <time>2014-04-13T13:22:20Z</time>
      </trkpt>
      <trkpt lat="49.16594" lon="6.86944">
        <ele>228.7</ele>
        <time>2014-04-13T13:22:25Z</time>
      </trkpt>
      <trkpt lat="49.16586" lon="6.86941">
        <ele>229.4</ele>
        <time>2014-04-13T13:22:30Z</time>
      </trkpt>
      <trkpt lat="49.16579" lon="6.86938">
        <ele>230.6</ele>
        <time>2014-04-13T13:22:35Z</time>
      </trkpt>
      <trkpt lat="49.16572" lon="6.86934">
        <ele>230.4</ele>
        <time>2014-04-13T13:22:40Z</time>
      </trkpt>
      <trkpt lat="49.16565" lon="6.8693">
        <ele>231.9</ele>
        <time>2014-04-13T13:22:45Z</time>
      </trkpt>
      <trkpt lat="49.1656" lon="6.86925">
        <ele>233</ele>
        <time>2014-04-13T13:22:50Z</time>
      </trkpt>
      <trkpt lat="49.16548" lon="6.86913">
        <ele>234.2</ele>
        <time>2014-04-13T13:23:00Z</time>
      </trkpt>
      <trkpt lat="49.16542" lon="6.86906">
        <ele>234.2</ele>
        <time>2014-04-13T13:23:05Z</time>
      </trkpt>
      <trkpt lat="49.16536" lon="6.86899">
        <ele>235.1</ele>
        <time>2014-04-13T13:23:10Z</time>
      </trkpt>
      <trkpt lat="49.16532" lon="6.86892">
        <ele>236.5</ele>
        <time>2014-04-13T13:23:15Z</time>
      </trkpt>
      <trkpt lat="49.16527" lon="6.86885">
        <ele>236.3</ele>
        <time>2014-04-13T13:23:20Z</time>
      </trkpt>
      <trkpt lat="49.16522" lon="6.86878">
        <ele>237</ele>
        <time>2014-04-13T13:23:25Z</time>
      </trkpt>
      <trkpt lat="49.16516" lon="6.8687">
        <ele>237.5</ele>
        <time>2014-04-13T13:23:30Z</time>
      </trkpt>
      <trkpt lat="49.16509" lon="6.86864">
        <ele>238</ele>
        <time>2014-04-13T13:23:35Z</time>
      </trkpt>
      <trkpt lat="49.16501" lon="6.86859">
        <ele>237.9</ele>
        <time>2014-04-13T13:23:40Z</time>
      </trkpt>
      <trkpt lat="49.16494" lon="6.86857">
        <ele>238</ele>
        <time>2014-04-13T13:23:45Z</time>
      </trkpt>
      <trkpt lat="49.16488" lon="6.86858">
        <ele>238.3</ele>
        <time>2014-04-13T13:23:50Z</time>
      </trkpt>
      <trkpt lat="49.16483" lon="6.86859">
        <ele>238.2</ele>
        <time>2014-04-13T13:23:55Z</time>
      </trkpt>
      <trkpt lat="49.16469" lon="6.86857">
        <ele>239.5</ele>
        <time>2014-04-13T13:24:05Z</time>
      </trkpt>
      <trkpt lat="49.16463" lon="6.86857">
        <ele>239.7</ele>
        <time>2014-04-13T13:24:10Z</time>
      </trkpt>
      <trkpt lat="49.16457" lon="6.86858">
        <ele>239.7</ele>
        <time>2014-04-13T13:24:15Z</time>
      </trkpt>
      <trkpt lat="49.1645" lon="6.86858">
        <ele>239.5</ele>
        <time>2014-04-13T13:24:20Z</time>
      </trkpt>
      <trkpt lat="49.16443" lon="6.86859">
        <ele>239.3</ele>
        <time>2014-04-13T13:24:25Z</time>
      </trkpt>
      <trkpt lat="49.16436" lon="6.8686">
        <ele>240.6</ele>
        <time>2014-04-13T13:24:30Z</time>
      </trkpt>
      <trkpt lat="49.1643" lon="6.86863">
        <ele>241.1</ele>
        <time>2014-04-13T13:24:35Z</time>
      </trkpt>
      <trkpt lat="49.16423" lon="6.86862">
        <ele>241.4</ele>
        <time>2014-04-13T13:24:40Z</time>
      </trkpt>
      <trkpt lat="49.16418" lon="6.86862">
        <ele>240.4</ele>
        <time>2014-04-13T13:24:45Z</time>
      </trkpt>
      <trkpt lat="49.16413" lon="6.86863">
        <ele>240.4</ele>
        <time>2014-04-13T13:24:50Z</time>
      </trkpt>
      <trkpt lat="49.1641" lon="6.86862">
        <ele>241.2</ele>
        <time>2014-04-13T13:24:55Z</time>
      </trkpt>
      <trkpt lat="49.16408" lon="6.86863">
        <ele>240.5</ele>
        <time>2014-04-13T13:25:00Z</time>
      </trkpt>
      <trkpt lat="49.16405" lon="6.86861">
        <ele>242.3</ele>
        <time>2014-04-13T13:25:10Z</time>
      </trkpt>
      <trkpt lat="49.16405" lon="6.86861">
        <ele>241.3</ele>
        <time>2014-04-13T13:25:15Z</time>
      </trkpt>
      <trkpt lat="49.16405" lon="6.86861">
        <ele>241.3</ele>
        <time>2014-04-13T13:25:20Z</time>
      </trkpt>
      <trkpt lat="49.16405" lon="6.86862">
        <ele>241</ele>
        <time>2014-04-13T13:25:25Z</time>
      </trkpt>
      <trkpt lat="49.16405" lon="6.86863">
        <ele>241.2</ele>
        <time>2014-04-13T13:25:30Z</time>
      </trkpt>
      <trkpt lat="49.16405" lon="6.86861">
        <ele>241.3</ele>
        <time>2014-04-13T13:25:35Z</time>
      </trkpt>
      <trkpt lat="49.16405" lon="6.86861">
        <ele>241.9</ele>
        <time>2014-04-13T13:25:40Z</time>
      </trkpt>
      <trkpt lat="49.16404" lon="6.8686">
        <ele>240.9</ele>
        <time>2014-04-13T13:25:45Z</time>
      </trkpt>
      <trkpt lat="49.16403" lon="6.86859">
        <ele>241.4</ele>
        <time>2014-04-13T13:25:50Z</time>
      </trkpt>
      <trkpt lat="49.16402" lon="6.86858">
        <ele>241.7</ele>
        <time>2014-04-13T13:25:55Z</time>
      </trkpt>
      <trkpt lat="49.16402" lon="6.86859">
        <ele>241.7</ele>
        <time>2014-04-13T13:26:00Z</time>
      </trkpt>
      <trkpt lat="49.16398" lon="6.86862">
        <ele>241.1</ele>
        <time>2014-04-13T13:26:05Z</time>
      </trkpt>
      <trkpt lat="49.16392" lon="6.8687">
        <ele>239.6</ele>
        <time>2014-04-13T13:26:15Z</time>
      </trkpt>
      <trkpt lat="49.16388" lon="6.86877">
        <ele>239.6</ele>
        <time>2014-04-13T13:26:20Z</time>
      </trkpt>
      <trkpt lat="49.16386" lon="6.86885">
        <ele>238.8</ele>
        <time>2014-04-13T13:26:25Z</time>
      </trkpt>
      <trkpt lat="49.16385" lon="6.86893">
        <ele>238.6</ele>
        <time>2014-04-13T13:26:30Z</time>
      </trkpt>
      <trkpt lat="49.16384" lon="6.86904">
        <ele>239.1</ele>
        <time>2014-04-13T13:26:35Z</time>
      </trkpt>
      <trkpt lat="49.16382" lon="6.86914">
        <ele>239.1</ele>
        <time>2014-04-13T13:26:40Z</time>
      </trkpt>
      <trkpt lat="49.16381" lon="6.86924">
        <ele>238.7</ele>
        <time>2014-04-13T13:26:45Z</time>
      </trkpt>
      <trkpt lat="49.16379" lon="6.86935">
        <ele>238.4</ele>
        <time>2014-04-13T13:26:50Z</time>
      </trkpt>
      <trkpt lat="49.16376" lon="6.86944">
        <ele>237.9</ele>
        <time>2014-04-13T13:26:55Z</time>
      </trkpt>
      <trkpt lat="49.16373" lon="6.86953">
        <ele>237.1</ele>
        <time>2014-04-13T13:27:00Z</time>
      </trkpt>
      <trkpt lat="49.16369" lon="6.86962">
        <ele>236.1</ele>
        <time>2014-04-13T13:27:05Z</time>
      </trkpt>
      <trkpt lat="49.16364" lon="6.86972">
        <ele>235.5</ele>
        <time>2014-04-13T13:27:10Z</time>
      </trkpt>
      <trkpt lat="49.16353" lon="6.86989">
        <ele>235.1</ele>
        <time>2014-04-13T13:27:20Z</time>
      </trkpt>
      <trkpt lat="49.16346" lon="6.86996">
        <ele>235</ele>
        <time>2014-04-13T13:27:25Z</time>
      </trkpt>
      <trkpt lat="49.1634" lon="6.87">
        <ele>235.3</ele>
        <time>2014-04-13T13:27:30Z</time>
      </trkpt>
      <trkpt lat="49.16333" lon="6.87005">
        <ele>234.6</ele>
        <time>2014-04-13T13:27:35Z</time>
      </trkpt>
      <trkpt lat="49.16327" lon="6.8701">
        <ele>234</ele>
        <time>2014-04-13T13:27:40Z</time>
      </trkpt>
      <trkpt lat="49.16321" lon="6.87015">
        <ele>234</ele>
        <time>2014-04-13T13:27:45Z</time>
      </trkpt>
      <trkpt lat="49.16312" lon="6.87017">
        <ele>233.4</ele>
        <time>2014-04-13T13:27:50Z</time>
      </trkpt>
      <trkpt lat="49.16305" lon="6.87019">
        <ele>232.8</ele>
        <time>2014-04-13T13:27:55Z</time>
      </trkpt>
      <trkpt lat="49.16296" lon="6.87019">
        <ele>232.1</ele>
        <time>2014-04-13T13:28:00Z</time>
      </trkpt>
      <trkpt lat="49.16289" lon="6.87019">
        <ele>232.7</ele>
        <time>2014-04-13T13:28:05Z</time>
      </trkpt>
      <trkpt lat="49.16281" lon="6.8702">
        <ele>232.9</ele>
        <time>2014-04-13T13:28:10Z</time>
      </trkpt>
      <trkpt lat="49.16274" lon="6.8702">
        <ele>233.2</ele>
        <time>2014-04-13T13:28:15Z</time>
      </trkpt>
      <trkpt lat="49.16259" lon="6.87013">
        <ele>233</ele>
        <time>2014-04-13T13:28:25Z</time>
      </trkpt>
      <trkpt lat="49.16252" lon="6.87007">
        <ele>232.9</ele>
        <time>2014-04-13T13:28:30Z</time>
      </trkpt>
      <trkpt lat="49.16247" lon="6.87">
        <ele>232.2</ele>
        <time>2014-04-13T13:28:35Z</time>
      </trkpt>
      <trkpt lat="49.16241" lon="6.86995">
        <ele>232</ele>
        <time>2014-04-13T13:28:40Z</time>
      </trkpt>
      <trkpt lat="49.16234" lon="6.86992">
        <ele>232.1</ele>
        <time>2014-04-13T13:28:45Z</time>
      </trkpt>
      <trkpt lat="49.16226" lon="6.86992">
        <ele>232</ele>
        <time>2014-04-13T13:28:50Z</time>
      </trkpt>
      <trkpt lat="49.16217" lon="6.86993">
        <ele>233.2</ele>
        <time>2014-04-13T13:28:55Z</time>
      </trkpt>
      <trkpt lat="49.16211" lon="6.86995">
        <ele>233.5</ele>
        <time>2014-04-13T13:29:00Z</time>
      </trkpt>
      <trkpt lat="49.16205" lon="6.86999">
        <ele>232.4</ele>
        <time>2014-04-13T13:29:05Z</time>
      </trkpt>
      <trkpt lat="49.162" lon="6.87002">
        <ele>231.9</ele>
        <time>2014-04-13T13:29:10Z</time>
      </trkpt>
      <trkpt lat="49.16193" lon="6.87005">
        <ele>232.8</ele>
        <time>2014-04-13T13:29:15Z</time>
      </trkpt>
      <trkpt lat="49.16186" lon="6.87009">
        <ele>232.5</ele>
        <time>2014-04-13T13:29:20Z</time>
      </trkpt>
      <trkpt lat="49.16172" lon="6.87019">
        <ele>232.5</ele>
        <time>2014-04-13T13:29:30Z</time>
      </trkpt>
      <trkpt lat="49.16166" lon="6.87026">
        <ele>232.8</ele>
        <time>2014-04-13T13:29:35Z</time>
      </trkpt>
      <trkpt lat="49.16159" lon="6.87031">
        <ele>232.6</ele>
        <time>2014-04-13T13:29:40Z</time>
      </trkpt>
      <trkpt lat="49.16152" lon="6.87036">
        <ele>232.7</ele>
        <time>2014-04-13T13:29:45Z</time>
      </trkpt>
      <trkpt lat="49.16145" lon="6.87041">
        <ele>232.6</ele>
        <time>2014-04-13T13:29:50Z</time>
      </trkpt>
      <trkpt lat="49.16137" lon="6.87046">
        <ele>232.3</ele>
        <time>2014-04-13T13:29:55Z</time>
      </trkpt>
      <trkpt lat="49.1613" lon="6.8705">
        <ele>233.7</ele>
        <time>2014-04-13T13:30:00Z</time>
      </trkpt>
      <trkpt lat="49.16124" lon="6.87057">
        <ele>233.9</ele>
        <time>2014-04-13T13:30:05Z</time>
      </trkpt>
      <trkpt lat="49.16122" lon="6.87066">
        <ele>234.1</ele>
        <time>2014-04-13T13:30:10Z</time>
      </trkpt>
      <trkpt lat="49.16122" lon="6.87077">
        <ele>233</ele>
        <time>2014-04-13T13:30:15Z</time>
      </trkpt>
      <trkpt lat="49.16123" lon="6.87089">
        <ele>232.3</ele>
        <time>2014-04-13T13:30:20Z</time>
      </trkpt>
      <trkpt lat="49.16124" lon="6.871">
        <ele>231.4</ele>
        <time>2014-04-13T13:30:25Z</time>
      </trkpt>
      <trkpt lat="49.16127" lon="6.87123">
        <ele>231.5</ele>
        <time>2014-04-13T13:30:35Z</time>
      </trkpt>
      <trkpt lat="49.16129" lon="6.87134">
        <ele>231.7</ele>
        <time>2014-04-13T13:30:40Z</time>
      </trkpt>
      <trkpt lat="49.1613" lon="6.87143">
        <ele>231</ele>
        <time>2014-04-13T13:30:45Z</time>
      </trkpt>
      <trkpt lat="49.16131" lon="6.87153">
        <ele>230.4</ele>
        <time>2014-04-13T13:30:50Z</time>
      </trkpt>
      <trkpt lat="49.16132" lon="6.87162">
        <ele>231</ele>
        <time>2014-04-13T13:30:55Z</time>
      </trkpt>
      <trkpt lat="49.1613" lon="6.87171">
        <ele>230.7</ele>
        <time>2014-04-13T13:31:00Z</time>
      </trkpt>
      <trkpt lat="49.16126" lon="6.87178">
        <ele>231</ele>
        <time>2014-04-13T13:31:05Z</time>
      </trkpt>
      <trkpt lat="49.16121" lon="6.87186">
        <ele>231.2</ele>
        <time>2014-04-13T13:31:10Z</time>
      </trkpt>
      <trkpt lat="49.16117" lon="6.87193">
        <ele>230.9</ele>
        <time>2014-04-13T13:31:15Z</time>
      </trkpt>
      <trkpt lat="49.16114" lon="6.87198">
        <ele>233.2</ele>
        <time>2014-04-13T13:31:20Z</time>
      </trkpt>
      <trkpt lat="49.1611" lon="6.87201">
        <ele>234</ele>
        <time>2014-04-13T13:31:25Z</time>
      </trkpt>
      <trkpt lat="49.16106" lon="6.87204">
        <ele>233.8</ele>
        <time>2014-04-13T13:31:30Z</time>
      </trkpt>
      <trkpt lat="49.16098" lon="6.87208">
        <ele>235.5</ele>
        <time>2014-04-13T13:31:40Z</time>
      </trkpt>
      <trkpt lat="49.16093" lon="6.87208">
        <ele>235.4</ele>
        <time>2014-04-13T13:31:45Z</time>
      </trkpt>
      <trkpt lat="49.16087" lon="6.87208">
        <ele>237.6</ele>
        <time>2014-04-13T13:31:50Z</time>
      </trkpt>
      <trkpt lat="49.1608" lon="6.87209">
        <ele>237.4</ele>
        <time>2014-04-13T13:31:55Z</time>
      </trkpt>
      <trkpt lat="49.16078" lon="6.87214">
        <ele>238.3</ele>
        <time>2014-04-13T13:32:00Z</time>
      </trkpt>
      <trkpt lat="49.16079" lon="6.87216">
        <ele>240.2</ele>
        <time>2014-04-13T13:32:05Z</time>
      </trkpt>
      <trkpt lat="49.16081" lon="6.8722">
        <ele>240.9</ele>
        <time>2014-04-13T13:32:10Z</time>
      </trkpt>
      <trkpt lat="49.16083" lon="6.87222">
        <ele>242.7</ele>
        <time>2014-04-13T13:32:15Z</time>
      </trkpt>
      <trkpt lat="49.16086" lon="6.87225">
        <ele>243.5</ele>
        <time>2014-04-13T13:32:20Z</time>
      </trkpt>
      <trkpt lat="49.1609" lon="6.87228">
        <ele>244.8</ele>
        <time>2014-04-13T13:32:25Z</time>
      </trkpt>
      <trkpt lat="49.16094" lon="6.8723">
        <ele>245</ele>
        <time>2014-04-13T13:32:30Z</time>
      </trkpt>
      <trkpt lat="49.16099" lon="6.87233">
        <ele>245.3</ele>
        <time>2014-04-13T13:32:35Z</time>
      </trkpt>
      <trkpt lat="49.16111" lon="6.87238">
        <ele>244.7</ele>
        <time>2014-04-13T13:32:45Z</time>
      </trkpt>
      <trkpt lat="49.16118" lon="6.87242">
        <ele>246.1</ele>
        <time>2014-04-13T13:32:50Z</time>
      </trkpt>
      <trkpt lat="49.16125" lon="6.87247">
        <ele>246.8</ele>
        <time>2014-04-13T13:32:55Z</time>
      </trkpt>
      <trkpt lat="49.16132" lon="6.87252">
        <ele>248.1</ele>
        <time>2014-04-13T13:33:00Z</time>
      </trkpt>
      <trkpt lat="49.16137" lon="6.87256">
        <ele>249.3</ele>
        <time>2014-04-13T13:33:05Z</time>
      </trkpt>
      <trkpt lat="49.16142" lon="6.8726">
        <ele>251.7</ele>
        <time>2014-04-13T13:33:10Z</time>
      </trkpt>
      <trkpt lat="49.16148" lon="6.87264">
        <ele>251.7</ele>
        <time>2014-04-13T13:33:15Z</time>
      </trkpt>
      <trkpt lat="49.16154" lon="6.87267">
        <ele>252.8</ele>
        <time>2014-04-13T13:33:20Z</time>
      </trkpt>
      <trkpt lat="49.16161" lon="6.8727">
        <ele>254.2</ele>
        <time>2014-04-13T13:33:25Z</time>
      </trkpt>
      <trkpt lat="49.16168" lon="6.87273">
        <ele>254.6</ele>
        <time>2014-04-13T13:33:30Z</time>
      </trkpt>
      <trkpt lat="49.16176" lon="6.87275">
        <ele>256.5</ele>
        <time>2014-04-13T13:33:35Z</time>
      </trkpt>
      <trkpt lat="49.16182" lon="6.87276">
        <ele>256</ele>
        <time>2014-04-13T13:33:40Z</time>
      </trkpt>
      <trkpt lat="49.16193" lon="6.87281">
        <ele>257.7</ele>
        <time>2014-04-13T13:33:50Z</time>
      </trkpt>
      <trkpt lat="49.16199" lon="6.87283">
        <ele>258.3</ele>
        <time>2014-04-13T13:33:55Z</time>
      </trkpt>
      <trkpt lat="49.16205" lon="6.87287">
        <ele>258.8</ele>
        <time>2014-04-13T13:34:00Z</time>
      </trkpt>
      <trkpt lat="49.1621" lon="6.87291">
        <ele>259.1</ele>
        <time>2014-04-13T13:34:05Z</time>
      </trkpt>
      <trkpt lat="49.16215" lon="6.87297">
        <ele>259.5</ele>
        <time>2014-04-13T13:34:10Z</time>
      </trkpt>
      <trkpt lat="49.1622" lon="6.87302">
        <ele>259.8</ele>
        <time>2014-04-13T13:34:15Z</time>
      </trkpt>
      <trkpt lat="49.16228" lon="6.87306">
        <ele>260.6</ele>
        <time>2014-04-13T13:34:20Z</time>
      </trkpt>
      <trkpt lat="49.16235" lon="6.87312">
        <ele>261.9</ele>
        <time>2014-04-13T13:34:25Z</time>
      </trkpt>
      <trkpt lat="49.16241" lon="6.87316">
        <ele>262.8</ele>
        <time>2014-04-13T13:34:30Z</time>
      </trkpt>
      <trkpt lat="49.16248" lon="6.8732">
        <ele>262.9</ele>
        <time>2014-04-13T13:34:35Z</time>
      </trkpt>
      <trkpt lat="49.16255" lon="6.87326">
        <ele>263.3</ele>
        <time>2014-04-13T13:34:40Z</time>
      </trkpt>
      <trkpt lat="49.16263" lon="6.87332">
        <ele>264</ele>
        <time>2014-04-13T13:34:45Z</time>
      </trkpt>
      <trkpt lat="49.16272" lon="6.87348">
        <ele>266</ele>
        <time>2014-04-13T13:34:55Z</time>
      </trkpt>
      <trkpt lat="49.16275" lon="6.87357">
        <ele>267.5</ele>
        <time>2014-04-13T13:35:00Z</time>
      </trkpt>
      <trkpt lat="49.16279" lon="6.87366">
        <ele>267.7</ele>
        <time>2014-04-13T13:35:05Z</time>
      </trkpt>
      <trkpt lat="49.16285" lon="6.87375">
        <ele>269.5</ele>
        <time>2014-04-13T13:35:10Z</time>
      </trkpt>
      <trkpt lat="49.16292" lon="6.87383">
        <ele>270.6</ele>
        <time>2014-04-13T13:35:15Z</time>
      </trkpt>
      <trkpt lat="49.16298" lon="6.87391">
        <ele>269.4</ele>
        <time>2014-04-13T13:35:20Z</time>
      </trkpt>
      <trkpt lat="49.16304" lon="6.87399">
        <ele>269.9</ele>
        <time>2014-04-13T13:35:25Z</time>
      </trkpt>
      <trkpt lat="49.1631" lon="6.87406">
        <ele>268.6</ele>
        <time>2014-04-13T13:35:30Z</time>
      </trkpt>
      <trkpt lat="49.16316" lon="6.87414">
        <ele>268</ele>
        <time>2014-04-13T13:35:35Z</time>
      </trkpt>
      <trkpt lat="49.16321" lon="6.87423">
        <ele>267.3</ele>
        <time>2014-04-13T13:35:40Z</time>
      </trkpt>
      <trkpt lat="49.16323" lon="6.87432">
        <ele>267</ele>
        <time>2014-04-13T13:35:45Z</time>
      </trkpt>
      <trkpt lat="49.16326" lon="6.87442">
        <ele>266.8</ele>
        <time>2014-04-13T13:35:50Z</time>
      </trkpt>
      <trkpt lat="49.16334" lon="6.8746">
        <ele>267.9</ele>
        <time>2014-04-13T13:36:00Z</time>
      </trkpt>
      <trkpt lat="49.16338" lon="6.87469">
        <ele>268.1</ele>
        <time>2014-04-13T13:36:05Z</time>
      </trkpt>
      <trkpt lat="49.1634" lon="6.87478">
        <ele>267.4</ele>
        <time>2014-04-13T13:36:10Z</time>
      </trkpt>
      <trkpt lat="49.16344" lon="6.87487">
        <ele>268</ele>
        <time>2014-04-13T13:36:15Z</time>
      </trkpt>
      <trkpt lat="49.16349" lon="6.87496">
        <ele>269.5</ele>
        <time>2014-04-13T13:36:20Z</time>
      </trkpt>
      <trkpt lat="49.16355" lon="6.87504">
        <ele>271</ele>
        <time>2014-04-13T13:36:25Z</time>
      </trkpt>
      <trkpt lat="49.16361" lon="6.87513">
        <ele>270</ele>
        <time>2014-04-13T13:36:30Z</time>
      </trkpt>
      <trkpt lat="49.16367" lon="6.8752">
        <ele>271.7</ele>
        <time>2014-04-13T13:36:35Z</time>
      </trkpt>
      <trkpt lat="49.16374" lon="6.87527">
        <ele>271.6</ele>
        <time>2014-04-13T13:36:40Z</time>
      </trkpt>
      <trkpt lat="49.16379" lon="6.87532">
        <ele>271.2</ele>
        <time>2014-04-13T13:36:45Z</time>
      </trkpt>
      <trkpt lat="49.16386" lon="6.87536">
        <ele>271.9</ele>
        <time>2014-04-13T13:36:50Z</time>
      </trkpt>
      <trkpt lat="49.16394" lon="6.87539">
        <ele>271.6</ele>
        <time>2014-04-13T13:36:55Z</time>
      </trkpt>
      <trkpt lat="49.16409" lon="6.87543">
        <ele>270.4</ele>
        <time>2014-04-13T13:37:05Z</time>
      </trkpt>
      <trkpt lat="49.16416" lon="6.87545">
        <ele>270.6</ele>
        <time>2014-04-13T13:37:10Z</time>
      </trkpt>
      <trkpt lat="49.16424" lon="6.87547">
        <ele>270.3</ele>
        <time>2014-04-13T13:37:15Z</time>
      </trkpt>
      <trkpt lat="49.16429" lon="6.87549">
        <ele>271.1</ele>
        <time>2014-04-13T13:37:20Z</time>
      </trkpt>
      <trkpt lat="49.16436" lon="6.8755">
        <ele>271.6</ele>
        <time>2014-04-13T13:37:25Z</time>
      </trkpt>
      <trkpt lat="49.16441" lon="6.8755">
        <ele>272.7</ele>
        <time>2014-04-13T13:37:30Z</time>
      </trkpt>
      <trkpt lat="49.16446" lon="6.87552">
        <ele>274</ele>
        <time>2014-04-13T13:37:35Z</time>
      </trkpt>
      <trkpt lat="49.16451" lon="6.87551">
        <ele>274.8</ele>
        <time>2014-04-13T13:37:40Z</time>
      </trkpt>
      <trkpt lat="49.16457" lon="6.87551">
        <ele>276</ele>
        <time>2014-04-13T13:37:45Z</time>
      </trkpt>
      <trkpt lat="49.16463" lon="6.87552">
        <ele>276.7</ele>
        <time>2014-04-13T13:37:50Z</time>
      </trkpt>
      <trkpt lat="49.1647" lon="6.87557">
        <ele>277.3</ele>
        <time>2014-04-13T13:37:55Z</time>
      </trkpt>
      <trkpt lat="49.16478" lon="6.87561">
        <ele>278.1</ele>
        <time>2014-04-13T13:38:00Z</time>
      </trkpt>
      <trkpt lat="49.16491" lon="6.8757">
        <ele>279</ele>
        <time>2014-04-13T13:38:10Z</time>
      </trkpt>
      <trkpt lat="49.16497" lon="6.8757">
        <ele>279.8</ele>
        <time>2014-04-13T13:38:15Z</time>
      </trkpt>
      <trkpt lat="49.165" lon="6.87567">
        <ele>279.6</ele>
        <time>2014-04-13T13:38:20Z</time>
      </trkpt>
      <trkpt lat="49.16502" lon="6.87563">
        <ele>279.5</ele>
        <time>2014-04-13T13:38:25Z</time>
      </trkpt>
      <trkpt lat="49.16505" lon="6.87558">
        <ele>278.1</ele>
        <time>2014-04-13T13:38:30Z</time>
      </trkpt>
      <trkpt lat="49.16509" lon="6.87553">
        <ele>278.1</ele>
        <time>2014-04-13T13:38:35Z</time>
      </trkpt>
      <trkpt lat="49.16514" lon="6.87546">
        <ele>277.9</ele>
        <time>2014-04-13T13:38:40Z</time>
      </trkpt>
      <trkpt lat="49.1652" lon="6.87544">
        <ele>277.6</ele>
        <time>2014-04-13T13:38:45Z</time>
      </trkpt>
      <trkpt lat="49.16525" lon="6.87546">
        <ele>276.9</ele>
        <time>2014-04-13T13:38:50Z</time>
      </trkpt>
      <trkpt lat="49.1653" lon="6.87551">
        <ele>277.4</ele>
        <time>2014-04-13T13:38:55Z</time>
      </trkpt>
      <trkpt lat="49.16533" lon="6.87557">
        <ele>276.2</ele>
        <time>2014-04-13T13:39:00Z</time>
      </trkpt>
      <trkpt lat="49.16534" lon="6.87563">
        <ele>275.3</ele>
        <time>2014-04-13T13:39:05Z</time>
      </trkpt>
      <trkpt lat="49.16536" lon="6.8758">
        <ele>273.7</ele>
        <time>2014-04-13T13:39:15Z</time>
      </trkpt>
      <trkpt lat="49.16537" lon="6.87589">
        <ele>273.5</ele>
        <time>2014-04-13T13:39:20Z</time>
      </trkpt>
      <trkpt lat="49.16538" lon="6.87599">
        <ele>273.3</ele>
        <time>2014-04-13T13:39:25Z</time>
      </trkpt>
      <trkpt lat="49.16539" lon="6.87609">
        <ele>273.3</ele>
        <time>2014-04-13T13:39:30Z</time>
      </trkpt>
      <trkpt lat="49.16539" lon="6.8762">
        <ele>272.1</ele>
        <time>2014-04-13T13:39:35Z</time>
      </trkpt>
      <trkpt lat="49.1654" lon="6.87631">
        <ele>271.7</ele>
        <time>2014-04-13T13:39:40Z</time>
      </trkpt>
      <trkpt lat="49.16539" lon="6.87641">
        <ele>270.9</ele>
        <time>2014-04-13T13:39:45Z</time>
      </trkpt>
      <trkpt lat="49.16539" lon="6.8765">
        <ele>269.7</ele>
        <time>2014-04-13T13:39:50Z</time>
      </trkpt>
      <trkpt lat="49.16539" lon="6.87661">
        <ele>269.1</ele>
        <time>2014-04-13T13:39:55Z</time>
      </trkpt>
      <trkpt lat="49.16538" lon="6.87672">
        <ele>268.5</ele>
        <time>2014-04-13T13:40:00Z</time>
      </trkpt>
      <trkpt lat="49.16538" lon="6.87684">
        <ele>266</ele>
        <time>2014-04-13T13:40:05Z</time>
      </trkpt>
      <trkpt lat="49.16538" lon="6.87696">
        <ele>266.8</ele>
        <time>2014-04-13T13:40:10Z</time>
      </trkpt>
      <trkpt lat="49.16537" lon="6.87719">
        <ele>267.9</ele>
        <time>2014-04-13T13:40:20Z</time>
      </trkpt>
      <trkpt lat="49.16537" lon="6.87732">
        <ele>267.2</ele>
        <time>2014-04-13T13:40:25Z</time>
      </trkpt>
      <trkpt lat="49.16538" lon="6.87744">
        <ele>266.4</ele>
        <time>2014-04-13T13:40:30Z</time>
      </trkpt>
      <trkpt lat="49.16537" lon="6.87756">
        <ele>267.1</ele>
        <time>2014-04-13T13:40:35Z</time>
      </trkpt>
      <trkpt lat="49.16538" lon="6.87769">
        <ele>267.8</ele>
        <time>2014-04-13T13:40:40Z</time>
      </trkpt>
      <trkpt lat="49.16539" lon="6.87781">
        <ele>267.9</ele>
        <time>2014-04-13T13:40:45Z</time>
      </trkpt>
      <trkpt lat="49.16542" lon="6.87791">
        <ele>269.2</ele>
        <time>2014-04-13T13:40:50Z</time>
      </trkpt>
      <trkpt lat="49.16544" lon="6.87803">
        <ele>268.3</ele>
        <time>2014-04-13T13:40:55Z</time>
      </trkpt>
      <trkpt lat="49.16548" lon="6.87814">
        <ele>268.3</ele>
        <time>2014-04-13T13:41:00Z</time>
      </trkpt>
      <trkpt lat="49.16553" lon="6.87825">
        <ele>268.4</ele>
        <time>2014-04-13T13:41:05Z</time>
      </trkpt>
      <trkpt lat="49.16557" lon="6.87836">
        <ele>269</ele>
        <time>2014-04-13T13:41:10Z</time>
      </trkpt>
      <trkpt lat="49.16561" lon="6.87846">
        <ele>269.2</ele>
        <time>2014-04-13T13:41:15Z</time>
      </trkpt>
      <trkpt lat="49.16568" lon="6.87865">
        <ele>269.9</ele>
        <time>2014-04-13T13:41:25Z</time>
      </trkpt>
      <trkpt lat="49.16573" lon="6.87874">
        <ele>268.8</ele>
        <time>2014-04-13T13:41:30Z</time>
      </trkpt>
      <trkpt lat="49.16578" lon="6.87883">
        <ele>268.5</ele>
        <time>2014-04-13T13:41:35Z</time>
      </trkpt>
      <trkpt lat="49.16582" lon="6.87893">
        <ele>267.1</ele>
        <time>2014-04-13T13:41:40Z</time>
      </trkpt>
      <trkpt lat="49.16586" lon="6.87902">
        <ele>267.3</ele>
        <time>2014-04-13T13:41:45Z</time>
      </trkpt>
      <trkpt lat="49.16591" lon="6.87912">
        <ele>266.8</ele>
        <time>2014-04-13T13:41:50Z</time>
      </trkpt>
      <trkpt lat="49.16595" lon="6.87921">
        <ele>265.3</ele>
        <time>2014-04-13T13:41:55Z</time>
      </trkpt>
      <trkpt lat="49.166" lon="6.8793">
        <ele>264.8</ele>
        <time>2014-04-13T13:42:00Z</time>
      </trkpt>
      <trkpt lat="49.16605" lon="6.8794">
        <ele>264.5</ele>
        <time>2014-04-13T13:42:05Z</time>
      </trkpt>
      <trkpt lat="49.16608" lon="6.87951">
        <ele>263.4</ele>
        <time>2014-04-13T13:42:10Z</time>
      </trkpt>
      <trkpt lat="49.16611" lon="6.87963">
        <ele>262.4</ele>
        <time>2014-04-13T13:42:15Z</time>
      </trkpt>
      <trkpt lat="49.16615" lon="6.87972">
        <ele>261.6</ele>
        <time>2014-04-13T13:42:20Z</time>
      </trkpt>
      <trkpt lat="49.16625" lon="6.87992">
        <ele>259.1</ele>
        <time>2014-04-13T13:42:30Z</time>
      </trkpt>
      <trkpt lat="49.16629" lon="6.88002">
        <ele>258.7</ele>
        <time>2014-04-13T13:42:35Z</time>
      </trkpt>
      <trkpt lat="49.16633" lon="6.8801">
        <ele>257.1</ele>
        <time>2014-04-13T13:42:40Z</time>
      </trkpt>
      <trkpt lat="49.16637" lon="6.8802">
        <ele>255.4</ele>
        <time>2014-04-13T13:42:45Z</time>
      </trkpt>
      <trkpt lat="49.16641" lon="6.88031">
        <ele>254.6</ele>
        <time>2014-04-13T13:42:50Z</time>
      </trkpt>
      <trkpt lat="49.16645" lon="6.88043">
        <ele>253.2</ele>
        <time>2014-04-13T13:42:55Z</time>
      </trkpt>
      <trkpt lat="49.16649" lon="6.88054">
        <ele>251.5</ele>
        <time>2014-04-13T13:43:00Z</time>
      </trkpt>
      <trkpt lat="49.16653" lon="6.88063">
        <ele>250.7</ele>
        <time>2014-04-13T13:43:05Z</time>
      </trkpt>
      <trkpt lat="49.16658" lon="6.88072">
        <ele>249.8</ele>
        <time>2014-04-13T13:43:10Z</time>
      </trkpt>
      <trkpt lat="49.16662" lon="6.88079">
        <ele>248.6</ele>
        <time>2014-04-13T13:43:15Z</time>
      </trkpt>
      <trkpt lat="49.16667" lon="6.88086">
        <ele>249.1</ele>
        <time>2014-04-13T13:43:20Z</time>
      </trkpt>
      <trkpt lat="49.16671" lon="6.88093">
        <ele>248.8</ele>
        <time>2014-04-13T13:43:25Z</time>
      </trkpt>
      <trkpt lat="49.16677" lon="6.88104">
        <ele>248.9</ele>
        <time>2014-04-13T13:43:35Z</time>
      </trkpt>
      <trkpt lat="49.16679" lon="6.88108">
        <ele>248.3</ele>
        <time>2014-04-13T13:43:40Z</time>
      </trkpt>
      <trkpt lat="49.16682" lon="6.8811">
        <ele>248.6</ele>
        <time>2014-04-13T13:43:45Z</time>
      </trkpt>
      <trkpt lat="49.16684" lon="6.88111">
        <ele>248.6</ele>
        <time>2014-04-13T13:43:50Z</time>
      </trkpt>
      <trkpt lat="49.16686" lon="6.88113">
        <ele>248</ele>
        <time>2014-04-13T13:43:55Z</time>
      </trkpt>
      <trkpt lat="49.16686" lon="6.88116">
        <ele>248.4</ele>
        <time>2014-04-13T13:44:00Z</time>
      </trkpt>
      <trkpt lat="49.16687" lon="6.8812">
        <ele>247</ele>
        <time>2014-04-13T13:44:06Z</time>
      </trkpt>
      <trkpt lat="49.16689" lon="6.88122">
        <ele>247.5</ele>
        <time>2014-04-13T13:44:11Z</time>
      </trkpt>
      <trkpt lat="49.16691" lon="6.88123">
        <ele>248.2</ele>
        <time>2014-04-13T13:44:16Z</time>
      </trkpt>
      <trkpt lat="49.16694" lon="6.88124">
        <ele>248.6</ele>
        <time>2014-04-13T13:44:21Z</time>
      </trkpt>
      <trkpt lat="49.16696" lon="6.88123">
        <ele>247.2</ele>
        <time>2014-04-13T13:44:26Z</time>
      </trkpt>
      <trkpt lat="49.16697" lon="6.8812">
        <ele>248.4</ele>
        <time>2014-04-13T13:44:36Z</time>
      </trkpt>
      <trkpt lat="49.16696" lon="6.88117">
        <ele>248</ele>
        <time>2014-04-13T13:44:41Z</time>
      </trkpt>
      <trkpt lat="49.16695" lon="6.88114">
        <ele>248.1</ele>
        <time>2014-04-13T13:44:46Z</time>
      </trkpt>
      <trkpt lat="49.16694" lon="6.88111">
        <ele>248.2</ele>
        <time>2014-04-13T13:44:51Z</time>
      </trkpt>
      <trkpt lat="49.16697" lon="6.8811">
        <ele>247.3</ele>
        <time>2014-04-13T13:44:56Z</time>
      </trkpt>
      <trkpt lat="49.16701" lon="6.88109">
        <ele>247.4</ele>
        <time>2014-04-13T13:45:01Z</time>
      </trkpt>
      <trkpt lat="49.16702" lon="6.88109">
        <ele>246.9</ele>
        <time>2014-04-13T13:45:06Z</time>
      </trkpt>
      <trkpt lat="49.16702" lon="6.88109">
        <ele>248.5</ele>
        <time>2014-04-13T13:45:11Z</time>
      </trkpt>
      <trkpt lat="49.167" lon="6.88109">
        <ele>247.9</ele>
        <time>2014-04-13T13:45:16Z</time>
      </trkpt>
      <trkpt lat="49.16699" lon="6.88109">
        <ele>247.4</ele>
        <time>2014-04-13T13:45:21Z</time>
      </trkpt>
      <trkpt lat="49.16698" lon="6.88109">
        <ele>247.4</ele>
        <time>2014-04-13T13:45:26Z</time>
      </trkpt>
      <trkpt lat="49.16698" lon="6.88109">
        <ele>246.7</ele>
        <time>2014-04-13T13:45:31Z</time>
      </trkpt>
      <trkpt lat="49.16695" lon="6.8811">
        <ele>246.8</ele>
        <time>2014-04-13T13:45:41Z</time>
      </trkpt>
      <trkpt lat="49.1669" lon="6.88109">
        <ele>247.1</ele>
        <time>2014-04-13T13:45:46Z</time>
      </trkpt>
      <trkpt lat="49.16685" lon="6.88107">
        <ele>246.9</ele>
        <time>2014-04-13T13:45:51Z</time>
      </trkpt>
      <trkpt lat="49.16682" lon="6.88106">
        <ele>246</ele>
        <time>2014-04-13T13:45:56Z</time>
      </trkpt>
      <trkpt lat="49.16681" lon="6.88106">
        <ele>246.7</ele>
        <time>2014-04-13T13:46:01Z</time>
      </trkpt>
      <trkpt lat="49.16682" lon="6.88107">
        <ele>246.8</ele>
        <time>2014-04-13T13:46:06Z</time>
      </trkpt>
      <trkpt lat="49.16684" lon="6.88107">
        <ele>246.8</ele>
        <time>2014-04-13T13:46:11Z</time>
      </trkpt>
      <trkpt lat="49.16685" lon="6.88108">
        <ele>248</ele>
        <time>2014-04-13T13:46:16Z</time>
      </trkpt>
      <trkpt lat="49.16686" lon="6.88108">
        <ele>248</ele>
        <time>2014-04-13T13:46:21Z</time>
      </trkpt>
      <trkpt lat="49.16687" lon="6.88108">
        <ele>247</ele>
        <time>2014-04-13T13:46:26Z</time>
      </trkpt>
      <trkpt lat="49.16687" lon="6.88109">
        <ele>247.6</ele>
        <time>2014-04-13T13:46:31Z</time>
      </trkpt>
      <trkpt lat="49.16687" lon="6.88109">
        <ele>246.9</ele>
        <time>2014-04-13T13:46:36Z</time>
      </trkpt>
      <trkpt lat="49.16685" lon="6.88111">
        <ele>247.5</ele>
        <time>2014-04-13T13:46:46Z</time>
      </trkpt>
      <trkpt lat="49.16684" lon="6.88112">
        <ele>247</ele>
        <time>2014-04-13T13:46:51Z</time>
      </trkpt>
      <trkpt lat="49.16685" lon="6.88114">
        <ele>247</ele>
        <time>2014-04-13T13:46:56Z</time>
      </trkpt>
      <trkpt lat="49.16687" lon="6.88116">
        <ele>246.5</ele>
        <time>2014-04-13T13:47:01Z</time>
      </trkpt>
      <trkpt lat="49.16691" lon="6.88119">
        <ele>247</ele>
        <time>2014-04-13T13:47:06Z</time>
      </trkpt>
      <trkpt lat="49.16695" lon="6.8812">
        <ele>246.5</ele>
        <time>2014-04-13T13:47:11Z</time>
      </trkpt>
      <trkpt lat="49.167" lon="6.88122">
        <ele>245.6</ele>
        <time>2014-04-13T13:47:16Z</time>
      </trkpt>
      <trkpt lat="49.16703" lon="6.88122">
        <ele>244.6</ele>
        <time>2014-04-13T13:47:21Z</time>
      </trkpt>
      <trkpt lat="49.16707" lon="6.88123">
        <ele>243.4</ele>
        <time>2014-04-13T13:47:26Z</time>
      </trkpt>
      <trkpt lat="49.16711" lon="6.88123">
        <ele>242.7</ele>
        <time>2014-04-13T13:47:31Z</time>
      </trkpt>
      <trkpt lat="49.16716" lon="6.88123">
        <ele>241.9</ele>
        <time>2014-04-13T13:47:36Z</time>
      </trkpt>
      <trkpt lat="49.16721" lon="6.88122">
        <ele>240.9</ele>
        <time>2014-04-13T13:47:41Z</time>
      </trkpt>
      <trkpt lat="49.16734" lon="6.88122">
        <ele>238.9</ele>
        <time>2014-04-13T13:47:51Z</time>
      </trkpt>
      <trkpt lat="49.1674" lon="6.8812">
        <ele>238.2</ele>
        <time>2014-04-13T13:47:56Z</time>
      </trkpt>
      <trkpt lat="49.16747" lon="6.8812">
        <ele>236.7</ele>
        <time>2014-04-13T13:48:01Z</time>
      </trkpt>
      <trkpt lat="49.16753" lon="6.88118">
        <ele>236.4</ele>
        <time>2014-04-13T13:48:06Z</time>
      </trkpt>
      <trkpt lat="49.1676" lon="6.88116">
        <ele>235.5</ele>
        <time>2014-04-13T13:48:11Z</time>
      </trkpt>
      <trkpt lat="49.16765" lon="6.88121">
        <ele>235.5</ele>
        <time>2014-04-13T13:48:16Z</time>
      </trkpt>
      <trkpt lat="49.16769" lon="6.88129">
        <ele>234.2</ele>
        <time>2014-04-13T13:48:21Z</time>
      </trkpt>
      <trkpt lat="49.16772" lon="6.88138">
        <ele>233</ele>
        <time>2014-04-13T13:48:26Z</time>
      </trkpt>
      <trkpt lat="49.16774" lon="6.88147">
        <ele>232.7</ele>
        <time>2014-04-13T13:48:31Z</time>
      </trkpt>
      <trkpt lat="49.16776" lon="6.88157">
        <ele>233.1</ele>
        <time>2014-04-13T13:48:36Z</time>
      </trkpt>
      <trkpt lat="49.16777" lon="6.88165">
        <ele>232.1</ele>
        <time>2014-04-13T13:48:41Z</time>
      </trkpt>
      <trkpt lat="49.16778" lon="6.88174">
        <ele>231.4</ele>
        <time>2014-04-13T13:48:46Z</time>
      </trkpt>
      <trkpt lat="49.16781" lon="6.88192">
        <ele>229.2</ele>
        <time>2014-04-13T13:48:56Z</time>
      </trkpt>
      <trkpt lat="49.16785" lon="6.88202">
        <ele>228.6</ele>
        <time>2014-04-13T13:49:01Z</time>
      </trkpt>
      <trkpt lat="49.16789" lon="6.8821">
        <ele>226.6</ele>
        <time>2014-04-13T13:49:06Z</time>
      </trkpt>
      <trkpt lat="49.16792" lon="6.88219">
        <ele>226.3</ele>
        <time>2014-04-13T13:49:11Z</time>
      </trkpt>
      <trkpt lat="49.16797" lon="6.88228">
        <ele>226</ele>
        <time>2014-04-13T13:49:16Z</time>
      </trkpt>
      <trkpt lat="49.16802" lon="6.88238">
        <ele>225.6</ele>
        <time>2014-04-13T13:49:21Z</time>
      </trkpt>
      <trkpt lat="49.16806" lon="6.88246">
        <ele>225.7</ele>
        <time>2014-04-13T13:49:26Z</time>
      </trkpt>
      <trkpt lat="49.16812" lon="6.88255">
        <ele>226.4</ele>
        <time>2014-04-13T13:49:31Z</time>
      </trkpt>
      <trkpt lat="49.16816" lon="6.88262">
        <ele>225.5</ele>
        <time>2014-04-13T13:49:36Z</time>
      </trkpt>
      <trkpt lat="49.1682" lon="6.88266">
        <ele>225.2</ele>
        <time>2014-04-13T13:49:41Z</time>
      </trkpt>
      <trkpt lat="49.16826" lon="6.88271">
        <ele>226.3</ele>
        <time>2014-04-13T13:49:46Z</time>
      </trkpt>
      <trkpt lat="49.16831" lon="6.88276">
        <ele>226.1</ele>
        <time>2014-04-13T13:49:51Z</time>
      </trkpt>
      <trkpt lat="49.16844" lon="6.88281">
        <ele>228</ele>
        <time>2014-04-13T13:50:01Z</time>
      </trkpt>
      <trkpt lat="49.16849" lon="6.88283">
        <ele>228.3</ele>
        <time>2014-04-13T13:50:06Z</time>
      </trkpt>
      <trkpt lat="49.16857" lon="6.88284">
        <ele>230.4</ele>
        <time>2014-04-13T13:50:11Z</time>
      </trkpt>
      <trkpt lat="49.16862" lon="6.88285">
        <ele>230.6</ele>
        <time>2014-04-13T13:50:16Z</time>
      </trkpt>
      <trkpt lat="49.16869" lon="6.88287">
        <ele>230.6</ele>
        <time>2014-04-13T13:50:21Z</time>
      </trkpt>
      <trkpt lat="49.16874" lon="6.88288">
        <ele>231.7</ele>
        <time>2014-04-13T13:50:26Z</time>
      </trkpt>
      <trkpt lat="49.16881" lon="6.8829">
        <ele>232.5</ele>
        <time>2014-04-13T13:50:31Z</time>
      </trkpt>
      <trkpt lat="49.16888" lon="6.88292">
        <ele>232.8</ele>
        <time>2014-04-13T13:50:36Z</time>
      </trkpt>
      <trkpt lat="49.16895" lon="6.88295">
        <ele>235.5</ele>
        <time>2014-04-13T13:50:41Z</time>
      </trkpt>
      <trkpt lat="49.16902" lon="6.88298">
        <ele>236.9</ele>
        <time>2014-04-13T13:50:46Z</time>
      </trkpt>
      <trkpt lat="49.16909" lon="6.88299">
        <ele>236.5</ele>
        <time>2014-04-13T13:50:51Z</time>
      </trkpt>
      <trkpt lat="49.16915" lon="6.88299">
        <ele>237.2</ele>
        <time>2014-04-13T13:50:56Z</time>
      </trkpt>
      <trkpt lat="49.16926" lon="6.88302">
        <ele>238</ele>
        <time>2014-04-13T13:51:06Z</time>
      </trkpt>
      <trkpt lat="49.16931" lon="6.88307">
        <ele>239.7</ele>
        <time>2014-04-13T13:51:11Z</time>
      </trkpt>
      <trkpt lat="49.16936" lon="6.88312">
        <ele>240.7</ele>
        <time>2014-04-13T13:51:16Z</time>
      </trkpt>
      <trkpt lat="49.16943" lon="6.88316">
        <ele>241.2</ele>
        <time>2014-04-13T13:51:21Z</time>
      </trkpt>
      <trkpt lat="49.1695" lon="6.8832">
        <ele>241.3</ele>
        <time>2014-04-13T13:51:26Z</time>
      </trkpt>
      <trkpt lat="49.16957" lon="6.88324">
        <ele>241.5</ele>
        <time>2014-04-13T13:51:31Z</time>
      </trkpt>
      <trkpt lat="49.16962" lon="6.88327">
        <ele>240.2</ele>
        <time>2014-04-13T13:51:36Z</time>
      </trkpt>
      <trkpt lat="49.16967" lon="6.88331">
        <ele>240.9</ele>
        <time>2014-04-13T13:51:41Z</time>
      </trkpt>
      <trkpt lat="49.16973" lon="6.88337">
        <ele>240.4</ele>
        <time>2014-04-13T13:51:46Z</time>
      </trkpt>
      <trkpt lat="49.16981" lon="6.88343">
        <ele>240.4</ele>
        <time>2014-04-13T13:51:51Z</time>
      </trkpt>
      <trkpt lat="49.16988" lon="6.88349">
        <ele>239.9</ele>
        <time>2014-04-13T13:51:56Z</time>
      </trkpt>
      <trkpt lat="49.16993" lon="6.88355">
        <ele>238.3</ele>
        <time>2014-04-13T13:52:01Z</time>
      </trkpt>
      <trkpt lat="49.17004" lon="6.88365">
        <ele>237.1</ele>
        <time>2014-04-13T13:52:11Z</time>
      </trkpt>
      <trkpt lat="49.1701" lon="6.88371">
        <ele>237.3</ele>
        <time>2014-04-13T13:52:16Z</time>
      </trkpt>
      <trkpt lat="49.17014" lon="6.88375">
        <ele>236.6</ele>
        <time>2014-04-13T13:52:21Z</time>
      </trkpt>
      <trkpt lat="49.17019" lon="6.88382">
        <ele>235.7</ele>
        <time>2014-04-13T13:52:26Z</time>
      </trkpt>
      <trkpt lat="49.17023" lon="6.88388">
        <ele>235</ele>
        <time>2014-04-13T13:52:31Z</time>
      </trkpt>
      <trkpt lat="49.17027" lon="6.88396">
        <ele>233.8</ele>
        <time>2014-04-13T13:52:36Z</time>
      </trkpt>
      <trkpt lat="49.17029" lon="6.88403">
        <ele>232.6</ele>
        <time>2014-04-13T13:52:41Z</time>
      </trkpt>
      <trkpt lat="49.17031" lon="6.88411">
        <ele>232.3</ele>
        <time>2014-04-13T13:52:46Z</time>
      </trkpt>
      <trkpt lat="49.17034" lon="6.88419">
        <ele>230.7</ele>
        <time>2014-04-13T13:52:51Z</time>
      </trkpt>
      <trkpt lat="49.17037" lon="6.88426">
        <ele>228.5</ele>
        <time>2014-04-13T13:52:56Z</time>
      </trkpt>
      <trkpt lat="49.17042" lon="6.88435">
        <ele>227.4</ele>
        <time>2014-04-13T13:53:01Z</time>
      </trkpt>
      <trkpt lat="49.17044" lon="6.88443">
        <ele>228.5</ele>
        <time>2014-04-13T13:53:06Z</time>
      </trkpt>
      <trkpt lat="49.17049" lon="6.88463">
        <ele>227.8</ele>
        <time>2014-04-13T13:53:16Z</time>
      </trkpt>
      <trkpt lat="49.1705" lon="6.88472">
        <ele>228.2</ele>
        <time>2014-04-13T13:53:21Z</time>
      </trkpt>
      <trkpt lat="49.17049" lon="6.8848">
        <ele>231.1</ele>
        <time>2014-04-13T13:53:26Z</time>
      </trkpt>
      <trkpt lat="49.17046" lon="6.88486">
        <ele>231.1</ele>
        <time>2014-04-13T13:53:31Z</time>
      </trkpt>
      <trkpt lat="49.17043" lon="6.88496">
        <ele>232.1</ele>
        <time>2014-04-13T13:53:36Z</time>
      </trkpt>
      <trkpt lat="49.1704" lon="6.88506">
        <ele>233.8</ele>
        <time>2014-04-13T13:53:41Z</time>
      </trkpt>
      <trkpt lat="49.17039" lon="6.88514">
        <ele>234.5</ele>
        <time>2014-04-13T13:53:46Z</time>
      </trkpt>
      <trkpt lat="49.17039" lon="6.88522">
        <ele>235.2</ele>
        <time>2014-04-13T13:53:51Z</time>
      </trkpt>
      <trkpt lat="49.17042" lon="6.88528">
        <ele>235.8</ele>
        <time>2014-04-13T13:53:56Z</time>
      </trkpt>
      <trkpt lat="49.17046" lon="6.88532">
        <ele>235.1</ele>
        <time>2014-04-13T13:54:01Z</time>
      </trkpt>
      <trkpt lat="49.1705" lon="6.88532">
        <ele>234.7</ele>
        <time>2014-04-13T13:54:06Z</time>
      </trkpt>
      <trkpt lat="49.17055" lon="6.88529">
        <ele>233.1</ele>
        <time>2014-04-13T13:54:11Z</time>
      </trkpt>
      <trkpt lat="49.17059" lon="6.88518">
        <ele>233.1</ele>
        <time>2014-04-13T13:54:21Z</time>
      </trkpt>
      <trkpt lat="49.17061" lon="6.88511">
        <ele>231.9</ele>
        <time>2014-04-13T13:54:26Z</time>
      </trkpt>
      <trkpt lat="49.17063" lon="6.88505">
        <ele>232</ele>
        <time>2014-04-13T13:54:31Z</time>
      </trkpt>
      <trkpt lat="49.17067" lon="6.88495">
        <ele>231</ele>
        <time>2014-04-13T13:54:37Z</time>
      </trkpt>
      <trkpt lat="49.17071" lon="6.88489">
        <ele>231.1</ele>
        <time>2014-04-13T13:54:42Z</time>
      </trkpt>
      <trkpt lat="49.17079" lon="6.88485">
        <ele>230.5</ele>
        <time>2014-04-13T13:54:47Z</time>
      </trkpt>
      <trkpt lat="49.17086" lon="6.8848">
        <ele>229.6</ele>
        <time>2014-04-13T13:54:52Z</time>
      </trkpt>
      <trkpt lat="49.17094" lon="6.88475">
        <ele>229.9</ele>
        <time>2014-04-13T13:54:57Z</time>
      </trkpt>
      <trkpt lat="49.17102" lon="6.88468">
        <ele>228.6</ele>
        <time>2014-04-13T13:55:02Z</time>
      </trkpt>
      <trkpt lat="49.17107" lon="6.8846">
        <ele>229.3</ele>
        <time>2014-04-13T13:55:07Z</time>
      </trkpt>
      <trkpt lat="49.17112" lon="6.88452">
        <ele>227.7</ele>
        <time>2014-04-13T13:55:12Z</time>
      </trkpt>
      <trkpt lat="49.17122" lon="6.88439">
        <ele>227.2</ele>
        <time>2014-04-13T13:55:22Z</time>
      </trkpt>
      <trkpt lat="49.17129" lon="6.88434">
        <ele>227.5</ele>
        <time>2014-04-13T13:55:27Z</time>
      </trkpt>
      <trkpt lat="49.17136" lon="6.88429">
        <ele>227.6</ele>
        <time>2014-04-13T13:55:32Z</time>
      </trkpt>
      <trkpt lat="49.17143" lon="6.88424">
        <ele>227.8</ele>
        <time>2014-04-13T13:55:37Z</time>
      </trkpt>
      <trkpt lat="49.1715" lon="6.88421">
        <ele>228.4</ele>
        <time>2014-04-13T13:55:42Z</time>
      </trkpt>
      <trkpt lat="49.17159" lon="6.8842">
        <ele>229.5</ele>
        <time>2014-04-13T13:55:47Z</time>
      </trkpt>
      <trkpt lat="49.17167" lon="6.88421">
        <ele>230.5</ele>
        <time>2014-04-13T13:55:52Z</time>
      </trkpt>
      <trkpt lat="49.17176" lon="6.88422">
        <ele>230.3</ele>
        <time>2014-04-13T13:55:57Z</time>
      </trkpt>
      <trkpt lat="49.17185" lon="6.88424">
        <ele>230.7</ele>
        <time>2014-04-13T13:56:02Z</time>
      </trkpt>
      <trkpt lat="49.17193" lon="6.88427">
        <ele>232.3</ele>
        <time>2014-04-13T13:56:07Z</time>
      </trkpt>
      <trkpt lat="49.17202" lon="6.8843">
        <ele>232.8</ele>
        <time>2014-04-13T13:56:12Z</time>
      </trkpt>
      <trkpt lat="49.17211" lon="6.88434">
        <ele>234.8</ele>
        <time>2014-04-13T13:56:17Z</time>
      </trkpt>
      <trkpt lat="49.17224" lon="6.88443">
        <ele>235.7</ele>
        <time>2014-04-13T13:56:27Z</time>
      </trkpt>
      <trkpt lat="49.1723" lon="6.88449">
        <ele>235.3</ele>
        <time>2014-04-13T13:56:32Z</time>
      </trkpt>
      <trkpt lat="49.17235" lon="6.88453">
        <ele>236.1</ele>
        <time>2014-04-13T13:56:37Z</time>
      </trkpt>
      <trkpt lat="49.17241" lon="6.88458">
        <ele>236.4</ele>
        <time>2014-04-13T13:56:42Z</time>
      </trkpt>
      <trkpt lat="49.17248" lon="6.88464">
        <ele>237.4</ele>
        <time>2014-04-13T13:56:47Z</time>
      </trkpt>
      <trkpt lat="49.17254" lon="6.88471">
        <ele>237.5</ele>
        <time>2014-04-13T13:56:52Z</time>
      </trkpt>
      <trkpt lat="49.1726" lon="6.88479">
        <ele>238.1</ele>
        <time>2014-04-13T13:56:57Z</time>
      </trkpt>
      <trkpt lat="49.17267" lon="6.88485">
        <ele>238</ele>
        <time>2014-04-13T13:57:02Z</time>
      </trkpt>
      <trkpt lat="49.17272" lon="6.88491">
        <ele>237.8</ele>
        <time>2014-04-13T13:57:07Z</time>
      </trkpt>
      <trkpt lat="49.17278" lon="6.88498">
        <ele>239.2</ele>
        <time>2014-04-13T13:57:12Z</time>
      </trkpt>
      <trkpt lat="49.17283" lon="6.88504">
        <ele>239.8</ele>
        <time>2014-04-13T13:57:17Z</time>
      </trkpt>
      <trkpt lat="49.17286" lon="6.88511">
        <ele>240.2</ele>
        <time>2014-04-13T13:57:22Z</time>
      </trkpt>
      <trkpt lat="49.17294" lon="6.88524">
        <ele>240.6</ele>
        <time>2014-04-13T13:57:32Z</time>
      </trkpt>
      <trkpt lat="49.17298" lon="6.88532">
        <ele>240.6</ele>
        <time>2014-04-13T13:57:37Z</time>
      </trkpt>
      <trkpt lat="49.17302" lon="6.8854">
        <ele>241.5</ele>
        <time>2014-04-13T13:57:42Z</time>
      </trkpt>
      <trkpt lat="49.17309" lon="6.88548">
        <ele>241.9</ele>
        <time>2014-04-13T13:57:47Z</time>
      </trkpt>
      <trkpt lat="49.17315" lon="6.88556">
        <ele>241.9</ele>
        <time>2014-04-13T13:57:52Z</time>
      </trkpt>
      <trkpt lat="49.17321" lon="6.88564">
        <ele>241.7</ele>
        <time>2014-04-13T13:57:57Z</time>
      </trkpt>
      <trkpt lat="49.17327" lon="6.88572">
        <ele>242.7</ele>
        <time>2014-04-13T13:58:02Z</time>
      </trkpt>
      <trkpt lat="49.17331" lon="6.8858">
        <ele>243.7</ele>
        <time>2014-04-13T13:58:07Z</time>
      </trkpt>
      <trkpt lat="49.17334" lon="6.88587">
        <ele>244.2</ele>
        <time>2014-04-13T13:58:12Z</time>
      </trkpt>
      <trkpt lat="49.17335" lon="6.88595">
        <ele>244</ele>
        <time>2014-04-13T13:58:17Z</time>
      </trkpt>
      <trkpt lat="49.17338" lon="6.88604">
        <ele>243.9</ele>
        <time>2014-04-13T13:58:22Z</time>
      </trkpt>
      <trkpt lat="49.17343" lon="6.88613">
        <ele>244.5</ele>
        <time>2014-04-13T13:58:27Z</time>
      </trkpt>
      <trkpt lat="49.17349" lon="6.88631">
        <ele>244</ele>
        <time>2014-04-13T13:58:37Z</time>
      </trkpt>
      <trkpt lat="49.17353" lon="6.8864">
        <ele>244.1</ele>
        <time>2014-04-13T13:58:42Z</time>
      </trkpt>
      <trkpt lat="49.17357" lon="6.88648">
        <ele>243.9</ele>
        <time>2014-04-13T13:58:47Z</time>
      </trkpt>
      <trkpt lat="49.17361" lon="6.88656">
        <ele>243.3</ele>
        <time>2014-04-13T13:58:52Z</time>
      </trkpt>
      <trkpt lat="49.17365" lon="6.88665">
        <ele>243.6</ele>
        <time>2014-04-13T13:58:57Z</time>
      </trkpt>
      <trkpt lat="49.17368" lon="6.88674">
        <ele>244.4</ele>
        <time>2014-04-13T13:59:02Z</time>
      </trkpt>
      <trkpt lat="49.1737" lon="6.88682">
        <ele>244.7</ele>
        <time>2014-04-13T13:59:07Z</time>
      </trkpt>
      <trkpt lat="49.17374" lon="6.88692">
        <ele>244.9</ele>
        <time>2014-04-13T13:59:12Z</time>
      </trkpt>
      <trkpt lat="49.17378" lon="6.887">
        <ele>245.1</ele>
        <time>2014-04-13T13:59:17Z</time>
      </trkpt>
      <trkpt lat="49.17381" lon="6.8871">
        <ele>245</ele>
        <time>2014-04-13T13:59:22Z</time>
      </trkpt>
      <trkpt lat="49.17384" lon="6.8872">
        <ele>244.6</ele>
        <time>2014-04-13T13:59:27Z</time>
      </trkpt>
      <trkpt lat="49.17386" lon="6.8873">
        <ele>244.5</ele>
        <time>2014-04-13T13:59:32Z</time>
      </trkpt>
      <trkpt lat="49.17392" lon="6.88751">
        <ele>245.1</ele>
        <time>2014-04-13T13:59:42Z</time>
      </trkpt>
      <trkpt lat="49.17394" lon="6.8876">
        <ele>244.6</ele>
        <time>2014-04-13T13:59:47Z</time>
      </trkpt>
      <trkpt lat="49.17397" lon="6.88771">
        <ele>245.8</ele>
        <time>2014-04-13T13:59:52Z</time>
      </trkpt>
      <trkpt lat="49.17401" lon="6.88782">
        <ele>245.9</ele>
        <time>2014-04-13T13:59:57Z</time>
      </trkpt>
      <trkpt lat="49.17404" lon="6.88792">
        <ele>245.3</ele>
        <time>2014-04-13T14:00:02Z</time>
      </trkpt>
      <trkpt lat="49.17408" lon="6.888">
        <ele>245.2</ele>
        <time>2014-04-13T14:00:07Z</time>
      </trkpt>
      <trkpt lat="49.17412" lon="6.88807">
        <ele>245.5</ele>
        <time>2014-04-13T14:00:12Z</time>
      </trkpt>
      <trkpt lat="49.17416" lon="6.88814">
        <ele>246.6</ele>
        <time>2014-04-13T14:00:17Z</time>
      </trkpt>
      <trkpt lat="49.17422" lon="6.88822">
        <ele>247</ele>
        <time>2014-04-13T14:00:22Z</time>
      </trkpt>
      <trkpt lat="49.17428" lon="6.88828">
        <ele>248.4</ele>
        <time>2014-04-13T14:00:27Z</time>
      </trkpt>
      <trkpt lat="49.17435" lon="6.88836">
        <ele>250</ele>
        <time>2014-04-13T14:00:32Z</time>
      </trkpt>
      <trkpt lat="49.17439" lon="6.88843">
        <ele>249.7</ele>
        <time>2014-04-13T14:00:37Z</time>
      </trkpt>
      <trkpt lat="49.17444" lon="6.88857">
        <ele>251.9</ele>
        <time>2014-04-13T14:00:47Z</time>
      </trkpt>
      <trkpt lat="49.17445" lon="6.88863">
        <ele>251.5</ele>
        <time>2014-04-13T14:00:52Z</time>
      </trkpt>
      <trkpt lat="49.17447" lon="6.88869">
        <ele>253.2</ele>
        <time>2014-04-13T14:00:57Z</time>
      </trkpt>
      <trkpt lat="49.1745" lon="6.88875">
        <ele>254.3</ele>
        <time>2014-04-13T14:01:02Z</time>
      </trkpt>
      <trkpt lat="49.17455" lon="6.88883">
        <ele>254.4</ele>
        <time>2014-04-13T14:01:07Z</time>
      </trkpt>
      <trkpt lat="49.17457" lon="6.88889">
        <ele>255.8</ele>
        <time>2014-04-13T14:01:12Z</time>
      </trkpt>
      <trkpt lat="49.17458" lon="6.88894">
        <ele>256</ele>
        <time>2014-04-13T14:01:17Z</time>
      </trkpt>
      <trkpt lat="49.17459" lon="6.88901">
        <ele>256.9</ele>
        <time>2014-04-13T14:01:22Z</time>
      </trkpt>
      <trkpt lat="49.1746" lon="6.88906">
        <ele>256.2</ele>
        <time>2014-04-13T14:01:27Z</time>
      </trkpt>
      <trkpt lat="49.17459" lon="6.88909">
        <ele>258.6</ele>
        <time>2014-04-13T14:01:32Z</time>
      </trkpt>
      <trkpt lat="49.17459" lon="6.88913">
        <ele>258.6</ele>
        <time>2014-04-13T14:01:37Z</time>
      </trkpt>
      <trkpt lat="49.17462" lon="6.88917">
        <ele>258.4</ele>
        <time>2014-04-13T14:01:42Z</time>
      </trkpt>
      <trkpt lat="49.17465" lon="6.88923">
        <ele>259</ele>
        <time>2014-04-13T14:01:52Z</time>
      </trkpt>
      <trkpt lat="49.17467" lon="6.88928">
        <ele>259.1</ele>
        <time>2014-04-13T14:01:57Z</time>
      </trkpt>
      <trkpt lat="49.17468" lon="6.88933">
        <ele>259.8</ele>
        <time>2014-04-13T14:02:02Z</time>
      </trkpt>
      <trkpt lat="49.17467" lon="6.88937">
        <ele>260.2</ele>
        <time>2014-04-13T14:02:07Z</time>
      </trkpt>
      <trkpt lat="49.17467" lon="6.88939">
        <ele>260.3</ele>
        <time>2014-04-13T14:02:12Z</time>
      </trkpt>
      <trkpt lat="49.17467" lon="6.88938">
        <ele>260.6</ele>
        <time>2014-04-13T14:02:17Z</time>
      </trkpt>
      <trkpt lat="49.17469" lon="6.88936">
        <ele>261.1</ele>
        <time>2014-04-13T14:02:22Z</time>
      </trkpt>
      <trkpt lat="49.17471" lon="6.88934">
        <ele>261.2</ele>
        <time>2014-04-13T14:02:27Z</time>
      </trkpt>
      <trkpt lat="49.1747" lon="6.88932">
        <ele>261.4</ele>
        <time>2014-04-13T14:02:32Z</time>
      </trkpt>
      <trkpt lat="49.17469" lon="6.8893">
        <ele>262.6</ele>
        <time>2014-04-13T14:02:37Z</time>
      </trkpt>
      <trkpt lat="49.17466" lon="6.88932">
        <ele>262.6</ele>
        <time>2014-04-13T14:02:42Z</time>
      </trkpt>
      <trkpt lat="49.17465" lon="6.88936">
        <ele>263.7</ele>
        <time>2014-04-13T14:02:47Z</time>
      </trkpt>
      <trkpt lat="49.17467" lon="6.88946">
        <ele>263.5</ele>
        <time>2014-04-13T14:02:57Z</time>
      </trkpt>
      <trkpt lat="49.17469" lon="6.88952">
        <ele>263.3</ele>
        <time>2014-04-13T14:03:02Z</time>
      </trkpt>
      <trkpt lat="49.17472" lon="6.88957">
        <ele>263.3</ele>
        <time>2014-04-13T14:03:07Z</time>
      </trkpt>
      <trkpt lat="49.17474" lon="6.8896">
        <ele>263.5</ele>
        <time>2014-04-13T14:03:12Z</time>
      </trkpt>
      <trkpt lat="49.17477" lon="6.88964">
        <ele>262.6</ele>
        <time>2014-04-13T14:03:17Z</time>
      </trkpt>
      <trkpt lat="49.17478" lon="6.8897">
        <ele>264.6</ele>
        <time>2014-04-13T14:03:22Z</time>
      </trkpt>
      <trkpt lat="49.17478" lon="6.88973">
        <ele>264.6</ele>
        <time>2014-04-13T14:03:27Z</time>
      </trkpt>
      <trkpt lat="49.17479" lon="6.88977">
        <ele>264.2</ele>
        <time>2014-04-13T14:03:32Z</time>
      </trkpt>
      <trkpt lat="49.1748" lon="6.88982">
        <ele>264.3</ele>
        <time>2014-04-13T14:03:37Z</time>
      </trkpt>
      <trkpt lat="49.17482" lon="6.88986">
        <ele>264.5</ele>
        <time>2014-04-13T14:03:42Z</time>
      </trkpt>
      <trkpt lat="49.17483" lon="6.88992">
        <ele>264.4</ele>
        <time>2014-04-13T14:03:47Z</time>
      </trkpt>
      <trkpt lat="49.17482" lon="6.88997">
        <ele>264.4</ele>
        <time>2014-04-13T14:03:52Z</time>
      </trkpt>
      <trkpt lat="49.17481" lon="6.89003">
        <ele>265.8</ele>
        <time>2014-04-13T14:04:02Z</time>
      </trkpt>
      <trkpt lat="49.1748" lon="6.89007">
        <ele>265.6</ele>
        <time>2014-04-13T14:04:07Z</time>
      </trkpt>
      <trkpt lat="49.17478" lon="6.89013">
        <ele>266.9</ele>
        <time>2014-04-13T14:04:12Z</time>
      </trkpt>
      <trkpt lat="49.17478" lon="6.89018">
        <ele>267.6</ele>
        <time>2014-04-13T14:04:17Z</time>
      </trkpt>
      <trkpt lat="49.17476" lon="6.89023">
        <ele>268.3</ele>
        <time>2014-04-13T14:04:22Z</time>
      </trkpt>
      <trkpt lat="49.17478" lon="6.89028">
        <ele>267.5</ele>
        <time>2014-04-13T14:04:27Z</time>
      </trkpt>
      <trkpt lat="49.1748" lon="6.89034">
        <ele>267.6</ele>
        <time>2014-04-13T14:04:32Z</time>
      </trkpt>
      <trkpt lat="49.17484" lon="6.89041">
        <ele>267.8</ele>
        <time>2014-04-13T14:04:37Z</time>
      </trkpt>
      <trkpt lat="49.17488" lon="6.89047">
        <ele>267</ele>
        <time>2014-04-13T14:04:42Z</time>
      </trkpt>
      <trkpt lat="49.17492" lon="6.89055">
        <ele>266.5</ele>
        <time>2014-04-13T14:04:47Z</time>
      </trkpt>
      <trkpt lat="49.17495" lon="6.89061">
        <ele>265.4</ele>
        <time>2014-04-13T14:04:52Z</time>
      </trkpt>
      <trkpt lat="49.175" lon="6.89069">
        <ele>264.6</ele>
        <time>2014-04-13T14:04:57Z</time>
      </trkpt>
      <trkpt lat="49.17509" lon="6.89083">
        <ele>263.1</ele>
        <time>2014-04-13T14:05:07Z</time>
      </trkpt>
      <trkpt lat="49.17513" lon="6.8909">
        <ele>263</ele>
        <time>2014-04-13T14:05:12Z</time>
      </trkpt>
      <trkpt lat="49.17517" lon="6.89098">
        <ele>262.7</ele>
        <time>2014-04-13T14:05:17Z</time>
      </trkpt>
      <trkpt lat="49.1752" lon="6.89102">
        <ele>262.4</ele>
        <time>2014-04-13T14:05:22Z</time>
      </trkpt>
      <trkpt lat="49.17521" lon="6.89104">
        <ele>262.5</ele>
        <time>2014-04-13T14:05:27Z</time>
      </trkpt>
      <trkpt lat="49.17522" lon="6.89106">
        <ele>262.6</ele>
        <time>2014-04-13T14:05:32Z</time>
      </trkpt>
      <trkpt lat="49.17521" lon="6.89108">
        <ele>262.2</ele>
        <time>2014-04-13T14:05:37Z</time>
      </trkpt>
      <trkpt lat="49.17522" lon="6.8911">
        <ele>262.4</ele>
        <time>2014-04-13T14:05:42Z</time>
      </trkpt>
      <trkpt lat="49.17523" lon="6.89115">
        <ele>262.7</ele>
        <time>2014-04-13T14:05:47Z</time>
      </trkpt>
      <trkpt lat="49.17525" lon="6.89119">
        <ele>262.5</ele>
        <time>2014-04-13T14:05:52Z</time>
      </trkpt>
      <trkpt lat="49.17527" lon="6.89125">
        <ele>262.5</ele>
        <time>2014-04-13T14:05:57Z</time>
      </trkpt>
      <trkpt lat="49.1753" lon="6.89132">
        <ele>261.2</ele>
        <time>2014-04-13T14:06:02Z</time>
      </trkpt>
      <trkpt lat="49.17534" lon="6.89148">
        <ele>259.5</ele>
        <time>2014-04-13T14:06:12Z</time>
      </trkpt>
      <trkpt lat="49.17537" lon="6.89156">
        <ele>258.7</ele>
        <time>2014-04-13T14:06:17Z</time>
      </trkpt>
      <trkpt lat="49.1754" lon="6.89165">
        <ele>258.5</ele>
        <time>2014-04-13T14:06:22Z</time>
      </trkpt>
      <trkpt lat="49.17543" lon="6.89173">
        <ele>257.5</ele>
        <time>2014-04-13T14:06:27Z</time>
      </trkpt>
      <trkpt lat="49.17547" lon="6.89181">
        <ele>256.7</ele>
        <time>2014-04-13T14:06:32Z</time>
      </trkpt>
      <trkpt lat="49.17552" lon="6.8919">
        <ele>256.1</ele>
        <time>2014-04-13T14:06:37Z</time>
      </trkpt>
      <trkpt lat="49.17557" lon="6.89198">
        <ele>255.6</ele>
        <time>2014-04-13T14:06:42Z</time>
      </trkpt>
      <trkpt lat="49.17562" lon="6.89206">
        <ele>254.6</ele>
        <time>2014-04-13T14:06:47Z</time>
      </trkpt>
      <trkpt lat="49.17565" lon="6.89215">
        <ele>253.2</ele>
        <time>2014-04-13T14:06:52Z</time>
      </trkpt>
      <trkpt lat="49.17569" lon="6.89224">
        <ele>253.1</ele>
        <time>2014-04-13T14:06:57Z</time>
      </trkpt>
      <trkpt lat="49.17571" lon="6.89233">
        <ele>253.5</ele>
        <time>2014-04-13T14:07:02Z</time>
      </trkpt>
      <trkpt lat="49.17574" lon="6.89242">
        <ele>253.2</ele>
        <time>2014-04-13T14:07:07Z</time>
      </trkpt>
      <trkpt lat="49.17578" lon="6.89261">
        <ele>253.3</ele>
        <time>2014-04-13T14:07:17Z</time>
      </trkpt>
      <trkpt lat="49.17581" lon="6.89271">
        <ele>252.6</ele>
        <time>2014-04-13T14:07:22Z</time>
      </trkpt>
      <trkpt lat="49.17584" lon="6.8928">
        <ele>252.4</ele>
        <time>2014-04-13T14:07:27Z</time>
      </trkpt>
      <trkpt lat="49.17586" lon="6.89289">
        <ele>252.8</ele>
        <time>2014-04-13T14:07:32Z</time>
      </trkpt>
      <trkpt lat="49.17589" lon="6.89298">
        <ele>252.6</ele>
        <time>2014-04-13T14:07:37Z</time>
      </trkpt>
      <trkpt lat="49.17592" lon="6.89307">
        <ele>251.2</ele>
        <time>2014-04-13T14:07:42Z</time>
      </trkpt>
      <trkpt lat="49.17595" lon="6.89317">
        <ele>251.2</ele>
        <time>2014-04-13T14:07:47Z</time>
      </trkpt>
      <trkpt lat="49.17598" lon="6.89326">
        <ele>250.4</ele>
        <time>2014-04-13T14:07:52Z</time>
      </trkpt>
      <trkpt lat="49.176" lon="6.89335">
        <ele>249.6</ele>
        <time>2014-04-13T14:07:57Z</time>
      </trkpt>
      <trkpt lat="49.17602" lon="6.89345">
        <ele>248.8</ele>
        <time>2014-04-13T14:08:02Z</time>
      </trkpt>
      <trkpt lat="49.17603" lon="6.89355">
        <ele>248</ele>
        <time>2014-04-13T14:08:07Z</time>
      </trkpt>
      <trkpt lat="49.17602" lon="6.89365">
        <ele>247.2</ele>
        <time>2014-04-13T14:08:12Z</time>
      </trkpt>
      <trkpt lat="49.17597" lon="6.89381">
        <ele>245.2</ele>
        <time>2014-04-13T14:08:22Z</time>
      </trkpt>
      <trkpt lat="49.17594" lon="6.89389">
        <ele>245.6</ele>
        <time>2014-04-13T14:08:27Z</time>
      </trkpt>
      <trkpt lat="49.17591" lon="6.89396">
        <ele>244.7</ele>
        <time>2014-04-13T14:08:32Z</time>
      </trkpt>
      <trkpt lat="49.17588" lon="6.89404">
        <ele>244.5</ele>
        <time>2014-04-13T14:08:37Z</time>
      </trkpt>
      <trkpt lat="49.17585" lon="6.89411">
        <ele>243.9</ele>
        <time>2014-04-13T14:08:42Z</time>
      </trkpt>
      <trkpt lat="49.17582" lon="6.89415">
        <ele>244.6</ele>
        <time>2014-04-13T14:08:47Z</time>
      </trkpt>
      <trkpt lat="49.17578" lon="6.89422">
        <ele>243.4</ele>
        <time>2014-04-13T14:08:52Z</time>
      </trkpt>
      <trkpt lat="49.17577" lon="6.89432">
        <ele>242.7</ele>
        <time>2014-04-13T14:08:57Z</time>
      </trkpt>
      <trkpt lat="49.17576" lon="6.89441">
        <ele>241.8</ele>
        <time>2014-04-13T14:09:02Z</time>
      </trkpt>
      <trkpt lat="49.17576" lon="6.89449">
        <ele>242.1</ele>
        <time>2014-04-13T14:09:07Z</time>
      </trkpt>
      <trkpt lat="49.17576" lon="6.89458">
        <ele>242</ele>
        <time>2014-04-13T14:09:12Z</time>
      </trkpt>
      <trkpt lat="49.17576" lon="6.89468">
        <ele>240.7</ele>
        <time>2014-04-13T14:09:17Z</time>
      </trkpt>
      <trkpt lat="49.17577" lon="6.89492">
        <ele>238.6</ele>
        <time>2014-04-13T14:09:27Z</time>
      </trkpt>
      <trkpt lat="49.1758" lon="6.89504">
        <ele>237.6</ele>
        <time>2014-04-13T14:09:32Z</time>
      </trkpt>
      <trkpt lat="49.17584" lon="6.89514">
        <ele>237.7</ele>
        <time>2014-04-13T14:09:37Z</time>
      </trkpt>
      <trkpt lat="49.17587" lon="6.89524">
        <ele>237.9</ele>
        <time>2014-04-13T14:09:42Z</time>
      </trkpt>
      <trkpt lat="49.17591" lon="6.89529">
        <ele>236.5</ele>
        <time>2014-04-13T14:09:47Z</time>
      </trkpt>
      <trkpt lat="49.17594" lon="6.89535">
        <ele>236.8</ele>
        <time>2014-04-13T14:09:52Z</time>
      </trkpt>
      <trkpt lat="49.17597" lon="6.89543">
        <ele>236</ele>
        <time>2014-04-13T14:09:57Z</time>
      </trkpt>
      <trkpt lat="49.176" lon="6.89554">
        <ele>236.1</ele>
        <time>2014-04-13T14:10:02Z</time>
      </trkpt>
      <trkpt lat="49.17603" lon="6.89567">
        <ele>235.3</ele>
        <time>2014-04-13T14:10:07Z</time>
      </trkpt>
      <trkpt lat="49.17606" lon="6.89581">
        <ele>235.5</ele>
        <time>2014-04-13T14:10:12Z</time>
      </trkpt>
      <trkpt lat="49.17609" lon="6.89593">
        <ele>236</ele>
        <time>2014-04-13T14:10:17Z</time>
      </trkpt>
      <trkpt lat="49.17611" lon="6.89605">
        <ele>236.2</ele>
        <time>2014-04-13T14:10:22Z</time>
      </trkpt>
      <trkpt lat="49.17613" lon="6.89628">
        <ele>237.5</ele>
        <time>2014-04-13T14:10:32Z</time>
      </trkpt>
      <trkpt lat="49.17616" lon="6.89638">
        <ele>236.6</ele>
        <time>2014-04-13T14:10:37Z</time>
      </trkpt>
      <trkpt lat="49.17621" lon="6.89647">
        <ele>236.3</ele>
        <time>2014-04-13T14:10:42Z</time>
      </trkpt>
      <trkpt lat="49.17626" lon="6.89649">
        <ele>235.5</ele>
        <time>2014-04-13T14:10:47Z</time>
      </trkpt>
      <trkpt lat="49.17626" lon="6.89652">
        <ele>236.5</ele>
        <time>2014-04-13T14:10:52Z</time>
      </trkpt>
      <trkpt lat="49.17629" lon="6.89655">
        <ele>236.7</ele>
        <time>2014-04-13T14:10:57Z</time>
      </trkpt>
      <trkpt lat="49.17631" lon="6.89654">
        <ele>236.6</ele>
        <time>2014-04-13T14:11:02Z</time>
      </trkpt>
      <trkpt lat="49.17634" lon="6.89655">
        <ele>237</ele>
        <time>2014-04-13T14:11:07Z</time>
      </trkpt>
      <trkpt lat="49.17642" lon="6.89657">
        <ele>236.6</ele>
        <time>2014-04-13T14:11:12Z</time>
      </trkpt>
      <trkpt lat="49.17648" lon="6.89659">
        <ele>236.2</ele>
        <time>2014-04-13T14:11:17Z</time>
      </trkpt>
      <trkpt lat="49.17655" lon="6.89662">
        <ele>236.4</ele>
        <time>2014-04-13T14:11:22Z</time>
      </trkpt>
      <trkpt lat="49.17662" lon="6.89663">
        <ele>236.9</ele>
        <time>2014-04-13T14:11:27Z</time>
      </trkpt>
      <trkpt lat="49.17687" lon="6.89656">
        <ele>236.1</ele>
        <time>2014-04-13T14:11:37Z</time>
      </trkpt>
      <trkpt lat="49.17698" lon="6.89653">
        <ele>236.4</ele>
        <time>2014-04-13T14:11:42Z</time>
      </trkpt>
      <trkpt lat="49.17708" lon="6.8965">
        <ele>236.8</ele>
        <time>2014-04-13T14:11:47Z</time>
      </trkpt>
      <trkpt lat="49.17717" lon="6.89648">
        <ele>237</ele>
        <time>2014-04-13T14:11:52Z</time>
      </trkpt>
      <trkpt lat="49.17724" lon="6.89645">
        <ele>237.4</ele>
        <time>2014-04-13T14:11:57Z</time>
      </trkpt>
      <trkpt lat="49.17731" lon="6.89644">
        <ele>237.5</ele>
        <time>2014-04-13T14:12:02Z</time>
      </trkpt>
      <trkpt lat="49.17737" lon="6.89644">
        <ele>237.6</ele>
        <time>2014-04-13T14:12:07Z</time>
      </trkpt>
      <trkpt lat="49.17741" lon="6.89644">
        <ele>238.5</ele>
        <time>2014-04-13T14:12:12Z</time>
      </trkpt>
      <trkpt lat="49.17748" lon="6.89646">
        <ele>239</ele>
        <time>2014-04-13T14:12:17Z</time>
      </trkpt>
      <trkpt lat="49.17753" lon="6.89652">
        <ele>239.3</ele>
        <time>2014-04-13T14:12:22Z</time>
      </trkpt>
      <trkpt lat="49.17757" lon="6.8966">
        <ele>239.1</ele>
        <time>2014-04-13T14:12:27Z</time>
      </trkpt>
      <trkpt lat="49.17761" lon="6.8967">
        <ele>239.1</ele>
        <time>2014-04-13T14:12:32Z</time>
      </trkpt>
      <trkpt lat="49.17765" lon="6.89689">
        <ele>237.6</ele>
        <time>2014-04-13T14:12:42Z</time>
      </trkpt>
      <trkpt lat="49.17768" lon="6.89698">
        <ele>237.5</ele>
        <time>2014-04-13T14:12:47Z</time>
      </trkpt>
      <trkpt lat="49.17769" lon="6.89707">
        <ele>237.8</ele>
        <time>2014-04-13T14:12:52Z</time>
      </trkpt>
      <trkpt lat="49.17771" lon="6.89716">
        <ele>236.7</ele>
        <time>2014-04-13T14:12:57Z</time>
      </trkpt>
      <trkpt lat="49.17773" lon="6.89723">
        <ele>236.5</ele>
        <time>2014-04-13T14:13:02Z</time>
      </trkpt>
      <trkpt lat="49.17773" lon="6.89724">
        <ele>236.4</ele>
        <time>2014-04-13T14:13:07Z</time>
      </trkpt>
      <trkpt lat="49.17779" lon="6.8973">
        <ele>235.8</ele>
        <time>2014-04-13T14:13:12Z</time>
      </trkpt>
      <trkpt lat="49.17784" lon="6.89737">
        <ele>236.3</ele>
        <time>2014-04-13T14:13:17Z</time>
      </trkpt>
      <trkpt lat="49.1779" lon="6.89745">
        <ele>236.8</ele>
        <time>2014-04-13T14:13:22Z</time>
      </trkpt>
      <trkpt lat="49.17796" lon="6.89752">
        <ele>236.4</ele>
        <time>2014-04-13T14:13:27Z</time>
      </trkpt>
      <trkpt lat="49.17802" lon="6.89758">
        <ele>235.1</ele>
        <time>2014-04-13T14:13:32Z</time>
      </trkpt>
      <trkpt lat="49.17807" lon="6.89765">
        <ele>235.1</ele>
        <time>2014-04-13T14:13:37Z</time>
      </trkpt>
      <trkpt lat="49.17813" lon="6.89782">
        <ele>235.3</ele>
        <time>2014-04-13T14:13:47Z</time>
      </trkpt>
      <trkpt lat="49.17814" lon="6.89793">
        <ele>234.6</ele>
        <time>2014-04-13T14:13:52Z</time>
      </trkpt>
      <trkpt lat="49.17817" lon="6.89804">
        <ele>234.7</ele>
        <time>2014-04-13T14:13:57Z</time>
      </trkpt>
      <trkpt lat="49.1782" lon="6.89816">
        <ele>234.5</ele>
        <time>2014-04-13T14:14:02Z</time>
      </trkpt>
      <trkpt lat="49.17824" lon="6.89827">
        <ele>234.7</ele>
        <time>2014-04-13T14:14:07Z</time>
      </trkpt>
      <trkpt lat="49.17828" lon="6.89836">
        <ele>233.8</ele>
        <time>2014-04-13T14:14:12Z</time>
      </trkpt>
      <trkpt lat="49.17833" lon="6.89843">
        <ele>233.4</ele>
        <time>2014-04-13T14:14:17Z</time>
      </trkpt>
      <trkpt lat="49.17839" lon="6.89849">
        <ele>233.8</ele>
        <time>2014-04-13T14:14:22Z</time>
      </trkpt>
      <trkpt lat="49.17845" lon="6.89854">
        <ele>233.8</ele>
        <time>2014-04-13T14:14:27Z</time>
      </trkpt>
      <trkpt lat="49.17851" lon="6.8986">
        <ele>233.7</ele>
        <time>2014-04-13T14:14:32Z</time>
      </trkpt>
      <trkpt lat="49.17856" lon="6.89865">
        <ele>233.2</ele>
        <time>2014-04-13T14:14:37Z</time>
      </trkpt>
      <trkpt lat="49.17862" lon="6.8987">
        <ele>232.5</ele>
        <time>2014-04-13T14:14:42Z</time>
      </trkpt>
      <trkpt lat="49.17873" lon="6.8988">
        <ele>231</ele>
        <time>2014-04-13T14:14:52Z</time>
      </trkpt>
      <trkpt lat="49.17877" lon="6.89884">
        <ele>232.1</ele>
        <time>2014-04-13T14:14:57Z</time>
      </trkpt>
      <trkpt lat="49.17882" lon="6.89889">
        <ele>231.9</ele>
        <time>2014-04-13T14:15:02Z</time>
      </trkpt>
      <trkpt lat="49.17887" lon="6.89893">
        <ele>232.3</ele>
        <time>2014-04-13T14:15:07Z</time>
      </trkpt>
      <trkpt lat="49.1789" lon="6.89895">
        <ele>231.7</ele>
        <time>2014-04-13T14:15:12Z</time>
      </trkpt>
      <trkpt lat="49.17895" lon="6.899">
        <ele>231</ele>
        <time>2014-04-13T14:15:17Z</time>
      </trkpt>
      <trkpt lat="49.17901" lon="6.89905">
        <ele>231.4</ele>
        <time>2014-04-13T14:15:22Z</time>
      </trkpt>
      <trkpt lat="49.17906" lon="6.89911">
        <ele>231.5</ele>
        <time>2014-04-13T14:15:27Z</time>
      </trkpt>
      <trkpt lat="49.17911" lon="6.89916">
        <ele>232.1</ele>
        <time>2014-04-13T14:15:32Z</time>
      </trkpt>
      <trkpt lat="49.17917" lon="6.89922">
        <ele>231.8</ele>
        <time>2014-04-13T14:15:37Z</time>
      </trkpt>
      <trkpt lat="49.17923" lon="6.89927">
        <ele>231.5</ele>
        <time>2014-04-13T14:15:42Z</time>
      </trkpt>
      <trkpt lat="49.17929" lon="6.89934">
        <ele>231.7</ele>
        <time>2014-04-13T14:15:47Z</time>
      </trkpt>
      <trkpt lat="49.1794" lon="6.89945">
        <ele>230.6</ele>
        <time>2014-04-13T14:15:57Z</time>
      </trkpt>
      <trkpt lat="49.17946" lon="6.89951">
        <ele>231.4</ele>
        <time>2014-04-13T14:16:02Z</time>
      </trkpt>
      <trkpt lat="49.17953" lon="6.89957">
        <ele>230.9</ele>
        <time>2014-04-13T14:16:07Z</time>
      </trkpt>
      <trkpt lat="49.17959" lon="6.89963">
        <ele>230.4</ele>
        <time>2014-04-13T14:16:12Z</time>
      </trkpt>
      <trkpt lat="49.17966" lon="6.89968">
        <ele>230</ele>
        <time>2014-04-13T14:16:17Z</time>
      </trkpt>
      <trkpt lat="49.17971" lon="6.89974">
        <ele>230.8</ele>
        <time>2014-04-13T14:16:22Z</time>
      </trkpt>
      <trkpt lat="49.17977" lon="6.89978">
        <ele>230.8</ele>
        <time>2014-04-13T14:16:27Z</time>
      </trkpt>
      <trkpt lat="49.17982" lon="6.89984">
        <ele>230</ele>
        <time>2014-04-13T14:16:32Z</time>
      </trkpt>
      <trkpt lat="49.17988" lon="6.8999">
        <ele>230.6</ele>
        <time>2014-04-13T14:16:37Z</time>
      </trkpt>
      <trkpt lat="49.17994" lon="6.89995">
        <ele>230.4</ele>
        <time>2014-04-13T14:16:42Z</time>
      </trkpt>
      <trkpt lat="49.18001" lon="6.89998">
        <ele>228.9</ele>
        <time>2014-04-13T14:16:47Z</time>
      </trkpt>
      <trkpt lat="49.18007" lon="6.89995">
        <ele>228.8</ele>
        <time>2014-04-13T14:16:52Z</time>
      </trkpt>
      <trkpt lat="49.1802" lon="6.89988">
        <ele>228.9</ele>
        <time>2014-04-13T14:17:02Z</time>
      </trkpt>
      <trkpt lat="49.18027" lon="6.89989">
        <ele>230.1</ele>
        <time>2014-04-13T14:17:07Z</time>
      </trkpt>
      <trkpt lat="49.18033" lon="6.89991">
        <ele>229.8</ele>
        <time>2014-04-13T14:17:12Z</time>
      </trkpt>
      <trkpt lat="49.18039" lon="6.89996">
        <ele>230.2</ele>
        <time>2014-04-13T14:17:17Z</time>
      </trkpt>
      <trkpt lat="49.18044" lon="6.90001">
        <ele>228.9</ele>
        <time>2014-04-13T14:17:22Z</time>
      </trkpt>
      <trkpt lat="49.1805" lon="6.90006">
        <ele>229</ele>
        <time>2014-04-13T14:17:27Z</time>
      </trkpt>
      <trkpt lat="49.18054" lon="6.90012">
        <ele>229.5</ele>
        <time>2014-04-13T14:17:32Z</time>
      </trkpt>
      <trkpt lat="49.18058" lon="6.90019">
        <ele>229</ele>
        <time>2014-04-13T14:17:37Z</time>
      </trkpt>
      <trkpt lat="49.18062" lon="6.90025">
        <ele>227.8</ele>
        <time>2014-04-13T14:17:42Z</time>
      </trkpt>
      <trkpt lat="49.18067" lon="6.9003">
        <ele>229</ele>
        <time>2014-04-13T14:17:47Z</time>
      </trkpt>
      <trkpt lat="49.18072" lon="6.90034">
        <ele>229</ele>
        <time>2014-04-13T14:17:52Z</time>
      </trkpt>
      <trkpt lat="49.18076" lon="6.90035">
        <ele>227.6</ele>
        <time>2014-04-13T14:17:57Z</time>
      </trkpt>
      <trkpt lat="49.18086" lon="6.90035">
        <ele>228.2</ele>
        <time>2014-04-13T14:18:07Z</time>
      </trkpt>
      <trkpt lat="49.18092" lon="6.90035">
        <ele>228.7</ele>
        <time>2014-04-13T14:18:12Z</time>
      </trkpt>
      <trkpt lat="49.18097" lon="6.90034">
        <ele>228.4</ele>
        <time>2014-04-13T14:18:17Z</time>
      </trkpt>
      <trkpt lat="49.18101" lon="6.90034">
        <ele>228.8</ele>
        <time>2014-04-13T14:18:22Z</time>
      </trkpt>
      <trkpt lat="49.18104" lon="6.90033">
        <ele>229.2</ele>
        <time>2014-04-13T14:18:27Z</time>
      </trkpt>
      <trkpt lat="49.18104" lon="6.90031">
        <ele>227.8</ele>
        <time>2014-04-13T14:18:32Z</time>
      </trkpt>
      <trkpt lat="49.18105" lon="6.9003">
        <ele>228.7</ele>
        <time>2014-04-13T14:18:37Z</time>
      </trkpt>
      <trkpt lat="49.18104" lon="6.9003">
        <ele>229.5</ele>
        <time>2014-04-13T14:18:42Z</time>
      </trkpt>
      <trkpt lat="49.18103" lon="6.90029">
        <ele>229</ele>
        <time>2014-04-13T14:18:47Z</time>
      </trkpt>
      <trkpt lat="49.18106" lon="6.90032">
        <ele>228.2</ele>
        <time>2014-04-13T14:18:52Z</time>
      </trkpt>
      <trkpt lat="49.18111" lon="6.90033">
        <ele>229.1</ele>
        <time>2014-04-13T14:18:57Z</time>
      </trkpt>
      <trkpt lat="49.18115" lon="6.90034">
        <ele>229.7</ele>
        <time>2014-04-13T14:19:02Z</time>
      </trkpt>
      <trkpt lat="49.18125" lon="6.90035">
        <ele>230.8</ele>
        <time>2014-04-13T14:19:12Z</time>
      </trkpt>
      <trkpt lat="49.18131" lon="6.90035">
        <ele>230.7</ele>
        <time>2014-04-13T14:19:17Z</time>
      </trkpt>
      <trkpt lat="49.18137" lon="6.90034">
        <ele>231.6</ele>
        <time>2014-04-13T14:19:22Z</time>
      </trkpt>
      <trkpt lat="49.18141" lon="6.90029">
        <ele>232.4</ele>
        <time>2014-04-13T14:19:27Z</time>
      </trkpt>
      <trkpt lat="49.18146" lon="6.90026">
        <ele>232.3</ele>
        <time>2014-04-13T14:19:32Z</time>
      </trkpt>
      <trkpt lat="49.18151" lon="6.90021">
        <ele>232.9</ele>
        <time>2014-04-13T14:19:37Z</time>
      </trkpt>
      <trkpt lat="49.18155" lon="6.90016">
        <ele>234</ele>
        <time>2014-04-13T14:19:42Z</time>
      </trkpt>
      <trkpt lat="49.18158" lon="6.9001">
        <ele>234.8</ele>
        <time>2014-04-13T14:19:47Z</time>
      </trkpt>
      <trkpt lat="49.18162" lon="6.90002">
        <ele>234.9</ele>
        <time>2014-04-13T14:19:52Z</time>
      </trkpt>
      <trkpt lat="49.18164" lon="6.89996">
        <ele>235.5</ele>
        <time>2014-04-13T14:19:57Z</time>
      </trkpt>
      <trkpt lat="49.18168" lon="6.8999">
        <ele>236.6</ele>
        <time>2014-04-13T14:20:02Z</time>
      </trkpt>
      <trkpt lat="49.18172" lon="6.89983">
        <ele>235.8</ele>
        <time>2014-04-13T14:20:07Z</time>
      </trkpt>
      <trkpt lat="49.18181" lon="6.89973">
        <ele>238.2</ele>
        <time>2014-04-13T14:20:17Z</time>
      </trkpt>
      <trkpt lat="49.18184" lon="6.89968">
        <ele>238.8</ele>
        <time>2014-04-13T14:20:22Z</time>
      </trkpt>
      <trkpt lat="49.18189" lon="6.89961">
        <ele>239.5</ele>
        <time>2014-04-13T14:20:27Z</time>
      </trkpt>
      <trkpt lat="49.18192" lon="6.89954">
        <ele>240.1</ele>
        <time>2014-04-13T14:20:32Z</time>
      </trkpt>
      <trkpt lat="49.18197" lon="6.89949">
        <ele>240.8</ele>
        <time>2014-04-13T14:20:37Z</time>
      </trkpt>
      <trkpt lat="49.18202" lon="6.89945">
        <ele>241.9</ele>
        <time>2014-04-13T14:20:42Z</time>
      </trkpt>
      <trkpt lat="49.18206" lon="6.8994">
        <ele>242.5</ele>
        <time>2014-04-13T14:20:47Z</time>
      </trkpt>
      <trkpt lat="49.18212" lon="6.89935">
        <ele>243.9</ele>
        <time>2014-04-13T14:20:52Z</time>
      </trkpt>
      <trkpt lat="49.18217" lon="6.89931">
        <ele>245.1</ele>
        <time>2014-04-13T14:20:57Z</time>
      </trkpt>
      <trkpt lat="49.18223" lon="6.89926">
        <ele>245.6</ele>
        <time>2014-04-13T14:21:02Z</time>
      </trkpt>
      <trkpt lat="49.18228" lon="6.89921">
        <ele>246.5</ele>
        <time>2014-04-13T14:21:07Z</time>
      </trkpt>
      <trkpt lat="49.18234" lon="6.89914">
        <ele>246.1</ele>
        <time>2014-04-13T14:21:12Z</time>
      </trkpt>
      <trkpt lat="49.18244" lon="6.89905">
        <ele>247.1</ele>
        <time>2014-04-13T14:21:22Z</time>
      </trkpt>
      <trkpt lat="49.1825" lon="6.89901">
        <ele>247.3</ele>
        <time>2014-04-13T14:21:27Z</time>
      </trkpt>
      <trkpt lat="49.18256" lon="6.89898">
        <ele>246.9</ele>
        <time>2014-04-13T14:21:32Z</time>
      </trkpt>
      <trkpt lat="49.18262" lon="6.89894">
        <ele>247.3</ele>
        <time>2014-04-13T14:21:37Z</time>
      </trkpt>
      <trkpt lat="49.18268" lon="6.89888">
        <ele>248.1</ele>
        <time>2014-04-13T14:21:42Z</time>
      </trkpt>
      <trkpt lat="49.18273" lon="6.89883">
        <ele>247.7</ele>
        <time>2014-04-13T14:21:47Z</time>
      </trkpt>
      <trkpt lat="49.18279" lon="6.89879">
        <ele>248</ele>
        <time>2014-04-13T14:21:52Z</time>
      </trkpt>
      <trkpt lat="49.18285" lon="6.89875">
        <ele>248.9</ele>
        <time>2014-04-13T14:21:57Z</time>
      </trkpt>
      <trkpt lat="49.1829" lon="6.8987">
        <ele>249.1</ele>
        <time>2014-04-13T14:22:02Z</time>
      </trkpt>
      <trkpt lat="49.18297" lon="6.89868">
        <ele>249.5</ele>
        <time>2014-04-13T14:22:07Z</time>
      </trkpt>
      <trkpt lat="49.18303" lon="6.89864">
        <ele>250.1</ele>
        <time>2014-04-13T14:22:12Z</time>
      </trkpt>
      <trkpt lat="49.18309" lon="6.89862">
        <ele>251.7</ele>
        <time>2014-04-13T14:22:17Z</time>
      </trkpt>
      <trkpt lat="49.1832" lon="6.89856">
        <ele>253.7</ele>
        <time>2014-04-13T14:22:27Z</time>
      </trkpt>
      <trkpt lat="49.18326" lon="6.89855">
        <ele>253.6</ele>
        <time>2014-04-13T14:22:32Z</time>
      </trkpt>
      <trkpt lat="49.18332" lon="6.89856">
        <ele>256</ele>
        <time>2014-04-13T14:22:37Z</time>
      </trkpt>
      <trkpt lat="49.18338" lon="6.89857">
        <ele>255.8</ele>
        <time>2014-04-13T14:22:42Z</time>
      </trkpt>
      <trkpt lat="49.18343" lon="6.89858">
        <ele>256.8</ele>
        <time>2014-04-13T14:22:47Z</time>
      </trkpt>
      <trkpt lat="49.18348" lon="6.8986">
        <ele>257.2</ele>
        <time>2014-04-13T14:22:52Z</time>
      </trkpt>
      <trkpt lat="49.18354" lon="6.89862">
        <ele>258.4</ele>
        <time>2014-04-13T14:22:57Z</time>
      </trkpt>
      <trkpt lat="49.18361" lon="6.89865">
        <ele>260.2</ele>
        <time>2014-04-13T14:23:02Z</time>
      </trkpt>
      <trkpt lat="49.18367" lon="6.89868">
        <ele>260.4</ele>
        <time>2014-04-13T14:23:07Z</time>
      </trkpt>
      <trkpt lat="49.18374" lon="6.8987">
        <ele>261.5</ele>
        <time>2014-04-13T14:23:12Z</time>
      </trkpt>
      <trkpt lat="49.18379" lon="6.89872">
        <ele>262.4</ele>
        <time>2014-04-13T14:23:17Z</time>
      </trkpt>
      <trkpt lat="49.18381" lon="6.89875">
        <ele>263.6</ele>
        <time>2014-04-13T14:23:22Z</time>
      </trkpt>
      <trkpt lat="49.18383" lon="6.89879">
        <ele>264.3</ele>
        <time>2014-04-13T14:23:32Z</time>
      </trkpt>
      <trkpt lat="49.18383" lon="6.89879">
        <ele>264.9</ele>
        <time>2014-04-13T14:23:37Z</time>
      </trkpt>
      <trkpt lat="49.18384" lon="6.89877">
        <ele>264.1</ele>
        <time>2014-04-13T14:23:42Z</time>
      </trkpt>
      <trkpt lat="49.18383" lon="6.89877">
        <ele>264.4</ele>
        <time>2014-04-13T14:23:47Z</time>
      </trkpt>
      <trkpt lat="49.18382" lon="6.89878">
        <ele>263.8</ele>
        <time>2014-04-13T14:23:52Z</time>
      </trkpt>
      <trkpt lat="49.18381" lon="6.89877">
        <ele>264.5</ele>
        <time>2014-04-13T14:23:57Z</time>
      </trkpt>
      <trkpt lat="49.18381" lon="6.89876">
        <ele>264.6</ele>
        <time>2014-04-13T14:24:02Z</time>
      </trkpt>
      <trkpt lat="49.18379" lon="6.89874">
        <ele>264.7</ele>
        <time>2014-04-13T14:24:07Z</time>
      </trkpt>
      <trkpt lat="49.18376" lon="6.89874">
        <ele>264.6</ele>
        <time>2014-04-13T14:24:12Z</time>
      </trkpt>
      <trkpt lat="49.18374" lon="6.89875">
        <ele>265.2</ele>
        <time>2014-04-13T14:24:17Z</time>
      </trkpt>
      <trkpt lat="49.18371" lon="6.89877">
        <ele>265.4</ele>
        <time>2014-04-13T14:24:22Z</time>
      </trkpt>
      <trkpt lat="49.18367" lon="6.89879">
        <ele>266.9</ele>
        <time>2014-04-13T14:24:27Z</time>
      </trkpt>
      <trkpt lat="49.18359" lon="6.89885">
        <ele>268.5</ele>
        <time>2014-04-13T14:24:37Z</time>
      </trkpt>
      <trkpt lat="49.18354" lon="6.89886">
        <ele>269.3</ele>
        <time>2014-04-13T14:24:42Z</time>
      </trkpt>
      <trkpt lat="49.18349" lon="6.89887">
        <ele>270</ele>
        <time>2014-04-13T14:24:47Z</time>
      </trkpt>
      <trkpt lat="49.18345" lon="6.89891">
        <ele>271</ele>
        <time>2014-04-13T14:24:52Z</time>
      </trkpt>
      <trkpt lat="49.18341" lon="6.89895">
        <ele>273.4</ele>
        <time>2014-04-13T14:24:57Z</time>
      </trkpt>
      <trkpt lat="49.18337" lon="6.899">
        <ele>273.5</ele>
        <time>2014-04-13T14:25:02Z</time>
      </trkpt>
      <trkpt lat="49.18332" lon="6.89904">
        <ele>274.2</ele>
        <time>2014-04-13T14:25:07Z</time>
      </trkpt>
      <trkpt lat="49.18327" lon="6.89908">
        <ele>274.9</ele>
        <time>2014-04-13T14:25:12Z</time>
      </trkpt>
      <trkpt lat="49.18323" lon="6.89915">
        <ele>275.6</ele>
        <time>2014-04-13T14:25:17Z</time>
      </trkpt>
      <trkpt lat="49.18319" lon="6.89921">
        <ele>277.2</ele>
        <time>2014-04-13T14:25:22Z</time>
      </trkpt>
      <trkpt lat="49.18315" lon="6.89925">
        <ele>278.4</ele>
        <time>2014-04-13T14:25:27Z</time>
      </trkpt>
      <trkpt lat="49.18312" lon="6.89929">
        <ele>278.7</ele>
        <time>2014-04-13T14:25:32Z</time>
      </trkpt>
      <trkpt lat="49.18307" lon="6.89939">
        <ele>280.2</ele>
        <time>2014-04-13T14:25:42Z</time>
      </trkpt>
      <trkpt lat="49.18307" lon="6.89941">
        <ele>279.5</ele>
        <time>2014-04-13T14:25:47Z</time>
      </trkpt>
      <trkpt lat="49.18307" lon="6.89941">
        <ele>281</ele>
        <time>2014-04-13T14:25:52Z</time>
      </trkpt>
      <trkpt lat="49.1831" lon="6.89941">
        <ele>281</ele>
        <time>2014-04-13T14:25:57Z</time>
      </trkpt>
      <trkpt lat="49.18312" lon="6.89939">
        <ele>281.5</ele>
        <time>2014-04-13T14:26:02Z</time>
      </trkpt>
      <trkpt lat="49.18315" lon="6.89938">
        <ele>281.4</ele>
        <time>2014-04-13T14:26:07Z</time>
      </trkpt>
      <trkpt lat="49.18319" lon="6.89935">
        <ele>282.3</ele>
        <time>2014-04-13T14:26:12Z</time>
      </trkpt>
      <trkpt lat="49.18319" lon="6.89937">
        <ele>282.9</ele>
        <time>2014-04-13T14:26:17Z</time>
      </trkpt>
      <trkpt lat="49.18318" lon="6.8994">
        <ele>283.5</ele>
        <time>2014-04-13T14:26:22Z</time>
      </trkpt>
      <trkpt lat="49.18316" lon="6.89945">
        <ele>284.8</ele>
        <time>2014-04-13T14:26:27Z</time>
      </trkpt>
      <trkpt lat="49.18313" lon="6.8995">
        <ele>284.9</ele>
        <time>2014-04-13T14:26:32Z</time>
      </trkpt>
      <trkpt lat="49.1831" lon="6.89956">
        <ele>286.5</ele>
        <time>2014-04-13T14:26:37Z</time>
      </trkpt>
      <trkpt lat="49.18305" lon="6.89969">
        <ele>288.7</ele>
        <time>2014-04-13T14:26:47Z</time>
      </trkpt>
      <trkpt lat="49.18301" lon="6.89974">
        <ele>289.9</ele>
        <time>2014-04-13T14:26:52Z</time>
      </trkpt>
      <trkpt lat="49.18297" lon="6.89981">
        <ele>292</ele>
        <time>2014-04-13T14:26:57Z</time>
      </trkpt>
      <trkpt lat="49.18293" lon="6.89987">
        <ele>292.4</ele>
        <time>2014-04-13T14:27:02Z</time>
      </trkpt>
      <trkpt lat="49.1829" lon="6.89994">
        <ele>292.6</ele>
        <time>2014-04-13T14:27:07Z</time>
      </trkpt>
      <trkpt lat="49.18287" lon="6.9">
        <ele>293.7</ele>
        <time>2014-04-13T14:27:12Z</time>
      </trkpt>
      <trkpt lat="49.18284" lon="6.90005">
        <ele>294.6</ele>
        <time>2014-04-13T14:27:17Z</time>
      </trkpt>
      <trkpt lat="49.18282" lon="6.90011">
        <ele>295.5</ele>
        <time>2014-04-13T14:27:22Z</time>
      </trkpt>
      <trkpt lat="49.18279" lon="6.90018">
        <ele>295.3</ele>
        <time>2014-04-13T14:27:27Z</time>
      </trkpt>
      <trkpt lat="49.18276" lon="6.90026">
        <ele>296.1</ele>
        <time>2014-04-13T14:27:32Z</time>
      </trkpt>
      <trkpt lat="49.18273" lon="6.90033">
        <ele>298.1</ele>
        <time>2014-04-13T14:27:37Z</time>
      </trkpt>
      <trkpt lat="49.18272" lon="6.90039">
        <ele>298.4</ele>
        <time>2014-04-13T14:27:42Z</time>
      </trkpt>
      <trkpt lat="49.18276" lon="6.90038">
        <ele>300.7</ele>
        <time>2014-04-13T14:27:52Z</time>
      </trkpt>
      <trkpt lat="49.18279" lon="6.90034">
        <ele>300.3</ele>
        <time>2014-04-13T14:27:57Z</time>
      </trkpt>
      <trkpt lat="49.18281" lon="6.9003">
        <ele>300.6</ele>
        <time>2014-04-13T14:28:02Z</time>
      </trkpt>
      <trkpt lat="49.18283" lon="6.90025">
        <ele>300.9</ele>
        <time>2014-04-13T14:28:07Z</time>
      </trkpt>
      <trkpt lat="49.18286" lon="6.90019">
        <ele>300.3</ele>
        <time>2014-04-13T14:28:12Z</time>
      </trkpt>
      <trkpt lat="49.18289" lon="6.90014">
        <ele>299.5</ele>
        <time>2014-04-13T14:28:17Z</time>
      </trkpt>
      <trkpt lat="49.18292" lon="6.90009">
        <ele>298.3</ele>
        <time>2014-04-13T14:28:22Z</time>
      </trkpt>
      <trkpt lat="49.18297" lon="6.90002">
        <ele>298</ele>
        <time>2014-04-13T14:28:27Z</time>
      </trkpt>
      <trkpt lat="49.18301" lon="6.89997">
        <ele>297.4</ele>
        <time>2014-04-13T14:28:32Z</time>
      </trkpt>
      <trkpt lat="49.18306" lon="6.89989">
        <ele>296.7</ele>
        <time>2014-04-13T14:28:37Z</time>
      </trkpt>
      <trkpt lat="49.18311" lon="6.89984">
        <ele>297</ele>
        <time>2014-04-13T14:28:42Z</time>
      </trkpt>
      <trkpt lat="49.18315" lon="6.89982">
        <ele>297</ele>
        <time>2014-04-13T14:28:47Z</time>
      </trkpt>
      <trkpt lat="49.18321" lon="6.89991">
        <ele>297.3</ele>
        <time>2014-04-13T14:28:57Z</time>
      </trkpt>
      <trkpt lat="49.18322" lon="6.89993">
        <ele>298.9</ele>
        <time>2014-04-13T14:29:02Z</time>
      </trkpt>
      <trkpt lat="49.1832" lon="6.89996">
        <ele>299.4</ele>
        <time>2014-04-13T14:29:07Z</time>
      </trkpt>
      <trkpt lat="49.18317" lon="6.89999">
        <ele>299.9</ele>
        <time>2014-04-13T14:29:12Z</time>
      </trkpt>
      <trkpt lat="49.18314" lon="6.90002">
        <ele>300.4</ele>
        <time>2014-04-13T14:29:17Z</time>
      </trkpt>
      <trkpt lat="49.18309" lon="6.90004">
        <ele>301.6</ele>
        <time>2014-04-13T14:29:22Z</time>
      </trkpt>
      <trkpt lat="49.18305" lon="6.90007">
        <ele>303.8</ele>
        <time>2014-04-13T14:29:27Z</time>
      </trkpt>
      <trkpt lat="49.18301" lon="6.90012">
        <ele>303.9</ele>
        <time>2014-04-13T14:29:32Z</time>
      </trkpt>
      <trkpt lat="49.18296" lon="6.90017">
        <ele>305.3</ele>
        <time>2014-04-13T14:29:37Z</time>
      </trkpt>
      <trkpt lat="49.18295" lon="6.90022">
        <ele>305.7</ele>
        <time>2014-04-13T14:29:42Z</time>
      </trkpt>
      <trkpt lat="49.18296" lon="6.9002">
        <ele>305.5</ele>
        <time>2014-04-13T14:29:47Z</time>
      </trkpt>
      <trkpt lat="49.18299" lon="6.90018">
        <ele>306.2</ele>
        <time>2014-04-13T14:29:52Z</time>
      </trkpt>
      <trkpt lat="49.18304" lon="6.90014">
        <ele>307.5</ele>
        <time>2014-04-13T14:30:02Z</time>
      </trkpt>
      <trkpt lat="49.18308" lon="6.90013">
        <ele>307.9</ele>
        <time>2014-04-13T14:30:07Z</time>
      </trkpt>
      <trkpt lat="49.18312" lon="6.90013">
        <ele>308.4</ele>
        <time>2014-04-13T14:30:12Z</time>
      </trkpt>
      <trkpt lat="49.18317" lon="6.90014">
        <ele>308.6</ele>
        <time>2014-04-13T14:30:17Z</time>
      </trkpt>
      <trkpt lat="49.18322" lon="6.90015">
        <ele>309</ele>
        <time>2014-04-13T14:30:22Z</time>
      </trkpt>
      <trkpt lat="49.18325" lon="6.90018">
        <ele>309.8</ele>
        <time>2014-04-13T14:30:27Z</time>
      </trkpt>
      <trkpt lat="49.18329" lon="6.90022">
        <ele>309.3</ele>
        <time>2014-04-13T14:30:32Z</time>
      </trkpt>
      <trkpt lat="49.18331" lon="6.90026">
        <ele>310.5</ele>
        <time>2014-04-13T14:30:37Z</time>
      </trkpt>
      <trkpt lat="49.18333" lon="6.90029">
        <ele>311</ele>
        <time>2014-04-13T14:30:42Z</time>
      </trkpt>
      <trkpt lat="49.18333" lon="6.90033">
        <ele>312.1</ele>
        <time>2014-04-13T14:30:47Z</time>
      </trkpt>
      <trkpt lat="49.18334" lon="6.9004">
        <ele>312.9</ele>
        <time>2014-04-13T14:30:52Z</time>
      </trkpt>
      <trkpt lat="49.18333" lon="6.90047">
        <ele>312.8</ele>
        <time>2014-04-13T14:30:57Z</time>
      </trkpt>
      <trkpt lat="49.18329" lon="6.90064">
        <ele>313.7</ele>
        <time>2014-04-13T14:31:07Z</time>
      </trkpt>
      <trkpt lat="49.18327" lon="6.90071">
        <ele>311.9</ele>
        <time>2014-04-13T14:31:12Z</time>
      </trkpt>
      <trkpt lat="49.18326" lon="6.90075">
        <ele>312.4</ele>
        <time>2014-04-13T14:31:17Z</time>
      </trkpt>
      <trkpt lat="49.18326" lon="6.90077">
        <ele>311.8</ele>
        <time>2014-04-13T14:31:22Z</time>
      </trkpt>
      <trkpt lat="49.18325" lon="6.90079">
        <ele>312.1</ele>
        <time>2014-04-13T14:31:27Z</time>
      </trkpt>
      <trkpt lat="49.18324" lon="6.90081">
        <ele>312.4</ele>
        <time>2014-04-13T14:31:32Z</time>
      </trkpt>
      <trkpt lat="49.18323" lon="6.90082">
        <ele>311.7</ele>
        <time>2014-04-13T14:31:37Z</time>
      </trkpt>
      <trkpt lat="49.18322" lon="6.90082">
        <ele>312</ele>
        <time>2014-04-13T14:31:42Z</time>
      </trkpt>
      <trkpt lat="49.18322" lon="6.90082">
        <ele>311.6</ele>
        <time>2014-04-13T14:31:47Z</time>
      </trkpt>
      <trkpt lat="49.18321" lon="6.90082">
        <ele>312.2</ele>
        <time>2014-04-13T14:31:52Z</time>
      </trkpt>
      <trkpt lat="49.18321" lon="6.90082">
        <ele>311.4</ele>
        <time>2014-04-13T14:31:57Z</time>
      </trkpt>
      <trkpt lat="49.18321" lon="6.90082">
        <ele>311.5</ele>
        <time>2014-04-13T14:32:02Z</time>
      </trkpt>
      <trkpt lat="49.1832" lon="6.90083">
        <ele>312</ele>
        <time>2014-04-13T14:32:12Z</time>
      </trkpt>
      <trkpt lat="49.1832" lon="6.90083">
        <ele>312.5</ele>
        <time>2014-04-13T14:32:17Z</time>
      </trkpt>
      <trkpt lat="49.18321" lon="6.90082">
        <ele>312.5</ele>
        <time>2014-04-13T14:32:22Z</time>
      </trkpt>
      <trkpt lat="49.18321" lon="6.90082">
        <ele>312.1</ele>
        <time>2014-04-13T14:32:27Z</time>
      </trkpt>
      <trkpt lat="49.18321" lon="6.90082">
        <ele>312.2</ele>
        <time>2014-04-13T14:32:32Z</time>
      </trkpt>
      <trkpt lat="49.18321" lon="6.90083">
        <ele>312.3</ele>
        <time>2014-04-13T14:32:37Z</time>
      </trkpt>
      <trkpt lat="49.18321" lon="6.90083">
        <ele>312.6</ele>
        <time>2014-04-13T14:32:42Z</time>
      </trkpt>
      <trkpt lat="49.18321" lon="6.90084">
        <ele>312.1</ele>
        <time>2014-04-13T14:32:47Z</time>
      </trkpt>
      <trkpt lat="49.1832" lon="6.90086">
        <ele>312.7</ele>
        <time>2014-04-13T14:32:52Z</time>
      </trkpt>
      <trkpt lat="49.1832" lon="6.90088">
        <ele>311.5</ele>
        <time>2014-04-13T14:32:57Z</time>
      </trkpt>
      <trkpt lat="49.1832" lon="6.90089">
        <ele>312.5</ele>
        <time>2014-04-13T14:33:02Z</time>
      </trkpt>
      <trkpt lat="49.18318" lon="6.90089">
        <ele>312.9</ele>
        <time>2014-04-13T14:33:07Z</time>
      </trkpt>
      <trkpt lat="49.18313" lon="6.90088">
        <ele>312</ele>
        <time>2014-04-13T14:33:17Z</time>
      </trkpt>
      <trkpt lat="49.18311" lon="6.90088">
        <ele>311</ele>
        <time>2014-04-13T14:33:22Z</time>
      </trkpt>
      <trkpt lat="49.18309" lon="6.90085">
        <ele>309.6</ele>
        <time>2014-04-13T14:33:27Z</time>
      </trkpt>
      <trkpt lat="49.18305" lon="6.90083">
        <ele>310.4</ele>
        <time>2014-04-13T14:33:32Z</time>
      </trkpt>
      <trkpt lat="49.18304" lon="6.90081">
        <ele>311.5</ele>
        <time>2014-04-13T14:33:37Z</time>
      </trkpt>
      <trkpt lat="49.18303" lon="6.90077">
        <ele>311.6</ele>
        <time>2014-04-13T14:33:42Z</time>
      </trkpt>
      <trkpt lat="49.18303" lon="6.90074">
        <ele>312.4</ele>
        <time>2014-04-13T14:33:47Z</time>
      </trkpt>
      <trkpt lat="49.18303" lon="6.90072">
        <ele>313.2</ele>
        <time>2014-04-13T14:33:52Z</time>
      </trkpt>
      <trkpt lat="49.18304" lon="6.90069">
        <ele>314.3</ele>
        <time>2014-04-13T14:33:57Z</time>
      </trkpt>
      <trkpt lat="49.18306" lon="6.90068">
        <ele>315.2</ele>
        <time>2014-04-13T14:34:02Z</time>
      </trkpt>
      <trkpt lat="49.18306" lon="6.90068">
        <ele>314.8</ele>
        <time>2014-04-13T14:34:07Z</time>
      </trkpt>
      <trkpt lat="49.1831" lon="6.90067">
        <ele>315.1</ele>
        <time>2014-04-13T14:34:12Z</time>
      </trkpt>
      <trkpt lat="49.18312" lon="6.90071">
        <ele>314.7</ele>
        <time>2014-04-13T14:34:22Z</time>
      </trkpt>
      <trkpt lat="49.18313" lon="6.90071">
        <ele>314.9</ele>
        <time>2014-04-13T14:34:27Z</time>
      </trkpt>
      <trkpt lat="49.18314" lon="6.90072">
        <ele>315.9</ele>
        <time>2014-04-13T14:34:32Z</time>
      </trkpt>
      <trkpt lat="49.18314" lon="6.90073">
        <ele>315.5</ele>
        <time>2014-04-13T14:34:37Z</time>
      </trkpt>
      <trkpt lat="49.18314" lon="6.90073">
        <ele>316</ele>
        <time>2014-04-13T14:34:42Z</time>
      </trkpt>
      <trkpt lat="49.18314" lon="6.90074">
        <ele>316</ele>
        <time>2014-04-13T14:34:47Z</time>
      </trkpt>
      <trkpt lat="49.18313" lon="6.90074">
        <ele>316</ele>
        <time>2014-04-13T14:34:52Z</time>
      </trkpt>
      <trkpt lat="49.18314" lon="6.90074">
        <ele>314.7</ele>
        <time>2014-04-13T14:34:57Z</time>
      </trkpt>
      <trkpt lat="49.18315" lon="6.90075">
        <ele>314.8</ele>
        <time>2014-04-13T14:35:02Z</time>
      </trkpt>
      <trkpt lat="49.18316" lon="6.90076">
        <ele>315.4</ele>
        <time>2014-04-13T14:35:07Z</time>
      </trkpt>
      <trkpt lat="49.18316" lon="6.90076">
        <ele>315.1</ele>
        <time>2014-04-13T14:35:12Z</time>
      </trkpt>
      <trkpt lat="49.18316" lon="6.90077">
        <ele>314.9</ele>
        <time>2014-04-13T14:35:17Z</time>
      </trkpt>
      <trkpt lat="49.18317" lon="6.90078">
        <ele>314.9</ele>
        <time>2014-04-13T14:35:27Z</time>
      </trkpt>
      <trkpt lat="49.18317" lon="6.90079">
        <ele>315.5</ele>
        <time>2014-04-13T14:35:32Z</time>
      </trkpt>
      <trkpt lat="49.18316" lon="6.9008">
        <ele>315.1</ele>
        <time>2014-04-13T14:35:37Z</time>
      </trkpt>
      <trkpt lat="49.18316" lon="6.90081">
        <ele>315.7</ele>
        <time>2014-04-13T14:35:42Z</time>
      </trkpt>
      <trkpt lat="49.18315" lon="6.90082">
        <ele>314.8</ele>
        <time>2014-04-13T14:35:47Z</time>
      </trkpt>
      <trkpt lat="49.18315" lon="6.90083">
        <ele>315</ele>
        <time>2014-04-13T14:35:52Z</time>
      </trkpt>
      <trkpt lat="49.18315" lon="6.90083">
        <ele>314.9</ele>
        <time>2014-04-13T14:35:57Z</time>
      </trkpt>
      <trkpt lat="49.18314" lon="6.90083">
        <ele>315.1</ele>
        <time>2014-04-13T14:36:02Z</time>
      </trkpt>
      <trkpt lat="49.18314" lon="6.90084">
        <ele>315.4</ele>
        <time>2014-04-13T14:36:07Z</time>
      </trkpt>
      <trkpt lat="49.18314" lon="6.90084">
        <ele>315.3</ele>
        <time>2014-04-13T14:36:12Z</time>
      </trkpt>
      <trkpt lat="49.18313" lon="6.90084">
        <ele>315.2</ele>
        <time>2014-04-13T14:36:17Z</time>
      </trkpt>
      <trkpt lat="49.18313" lon="6.90084">
        <ele>314.7</ele>
        <time>2014-04-13T14:36:22Z</time>
      </trkpt>
      <trkpt lat="49.18313" lon="6.90084">
        <ele>314.8</ele>
        <time>2014-04-13T14:36:32Z</time>
      </trkpt>
      <trkpt lat="49.18313" lon="6.90084">
        <ele>315.8</ele>
        <time>2014-04-13T14:36:37Z</time>
      </trkpt>
      <trkpt lat="49.18313" lon="6.90083">
        <ele>316.3</ele>
        <time>2014-04-13T14:36:42Z</time>
      </trkpt>
      <trkpt lat="49.18314" lon="6.90082">
        <ele>315.7</ele>
        <time>2014-04-13T14:36:47Z</time>
      </trkpt>
      <trkpt lat="49.18314" lon="6.90082">
        <ele>315</ele>
        <time>2014-04-13T14:36:52Z</time>
      </trkpt>
      <trkpt lat="49.18314" lon="6.90081">
        <ele>315</ele>
        <time>2014-04-13T14:36:57Z</time>
      </trkpt>
      <trkpt lat="49.18314" lon="6.90081">
        <ele>315.3</ele>
        <time>2014-04-13T14:37:02Z</time>
      </trkpt>
      <trkpt lat="49.18314" lon="6.9008">
        <ele>315</ele>
        <time>2014-04-13T14:37:07Z</time>
      </trkpt>
      <trkpt lat="49.18314" lon="6.9008">
        <ele>315.3</ele>
        <time>2014-04-13T14:37:12Z</time>
      </trkpt>
      <trkpt lat="49.18314" lon="6.9008">
        <ele>314.9</ele>
        <time>2014-04-13T14:37:17Z</time>
      </trkpt>
      <trkpt lat="49.18313" lon="6.9008">
        <ele>314.5</ele>
        <time>2014-04-13T14:37:22Z</time>
      </trkpt>
      <trkpt lat="49.18313" lon="6.9008">
        <ele>315.3</ele>
        <time>2014-04-13T14:37:27Z</time>
      </trkpt>
      <trkpt lat="49.18313" lon="6.9008">
        <ele>316.1</ele>
        <time>2014-04-13T14:37:37Z</time>
      </trkpt>
      <trkpt lat="49.18313" lon="6.9008">
        <ele>316.5</ele>
        <time>2014-04-13T14:37:42Z</time>
      </trkpt>
      <trkpt lat="49.18314" lon="6.9008">
        <ele>315.9</ele>
        <time>2014-04-13T14:37:47Z</time>
      </trkpt>
      <trkpt lat="49.18314" lon="6.9008">
        <ele>315.5</ele>
        <time>2014-04-13T14:37:52Z</time>
      </trkpt>
      <trkpt lat="49.18313" lon="6.90079">
        <ele>315.6</ele>
        <time>2014-04-13T14:37:57Z</time>
      </trkpt>
      <trkpt lat="49.18312" lon="6.90077">
        <ele>315.1</ele>
        <time>2014-04-13T14:38:02Z</time>
      </trkpt>
      <trkpt lat="49.18311" lon="6.90074">
        <ele>315</ele>
        <time>2014-04-13T14:38:07Z</time>
      </trkpt>
      <trkpt lat="49.18309" lon="6.90071">
        <ele>315.5</ele>
        <time>2014-04-13T14:38:12Z</time>
      </trkpt>
      <trkpt lat="49.18307" lon="6.90069">
        <ele>316.5</ele>
        <time>2014-04-13T14:38:17Z</time>
      </trkpt>
      <trkpt lat="49.18306" lon="6.90069">
        <ele>315.7</ele>
        <time>2014-04-13T14:38:22Z</time>
      </trkpt>
      <trkpt lat="49.18304" lon="6.90069">
        <ele>315.6</ele>
        <time>2014-04-13T14:38:27Z</time>
      </trkpt>
      <trkpt lat="49.18302" lon="6.9007">
        <ele>314.1</ele>
        <time>2014-04-13T14:38:32Z</time>
      </trkpt>
      <trkpt lat="49.18303" lon="6.90077">
        <ele>312.5</ele>
        <time>2014-04-13T14:38:42Z</time>
      </trkpt>
      <trkpt lat="49.18305" lon="6.9008">
        <ele>312.3</ele>
        <time>2014-04-13T14:38:47Z</time>
      </trkpt>
      <trkpt lat="49.1831" lon="6.90092">
        <ele>311</ele>
        <time>2014-04-13T14:38:57Z</time>
      </trkpt>
      <trkpt lat="49.18312" lon="6.90103">
        <ele>312.5</ele>
        <time>2014-04-13T14:39:02Z</time>
      </trkpt>
      <trkpt lat="49.18307" lon="6.90107">
        <ele>311.1</ele>
        <time>2014-04-13T14:39:07Z</time>
      </trkpt>
      <trkpt lat="49.18302" lon="6.90108">
        <ele>310.2</ele>
        <time>2014-04-13T14:39:12Z</time>
      </trkpt>
      <trkpt lat="49.18299" lon="6.90107">
        <ele>309.8</ele>
        <time>2014-04-13T14:39:17Z</time>
      </trkpt>
      <trkpt lat="49.18297" lon="6.90107">
        <ele>309</ele>
        <time>2014-04-13T14:39:22Z</time>
      </trkpt>
      <trkpt lat="49.18296" lon="6.90107">
        <ele>309.6</ele>
        <time>2014-04-13T14:39:27Z</time>
      </trkpt>
      <trkpt lat="49.18294" lon="6.90108">
        <ele>309</ele>
        <time>2014-04-13T14:39:32Z</time>
      </trkpt>
      <trkpt lat="49.18294" lon="6.90108">
        <ele>309.1</ele>
        <time>2014-04-13T14:39:37Z</time>
      </trkpt>
      <trkpt lat="49.18298" lon="6.90111">
        <ele>308.5</ele>
        <time>2014-04-13T14:39:47Z</time>
      </trkpt>
      <trkpt lat="49.183" lon="6.90113">
        <ele>307.2</ele>
        <time>2014-04-13T14:39:52Z</time>
      </trkpt>
      <trkpt lat="49.183" lon="6.90114">
        <ele>307.7</ele>
        <time>2014-04-13T14:39:57Z</time>
      </trkpt>
      <trkpt lat="49.18299" lon="6.90114">
        <ele>307.6</ele>
        <time>2014-04-13T14:40:02Z</time>
      </trkpt>
      <trkpt lat="49.18298" lon="6.90113">
        <ele>307.5</ele>
        <time>2014-04-13T14:40:07Z</time>
      </trkpt>
      <trkpt lat="49.18296" lon="6.90113">
        <ele>305</ele>
        <time>2014-04-13T14:40:12Z</time>
      </trkpt>
      <trkpt lat="49.18293" lon="6.90112">
        <ele>303.1</ele>
        <time>2014-04-13T14:40:17Z</time>
      </trkpt>
      <trkpt lat="49.1829" lon="6.90111">
        <ele>302.7</ele>
        <time>2014-04-13T14:40:22Z</time>
      </trkpt>
      <trkpt lat="49.18285" lon="6.90111">
        <ele>301.9</ele>
        <time>2014-04-13T14:40:27Z</time>
      </trkpt>
      <trkpt lat="49.1828" lon="6.90108">
        <ele>300.3</ele>
        <time>2014-04-13T14:40:32Z</time>
      </trkpt>
      <trkpt lat="49.18276" lon="6.90108">
        <ele>300.2</ele>
        <time>2014-04-13T14:40:37Z</time>
      </trkpt>
      <trkpt lat="49.18274" lon="6.90113">
        <ele>298.5</ele>
        <time>2014-04-13T14:40:42Z</time>
      </trkpt>
      <trkpt lat="49.18278" lon="6.90125">
        <ele>294.9</ele>
        <time>2014-04-13T14:40:52Z</time>
      </trkpt>
      <trkpt lat="49.18281" lon="6.9013">
        <ele>294</ele>
        <time>2014-04-13T14:40:57Z</time>
      </trkpt>
      <trkpt lat="49.18285" lon="6.9014">
        <ele>291.8</ele>
        <time>2014-04-13T14:41:02Z</time>
      </trkpt>
      <trkpt lat="49.18289" lon="6.9015">
        <ele>291</ele>
        <time>2014-04-13T14:41:07Z</time>
      </trkpt>
      <trkpt lat="49.18291" lon="6.90161">
        <ele>288.7</ele>
        <time>2014-04-13T14:41:12Z</time>
      </trkpt>
      <trkpt lat="49.18288" lon="6.90173">
        <ele>286.5</ele>
        <time>2014-04-13T14:41:17Z</time>
      </trkpt>
      <trkpt lat="49.18283" lon="6.90185">
        <ele>285.1</ele>
        <time>2014-04-13T14:41:22Z</time>
      </trkpt>
      <trkpt lat="49.18282" lon="6.90197">
        <ele>282</ele>
        <time>2014-04-13T14:41:27Z</time>
      </trkpt>
      <trkpt lat="49.18282" lon="6.90209">
        <ele>281.1</ele>
        <time>2014-04-13T14:41:32Z</time>
      </trkpt>
      <trkpt lat="49.18279" lon="6.9022">
        <ele>279.7</ele>
        <time>2014-04-13T14:41:37Z</time>
      </trkpt>
      <trkpt lat="49.18274" lon="6.90232">
        <ele>279.1</ele>
        <time>2014-04-13T14:41:42Z</time>
      </trkpt>
      <trkpt lat="49.1827" lon="6.90241">
        <ele>278.5</ele>
        <time>2014-04-13T14:41:47Z</time>
      </trkpt>
      <trkpt lat="49.18262" lon="6.90258">
        <ele>277.1</ele>
        <time>2014-04-13T14:41:57Z</time>
      </trkpt>
      <trkpt lat="49.18258" lon="6.90267">
        <ele>277.4</ele>
        <time>2014-04-13T14:42:02Z</time>
      </trkpt>
      <trkpt lat="49.18254" lon="6.90277">
        <ele>276.7</ele>
        <time>2014-04-13T14:42:07Z</time>
      </trkpt>
      <trkpt lat="49.18249" lon="6.90285">
        <ele>277.1</ele>
        <time>2014-04-13T14:42:12Z</time>
      </trkpt>
      <trkpt lat="49.18244" lon="6.90293">
        <ele>274.8</ele>
        <time>2014-04-13T14:42:17Z</time>
      </trkpt>
      <trkpt lat="49.1824" lon="6.90301">
        <ele>274</ele>
        <time>2014-04-13T14:42:22Z</time>
      </trkpt>
      <trkpt lat="49.18236" lon="6.90307">
        <ele>274.6</ele>
        <time>2014-04-13T14:42:27Z</time>
      </trkpt>
      <trkpt lat="49.18232" lon="6.90315">
        <ele>274.1</ele>
        <time>2014-04-13T14:42:32Z</time>
      </trkpt>
      <trkpt lat="49.1823" lon="6.90321">
        <ele>274.1</ele>
        <time>2014-04-13T14:42:37Z</time>
      </trkpt>
      <trkpt lat="49.18226" lon="6.90328">
        <ele>274.1</ele>
        <time>2014-04-13T14:42:42Z</time>
      </trkpt>
      <trkpt lat="49.18223" lon="6.90333">
        <ele>272.8</ele>
        <time>2014-04-13T14:42:47Z</time>
      </trkpt>
      <trkpt lat="49.18222" lon="6.90335">
        <ele>272.7</ele>
        <time>2014-04-13T14:42:52Z</time>
      </trkpt>
      <trkpt lat="49.18216" lon="6.90346">
        <ele>273.2</ele>
        <time>2014-04-13T14:43:02Z</time>
      </trkpt>
      <trkpt lat="49.18212" lon="6.9035">
        <ele>273.1</ele>
        <time>2014-04-13T14:43:07Z</time>
      </trkpt>
      <trkpt lat="49.18211" lon="6.90355">
        <ele>272.8</ele>
        <time>2014-04-13T14:43:12Z</time>
      </trkpt>
      <trkpt lat="49.1821" lon="6.90361">
        <ele>272.5</ele>
        <time>2014-04-13T14:43:17Z</time>
      </trkpt>
      <trkpt lat="49.18212" lon="6.9037">
        <ele>273.2</ele>
        <time>2014-04-13T14:43:22Z</time>
      </trkpt>
      <trkpt lat="49.18213" lon="6.90381">
        <ele>272.8</ele>
        <time>2014-04-13T14:43:27Z</time>
      </trkpt>
      <trkpt lat="49.18213" lon="6.90393">
        <ele>273.6</ele>
        <time>2014-04-13T14:43:32Z</time>
      </trkpt>
      <trkpt lat="49.18214" lon="6.90403">
        <ele>274.4</ele>
        <time>2014-04-13T14:43:37Z</time>
      </trkpt>
      <trkpt lat="49.18214" lon="6.90411">
        <ele>273.9</ele>
        <time>2014-04-13T14:43:42Z</time>
      </trkpt>
      <trkpt lat="49.18214" lon="6.90413">
        <ele>274.1</ele>
        <time>2014-04-13T14:43:47Z</time>
      </trkpt>
      <trkpt lat="49.18214" lon="6.90413">
        <ele>274.1</ele>
        <time>2014-04-13T14:43:48Z</time>
      </trkpt>
    </trkseg>
  </trk>
</gpx>